<?xml version='1.0' encoding='UTF-8'?><gpx version="1.1" creator="JPX - https://github.com/jenetics/jpx" xmlns="http://www.topografix.com/GPX/1/1"><trk><trkseg><trkpt lat="45.80049255471809" lon="7.563940735437821"><ele>1568.0</ele><time>2026-05-02T12:17:16Z</time></trkpt><trkpt lat="45.80035401872547" lon="7.563946997970953"><ele>1568.0</ele><time>2026-05-02T12:17:18Z</time></trkpt><trkpt lat="45.800269500252355" lon="7.563980907964043"><ele>1568.0</ele><time>2026-05-02T12:17:19Z</time></trkpt><trkpt lat="45.800174912419855" lon="7.564022814269045"><ele>1568.0</ele><time>2026-05-02T12:17:20Z</time></trkpt><trkpt lat="45.800068878890414" lon="7.56407302893906"><ele>1568.0</ele><time>2026-05-02T12:17:21Z</time></trkpt><trkpt lat="45.79994926064493" lon="7.564119688513882"><ele>1567.25</ele><time>2026-05-02T12:17:22Z</time></trkpt><trkpt lat="45.79982106290036" lon="7.564165266644755"><ele>1566.5</ele><time>2026-05-02T12:17:23Z</time></trkpt><trkpt lat="45.7996874007535" lon="7.564203553158482"><ele>1565.75</ele><time>2026-05-02T12:17:24Z</time></trkpt><trkpt lat="45.799552402409184" lon="7.564232414337012"><ele>1565.0</ele><time>2026-05-02T12:17:25Z</time></trkpt><trkpt lat="45.7994171988751" lon="7.5642351279993605"><ele>1564.5</ele><time>2026-05-02T12:17:26Z</time></trkpt><trkpt lat="45.79928165088746" lon="7.564230542433067"><ele>1564.0</ele><time>2026-05-02T12:17:27Z</time></trkpt><trkpt lat="45.79914805907326" lon="7.564210406979646"><ele>1563.5</ele><time>2026-05-02T12:17:28Z</time></trkpt><trkpt lat="45.79901541046758" lon="7.564185541051976"><ele>1563.0</ele><time>2026-05-02T12:17:29Z</time></trkpt><trkpt lat="45.79887974739187" lon="7.564152632143552"><ele>1563.0</ele><time>2026-05-02T12:17:30Z</time></trkpt><trkpt lat="45.79874498794078" lon="7.564120704214236"><ele>1563.0</ele><time>2026-05-02T12:17:31Z</time></trkpt><trkpt lat="45.798608887599535" lon="7.5640812506279635"><ele>1563.0</ele><time>2026-05-02T12:17:32Z</time></trkpt><trkpt lat="45.79848021358202" lon="7.5640268095049965"><ele>1563.0</ele><time>2026-05-02T12:17:33Z</time></trkpt><trkpt lat="45.798361688249344" lon="7.563951792346989"><ele>1562.0</ele><time>2026-05-02T12:17:34Z</time></trkpt><trkpt lat="45.79825426224286" lon="7.563846189800613"><ele>1561.0</ele><time>2026-05-02T12:17:35Z</time></trkpt><trkpt lat="45.798165205110955" lon="7.563697653047923"><ele>1560.0</ele><time>2026-05-02T12:17:36Z</time></trkpt><trkpt lat="45.79807546391078" lon="7.563535940211541"><ele>1559.0</ele><time>2026-05-02T12:17:37Z</time></trkpt><trkpt lat="45.79798193307867" lon="7.563369615902655"><ele>1562.75</ele><time>2026-05-02T12:17:38Z</time></trkpt><trkpt lat="45.79789252417394" lon="7.563200226950174"><ele>1566.5</ele><time>2026-05-02T12:17:39Z</time></trkpt><trkpt lat="45.797836479727984" lon="7.563052013114852"><ele>1570.25</ele><time>2026-05-02T12:17:40Z</time></trkpt><trkpt lat="45.797812542121555" lon="7.56289115016626"><ele>1574.0</ele><time>2026-05-02T12:17:41Z</time></trkpt><trkpt lat="45.79782594988393" lon="7.5627367610265885"><ele>1575.0</ele><time>2026-05-02T12:17:42Z</time></trkpt><trkpt lat="45.797856918393705" lon="7.562569027702502"><ele>1576.0</ele><time>2026-05-02T12:17:43Z</time></trkpt><trkpt lat="45.797896671432326" lon="7.56240554092362"><ele>1577.0</ele><time>2026-05-02T12:17:44Z</time></trkpt><trkpt lat="45.79794014056157" lon="7.562220122126333"><ele>1578.0</ele><time>2026-05-02T12:17:45Z</time></trkpt><trkpt lat="45.79797934533173" lon="7.5619849535272445"><ele>1579.0</ele><time>2026-05-02T12:17:46Z</time></trkpt><trkpt lat="45.79796278404861" lon="7.561787685504835"><ele>1580.0</ele><time>2026-05-02T12:17:47Z</time></trkpt><trkpt lat="45.79790563197762" lon="7.5616236172481"><ele>1581.0</ele><time>2026-05-02T12:17:48Z</time></trkpt><trkpt lat="45.79784326645285" lon="7.561518332386936"><ele>1582.0</ele><time>2026-05-02T12:17:49Z</time></trkpt><trkpt lat="45.79773778713667" lon="7.561413506298062"><ele>1580.25</ele><time>2026-05-02T12:17:50Z</time></trkpt><trkpt lat="45.79765073085202" lon="7.561275252594833"><ele>1578.5</ele><time>2026-05-02T12:17:51Z</time></trkpt><trkpt lat="45.79755978854955" lon="7.561121029621061"><ele>1576.75</ele><time>2026-05-02T12:17:52Z</time></trkpt><trkpt lat="45.79747664256271" lon="7.560970991586255"><ele>1575.0</ele><time>2026-05-02T12:17:53Z</time></trkpt><trkpt lat="45.79745718227439" lon="7.5607956094383715"><ele>1575.0</ele><time>2026-05-02T12:17:54Z</time></trkpt><trkpt lat="45.797422104522965" lon="7.560633542550067"><ele>1575.0</ele><time>2026-05-02T12:17:55Z</time></trkpt><trkpt lat="45.79738620064611" lon="7.5604778837999875"><ele>1575.0</ele><time>2026-05-02T12:17:56Z</time></trkpt><trkpt lat="45.79730507137451" lon="7.560346883388772"><ele>1575.0</ele><time>2026-05-02T12:17:57Z</time></trkpt><trkpt lat="45.797182103480495" lon="7.560286806994434"><ele>1574.25</ele><time>2026-05-02T12:17:58Z</time></trkpt><trkpt lat="45.79704675988928" lon="7.560289464494179"><ele>1573.5</ele><time>2026-05-02T12:17:59Z</time></trkpt><trkpt lat="45.796902392482906" lon="7.560305371265442"><ele>1572.75</ele><time>2026-05-02T12:18:00Z</time></trkpt><trkpt lat="45.7967604790007" lon="7.560349912057617"><ele>1572.0</ele><time>2026-05-02T12:18:01Z</time></trkpt><trkpt lat="45.79660255433156" lon="7.560407472670067"><ele>1572.0</ele><time>2026-05-02T12:18:02Z</time></trkpt><trkpt lat="45.79642849120032" lon="7.5603947455110365"><ele>1572.0</ele><time>2026-05-02T12:18:03Z</time></trkpt><trkpt lat="45.796242108484755" lon="7.560339762051888"><ele>1572.0</ele><time>2026-05-02T12:18:04Z</time></trkpt><trkpt lat="45.79606025665549" lon="7.56024092333731"><ele>1580.0</ele><time>2026-05-02T12:18:05Z</time></trkpt><trkpt lat="45.795908279033064" lon="7.56011509086255"><ele>1588.0</ele><time>2026-05-02T12:18:06Z</time></trkpt><trkpt lat="45.79575629828729" lon="7.560088944524668"><ele>1596.0</ele><time>2026-05-02T12:18:07Z</time></trkpt><trkpt lat="45.79563022403052" lon="7.560121785310469"><ele>1596.0</ele><time>2026-05-02T12:18:08Z</time></trkpt><trkpt lat="45.795514556559944" lon="7.560223400704984"><ele>1596.0</ele><time>2026-05-02T12:18:09Z</time></trkpt><trkpt lat="45.79541847601378" lon="7.560363245580456"><ele>1596.0</ele><time>2026-05-02T12:18:10Z</time></trkpt><trkpt lat="45.79530378788726" lon="7.56048682302532"><ele>1596.0</ele><time>2026-05-02T12:18:11Z</time></trkpt><trkpt lat="45.7951595319248" lon="7.560555423834467"><ele>1596.3333333333335</ele><time>2026-05-02T12:18:12Z</time></trkpt><trkpt lat="45.795001937370714" lon="7.560620802914978"><ele>1596.6666666666667</ele><time>2026-05-02T12:18:13Z</time></trkpt><trkpt lat="45.794866313485336" lon="7.560737355277294"><ele>1597.0</ele><time>2026-05-02T12:18:14Z</time></trkpt><trkpt lat="45.79474892391742" lon="7.56091284139921"><ele>1597.0</ele><time>2026-05-02T12:18:15Z</time></trkpt><trkpt lat="45.79465948390239" lon="7.561091276487264"><ele>1597.0</ele><time>2026-05-02T12:18:16Z</time></trkpt><trkpt lat="45.79456209144208" lon="7.561234790806068"><ele>1597.0</ele><time>2026-05-02T12:18:17Z</time></trkpt><trkpt lat="45.79444020369142" lon="7.561342184977031"><ele>1597.0</ele><time>2026-05-02T12:18:18Z</time></trkpt><trkpt lat="45.79432184405233" lon="7.561445611369467"><ele>1596.5</ele><time>2026-05-02T12:18:19Z</time></trkpt><trkpt lat="45.79421623389134" lon="7.561516501911529"><ele>1596.0</ele><time>2026-05-02T12:18:20Z</time></trkpt><trkpt lat="45.79410453851658" lon="7.561500890660776"><ele>1595.5</ele><time>2026-05-02T12:18:21Z</time></trkpt><trkpt lat="45.79400056305559" lon="7.561436988004961"><ele>1595.0</ele><time>2026-05-02T12:18:22Z</time></trkpt><trkpt lat="45.793896264663" lon="7.561334995656761"><ele>1595.0</ele><time>2026-05-02T12:18:23Z</time></trkpt><trkpt lat="45.793776479270335" lon="7.561254753082591"><ele>1595.0</ele><time>2026-05-02T12:18:24Z</time></trkpt><trkpt lat="45.79363936767939" lon="7.5611879611482316"><ele>1595.0</ele><time>2026-05-02T12:18:25Z</time></trkpt><trkpt lat="45.79350554319919" lon="7.5611096311570085"><ele>1595.0</ele><time>2026-05-02T12:18:26Z</time></trkpt><trkpt lat="45.79338331244713" lon="7.561021766061917"><ele>1597.5</ele><time>2026-05-02T12:18:27Z</time></trkpt><trkpt lat="45.793265628943566" lon="7.560905579324361"><ele>1600.0</ele><time>2026-05-02T12:18:28Z</time></trkpt><trkpt lat="45.79315980320476" lon="7.560760709955935"><ele>1602.5</ele><time>2026-05-02T12:18:29Z</time></trkpt><trkpt lat="45.793044423356285" lon="7.560601350847214"><ele>1605.0</ele><time>2026-05-02T12:18:30Z</time></trkpt><trkpt lat="45.792938967535044" lon="7.56041503663056"><ele>1605.6666666666665</ele><time>2026-05-02T12:18:31Z</time></trkpt><trkpt lat="45.79282025761919" lon="7.560239371017326"><ele>1606.3333333333333</ele><time>2026-05-02T12:18:32Z</time></trkpt><trkpt lat="45.79270027535347" lon="7.560071303506584"><ele>1607.0</ele><time>2026-05-02T12:18:33Z</time></trkpt><trkpt lat="45.792582603025544" lon="7.559920163810653"><ele>1607.0</ele><time>2026-05-02T12:18:34Z</time></trkpt><trkpt lat="45.792462748029465" lon="7.559806222264359"><ele>1607.0</ele><time>2026-05-02T12:18:35Z</time></trkpt><trkpt lat="45.792363912035164" lon="7.559691925126601"><ele>1607.0</ele><time>2026-05-02T12:18:36Z</time></trkpt><trkpt lat="45.79223427182662" lon="7.559659613168784"><ele>1607.0</ele><time>2026-05-02T12:18:37Z</time></trkpt><trkpt lat="45.79211041967246" lon="7.5597541839635385"><ele>1607.0</ele><time>2026-05-02T12:18:38Z</time></trkpt><trkpt lat="45.79198178283317" lon="7.559825143122627"><ele>1607.0</ele><time>2026-05-02T12:18:39Z</time></trkpt><trkpt lat="45.79184196336615" lon="7.55990567742754"><ele>1607.0</ele><time>2026-05-02T12:18:40Z</time></trkpt><trkpt lat="45.79169641761405" lon="7.55998809126505"><ele>1607.0</ele><time>2026-05-02T12:18:41Z</time></trkpt><trkpt lat="45.791552562883574" lon="7.560062924917807"><ele>1607.25</ele><time>2026-05-02T12:18:42Z</time></trkpt><trkpt lat="45.79141045179698" lon="7.560097733673548"><ele>1607.5</ele><time>2026-05-02T12:18:43Z</time></trkpt><trkpt lat="45.791271279046725" lon="7.560072722323251"><ele>1607.75</ele><time>2026-05-02T12:18:44Z</time></trkpt><trkpt lat="45.791127637832965" lon="7.560027584838212"><ele>1608.0</ele><time>2026-05-02T12:18:45Z</time></trkpt><trkpt lat="45.79095053391653" lon="7.560017623609384"><ele>1611.0</ele><time>2026-05-02T12:18:46Z</time></trkpt><trkpt lat="45.79077823806311" lon="7.559997684396167"><ele>1614.0</ele><time>2026-05-02T12:18:47Z</time></trkpt><trkpt lat="45.79061553136546" lon="7.5600140558894875"><ele>1617.0</ele><time>2026-05-02T12:18:48Z</time></trkpt><trkpt lat="45.79045421959566" lon="7.560086943635343"><ele>1617.0</ele><time>2026-05-02T12:18:49Z</time></trkpt><trkpt lat="45.79028862084366" lon="7.560163182290837"><ele>1617.0</ele><time>2026-05-02T12:18:50Z</time></trkpt><trkpt lat="45.79012070305396" lon="7.560241373347908"><ele>1617.0</ele><time>2026-05-02T12:18:51Z</time></trkpt><trkpt lat="45.789947869634844" lon="7.560340081169854"><ele>1614.6666666666665</ele><time>2026-05-02T12:18:52Z</time></trkpt><trkpt lat="45.78977675289666" lon="7.560445020347685"><ele>1612.3333333333333</ele><time>2026-05-02T12:18:53Z</time></trkpt><trkpt lat="45.78962474779789" lon="7.560590276423156"><ele>1610.0</ele><time>2026-05-02T12:18:54Z</time></trkpt><trkpt lat="45.789453941575324" lon="7.560684729607082"><ele>1616.0</ele><time>2026-05-02T12:18:55Z</time></trkpt><trkpt lat="45.78926773910099" lon="7.5607519714696325"><ele>1622.0</ele><time>2026-05-02T12:18:56Z</time></trkpt><trkpt lat="45.789070374509734" lon="7.560800997196382"><ele>1628.0</ele><time>2026-05-02T12:18:57Z</time></trkpt><trkpt lat="45.788882808119105" lon="7.560921252998552"><ele>1628.0</ele><time>2026-05-02T12:18:58Z</time></trkpt><trkpt lat="45.788708148931164" lon="7.561036626157119"><ele>1628.0</ele><time>2026-05-02T12:18:59Z</time></trkpt><trkpt lat="45.788532701078374" lon="7.561139624489756"><ele>1628.0</ele><time>2026-05-02T12:19:00Z</time></trkpt><trkpt lat="45.78837738907685" lon="7.5612300217905775"><ele>1629.0</ele><time>2026-05-02T12:19:01Z</time></trkpt><trkpt lat="45.788211110947664" lon="7.561312560704328"><ele>1630.0</ele><time>2026-05-02T12:19:02Z</time></trkpt><trkpt lat="45.78804661565305" lon="7.561387190434249"><ele>1631.0</ele><time>2026-05-02T12:19:03Z</time></trkpt><trkpt lat="45.78789172757002" lon="7.561472688507362"><ele>1631.0</ele><time>2026-05-02T12:19:04Z</time></trkpt><trkpt lat="45.78775854705154" lon="7.561592931997837"><ele>1631.0</ele><time>2026-05-02T12:19:05Z</time></trkpt><trkpt lat="45.78765676241658" lon="7.561744079905003"><ele>1631.0</ele><time>2026-05-02T12:19:06Z</time></trkpt><trkpt lat="45.78759244575873" lon="7.561934239300683"><ele>1637.0</ele><time>2026-05-02T12:19:07Z</time></trkpt><trkpt lat="45.78754264419358" lon="7.562135137548082"><ele>1643.0</ele><time>2026-05-02T12:19:08Z</time></trkpt><trkpt lat="45.78751142251372" lon="7.562353343955072"><ele>1649.0</ele><time>2026-05-02T12:19:09Z</time></trkpt><trkpt lat="45.78748900668492" lon="7.562562060370919"><ele>1649.0</ele><time>2026-05-02T12:19:10Z</time></trkpt><trkpt lat="45.787493036274306" lon="7.562783583592865"><ele>1649.0</ele><time>2026-05-02T12:19:11Z</time></trkpt><trkpt lat="45.78750874284015" lon="7.563001750100978"><ele>1649.0</ele><time>2026-05-02T12:19:12Z</time></trkpt><trkpt lat="45.78751845581965" lon="7.5632214693492585"><ele>1649.6666666666665</ele><time>2026-05-02T12:19:13Z</time></trkpt><trkpt lat="45.78752734971766" lon="7.563442805083933"><ele>1650.3333333333335</ele><time>2026-05-02T12:19:14Z</time></trkpt><trkpt lat="45.78753706936849" lon="7.563658832499157"><ele>1651.0</ele><time>2026-05-02T12:19:15Z</time></trkpt><trkpt lat="45.78754665422148" lon="7.563865505710044"><ele>1651.0</ele><time>2026-05-02T12:19:16Z</time></trkpt><trkpt lat="45.78753747518117" lon="7.564055338845067"><ele>1651.0</ele><time>2026-05-02T12:19:17Z</time></trkpt><trkpt lat="45.787513659322045" lon="7.564228434502678"><ele>1651.0</ele><time>2026-05-02T12:19:18Z</time></trkpt><trkpt lat="45.78747434164823" lon="7.564390198798235"><ele>1651.0</ele><time>2026-05-02T12:19:19Z</time></trkpt><trkpt lat="45.7873898262005" lon="7.564518480393228"><ele>1649.75</ele><time>2026-05-02T12:19:20Z</time></trkpt><trkpt lat="45.787320845286246" lon="7.5646656850748695"><ele>1648.5</ele><time>2026-05-02T12:19:21Z</time></trkpt><trkpt lat="45.78723074581859" lon="7.56482012700091"><ele>1647.25</ele><time>2026-05-02T12:19:22Z</time></trkpt><trkpt lat="45.787168038032696" lon="7.564996495546151"><ele>1646.0</ele><time>2026-05-02T12:19:23Z</time></trkpt><trkpt lat="45.78711890205602" lon="7.565203450207542"><ele>1643.6666666666665</ele><time>2026-05-02T12:19:24Z</time></trkpt><trkpt lat="45.787076160312864" lon="7.56541768192315"><ele>1641.3333333333335</ele><time>2026-05-02T12:19:25Z</time></trkpt><trkpt lat="45.78705285799101" lon="7.565661718434656"><ele>1639.0</ele><time>2026-05-02T12:19:26Z</time></trkpt><trkpt lat="45.78703686222744" lon="7.5659107821845"><ele>1639.0</ele><time>2026-05-02T12:19:27Z</time></trkpt><trkpt lat="45.78702004246715" lon="7.566162928237892"><ele>1639.0</ele><time>2026-05-02T12:19:28Z</time></trkpt><trkpt lat="45.78700759347983" lon="7.5663916405097575"><ele>1639.0</ele><time>2026-05-02T12:19:29Z</time></trkpt><trkpt lat="45.78698690564938" lon="7.566585968893896"><ele>1636.6</ele><time>2026-05-02T12:19:30Z</time></trkpt><trkpt lat="45.78699478479763" lon="7.566757839445427"><ele>1634.2</ele><time>2026-05-02T12:19:31Z</time></trkpt><trkpt lat="45.78699997835643" lon="7.566908108208195"><ele>1631.8</ele><time>2026-05-02T12:19:32Z</time></trkpt><trkpt lat="45.787008249241104" lon="7.567037232305696"><ele>1629.3999999999999</ele><time>2026-05-02T12:19:33Z</time></trkpt><trkpt lat="45.786994485048055" lon="7.567157154108545"><ele>1627.0</ele><time>2026-05-02T12:19:34Z</time></trkpt><trkpt lat="45.78697025087395" lon="7.56727744530905"><ele>1623.1999999999998</ele><time>2026-05-02T12:19:35Z</time></trkpt><trkpt lat="45.786938703222326" lon="7.567405786124916"><ele>1619.4</ele><time>2026-05-02T12:19:36Z</time></trkpt><trkpt lat="45.78688841710178" lon="7.5675355565786235"><ele>1615.6</ele><time>2026-05-02T12:19:37Z</time></trkpt><trkpt lat="45.78681127574226" lon="7.5676500048185495"><ele>1611.8000000000002</ele><time>2026-05-02T12:19:38Z</time></trkpt><trkpt lat="45.786711257611735" lon="7.5677256362938286"><ele>1608.0</ele><time>2026-05-02T12:19:39Z</time></trkpt><trkpt lat="45.78660901366534" lon="7.567808935139135"><ele>1617.2</ele><time>2026-05-02T12:19:40Z</time></trkpt><trkpt lat="45.786530129059315" lon="7.567940211064569"><ele>1626.4</ele><time>2026-05-02T12:19:41Z</time></trkpt><trkpt lat="45.78646140379429" lon="7.568080068933817"><ele>1635.6000000000001</ele><time>2026-05-02T12:19:42Z</time></trkpt><trkpt lat="45.78639054967984" lon="7.568198647318873"><ele>1644.8000000000002</ele><time>2026-05-02T12:19:43Z</time></trkpt><trkpt lat="45.786307588330516" lon="7.568260178118445"><ele>1654.0</ele><time>2026-05-02T12:19:44Z</time></trkpt><trkpt lat="45.78620241867478" lon="7.568290804988236"><ele>1654.0</ele><time>2026-05-02T12:19:45Z</time></trkpt><trkpt lat="45.7860905438535" lon="7.568328376427747"><ele>1654.0</ele><time>2026-05-02T12:19:46Z</time></trkpt><trkpt lat="45.785966951191895" lon="7.568357982811949"><ele>1654.0</ele><time>2026-05-02T12:19:47Z</time></trkpt><trkpt lat="45.7858404198626" lon="7.568361952079841"><ele>1654.0</ele><time>2026-05-02T12:19:48Z</time></trkpt><trkpt lat="45.785714385459364" lon="7.568330989336806"><ele>1656.5</ele><time>2026-05-02T12:19:49Z</time></trkpt><trkpt lat="45.78558571890043" lon="7.568275990113404"><ele>1659.0</ele><time>2026-05-02T12:19:50Z</time></trkpt><trkpt lat="45.785448629246794" lon="7.568240174292232"><ele>1661.5</ele><time>2026-05-02T12:19:51Z</time></trkpt><trkpt lat="45.78529302832388" lon="7.568239981593984"><ele>1664.0</ele><time>2026-05-02T12:19:52Z</time></trkpt><trkpt lat="45.78513476680291" lon="7.568257093084256"><ele>1665.0</ele><time>2026-05-02T12:19:53Z</time></trkpt><trkpt lat="45.784971409643354" lon="7.56829054374452"><ele>1666.0</ele><time>2026-05-02T12:19:54Z</time></trkpt><trkpt lat="45.784822401299046" lon="7.568339036997982"><ele>1667.0</ele><time>2026-05-02T12:19:55Z</time></trkpt><trkpt lat="45.78468978882719" lon="7.568385716157375"><ele>1667.0</ele><time>2026-05-02T12:19:56Z</time></trkpt><trkpt lat="45.78457832608582" lon="7.5684219559579935"><ele>1667.0</ele><time>2026-05-02T12:19:57Z</time></trkpt><trkpt lat="45.78448391814503" lon="7.56842306482034"><ele>1667.0</ele><time>2026-05-02T12:19:58Z</time></trkpt><trkpt lat="45.78439896397037" lon="7.568364622921678"><ele>1667.0</ele><time>2026-05-02T12:19:59Z</time></trkpt><trkpt lat="45.78430018507773" lon="7.568236319240692"><ele>1667.0</ele><time>2026-05-02T12:20:00Z</time></trkpt><trkpt lat="45.78418480042915" lon="7.56811232782885"><ele>1669.6666666666665</ele><time>2026-05-02T12:20:01Z</time></trkpt><trkpt lat="45.78404372705285" lon="7.567962562833546"><ele>1672.3333333333335</ele><time>2026-05-02T12:20:02Z</time></trkpt><trkpt lat="45.78390344382999" lon="7.5678304567254004"><ele>1675.0</ele><time>2026-05-02T12:20:03Z</time></trkpt><trkpt lat="45.78376381868539" lon="7.567685564567027"><ele>1675.0</ele><time>2026-05-02T12:20:04Z</time></trkpt><trkpt lat="45.78365301436757" lon="7.56748802548045"><ele>1675.0</ele><time>2026-05-02T12:20:05Z</time></trkpt><trkpt lat="45.783564885288534" lon="7.567272372794828"><ele>1675.0</ele><time>2026-05-02T12:20:06Z</time></trkpt><trkpt lat="45.78348747392251" lon="7.567041626477691"><ele>1666.0</ele><time>2026-05-02T12:20:07Z</time></trkpt><trkpt lat="45.78337029425797" lon="7.566857367175936"><ele>1657.0</ele><time>2026-05-02T12:20:08Z</time></trkpt><trkpt lat="45.78329209485214" lon="7.566665931538397"><ele>1648.0</ele><time>2026-05-02T12:20:09Z</time></trkpt><trkpt lat="45.78327488683753" lon="7.566454875794736"><ele>1648.0</ele><time>2026-05-02T12:20:10Z</time></trkpt><trkpt lat="45.78326154476996" lon="7.566269395246577"><ele>1648.0</ele><time>2026-05-02T12:20:11Z</time></trkpt><trkpt lat="45.78319077984803" lon="7.56610487554317"><ele>1648.0</ele><time>2026-05-02T12:20:12Z</time></trkpt><trkpt lat="45.78310321798459" lon="7.566006827586076"><ele>1648.0</ele><time>2026-05-02T12:20:13Z</time></trkpt><trkpt lat="45.783072522247785" lon="7.565867513531643"><ele>1648.1666666666667</ele><time>2026-05-02T12:20:14Z</time></trkpt><trkpt lat="45.78308716519216" lon="7.5657264490971"><ele>1648.3333333333335</ele><time>2026-05-02T12:20:15Z</time></trkpt><trkpt lat="45.78308534047125" lon="7.565609977001655"><ele>1648.5</ele><time>2026-05-02T12:20:16Z</time></trkpt><trkpt lat="45.78304157238373" lon="7.565531807605109"><ele>1648.6666666666665</ele><time>2026-05-02T12:20:17Z</time></trkpt><trkpt lat="45.78298390157931" lon="7.565488264826211"><ele>1648.8333333333333</ele><time>2026-05-02T12:20:18Z</time></trkpt><trkpt lat="45.78291072515052" lon="7.565559231445416"><ele>1649.0</ele><time>2026-05-02T12:20:19Z</time></trkpt><trkpt lat="45.782895613770805" lon="7.565706626294742"><ele>1649.0</ele><time>2026-05-02T12:20:20Z</time></trkpt><trkpt lat="45.782890397673015" lon="7.565870671230296"><ele>1649.0</ele><time>2026-05-02T12:20:21Z</time></trkpt><trkpt lat="45.78290828904403" lon="7.5660632002188715"><ele>1649.0</ele><time>2026-05-02T12:20:22Z</time></trkpt><trkpt lat="45.78298303337714" lon="7.566197987411824"><ele>1649.0</ele><time>2026-05-02T12:20:23Z</time></trkpt><trkpt lat="45.78298498452592" lon="7.566332152449751"><ele>1648.75</ele><time>2026-05-02T12:20:24Z</time></trkpt><trkpt lat="45.78293817302784" lon="7.566443245378774"><ele>1648.5</ele><time>2026-05-02T12:20:25Z</time></trkpt><trkpt lat="45.78283857140888" lon="7.566515844286131"><ele>1648.25</ele><time>2026-05-02T12:20:26Z</time></trkpt><trkpt lat="45.782709833516506" lon="7.566597297813682"><ele>1648.0</ele><time>2026-05-02T12:20:27Z</time></trkpt><trkpt lat="45.7825948596424" lon="7.566704153303403"><ele>1639.3333333333335</ele><time>2026-05-02T12:20:28Z</time></trkpt><trkpt lat="45.782465592637884" lon="7.566831559007179"><ele>1630.6666666666665</ele><time>2026-05-02T12:20:29Z</time></trkpt><trkpt lat="45.78239123729545" lon="7.567023727836529"><ele>1622.0</ele><time>2026-05-02T12:20:30Z</time></trkpt><trkpt lat="45.782330216798194" lon="7.567215860852598"><ele>1622.0</ele><time>2026-05-02T12:20:31Z</time></trkpt><trkpt lat="45.78230155172563" lon="7.567415113024522"><ele>1622.0</ele><time>2026-05-02T12:20:32Z</time></trkpt><trkpt lat="45.78229587880136" lon="7.567623687817416"><ele>1622.0</ele><time>2026-05-02T12:20:33Z</time></trkpt><trkpt lat="45.782280521227655" lon="7.567834145597342"><ele>1622.0</ele><time>2026-05-02T12:20:34Z</time></trkpt><trkpt lat="45.782218147214515" lon="7.5680395488189465"><ele>1621.6666666666665</ele><time>2026-05-02T12:20:35Z</time></trkpt><trkpt lat="45.78213417589111" lon="7.56825023131865"><ele>1621.3333333333335</ele><time>2026-05-02T12:20:36Z</time></trkpt><trkpt lat="45.782052217274014" lon="7.568478162273912"><ele>1621.0</ele><time>2026-05-02T12:20:37Z</time></trkpt><trkpt lat="45.78197320124559" lon="7.568704084045898"><ele>1620.25</ele><time>2026-05-02T12:20:38Z</time></trkpt><trkpt lat="45.781895808373626" lon="7.568923920252622"><ele>1619.5</ele><time>2026-05-02T12:20:39Z</time></trkpt><trkpt lat="45.78183555322515" lon="7.569117984348449"><ele>1618.75</ele><time>2026-05-02T12:20:40Z</time></trkpt><trkpt lat="45.78179120596399" lon="7.569291762552965"><ele>1618.0</ele><time>2026-05-02T12:20:41Z</time></trkpt><trkpt lat="45.781775029390104" lon="7.569459729983411"><ele>1618.0000000000002</ele><time>2026-05-02T12:20:42Z</time></trkpt><trkpt lat="45.78179979466682" lon="7.5696166987943405"><ele>1618.0</ele><time>2026-05-02T12:20:43Z</time></trkpt><trkpt lat="45.781855182973175" lon="7.569735121900087"><ele>1618.0</ele><time>2026-05-02T12:20:44Z</time></trkpt><trkpt lat="45.781888117461" lon="7.569839732806611"><ele>1618.0</ele><time>2026-05-02T12:20:45Z</time></trkpt><trkpt lat="45.78187340179336" lon="7.569939503415301"><ele>1618.0000000000002</ele><time>2026-05-02T12:20:46Z</time></trkpt><trkpt lat="45.7818099236146" lon="7.570009606272781"><ele>1618.0</ele><time>2026-05-02T12:20:47Z</time></trkpt><trkpt lat="45.781713166890185" lon="7.570030720986062"><ele>1614.5</ele><time>2026-05-02T12:20:48Z</time></trkpt><trkpt lat="45.78158287054694" lon="7.570048530490347"><ele>1611.0</ele><time>2026-05-02T12:20:49Z</time></trkpt><trkpt lat="45.78146243564715" lon="7.57008524554174"><ele>1607.5</ele><time>2026-05-02T12:20:50Z</time></trkpt><trkpt lat="45.781347444372706" lon="7.570168748990965"><ele>1604.0</ele><time>2026-05-02T12:20:51Z</time></trkpt><trkpt lat="45.78123967495647" lon="7.57030233187431"><ele>1601.75</ele><time>2026-05-02T12:20:52Z</time></trkpt><trkpt lat="45.78113114359212" lon="7.570428037731782"><ele>1599.5</ele><time>2026-05-02T12:20:53Z</time></trkpt><trkpt lat="45.781023675087184" lon="7.570559945861976"><ele>1597.25</ele><time>2026-05-02T12:20:54Z</time></trkpt><trkpt lat="45.780941172846084" lon="7.570711007824711"><ele>1595.0</ele><time>2026-05-02T12:20:55Z</time></trkpt><trkpt lat="45.78090529750143" lon="7.57087767448747"><ele>1594.9999999999998</ele><time>2026-05-02T12:20:56Z</time></trkpt><trkpt lat="45.780889705434326" lon="7.5710074502942675"><ele>1595.0</ele><time>2026-05-02T12:20:57Z</time></trkpt><trkpt lat="45.78084630436653" lon="7.571092164086134"><ele>1595.0</ele><time>2026-05-02T12:20:58Z</time></trkpt><trkpt lat="45.78074228088469" lon="7.571067131035828"><ele>1595.0</ele><time>2026-05-02T12:21:00Z</time></trkpt><trkpt lat="45.78072608399528" lon="7.570962033579326"><ele>1594.9999999999998</ele><time>2026-05-02T12:21:01Z</time></trkpt><trkpt lat="45.780754187439406" lon="7.570822816478854"><ele>1595.0</ele><time>2026-05-02T12:21:02Z</time></trkpt><trkpt lat="45.78079141218189" lon="7.570665640562516"><ele>1595.0</ele><time>2026-05-02T12:21:03Z</time></trkpt><trkpt lat="45.78084623864552" lon="7.570480714115812"><ele>1595.0</ele><time>2026-05-02T12:21:04Z</time></trkpt><trkpt lat="45.7808993275513" lon="7.570275870476985"><ele>1595.0</ele><time>2026-05-02T12:21:05Z</time></trkpt><trkpt lat="45.7809616247923" lon="7.570076428856663"><ele>1595.0</ele><time>2026-05-02T12:21:06Z</time></trkpt><trkpt lat="45.78097449647218" lon="7.569874188997429"><ele>1591.0</ele><time>2026-05-02T12:21:07Z</time></trkpt><trkpt lat="45.780990929332184" lon="7.56970555644084"><ele>1587.0</ele><time>2026-05-02T12:21:08Z</time></trkpt><trkpt lat="45.78095651106559" lon="7.569536694948455"><ele>1583.0</ele><time>2026-05-02T12:21:09Z</time></trkpt><trkpt lat="45.780865503969416" lon="7.56943341864916"><ele>1579.0</ele><time>2026-05-02T12:21:10Z</time></trkpt><trkpt lat="45.780813097443556" lon="7.569310376536129"><ele>1578.25</ele><time>2026-05-02T12:21:11Z</time></trkpt><trkpt lat="45.780795988715916" lon="7.569163908103084"><ele>1577.5</ele><time>2026-05-02T12:21:12Z</time></trkpt><trkpt lat="45.780835304565954" lon="7.5690086642024585"><ele>1576.75</ele><time>2026-05-02T12:21:13Z</time></trkpt><trkpt lat="45.78085827225911" lon="7.568832324776501"><ele>1576.0</ele><time>2026-05-02T12:21:14Z</time></trkpt><trkpt lat="45.78088824295302" lon="7.568662893647771"><ele>1574.75</ele><time>2026-05-02T12:21:15Z</time></trkpt><trkpt lat="45.780860278685424" lon="7.568486335332476"><ele>1573.5</ele><time>2026-05-02T12:21:16Z</time></trkpt><trkpt lat="45.78080561838709" lon="7.568337689120687"><ele>1572.25</ele><time>2026-05-02T12:21:17Z</time></trkpt><trkpt lat="45.78075001275648" lon="7.5682129391791495"><ele>1571.0</ele><time>2026-05-02T12:21:18Z</time></trkpt><trkpt lat="45.78076738668574" lon="7.568063063322455"><ele>1571.0</ele><time>2026-05-02T12:21:19Z</time></trkpt><trkpt lat="45.7808205268324" lon="7.567905553226227"><ele>1571.0</ele><time>2026-05-02T12:21:20Z</time></trkpt><trkpt lat="45.78087486185428" lon="7.567717644934844"><ele>1571.0</ele><time>2026-05-02T12:21:21Z</time></trkpt><trkpt lat="45.7808988169177" lon="7.567499164517245"><ele>1571.0</ele><time>2026-05-02T12:21:22Z</time></trkpt><trkpt lat="45.78090294790883" lon="7.567253884962945"><ele>1567.0</ele><time>2026-05-02T12:21:23Z</time></trkpt><trkpt lat="45.780907377959196" lon="7.567024636349221"><ele>1563.0</ele><time>2026-05-02T12:21:24Z</time></trkpt><trkpt lat="45.78091393207326" lon="7.5668261134872346"><ele>1559.0</ele><time>2026-05-02T12:21:25Z</time></trkpt><trkpt lat="45.78091733500427" lon="7.566627627668515"><ele>1555.0</ele><time>2026-05-02T12:21:26Z</time></trkpt><trkpt lat="45.78081712476866" lon="7.566448849749604"><ele>1555.0</ele><time>2026-05-02T12:21:27Z</time></trkpt><trkpt lat="45.78074132881339" lon="7.56626385627844"><ele>1555.0</ele><time>2026-05-02T12:21:28Z</time></trkpt><trkpt lat="45.780674096610696" lon="7.566054342514718"><ele>1555.0</ele><time>2026-05-02T12:21:29Z</time></trkpt><trkpt lat="45.780574802051646" lon="7.565861737066239"><ele>1556.0</ele><time>2026-05-02T12:21:30Z</time></trkpt><trkpt lat="45.780456854887014" lon="7.565688139581199"><ele>1557.0</ele><time>2026-05-02T12:21:31Z</time></trkpt><trkpt lat="45.78036976020173" lon="7.565490674215003"><ele>1558.0</ele><time>2026-05-02T12:21:32Z</time></trkpt><trkpt lat="45.78027814169993" lon="7.565320283648893"><ele>1559.5</ele><time>2026-05-02T12:21:33Z</time></trkpt><trkpt lat="45.78018475504576" lon="7.565152392159083"><ele>1561.0</ele><time>2026-05-02T12:21:34Z</time></trkpt><trkpt lat="45.78009211749382" lon="7.565005779470718"><ele>1562.5</ele><time>2026-05-02T12:21:35Z</time></trkpt><trkpt lat="45.780038524037245" lon="7.564827341864144"><ele>1564.0</ele><time>2026-05-02T12:21:36Z</time></trkpt><trkpt lat="45.78000989367934" lon="7.564631940530119"><ele>1554.25</ele><time>2026-05-02T12:21:37Z</time></trkpt><trkpt lat="45.77999932366095" lon="7.564433480870596"><ele>1544.5</ele><time>2026-05-02T12:21:38Z</time></trkpt><trkpt lat="45.78002117039365" lon="7.564247949275611"><ele>1534.75</ele><time>2026-05-02T12:21:39Z</time></trkpt><trkpt lat="45.780085477169926" lon="7.5640803707385995"><ele>1525.0</ele><time>2026-05-02T12:21:40Z</time></trkpt><trkpt lat="45.78017002065815" lon="7.563928305423565"><ele>1529.0</ele><time>2026-05-02T12:21:41Z</time></trkpt><trkpt lat="45.780273771551514" lon="7.563794977916814"><ele>1533.0</ele><time>2026-05-02T12:21:42Z</time></trkpt><trkpt lat="45.780387302858394" lon="7.563680551113078"><ele>1537.0</ele><time>2026-05-02T12:21:43Z</time></trkpt><trkpt lat="45.78048605178478" lon="7.5635721113546"><ele>1541.0</ele><time>2026-05-02T12:21:44Z</time></trkpt><trkpt lat="45.78055568078031" lon="7.563451613917059"><ele>1541.0</ele><time>2026-05-02T12:21:45Z</time></trkpt><trkpt lat="45.78061198312251" lon="7.563335412646036"><ele>1541.0</ele><time>2026-05-02T12:21:46Z</time></trkpt><trkpt lat="45.780606682031184" lon="7.563188440699383"><ele>1541.0</ele><time>2026-05-02T12:21:47Z</time></trkpt><trkpt lat="45.78052966525473" lon="7.563065979356272"><ele>1541.0</ele><time>2026-05-02T12:21:48Z</time></trkpt><trkpt lat="45.780458308578844" lon="7.562924824290646"><ele>1541.0</ele><time>2026-05-02T12:21:49Z</time></trkpt><trkpt lat="45.780366062036876" lon="7.562800560816067"><ele>1541.5</ele><time>2026-05-02T12:21:50Z</time></trkpt><trkpt lat="45.78026155061322" lon="7.562675244912051"><ele>1542.0</ele><time>2026-05-02T12:21:51Z</time></trkpt><trkpt lat="45.780154460470186" lon="7.562548102926993"><ele>1542.5</ele><time>2026-05-02T12:21:52Z</time></trkpt><trkpt lat="45.78004073110586" lon="7.562428510309209"><ele>1543.0</ele><time>2026-05-02T12:21:53Z</time></trkpt><trkpt lat="45.77994488442553" lon="7.562293316170254"><ele>1535.0</ele><time>2026-05-02T12:21:54Z</time></trkpt><trkpt lat="45.77986539500566" lon="7.5621469262653225"><ele>1527.0</ele><time>2026-05-02T12:21:55Z</time></trkpt><trkpt lat="45.779801889247125" lon="7.5619871165783"><ele>1519.0</ele><time>2026-05-02T12:21:56Z</time></trkpt><trkpt lat="45.779750996993855" lon="7.561818984354966"><ele>1511.0</ele><time>2026-05-02T12:21:57Z</time></trkpt><trkpt lat="45.779708076720254" lon="7.561630928121771"><ele>1511.0</ele><time>2026-05-02T12:21:58Z</time></trkpt><trkpt lat="45.77966538784607" lon="7.561443666322644"><ele>1511.0</ele><time>2026-05-02T12:21:59Z</time></trkpt><trkpt lat="45.779619320831664" lon="7.561253151398435"><ele>1511.0</ele><time>2026-05-02T12:22:00Z</time></trkpt><trkpt lat="45.77957582251851" lon="7.561058349148515"><ele>1511.0</ele><time>2026-05-02T12:22:01Z</time></trkpt><trkpt lat="45.77953620810063" lon="7.560859947596021"><ele>1509.5</ele><time>2026-05-02T12:22:02Z</time></trkpt><trkpt lat="45.77950578064634" lon="7.560665726808336"><ele>1508.0</ele><time>2026-05-02T12:22:03Z</time></trkpt><trkpt lat="45.77948008160618" lon="7.560476748440544"><ele>1506.5</ele><time>2026-05-02T12:22:04Z</time></trkpt><trkpt lat="45.779458262896604" lon="7.560294204723812"><ele>1505.0</ele><time>2026-05-02T12:22:05Z</time></trkpt><trkpt lat="45.77942807270327" lon="7.560120275866768"><ele>1503.0</ele><time>2026-05-02T12:22:06Z</time></trkpt><trkpt lat="45.77937027816942" lon="7.559962378574817"><ele>1501.0</ele><time>2026-05-02T12:22:07Z</time></trkpt><trkpt lat="45.77928134106709" lon="7.559824024774539"><ele>1499.0</ele><time>2026-05-02T12:22:08Z</time></trkpt><trkpt lat="45.77918358138966" lon="7.559704801297235"><ele>1497.0</ele><time>2026-05-02T12:22:09Z</time></trkpt><trkpt lat="45.77907983416905" lon="7.559584315202722"><ele>1495.8</ele><time>2026-05-02T12:22:10Z</time></trkpt><trkpt lat="45.778982209486784" lon="7.559465021497325"><ele>1494.6</ele><time>2026-05-02T12:22:11Z</time></trkpt><trkpt lat="45.778893884477036" lon="7.559357517688174"><ele>1493.3999999999999</ele><time>2026-05-02T12:22:12Z</time></trkpt><trkpt lat="45.7788114144753" lon="7.559268797182232"><ele>1492.1999999999998</ele><time>2026-05-02T12:22:13Z</time></trkpt><trkpt lat="45.77873155339725" lon="7.559217038670086"><ele>1491.0</ele><time>2026-05-02T12:22:14Z</time></trkpt><trkpt lat="45.77865219928711" lon="7.559204380782945"><ele>1491.0</ele><time>2026-05-02T12:22:15Z</time></trkpt><trkpt lat="45.77859313926369" lon="7.559251519382936"><ele>1491.0</ele><time>2026-05-02T12:22:16Z</time></trkpt><trkpt lat="45.77854425130267" lon="7.559325683937644"><ele>1491.0</ele><time>2026-05-02T12:22:17Z</time></trkpt><trkpt lat="45.77855136344658" lon="7.559463288561926"><ele>1491.0</ele><time>2026-05-02T12:22:18Z</time></trkpt><trkpt lat="45.7786259313487" lon="7.559589403890873"><ele>1491.0</ele><time>2026-05-02T12:22:19Z</time></trkpt><trkpt lat="45.77866892774311" lon="7.559745113615747"><ele>1489.25</ele><time>2026-05-02T12:22:20Z</time></trkpt><trkpt lat="45.77873986030643" lon="7.559892099830121"><ele>1487.5</ele><time>2026-05-02T12:22:21Z</time></trkpt><trkpt lat="45.77878356585171" lon="7.560064667088886"><ele>1485.75</ele><time>2026-05-02T12:22:22Z</time></trkpt><trkpt lat="45.778817359234054" lon="7.560245463678998"><ele>1484.0</ele><time>2026-05-02T12:22:23Z</time></trkpt><trkpt lat="45.77884109732756" lon="7.5604301456625445"><ele>1483.5</ele><time>2026-05-02T12:22:24Z</time></trkpt><trkpt lat="45.77886250195656" lon="7.560624680433821"><ele>1483.0</ele><time>2026-05-02T12:22:25Z</time></trkpt><trkpt lat="45.77887598343999" lon="7.560835466609717"><ele>1482.5</ele><time>2026-05-02T12:22:26Z</time></trkpt><trkpt lat="45.778918038027406" lon="7.561053392035293"><ele>1482.0</ele><time>2026-05-02T12:22:27Z</time></trkpt><trkpt lat="45.77895608067527" lon="7.5612799152500605"><ele>1481.6666666666667</ele><time>2026-05-02T12:22:28Z</time></trkpt><trkpt lat="45.77899839662511" lon="7.561511417342189"><ele>1481.3333333333335</ele><time>2026-05-02T12:22:29Z</time></trkpt><trkpt lat="45.77903807125768" lon="7.561746777139957"><ele>1481.0</ele><time>2026-05-02T12:22:30Z</time></trkpt><trkpt lat="45.77907133848757" lon="7.5619903749999935"><ele>1480.0</ele><time>2026-05-02T12:22:31Z</time></trkpt><trkpt lat="45.77908878888735" lon="7.5622301565535865"><ele>1479.0</ele><time>2026-05-02T12:22:32Z</time></trkpt><trkpt lat="45.779096579110266" lon="7.562482791124348"><ele>1478.0</ele><time>2026-05-02T12:22:33Z</time></trkpt><trkpt lat="45.77909518068718" lon="7.562743708169763"><ele>1476.3333333333335</ele><time>2026-05-02T12:22:34Z</time></trkpt><trkpt lat="45.7791047160227" lon="7.562998474777771"><ele>1474.6666666666667</ele><time>2026-05-02T12:22:35Z</time></trkpt><trkpt lat="45.77912590701563" lon="7.563247352416226"><ele>1473.0</ele><time>2026-05-02T12:22:36Z</time></trkpt><trkpt lat="45.779151751924545" lon="7.563493069085431"><ele>1474.0</ele><time>2026-05-02T12:22:37Z</time></trkpt><trkpt lat="45.779170698317465" lon="7.5637303765773725"><ele>1475.0</ele><time>2026-05-02T12:22:38Z</time></trkpt><trkpt lat="45.77916905458785" lon="7.563962945829657"><ele>1476.0</ele><time>2026-05-02T12:22:39Z</time></trkpt><trkpt lat="45.779153552121954" lon="7.564197325266047"><ele>1476.0</ele><time>2026-05-02T12:22:40Z</time></trkpt><trkpt lat="45.77913800726098" lon="7.564430232267747"><ele>1476.0</ele><time>2026-05-02T12:22:41Z</time></trkpt><trkpt lat="45.77912122484779" lon="7.56465358698815"><ele>1476.0</ele><time>2026-05-02T12:22:42Z</time></trkpt><trkpt lat="45.77910283238487" lon="7.564864454898592"><ele>1478.0</ele><time>2026-05-02T12:22:43Z</time></trkpt><trkpt lat="45.779064944509294" lon="7.565058626963339"><ele>1480.0</ele><time>2026-05-02T12:22:44Z</time></trkpt><trkpt lat="45.77900061650292" lon="7.565226707788648"><ele>1482.0</ele><time>2026-05-02T12:22:45Z</time></trkpt><trkpt lat="45.77891219879998" lon="7.565408163183227"><ele>1484.0</ele><time>2026-05-02T12:22:46Z</time></trkpt><trkpt lat="45.778827800773996" lon="7.5655960317356845"><ele>1485.25</ele><time>2026-05-02T12:22:47Z</time></trkpt><trkpt lat="45.77874376885247" lon="7.565785666833245"><ele>1486.5</ele><time>2026-05-02T12:22:48Z</time></trkpt><trkpt lat="45.77864763390675" lon="7.565937967895475"><ele>1487.75</ele><time>2026-05-02T12:22:49Z</time></trkpt><trkpt lat="45.778526519953274" lon="7.566044162614151"><ele>1489.0</ele><time>2026-05-02T12:22:50Z</time></trkpt><trkpt lat="45.778388418830524" lon="7.566093056971911"><ele>1483.5</ele><time>2026-05-02T12:22:51Z</time></trkpt><trkpt lat="45.77824183925154" lon="7.566107910286805"><ele>1478.0</ele><time>2026-05-02T12:22:52Z</time></trkpt><trkpt lat="45.778094836317166" lon="7.566105090932895"><ele>1472.5</ele><time>2026-05-02T12:22:53Z</time></trkpt><trkpt lat="45.77794193709909" lon="7.566124837905321"><ele>1467.0</ele><time>2026-05-02T12:22:54Z</time></trkpt><trkpt lat="45.77779478088052" lon="7.566165268943884"><ele>1467.6666666666667</ele><time>2026-05-02T12:22:55Z</time></trkpt><trkpt lat="45.77766169032745" lon="7.566257313177289"><ele>1468.3333333333335</ele><time>2026-05-02T12:22:56Z</time></trkpt><trkpt lat="45.77752862958292" lon="7.566368114316931"><ele>1469.0</ele><time>2026-05-02T12:22:57Z</time></trkpt><trkpt lat="45.777386770769674" lon="7.566479651612169"><ele>1469.0</ele><time>2026-05-02T12:22:58Z</time></trkpt><trkpt lat="45.77726065444562" lon="7.566604724950235"><ele>1469.0</ele><time>2026-05-02T12:22:59Z</time></trkpt><trkpt lat="45.77715057289289" lon="7.566752832301583"><ele>1469.0</ele><time>2026-05-02T12:23:00Z</time></trkpt><trkpt lat="45.77704158035962" lon="7.566910131627179"><ele>1473.0</ele><time>2026-05-02T12:23:01Z</time></trkpt><trkpt lat="45.776936835141726" lon="7.567079204476243"><ele>1477.0</ele><time>2026-05-02T12:23:02Z</time></trkpt><trkpt lat="45.77683395914652" lon="7.567262380008877"><ele>1481.0</ele><time>2026-05-02T12:23:03Z</time></trkpt><trkpt lat="45.77673736168449" lon="7.567457243951746"><ele>1477.6666666666667</ele><time>2026-05-02T12:23:04Z</time></trkpt><trkpt lat="45.776639487995986" lon="7.567665204308484"><ele>1474.3333333333333</ele><time>2026-05-02T12:23:05Z</time></trkpt><trkpt lat="45.77654317628221" lon="7.567880258084381"><ele>1471.0</ele><time>2026-05-02T12:23:06Z</time></trkpt><trkpt lat="45.77645893418274" lon="7.568092319531509"><ele>1471.0</ele><time>2026-05-02T12:23:07Z</time></trkpt><trkpt lat="45.77638577140096" lon="7.5682861088037034"><ele>1471.0</ele><time>2026-05-02T12:23:08Z</time></trkpt><trkpt lat="45.776310087602695" lon="7.568456695490447"><ele>1471.0</ele><time>2026-05-02T12:23:09Z</time></trkpt><trkpt lat="45.776186443732996" lon="7.568536192694186"><ele>1471.0</ele><time>2026-05-02T12:23:10Z</time></trkpt><trkpt lat="45.77605627921042" lon="7.568586274453394"><ele>1472.0</ele><time>2026-05-02T12:23:11Z</time></trkpt><trkpt lat="45.775909938804574" lon="7.568636597925931"><ele>1473.0</ele><time>2026-05-02T12:23:12Z</time></trkpt><trkpt lat="45.77575716135475" lon="7.568690855311992"><ele>1474.0</ele><time>2026-05-02T12:23:13Z</time></trkpt><trkpt lat="45.775601956931766" lon="7.568753635613119"><ele>1474.0</ele><time>2026-05-02T12:23:14Z</time></trkpt><trkpt lat="45.77545209255431" lon="7.56881362534851"><ele>1474.0</ele><time>2026-05-02T12:23:15Z</time></trkpt><trkpt lat="45.77531236435561" lon="7.568847477216979"><ele>1474.0</ele><time>2026-05-02T12:23:16Z</time></trkpt><trkpt lat="45.77517026935937" lon="7.568840635699232"><ele>1474.0</ele><time>2026-05-02T12:23:17Z</time></trkpt><trkpt lat="45.77503053812477" lon="7.568821466391221"><ele>1471.25</ele><time>2026-05-02T12:23:18Z</time></trkpt><trkpt lat="45.7749033376125" lon="7.568754495994143"><ele>1468.5</ele><time>2026-05-02T12:23:19Z</time></trkpt><trkpt lat="45.77477828027624" lon="7.568691094782212"><ele>1465.75</ele><time>2026-05-02T12:23:20Z</time></trkpt><trkpt lat="45.77464246225884" lon="7.568681789830723"><ele>1463.0</ele><time>2026-05-02T12:23:21Z</time></trkpt><trkpt lat="45.77449588628944" lon="7.568692355770067"><ele>1462.6666666666667</ele><time>2026-05-02T12:23:22Z</time></trkpt><trkpt lat="45.774340684825084" lon="7.56872512043629"><ele>1462.3333333333333</ele><time>2026-05-02T12:23:23Z</time></trkpt><trkpt lat="45.77417753530192" lon="7.5687373978930435"><ele>1462.0</ele><time>2026-05-02T12:23:24Z</time></trkpt><trkpt lat="45.77400673812498" lon="7.568672678016221"><ele>1453.3333333333333</ele><time>2026-05-02T12:23:25Z</time></trkpt><trkpt lat="45.77384212309229" lon="7.56858679859333"><ele>1444.6666666666667</ele><time>2026-05-02T12:23:26Z</time></trkpt><trkpt lat="45.773687449553805" lon="7.568502991010805"><ele>1436.0</ele><time>2026-05-02T12:23:27Z</time></trkpt><trkpt lat="45.773545200431066" lon="7.568399184461719"><ele>1435.75</ele><time>2026-05-02T12:23:28Z</time></trkpt><trkpt lat="45.77341120150322" lon="7.568278784456172"><ele>1435.5</ele><time>2026-05-02T12:23:29Z</time></trkpt><trkpt lat="45.77328651539244" lon="7.5681627329584735"><ele>1435.25</ele><time>2026-05-02T12:23:30Z</time></trkpt><trkpt lat="45.773167672943785" lon="7.568077942293581"><ele>1435.0</ele><time>2026-05-02T12:23:31Z</time></trkpt><trkpt lat="45.773053317945674" lon="7.568059242202022"><ele>1435.0</ele><time>2026-05-02T12:23:32Z</time></trkpt><trkpt lat="45.77294737699922" lon="7.568063250390728"><ele>1435.0</ele><time>2026-05-02T12:23:33Z</time></trkpt><trkpt lat="45.772855926070164" lon="7.568103186240094"><ele>1435.0</ele><time>2026-05-02T12:23:34Z</time></trkpt><trkpt lat="45.772778813853584" lon="7.568133694125666"><ele>1435.0</ele><time>2026-05-02T12:23:35Z</time></trkpt><trkpt lat="45.772721509722" lon="7.568089571726983"><ele>1435.0</ele><time>2026-05-02T12:23:36Z</time></trkpt><trkpt lat="45.77274763280962" lon="7.5679293077515135"><ele>1435.0</ele><time>2026-05-02T12:23:38Z</time></trkpt><trkpt lat="45.77284188657229" lon="7.5678650065890904"><ele>1435.0</ele><time>2026-05-02T12:23:39Z</time></trkpt><trkpt lat="45.772959236719174" lon="7.567796667685912"><ele>1435.0</ele><time>2026-05-02T12:23:40Z</time></trkpt><trkpt lat="45.77309431282225" lon="7.567740310396474"><ele>1435.0</ele><time>2026-05-02T12:23:41Z</time></trkpt><trkpt lat="45.77325247505744" lon="7.567727765869473"><ele>1429.3333333333333</ele><time>2026-05-02T12:23:42Z</time></trkpt><trkpt lat="45.773403946184004" lon="7.567755782730068"><ele>1423.6666666666667</ele><time>2026-05-02T12:23:43Z</time></trkpt><trkpt lat="45.773553596591874" lon="7.567773935275617"><ele>1418.0</ele><time>2026-05-02T12:23:44Z</time></trkpt><trkpt lat="45.77371340228231" lon="7.567774424926938"><ele>1418.0</ele><time>2026-05-02T12:23:45Z</time></trkpt><trkpt lat="45.773858600972844" lon="7.567693735279937"><ele>1418.0</ele><time>2026-05-02T12:23:46Z</time></trkpt><trkpt lat="45.77399356951971" lon="7.567582358683891"><ele>1418.0</ele><time>2026-05-02T12:23:47Z</time></trkpt><trkpt lat="45.774102645958976" lon="7.567410814335187"><ele>1418.0</ele><time>2026-05-02T12:23:48Z</time></trkpt><trkpt lat="45.774204802895504" lon="7.567214311133062"><ele>1418.0</ele><time>2026-05-02T12:23:49Z</time></trkpt><trkpt lat="45.77432126063699" lon="7.5670058472408215"><ele>1418.0</ele><time>2026-05-02T12:23:50Z</time></trkpt><trkpt lat="45.77441443830572" lon="7.566770719515453"><ele>1416.3333333333335</ele><time>2026-05-02T12:23:51Z</time></trkpt><trkpt lat="45.77451725034008" lon="7.566546629723077"><ele>1414.6666666666667</ele><time>2026-05-02T12:23:52Z</time></trkpt><trkpt lat="45.77460407872264" lon="7.566328753893911"><ele>1413.0</ele><time>2026-05-02T12:23:53Z</time></trkpt><trkpt lat="45.774681719944745" lon="7.566109210716546"><ele>1408.3333333333333</ele><time>2026-05-02T12:23:54Z</time></trkpt><trkpt lat="45.774758307889286" lon="7.565885527232055"><ele>1403.6666666666665</ele><time>2026-05-02T12:23:55Z</time></trkpt><trkpt lat="45.774821914303416" lon="7.565673333070368"><ele>1399.0</ele><time>2026-05-02T12:23:56Z</time></trkpt><trkpt lat="45.77486126937206" lon="7.5654494365041"><ele>1397.3333333333333</ele><time>2026-05-02T12:23:57Z</time></trkpt><trkpt lat="45.77487254183704" lon="7.565209008191536"><ele>1395.6666666666667</ele><time>2026-05-02T12:23:58Z</time></trkpt><trkpt lat="45.7748676210687" lon="7.5649614756556485"><ele>1394.0</ele><time>2026-05-02T12:23:59Z</time></trkpt><trkpt lat="45.774865618288345" lon="7.564729849811226"><ele>1392.6666666666667</ele><time>2026-05-02T12:24:00Z</time></trkpt><trkpt lat="45.77489084687134" lon="7.564503570549455"><ele>1391.3333333333333</ele><time>2026-05-02T12:24:01Z</time></trkpt><trkpt lat="45.7749077840421" lon="7.5642809688404995"><ele>1390.0</ele><time>2026-05-02T12:24:02Z</time></trkpt><trkpt lat="45.77493436734473" lon="7.564069665959302"><ele>1390.0</ele><time>2026-05-02T12:24:03Z</time></trkpt><trkpt lat="45.774979857624594" lon="7.5638742563839445"><ele>1390.0</ele><time>2026-05-02T12:24:04Z</time></trkpt><trkpt lat="45.77502128354962" lon="7.563690319889365"><ele>1390.0</ele><time>2026-05-02T12:24:05Z</time></trkpt><trkpt lat="45.775062394512894" lon="7.563522998050863"><ele>1390.0</ele><time>2026-05-02T12:24:06Z</time></trkpt><trkpt lat="45.77508888319876" lon="7.563406901887845"><ele>1388.8333333333333</ele><time>2026-05-02T12:24:07Z</time></trkpt><trkpt lat="45.775085891476294" lon="7.563298265346101"><ele>1387.6666666666665</ele><time>2026-05-02T12:24:08Z</time></trkpt><trkpt lat="45.77507266787813" lon="7.563196395074508"><ele>1386.5</ele><time>2026-05-02T12:24:09Z</time></trkpt><trkpt lat="45.77499240347838" lon="7.563150089534459"><ele>1385.3333333333333</ele><time>2026-05-02T12:24:10Z</time></trkpt><trkpt lat="45.77491175643722" lon="7.563182331201355"><ele>1384.1666666666667</ele><time>2026-05-02T12:24:11Z</time></trkpt><trkpt lat="45.774836356952825" lon="7.563278970317738"><ele>1383.0</ele><time>2026-05-02T12:24:12Z</time></trkpt><trkpt lat="45.774745563184986" lon="7.563354269717866"><ele>1383.0</ele><time>2026-05-02T12:24:13Z</time></trkpt><trkpt lat="45.77464055887152" lon="7.563436434241155"><ele>1383.0</ele><time>2026-05-02T12:24:14Z</time></trkpt><trkpt lat="45.77452696061079" lon="7.563525974322621"><ele>1383.0</ele><time>2026-05-02T12:24:15Z</time></trkpt><trkpt lat="45.774404752183635" lon="7.563616159030767"><ele>1383.0</ele><time>2026-05-02T12:24:16Z</time></trkpt><trkpt lat="45.77428391770895" lon="7.563710419144521"><ele>1381.5</ele><time>2026-05-02T12:24:17Z</time></trkpt><trkpt lat="45.77416613202315" lon="7.563798349799388"><ele>1380.0</ele><time>2026-05-02T12:24:18Z</time></trkpt><trkpt lat="45.774051830214056" lon="7.56388394679512"><ele>1378.5</ele><time>2026-05-02T12:24:19Z</time></trkpt><trkpt lat="45.77393725627021" lon="7.563970262228049"><ele>1377.0</ele><time>2026-05-02T12:24:20Z</time></trkpt><trkpt lat="45.77381665625609" lon="7.564067633716926"><ele>1377.0</ele><time>2026-05-02T12:24:21Z</time></trkpt><trkpt lat="45.77369449064829" lon="7.564162144958455"><ele>1377.0</ele><time>2026-05-02T12:24:22Z</time></trkpt><trkpt lat="45.77357377317852" lon="7.564252382499231"><ele>1377.0</ele><time>2026-05-02T12:24:23Z</time></trkpt><trkpt lat="45.7734506648933" lon="7.564338695729147"><ele>1377.0</ele><time>2026-05-02T12:24:24Z</time></trkpt><trkpt lat="45.773321619455864" lon="7.564383090944006"><ele>1375.0</ele><time>2026-05-02T12:24:25Z</time></trkpt><trkpt lat="45.77319622124335" lon="7.564437373126342"><ele>1373.0</ele><time>2026-05-02T12:24:26Z</time></trkpt><trkpt lat="45.77307962865621" lon="7.564485141738322"><ele>1371.0</ele><time>2026-05-02T12:24:27Z</time></trkpt><trkpt lat="45.772975690106925" lon="7.564526099419418"><ele>1369.0</ele><time>2026-05-02T12:24:28Z</time></trkpt><trkpt lat="45.77288680944462" lon="7.564552526971427"><ele>1369.0</ele><time>2026-05-02T12:24:29Z</time></trkpt><trkpt lat="45.772810044082576" lon="7.564564426628426"><ele>1369.0</ele><time>2026-05-02T12:24:30Z</time></trkpt><trkpt lat="45.7727593209684" lon="7.564497193952325"><ele>1369.0</ele><time>2026-05-02T12:24:31Z</time></trkpt><trkpt lat="45.77274791117111" lon="7.564381159366953"><ele>1369.0</ele><time>2026-05-02T12:24:32Z</time></trkpt><trkpt lat="45.772771566298374" lon="7.564256800293324"><ele>1369.0</ele><time>2026-05-02T12:24:33Z</time></trkpt><trkpt lat="45.77280024400116" lon="7.564112274518241"><ele>1369.0</ele><time>2026-05-02T12:24:34Z</time></trkpt><trkpt lat="45.77281487016973" lon="7.5639463184279405"><ele>1367.5</ele><time>2026-05-02T12:24:35Z</time></trkpt><trkpt lat="45.77284064700778" lon="7.56376233344178"><ele>1366.0</ele><time>2026-05-02T12:24:36Z</time></trkpt><trkpt lat="45.77286860223484" lon="7.563570868377293"><ele>1364.5</ele><time>2026-05-02T12:24:37Z</time></trkpt><trkpt lat="45.77289737437078" lon="7.5633760929169"><ele>1363.0</ele><time>2026-05-02T12:24:38Z</time></trkpt><trkpt lat="45.7729243765963" lon="7.563184878002414"><ele>1362.0</ele><time>2026-05-02T12:24:39Z</time></trkpt><trkpt lat="45.77294897100039" lon="7.562999490498747"><ele>1361.0</ele><time>2026-05-02T12:24:40Z</time></trkpt><trkpt lat="45.77297417968242" lon="7.562817878093624"><ele>1360.0</ele><time>2026-05-02T12:24:41Z</time></trkpt><trkpt lat="45.77299748726329" lon="7.562643737928012"><ele>1359.0</ele><time>2026-05-02T12:24:42Z</time></trkpt><trkpt lat="45.77302312245944" lon="7.562474169266004"><ele>1357.8000000000002</ele><time>2026-05-02T12:24:43Z</time></trkpt><trkpt lat="45.77305238374313" lon="7.562308207763346"><ele>1356.6000000000001</ele><time>2026-05-02T12:24:44Z</time></trkpt><trkpt lat="45.77308095711248" lon="7.562148433247121"><ele>1355.4</ele><time>2026-05-02T12:24:45Z</time></trkpt><trkpt lat="45.773119472262415" lon="7.562003337694744"><ele>1354.2</ele><time>2026-05-02T12:24:46Z</time></trkpt><trkpt lat="45.77317519846155" lon="7.561884513012007"><ele>1353.0</ele><time>2026-05-02T12:24:47Z</time></trkpt><trkpt lat="45.77321257489757" lon="7.561786363039511"><ele>1352.0</ele><time>2026-05-02T12:24:48Z</time></trkpt><trkpt lat="45.77321417061128" lon="7.5616856794575265"><ele>1351.0</ele><time>2026-05-02T12:24:49Z</time></trkpt><trkpt lat="45.773111350875766" lon="7.561567081428558"><ele>1350.0</ele><time>2026-05-02T12:24:51Z</time></trkpt><trkpt lat="45.77300638374968" lon="7.561637416301056"><ele>1349.0</ele><time>2026-05-02T12:24:52Z</time></trkpt><trkpt lat="45.77292052089393" lon="7.561705904227899"><ele>1348.0</ele><time>2026-05-02T12:24:53Z</time></trkpt><trkpt lat="45.77282518684609" lon="7.561780615992183"><ele>1348.0</ele><time>2026-05-02T12:24:54Z</time></trkpt><trkpt lat="45.77269523918832" lon="7.561782152171368"><ele>1348.0</ele><time>2026-05-02T12:24:55Z</time></trkpt><trkpt lat="45.7725594712708" lon="7.5617107431487565"><ele>1348.0</ele><time>2026-05-02T12:24:56Z</time></trkpt><trkpt lat="45.772427684838604" lon="7.5616861203254"><ele>1348.0</ele><time>2026-05-02T12:24:57Z</time></trkpt><trkpt lat="45.77231284058597" lon="7.5616454192097455"><ele>1345.8000000000002</ele><time>2026-05-02T12:24:58Z</time></trkpt><trkpt lat="45.77221185063453" lon="7.561606071132439"><ele>1343.6</ele><time>2026-05-02T12:24:59Z</time></trkpt><trkpt lat="45.77210975433939" lon="7.561623301235976"><ele>1341.4</ele><time>2026-05-02T12:25:00Z</time></trkpt><trkpt lat="45.77201467301565" lon="7.5617112212469"><ele>1339.1999999999998</ele><time>2026-05-02T12:25:01Z</time></trkpt><trkpt lat="45.77192482196509" lon="7.561832912619575"><ele>1337.0</ele><time>2026-05-02T12:25:02Z</time></trkpt><trkpt lat="45.771836905612695" lon="7.56197937009917"><ele>1334.25</ele><time>2026-05-02T12:25:03Z</time></trkpt><trkpt lat="45.77174094861192" lon="7.5621254439513255"><ele>1331.5</ele><time>2026-05-02T12:25:04Z</time></trkpt><trkpt lat="45.77163945323095" lon="7.562286889481798"><ele>1328.75</ele><time>2026-05-02T12:25:05Z</time></trkpt><trkpt lat="45.7715420851029" lon="7.562451436507834"><ele>1326.0</ele><time>2026-05-02T12:25:06Z</time></trkpt><trkpt lat="45.77146415202085" lon="7.562625320625461"><ele>1326.0</ele><time>2026-05-02T12:25:07Z</time></trkpt><trkpt lat="45.7713665330004" lon="7.562753474553593"><ele>1326.0</ele><time>2026-05-02T12:25:08Z</time></trkpt><trkpt lat="45.77125677549617" lon="7.562837128369388"><ele>1326.0</ele><time>2026-05-02T12:25:09Z</time></trkpt><trkpt lat="45.771126616015586" lon="7.562861267371213"><ele>1326.0</ele><time>2026-05-02T12:25:10Z</time></trkpt><trkpt lat="45.77099652888705" lon="7.562880798600665"><ele>1325.0</ele><time>2026-05-02T12:25:11Z</time></trkpt><trkpt lat="45.77086377653667" lon="7.562921613664447"><ele>1324.0</ele><time>2026-05-02T12:25:12Z</time></trkpt><trkpt lat="45.770730514839606" lon="7.562938614888684"><ele>1323.0</ele><time>2026-05-02T12:25:13Z</time></trkpt><trkpt lat="45.770608363123216" lon="7.562959802512316"><ele>1322.0</ele><time>2026-05-02T12:25:14Z</time></trkpt><trkpt lat="45.77048974989867" lon="7.562965919436868"><ele>1322.0</ele><time>2026-05-02T12:25:15Z</time></trkpt><trkpt lat="45.77038692654958" lon="7.563056903463884"><ele>1322.0</ele><time>2026-05-02T12:25:16Z</time></trkpt><trkpt lat="45.77028085791415" lon="7.563139721946512"><ele>1322.0</ele><time>2026-05-02T12:25:17Z</time></trkpt><trkpt lat="45.77017550907223" lon="7.563228839260297"><ele>1322.0</ele><time>2026-05-02T12:25:18Z</time></trkpt><trkpt lat="45.77006520409528" lon="7.563311820640081"><ele>1319.0</ele><time>2026-05-02T12:25:19Z</time></trkpt><trkpt lat="45.7699495391819" lon="7.563391269127715"><ele>1316.0</ele><time>2026-05-02T12:25:20Z</time></trkpt><trkpt lat="45.76983669634643" lon="7.563467640934391"><ele>1313.0</ele><time>2026-05-02T12:25:21Z</time></trkpt><trkpt lat="45.76972649184161" lon="7.5635458755378755"><ele>1310.0</ele><time>2026-05-02T12:25:22Z</time></trkpt><trkpt lat="45.7696249667015" lon="7.563634362181822"><ele>1308.8</ele><time>2026-05-02T12:25:23Z</time></trkpt><trkpt lat="45.76952796096088" lon="7.563714503831931"><ele>1307.6</ele><time>2026-05-02T12:25:24Z</time></trkpt><trkpt lat="45.76946249654659" lon="7.5638466076382995"><ele>1306.4</ele><time>2026-05-02T12:25:25Z</time></trkpt><trkpt lat="45.76941422703554" lon="7.563956369604199"><ele>1305.2</ele><time>2026-05-02T12:25:26Z</time></trkpt><trkpt lat="45.769370445336556" lon="7.564030268748209"><ele>1304.0</ele><time>2026-05-02T12:25:27Z</time></trkpt><trkpt lat="45.76928080826435" lon="7.564023480326239"><ele>1304.0</ele><time>2026-05-02T12:25:29Z</time></trkpt><trkpt lat="45.769263200133686" lon="7.563936785273271"><ele>1304.0</ele><time>2026-05-02T12:25:30Z</time></trkpt><trkpt lat="45.76929819418889" lon="7.563842718007021"><ele>1304.0</ele><time>2026-05-02T12:25:31Z</time></trkpt><trkpt lat="45.76937226077048" lon="7.563755617199875"><ele>1304.0</ele><time>2026-05-02T12:25:32Z</time></trkpt><trkpt lat="45.76945469587805" lon="7.5636473701471045"><ele>1304.0</ele><time>2026-05-02T12:25:33Z</time></trkpt><trkpt lat="45.769518374237784" lon="7.563489833134383"><ele>1306.0</ele><time>2026-05-02T12:25:34Z</time></trkpt><trkpt lat="45.769559066395274" lon="7.563282347842526"><ele>1308.0</ele><time>2026-05-02T12:25:35Z</time></trkpt><trkpt lat="45.769603888550286" lon="7.563071351393791"><ele>1310.0</ele><time>2026-05-02T12:25:36Z</time></trkpt><trkpt lat="45.7696451801301" lon="7.562867242243771"><ele>1308.25</ele><time>2026-05-02T12:25:37Z</time></trkpt><trkpt lat="45.769687042226586" lon="7.562681109053484"><ele>1306.5</ele><time>2026-05-02T12:25:38Z</time></trkpt><trkpt lat="45.76972153044451" lon="7.562495638959948"><ele>1304.75</ele><time>2026-05-02T12:25:39Z</time></trkpt><trkpt lat="45.76975241191843" lon="7.562313105154822"><ele>1303.0</ele><time>2026-05-02T12:25:40Z</time></trkpt><trkpt lat="45.76978460127785" lon="7.5621385291184815"><ele>1301.2</ele><time>2026-05-02T12:25:41Z</time></trkpt><trkpt lat="45.76981763657395" lon="7.561984004509105"><ele>1299.4</ele><time>2026-05-02T12:25:42Z</time></trkpt><trkpt lat="45.769861083308776" lon="7.561841723767234"><ele>1297.6000000000001</ele><time>2026-05-02T12:25:43Z</time></trkpt><trkpt lat="45.76992615720677" lon="7.561716184632004"><ele>1295.8000000000002</ele><time>2026-05-02T12:25:44Z</time></trkpt><trkpt lat="45.77001059081536" lon="7.561596912286493"><ele>1294.0</ele><time>2026-05-02T12:25:45Z</time></trkpt><trkpt lat="45.77009907225441" lon="7.561474595686196"><ele>1294.0</ele><time>2026-05-02T12:25:46Z</time></trkpt><trkpt lat="45.770178129470914" lon="7.561331819663854"><ele>1294.0</ele><time>2026-05-02T12:25:47Z</time></trkpt><trkpt lat="45.77024774802603" lon="7.561174757180335"><ele>1294.0</ele><time>2026-05-02T12:25:48Z</time></trkpt><trkpt lat="45.77026693662643" lon="7.560966598459783"><ele>1294.0</ele><time>2026-05-02T12:25:49Z</time></trkpt><trkpt lat="45.77024448596234" lon="7.560772192589526"><ele>1294.75</ele><time>2026-05-02T12:25:50Z</time></trkpt><trkpt lat="45.770227658366885" lon="7.560576142541031"><ele>1295.5</ele><time>2026-05-02T12:25:51Z</time></trkpt><trkpt lat="45.77022045135535" lon="7.560362528398365"><ele>1296.25</ele><time>2026-05-02T12:25:52Z</time></trkpt><trkpt lat="45.77024078316454" lon="7.560141406825794"><ele>1297.0</ele><time>2026-05-02T12:25:53Z</time></trkpt><trkpt lat="45.770261079998775" lon="7.559929394574436"><ele>1297.0</ele><time>2026-05-02T12:25:54Z</time></trkpt><trkpt lat="45.770254308242635" lon="7.559735708341254"><ele>1297.0</ele><time>2026-05-02T12:25:55Z</time></trkpt><trkpt lat="45.77022846216165" lon="7.55954958369298"><ele>1297.0</ele><time>2026-05-02T12:25:56Z</time></trkpt><trkpt lat="45.7702048334244" lon="7.559356690629061"><ele>1297.0</ele><time>2026-05-02T12:25:57Z</time></trkpt><trkpt lat="45.7701112130669" lon="7.559205072652018"><ele>1293.0</ele><time>2026-05-02T12:25:58Z</time></trkpt><trkpt lat="45.770032008302124" lon="7.559044116872143"><ele>1289.0</ele><time>2026-05-02T12:25:59Z</time></trkpt><trkpt lat="45.76994783152076" lon="7.558882268258657"><ele>1285.0</ele><time>2026-05-02T12:26:00Z</time></trkpt><trkpt lat="45.76986077530302" lon="7.558717638616892"><ele>1281.0</ele><time>2026-05-02T12:26:01Z</time></trkpt><trkpt lat="45.769774973977896" lon="7.558555757262092"><ele>1281.0</ele><time>2026-05-02T12:26:02Z</time></trkpt><trkpt lat="45.76969899295971" lon="7.558386736637579"><ele>1281.0</ele><time>2026-05-02T12:26:03Z</time></trkpt><trkpt lat="45.76963430180308" lon="7.558213637116795"><ele>1281.0</ele><time>2026-05-02T12:26:04Z</time></trkpt><trkpt lat="45.7695710291779" lon="7.558038896052033"><ele>1281.0</ele><time>2026-05-02T12:26:05Z</time></trkpt><trkpt lat="45.76950095151766" lon="7.557871567841008"><ele>1281.75</ele><time>2026-05-02T12:26:06Z</time></trkpt><trkpt lat="45.76943307226905" lon="7.557718854981741"><ele>1282.5</ele><time>2026-05-02T12:26:07Z</time></trkpt><trkpt lat="45.76937273597178" lon="7.557571997200311"><ele>1283.25</ele><time>2026-05-02T12:26:08Z</time></trkpt><trkpt lat="45.76932143994593" lon="7.557426451328361"><ele>1284.0</ele><time>2026-05-02T12:26:09Z</time></trkpt><trkpt lat="45.76928254425827" lon="7.557274315548872"><ele>1280.4</ele><time>2026-05-02T12:26:10Z</time></trkpt><trkpt lat="45.76924927681143" lon="7.557117513771413"><ele>1276.8000000000002</ele><time>2026-05-02T12:26:11Z</time></trkpt><trkpt lat="45.769218242253416" lon="7.556969612559837"><ele>1273.1999999999998</ele><time>2026-05-02T12:26:12Z</time></trkpt><trkpt lat="45.76920142828465" lon="7.556836481139433"><ele>1269.6</ele><time>2026-05-02T12:26:13Z</time></trkpt><trkpt lat="45.76917433438615" lon="7.556729917592878"><ele>1266.0</ele><time>2026-05-02T12:26:14Z</time></trkpt><trkpt lat="45.76912632959128" lon="7.5566652609810925"><ele>1266.0</ele><time>2026-05-02T12:26:15Z</time></trkpt><trkpt lat="45.76906136439549" lon="7.556649169621332"><ele>1266.0</ele><time>2026-05-02T12:26:16Z</time></trkpt><trkpt lat="45.76899351338702" lon="7.556674647078645"><ele>1266.0</ele><time>2026-05-02T12:26:17Z</time></trkpt><trkpt lat="45.7689402409584" lon="7.556764773401401"><ele>1266.0</ele><time>2026-05-02T12:26:18Z</time></trkpt><trkpt lat="45.76892452625605" lon="7.556878547233983"><ele>1266.0</ele><time>2026-05-02T12:26:19Z</time></trkpt><trkpt lat="45.76891597648758" lon="7.557009084936085"><ele>1266.0</ele><time>2026-05-02T12:26:21Z</time></trkpt><trkpt lat="45.768798839218036" lon="7.556937248413132"><ele>1266.0</ele><time>2026-05-02T12:26:25Z</time></trkpt><trkpt lat="45.76872826875094" lon="7.556906817973578"><ele>1266.0</ele><time>2026-05-02T12:26:26Z</time></trkpt><trkpt lat="45.768667579182164" lon="7.556848488259258"><ele>1266.0</ele><time>2026-05-02T12:26:27Z</time></trkpt><trkpt lat="45.76861053036065" lon="7.556759152499431"><ele>1266.0</ele><time>2026-05-02T12:26:28Z</time></trkpt><trkpt lat="45.768568539232085" lon="7.556616187406627"><ele>1266.0</ele><time>2026-05-02T12:26:29Z</time></trkpt><trkpt lat="45.76853706111984" lon="7.556452112202187"><ele>1262.5</ele><time>2026-05-02T12:26:30Z</time></trkpt><trkpt lat="45.768511916089174" lon="7.556273197587648"><ele>1259.0</ele><time>2026-05-02T12:26:31Z</time></trkpt><trkpt lat="45.76851436499505" lon="7.556092615426755"><ele>1255.5</ele><time>2026-05-02T12:26:32Z</time></trkpt><trkpt lat="45.76850496870465" lon="7.555925393727176"><ele>1252.0</ele><time>2026-05-02T12:26:33Z</time></trkpt><trkpt lat="45.76848163797142" lon="7.55576740303897"><ele>1252.0</ele><time>2026-05-02T12:26:34Z</time></trkpt><trkpt lat="45.76847788962408" lon="7.555603985156318"><ele>1252.0</ele><time>2026-05-02T12:26:35Z</time></trkpt><trkpt lat="45.76846835116015" lon="7.55543663510455"><ele>1252.0</ele><time>2026-05-02T12:26:36Z</time></trkpt><trkpt lat="45.768459561358256" lon="7.555270668527121"><ele>1252.0</ele><time>2026-05-02T12:26:37Z</time></trkpt><trkpt lat="45.768453420096" lon="7.555107117757153"><ele>1251.6</ele><time>2026-05-02T12:26:38Z</time></trkpt><trkpt lat="45.76845440681691" lon="7.554950816035667"><ele>1251.2</ele><time>2026-05-02T12:26:39Z</time></trkpt><trkpt lat="45.76845780489508" lon="7.554790790731941"><ele>1250.8</ele><time>2026-05-02T12:26:40Z</time></trkpt><trkpt lat="45.768471173955376" lon="7.554635541642311"><ele>1250.4</ele><time>2026-05-02T12:26:41Z</time></trkpt><trkpt lat="45.76849037142796" lon="7.554483611753878"><ele>1250.0</ele><time>2026-05-02T12:26:42Z</time></trkpt><trkpt lat="45.76851604857027" lon="7.55433417981935"><ele>1252.0</ele><time>2026-05-02T12:26:43Z</time></trkpt><trkpt lat="45.76855160117076" lon="7.55418672215167"><ele>1254.0</ele><time>2026-05-02T12:26:44Z</time></trkpt><trkpt lat="45.76858551429741" lon="7.554027442188355"><ele>1256.0</ele><time>2026-05-02T12:26:45Z</time></trkpt><trkpt lat="45.76862596865534" lon="7.553871096314397"><ele>1258.0</ele><time>2026-05-02T12:26:46Z</time></trkpt><trkpt lat="45.7686603320725" lon="7.553708208315677"><ele>1257.4</ele><time>2026-05-02T12:26:47Z</time></trkpt><trkpt lat="45.768689411510515" lon="7.553547253031702"><ele>1256.8</ele><time>2026-05-02T12:26:48Z</time></trkpt><trkpt lat="45.768713632569266" lon="7.55338741324084"><ele>1256.2</ele><time>2026-05-02T12:26:49Z</time></trkpt><trkpt lat="45.768734666568214" lon="7.55323618998334"><ele>1255.6</ele><time>2026-05-02T12:26:50Z</time></trkpt><trkpt lat="45.76878495230659" lon="7.553094900565112"><ele>1255.0</ele><time>2026-05-02T12:26:51Z</time></trkpt><trkpt lat="45.76883399228123" lon="7.55297001845518"><ele>1254.75</ele><time>2026-05-02T12:26:52Z</time></trkpt><trkpt lat="45.76888113127456" lon="7.552834524062657"><ele>1254.5</ele><time>2026-05-02T12:26:53Z</time></trkpt><trkpt lat="45.7689036787555" lon="7.552677894648388"><ele>1254.25</ele><time>2026-05-02T12:26:54Z</time></trkpt><trkpt lat="45.76892023839251" lon="7.552511016645816"><ele>1254.0</ele><time>2026-05-02T12:26:55Z</time></trkpt><trkpt lat="45.76895070372135" lon="7.552326073037993"><ele>1254.0</ele><time>2026-05-02T12:26:56Z</time></trkpt><trkpt lat="45.76895993173492" lon="7.552140944554582"><ele>1254.0</ele><time>2026-05-02T12:26:57Z</time></trkpt><trkpt lat="45.76897777149416" lon="7.551966335517872"><ele>1254.0</ele><time>2026-05-02T12:26:58Z</time></trkpt><trkpt lat="45.76899495786805" lon="7.551796588521377"><ele>1254.0</ele><time>2026-05-02T12:26:59Z</time></trkpt><trkpt lat="45.76902131968865" lon="7.551638912188886"><ele>1253.4</ele><time>2026-05-02T12:27:00Z</time></trkpt><trkpt lat="45.76906343507396" lon="7.551491047076568"><ele>1252.8000000000002</ele><time>2026-05-02T12:27:01Z</time></trkpt><trkpt lat="45.76911094897783" lon="7.551354306274162"><ele>1252.1999999999998</ele><time>2026-05-02T12:27:02Z</time></trkpt><trkpt lat="45.769166499970716" lon="7.5512233210572015"><ele>1251.6</ele><time>2026-05-02T12:27:03Z</time></trkpt><trkpt lat="45.7692360351947" lon="7.551105864206055"><ele>1251.0</ele><time>2026-05-02T12:27:04Z</time></trkpt><trkpt lat="45.769307352211776" lon="7.550968519143167"><ele>1256.25</ele><time>2026-05-02T12:27:05Z</time></trkpt><trkpt lat="45.769382484667794" lon="7.550830699502994"><ele>1261.5</ele><time>2026-05-02T12:27:06Z</time></trkpt><trkpt lat="45.7694608671124" lon="7.550708640104077"><ele>1266.75</ele><time>2026-05-02T12:27:07Z</time></trkpt><trkpt lat="45.76953502980168" lon="7.550576890738457"><ele>1272.0</ele><time>2026-05-02T12:27:08Z</time></trkpt><trkpt lat="45.769599289465496" lon="7.550426292049615"><ele>1270.0</ele><time>2026-05-02T12:27:09Z</time></trkpt><trkpt lat="45.76965405989796" lon="7.550272382207778"><ele>1268.0</ele><time>2026-05-02T12:27:10Z</time></trkpt><trkpt lat="45.76970122361685" lon="7.550125682732213"><ele>1266.0</ele><time>2026-05-02T12:27:11Z</time></trkpt><trkpt lat="45.76973923732238" lon="7.549985786755428"><ele>1264.0</ele><time>2026-05-02T12:27:12Z</time></trkpt><trkpt lat="45.769753161327806" lon="7.549841857034728"><ele>1262.0</ele><time>2026-05-02T12:27:13Z</time></trkpt><trkpt lat="45.76973912151383" lon="7.549702790109025"><ele>1262.0</ele><time>2026-05-02T12:27:14Z</time></trkpt><trkpt lat="45.76969789960494" lon="7.549568615829698"><ele>1262.0</ele><time>2026-05-02T12:27:15Z</time></trkpt><trkpt lat="45.7696468504763" lon="7.549435090084561"><ele>1262.0</ele><time>2026-05-02T12:27:16Z</time></trkpt><trkpt lat="45.7695964431679" lon="7.549300511518168"><ele>1262.0</ele><time>2026-05-02T12:27:17Z</time></trkpt><trkpt lat="45.769550968183275" lon="7.549167468056422"><ele>1262.0</ele><time>2026-05-02T12:27:18Z</time></trkpt><trkpt lat="45.76952139492507" lon="7.549027553370956"><ele>1261.4</ele><time>2026-05-02T12:27:19Z</time></trkpt><trkpt lat="45.769509201917764" lon="7.548876252696755"><ele>1260.8000000000002</ele><time>2026-05-02T12:27:20Z</time></trkpt><trkpt lat="45.769516270263296" lon="7.548719569380192"><ele>1260.2</ele><time>2026-05-02T12:27:21Z</time></trkpt><trkpt lat="45.769532890016336" lon="7.548573740149959"><ele>1259.6000000000001</ele><time>2026-05-02T12:27:22Z</time></trkpt><trkpt lat="45.76955565417846" lon="7.5484353162907745"><ele>1259.0</ele><time>2026-05-02T12:27:23Z</time></trkpt><trkpt lat="45.76958313773666" lon="7.5482987436091635"><ele>1259.0</ele><time>2026-05-02T12:27:24Z</time></trkpt><trkpt lat="45.76962013002557" lon="7.548174526423993"><ele>1259.0</ele><time>2026-05-02T12:27:25Z</time></trkpt><trkpt lat="45.76970199954916" lon="7.548081365922942"><ele>1259.0</ele><time>2026-05-02T12:27:26Z</time></trkpt><trkpt lat="45.76976055806639" lon="7.547951245792622"><ele>1259.0</ele><time>2026-05-02T12:27:27Z</time></trkpt><trkpt lat="45.76982808620853" lon="7.547823524932893"><ele>1259.0</ele><time>2026-05-02T12:27:28Z</time></trkpt><trkpt lat="45.76988633360373" lon="7.547687428928541"><ele>1260.0</ele><time>2026-05-02T12:27:29Z</time></trkpt><trkpt lat="45.76994965726837" lon="7.547569146202626"><ele>1261.0</ele><time>2026-05-02T12:27:30Z</time></trkpt><trkpt lat="45.77002205999504" lon="7.547467747944506"><ele>1262.0</ele><time>2026-05-02T12:27:31Z</time></trkpt><trkpt lat="45.770107510804344" lon="7.547374282408456"><ele>1263.0</ele><time>2026-05-02T12:27:32Z</time></trkpt><trkpt lat="45.770193027921536" lon="7.547275646488683"><ele>1264.0</ele><time>2026-05-02T12:27:33Z</time></trkpt><trkpt lat="45.770281023853826" lon="7.547168854838385"><ele>1264.0</ele><time>2026-05-02T12:27:34Z</time></trkpt><trkpt lat="45.77036137406902" lon="7.547052096155793"><ele>1264.0</ele><time>2026-05-02T12:27:35Z</time></trkpt><trkpt lat="45.77042868132616" lon="7.546919104817587"><ele>1264.0</ele><time>2026-05-02T12:27:36Z</time></trkpt><trkpt lat="45.770486861589596" lon="7.546784101878082"><ele>1264.0</ele><time>2026-05-02T12:27:37Z</time></trkpt><trkpt lat="45.7705245360155" lon="7.546641799372523"><ele>1264.0</ele><time>2026-05-02T12:27:38Z</time></trkpt><trkpt lat="45.77053956310277" lon="7.546494589981559"><ele>1260.5</ele><time>2026-05-02T12:27:39Z</time></trkpt><trkpt lat="45.77053210712079" lon="7.5463449658254556"><ele>1257.0</ele><time>2026-05-02T12:27:40Z</time></trkpt><trkpt lat="45.77053085903216" lon="7.546184885364996"><ele>1253.5</ele><time>2026-05-02T12:27:41Z</time></trkpt><trkpt lat="45.77050980918868" lon="7.546011656159305"><ele>1250.0</ele><time>2026-05-02T12:27:42Z</time></trkpt><trkpt lat="45.77046822946324" lon="7.545838296918566"><ele>1249.5</ele><time>2026-05-02T12:27:43Z</time></trkpt><trkpt lat="45.77040553771055" lon="7.545675701497114"><ele>1249.0</ele><time>2026-05-02T12:27:44Z</time></trkpt><trkpt lat="45.770395052909606" lon="7.545486436208606"><ele>1248.5</ele><time>2026-05-02T12:27:45Z</time></trkpt><trkpt lat="45.770374808120735" lon="7.5453003359135"><ele>1248.0</ele><time>2026-05-02T12:27:46Z</time></trkpt><trkpt lat="45.770347398622945" lon="7.5451053835525235"><ele>1248.0</ele><time>2026-05-02T12:27:47Z</time></trkpt><trkpt lat="45.770311852855656" lon="7.54492954551993"><ele>1248.0</ele><time>2026-05-02T12:27:48Z</time></trkpt><trkpt lat="45.77028083497341" lon="7.544763149455343"><ele>1248.0</ele><time>2026-05-02T12:27:49Z</time></trkpt><trkpt lat="45.770247355271856" lon="7.544604654079066"><ele>1248.0</ele><time>2026-05-02T12:27:50Z</time></trkpt><trkpt lat="45.770185884414815" lon="7.5444605721840885"><ele>1243.8333333333333</ele><time>2026-05-02T12:27:51Z</time></trkpt><trkpt lat="45.77011116233838" lon="7.544354350926251"><ele>1239.6666666666667</ele><time>2026-05-02T12:27:52Z</time></trkpt><trkpt lat="45.77003912900967" lon="7.544273654632611"><ele>1235.5</ele><time>2026-05-02T12:27:53Z</time></trkpt><trkpt lat="45.76997514746808" lon="7.5442147400321495"><ele>1231.3333333333335</ele><time>2026-05-02T12:27:54Z</time></trkpt><trkpt lat="45.76990860621157" lon="7.54417299116113"><ele>1227.1666666666667</ele><time>2026-05-02T12:27:55Z</time></trkpt><trkpt lat="45.769870011312435" lon="7.5440836271079394"><ele>1223.0</ele><time>2026-05-02T12:27:56Z</time></trkpt><trkpt lat="45.769845148885956" lon="7.543984152021707"><ele>1223.0</ele><time>2026-05-02T12:27:57Z</time></trkpt><trkpt lat="45.7697163983078" lon="7.5439292695251225"><ele>1223.0</ele><time>2026-05-02T12:27:58Z</time></trkpt><trkpt lat="45.769639248969746" lon="7.543797060204073"><ele>1223.0</ele><time>2026-05-02T12:27:59Z</time></trkpt><trkpt lat="45.76955922250938" lon="7.543651903741465"><ele>1223.0</ele><time>2026-05-02T12:28:00Z</time></trkpt><trkpt lat="45.76948672243164" lon="7.5435124120523716"><ele>1224.5</ele><time>2026-05-02T12:28:01Z</time></trkpt><trkpt lat="45.76943361423705" lon="7.543371846491575"><ele>1226.0</ele><time>2026-05-02T12:28:02Z</time></trkpt><trkpt lat="45.76942145638068" lon="7.543221776658007"><ele>1227.5</ele><time>2026-05-02T12:28:03Z</time></trkpt><trkpt lat="45.7694432353276" lon="7.543066855823795"><ele>1229.0</ele><time>2026-05-02T12:28:04Z</time></trkpt><trkpt lat="45.769476098717355" lon="7.542897264672377"><ele>1228.75</ele><time>2026-05-02T12:28:05Z</time></trkpt><trkpt lat="45.76951236660962" lon="7.542723446032758"><ele>1228.5</ele><time>2026-05-02T12:28:06Z</time></trkpt><trkpt lat="45.769541521894645" lon="7.542559003832417"><ele>1228.25</ele><time>2026-05-02T12:28:07Z</time></trkpt><trkpt lat="45.76955605045778" lon="7.542403844109801"><ele>1228.0</ele><time>2026-05-02T12:28:08Z</time></trkpt><trkpt lat="45.769547737138986" lon="7.542248538265132"><ele>1228.0</ele><time>2026-05-02T12:28:09Z</time></trkpt><trkpt lat="45.7695055033359" lon="7.542091270795888"><ele>1228.0</ele><time>2026-05-02T12:28:10Z</time></trkpt><trkpt lat="45.76945189032419" lon="7.541938900928063"><ele>1228.0</ele><time>2026-05-02T12:28:11Z</time></trkpt><trkpt lat="45.769407909478055" lon="7.541776482108439"><ele>1228.0</ele><time>2026-05-02T12:28:12Z</time></trkpt><trkpt lat="45.76935032793448" lon="7.541611510180828"><ele>1220.25</ele><time>2026-05-02T12:28:13Z</time></trkpt><trkpt lat="45.76929211975846" lon="7.541444073128427"><ele>1212.5</ele><time>2026-05-02T12:28:14Z</time></trkpt><trkpt lat="45.76923734285298" lon="7.541274230953201"><ele>1204.75</ele><time>2026-05-02T12:28:15Z</time></trkpt><trkpt lat="45.76918930828374" lon="7.541090049648126"><ele>1197.0</ele><time>2026-05-02T12:28:16Z</time></trkpt><trkpt lat="45.76916328524787" lon="7.5408988798233985"><ele>1197.0</ele><time>2026-05-02T12:28:17Z</time></trkpt><trkpt lat="45.76911609310279" lon="7.5407273431721125"><ele>1197.0</ele><time>2026-05-02T12:28:18Z</time></trkpt><trkpt lat="45.769080445047265" lon="7.540550103510315"><ele>1197.0</ele><time>2026-05-02T12:28:19Z</time></trkpt><trkpt lat="45.769051409873605" lon="7.540357162328598"><ele>1197.0</ele><time>2026-05-02T12:28:20Z</time></trkpt><trkpt lat="45.769051291015046" lon="7.540140003095986"><ele>1196.0</ele><time>2026-05-02T12:28:21Z</time></trkpt><trkpt lat="45.76904875480974" lon="7.539896497632962"><ele>1195.0</ele><time>2026-05-02T12:28:22Z</time></trkpt><trkpt lat="45.76904702125771" lon="7.53962081142436"><ele>1194.0</ele><time>2026-05-02T12:28:23Z</time></trkpt><trkpt lat="45.769044236397974" lon="7.539334581827197"><ele>1194.0</ele><time>2026-05-02T12:28:24Z</time></trkpt><trkpt lat="45.76904487810905" lon="7.539065005543108"><ele>1194.0</ele><time>2026-05-02T12:28:25Z</time></trkpt><trkpt lat="45.769036896659635" lon="7.538811005573895"><ele>1194.0</ele><time>2026-05-02T12:28:26Z</time></trkpt><trkpt lat="45.76896557198034" lon="7.5385564131194975"><ele>1194.0</ele><time>2026-05-02T12:28:27Z</time></trkpt><trkpt lat="45.768850405205136" lon="7.538375036063861"><ele>1194.0</ele><time>2026-05-02T12:28:28Z</time></trkpt><trkpt lat="45.76875624428088" lon="7.538177185117351"><ele>1194.0</ele><time>2026-05-02T12:28:29Z</time></trkpt><trkpt lat="45.76866025556304" lon="7.537982735391707"><ele>1195.0</ele><time>2026-05-02T12:28:30Z</time></trkpt><trkpt lat="45.76856604785581" lon="7.537797421747584"><ele>1196.0</ele><time>2026-05-02T12:28:31Z</time></trkpt><trkpt lat="45.76849132319619" lon="7.53764505533473"><ele>1197.0</ele><time>2026-05-02T12:28:32Z</time></trkpt><trkpt lat="45.76841648443378" lon="7.537520253627112"><ele>1198.0</ele><time>2026-05-02T12:28:33Z</time></trkpt><trkpt lat="45.76834971610899" lon="7.537412997391072"><ele>1192.4</ele><time>2026-05-02T12:28:34Z</time></trkpt><trkpt lat="45.768251817208395" lon="7.5374019209393515"><ele>1186.8</ele><time>2026-05-02T12:28:35Z</time></trkpt><trkpt lat="45.76816587780505" lon="7.537440478141769"><ele>1181.2</ele><time>2026-05-02T12:28:36Z</time></trkpt><trkpt lat="45.76808606002117" lon="7.537536093323512"><ele>1175.6</ele><time>2026-05-02T12:28:37Z</time></trkpt><trkpt lat="45.76799539231051" lon="7.537661233518564"><ele>1170.0</ele><time>2026-05-02T12:28:38Z</time></trkpt><trkpt lat="45.76789583720735" lon="7.537797050932313"><ele>1170.0</ele><time>2026-05-02T12:28:39Z</time></trkpt><trkpt lat="45.767810031685904" lon="7.537950851226888"><ele>1170.0</ele><time>2026-05-02T12:28:40Z</time></trkpt><trkpt lat="45.76773844761253" lon="7.538117967686021"><ele>1170.0</ele><time>2026-05-02T12:28:41Z</time></trkpt><trkpt lat="45.76766171439563" lon="7.538284883868866"><ele>1170.0</ele><time>2026-05-02T12:28:42Z</time></trkpt><trkpt lat="45.767615627391656" lon="7.538481695740073"><ele>1166.25</ele><time>2026-05-02T12:28:43Z</time></trkpt><trkpt lat="45.767587703937956" lon="7.538684907560253"><ele>1162.5</ele><time>2026-05-02T12:28:44Z</time></trkpt><trkpt lat="45.76754699607867" lon="7.538886029163408"><ele>1158.75</ele><time>2026-05-02T12:28:45Z</time></trkpt><trkpt lat="45.76750114202141" lon="7.539081350233714"><ele>1155.0</ele><time>2026-05-02T12:28:46Z</time></trkpt><trkpt lat="45.76745244498743" lon="7.539264140891863"><ele>1155.0</ele><time>2026-05-02T12:28:47Z</time></trkpt><trkpt lat="45.767405442060785" lon="7.5394355627561405"><ele>1155.0</ele><time>2026-05-02T12:28:48Z</time></trkpt><trkpt lat="45.76735660689428" lon="7.539610846512735"><ele>1155.0</ele><time>2026-05-02T12:28:49Z</time></trkpt><trkpt lat="45.76730375567453" lon="7.539792864358501"><ele>1155.0</ele><time>2026-05-02T12:28:50Z</time></trkpt><trkpt lat="45.76724953219686" lon="7.539983886537058"><ele>1154.6666666666667</ele><time>2026-05-02T12:28:51Z</time></trkpt><trkpt lat="45.76719375508939" lon="7.540183665883376"><ele>1154.3333333333335</ele><time>2026-05-02T12:28:52Z</time></trkpt><trkpt lat="45.76714426417385" lon="7.5403952562423315"><ele>1154.0</ele><time>2026-05-02T12:28:53Z</time></trkpt><trkpt lat="45.76710553065005" lon="7.540619056904609"><ele>1153.0</ele><time>2026-05-02T12:28:54Z</time></trkpt><trkpt lat="45.76707890543433" lon="7.540856138002154"><ele>1152.0</ele><time>2026-05-02T12:28:55Z</time></trkpt><trkpt lat="45.767053837479004" lon="7.5410977813972915"><ele>1151.0</ele><time>2026-05-02T12:28:56Z</time></trkpt><trkpt lat="45.76702355070126" lon="7.541348461734423"><ele>1151.0</ele><time>2026-05-02T12:28:57Z</time></trkpt><trkpt lat="45.766993469266204" lon="7.541611024708417"><ele>1151.0</ele><time>2026-05-02T12:28:58Z</time></trkpt><trkpt lat="45.76696200698123" lon="7.5418773349773724"><ele>1151.0</ele><time>2026-05-02T12:28:59Z</time></trkpt><trkpt lat="45.76693036635472" lon="7.542147470887026"><ele>1151.0</ele><time>2026-05-02T12:29:00Z</time></trkpt><trkpt lat="45.76689673812744" lon="7.542417502140677"><ele>1151.0</ele><time>2026-05-02T12:29:01Z</time></trkpt><trkpt lat="45.7668683696851" lon="7.542690210875311"><ele>1151.0</ele><time>2026-05-02T12:29:02Z</time></trkpt><trkpt lat="45.7668479641159" lon="7.5429586247622495"><ele>1144.0</ele><time>2026-05-02T12:29:03Z</time></trkpt><trkpt lat="45.766831933296615" lon="7.543219847363966"><ele>1137.0</ele><time>2026-05-02T12:29:04Z</time></trkpt><trkpt lat="45.7668139361228" lon="7.543476858642685"><ele>1130.0</ele><time>2026-05-02T12:29:05Z</time></trkpt><trkpt lat="45.766796554460534" lon="7.54371772133116"><ele>1129.5</ele><time>2026-05-02T12:29:06Z</time></trkpt><trkpt lat="45.766781610768945" lon="7.543945799492301"><ele>1129.0</ele><time>2026-05-02T12:29:07Z</time></trkpt><trkpt lat="45.76676813238502" lon="7.544153786377948"><ele>1128.5</ele><time>2026-05-02T12:29:08Z</time></trkpt><trkpt lat="45.76674430350885" lon="7.544336654363788"><ele>1128.0</ele><time>2026-05-02T12:29:09Z</time></trkpt><trkpt lat="45.766688270759374" lon="7.544493206938124"><ele>1130.0</ele><time>2026-05-02T12:29:10Z</time></trkpt><trkpt lat="45.76660239320904" lon="7.544627558229807"><ele>1132.0</ele><time>2026-05-02T12:29:11Z</time></trkpt><trkpt lat="45.766497358845655" lon="7.544738094484985"><ele>1134.0</ele><time>2026-05-02T12:29:12Z</time></trkpt><trkpt lat="45.76638265466892" lon="7.544859105645241"><ele>1136.0</ele><time>2026-05-02T12:29:13Z</time></trkpt><trkpt lat="45.76626882419232" lon="7.544981751567744"><ele>1136.0</ele><time>2026-05-02T12:29:14Z</time></trkpt><trkpt lat="45.76614877383238" lon="7.545084452330589"><ele>1136.0</ele><time>2026-05-02T12:29:15Z</time></trkpt><trkpt lat="45.76604770828757" lon="7.545194332630199"><ele>1136.0</ele><time>2026-05-02T12:29:16Z</time></trkpt><trkpt lat="45.76596756085797" lon="7.545308382200925"><ele>1136.0</ele><time>2026-05-02T12:29:17Z</time></trkpt><trkpt lat="45.76588240908072" lon="7.545386693080758"><ele>1134.0</ele><time>2026-05-02T12:29:18Z</time></trkpt><trkpt lat="45.765805228959756" lon="7.545424994222224"><ele>1132.0</ele><time>2026-05-02T12:29:19Z</time></trkpt><trkpt lat="45.76573943959614" lon="7.545413962212104"><ele>1130.0</ele><time>2026-05-02T12:29:20Z</time></trkpt><trkpt lat="45.76569880783031" lon="7.545265277604938"><ele>1128.0</ele><time>2026-05-02T12:29:22Z</time></trkpt><trkpt lat="45.76574145938162" lon="7.545150242130679"><ele>1126.0</ele><time>2026-05-02T12:29:23Z</time></trkpt><trkpt lat="45.765798739376095" lon="7.545019243093152"><ele>1126.5</ele><time>2026-05-02T12:29:24Z</time></trkpt><trkpt lat="45.765867548351984" lon="7.544856760078667"><ele>1127.0</ele><time>2026-05-02T12:29:25Z</time></trkpt><trkpt lat="45.76596056837954" lon="7.544696494542983"><ele>1127.5</ele><time>2026-05-02T12:29:26Z</time></trkpt><trkpt lat="45.76605901185693" lon="7.54456050012254"><ele>1128.0</ele><time>2026-05-02T12:29:27Z</time></trkpt><trkpt lat="45.766133336961126" lon="7.544456967815652"><ele>1128.0</ele><time>2026-05-02T12:29:28Z</time></trkpt><trkpt lat="45.76617243075585" lon="7.544342933066948"><ele>1128.0</ele><time>2026-05-02T12:29:29Z</time></trkpt><trkpt lat="45.76615349246704" lon="7.5442323663861774"><ele>1128.0</ele><time>2026-05-02T12:29:30Z</time></trkpt><trkpt lat="45.76610134032145" lon="7.5441668649020786"><ele>1128.0</ele><time>2026-05-02T12:29:31Z</time></trkpt><trkpt lat="45.76600569228383" lon="7.544156702712927"><ele>1128.0</ele><time>2026-05-02T12:29:32Z</time></trkpt><trkpt lat="45.76590393821846" lon="7.544265868423779"><ele>1125.0</ele><time>2026-05-02T12:29:33Z</time></trkpt><trkpt lat="45.76579613164498" lon="7.544390313073069"><ele>1122.0</ele><time>2026-05-02T12:29:34Z</time></trkpt><trkpt lat="45.765668348197536" lon="7.544535413418241"><ele>1119.0</ele><time>2026-05-02T12:29:35Z</time></trkpt><trkpt lat="45.76553636135874" lon="7.544669545993131"><ele>1119.0</ele><time>2026-05-02T12:29:36Z</time></trkpt><trkpt lat="45.76540814881675" lon="7.544791169179696"><ele>1119.0</ele><time>2026-05-02T12:29:37Z</time></trkpt><trkpt lat="45.76528070546322" lon="7.544907592039572"><ele>1119.0</ele><time>2026-05-02T12:29:38Z</time></trkpt><trkpt lat="45.7651658027083" lon="7.54503123824045"><ele>1119.0</ele><time>2026-05-02T12:29:39Z</time></trkpt><trkpt lat="45.76506361919214" lon="7.545170452980163"><ele>1113.0</ele><time>2026-05-02T12:29:40Z</time></trkpt><trkpt lat="45.764983092961906" lon="7.545340422675413"><ele>1107.0</ele><time>2026-05-02T12:29:41Z</time></trkpt><trkpt lat="45.76490282625914" lon="7.545536989487228"><ele>1101.0</ele><time>2026-05-02T12:29:42Z</time></trkpt><trkpt lat="45.76481546537078" lon="7.545747352433845"><ele>1101.0</ele><time>2026-05-02T12:29:43Z</time></trkpt><trkpt lat="45.76472093455372" lon="7.545979027173271"><ele>1101.0</ele><time>2026-05-02T12:29:44Z</time></trkpt><trkpt lat="45.76461557637414" lon="7.546226024380252"><ele>1101.0</ele><time>2026-05-02T12:29:45Z</time></trkpt><trkpt lat="45.764509159611634" lon="7.5464724383394595"><ele>1101.6666666666667</ele><time>2026-05-02T12:29:46Z</time></trkpt><trkpt lat="45.76439958528187" lon="7.546703836566254"><ele>1102.3333333333335</ele><time>2026-05-02T12:29:47Z</time></trkpt><trkpt lat="45.76429166521726" lon="7.546925325164906"><ele>1103.0</ele><time>2026-05-02T12:29:48Z</time></trkpt><trkpt lat="45.7641899148858" lon="7.547135721670132"><ele>1096.0</ele><time>2026-05-02T12:29:49Z</time></trkpt><trkpt lat="45.764093425331524" lon="7.547347811558323"><ele>1089.0</ele><time>2026-05-02T12:29:50Z</time></trkpt><trkpt lat="45.76401625328145" lon="7.5475658929693905"><ele>1082.0</ele><time>2026-05-02T12:29:51Z</time></trkpt><trkpt lat="45.76396605089077" lon="7.547786813410017"><ele>1080.6666666666667</ele><time>2026-05-02T12:29:52Z</time></trkpt><trkpt lat="45.76395111811656" lon="7.548010966470611"><ele>1079.3333333333333</ele><time>2026-05-02T12:29:53Z</time></trkpt><trkpt lat="45.76394849902566" lon="7.5482402793995895"><ele>1078.0</ele><time>2026-05-02T12:29:54Z</time></trkpt><trkpt lat="45.76394677826575" lon="7.548460057657491"><ele>1078.0</ele><time>2026-05-02T12:29:55Z</time></trkpt><trkpt lat="45.763939475791005" lon="7.54864909377271"><ele>1078.0</ele><time>2026-05-02T12:29:56Z</time></trkpt><trkpt lat="45.76390903720273" lon="7.548819235609811"><ele>1078.0</ele><time>2026-05-02T12:29:57Z</time></trkpt><trkpt lat="45.763833916752695" lon="7.548963488465034"><ele>1078.0</ele><time>2026-05-02T12:29:58Z</time></trkpt><trkpt lat="45.76372313131001" lon="7.549057131916709"><ele>1079.3333333333333</ele><time>2026-05-02T12:29:59Z</time></trkpt><trkpt lat="45.76362198704903" lon="7.549185800606903"><ele>1080.6666666666667</ele><time>2026-05-02T12:30:00Z</time></trkpt><trkpt lat="45.76349396316688" lon="7.549320876715083"><ele>1082.0</ele><time>2026-05-02T12:30:01Z</time></trkpt><trkpt lat="45.763361058993766" lon="7.549454712268618"><ele>1079.5</ele><time>2026-05-02T12:30:02Z</time></trkpt><trkpt lat="45.76322596003227" lon="7.549581163131564"><ele>1077.0</ele><time>2026-05-02T12:30:03Z</time></trkpt><trkpt lat="45.763092724523155" lon="7.549688756809276"><ele>1074.5</ele><time>2026-05-02T12:30:04Z</time></trkpt><trkpt lat="45.76297636336128" lon="7.549785047435179"><ele>1072.0</ele><time>2026-05-02T12:30:05Z</time></trkpt><trkpt lat="45.76287787271262" lon="7.549863321565829"><ele>1072.0</ele><time>2026-05-02T12:30:06Z</time></trkpt><trkpt lat="45.7627859646981" lon="7.549935582597328"><ele>1072.0</ele><time>2026-05-02T12:30:07Z</time></trkpt><trkpt lat="45.76269211828729" lon="7.549971143093589"><ele>1072.0</ele><time>2026-05-02T12:30:08Z</time></trkpt><trkpt lat="45.76260651651434" lon="7.549936703996666"><ele>1072.0</ele><time>2026-05-02T12:30:09Z</time></trkpt><trkpt lat="45.7625475222604" lon="7.549844061373112"><ele>1072.0</ele><time>2026-05-02T12:30:10Z</time></trkpt><trkpt lat="45.76253426798546" lon="7.549706635722693"><ele>1067.5</ele><time>2026-05-02T12:30:11Z</time></trkpt><trkpt lat="45.76249787753206" lon="7.549547582192187"><ele>1063.0</ele><time>2026-05-02T12:30:12Z</time></trkpt><trkpt lat="45.76248092002425" lon="7.5493629015619055"><ele>1058.5</ele><time>2026-05-02T12:30:13Z</time></trkpt><trkpt lat="45.7624540144991" lon="7.549160631377404"><ele>1054.0</ele><time>2026-05-02T12:30:14Z</time></trkpt><trkpt lat="45.76242842806496" lon="7.548975580104526"><ele>1052.25</ele><time>2026-05-02T12:30:15Z</time></trkpt><trkpt lat="45.762404506973034" lon="7.548777607146689"><ele>1050.5</ele><time>2026-05-02T12:30:16Z</time></trkpt><trkpt lat="45.76237827592744" lon="7.548582780991837"><ele>1048.75</ele><time>2026-05-02T12:30:17Z</time></trkpt><trkpt lat="45.7623542551287" lon="7.548389084618484"><ele>1047.0</ele><time>2026-05-02T12:30:18Z</time></trkpt><trkpt lat="45.7623357233034" lon="7.548198902267087"><ele>1046.75</ele><time>2026-05-02T12:30:19Z</time></trkpt><trkpt lat="45.7623274259229" lon="7.548007679691389"><ele>1046.5</ele><time>2026-05-02T12:30:20Z</time></trkpt><trkpt lat="45.76233848072942" lon="7.547817147925286"><ele>1046.25</ele><time>2026-05-02T12:30:21Z</time></trkpt><trkpt lat="45.76236038373538" lon="7.5476235163001695"><ele>1046.0</ele><time>2026-05-02T12:30:22Z</time></trkpt><trkpt lat="45.762382946711774" lon="7.547424663498056"><ele>1046.0</ele><time>2026-05-02T12:30:23Z</time></trkpt><trkpt lat="45.7624030443036" lon="7.547219813169682"><ele>1046.0</ele><time>2026-05-02T12:30:24Z</time></trkpt><trkpt lat="45.76242042763363" lon="7.547008092494224"><ele>1046.0</ele><time>2026-05-02T12:30:25Z</time></trkpt><trkpt lat="45.76244355035966" lon="7.546796639902756"><ele>1046.0</ele><time>2026-05-02T12:30:26Z</time></trkpt><trkpt lat="45.76246579297077" lon="7.546572322836863"><ele>1045.6666666666667</ele><time>2026-05-02T12:30:27Z</time></trkpt><trkpt lat="45.76248700393926" lon="7.546347272106288"><ele>1045.3333333333333</ele><time>2026-05-02T12:30:28Z</time></trkpt><trkpt lat="45.76250835415158" lon="7.546123887532687"><ele>1045.0</ele><time>2026-05-02T12:30:29Z</time></trkpt><trkpt lat="45.762529640074575" lon="7.54590556804678"><ele>1044.3333333333333</ele><time>2026-05-02T12:30:30Z</time></trkpt><trkpt lat="45.762553833706214" lon="7.545688054221999"><ele>1043.6666666666667</ele><time>2026-05-02T12:30:31Z</time></trkpt><trkpt lat="45.76257928396807" lon="7.545474105750567"><ele>1043.0</ele><time>2026-05-02T12:30:32Z</time></trkpt><trkpt lat="45.76261248434482" lon="7.545266125951481"><ele>1042.75</ele><time>2026-05-02T12:30:33Z</time></trkpt><trkpt lat="45.762653745164066" lon="7.54506269587972"><ele>1042.5</ele><time>2026-05-02T12:30:34Z</time></trkpt><trkpt lat="45.762713311863294" lon="7.544871004348334"><ele>1042.25</ele><time>2026-05-02T12:30:35Z</time></trkpt><trkpt lat="45.76278791397846" lon="7.544690659268258"><ele>1042.0</ele><time>2026-05-02T12:30:36Z</time></trkpt><trkpt lat="45.762863212366646" lon="7.544507704421106"><ele>1044.0</ele><time>2026-05-02T12:30:37Z</time></trkpt><trkpt lat="45.76293645658591" lon="7.544321467268765"><ele>1046.0</ele><time>2026-05-02T12:30:38Z</time></trkpt><trkpt lat="45.763012049556515" lon="7.5441347151415385"><ele>1048.0</ele><time>2026-05-02T12:30:39Z</time></trkpt><trkpt lat="45.76309024440855" lon="7.543947687873242"><ele>1048.0</ele><time>2026-05-02T12:30:40Z</time></trkpt><trkpt lat="45.76317589494656" lon="7.54376174995423"><ele>1048.0</ele><time>2026-05-02T12:30:41Z</time></trkpt><trkpt lat="45.76326358683875" lon="7.543579423696092"><ele>1048.0</ele><time>2026-05-02T12:30:42Z</time></trkpt><trkpt lat="45.763356277634244" lon="7.54340494816353"><ele>1048.25</ele><time>2026-05-02T12:30:43Z</time></trkpt><trkpt lat="45.763447204245786" lon="7.543238440290935"><ele>1048.5</ele><time>2026-05-02T12:30:44Z</time></trkpt><trkpt lat="45.763527528652" lon="7.543078539979999"><ele>1048.75</ele><time>2026-05-02T12:30:45Z</time></trkpt><trkpt lat="45.76360707421896" lon="7.54292519778474"><ele>1049.0</ele><time>2026-05-02T12:30:46Z</time></trkpt><trkpt lat="45.76368177636972" lon="7.542776598318581"><ele>1049.0</ele><time>2026-05-02T12:30:47Z</time></trkpt><trkpt lat="45.7637525970015" lon="7.5426199166697625"><ele>1049.0</ele><time>2026-05-02T12:30:48Z</time></trkpt><trkpt lat="45.76381310383564" lon="7.542456462971403"><ele>1049.0</ele><time>2026-05-02T12:30:49Z</time></trkpt><trkpt lat="45.76386990631493" lon="7.542287483812342"><ele>1049.0</ele><time>2026-05-02T12:30:50Z</time></trkpt><trkpt lat="45.76392068030001" lon="7.54211020012046"><ele>1047.75</ele><time>2026-05-02T12:30:51Z</time></trkpt><trkpt lat="45.763958725496586" lon="7.541921380779557"><ele>1046.5</ele><time>2026-05-02T12:30:52Z</time></trkpt><trkpt lat="45.76398064023498" lon="7.541727487328987"><ele>1045.25</ele><time>2026-05-02T12:30:53Z</time></trkpt><trkpt lat="45.76399149103607" lon="7.541534501704121"><ele>1044.0</ele><time>2026-05-02T12:30:54Z</time></trkpt><trkpt lat="45.763991127809845" lon="7.5413295356226255"><ele>1043.75</ele><time>2026-05-02T12:30:55Z</time></trkpt><trkpt lat="45.76398736398256" lon="7.541120361405393"><ele>1043.5</ele><time>2026-05-02T12:30:56Z</time></trkpt><trkpt lat="45.76399555337732" lon="7.540916587991844"><ele>1043.25</ele><time>2026-05-02T12:30:57Z</time></trkpt><trkpt lat="45.764012291477925" lon="7.540714411542699"><ele>1043.0</ele><time>2026-05-02T12:30:58Z</time></trkpt><trkpt lat="45.76402857885309" lon="7.540505935801329"><ele>1043.0</ele><time>2026-05-02T12:30:59Z</time></trkpt><trkpt lat="45.764034203284645" lon="7.540298394422746"><ele>1043.0</ele><time>2026-05-02T12:31:00Z</time></trkpt><trkpt lat="45.764025542623145" lon="7.540083729883433"><ele>1043.0</ele><time>2026-05-02T12:31:01Z</time></trkpt><trkpt lat="45.76400275142891" lon="7.539873782045997"><ele>1043.0</ele><time>2026-05-02T12:31:02Z</time></trkpt><trkpt lat="45.76397640334887" lon="7.539671920701756"><ele>1043.25</ele><time>2026-05-02T12:31:03Z</time></trkpt><trkpt lat="45.76395003894893" lon="7.539479046275171"><ele>1043.5</ele><time>2026-05-02T12:31:04Z</time></trkpt><trkpt lat="45.76392875226811" lon="7.539290048732021"><ele>1043.75</ele><time>2026-05-02T12:31:05Z</time></trkpt><trkpt lat="45.76391424757496" lon="7.539094689828726"><ele>1044.0</ele><time>2026-05-02T12:31:06Z</time></trkpt><trkpt lat="45.763905668439044" lon="7.538893495178409"><ele>1043.25</ele><time>2026-05-02T12:31:07Z</time></trkpt><trkpt lat="45.76390524639211" lon="7.5386874973444575"><ele>1042.5</ele><time>2026-05-02T12:31:08Z</time></trkpt><trkpt lat="45.76390245283465" lon="7.538479575167753"><ele>1041.75</ele><time>2026-05-02T12:31:09Z</time></trkpt><trkpt lat="45.763910764636115" lon="7.538264836987009"><ele>1041.0</ele><time>2026-05-02T12:31:10Z</time></trkpt><trkpt lat="45.76392954316171" lon="7.538057701593271"><ele>1040.25</ele><time>2026-05-02T12:31:11Z</time></trkpt><trkpt lat="45.7639490044923" lon="7.537852293773715"><ele>1039.5</ele><time>2026-05-02T12:31:12Z</time></trkpt><trkpt lat="45.76394970835338" lon="7.537654287558675"><ele>1038.75</ele><time>2026-05-02T12:31:13Z</time></trkpt><trkpt lat="45.76393621449931" lon="7.5374577660383"><ele>1038.0</ele><time>2026-05-02T12:31:14Z</time></trkpt><trkpt lat="45.763911434101274" lon="7.537268574552938"><ele>1038.0</ele><time>2026-05-02T12:31:15Z</time></trkpt><trkpt lat="45.76387110180882" lon="7.537067674640701"><ele>1038.0</ele><time>2026-05-02T12:31:16Z</time></trkpt><trkpt lat="45.76382243336283" lon="7.5368687532342244"><ele>1038.0</ele><time>2026-05-02T12:31:17Z</time></trkpt><trkpt lat="45.76375978638645" lon="7.5366659063755534"><ele>1038.0</ele><time>2026-05-02T12:31:18Z</time></trkpt><trkpt lat="45.76369185115869" lon="7.536458156334031"><ele>1036.6666666666667</ele><time>2026-05-02T12:31:19Z</time></trkpt><trkpt lat="45.76362165299716" lon="7.536248391004263"><ele>1035.3333333333335</ele><time>2026-05-02T12:31:20Z</time></trkpt><trkpt lat="45.76357179163631" lon="7.536031094139841"><ele>1034.0</ele><time>2026-05-02T12:31:21Z</time></trkpt><trkpt lat="45.76350545780232" lon="7.535824278495478"><ele>1030.25</ele><time>2026-05-02T12:31:22Z</time></trkpt><trkpt lat="45.763426650029416" lon="7.5356392988115335"><ele>1026.5</ele><time>2026-05-02T12:31:23Z</time></trkpt><trkpt lat="45.76337477998896" lon="7.535445400505147"><ele>1022.75</ele><time>2026-05-02T12:31:24Z</time></trkpt><trkpt lat="45.76330777046528" lon="7.5352615573527295"><ele>1019.0</ele><time>2026-05-02T12:31:25Z</time></trkpt><trkpt lat="45.7632223210605" lon="7.535078594186121"><ele>1019.0</ele><time>2026-05-02T12:31:26Z</time></trkpt><trkpt lat="45.76315612886953" lon="7.534894175362543"><ele>1019.0</ele><time>2026-05-02T12:31:27Z</time></trkpt><trkpt lat="45.76309541122432" lon="7.534719849549898"><ele>1019.0</ele><time>2026-05-02T12:31:28Z</time></trkpt><trkpt lat="45.76303878180533" lon="7.53455414947091"><ele>1019.0</ele><time>2026-05-02T12:31:29Z</time></trkpt><trkpt lat="45.76299286607465" lon="7.534390266818262"><ele>1018.75</ele><time>2026-05-02T12:31:30Z</time></trkpt><trkpt lat="45.76297406272444" lon="7.534223389350555"><ele>1018.5</ele><time>2026-05-02T12:31:31Z</time></trkpt><trkpt lat="45.76292420694827" lon="7.534074214176191"><ele>1018.25</ele><time>2026-05-02T12:31:32Z</time></trkpt><trkpt lat="45.76284156486969" lon="7.533951471606457"><ele>1018.0</ele><time>2026-05-02T12:31:33Z</time></trkpt><trkpt lat="45.76271094599432" lon="7.533900086289931"><ele>1016.75</ele><time>2026-05-02T12:31:34Z</time></trkpt><trkpt lat="45.762602757781124" lon="7.533818032372292"><ele>1015.5</ele><time>2026-05-02T12:31:35Z</time></trkpt><trkpt lat="45.76250153317578" lon="7.533716524684322"><ele>1014.25</ele><time>2026-05-02T12:31:36Z</time></trkpt><trkpt lat="45.76240823065849" lon="7.533588380877122"><ele>1013.0</ele><time>2026-05-02T12:31:37Z</time></trkpt><trkpt lat="45.76230350272261" lon="7.5334439764078995"><ele>1013.0</ele><time>2026-05-02T12:31:38Z</time></trkpt><trkpt lat="45.762196979233785" lon="7.533304119410478"><ele>1013.0</ele><time>2026-05-02T12:31:39Z</time></trkpt><trkpt lat="45.76210592485218" lon="7.533149316840374"><ele>1013.0</ele><time>2026-05-02T12:31:40Z</time></trkpt><trkpt lat="45.761993232091264" lon="7.533034386274983"><ele>1013.0</ele><time>2026-05-02T12:31:41Z</time></trkpt><trkpt lat="45.76189045493234" lon="7.53290977473628"><ele>1013.4</ele><time>2026-05-02T12:31:42Z</time></trkpt><trkpt lat="45.76179271391235" lon="7.532799677442965"><ele>1013.8</ele><time>2026-05-02T12:31:43Z</time></trkpt><trkpt lat="45.76171088344619" lon="7.532700785144326"><ele>1014.2</ele><time>2026-05-02T12:31:44Z</time></trkpt><trkpt lat="45.761652641937694" lon="7.5326054089965995"><ele>1014.6</ele><time>2026-05-02T12:31:45Z</time></trkpt><trkpt lat="45.7616209193613" lon="7.5325111192330025"><ele>1015.0</ele><time>2026-05-02T12:31:46Z</time></trkpt><trkpt lat="45.76161612101802" lon="7.532420715282236"><ele>1015.0</ele><time>2026-05-02T12:31:47Z</time></trkpt><trkpt lat="45.761662934376524" lon="7.5322633191561295"><ele>1015.0</ele><time>2026-05-02T12:31:49Z</time></trkpt><trkpt lat="45.761741080553804" lon="7.532218913879979"><ele>1015.0</ele><time>2026-05-02T12:31:50Z</time></trkpt><trkpt lat="45.761827053902934" lon="7.532142490609106"><ele>1015.0</ele><time>2026-05-02T12:31:51Z</time></trkpt><trkpt lat="45.76191732449602" lon="7.532110917015108"><ele>1015.0</ele><time>2026-05-02T12:31:52Z</time></trkpt><trkpt lat="45.762005724977186" lon="7.532029599169885"><ele>1014.8</ele><time>2026-05-02T12:31:54Z</time></trkpt><trkpt lat="45.762050919870795" lon="7.531947919297107"><ele>1014.6</ele><time>2026-05-02T12:31:55Z</time></trkpt><trkpt lat="45.76209548671645" lon="7.53179990412739"><ele>1014.4000000000001</ele><time>2026-05-02T12:31:56Z</time></trkpt><trkpt lat="45.762146800104524" lon="7.53163936340346"><ele>1014.2</ele><time>2026-05-02T12:31:57Z</time></trkpt><trkpt lat="45.76221010225535" lon="7.531465716717094"><ele>1014.0</ele><time>2026-05-02T12:31:58Z</time></trkpt><trkpt lat="45.76227210453817" lon="7.53129780331518"><ele>1014.0</ele><time>2026-05-02T12:31:59Z</time></trkpt><trkpt lat="45.76233905946283" lon="7.531132597582567"><ele>1014.0</ele><time>2026-05-02T12:32:00Z</time></trkpt><trkpt lat="45.76240593770563" lon="7.530966936952699"><ele>1014.0</ele><time>2026-05-02T12:32:01Z</time></trkpt><trkpt lat="45.76247175863015" lon="7.530798186525176"><ele>1014.0</ele><time>2026-05-02T12:32:02Z</time></trkpt><trkpt lat="45.76253845568689" lon="7.530623756734021"><ele>1014.0</ele><time>2026-05-02T12:32:03Z</time></trkpt><trkpt lat="45.7626100627183" lon="7.530451279434495"><ele>1014.0</ele><time>2026-05-02T12:32:04Z</time></trkpt><trkpt lat="45.7626898096745" lon="7.530297462790384"><ele>1014.0</ele><time>2026-05-02T12:32:05Z</time></trkpt><trkpt lat="45.762794222454666" lon="7.530166574554246"><ele>1014.0</ele><time>2026-05-02T12:32:06Z</time></trkpt><trkpt lat="45.76291590547629" lon="7.530073472364323"><ele>1014.25</ele><time>2026-05-02T12:32:07Z</time></trkpt><trkpt lat="45.76302033633825" lon="7.529974133205949"><ele>1014.5</ele><time>2026-05-02T12:32:08Z</time></trkpt><trkpt lat="45.76312612405486" lon="7.5298478518612075"><ele>1014.75</ele><time>2026-05-02T12:32:09Z</time></trkpt><trkpt lat="45.76317261872116" lon="7.529644052718036"><ele>1015.0</ele><time>2026-05-02T12:32:10Z</time></trkpt><trkpt lat="45.763229211889396" lon="7.529437425113032"><ele>1013.5</ele><time>2026-05-02T12:32:11Z</time></trkpt><trkpt lat="45.7632764808432" lon="7.529222612103194"><ele>1012.0</ele><time>2026-05-02T12:32:12Z</time></trkpt><trkpt lat="45.763315520657116" lon="7.5290269821023115"><ele>1010.5</ele><time>2026-05-02T12:32:13Z</time></trkpt><trkpt lat="45.763357530910824" lon="7.52884068468547"><ele>1009.0</ele><time>2026-05-02T12:32:14Z</time></trkpt><trkpt lat="45.763414583001094" lon="7.52866414518509"><ele>1008.2</ele><time>2026-05-02T12:32:15Z</time></trkpt><trkpt lat="45.76344320386411" lon="7.528493757651207"><ele>1007.4000000000001</ele><time>2026-05-02T12:32:16Z</time></trkpt><trkpt lat="45.76349137118728" lon="7.528347041188381"><ele>1006.6</ele><time>2026-05-02T12:32:17Z</time></trkpt><trkpt lat="45.76355162997605" lon="7.528220165608157"><ele>1005.8</ele><time>2026-05-02T12:32:18Z</time></trkpt><trkpt lat="45.76360003783772" lon="7.5281122581174555"><ele>1005.0</ele><time>2026-05-02T12:32:19Z</time></trkpt><trkpt lat="45.76362581235882" lon="7.528001797671278"><ele>1007.6</ele><time>2026-05-02T12:32:20Z</time></trkpt><trkpt lat="45.763630854925154" lon="7.5278967194131425"><ele>1010.2</ele><time>2026-05-02T12:32:21Z</time></trkpt><trkpt lat="45.763579442822234" lon="7.527788311910282"><ele>1012.8</ele><time>2026-05-02T12:32:22Z</time></trkpt><trkpt lat="45.76347876726283" lon="7.52773663700607"><ele>1015.4</ele><time>2026-05-02T12:32:23Z</time></trkpt><trkpt lat="45.763365354452205" lon="7.527762484520822"><ele>1018.0</ele><time>2026-05-02T12:32:24Z</time></trkpt><trkpt lat="45.76325348448753" lon="7.527773459019479"><ele>1018.0</ele><time>2026-05-02T12:32:25Z</time></trkpt><trkpt lat="45.763112737868745" lon="7.52778612556081"><ele>1018.0</ele><time>2026-05-02T12:32:26Z</time></trkpt><trkpt lat="45.76296883398747" lon="7.527814367077558"><ele>1018.0</ele><time>2026-05-02T12:32:27Z</time></trkpt><trkpt lat="45.76282889747267" lon="7.527824333941282"><ele>1018.0</ele><time>2026-05-02T12:32:28Z</time></trkpt><trkpt lat="45.76270787794446" lon="7.527812518840621"><ele>1013.0</ele><time>2026-05-02T12:32:29Z</time></trkpt><trkpt lat="45.76260850230575" lon="7.5277511618017945"><ele>1008.0</ele><time>2026-05-02T12:32:30Z</time></trkpt><trkpt lat="45.762520391726156" lon="7.527642166794846"><ele>1003.0</ele><time>2026-05-02T12:32:31Z</time></trkpt><trkpt lat="45.762424089016434" lon="7.527499749743585"><ele>998.0</ele><time>2026-05-02T12:32:32Z</time></trkpt><trkpt lat="45.762308916399554" lon="7.527353912181294"><ele>998.0</ele><time>2026-05-02T12:32:33Z</time></trkpt><trkpt lat="45.762186678316716" lon="7.527197927870643"><ele>998.0</ele><time>2026-05-02T12:32:34Z</time></trkpt><trkpt lat="45.7620592720379" lon="7.527039196706108"><ele>998.0</ele><time>2026-05-02T12:32:35Z</time></trkpt><trkpt lat="45.761938177392544" lon="7.5268939443001575"><ele>996.2</ele><time>2026-05-02T12:32:36Z</time></trkpt><trkpt lat="45.76183811386859" lon="7.526776883372837"><ele>994.4</ele><time>2026-05-02T12:32:37Z</time></trkpt><trkpt lat="45.7617665481417" lon="7.5266585139322375"><ele>992.6000000000001</ele><time>2026-05-02T12:32:38Z</time></trkpt><trkpt lat="45.76173626044905" lon="7.526540983070972"><ele>990.8000000000001</ele><time>2026-05-02T12:32:39Z</time></trkpt><trkpt lat="45.761756158808296" lon="7.52642798595726"><ele>989.0</ele><time>2026-05-02T12:32:40Z</time></trkpt><trkpt lat="45.76182496274097" lon="7.5263157709470505"><ele>992.5</ele><time>2026-05-02T12:32:41Z</time></trkpt><trkpt lat="45.76193239118495" lon="7.526205099071807"><ele>996.0</ele><time>2026-05-02T12:32:42Z</time></trkpt><trkpt lat="45.76206700736262" lon="7.526117855615098"><ele>999.5</ele><time>2026-05-02T12:32:43Z</time></trkpt><trkpt lat="45.76218928605365" lon="7.526021393602126"><ele>1003.0</ele><time>2026-05-02T12:32:44Z</time></trkpt><trkpt lat="45.762274315155594" lon="7.525904195140406"><ele>1003.0</ele><time>2026-05-02T12:32:45Z</time></trkpt><trkpt lat="45.7623129304158" lon="7.525783855796934"><ele>1003.0</ele><time>2026-05-02T12:32:46Z</time></trkpt><trkpt lat="45.762323394070904" lon="7.5256405117762615"><ele>1003.0</ele><time>2026-05-02T12:32:47Z</time></trkpt><trkpt lat="45.762248572212265" lon="7.525480301294332"><ele>1003.0</ele><time>2026-05-02T12:32:48Z</time></trkpt><trkpt lat="45.76219173558774" lon="7.525318140484023"><ele>1003.4</ele><time>2026-05-02T12:32:49Z</time></trkpt><trkpt lat="45.762173895199766" lon="7.525140961635383"><ele>1003.8</ele><time>2026-05-02T12:32:50Z</time></trkpt><trkpt lat="45.76215715122526" lon="7.524988375457102"><ele>1004.2</ele><time>2026-05-02T12:32:51Z</time></trkpt><trkpt lat="45.76211066788299" lon="7.524878045440327"><ele>1004.6</ele><time>2026-05-02T12:32:52Z</time></trkpt><trkpt lat="45.76203198862608" lon="7.524828914529384"><ele>1005.0</ele><time>2026-05-02T12:32:53Z</time></trkpt><trkpt lat="45.76194240298767" lon="7.524841973550957"><ele>998.75</ele><time>2026-05-02T12:32:54Z</time></trkpt><trkpt lat="45.76184580844489" lon="7.524913321189985"><ele>992.5</ele><time>2026-05-02T12:32:55Z</time></trkpt><trkpt lat="45.76172932949975" lon="7.524968980832636"><ele>986.25</ele><time>2026-05-02T12:32:56Z</time></trkpt><trkpt lat="45.761579523170894" lon="7.524979389888921"><ele>980.0</ele><time>2026-05-02T12:32:57Z</time></trkpt><trkpt lat="45.761408766128596" lon="7.524987307570902"><ele>980.0</ele><time>2026-05-02T12:32:58Z</time></trkpt><trkpt lat="45.761249692118184" lon="7.5249991048276526"><ele>980.0</ele><time>2026-05-02T12:32:59Z</time></trkpt><trkpt lat="45.76110166216466" lon="7.525004073500075"><ele>980.0</ele><time>2026-05-02T12:33:00Z</time></trkpt><trkpt lat="45.76096048134539" lon="7.524971874954272"><ele>981.5</ele><time>2026-05-02T12:33:01Z</time></trkpt><trkpt lat="45.76083469492795" lon="7.524886439727546"><ele>983.0</ele><time>2026-05-02T12:33:02Z</time></trkpt><trkpt lat="45.76073523242791" lon="7.524734375653845"><ele>984.5</ele><time>2026-05-02T12:33:03Z</time></trkpt><trkpt lat="45.76061655336165" lon="7.524617608074351"><ele>986.0</ele><time>2026-05-02T12:33:04Z</time></trkpt><trkpt lat="45.76047230653983" lon="7.524504734021772"><ele>986.0</ele><time>2026-05-02T12:33:05Z</time></trkpt><trkpt lat="45.76031038762419" lon="7.52440253750827"><ele>986.0</ele><time>2026-05-02T12:33:06Z</time></trkpt><trkpt lat="45.760146411676125" lon="7.524303906149323"><ele>986.0</ele><time>2026-05-02T12:33:07Z</time></trkpt><trkpt lat="45.7599816748053" lon="7.524207112487059"><ele>977.0</ele><time>2026-05-02T12:33:08Z</time></trkpt><trkpt lat="45.759819247654974" lon="7.524116772129594"><ele>968.0</ele><time>2026-05-02T12:33:09Z</time></trkpt><trkpt lat="45.75967587694827" lon="7.524037971608233"><ele>959.0</ele><time>2026-05-02T12:33:10Z</time></trkpt><trkpt lat="45.75955450534056" lon="7.523969969629036"><ele>959.0</ele><time>2026-05-02T12:33:11Z</time></trkpt><trkpt lat="45.75946294619248" lon="7.523890362832512"><ele>959.0000000000001</ele><time>2026-05-02T12:33:12Z</time></trkpt><trkpt lat="45.75939596660049" lon="7.523780735374892"><ele>959.0000000000001</ele><time>2026-05-02T12:33:13Z</time></trkpt><trkpt lat="45.75936849364727" lon="7.5236479488180565"><ele>959.0</ele><time>2026-05-02T12:33:14Z</time></trkpt><trkpt lat="45.7594213969238" lon="7.5235114581133"><ele>959.0</ele><time>2026-05-02T12:33:15Z</time></trkpt><trkpt lat="45.759469655934986" lon="7.523352936012148"><ele>961.5</ele><time>2026-05-02T12:33:16Z</time></trkpt><trkpt lat="45.759511878175616" lon="7.523146507104349"><ele>964.0</ele><time>2026-05-02T12:33:17Z</time></trkpt><trkpt lat="45.75950994735532" lon="7.522934496721282"><ele>966.5</ele><time>2026-05-02T12:33:18Z</time></trkpt><trkpt lat="45.759513943736415" lon="7.522751878921193"><ele>969.0</ele><time>2026-05-02T12:33:19Z</time></trkpt><trkpt lat="45.75945198699554" lon="7.5225928280212395"><ele>960.25</ele><time>2026-05-02T12:33:20Z</time></trkpt><trkpt lat="45.759336875504516" lon="7.522483125761375"><ele>951.5</ele><time>2026-05-02T12:33:21Z</time></trkpt><trkpt lat="45.75922887212369" lon="7.522371464255396"><ele>942.75</ele><time>2026-05-02T12:33:22Z</time></trkpt><trkpt lat="45.75914372153989" lon="7.522219461364286"><ele>934.0</ele><time>2026-05-02T12:33:23Z</time></trkpt><trkpt lat="45.75908895426621" lon="7.522024944696899"><ele>933.75</ele><time>2026-05-02T12:33:24Z</time></trkpt><trkpt lat="45.75904517570622" lon="7.521824714876236"><ele>933.5</ele><time>2026-05-02T12:33:25Z</time></trkpt><trkpt lat="45.759015262857126" lon="7.521640731167172"><ele>933.25</ele><time>2026-05-02T12:33:26Z</time></trkpt><trkpt lat="45.75903163076179" lon="7.5214651911965404"><ele>933.0</ele><time>2026-05-02T12:33:27Z</time></trkpt><trkpt lat="45.759090597182876" lon="7.521297722686423"><ele>932.0</ele><time>2026-05-02T12:33:28Z</time></trkpt><trkpt lat="45.759124811413415" lon="7.521110025496284"><ele>931.0</ele><time>2026-05-02T12:33:29Z</time></trkpt><trkpt lat="45.75908796724259" lon="7.5209102158938945"><ele>930.0</ele><time>2026-05-02T12:33:30Z</time></trkpt><trkpt lat="45.75907087466162" lon="7.520723067616733"><ele>929.0</ele><time>2026-05-02T12:33:31Z</time></trkpt><trkpt lat="45.75908212388568" lon="7.52053524564207"><ele>926.0</ele><time>2026-05-02T12:33:32Z</time></trkpt><trkpt lat="45.75911802673555" lon="7.520339351610804"><ele>923.0</ele><time>2026-05-02T12:33:33Z</time></trkpt><trkpt lat="45.75917598696516" lon="7.5201574068202826"><ele>920.0</ele><time>2026-05-02T12:33:34Z</time></trkpt><trkpt lat="45.75924845717382" lon="7.519992466680272"><ele>917.0</ele><time>2026-05-02T12:33:35Z</time></trkpt><trkpt lat="45.75931900631863" lon="7.519837108459249"><ele>915.8</ele><time>2026-05-02T12:33:36Z</time></trkpt><trkpt lat="45.75937519277718" lon="7.5196776371913865"><ele>914.6</ele><time>2026-05-02T12:33:37Z</time></trkpt><trkpt lat="45.75941714477717" lon="7.519519248810882"><ele>913.3999999999999</ele><time>2026-05-02T12:33:38Z</time></trkpt><trkpt lat="45.7594628282938" lon="7.519396536823177"><ele>912.1999999999999</ele><time>2026-05-02T12:33:39Z</time></trkpt><trkpt lat="45.75953277000728" lon="7.519306868548414"><ele>911.0</ele><time>2026-05-02T12:33:40Z</time></trkpt><trkpt lat="45.75962255007382" lon="7.519274091856699"><ele>911.0000000000001</ele><time>2026-05-02T12:33:41Z</time></trkpt><trkpt lat="45.759713928353555" lon="7.519262397465657"><ele>911.0</ele><time>2026-05-02T12:33:42Z</time></trkpt><trkpt lat="45.75981895357322" lon="7.519241759938215"><ele>911.0</ele><time>2026-05-02T12:33:43Z</time></trkpt><trkpt lat="45.75990640206631" lon="7.5192188964086295"><ele>911.0</ele><time>2026-05-02T12:33:44Z</time></trkpt><trkpt lat="45.75997982223419" lon="7.519206327648307"><ele>911.0000000000001</ele><time>2026-05-02T12:33:45Z</time></trkpt><trkpt lat="45.76004743412808" lon="7.519174757668991"><ele>911.0</ele><time>2026-05-02T12:33:46Z</time></trkpt><trkpt lat="45.75997405494462" lon="7.519010318388641"><ele>911.0</ele><time>2026-05-02T12:33:48Z</time></trkpt><trkpt lat="45.75985642342462" lon="7.518942509015633"><ele>910.9999999999999</ele><time>2026-05-02T12:33:50Z</time></trkpt><trkpt lat="45.75976390856848" lon="7.518912400221375"><ele>910.9999999999999</ele><time>2026-05-02T12:33:51Z</time></trkpt><trkpt lat="45.759676738372164" lon="7.518838002813073"><ele>911.0</ele><time>2026-05-02T12:33:52Z</time></trkpt><trkpt lat="45.75959200947784" lon="7.518767449837041"><ele>911.0</ele><time>2026-05-02T12:33:53Z</time></trkpt><trkpt lat="45.75950872278291" lon="7.518741303374131"><ele>911.0</ele><time>2026-05-02T12:33:54Z</time></trkpt><trkpt lat="45.759424024376116" lon="7.518764002187346"><ele>910.9999999999999</ele><time>2026-05-02T12:33:55Z</time></trkpt><trkpt lat="45.759338076204806" lon="7.518815545148611"><ele>910.9999999999999</ele><time>2026-05-02T12:33:56Z</time></trkpt><trkpt lat="45.759241068571036" lon="7.518870201215503"><ele>911.0</ele><time>2026-05-02T12:33:57Z</time></trkpt><trkpt lat="45.75913090595437" lon="7.518951811229458"><ele>911.0</ele><time>2026-05-02T12:33:58Z</time></trkpt><trkpt lat="45.7590245486581" lon="7.51906397826367"><ele>908.25</ele><time>2026-05-02T12:33:59Z</time></trkpt><trkpt lat="45.758917239888284" lon="7.519180151619944"><ele>905.5</ele><time>2026-05-02T12:34:00Z</time></trkpt><trkpt lat="45.75878885759968" lon="7.519265945890088"><ele>902.75</ele><time>2026-05-02T12:34:01Z</time></trkpt><trkpt lat="45.758653906872446" lon="7.519315502672647"><ele>900.0</ele><time>2026-05-02T12:34:02Z</time></trkpt><trkpt lat="45.75852890320052" lon="7.519427391767854"><ele>898.0</ele><time>2026-05-02T12:34:03Z</time></trkpt><trkpt lat="45.75840669519135" lon="7.519530060887159"><ele>896.0</ele><time>2026-05-02T12:34:04Z</time></trkpt><trkpt lat="45.75828826980733" lon="7.519632591479175"><ele>894.0</ele><time>2026-05-02T12:34:05Z</time></trkpt><trkpt lat="45.75816909386671" lon="7.519724889786193"><ele>892.0</ele><time>2026-05-02T12:34:06Z</time></trkpt><trkpt lat="45.758052933300924" lon="7.519817014134628"><ele>892.0</ele><time>2026-05-02T12:34:07Z</time></trkpt><trkpt lat="45.757940285942766" lon="7.519906889337214"><ele>892.0</ele><time>2026-05-02T12:34:08Z</time></trkpt><trkpt lat="45.75782926727044" lon="7.519996717383842"><ele>892.0</ele><time>2026-05-02T12:34:09Z</time></trkpt><trkpt lat="45.75772038102665" lon="7.520078919468992"><ele>892.0</ele><time>2026-05-02T12:34:10Z</time></trkpt><trkpt lat="45.7576170696557" lon="7.520159554570881"><ele>886.75</ele><time>2026-05-02T12:34:11Z</time></trkpt><trkpt lat="45.75751278762181" lon="7.520241410554424"><ele>881.5</ele><time>2026-05-02T12:34:12Z</time></trkpt><trkpt lat="45.75744153339141" lon="7.520383941196721"><ele>876.25</ele><time>2026-05-02T12:34:13Z</time></trkpt><trkpt lat="45.757419760187375" lon="7.520561437504985"><ele>871.0</ele><time>2026-05-02T12:34:14Z</time></trkpt><trkpt lat="45.75740398495283" lon="7.520737141548109"><ele>870.75</ele><time>2026-05-02T12:34:15Z</time></trkpt><trkpt lat="45.75739132867627" lon="7.520901525534926"><ele>870.5</ele><time>2026-05-02T12:34:16Z</time></trkpt><trkpt lat="45.75739024396415" lon="7.521052705503718"><ele>870.25</ele><time>2026-05-02T12:34:17Z</time></trkpt><trkpt lat="45.75741401728421" lon="7.521201645951366"><ele>870.0</ele><time>2026-05-02T12:34:18Z</time></trkpt><trkpt lat="45.75751032905903" lon="7.521315010489052"><ele>869.4</ele><time>2026-05-02T12:34:19Z</time></trkpt><trkpt lat="45.757588527641964" lon="7.521424395237646"><ele>868.8</ele><time>2026-05-02T12:34:20Z</time></trkpt><trkpt lat="45.75763466021927" lon="7.521555830826793"><ele>868.2</ele><time>2026-05-02T12:34:21Z</time></trkpt><trkpt lat="45.75764842840435" lon="7.521704935288802"><ele>867.6</ele><time>2026-05-02T12:34:22Z</time></trkpt><trkpt lat="45.75762653674076" lon="7.521845284557107"><ele>867.0</ele><time>2026-05-02T12:34:23Z</time></trkpt><trkpt lat="45.75757012196441" lon="7.52195652689185"><ele>867.0</ele><time>2026-05-02T12:34:24Z</time></trkpt><trkpt lat="45.757465333102" lon="7.5220400003542345"><ele>867.0</ele><time>2026-05-02T12:34:25Z</time></trkpt><trkpt lat="45.75734902445529" lon="7.522135034764752"><ele>867.0</ele><time>2026-05-02T12:34:26Z</time></trkpt><trkpt lat="45.757215105306955" lon="7.522251420467975"><ele>867.0</ele><time>2026-05-02T12:34:27Z</time></trkpt><trkpt lat="45.75710444741654" lon="7.522395235002828"><ele>868.75</ele><time>2026-05-02T12:34:28Z</time></trkpt><trkpt lat="45.75701151780013" lon="7.522547344540636"><ele>870.5</ele><time>2026-05-02T12:34:29Z</time></trkpt><trkpt lat="45.75692844699062" lon="7.52268679404252"><ele>872.25</ele><time>2026-05-02T12:34:30Z</time></trkpt><trkpt lat="45.7568630234072" lon="7.522808578595488"><ele>874.0</ele><time>2026-05-02T12:34:31Z</time></trkpt><trkpt lat="45.75679611425994" lon="7.522883769279964"><ele>868.9999999999999</ele><time>2026-05-02T12:34:32Z</time></trkpt><trkpt lat="45.756729447182174" lon="7.5229025999168195"><ele>864.0</ele><time>2026-05-02T12:34:33Z</time></trkpt><trkpt lat="45.756679235450235" lon="7.522843329527144"><ele>859.0</ele><time>2026-05-02T12:34:34Z</time></trkpt><trkpt lat="45.75666027654178" lon="7.5227215269985654"><ele>854.0</ele><time>2026-05-02T12:34:35Z</time></trkpt><trkpt lat="45.7566645013362" lon="7.522589712167119"><ele>848.9999999999999</ele><time>2026-05-02T12:34:36Z</time></trkpt><trkpt lat="45.75665900001113" lon="7.522443321718235"><ele>844.0</ele><time>2026-05-02T12:34:37Z</time></trkpt><trkpt lat="45.756666133477125" lon="7.522262770384959"><ele>844.0</ele><time>2026-05-02T12:34:38Z</time></trkpt><trkpt lat="45.75667170989136" lon="7.522075920681414"><ele>844.0</ele><time>2026-05-02T12:34:39Z</time></trkpt><trkpt lat="45.756691793370905" lon="7.521883944311677"><ele>844.0</ele><time>2026-05-02T12:34:40Z</time></trkpt><trkpt lat="45.756713199858716" lon="7.521697421720191"><ele>844.0</ele><time>2026-05-02T12:34:41Z</time></trkpt><trkpt lat="45.75671524332013" lon="7.521516421444368"><ele>844.0</ele><time>2026-05-02T12:34:42Z</time></trkpt><trkpt lat="45.75669546875681" lon="7.5213355731975025"><ele>844.0</ele><time>2026-05-02T12:34:43Z</time></trkpt><trkpt lat="45.75661003224321" lon="7.521196527070469"><ele>844.0</ele><time>2026-05-02T12:34:44Z</time></trkpt><trkpt lat="45.756528511400184" lon="7.521055885216087"><ele>844.0</ele><time>2026-05-02T12:34:45Z</time></trkpt><trkpt lat="45.75643945844611" lon="7.520917584822086"><ele>844.0</ele><time>2026-05-02T12:34:46Z</time></trkpt><trkpt lat="45.75635935787243" lon="7.520786736095116"><ele>844.0</ele><time>2026-05-02T12:34:47Z</time></trkpt><trkpt lat="45.75630463408347" lon="7.520643933375145"><ele>844.0</ele><time>2026-05-02T12:34:48Z</time></trkpt><trkpt lat="45.75629731663898" lon="7.520480988999081"><ele>844.0</ele><time>2026-05-02T12:34:49Z</time></trkpt><trkpt lat="45.75632077920524" lon="7.520312733721723"><ele>844.5</ele><time>2026-05-02T12:34:50Z</time></trkpt><trkpt lat="45.75633617797151" lon="7.5201379641678585"><ele>845.0</ele><time>2026-05-02T12:34:51Z</time></trkpt><trkpt lat="45.75626340180366" lon="7.519966101390813"><ele>845.5</ele><time>2026-05-02T12:34:52Z</time></trkpt><trkpt lat="45.75619867507902" lon="7.519815158830823"><ele>846.0</ele><time>2026-05-02T12:34:53Z</time></trkpt><trkpt lat="45.75614871937101" lon="7.5196598284565965"><ele>842.75</ele><time>2026-05-02T12:34:54Z</time></trkpt><trkpt lat="45.75613330519104" lon="7.519479287016316"><ele>839.5</ele><time>2026-05-02T12:34:55Z</time></trkpt><trkpt lat="45.75612483828564" lon="7.519301534193905"><ele>836.25</ele><time>2026-05-02T12:34:56Z</time></trkpt><trkpt lat="45.75611709226319" lon="7.519141156325893"><ele>833.0</ele><time>2026-05-02T12:34:57Z</time></trkpt><trkpt lat="45.75612020604735" lon="7.518985110569048"><ele>833.0</ele><time>2026-05-02T12:34:58Z</time></trkpt><trkpt lat="45.75614925628199" lon="7.518836445358922"><ele>833.0</ele><time>2026-05-02T12:34:59Z</time></trkpt><trkpt lat="45.75620697736958" lon="7.518702812670165"><ele>833.0</ele><time>2026-05-02T12:35:00Z</time></trkpt><trkpt lat="45.75629474631308" lon="7.518620305828983"><ele>833.0</ele><time>2026-05-02T12:35:01Z</time></trkpt><trkpt lat="45.75639627227153" lon="7.518593291192886"><ele>833.0</ele><time>2026-05-02T12:35:02Z</time></trkpt><trkpt lat="45.75650906057305" lon="7.518614789839007"><ele>830.25</ele><time>2026-05-02T12:35:03Z</time></trkpt><trkpt lat="45.756633241858246" lon="7.518644344557553"><ele>827.5</ele><time>2026-05-02T12:35:04Z</time></trkpt><trkpt lat="45.75676228862215" lon="7.5186604174999045"><ele>824.75</ele><time>2026-05-02T12:35:05Z</time></trkpt><trkpt lat="45.75689126123387" lon="7.518668580334682"><ele>822.0</ele><time>2026-05-02T12:35:06Z</time></trkpt><trkpt lat="45.75700617841335" lon="7.51866108598623"><ele>822.0</ele><time>2026-05-02T12:35:07Z</time></trkpt><trkpt lat="45.757109000344805" lon="7.518584661311629"><ele>822.0</ele><time>2026-05-02T12:35:08Z</time></trkpt><trkpt lat="45.757190514661005" lon="7.51843782598267"><ele>822.0</ele><time>2026-05-02T12:35:09Z</time></trkpt><trkpt lat="45.757261836592605" lon="7.518299192811176"><ele>822.0</ele><time>2026-05-02T12:35:10Z</time></trkpt><trkpt lat="45.75732604333526" lon="7.518148783490118"><ele>822.0</ele><time>2026-05-02T12:35:11Z</time></trkpt><trkpt lat="45.75734217362914" lon="7.517984797724363"><ele>822.0</ele><time>2026-05-02T12:35:12Z</time></trkpt><trkpt lat="45.7573070652594" lon="7.517817294068885"><ele>822.0</ele><time>2026-05-02T12:35:13Z</time></trkpt><trkpt lat="45.75724104208271" lon="7.5176672041589345"><ele>822.0</ele><time>2026-05-02T12:35:14Z</time></trkpt><trkpt lat="45.757139106114835" lon="7.517555142859683"><ele>821.25</ele><time>2026-05-02T12:35:15Z</time></trkpt><trkpt lat="45.757043763580725" lon="7.5174349548677055"><ele>820.5</ele><time>2026-05-02T12:35:16Z</time></trkpt><trkpt lat="45.75693290451071" lon="7.517308127967352"><ele>819.75</ele><time>2026-05-02T12:35:17Z</time></trkpt><trkpt lat="45.756832209985724" lon="7.517178763653786"><ele>819.0</ele><time>2026-05-02T12:35:18Z</time></trkpt><trkpt lat="45.75671989588934" lon="7.517068102703338"><ele>814.6</ele><time>2026-05-02T12:35:19Z</time></trkpt><trkpt lat="45.75661360568269" lon="7.516971859407119"><ele>810.2</ele><time>2026-05-02T12:35:20Z</time></trkpt><trkpt lat="45.75652848667549" lon="7.516872036651703"><ele>805.8000000000001</ele><time>2026-05-02T12:35:21Z</time></trkpt><trkpt lat="45.75648658702827" lon="7.516759247209415"><ele>801.4000000000001</ele><time>2026-05-02T12:35:22Z</time></trkpt><trkpt lat="45.756489206711386" lon="7.51663027247012"><ele>797.0</ele><time>2026-05-02T12:35:23Z</time></trkpt><trkpt lat="45.756537801033794" lon="7.516521485926256"><ele>797.0</ele><time>2026-05-02T12:35:24Z</time></trkpt><trkpt lat="45.75660873641217" lon="7.516414133696736"><ele>797.0</ele><time>2026-05-02T12:35:25Z</time></trkpt><trkpt lat="45.75668397683096" lon="7.516309024995901"><ele>797.0</ele><time>2026-05-02T12:35:26Z</time></trkpt><trkpt lat="45.75675784672284" lon="7.516200718629244"><ele>797.0</ele><time>2026-05-02T12:35:27Z</time></trkpt><trkpt lat="45.75680672582313" lon="7.516092229978193"><ele>797.0</ele><time>2026-05-02T12:35:28Z</time></trkpt><trkpt lat="45.756826317712495" lon="7.5159908962488515"><ele>797.2</ele><time>2026-05-02T12:35:29Z</time></trkpt><trkpt lat="45.75680801869625" lon="7.515897843497446"><ele>797.4000000000001</ele><time>2026-05-02T12:35:30Z</time></trkpt><trkpt lat="45.75676951406367" lon="7.515806434989008"><ele>797.5999999999999</ele><time>2026-05-02T12:35:31Z</time></trkpt><trkpt lat="45.75667363567476" lon="7.515797539046223"><ele>797.8</ele><time>2026-05-02T12:35:32Z</time></trkpt><trkpt lat="45.75657244982383" lon="7.515813300752143"><ele>798.0</ele><time>2026-05-02T12:35:33Z</time></trkpt><trkpt lat="45.75645142776709" lon="7.515834038182391"><ele>798.0</ele><time>2026-05-02T12:35:34Z</time></trkpt><trkpt lat="45.756322054153834" lon="7.515856210514565"><ele>798.0</ele><time>2026-05-02T12:35:35Z</time></trkpt><trkpt lat="45.75618974121321" lon="7.515877780831025"><ele>798.0</ele><time>2026-05-02T12:35:36Z</time></trkpt><trkpt lat="45.75605763079664" lon="7.515894659827038"><ele>798.0</ele><time>2026-05-02T12:35:37Z</time></trkpt><trkpt lat="45.75592628437483" lon="7.515897904803506"><ele>794.0</ele><time>2026-05-02T12:35:38Z</time></trkpt><trkpt lat="45.75579655584554" lon="7.515894944108887"><ele>790.0</ele><time>2026-05-02T12:35:39Z</time></trkpt><trkpt lat="45.75567034181894" lon="7.515889638752927"><ele>786.0</ele><time>2026-05-02T12:35:40Z</time></trkpt><trkpt lat="45.755542733155046" lon="7.515882479692022"><ele>782.0</ele><time>2026-05-02T12:35:41Z</time></trkpt><trkpt lat="45.75542306592754" lon="7.515841656916856"><ele>782.0</ele><time>2026-05-02T12:35:42Z</time></trkpt><trkpt lat="45.755311309688935" lon="7.5158131467788705"><ele>782.0</ele><time>2026-05-02T12:35:43Z</time></trkpt><trkpt lat="45.75521186579312" lon="7.5157494656504875"><ele>782.0</ele><time>2026-05-02T12:35:44Z</time></trkpt><trkpt lat="45.75513526332837" lon="7.515657344876421"><ele>782.0</ele><time>2026-05-02T12:35:45Z</time></trkpt><trkpt lat="45.7550816718311" lon="7.515540166983797"><ele>782.0</ele><time>2026-05-02T12:35:46Z</time></trkpt><trkpt lat="45.755051511483664" lon="7.515404315956998"><ele>778.8</ele><time>2026-05-02T12:35:47Z</time></trkpt><trkpt lat="45.75504912789826" lon="7.515252166465766"><ele>775.6</ele><time>2026-05-02T12:35:48Z</time></trkpt><trkpt lat="45.75505941647485" lon="7.515114067118402"><ele>772.4</ele><time>2026-05-02T12:35:49Z</time></trkpt><trkpt lat="45.75508449476151" lon="7.515009502576838"><ele>769.1999999999999</ele><time>2026-05-02T12:35:50Z</time></trkpt><trkpt lat="45.75509154182281" lon="7.51484202127352"><ele>766.0</ele><time>2026-05-02T12:35:52Z</time></trkpt><trkpt lat="45.75506915311341" lon="7.514745133174702"><ele>766.0</ele><time>2026-05-02T12:35:53Z</time></trkpt><trkpt lat="45.75505550641586" lon="7.514639034618862"><ele>766.0</ele><time>2026-05-02T12:35:54Z</time></trkpt><trkpt lat="45.7550319003679" lon="7.514521469249738"><ele>766.0</ele><time>2026-05-02T12:35:55Z</time></trkpt><trkpt lat="45.75500670361967" lon="7.514396879855404"><ele>766.0</ele><time>2026-05-02T12:35:56Z</time></trkpt><trkpt lat="45.75498487915827" lon="7.514280865395606"><ele>766.0</ele><time>2026-05-02T12:35:57Z</time></trkpt><trkpt lat="45.754964229027465" lon="7.514158549694669"><ele>766.0</ele><time>2026-05-02T12:35:58Z</time></trkpt><trkpt lat="45.75495843374664" lon="7.514023494659839"><ele>766.0</ele><time>2026-05-02T12:35:59Z</time></trkpt><trkpt lat="45.75498539727933" lon="7.513891736645833"><ele>766.0</ele><time>2026-05-02T12:36:00Z</time></trkpt><trkpt lat="45.755035865178534" lon="7.513778966017736"><ele>766.0</ele><time>2026-05-02T12:36:01Z</time></trkpt><trkpt lat="45.7551022990157" lon="7.513681269154595"><ele>766.0</ele><time>2026-05-02T12:36:02Z</time></trkpt><trkpt lat="45.755185866793894" lon="7.51360456137997"><ele>766.0</ele><time>2026-05-02T12:36:03Z</time></trkpt><trkpt lat="45.755278980841474" lon="7.513542873091899"><ele>767.8</ele><time>2026-05-02T12:36:04Z</time></trkpt><trkpt lat="45.75538285971219" lon="7.513474443828334"><ele>769.5999999999999</ele><time>2026-05-02T12:36:05Z</time></trkpt><trkpt lat="45.755491989842625" lon="7.51340115200783"><ele>771.4</ele><time>2026-05-02T12:36:06Z</time></trkpt><trkpt lat="45.75558925228384" lon="7.5133362928089005"><ele>773.2</ele><time>2026-05-02T12:36:07Z</time></trkpt><trkpt lat="45.755673706564956" lon="7.513278911620804"><ele>775.0</ele><time>2026-05-02T12:36:08Z</time></trkpt><trkpt lat="45.75574494160912" lon="7.513232203243713"><ele>774.9999999999999</ele><time>2026-05-02T12:36:09Z</time></trkpt><trkpt lat="45.75577849609521" lon="7.513134729630426"><ele>775.0</ele><time>2026-05-02T12:36:10Z</time></trkpt><trkpt lat="45.75573954881885" lon="7.5130239399766"><ele>775.0</ele><time>2026-05-02T12:36:11Z</time></trkpt><trkpt lat="45.75565747247025" lon="7.512987830150057"><ele>775.0</ele><time>2026-05-02T12:36:12Z</time></trkpt><trkpt lat="45.75557973454537" lon="7.5130502471349425"><ele>774.9999999999999</ele><time>2026-05-02T12:36:13Z</time></trkpt><trkpt lat="45.75548787973774" lon="7.51311391145066"><ele>775.0</ele><time>2026-05-02T12:36:14Z</time></trkpt><trkpt lat="45.755392646628316" lon="7.513177643544835"><ele>775.0</ele><time>2026-05-02T12:36:15Z</time></trkpt><trkpt lat="45.75529232012425" lon="7.5132255619033135"><ele>775.0</ele><time>2026-05-02T12:36:16Z</time></trkpt><trkpt lat="45.755201236070484" lon="7.513248270531578"><ele>775.0</ele><time>2026-05-02T12:36:17Z</time></trkpt><trkpt lat="45.755120941648386" lon="7.513248798896677"><ele>775.0</ele><time>2026-05-02T12:36:18Z</time></trkpt><trkpt lat="45.75505369993696" lon="7.513198836645674"><ele>775.0</ele><time>2026-05-02T12:36:19Z</time></trkpt><trkpt lat="45.75503699411559" lon="7.513058701136199"><ele>772.25</ele><time>2026-05-02T12:36:20Z</time></trkpt><trkpt lat="45.75498445857549" lon="7.5129499437574125"><ele>769.5</ele><time>2026-05-02T12:36:21Z</time></trkpt><trkpt lat="45.754892666991275" lon="7.512854897337196"><ele>766.75</ele><time>2026-05-02T12:36:22Z</time></trkpt><trkpt lat="45.75480212149304" lon="7.512731040520453"><ele>764.0</ele><time>2026-05-02T12:36:23Z</time></trkpt><trkpt lat="45.75469452466276" lon="7.512598145884422"><ele>764.0</ele><time>2026-05-02T12:36:24Z</time></trkpt><trkpt lat="45.75459244610758" lon="7.512469356619075"><ele>764.0</ele><time>2026-05-02T12:36:25Z</time></trkpt><trkpt lat="45.75449809545065" lon="7.512333314895341"><ele>764.0</ele><time>2026-05-02T12:36:26Z</time></trkpt><trkpt lat="45.75441137748408" lon="7.51220841289868"><ele>764.0</ele><time>2026-05-02T12:36:27Z</time></trkpt><trkpt lat="45.754349498114685" lon="7.512065536695352"><ele>758.0</ele><time>2026-05-02T12:36:28Z</time></trkpt><trkpt lat="45.754313049343374" lon="7.511902290872468"><ele>752.0</ele><time>2026-05-02T12:36:29Z</time></trkpt><trkpt lat="45.7543012396045" lon="7.511725954575535"><ele>746.0</ele><time>2026-05-02T12:36:30Z</time></trkpt><trkpt lat="45.75428533510232" lon="7.511559847171421"><ele>740.0</ele><time>2026-05-02T12:36:31Z</time></trkpt><trkpt lat="45.75424360805657" lon="7.511419069382483"><ele>740.0</ele><time>2026-05-02T12:36:32Z</time></trkpt><trkpt lat="45.75419849778524" lon="7.511288391833318"><ele>740.0</ele><time>2026-05-02T12:36:33Z</time></trkpt><trkpt lat="45.75409370081335" lon="7.5112203258796635"><ele>740.0</ele><time>2026-05-02T12:36:34Z</time></trkpt><trkpt lat="45.75396513827799" lon="7.511290533912328"><ele>740.0</ele><time>2026-05-02T12:36:35Z</time></trkpt><trkpt lat="45.75385056997666" lon="7.5112916452028555"><ele>739.0</ele><time>2026-05-02T12:36:36Z</time></trkpt><trkpt lat="45.75374178068513" lon="7.511227263669489"><ele>738.0</ele><time>2026-05-02T12:36:37Z</time></trkpt><trkpt lat="45.75364743602906" lon="7.511107076190772"><ele>737.0</ele><time>2026-05-02T12:36:38Z</time></trkpt><trkpt lat="45.75355769080046" lon="7.510987386528754"><ele>736.0</ele><time>2026-05-02T12:36:39Z</time></trkpt><trkpt lat="45.753444651149174" lon="7.51092586613715"><ele>736.0</ele><time>2026-05-02T12:36:40Z</time></trkpt><trkpt lat="45.75334076076459" lon="7.51088528025694"><ele>736.0</ele><time>2026-05-02T12:36:41Z</time></trkpt><trkpt lat="45.753247393683004" lon="7.5107905650384135"><ele>736.0</ele><time>2026-05-02T12:36:42Z</time></trkpt><trkpt lat="45.75316146044474" lon="7.510694668590915"><ele>736.0</ele><time>2026-05-02T12:36:43Z</time></trkpt><trkpt lat="45.75305898927785" lon="7.5106529368194295"><ele>736.0</ele><time>2026-05-02T12:36:44Z</time></trkpt><trkpt lat="45.75294743967927" lon="7.510661219638073"><ele>736.0</ele><time>2026-05-02T12:36:45Z</time></trkpt><trkpt lat="45.75283913691246" lon="7.510697908996888"><ele>736.0</ele><time>2026-05-02T12:36:46Z</time></trkpt><trkpt lat="45.75273160886379" lon="7.510710373455892"><ele>736.0</ele><time>2026-05-02T12:36:47Z</time></trkpt><trkpt lat="45.752627269423975" lon="7.510672100941084"><ele>736.0</ele><time>2026-05-02T12:36:48Z</time></trkpt><trkpt lat="45.75254650314751" lon="7.510606615331258"><ele>736.0</ele><time>2026-05-02T12:36:49Z</time></trkpt><trkpt lat="45.75250347638675" lon="7.510510331131033"><ele>732.5999999999999</ele><time>2026-05-02T12:36:50Z</time></trkpt><trkpt lat="45.752503288741664" lon="7.510387462227406"><ele>729.2</ele><time>2026-05-02T12:36:51Z</time></trkpt><trkpt lat="45.75253478005632" lon="7.510257581840534"><ele>725.8</ele><time>2026-05-02T12:36:52Z</time></trkpt><trkpt lat="45.75256806828437" lon="7.51010408696541"><ele>722.4000000000001</ele><time>2026-05-02T12:36:53Z</time></trkpt><trkpt lat="45.752610854071584" lon="7.509928556217539"><ele>719.0</ele><time>2026-05-02T12:36:54Z</time></trkpt><trkpt lat="45.752657164409214" lon="7.5097474747636115"><ele>722.25</ele><time>2026-05-02T12:36:55Z</time></trkpt><trkpt lat="45.75271376178102" lon="7.5095831978517795"><ele>725.5</ele><time>2026-05-02T12:36:56Z</time></trkpt><trkpt lat="45.75280350756839" lon="7.509479362323233"><ele>728.75</ele><time>2026-05-02T12:36:57Z</time></trkpt><trkpt lat="45.75289278929927" lon="7.5093836384761685"><ele>732.0</ele><time>2026-05-02T12:36:58Z</time></trkpt><trkpt lat="45.75293824773342" lon="7.5092587053635995"><ele>732.0</ele><time>2026-05-02T12:36:59Z</time></trkpt><trkpt lat="45.752956647968304" lon="7.509143792827275"><ele>732.0</ele><time>2026-05-02T12:37:00Z</time></trkpt><trkpt lat="45.75291738948226" lon="7.509032063842588"><ele>732.0</ele><time>2026-05-02T12:37:01Z</time></trkpt><trkpt lat="45.752834909788255" lon="7.5089647396423"><ele>732.0</ele><time>2026-05-02T12:37:02Z</time></trkpt><trkpt lat="45.75271982311497" lon="7.508982259800144"><ele>732.0</ele><time>2026-05-02T12:37:03Z</time></trkpt><trkpt lat="45.75263519284496" lon="7.509059397158655"><ele>732.4000000000001</ele><time>2026-05-02T12:37:04Z</time></trkpt><trkpt lat="45.7525312877853" lon="7.509065804973735"><ele>732.8000000000001</ele><time>2026-05-02T12:37:05Z</time></trkpt><trkpt lat="45.75242481726853" lon="7.509017350385014"><ele>733.2</ele><time>2026-05-02T12:37:06Z</time></trkpt><trkpt lat="45.75234596428463" lon="7.508926411283201"><ele>733.6</ele><time>2026-05-02T12:37:07Z</time></trkpt><trkpt lat="45.7523028434952" lon="7.508796301191382"><ele>734.0</ele><time>2026-05-02T12:37:08Z</time></trkpt><trkpt lat="45.75225759964386" lon="7.508657376360847"><ele>734.0</ele><time>2026-05-02T12:37:09Z</time></trkpt><trkpt lat="45.752181090805166" lon="7.508549727816974"><ele>734.0</ele><time>2026-05-02T12:37:10Z</time></trkpt><trkpt lat="45.752093402743554" lon="7.5084389080586895"><ele>734.0</ele><time>2026-05-02T12:37:11Z</time></trkpt><trkpt lat="45.751967735678186" lon="7.508406566008287"><ele>734.0</ele><time>2026-05-02T12:37:12Z</time></trkpt><trkpt lat="45.75185036408922" lon="7.508459353118154"><ele>730.0</ele><time>2026-05-02T12:37:13Z</time></trkpt><trkpt lat="45.7517378314334" lon="7.508506882477576"><ele>726.0</ele><time>2026-05-02T12:37:14Z</time></trkpt><trkpt lat="45.751616247827606" lon="7.508542220688453"><ele>722.0</ele><time>2026-05-02T12:37:15Z</time></trkpt><trkpt lat="45.75150087373477" lon="7.508568625187772"><ele>718.0</ele><time>2026-05-02T12:37:16Z</time></trkpt><trkpt lat="45.751400099570134" lon="7.508586129531048"><ele>718.0</ele><time>2026-05-02T12:37:17Z</time></trkpt><trkpt lat="45.751308691506" lon="7.508576600325871"><ele>718.0</ele><time>2026-05-02T12:37:18Z</time></trkpt><trkpt lat="45.75122240911647" lon="7.508521118499299"><ele>718.0</ele><time>2026-05-02T12:37:19Z</time></trkpt><trkpt lat="45.75115671756689" lon="7.508409060158214"><ele>718.0</ele><time>2026-05-02T12:37:20Z</time></trkpt><trkpt lat="45.751111554044634" lon="7.5082801190772175"><ele>718.0</ele><time>2026-05-02T12:37:21Z</time></trkpt><trkpt lat="45.75107824296264" lon="7.508139436311244"><ele>718.0</ele><time>2026-05-02T12:37:22Z</time></trkpt><trkpt lat="45.75105440437205" lon="7.50799847983739"><ele>718.0</ele><time>2026-05-02T12:37:23Z</time></trkpt><trkpt lat="45.751027843598855" lon="7.507865006822317"><ele>718.0</ele><time>2026-05-02T12:37:24Z</time></trkpt><trkpt lat="45.75100229373309" lon="7.507745193553349"><ele>718.0</ele><time>2026-05-02T12:37:25Z</time></trkpt><trkpt lat="45.75097546489041" lon="7.507626697961472"><ele>718.0</ele><time>2026-05-02T12:37:26Z</time></trkpt><trkpt lat="45.75094607860493" lon="7.507513308545068"><ele>716.4</ele><time>2026-05-02T12:37:27Z</time></trkpt><trkpt lat="45.75091792620243" lon="7.507390025887958"><ele>714.8</ele><time>2026-05-02T12:37:28Z</time></trkpt><trkpt lat="45.75089119619866" lon="7.507255989299572"><ele>713.2</ele><time>2026-05-02T12:37:29Z</time></trkpt><trkpt lat="45.75087345917435" lon="7.507107049672218"><ele>711.6</ele><time>2026-05-02T12:37:30Z</time></trkpt><trkpt lat="45.75086032450274" lon="7.506955573931245"><ele>710.0</ele><time>2026-05-02T12:37:31Z</time></trkpt><trkpt lat="45.750846928727654" lon="7.506816935008393"><ele>710.0</ele><time>2026-05-02T12:37:32Z</time></trkpt><trkpt lat="45.75082758277199" lon="7.506690715408047"><ele>710.0</ele><time>2026-05-02T12:37:33Z</time></trkpt><trkpt lat="45.75077790891958" lon="7.506590380329009"><ele>710.0</ele><time>2026-05-02T12:37:34Z</time></trkpt><trkpt lat="45.75070446531427" lon="7.506504755143164"><ele>710.0</ele><time>2026-05-02T12:37:35Z</time></trkpt><trkpt lat="45.75061670563558" lon="7.5064292327400235"><ele>710.0</ele><time>2026-05-02T12:37:36Z</time></trkpt><trkpt lat="45.75051514774978" lon="7.506379560533494"><ele>710.0</ele><time>2026-05-02T12:37:37Z</time></trkpt><trkpt lat="45.75041401188195" lon="7.506341294489677"><ele>710.0</ele><time>2026-05-02T12:37:38Z</time></trkpt><trkpt lat="45.75032604388076" lon="7.506292482098137"><ele>710.0</ele><time>2026-05-02T12:37:39Z</time></trkpt><trkpt lat="45.7502696852535" lon="7.506210378817629"><ele>710.0</ele><time>2026-05-02T12:37:40Z</time></trkpt><trkpt lat="45.750241268492516" lon="7.5060985586568325"><ele>710.0</ele><time>2026-05-02T12:37:41Z</time></trkpt><trkpt lat="45.75020428643071" lon="7.505964478973988"><ele>707.0</ele><time>2026-05-02T12:37:42Z</time></trkpt><trkpt lat="45.75016423105294" lon="7.505817798217122"><ele>704.0</ele><time>2026-05-02T12:37:43Z</time></trkpt><trkpt lat="45.750123927597556" lon="7.505666169202194"><ele>701.0</ele><time>2026-05-02T12:37:44Z</time></trkpt><trkpt lat="45.75010006587718" lon="7.505513149210694"><ele>698.0</ele><time>2026-05-02T12:37:45Z</time></trkpt><trkpt lat="45.75011091035556" lon="7.505368686388452"><ele>695.0</ele><time>2026-05-02T12:37:46Z</time></trkpt><trkpt lat="45.75015982358393" lon="7.5052539693924"><ele>695.0</ele><time>2026-05-02T12:37:47Z</time></trkpt><trkpt lat="45.75022758857578" lon="7.505169700109203"><ele>695.0</ele><time>2026-05-02T12:37:48Z</time></trkpt><trkpt lat="45.75027279843651" lon="7.5050777792400725"><ele>695.0</ele><time>2026-05-02T12:37:49Z</time></trkpt><trkpt lat="45.75030182406238" lon="7.504970025372233"><ele>695.0</ele><time>2026-05-02T12:37:50Z</time></trkpt><trkpt lat="45.75026239953446" lon="7.504837512162763"><ele>695.0</ele><time>2026-05-02T12:37:51Z</time></trkpt><trkpt lat="45.75018243275434" lon="7.504728856214191"><ele>695.0</ele><time>2026-05-02T12:37:52Z</time></trkpt><trkpt lat="45.75011586990838" lon="7.5046016048294355"><ele>695.0</ele><time>2026-05-02T12:37:53Z</time></trkpt><trkpt lat="45.75004705907535" lon="7.504470244796522"><ele>695.0</ele><time>2026-05-02T12:37:54Z</time></trkpt><trkpt lat="45.74997683663874" lon="7.504334673133677"><ele>695.0</ele><time>2026-05-02T12:37:55Z</time></trkpt><trkpt lat="45.74991353593635" lon="7.504198664259821"><ele>696.75</ele><time>2026-05-02T12:37:56Z</time></trkpt><trkpt lat="45.749867060135436" lon="7.504055340915481"><ele>698.5</ele><time>2026-05-02T12:37:57Z</time></trkpt><trkpt lat="45.74984038389754" lon="7.503896719986052"><ele>700.25</ele><time>2026-05-02T12:37:58Z</time></trkpt><trkpt lat="45.74982036217205" lon="7.503720595327374"><ele>702.0</ele><time>2026-05-02T12:37:59Z</time></trkpt><trkpt lat="45.74979909746765" lon="7.5035385949007285"><ele>703.75</ele><time>2026-05-02T12:38:00Z</time></trkpt><trkpt lat="45.749776754901106" lon="7.503345111658209"><ele>705.5</ele><time>2026-05-02T12:38:01Z</time></trkpt><trkpt lat="45.74975720975463" lon="7.503141748270661"><ele>707.25</ele><time>2026-05-02T12:38:02Z</time></trkpt><trkpt lat="45.749740949892754" lon="7.502941392944041"><ele>709.0</ele><time>2026-05-02T12:38:03Z</time></trkpt><trkpt lat="45.74974737753614" lon="7.502748579464202"><ele>710.75</ele><time>2026-05-02T12:38:04Z</time></trkpt><trkpt lat="45.74968799481222" lon="7.502579430194988"><ele>712.5</ele><time>2026-05-02T12:38:05Z</time></trkpt><trkpt lat="45.749648610075255" lon="7.50240249725657"><ele>714.25</ele><time>2026-05-02T12:38:06Z</time></trkpt><trkpt lat="45.74961799648427" lon="7.502216096799902"><ele>716.0</ele><time>2026-05-02T12:38:07Z</time></trkpt><trkpt lat="45.749603582031135" lon="7.5020151620844615"><ele>719.3333333333333</ele><time>2026-05-02T12:38:08Z</time></trkpt><trkpt lat="45.749591266508666" lon="7.5018076387975166"><ele>722.6666666666666</ele><time>2026-05-02T12:38:09Z</time></trkpt><trkpt lat="45.749593435338646" lon="7.501588523552569"><ele>726.0</ele><time>2026-05-02T12:38:10Z</time></trkpt><trkpt lat="45.74958337916862" lon="7.501362484027481"><ele>727.6666666666666</ele><time>2026-05-02T12:38:11Z</time></trkpt><trkpt lat="45.74957584984792" lon="7.501133449048987"><ele>729.3333333333333</ele><time>2026-05-02T12:38:12Z</time></trkpt><trkpt lat="45.74957335441136" lon="7.500900271225521"><ele>731.0</ele><time>2026-05-02T12:38:13Z</time></trkpt><trkpt lat="45.74956310935084" lon="7.50066787457716"><ele>731.0</ele><time>2026-05-02T12:38:14Z</time></trkpt><trkpt lat="45.749564195390434" lon="7.500433650426672"><ele>731.0</ele><time>2026-05-02T12:38:15Z</time></trkpt><trkpt lat="45.74956257607059" lon="7.500207656129534"><ele>731.0</ele><time>2026-05-02T12:38:16Z</time></trkpt><trkpt lat="45.74955383242671" lon="7.499983298718949"><ele>731.3333333333333</ele><time>2026-05-02T12:38:17Z</time></trkpt><trkpt lat="45.74953301736224" lon="7.499760185014367"><ele>731.6666666666666</ele><time>2026-05-02T12:38:18Z</time></trkpt><trkpt lat="45.74950517720591" lon="7.4995404471346845"><ele>732.0</ele><time>2026-05-02T12:38:19Z</time></trkpt><trkpt lat="45.74947252325044" lon="7.499329304840636"><ele>730.0</ele><time>2026-05-02T12:38:20Z</time></trkpt><trkpt lat="45.74944195850307" lon="7.499117938675316"><ele>728.0</ele><time>2026-05-02T12:38:21Z</time></trkpt><trkpt lat="45.749425842722495" lon="7.4989032971364225"><ele>726.0</ele><time>2026-05-02T12:38:22Z</time></trkpt><trkpt lat="45.749420953515866" lon="7.498683944525749"><ele>725.3333333333334</ele><time>2026-05-02T12:38:23Z</time></trkpt><trkpt lat="45.749419637976274" lon="7.49846147507699"><ele>724.6666666666667</ele><time>2026-05-02T12:38:24Z</time></trkpt><trkpt lat="45.74943281982433" lon="7.498234040351949"><ele>724.0</ele><time>2026-05-02T12:38:25Z</time></trkpt><trkpt lat="45.74942670292576" lon="7.4980048418474805"><ele>724.0</ele><time>2026-05-02T12:38:26Z</time></trkpt><trkpt lat="45.74942640683004" lon="7.497777361878821"><ele>724.0</ele><time>2026-05-02T12:38:27Z</time></trkpt><trkpt lat="45.74943456210103" lon="7.497545241541024"><ele>724.0</ele><time>2026-05-02T12:38:28Z</time></trkpt><trkpt lat="45.749393586646065" lon="7.497318565237293"><ele>712.3333333333334</ele><time>2026-05-02T12:38:29Z</time></trkpt><trkpt lat="45.74935495193133" lon="7.497086539404055"><ele>700.6666666666666</ele><time>2026-05-02T12:38:30Z</time></trkpt><trkpt lat="45.749319269552" lon="7.496855828181576"><ele>689.0</ele><time>2026-05-02T12:38:31Z</time></trkpt><trkpt lat="45.74928842424409" lon="7.496622091940326"><ele>689.0</ele><time>2026-05-02T12:38:32Z</time></trkpt><trkpt lat="45.74926275383896" lon="7.496386514542384"><ele>689.0</ele><time>2026-05-02T12:38:33Z</time></trkpt><trkpt lat="45.74923910712021" lon="7.496151489131598"><ele>689.0</ele><time>2026-05-02T12:38:34Z</time></trkpt><trkpt lat="45.74921733995807" lon="7.4959237213547825"><ele>687.6666666666666</ele><time>2026-05-02T12:38:35Z</time></trkpt><trkpt lat="45.74920320416398" lon="7.495703480611154"><ele>686.3333333333334</ele><time>2026-05-02T12:38:36Z</time></trkpt><trkpt lat="45.74920244506811" lon="7.495485462576744"><ele>685.0</ele><time>2026-05-02T12:38:37Z</time></trkpt><trkpt lat="45.74923221186509" lon="7.495263308258994"><ele>682.0</ele><time>2026-05-02T12:38:38Z</time></trkpt><trkpt lat="45.749276206362026" lon="7.495040618628219"><ele>679.0</ele><time>2026-05-02T12:38:39Z</time></trkpt><trkpt lat="45.74932303028845" lon="7.494823771580104"><ele>676.0</ele><time>2026-05-02T12:38:40Z</time></trkpt><trkpt lat="45.7493780196551" lon="7.494621898745581"><ele>684.3333333333334</ele><time>2026-05-02T12:38:41Z</time></trkpt><trkpt lat="45.749448524344565" lon="7.494435359227049"><ele>692.6666666666666</ele><time>2026-05-02T12:38:42Z</time></trkpt><trkpt lat="45.749533235986036" lon="7.494243136325063"><ele>701.0</ele><time>2026-05-02T12:38:43Z</time></trkpt><trkpt lat="45.749617115374775" lon="7.494046553362998"><ele>701.0</ele><time>2026-05-02T12:38:44Z</time></trkpt><trkpt lat="45.74970022444399" lon="7.493850355331746"><ele>701.0</ele><time>2026-05-02T12:38:45Z</time></trkpt><trkpt lat="45.74979853146765" lon="7.493663506900227"><ele>701.0</ele><time>2026-05-02T12:38:46Z</time></trkpt><trkpt lat="45.74988600860585" lon="7.4934649623804885"><ele>698.0</ele><time>2026-05-02T12:38:47Z</time></trkpt><trkpt lat="45.7499534636245" lon="7.493261588629064"><ele>695.0</ele><time>2026-05-02T12:38:48Z</time></trkpt><trkpt lat="45.750015414080416" lon="7.493069459903071"><ele>692.0</ele><time>2026-05-02T12:38:49Z</time></trkpt><trkpt lat="45.75005082153308" lon="7.492870884856579"><ele>689.0</ele><time>2026-05-02T12:38:50Z</time></trkpt><trkpt lat="45.750092479062694" lon="7.4926821004624315"><ele>686.5</ele><time>2026-05-02T12:38:51Z</time></trkpt><trkpt lat="45.75007495647019" lon="7.492482657401825"><ele>684.0</ele><time>2026-05-02T12:38:52Z</time></trkpt><trkpt lat="45.75002132101929" lon="7.492314199513742"><ele>681.5</ele><time>2026-05-02T12:38:53Z</time></trkpt><trkpt lat="45.74998751223776" lon="7.492138193760849"><ele>679.0</ele><time>2026-05-02T12:38:54Z</time></trkpt><trkpt lat="45.749994477065876" lon="7.491957548462341"><ele>677.2</ele><time>2026-05-02T12:38:55Z</time></trkpt><trkpt lat="45.750011236789234" lon="7.4918010688541266"><ele>675.4000000000001</ele><time>2026-05-02T12:38:56Z</time></trkpt><trkpt lat="45.75005520269634" lon="7.491662287744131"><ele>673.6</ele><time>2026-05-02T12:38:57Z</time></trkpt><trkpt lat="45.750118761665" lon="7.491539632921305"><ele>671.8</ele><time>2026-05-02T12:38:58Z</time></trkpt><trkpt lat="45.750182141297415" lon="7.491404124302915"><ele>670.0</ele><time>2026-05-02T12:38:59Z</time></trkpt><trkpt lat="45.750212235322024" lon="7.491231202670304"><ele>668.2</ele><time>2026-05-02T12:39:00Z</time></trkpt><trkpt lat="45.750182549691964" lon="7.491065559706804"><ele>666.4</ele><time>2026-05-02T12:39:01Z</time></trkpt><trkpt lat="45.750193612818705" lon="7.490914435635972"><ele>664.5999999999999</ele><time>2026-05-02T12:39:02Z</time></trkpt><trkpt lat="45.75025449704432" lon="7.490789631962318"><ele>662.8</ele><time>2026-05-02T12:39:03Z</time></trkpt><trkpt lat="45.75029574293962" lon="7.490638314798064"><ele>661.0</ele><time>2026-05-02T12:39:04Z</time></trkpt><trkpt lat="45.75035596249601" lon="7.490493963869002"><ele>668.25</ele><time>2026-05-02T12:39:05Z</time></trkpt><trkpt lat="45.75039887352014" lon="7.490329482636384"><ele>675.5</ele><time>2026-05-02T12:39:06Z</time></trkpt><trkpt lat="45.75043672033311" lon="7.490154959411643"><ele>682.75</ele><time>2026-05-02T12:39:07Z</time></trkpt><trkpt lat="45.750404964404666" lon="7.489960326269475"><ele>690.0</ele><time>2026-05-02T12:39:08Z</time></trkpt><trkpt lat="45.75039052537999" lon="7.489776380531912"><ele>689.0</ele><time>2026-05-02T12:39:09Z</time></trkpt><trkpt lat="45.75039345934432" lon="7.48959046352416"><ele>688.0</ele><time>2026-05-02T12:39:10Z</time></trkpt><trkpt lat="45.750361926982166" lon="7.489401649247668"><ele>687.0</ele><time>2026-05-02T12:39:11Z</time></trkpt><trkpt lat="45.750359307027416" lon="7.489220386115825"><ele>686.0</ele><time>2026-05-02T12:39:12Z</time></trkpt><trkpt lat="45.7503750492601" lon="7.4890531549085955"><ele>686.0</ele><time>2026-05-02T12:39:13Z</time></trkpt><trkpt lat="45.75041897029147" lon="7.488889580224301"><ele>686.0</ele><time>2026-05-02T12:39:14Z</time></trkpt><trkpt lat="45.750468354054654" lon="7.488729798883008"><ele>686.0</ele><time>2026-05-02T12:39:15Z</time></trkpt><trkpt lat="45.750505715405424" lon="7.488563194115881"><ele>686.0</ele><time>2026-05-02T12:39:16Z</time></trkpt><trkpt lat="45.7505499171912" lon="7.4883977003774636"><ele>683.5</ele><time>2026-05-02T12:39:17Z</time></trkpt><trkpt lat="45.75055236341081" lon="7.488221835400337"><ele>681.0</ele><time>2026-05-02T12:39:18Z</time></trkpt><trkpt lat="45.750511629461315" lon="7.488047921710854"><ele>678.5</ele><time>2026-05-02T12:39:19Z</time></trkpt><trkpt lat="45.75046342823572" lon="7.487896834935093"><ele>676.0</ele><time>2026-05-02T12:39:20Z</time></trkpt><trkpt lat="45.75042504196531" lon="7.4877491523708555"><ele>674.75</ele><time>2026-05-02T12:39:21Z</time></trkpt><trkpt lat="45.75044723833125" lon="7.487593022575056"><ele>673.5</ele><time>2026-05-02T12:39:22Z</time></trkpt><trkpt lat="45.75049992135869" lon="7.487440490241373"><ele>672.25</ele><time>2026-05-02T12:39:23Z</time></trkpt><trkpt lat="45.75052198023066" lon="7.487267678791922"><ele>671.0</ele><time>2026-05-02T12:39:24Z</time></trkpt><trkpt lat="45.75050216274862" lon="7.4870996939163845"><ele>672.25</ele><time>2026-05-02T12:39:25Z</time></trkpt><trkpt lat="45.75046955263925" lon="7.486959079515263"><ele>673.5</ele><time>2026-05-02T12:39:26Z</time></trkpt><trkpt lat="45.75039605176902" lon="7.486821082646943"><ele>674.75</ele><time>2026-05-02T12:39:27Z</time></trkpt><trkpt lat="45.75034939372728" lon="7.486665083865368"><ele>676.0</ele><time>2026-05-02T12:39:28Z</time></trkpt><trkpt lat="45.75030432872568" lon="7.4865079720070105"><ele>676.0</ele><time>2026-05-02T12:39:29Z</time></trkpt><trkpt lat="45.750267432615665" lon="7.486349704584738"><ele>676.0</ele><time>2026-05-02T12:39:30Z</time></trkpt><trkpt lat="45.75023111537445" lon="7.48618762709628"><ele>676.0</ele><time>2026-05-02T12:39:31Z</time></trkpt><trkpt lat="45.750201939883794" lon="7.486029903725513"><ele>676.0</ele><time>2026-05-02T12:39:32Z</time></trkpt><trkpt lat="45.750205063439566" lon="7.485864240770299"><ele>678.4</ele><time>2026-05-02T12:39:33Z</time></trkpt><trkpt lat="45.75019348990105" lon="7.485703692272758"><ele>680.8</ele><time>2026-05-02T12:39:34Z</time></trkpt><trkpt lat="45.75019219393007" lon="7.485553293788671"><ele>683.1999999999999</ele><time>2026-05-02T12:39:35Z</time></trkpt><trkpt lat="45.75019789271515" lon="7.48541470056894"><ele>685.5999999999999</ele><time>2026-05-02T12:39:36Z</time></trkpt><trkpt lat="45.750209666822535" lon="7.485287921576746"><ele>688.0</ele><time>2026-05-02T12:39:37Z</time></trkpt><trkpt lat="45.750254130876534" lon="7.4851742267353565"><ele>688.0</ele><time>2026-05-02T12:39:38Z</time></trkpt><trkpt lat="45.75031949790433" lon="7.485065195814853"><ele>688.0</ele><time>2026-05-02T12:39:39Z</time></trkpt><trkpt lat="45.75034726055048" lon="7.484901514874642"><ele>688.0</ele><time>2026-05-02T12:39:40Z</time></trkpt><trkpt lat="45.75032353528571" lon="7.4847219317255735"><ele>688.0</ele><time>2026-05-02T12:39:41Z</time></trkpt><trkpt lat="45.750281435233134" lon="7.484563643944891"><ele>688.2</ele><time>2026-05-02T12:39:42Z</time></trkpt><trkpt lat="45.7502430026369" lon="7.484399608621655"><ele>688.4</ele><time>2026-05-02T12:39:43Z</time></trkpt><trkpt lat="45.75021351222192" lon="7.484245632010229"><ele>688.6</ele><time>2026-05-02T12:39:44Z</time></trkpt><trkpt lat="45.75019628955042" lon="7.484102285791116"><ele>688.8000000000001</ele><time>2026-05-02T12:39:45Z</time></trkpt><trkpt lat="45.750236510541825" lon="7.483954229846748"><ele>689.0</ele><time>2026-05-02T12:39:46Z</time></trkpt><trkpt lat="45.75028603395876" lon="7.483797528579097"><ele>689.6</ele><time>2026-05-02T12:39:47Z</time></trkpt><trkpt lat="45.75034005648853" lon="7.483641026925787"><ele>690.2</ele><time>2026-05-02T12:39:48Z</time></trkpt><trkpt lat="45.750385901824096" lon="7.483498808300752"><ele>690.8000000000001</ele><time>2026-05-02T12:39:49Z</time></trkpt><trkpt lat="45.75039634468023" lon="7.483363818381322"><ele>691.4000000000001</ele><time>2026-05-02T12:39:50Z</time></trkpt><trkpt lat="45.75037714041976" lon="7.483238293505326"><ele>692.0</ele><time>2026-05-02T12:39:51Z</time></trkpt><trkpt lat="45.750299654931226" lon="7.483113200424844"><ele>687.4000000000001</ele><time>2026-05-02T12:39:52Z</time></trkpt><trkpt lat="45.75017504287141" lon="7.483041199578891"><ele>682.8000000000001</ele><time>2026-05-02T12:39:53Z</time></trkpt><trkpt lat="45.750072179779565" lon="7.482975939196102"><ele>678.2</ele><time>2026-05-02T12:39:54Z</time></trkpt><trkpt lat="45.749992121825656" lon="7.482887123298293"><ele>673.6</ele><time>2026-05-02T12:39:55Z</time></trkpt><trkpt lat="45.74992577159954" lon="7.48279010750679"><ele>669.0</ele><time>2026-05-02T12:39:56Z</time></trkpt><trkpt lat="45.74988234337332" lon="7.482658204217398"><ele>669.0</ele><time>2026-05-02T12:39:57Z</time></trkpt><trkpt lat="45.74985781421284" lon="7.482494198159356"><ele>669.0</ele><time>2026-05-02T12:39:58Z</time></trkpt><trkpt lat="45.74981314948002" lon="7.482329403935276"><ele>669.0</ele><time>2026-05-02T12:39:59Z</time></trkpt><trkpt lat="45.74977571267656" lon="7.482159933734908"><ele>669.0</ele><time>2026-05-02T12:40:00Z</time></trkpt><trkpt lat="45.74975784117745" lon="7.481979578127646"><ele>670.25</ele><time>2026-05-02T12:40:01Z</time></trkpt><trkpt lat="45.74975963268808" lon="7.481798430238315"><ele>671.5</ele><time>2026-05-02T12:40:02Z</time></trkpt><trkpt lat="45.74976393826238" lon="7.481626411433533"><ele>672.75</ele><time>2026-05-02T12:40:03Z</time></trkpt><trkpt lat="45.74978580019072" lon="7.481465470167206"><ele>674.0</ele><time>2026-05-02T12:40:04Z</time></trkpt><trkpt lat="45.749844923214475" lon="7.48130997164651"><ele>673.75</ele><time>2026-05-02T12:40:05Z</time></trkpt><trkpt lat="45.749919551959906" lon="7.481159119791811"><ele>673.5</ele><time>2026-05-02T12:40:06Z</time></trkpt><trkpt lat="45.74999079657441" lon="7.4810089603777215"><ele>673.25</ele><time>2026-05-02T12:40:07Z</time></trkpt><trkpt lat="45.75005137519301" lon="7.480854285225203"><ele>673.0</ele><time>2026-05-02T12:40:08Z</time></trkpt><trkpt lat="45.750099307852324" lon="7.480689353277409"><ele>673.0</ele><time>2026-05-02T12:40:09Z</time></trkpt><trkpt lat="45.750083393331806" lon="7.480508417850371"><ele>673.0</ele><time>2026-05-02T12:40:10Z</time></trkpt><trkpt lat="45.75006244025543" lon="7.480324893906137"><ele>673.0</ele><time>2026-05-02T12:40:11Z</time></trkpt><trkpt lat="45.7500413086625" lon="7.480147076197485"><ele>673.0</ele><time>2026-05-02T12:40:12Z</time></trkpt><trkpt lat="45.750024782529444" lon="7.4799934132665475"><ele>673.4</ele><time>2026-05-02T12:40:13Z</time></trkpt><trkpt lat="45.75001122811589" lon="7.479844356357066"><ele>673.8</ele><time>2026-05-02T12:40:14Z</time></trkpt><trkpt lat="45.75000034628123" lon="7.479724323880751"><ele>674.2</ele><time>2026-05-02T12:40:15Z</time></trkpt><trkpt lat="45.74998819788926" lon="7.479580494302636"><ele>674.6</ele><time>2026-05-02T12:40:17Z</time></trkpt><trkpt lat="45.75004597171384" lon="7.4796571403285785"><ele>675.0</ele><time>2026-05-02T12:40:20Z</time></trkpt><trkpt lat="45.75005207590797" lon="7.479788388284277"><ele>675.0</ele><time>2026-05-02T12:40:21Z</time></trkpt><trkpt lat="45.75006899176298" lon="7.479933408923903"><ele>675.0</ele><time>2026-05-02T12:40:22Z</time></trkpt><trkpt lat="45.7501004970745" lon="7.48010284134567"><ele>675.0</ele><time>2026-05-02T12:40:23Z</time></trkpt><trkpt lat="45.75014277501422" lon="7.480305569743175"><ele>675.0</ele><time>2026-05-02T12:40:24Z</time></trkpt><trkpt lat="45.75019035245176" lon="7.48053130611904"><ele>689.6666666666666</ele><time>2026-05-02T12:40:25Z</time></trkpt><trkpt lat="45.75023683485832" lon="7.480781151231568"><ele>704.3333333333333</ele><time>2026-05-02T12:40:26Z</time></trkpt><trkpt lat="45.7502768150391" lon="7.481036177345659"><ele>719.0</ele><time>2026-05-02T12:40:27Z</time></trkpt><trkpt lat="45.750305725027914" lon="7.481261094167604"><ele>717.5</ele><time>2026-05-02T12:40:28Z</time></trkpt><trkpt lat="45.750330844698134" lon="7.481459260394372"><ele>716.0</ele><time>2026-05-02T12:40:29Z</time></trkpt><trkpt lat="45.75035648286349" lon="7.481630271627719"><ele>714.5</ele><time>2026-05-02T12:40:30Z</time></trkpt><trkpt lat="45.75037658847656" lon="7.481775142447933"><ele>713.0</ele><time>2026-05-02T12:40:31Z</time></trkpt><trkpt lat="45.75039219025553" lon="7.481893352241485"><ele>713.0</ele><time>2026-05-02T12:40:32Z</time></trkpt><trkpt lat="45.75043924122644" lon="7.481981234154558"><ele>713.0</ele><time>2026-05-02T12:40:33Z</time></trkpt><trkpt lat="45.75051082446981" lon="7.482003552856339"><ele>713.0</ele><time>2026-05-02T12:40:34Z</time></trkpt><trkpt lat="45.750586450098766" lon="7.481980928627714"><ele>713.0</ele><time>2026-05-02T12:40:35Z</time></trkpt><trkpt lat="45.75064274202215" lon="7.481875306386003"><ele>713.0</ele><time>2026-05-02T12:40:36Z</time></trkpt><trkpt lat="45.75063002695561" lon="7.48171001173048"><ele>713.0</ele><time>2026-05-02T12:40:37Z</time></trkpt><trkpt lat="45.75061767829428" lon="7.481567100326808"><ele>713.0</ele><time>2026-05-02T12:40:38Z</time></trkpt><trkpt lat="45.75060955420744" lon="7.481394860236081"><ele>713.0</ele><time>2026-05-02T12:40:39Z</time></trkpt><trkpt lat="45.750607741291184" lon="7.481201849769849"><ele>713.0</ele><time>2026-05-02T12:40:40Z</time></trkpt><trkpt lat="45.7505912693712" lon="7.480975205559363"><ele>713.0</ele><time>2026-05-02T12:40:41Z</time></trkpt><trkpt lat="45.75059316196308" lon="7.48073713112115"><ele>715.0</ele><time>2026-05-02T12:40:42Z</time></trkpt><trkpt lat="45.75057998949484" lon="7.480502271058758"><ele>717.0</ele><time>2026-05-02T12:40:43Z</time></trkpt><trkpt lat="45.750562472165434" lon="7.480276225539671"><ele>719.0</ele><time>2026-05-02T12:40:44Z</time></trkpt><trkpt lat="45.750552156644694" lon="7.480065418788807"><ele>720.0</ele><time>2026-05-02T12:40:45Z</time></trkpt><trkpt lat="45.75054803094204" lon="7.479863997042565"><ele>721.0</ele><time>2026-05-02T12:40:46Z</time></trkpt><trkpt lat="45.75054821831606" lon="7.479668389767083"><ele>722.0</ele><time>2026-05-02T12:40:47Z</time></trkpt><trkpt lat="45.750555628095434" lon="7.47947959473774"><ele>723.0</ele><time>2026-05-02T12:40:48Z</time></trkpt><trkpt lat="45.750578809472465" lon="7.479292683045647"><ele>723.25</ele><time>2026-05-02T12:40:49Z</time></trkpt><trkpt lat="45.75061504904982" lon="7.479099539899917"><ele>723.5</ele><time>2026-05-02T12:40:50Z</time></trkpt><trkpt lat="45.75065202796686" lon="7.47890487594935"><ele>723.75</ele><time>2026-05-02T12:40:51Z</time></trkpt><trkpt lat="45.75070203097235" lon="7.478714907153778"><ele>724.0</ele><time>2026-05-02T12:40:52Z</time></trkpt><trkpt lat="45.75071879528017" lon="7.4785301523594425"><ele>723.25</ele><time>2026-05-02T12:40:53Z</time></trkpt><trkpt lat="45.75075012016889" lon="7.4783617501846615"><ele>722.5</ele><time>2026-05-02T12:40:54Z</time></trkpt><trkpt lat="45.75078229293129" lon="7.478209791787164"><ele>721.75</ele><time>2026-05-02T12:40:55Z</time></trkpt><trkpt lat="45.750829767423575" lon="7.478070216202632"><ele>721.0</ele><time>2026-05-02T12:40:56Z</time></trkpt><trkpt lat="45.75089513950486" lon="7.477945552644136"><ele>720.5</ele><time>2026-05-02T12:40:57Z</time></trkpt><trkpt lat="45.75096466531695" lon="7.477817710980491"><ele>720.0</ele><time>2026-05-02T12:40:58Z</time></trkpt><trkpt lat="45.751031110736264" lon="7.477686470236685"><ele>719.5</ele><time>2026-05-02T12:40:59Z</time></trkpt><trkpt lat="45.75106611473365" lon="7.4775271601636515"><ele>719.0</ele><time>2026-05-02T12:41:00Z</time></trkpt><trkpt lat="45.751054763190815" lon="7.477354213366235"><ele>731.25</ele><time>2026-05-02T12:41:01Z</time></trkpt><trkpt lat="45.751087439610615" lon="7.477195100353679"><ele>743.5</ele><time>2026-05-02T12:41:02Z</time></trkpt><trkpt lat="45.75110645326924" lon="7.477024812494485"><ele>755.75</ele><time>2026-05-02T12:41:03Z</time></trkpt><trkpt lat="45.75113847281939" lon="7.4768587678244485"><ele>768.0</ele><time>2026-05-02T12:41:04Z</time></trkpt><trkpt lat="45.75116388107628" lon="7.47668571418051"><ele>769.0</ele><time>2026-05-02T12:41:05Z</time></trkpt><trkpt lat="45.7511799620999" lon="7.476512258911514"><ele>770.0</ele><time>2026-05-02T12:41:06Z</time></trkpt><trkpt lat="45.75118068189441" lon="7.476336084287746"><ele>771.0</ele><time>2026-05-02T12:41:07Z</time></trkpt><trkpt lat="45.75117152900623" lon="7.476170600818993"><ele>772.0</ele><time>2026-05-02T12:41:08Z</time></trkpt><trkpt lat="45.751158770347054" lon="7.476010678382289"><ele>774.25</ele><time>2026-05-02T12:41:09Z</time></trkpt><trkpt lat="45.75114660025219" lon="7.475851086451413"><ele>776.5</ele><time>2026-05-02T12:41:10Z</time></trkpt><trkpt lat="45.75112327253412" lon="7.475691611262289"><ele>778.75</ele><time>2026-05-02T12:41:11Z</time></trkpt><trkpt lat="45.75107436547744" lon="7.475528717300689"><ele>781.0</ele><time>2026-05-02T12:41:12Z</time></trkpt><trkpt lat="45.75100228794049" lon="7.475362328197204"><ele>775.0</ele><time>2026-05-02T12:41:13Z</time></trkpt><trkpt lat="45.7509270055637" lon="7.475207280912842"><ele>769.0</ele><time>2026-05-02T12:41:14Z</time></trkpt><trkpt lat="45.75085739619999" lon="7.475059080379839"><ele>763.0</ele><time>2026-05-02T12:41:15Z</time></trkpt><trkpt lat="45.750789521129505" lon="7.474919079725888"><ele>757.0</ele><time>2026-05-02T12:41:16Z</time></trkpt><trkpt lat="45.750720443971886" lon="7.474783887685854"><ele>757.0</ele><time>2026-05-02T12:41:17Z</time></trkpt><trkpt lat="45.75065142391344" lon="7.47464767850838"><ele>757.0</ele><time>2026-05-02T12:41:18Z</time></trkpt><trkpt lat="45.750580688451" lon="7.4745158902234685"><ele>757.0</ele><time>2026-05-02T12:41:19Z</time></trkpt><trkpt lat="45.75050537482943" lon="7.4743790755210915"><ele>757.0</ele><time>2026-05-02T12:41:20Z</time></trkpt><trkpt lat="45.75043311697955" lon="7.47424133279872"><ele>761.8</ele><time>2026-05-02T12:41:21Z</time></trkpt><trkpt lat="45.75036676837087" lon="7.474120798339671"><ele>766.6</ele><time>2026-05-02T12:41:22Z</time></trkpt><trkpt lat="45.75031077575789" lon="7.473998422594065"><ele>771.4</ele><time>2026-05-02T12:41:23Z</time></trkpt><trkpt lat="45.75026488693191" lon="7.473881326966237"><ele>776.1999999999999</ele><time>2026-05-02T12:41:24Z</time></trkpt><trkpt lat="45.75023555892256" lon="7.473750863450326"><ele>781.0</ele><time>2026-05-02T12:41:25Z</time></trkpt><trkpt lat="45.75021096567788" lon="7.473623258810325"><ele>780.0</ele><time>2026-05-02T12:41:26Z</time></trkpt><trkpt lat="45.75018932619024" lon="7.473487240347209"><ele>779.0</ele><time>2026-05-02T12:41:27Z</time></trkpt><trkpt lat="45.750173972431135" lon="7.473341562291938"><ele>778.0</ele><time>2026-05-02T12:41:28Z</time></trkpt><trkpt lat="45.75015370509644" lon="7.473188072680457"><ele>777.0</ele><time>2026-05-02T12:41:29Z</time></trkpt><trkpt lat="45.75012046047659" lon="7.473016222373726"><ele>776.0</ele><time>2026-05-02T12:41:30Z</time></trkpt><trkpt lat="45.75005047787853" lon="7.472822695319993"><ele>776.0</ele><time>2026-05-02T12:41:31Z</time></trkpt><trkpt lat="45.74997294331089" lon="7.4725819501422786"><ele>776.0</ele><time>2026-05-02T12:41:32Z</time></trkpt><trkpt lat="45.74986414364846" lon="7.472362166331783"><ele>776.0</ele><time>2026-05-02T12:41:33Z</time></trkpt><trkpt lat="45.749780551488804" lon="7.472109033333658"><ele>781.25</ele><time>2026-05-02T12:41:34Z</time></trkpt><trkpt lat="45.749704936991954" lon="7.4719218618446686"><ele>786.5</ele><time>2026-05-02T12:41:35Z</time></trkpt><trkpt lat="45.749634066781766" lon="7.471755984122793"><ele>791.75</ele><time>2026-05-02T12:41:36Z</time></trkpt><trkpt lat="45.749588103905346" lon="7.47162225889453"><ele>797.0</ele><time>2026-05-02T12:41:37Z</time></trkpt><trkpt lat="45.74954860934627" lon="7.471482443668"><ele>797.0</ele><time>2026-05-02T12:41:38Z</time></trkpt><trkpt lat="45.74952821933714" lon="7.471335962496486"><ele>797.0</ele><time>2026-05-02T12:41:39Z</time></trkpt><trkpt lat="45.749506584842074" lon="7.471173434902335"><ele>797.0</ele><time>2026-05-02T12:41:40Z</time></trkpt><trkpt lat="45.74951124551531" lon="7.4709972606277155"><ele>797.0</ele><time>2026-05-02T12:41:41Z</time></trkpt><trkpt lat="45.749544693909385" lon="7.47083974756683"><ele>800.3333333333334</ele><time>2026-05-02T12:41:42Z</time></trkpt><trkpt lat="45.74958408737431" lon="7.470654511882095"><ele>803.6666666666667</ele><time>2026-05-02T12:41:43Z</time></trkpt><trkpt lat="45.74957577846153" lon="7.470432779708307"><ele>807.0</ele><time>2026-05-02T12:41:44Z</time></trkpt><trkpt lat="45.74953777393927" lon="7.470176733950465"><ele>810.5</ele><time>2026-05-02T12:41:45Z</time></trkpt><trkpt lat="45.74951151649065" lon="7.469859277957228"><ele>814.0</ele><time>2026-05-02T12:41:46Z</time></trkpt><trkpt lat="45.74948486941574" lon="7.4695369485968195"><ele>817.0</ele><time>2026-05-02T12:41:47Z</time></trkpt><trkpt lat="45.74945156119161" lon="7.4692060907972735"><ele>820.0</ele><time>2026-05-02T12:41:48Z</time></trkpt><trkpt lat="45.74937916093012" lon="7.468885850843108"><ele>811.5</ele><time>2026-05-02T12:41:49Z</time></trkpt><trkpt lat="45.74925226051124" lon="7.468576297238504"><ele>803.0</ele><time>2026-05-02T12:41:50Z</time></trkpt><trkpt lat="45.749096299770684" lon="7.468251877932497"><ele>818.5</ele><time>2026-05-02T12:41:51Z</time></trkpt><trkpt lat="45.748940490631306" lon="7.467928883350719"><ele>834.0</ele><time>2026-05-02T12:41:52Z</time></trkpt><trkpt lat="45.748825937927094" lon="7.467677753051863"><ele>834.0</ele><time>2026-05-02T12:41:54Z</time></trkpt><trkpt lat="45.74873111731058" lon="7.467514331959759"><ele>834.0</ele><time>2026-05-02T12:41:55Z</time></trkpt><trkpt lat="45.74867018020311" lon="7.4673655116999065"><ele>834.0</ele><time>2026-05-02T12:41:56Z</time></trkpt><trkpt lat="45.74862228925281" lon="7.4672816272411"><ele>834.0</ele><time>2026-05-02T12:41:57Z</time></trkpt><trkpt lat="45.748676916388405" lon="7.467207607968903"><ele>834.0</ele><time>2026-05-02T12:41:58Z</time></trkpt><trkpt lat="45.74874850939547" lon="7.467216679829821"><ele>834.0</ele><time>2026-05-02T12:41:59Z</time></trkpt><trkpt lat="45.74886395507039" lon="7.467336219966016"><ele>834.0</ele><time>2026-05-02T12:42:01Z</time></trkpt><trkpt lat="45.74889446099641" lon="7.467522101741958"><ele>834.0</ele><time>2026-05-02T12:42:02Z</time></trkpt><trkpt lat="45.74898847468595" lon="7.4676921526908995"><ele>834.0</ele><time>2026-05-02T12:42:03Z</time></trkpt><trkpt lat="45.74909295705853" lon="7.467866649551715"><ele>839.6666666666667</ele><time>2026-05-02T12:42:04Z</time></trkpt><trkpt lat="45.749215067924474" lon="7.468053033211821"><ele>845.3333333333334</ele><time>2026-05-02T12:42:05Z</time></trkpt><trkpt lat="45.749338956934906" lon="7.468267392330118"><ele>851.0</ele><time>2026-05-02T12:42:06Z</time></trkpt><trkpt lat="45.74948667216738" lon="7.468475883984976"><ele>851.0</ele><time>2026-05-02T12:42:07Z</time></trkpt><trkpt lat="45.74966850013731" lon="7.46866408469574"><ele>851.0</ele><time>2026-05-02T12:42:08Z</time></trkpt><trkpt lat="45.74982754600808" lon="7.468928317528039"><ele>835.5</ele><time>2026-05-02T12:42:09Z</time></trkpt><trkpt lat="45.74997857529037" lon="7.4692148899537445"><ele>820.0</ele><time>2026-05-02T12:42:10Z</time></trkpt><trkpt lat="45.75012529544398" lon="7.469471829093376"><ele>830.6666666666666</ele><time>2026-05-02T12:42:11Z</time></trkpt><trkpt lat="45.75028826443468" lon="7.469683730559058"><ele>841.3333333333333</ele><time>2026-05-02T12:42:12Z</time></trkpt><trkpt lat="45.75040421928556" lon="7.469890900519367"><ele>852.0</ele><time>2026-05-02T12:42:13Z</time></trkpt><trkpt lat="45.750429422202906" lon="7.470096514503036"><ele>852.0</ele><time>2026-05-02T12:42:14Z</time></trkpt><trkpt lat="45.75044113313734" lon="7.470332784843952"><ele>852.0</ele><time>2026-05-02T12:42:15Z</time></trkpt><trkpt lat="45.750488973244025" lon="7.470608245787027"><ele>852.0</ele><time>2026-05-02T12:42:16Z</time></trkpt><trkpt lat="45.750516728253785" lon="7.470833116651058"><ele>851.25</ele><time>2026-05-02T12:42:17Z</time></trkpt><trkpt lat="45.750548353235985" lon="7.47103112384091"><ele>850.5</ele><time>2026-05-02T12:42:18Z</time></trkpt><trkpt lat="45.750589326064365" lon="7.471200887256137"><ele>849.75</ele><time>2026-05-02T12:42:19Z</time></trkpt><trkpt lat="45.750625410481476" lon="7.471339924540999"><ele>849.0</ele><time>2026-05-02T12:42:20Z</time></trkpt><trkpt lat="45.750685175449576" lon="7.471477180369346"><ele>845.75</ele><time>2026-05-02T12:42:21Z</time></trkpt><trkpt lat="45.75080910945246" lon="7.471522362972675"><ele>842.5</ele><time>2026-05-02T12:42:22Z</time></trkpt><trkpt lat="45.75094220461742" lon="7.471542006608066"><ele>839.25</ele><time>2026-05-02T12:42:23Z</time></trkpt><trkpt lat="45.75105680698245" lon="7.471600067783475"><ele>836.0</ele><time>2026-05-02T12:42:24Z</time></trkpt><trkpt lat="45.75116826990691" lon="7.471667194583846"><ele>843.5999999999999</ele><time>2026-05-02T12:42:25Z</time></trkpt><trkpt lat="45.75125392404984" lon="7.471821656049933"><ele>851.2</ele><time>2026-05-02T12:42:26Z</time></trkpt><trkpt lat="45.751305670091796" lon="7.4719653554841985"><ele>858.8000000000001</ele><time>2026-05-02T12:42:27Z</time></trkpt><trkpt lat="45.75136761433077" lon="7.472066161321679"><ele>866.4000000000001</ele><time>2026-05-02T12:42:28Z</time></trkpt><trkpt lat="45.75143204088054" lon="7.472064263022963"><ele>874.0</ele><time>2026-05-02T12:42:29Z</time></trkpt><trkpt lat="45.75150891185018" lon="7.472037431412883"><ele>874.0</ele><time>2026-05-02T12:42:30Z</time></trkpt><trkpt lat="45.75151992677221" lon="7.4718943034075265"><ele>874.0000000000001</ele><time>2026-05-02T12:42:31Z</time></trkpt><trkpt lat="45.751487472718345" lon="7.471772306539177"><ele>874.0000000000001</ele><time>2026-05-02T12:42:32Z</time></trkpt><trkpt lat="45.75142476469597" lon="7.4716362445424815"><ele>874.0</ele><time>2026-05-02T12:42:33Z</time></trkpt><trkpt lat="45.7513523549037" lon="7.471466949441861"><ele>874.0</ele><time>2026-05-02T12:42:34Z</time></trkpt><trkpt lat="45.75128569510755" lon="7.47128007545707"><ele>876.3333333333333</ele><time>2026-05-02T12:42:35Z</time></trkpt><trkpt lat="45.75122046196638" lon="7.471076871655418"><ele>878.6666666666667</ele><time>2026-05-02T12:42:36Z</time></trkpt><trkpt lat="45.7511668145542" lon="7.470842302560089"><ele>881.0</ele><time>2026-05-02T12:42:37Z</time></trkpt><trkpt lat="45.751123800026065" lon="7.470602869669137"><ele>882.75</ele><time>2026-05-02T12:42:38Z</time></trkpt><trkpt lat="45.75108904521221" lon="7.4703862923188105"><ele>884.5</ele><time>2026-05-02T12:42:39Z</time></trkpt><trkpt lat="45.751054090931575" lon="7.470207444170327"><ele>886.25</ele><time>2026-05-02T12:42:40Z</time></trkpt><trkpt lat="45.75102659328297" lon="7.47006260055313"><ele>888.0</ele><time>2026-05-02T12:42:41Z</time></trkpt><trkpt lat="45.75104213585921" lon="7.469960674843116"><ele>888.0</ele><time>2026-05-02T12:42:42Z</time></trkpt><trkpt lat="45.751100493728565" lon="7.469895206946637"><ele>888.0</ele><time>2026-05-02T12:42:43Z</time></trkpt><trkpt lat="45.75116353358824" lon="7.469913397036351"><ele>888.0</ele><time>2026-05-02T12:42:44Z</time></trkpt><trkpt lat="45.75121431421156" lon="7.4699932717762545"><ele>888.0</ele><time>2026-05-02T12:42:45Z</time></trkpt><trkpt lat="45.75125772469643" lon="7.470121194808611"><ele>888.0</ele><time>2026-05-02T12:42:46Z</time></trkpt><trkpt lat="45.751311036574734" lon="7.4702588112027"><ele>888.0</ele><time>2026-05-02T12:42:47Z</time></trkpt><trkpt lat="45.75138161374587" lon="7.470424990044634"><ele>885.6666666666667</ele><time>2026-05-02T12:42:48Z</time></trkpt><trkpt lat="45.75147293965816" lon="7.470616671470167"><ele>883.3333333333334</ele><time>2026-05-02T12:42:49Z</time></trkpt><trkpt lat="45.7515647965213" lon="7.4708246212583145"><ele>881.0</ele><time>2026-05-02T12:42:50Z</time></trkpt><trkpt lat="45.75161428079732" lon="7.47101856444875"><ele>881.0</ele><time>2026-05-02T12:42:51Z</time></trkpt><trkpt lat="45.75167148890919" lon="7.471178467157861"><ele>880.9999999999999</ele><time>2026-05-02T12:42:52Z</time></trkpt><trkpt lat="45.75170800175784" lon="7.471323960656546"><ele>880.9999999999999</ele><time>2026-05-02T12:42:53Z</time></trkpt><trkpt lat="45.75173964830634" lon="7.471446271345672"><ele>881.0</ele><time>2026-05-02T12:42:54Z</time></trkpt><trkpt lat="45.751772281611544" lon="7.471547357302165"><ele>881.0</ele><time>2026-05-02T12:42:55Z</time></trkpt><trkpt lat="45.7518358202077" lon="7.471610290811292"><ele>881.0</ele><time>2026-05-02T12:42:56Z</time></trkpt><trkpt lat="45.751944467104806" lon="7.47152144145264"><ele>880.9999999999999</ele><time>2026-05-02T12:42:58Z</time></trkpt><trkpt lat="45.751971063455045" lon="7.471390080253333"><ele>880.9999999999999</ele><time>2026-05-02T12:42:59Z</time></trkpt><trkpt lat="45.751942547448984" lon="7.471245930967447"><ele>881.0</ele><time>2026-05-02T12:43:00Z</time></trkpt><trkpt lat="45.751903684433444" lon="7.471077044448035"><ele>881.0</ele><time>2026-05-02T12:43:01Z</time></trkpt><trkpt lat="45.75186379578339" lon="7.470881903965804"><ele>881.0</ele><time>2026-05-02T12:43:02Z</time></trkpt><trkpt lat="45.75182088698388" lon="7.470669382614203"><ele>881.0</ele><time>2026-05-02T12:43:03Z</time></trkpt><trkpt lat="45.75178326232298" lon="7.470431219073412"><ele>881.0</ele><time>2026-05-02T12:43:04Z</time></trkpt><trkpt lat="45.75173634403803" lon="7.470174909471754"><ele>883.3333333333334</ele><time>2026-05-02T12:43:05Z</time></trkpt><trkpt lat="45.75169444849455" lon="7.469937309651433"><ele>885.6666666666667</ele><time>2026-05-02T12:43:06Z</time></trkpt><trkpt lat="45.75164836343233" lon="7.469719086314129"><ele>888.0</ele><time>2026-05-02T12:43:07Z</time></trkpt><trkpt lat="45.75161370227088" lon="7.469504935760547"><ele>890.75</ele><time>2026-05-02T12:43:08Z</time></trkpt><trkpt lat="45.75160978919594" lon="7.469305051943382"><ele>893.5</ele><time>2026-05-02T12:43:09Z</time></trkpt><trkpt lat="45.751643642776195" lon="7.469113445006939"><ele>896.25</ele><time>2026-05-02T12:43:10Z</time></trkpt><trkpt lat="45.751645725368945" lon="7.46891655007633"><ele>899.0</ele><time>2026-05-02T12:43:11Z</time></trkpt><trkpt lat="45.751629013891886" lon="7.468727768498824"><ele>903.0</ele><time>2026-05-02T12:43:12Z</time></trkpt><trkpt lat="45.75158348824448" lon="7.468552430637175"><ele>907.0</ele><time>2026-05-02T12:43:13Z</time></trkpt><trkpt lat="45.75150228575281" lon="7.468379314906662"><ele>911.0</ele><time>2026-05-02T12:43:14Z</time></trkpt><trkpt lat="45.75140293452339" lon="7.468226791508931"><ele>915.0</ele><time>2026-05-02T12:43:15Z</time></trkpt><trkpt lat="45.75128679287342" lon="7.4680949623850115"><ele>915.0</ele><time>2026-05-02T12:43:16Z</time></trkpt><trkpt lat="45.75116635998735" lon="7.4679564727326255"><ele>915.0</ele><time>2026-05-02T12:43:17Z</time></trkpt><trkpt lat="45.75104005905426" lon="7.4678466492431035"><ele>915.0</ele><time>2026-05-02T12:43:18Z</time></trkpt><trkpt lat="45.75091310556155" lon="7.4677484136959205"><ele>915.0</ele><time>2026-05-02T12:43:19Z</time></trkpt><trkpt lat="45.75080311742048" lon="7.46763092128804"><ele>914.5</ele><time>2026-05-02T12:43:20Z</time></trkpt><trkpt lat="45.750689426579655" lon="7.467548903998949"><ele>914.0</ele><time>2026-05-02T12:43:21Z</time></trkpt><trkpt lat="45.75060707836272" lon="7.467404598670311"><ele>913.5</ele><time>2026-05-02T12:43:22Z</time></trkpt><trkpt lat="45.750590989364376" lon="7.467226302794968"><ele>913.0</ele><time>2026-05-02T12:43:23Z</time></trkpt><trkpt lat="45.75056836223489" lon="7.467057391299757"><ele>919.0</ele><time>2026-05-02T12:43:24Z</time></trkpt><trkpt lat="45.75053797263791" lon="7.466840195476348"><ele>925.0</ele><time>2026-05-02T12:43:25Z</time></trkpt><trkpt lat="45.750515026288355" lon="7.466625546596332"><ele>931.0</ele><time>2026-05-02T12:43:26Z</time></trkpt><trkpt lat="45.750493863520006" lon="7.466394327368162"><ele>933.0</ele><time>2026-05-02T12:43:27Z</time></trkpt><trkpt lat="45.75047021257527" lon="7.4661537954037644"><ele>935.0</ele><time>2026-05-02T12:43:28Z</time></trkpt><trkpt lat="45.750437358748556" lon="7.465902038161826"><ele>937.0</ele><time>2026-05-02T12:43:29Z</time></trkpt><trkpt lat="45.750410732794094" lon="7.465636494881405"><ele>938.0</ele><time>2026-05-02T12:43:30Z</time></trkpt><trkpt lat="45.75040076499895" lon="7.465384244829975"><ele>939.0</ele><time>2026-05-02T12:43:31Z</time></trkpt><trkpt lat="45.7503803038316" lon="7.465136148991902"><ele>940.0</ele><time>2026-05-02T12:43:32Z</time></trkpt><trkpt lat="45.750348586310714" lon="7.464899796226842"><ele>940.0</ele><time>2026-05-02T12:43:33Z</time></trkpt><trkpt lat="45.7503432759302" lon="7.464681377589657"><ele>940.0</ele><time>2026-05-02T12:43:34Z</time></trkpt><trkpt lat="45.75035722099931" lon="7.464476090987503"><ele>940.0</ele><time>2026-05-02T12:43:35Z</time></trkpt><trkpt lat="45.75038836286664" lon="7.464279826537658"><ele>940.0</ele><time>2026-05-02T12:43:36Z</time></trkpt><trkpt lat="45.75041644639051" lon="7.464054344981382"><ele>938.5</ele><time>2026-05-02T12:43:37Z</time></trkpt><trkpt lat="45.750452587957284" lon="7.463856184347369"><ele>937.0</ele><time>2026-05-02T12:43:38Z</time></trkpt><trkpt lat="45.75048066602515" lon="7.4636783016577954"><ele>935.5</ele><time>2026-05-02T12:43:39Z</time></trkpt><trkpt lat="45.75051112306434" lon="7.463523057095089"><ele>934.0</ele><time>2026-05-02T12:43:40Z</time></trkpt><trkpt lat="45.7505652743227" lon="7.4634048169238065"><ele>933.1666666666666</ele><time>2026-05-02T12:43:41Z</time></trkpt><trkpt lat="45.75062715639054" lon="7.463329592957244"><ele>932.3333333333333</ele><time>2026-05-02T12:43:42Z</time></trkpt><trkpt lat="45.75070343665703" lon="7.463304006210848"><ele>931.5</ele><time>2026-05-02T12:43:43Z</time></trkpt><trkpt lat="45.75077196721537" lon="7.46332769108932"><ele>930.6666666666667</ele><time>2026-05-02T12:43:44Z</time></trkpt><trkpt lat="45.75085242814566" lon="7.463413169481864"><ele>929.8333333333334</ele><time>2026-05-02T12:43:45Z</time></trkpt><trkpt lat="45.75093727521714" lon="7.463482303874507"><ele>929.0</ele><time>2026-05-02T12:43:46Z</time></trkpt><trkpt lat="45.75102462828974" lon="7.463510684991533"><ele>930.6</ele><time>2026-05-02T12:43:47Z</time></trkpt><trkpt lat="45.75112297716075" lon="7.463511376572615"><ele>932.2</ele><time>2026-05-02T12:43:48Z</time></trkpt><trkpt lat="45.75122356358024" lon="7.463486834996265"><ele>933.8000000000001</ele><time>2026-05-02T12:43:49Z</time></trkpt><trkpt lat="45.75131818595995" lon="7.463444385797834"><ele>935.4000000000001</ele><time>2026-05-02T12:43:50Z</time></trkpt><trkpt lat="45.75141635180578" lon="7.463393430587539"><ele>937.0</ele><time>2026-05-02T12:43:51Z</time></trkpt><trkpt lat="45.7515042377262" lon="7.463372290229618"><ele>937.0</ele><time>2026-05-02T12:43:52Z</time></trkpt><trkpt lat="45.75159497864642" lon="7.463359419473966"><ele>937.0</ele><time>2026-05-02T12:43:53Z</time></trkpt><trkpt lat="45.75167734938433" lon="7.463369642294009"><ele>937.0</ele><time>2026-05-02T12:43:54Z</time></trkpt><trkpt lat="45.75177857119103" lon="7.463455434227325"><ele>937.0</ele><time>2026-05-02T12:43:55Z</time></trkpt><trkpt lat="45.75185069452109" lon="7.463521155586538"><ele>937.0</ele><time>2026-05-02T12:43:56Z</time></trkpt><trkpt lat="45.751925349100276" lon="7.4636077575346675"><ele>937.2</ele><time>2026-05-02T12:43:57Z</time></trkpt><trkpt lat="45.751995739547986" lon="7.463705875659403"><ele>937.4000000000001</ele><time>2026-05-02T12:43:58Z</time></trkpt><trkpt lat="45.75208100551561" lon="7.463806751921623"><ele>937.5999999999999</ele><time>2026-05-02T12:43:59Z</time></trkpt><trkpt lat="45.75216489425036" lon="7.463902901130067"><ele>937.8</ele><time>2026-05-02T12:44:00Z</time></trkpt><trkpt lat="45.752232801384885" lon="7.464021826431246"><ele>938.0</ele><time>2026-05-02T12:44:01Z</time></trkpt><trkpt lat="45.75224689942411" lon="7.464168842524936"><ele>942.5</ele><time>2026-05-02T12:44:02Z</time></trkpt><trkpt lat="45.752223282008536" lon="7.464329913223028"><ele>947.0</ele><time>2026-05-02T12:44:03Z</time></trkpt><trkpt lat="45.752131205572304" lon="7.464460216879802"><ele>951.5</ele><time>2026-05-02T12:44:04Z</time></trkpt><trkpt lat="45.75205555708242" lon="7.464613251066872"><ele>956.0</ele><time>2026-05-02T12:44:05Z</time></trkpt><trkpt lat="45.75196923445623" lon="7.464788923922331"><ele>956.1999999999999</ele><time>2026-05-02T12:44:06Z</time></trkpt><trkpt lat="45.75188787489651" lon="7.464954204663781"><ele>956.3999999999999</ele><time>2026-05-02T12:44:07Z</time></trkpt><trkpt lat="45.751830673483774" lon="7.465106805240611"><ele>956.6</ele><time>2026-05-02T12:44:08Z</time></trkpt><trkpt lat="45.75177244497388" lon="7.46521720274757"><ele>956.8</ele><time>2026-05-02T12:44:09Z</time></trkpt><trkpt lat="45.751745870149456" lon="7.465326100414094"><ele>957.0</ele><time>2026-05-02T12:44:10Z</time></trkpt><trkpt lat="45.75176181133869" lon="7.465436894705038"><ele>958.0</ele><time>2026-05-02T12:44:11Z</time></trkpt><trkpt lat="45.75181349201702" lon="7.465508902860522"><ele>959.0</ele><time>2026-05-02T12:44:12Z</time></trkpt><trkpt lat="45.751897035630414" lon="7.465558292541252"><ele>960.0</ele><time>2026-05-02T12:44:13Z</time></trkpt><trkpt lat="45.75199587355334" lon="7.465505885664589"><ele>961.0</ele><time>2026-05-02T12:44:14Z</time></trkpt><trkpt lat="45.75209211284774" lon="7.465431942309244"><ele>962.0</ele><time>2026-05-02T12:44:15Z</time></trkpt><trkpt lat="45.7521867684087" lon="7.465332760830971"><ele>963.6</ele><time>2026-05-02T12:44:16Z</time></trkpt><trkpt lat="45.75228795524391" lon="7.465282579094595"><ele>965.2</ele><time>2026-05-02T12:44:17Z</time></trkpt><trkpt lat="45.75239602425709" lon="7.465273391379883"><ele>966.8</ele><time>2026-05-02T12:44:18Z</time></trkpt><trkpt lat="45.75249585835638" lon="7.4653376338147694"><ele>968.4</ele><time>2026-05-02T12:44:19Z</time></trkpt><trkpt lat="45.752583342864206" lon="7.465461725980067"><ele>970.0</ele><time>2026-05-02T12:44:20Z</time></trkpt><trkpt lat="45.7526766005187" lon="7.465628692703726"><ele>975.6666666666666</ele><time>2026-05-02T12:44:21Z</time></trkpt><trkpt lat="45.75277443508619" lon="7.46578003264894"><ele>981.3333333333333</ele><time>2026-05-02T12:44:22Z</time></trkpt><trkpt lat="45.75288809739906" lon="7.465930683316432"><ele>987.0</ele><time>2026-05-02T12:44:23Z</time></trkpt><trkpt lat="45.753016556323324" lon="7.46607964028549"><ele>987.0</ele><time>2026-05-02T12:44:24Z</time></trkpt><trkpt lat="45.7531239578117" lon="7.466215310128924"><ele>987.0</ele><time>2026-05-02T12:44:25Z</time></trkpt><trkpt lat="45.75320131273709" lon="7.46637728149828"><ele>987.0</ele><time>2026-05-02T12:44:26Z</time></trkpt><trkpt lat="45.75324735187558" lon="7.466557929735688"><ele>987.0</ele><time>2026-05-02T12:44:27Z</time></trkpt><trkpt lat="45.75327095972835" lon="7.466763974681501"><ele>989.0</ele><time>2026-05-02T12:44:28Z</time></trkpt><trkpt lat="45.75327314944699" lon="7.4669661269370655"><ele>991.0</ele><time>2026-05-02T12:44:29Z</time></trkpt><trkpt lat="45.75329968110395" lon="7.467194228982948"><ele>993.0</ele><time>2026-05-02T12:44:30Z</time></trkpt><trkpt lat="45.753315785002144" lon="7.467444465883591"><ele>993.6666666666667</ele><time>2026-05-02T12:44:31Z</time></trkpt><trkpt lat="45.7533375414803" lon="7.467682110510876"><ele>994.3333333333334</ele><time>2026-05-02T12:44:32Z</time></trkpt><trkpt lat="45.75337500060131" lon="7.467917193460575"><ele>995.0</ele><time>2026-05-02T12:44:33Z</time></trkpt><trkpt lat="45.753427365019085" lon="7.468155422332877"><ele>992.6666666666667</ele><time>2026-05-02T12:44:34Z</time></trkpt><trkpt lat="45.75348782670353" lon="7.468401795359008"><ele>990.3333333333333</ele><time>2026-05-02T12:44:35Z</time></trkpt><trkpt lat="45.75355377556538" lon="7.4686655141374185"><ele>988.0</ele><time>2026-05-02T12:44:36Z</time></trkpt><trkpt lat="45.75361781267193" lon="7.468921666398158"><ele>999.3333333333333</ele><time>2026-05-02T12:44:37Z</time></trkpt><trkpt lat="45.75366935632494" lon="7.469194994991819"><ele>1010.6666666666667</ele><time>2026-05-02T12:44:38Z</time></trkpt><trkpt lat="45.75373720651685" lon="7.469469421538797"><ele>1022.0</ele><time>2026-05-02T12:44:39Z</time></trkpt><trkpt lat="45.7538080611547" lon="7.469738549152586"><ele>1022.0</ele><time>2026-05-02T12:44:40Z</time></trkpt><trkpt lat="45.75388628833972" lon="7.469979277934809"><ele>1022.0</ele><time>2026-05-02T12:44:41Z</time></trkpt><trkpt lat="45.753930867082154" lon="7.47019976366298"><ele>1022.0</ele><time>2026-05-02T12:44:42Z</time></trkpt><trkpt lat="45.75395098322863" lon="7.470412580354261"><ele>1021.0</ele><time>2026-05-02T12:44:43Z</time></trkpt><trkpt lat="45.75395554909508" lon="7.470597306769843"><ele>1020.0</ele><time>2026-05-02T12:44:44Z</time></trkpt><trkpt lat="45.753959998336555" lon="7.470759017057856"><ele>1019.0</ele><time>2026-05-02T12:44:45Z</time></trkpt><trkpt lat="45.75398318806405" lon="7.470887377131204"><ele>1018.0</ele><time>2026-05-02T12:44:46Z</time></trkpt><trkpt lat="45.754040336076066" lon="7.470956912908026"><ele>1017.0</ele><time>2026-05-02T12:44:47Z</time></trkpt><trkpt lat="45.75411321942438" lon="7.470968817256079"><ele>1017.0</ele><time>2026-05-02T12:44:48Z</time></trkpt><trkpt lat="45.75418551270929" lon="7.470917541045095"><ele>1017.0</ele><time>2026-05-02T12:44:49Z</time></trkpt><trkpt lat="45.75422618518001" lon="7.470805335465089"><ele>1017.0</ele><time>2026-05-02T12:44:50Z</time></trkpt><trkpt lat="45.75423670648657" lon="7.470648509355322"><ele>1017.0</ele><time>2026-05-02T12:44:51Z</time></trkpt><trkpt lat="45.754243633106206" lon="7.470456104302898"><ele>1017.0</ele><time>2026-05-02T12:44:52Z</time></trkpt><trkpt lat="45.75425627597035" lon="7.470232048497093"><ele>1018.6666666666667</ele><time>2026-05-02T12:44:53Z</time></trkpt><trkpt lat="45.75426969856343" lon="7.470011063954564"><ele>1020.3333333333334</ele><time>2026-05-02T12:44:54Z</time></trkpt><trkpt lat="45.754255617890905" lon="7.4697698927256795"><ele>1022.0</ele><time>2026-05-02T12:44:55Z</time></trkpt><trkpt lat="45.75421836522978" lon="7.469507238325361"><ele>1024.3333333333335</ele><time>2026-05-02T12:44:56Z</time></trkpt><trkpt lat="45.75418520300076" lon="7.469248790191854"><ele>1026.6666666666667</ele><time>2026-05-02T12:44:57Z</time></trkpt><trkpt lat="45.75417007835225" lon="7.468982847273721"><ele>1029.0</ele><time>2026-05-02T12:44:58Z</time></trkpt><trkpt lat="45.75416552522661" lon="7.468724787252151"><ele>1029.6666666666667</ele><time>2026-05-02T12:44:59Z</time></trkpt><trkpt lat="45.75415509865141" lon="7.468475180336587"><ele>1030.3333333333335</ele><time>2026-05-02T12:45:00Z</time></trkpt><trkpt lat="45.7541246731666" lon="7.468235672379433"><ele>1031.0</ele><time>2026-05-02T12:45:01Z</time></trkpt><trkpt lat="45.754087986987855" lon="7.468008487141473"><ele>1031.75</ele><time>2026-05-02T12:45:02Z</time></trkpt><trkpt lat="45.754008585170006" lon="7.467824824149957"><ele>1032.5</ele><time>2026-05-02T12:45:03Z</time></trkpt><trkpt lat="45.75397418670275" lon="7.467651969747308"><ele>1033.25</ele><time>2026-05-02T12:45:04Z</time></trkpt><trkpt lat="45.75398582218862" lon="7.46748742892104"><ele>1034.0</ele><time>2026-05-02T12:45:05Z</time></trkpt><trkpt lat="45.754035138760955" lon="7.467356806801341"><ele>1034.0</ele><time>2026-05-02T12:45:06Z</time></trkpt><trkpt lat="45.7541147032328" lon="7.467255256520479"><ele>1034.0</ele><time>2026-05-02T12:45:07Z</time></trkpt><trkpt lat="45.75421454575475" lon="7.4671851449041755"><ele>1034.0</ele><time>2026-05-02T12:45:08Z</time></trkpt><trkpt lat="45.75432547935127" lon="7.467100439746796"><ele>1034.0</ele><time>2026-05-02T12:45:09Z</time></trkpt><trkpt lat="45.75444420014201" lon="7.467008050444681"><ele>1037.75</ele><time>2026-05-02T12:45:10Z</time></trkpt><trkpt lat="45.7545705593184" lon="7.466917436410991"><ele>1041.5</ele><time>2026-05-02T12:45:11Z</time></trkpt><trkpt lat="45.754696564714756" lon="7.4668160266725785"><ele>1045.25</ele><time>2026-05-02T12:45:12Z</time></trkpt><trkpt lat="45.754807259110294" lon="7.466711090252743"><ele>1049.0</ele><time>2026-05-02T12:45:13Z</time></trkpt><trkpt lat="45.75491295824465" lon="7.4665903936969515"><ele>1049.0</ele><time>2026-05-02T12:45:14Z</time></trkpt><trkpt lat="45.755004575354945" lon="7.466453803536282"><ele>1049.0</ele><time>2026-05-02T12:45:15Z</time></trkpt><trkpt lat="45.755085501138176" lon="7.466316700960539"><ele>1049.0</ele><time>2026-05-02T12:45:16Z</time></trkpt><trkpt lat="45.75515320720642" lon="7.466184308943171"><ele>1049.0</ele><time>2026-05-02T12:45:17Z</time></trkpt><trkpt lat="45.75522582292024" lon="7.466066276874742"><ele>1049.0</ele><time>2026-05-02T12:45:18Z</time></trkpt><trkpt lat="45.755310525873114" lon="7.465988010534187"><ele>1049.0</ele><time>2026-05-02T12:45:19Z</time></trkpt><trkpt lat="45.75540599435922" lon="7.465948663366665"><ele>1049.0</ele><time>2026-05-02T12:45:20Z</time></trkpt><trkpt lat="45.75551632707539" lon="7.465914660083769"><ele>1049.0</ele><time>2026-05-02T12:45:21Z</time></trkpt><trkpt lat="45.7556236912079" lon="7.465926412576421"><ele>1049.0</ele><time>2026-05-02T12:45:22Z</time></trkpt><trkpt lat="45.755727633992066" lon="7.465984801143115"><ele>1049.0</ele><time>2026-05-02T12:45:23Z</time></trkpt><trkpt lat="45.755818486414555" lon="7.466084780613629"><ele>1049.0</ele><time>2026-05-02T12:45:24Z</time></trkpt><trkpt lat="45.75589210652157" lon="7.466222359839982"><ele>1049.0</ele><time>2026-05-02T12:45:25Z</time></trkpt><trkpt lat="45.75597036036367" lon="7.466372143528807"><ele>1049.0</ele><time>2026-05-02T12:45:26Z</time></trkpt><trkpt lat="45.756058124256846" lon="7.466491544858169"><ele>1051.5</ele><time>2026-05-02T12:45:27Z</time></trkpt><trkpt lat="45.756179509569336" lon="7.466607311059593"><ele>1054.0</ele><time>2026-05-02T12:45:28Z</time></trkpt><trkpt lat="45.756306037436076" lon="7.466710597272419"><ele>1056.5</ele><time>2026-05-02T12:45:29Z</time></trkpt><trkpt lat="45.75643432498085" lon="7.466813783036958"><ele>1059.0</ele><time>2026-05-02T12:45:30Z</time></trkpt><trkpt lat="45.75656557943278" lon="7.466918969944618"><ele>1059.0</ele><time>2026-05-02T12:45:31Z</time></trkpt><trkpt lat="45.75669726310596" lon="7.467026177400113"><ele>1059.0</ele><time>2026-05-02T12:45:32Z</time></trkpt><trkpt lat="45.756839330211115" lon="7.4671460464473"><ele>1059.0</ele><time>2026-05-02T12:45:33Z</time></trkpt><trkpt lat="45.756984887481515" lon="7.467257465148143"><ele>1063.3333333333333</ele><time>2026-05-02T12:45:34Z</time></trkpt><trkpt lat="45.75713375904488" lon="7.467375791779902"><ele>1067.6666666666665</ele><time>2026-05-02T12:45:35Z</time></trkpt><trkpt lat="45.75728651591817" lon="7.467496888972932"><ele>1072.0</ele><time>2026-05-02T12:45:36Z</time></trkpt><trkpt lat="45.75745271726045" lon="7.467635649770896"><ele>1072.0</ele><time>2026-05-02T12:45:37Z</time></trkpt><trkpt lat="45.75762723819663" lon="7.467764016533181"><ele>1072.0</ele><time>2026-05-02T12:45:38Z</time></trkpt><trkpt lat="45.757823249474015" lon="7.467831784897961"><ele>1072.0</ele><time>2026-05-02T12:45:39Z</time></trkpt><trkpt lat="45.75801353174961" lon="7.46784095165009"><ele>1075.0</ele><time>2026-05-02T12:45:40Z</time></trkpt><trkpt lat="45.75820543109097" lon="7.4678145804325125"><ele>1078.0</ele><time>2026-05-02T12:45:41Z</time></trkpt><trkpt lat="45.75839719896769" lon="7.4677832259375325"><ele>1081.0</ele><time>2026-05-02T12:45:42Z</time></trkpt><trkpt lat="45.758576954390975" lon="7.467763978951514"><ele>1088.3333333333333</ele><time>2026-05-02T12:45:43Z</time></trkpt><trkpt lat="45.75874820658515" lon="7.467728817899621"><ele>1095.6666666666667</ele><time>2026-05-02T12:45:44Z</time></trkpt><trkpt lat="45.758912622407394" lon="7.467646869649286"><ele>1103.0</ele><time>2026-05-02T12:45:45Z</time></trkpt><trkpt lat="45.75905866540882" lon="7.4675058395589415"><ele>1103.0</ele><time>2026-05-02T12:45:46Z</time></trkpt><trkpt lat="45.759180431426714" lon="7.467328798787571"><ele>1103.0</ele><time>2026-05-02T12:45:47Z</time></trkpt><trkpt lat="45.759300250625934" lon="7.467157565188617"><ele>1103.0</ele><time>2026-05-02T12:45:48Z</time></trkpt><trkpt lat="45.75942456499622" lon="7.466960554489359"><ele>1109.3333333333335</ele><time>2026-05-02T12:45:49Z</time></trkpt><trkpt lat="45.75956432311597" lon="7.466774983075473"><ele>1115.6666666666667</ele><time>2026-05-02T12:45:50Z</time></trkpt><trkpt lat="45.7597019974938" lon="7.466577817237269"><ele>1122.0</ele><time>2026-05-02T12:45:51Z</time></trkpt><trkpt lat="45.75982848210409" lon="7.466370666380431"><ele>1126.6666666666667</ele><time>2026-05-02T12:45:52Z</time></trkpt><trkpt lat="45.75996277561556" lon="7.466165186594688"><ele>1131.3333333333335</ele><time>2026-05-02T12:45:53Z</time></trkpt><trkpt lat="45.76009161639626" lon="7.465981274284128"><ele>1136.0</ele><time>2026-05-02T12:45:54Z</time></trkpt><trkpt lat="45.76022348902829" lon="7.465821437998543"><ele>1136.0</ele><time>2026-05-02T12:45:55Z</time></trkpt><trkpt lat="45.76036382303121" lon="7.465682173275521"><ele>1136.0</ele><time>2026-05-02T12:45:56Z</time></trkpt><trkpt lat="45.76051189726878" lon="7.465559640427736"><ele>1136.0</ele><time>2026-05-02T12:45:57Z</time></trkpt><trkpt lat="45.76066438931782" lon="7.4654471520463215"><ele>1132.3333333333335</ele><time>2026-05-02T12:45:58Z</time></trkpt><trkpt lat="45.76081831920442" lon="7.4653459301598035"><ele>1128.6666666666667</ele><time>2026-05-02T12:45:59Z</time></trkpt><trkpt lat="45.76098477361714" lon="7.465259467554372"><ele>1125.0</ele><time>2026-05-02T12:46:00Z</time></trkpt><trkpt lat="45.76115941860999" lon="7.465193303930353"><ele>1125.0</ele><time>2026-05-02T12:46:01Z</time></trkpt><trkpt lat="45.76134254667201" lon="7.465138993586634"><ele>1125.0</ele><time>2026-05-02T12:46:02Z</time></trkpt><trkpt lat="45.76152752359877" lon="7.465090764571574"><ele>1125.0</ele><time>2026-05-02T12:46:03Z</time></trkpt><trkpt lat="45.76169992967385" lon="7.465042130414317"><ele>1126.3333333333333</ele><time>2026-05-02T12:46:04Z</time></trkpt><trkpt lat="45.76186763983366" lon="7.465008536743956"><ele>1127.6666666666665</ele><time>2026-05-02T12:46:05Z</time></trkpt><trkpt lat="45.76202858428789" lon="7.465010559586383"><ele>1129.0</ele><time>2026-05-02T12:46:06Z</time></trkpt><trkpt lat="45.76218825122056" lon="7.465058868757162"><ele>1129.0</ele><time>2026-05-02T12:46:07Z</time></trkpt><trkpt lat="45.762347757061896" lon="7.465148947419799"><ele>1129.0</ele><time>2026-05-02T12:46:08Z</time></trkpt><trkpt lat="45.76251094890141" lon="7.4652666658705265"><ele>1129.0</ele><time>2026-05-02T12:46:09Z</time></trkpt><trkpt lat="45.76267768942767" lon="7.465395750712585"><ele>1136.6666666666665</ele><time>2026-05-02T12:46:10Z</time></trkpt><trkpt lat="45.762842512234194" lon="7.4655293598102626"><ele>1144.3333333333333</ele><time>2026-05-02T12:46:11Z</time></trkpt><trkpt lat="45.763021088925925" lon="7.465660454855632"><ele>1152.0</ele><time>2026-05-02T12:46:12Z</time></trkpt><trkpt lat="45.763206985125045" lon="7.465769050159709"><ele>1152.0</ele><time>2026-05-02T12:46:13Z</time></trkpt><trkpt lat="45.76339562271403" lon="7.465849570814414"><ele>1152.0</ele><time>2026-05-02T12:46:14Z</time></trkpt><trkpt lat="45.7635974212109" lon="7.465926059234347"><ele>1152.0</ele><time>2026-05-02T12:46:15Z</time></trkpt><trkpt lat="45.763806284523596" lon="7.466010238995018"><ele>1150.0</ele><time>2026-05-02T12:46:16Z</time></trkpt><trkpt lat="45.76402492138063" lon="7.4660911861184145"><ele>1148.0</ele><time>2026-05-02T12:46:17Z</time></trkpt><trkpt lat="45.76424337701522" lon="7.466175301866051"><ele>1146.5</ele><time>2026-05-02T12:46:18Z</time></trkpt><trkpt lat="45.764471345337455" lon="7.466264343751236"><ele>1145.0</ele><time>2026-05-02T12:46:19Z</time></trkpt><trkpt lat="45.76469905071191" lon="7.466347984039297"><ele>1160.5</ele><time>2026-05-02T12:46:20Z</time></trkpt><trkpt lat="45.764935670830845" lon="7.466440276770714"><ele>1176.0</ele><time>2026-05-02T12:46:21Z</time></trkpt><trkpt lat="45.765162807298516" lon="7.466535170791872"><ele>1174.3333333333333</ele><time>2026-05-02T12:46:22Z</time></trkpt><trkpt lat="45.76537563905034" lon="7.466610083333716"><ele>1172.6666666666665</ele><time>2026-05-02T12:46:23Z</time></trkpt><trkpt lat="45.76555858008767" lon="7.466664349317107"><ele>1171.0</ele><time>2026-05-02T12:46:24Z</time></trkpt><trkpt lat="45.76575205675147" lon="7.466737984130003"><ele>1171.0</ele><time>2026-05-02T12:46:25Z</time></trkpt><trkpt lat="45.76593526522443" lon="7.466814889499326"><ele>1171.0</ele><time>2026-05-02T12:46:26Z</time></trkpt><trkpt lat="45.7661079636106" lon="7.466916940409373"><ele>1171.0</ele><time>2026-05-02T12:46:27Z</time></trkpt><trkpt lat="45.76625559030993" lon="7.4670644258853915"><ele>1177.5</ele><time>2026-05-02T12:46:28Z</time></trkpt><trkpt lat="45.76638230803933" lon="7.46718020450009"><ele>1184.0</ele><time>2026-05-02T12:46:29Z</time></trkpt><trkpt lat="45.766506649498005" lon="7.467265547352813"><ele>1190.5</ele><time>2026-05-02T12:46:30Z</time></trkpt><trkpt lat="45.76666405640327" lon="7.467263587126238"><ele>1197.0</ele><time>2026-05-02T12:46:31Z</time></trkpt><trkpt lat="45.76682457456382" lon="7.467267133250885"><ele>1193.6666666666667</ele><time>2026-05-02T12:46:32Z</time></trkpt><trkpt lat="45.76698059069597" lon="7.467294591117806"><ele>1190.3333333333335</ele><time>2026-05-02T12:46:33Z</time></trkpt><trkpt lat="45.767136261078555" lon="7.467354614499627"><ele>1187.0</ele><time>2026-05-02T12:46:34Z</time></trkpt><trkpt lat="45.767294624475404" lon="7.467438658437709"><ele>1187.0</ele><time>2026-05-02T12:46:35Z</time></trkpt><trkpt lat="45.76745375067052" lon="7.4675561406813395"><ele>1187.0</ele><time>2026-05-02T12:46:36Z</time></trkpt><trkpt lat="45.76761416992625" lon="7.467686092412941"><ele>1187.0</ele><time>2026-05-02T12:46:37Z</time></trkpt><trkpt lat="45.7677683882408" lon="7.467826798434123"><ele>1191.0</ele><time>2026-05-02T12:46:38Z</time></trkpt><trkpt lat="45.76792414668104" lon="7.467967647886828"><ele>1195.0</ele><time>2026-05-02T12:46:39Z</time></trkpt><trkpt lat="45.76807882454086" lon="7.468103150136319"><ele>1199.0</ele><time>2026-05-02T12:46:40Z</time></trkpt><trkpt lat="45.768225551872455" lon="7.4682459684987155"><ele>1199.0</ele><time>2026-05-02T12:46:41Z</time></trkpt><trkpt lat="45.768369345399854" lon="7.468386585290915"><ele>1199.0</ele><time>2026-05-02T12:46:42Z</time></trkpt><trkpt lat="45.76850471860805" lon="7.468543175287024"><ele>1199.0</ele><time>2026-05-02T12:46:43Z</time></trkpt><trkpt lat="45.76862715979498" lon="7.468733913700383"><ele>1198.6666666666667</ele><time>2026-05-02T12:46:44Z</time></trkpt><trkpt lat="45.76875498006501" lon="7.46892348927555"><ele>1198.3333333333333</ele><time>2026-05-02T12:46:45Z</time></trkpt><trkpt lat="45.76890013615317" lon="7.469076700517276"><ele>1198.0</ele><time>2026-05-02T12:46:46Z</time></trkpt><trkpt lat="45.76905905978076" lon="7.469230566134704"><ele>1198.0</ele><time>2026-05-02T12:46:47Z</time></trkpt><trkpt lat="45.76922172444851" lon="7.469376745332819"><ele>1198.0</ele><time>2026-05-02T12:46:48Z</time></trkpt><trkpt lat="45.76938661382979" lon="7.469533648878268"><ele>1198.0</ele><time>2026-05-02T12:46:49Z</time></trkpt><trkpt lat="45.76954532476257" lon="7.46970202528392"><ele>1199.0</ele><time>2026-05-02T12:46:50Z</time></trkpt><trkpt lat="45.769693256741576" lon="7.469875713979514"><ele>1200.0</ele><time>2026-05-02T12:46:51Z</time></trkpt><trkpt lat="45.76983262327184" lon="7.470075390363992"><ele>1201.0</ele><time>2026-05-02T12:46:52Z</time></trkpt><trkpt lat="45.769957761304155" lon="7.470295563719246"><ele>1198.3333333333333</ele><time>2026-05-02T12:46:53Z</time></trkpt><trkpt lat="45.770083174854285" lon="7.470519231403553"><ele>1195.6666666666667</ele><time>2026-05-02T12:46:54Z</time></trkpt><trkpt lat="45.7702254381894" lon="7.470721974995998"><ele>1193.0</ele><time>2026-05-02T12:46:55Z</time></trkpt><trkpt lat="45.77035399958204" lon="7.470929035424571"><ele>1193.0</ele><time>2026-05-02T12:46:56Z</time></trkpt><trkpt lat="45.77048092923362" lon="7.471128214037534"><ele>1193.0</ele><time>2026-05-02T12:46:57Z</time></trkpt><trkpt lat="45.770622904106524" lon="7.471296673950355"><ele>1193.0</ele><time>2026-05-02T12:46:58Z</time></trkpt><trkpt lat="45.77078142098253" lon="7.47141706925432"><ele>1195.6666666666667</ele><time>2026-05-02T12:46:59Z</time></trkpt><trkpt lat="45.77095235844143" lon="7.47148738432967"><ele>1198.3333333333333</ele><time>2026-05-02T12:47:00Z</time></trkpt><trkpt lat="45.771119760096944" lon="7.471537960793437"><ele>1201.0</ele><time>2026-05-02T12:47:01Z</time></trkpt><trkpt lat="45.771266453912304" lon="7.471612146278121"><ele>1201.0</ele><time>2026-05-02T12:47:02Z</time></trkpt><trkpt lat="45.77139225883558" lon="7.471739587667241"><ele>1201.0</ele><time>2026-05-02T12:47:03Z</time></trkpt><trkpt lat="45.77150974839953" lon="7.471905345585691"><ele>1201.0</ele><time>2026-05-02T12:47:04Z</time></trkpt><trkpt lat="45.77162623232808" lon="7.472074349799022"><ele>1195.75</ele><time>2026-05-02T12:47:05Z</time></trkpt><trkpt lat="45.77173219785043" lon="7.472237837071163"><ele>1190.5</ele><time>2026-05-02T12:47:06Z</time></trkpt><trkpt lat="45.771807706383996" lon="7.472398957094973"><ele>1185.25</ele><time>2026-05-02T12:47:07Z</time></trkpt><trkpt lat="45.77185813574637" lon="7.472578651477856"><ele>1180.0</ele><time>2026-05-02T12:47:08Z</time></trkpt><trkpt lat="45.77186147482351" lon="7.472765912615448"><ele>1184.5</ele><time>2026-05-02T12:47:09Z</time></trkpt><trkpt lat="45.77187568211153" lon="7.472967539484692"><ele>1189.0</ele><time>2026-05-02T12:47:10Z</time></trkpt><trkpt lat="45.771882806492705" lon="7.473175080985022"><ele>1193.5</ele><time>2026-05-02T12:47:11Z</time></trkpt><trkpt lat="45.7718721649512" lon="7.473386514389645"><ele>1198.0</ele><time>2026-05-02T12:47:12Z</time></trkpt><trkpt lat="45.771905047415146" lon="7.47360417049807"><ele>1203.6666666666665</ele><time>2026-05-02T12:47:13Z</time></trkpt><trkpt lat="45.77192998554132" lon="7.473833377946456"><ele>1209.3333333333333</ele><time>2026-05-02T12:47:14Z</time></trkpt><trkpt lat="45.77197090560518" lon="7.474059231225853"><ele>1215.0</ele><time>2026-05-02T12:47:15Z</time></trkpt><trkpt lat="45.77203270790945" lon="7.4742832125169505"><ele>1215.0</ele><time>2026-05-02T12:47:16Z</time></trkpt><trkpt lat="45.77210317400215" lon="7.474498051259395"><ele>1215.0</ele><time>2026-05-02T12:47:17Z</time></trkpt><trkpt lat="45.77217691406844" lon="7.474714654013148"><ele>1215.0</ele><time>2026-05-02T12:47:18Z</time></trkpt><trkpt lat="45.77229737619043" lon="7.474894493824622"><ele>1213.6666666666667</ele><time>2026-05-02T12:47:19Z</time></trkpt><trkpt lat="45.77244716282377" lon="7.475009125906356"><ele>1212.3333333333335</ele><time>2026-05-02T12:47:20Z</time></trkpt><trkpt lat="45.772595829085716" lon="7.475110457328697"><ele>1211.0</ele><time>2026-05-02T12:47:21Z</time></trkpt><trkpt lat="45.77273473122383" lon="7.475215303718524"><ele>1211.0</ele><time>2026-05-02T12:47:22Z</time></trkpt><trkpt lat="45.77285835727306" lon="7.475350794325968"><ele>1211.0</ele><time>2026-05-02T12:47:23Z</time></trkpt><trkpt lat="45.77295722311365" lon="7.475525505400252"><ele>1211.0</ele><time>2026-05-02T12:47:24Z</time></trkpt><trkpt lat="45.773041813065646" lon="7.475739355772697"><ele>1217.0</ele><time>2026-05-02T12:47:25Z</time></trkpt><trkpt lat="45.773086754959" lon="7.475964121873588"><ele>1223.0</ele><time>2026-05-02T12:47:26Z</time></trkpt><trkpt lat="45.77310283363728" lon="7.476199242254594"><ele>1229.0</ele><time>2026-05-02T12:47:27Z</time></trkpt><trkpt lat="45.7731186824021" lon="7.476447031321259"><ele>1234.0</ele><time>2026-05-02T12:47:28Z</time></trkpt><trkpt lat="45.77314231988113" lon="7.476697126132493"><ele>1239.0</ele><time>2026-05-02T12:47:29Z</time></trkpt><trkpt lat="45.773171506335366" lon="7.476946830826404"><ele>1244.0</ele><time>2026-05-02T12:47:30Z</time></trkpt><trkpt lat="45.773215690098354" lon="7.477192550947267"><ele>1240.6666666666667</ele><time>2026-05-02T12:47:31Z</time></trkpt><trkpt lat="45.773313037963256" lon="7.477388919391447"><ele>1237.3333333333333</ele><time>2026-05-02T12:47:32Z</time></trkpt><trkpt lat="45.7734386195075" lon="7.477516790085659"><ele>1234.0</ele><time>2026-05-02T12:47:33Z</time></trkpt><trkpt lat="45.7735435580268" lon="7.477681660267915"><ele>1234.0</ele><time>2026-05-02T12:47:34Z</time></trkpt><trkpt lat="45.773627569725576" lon="7.477874456030142"><ele>1234.0</ele><time>2026-05-02T12:47:35Z</time></trkpt><trkpt lat="45.77368991973425" lon="7.47811374337568"><ele>1234.0</ele><time>2026-05-02T12:47:36Z</time></trkpt><trkpt lat="45.77373057090992" lon="7.478349161970548"><ele>1239.5</ele><time>2026-05-02T12:47:37Z</time></trkpt><trkpt lat="45.77378409707582" lon="7.478567625331579"><ele>1245.0</ele><time>2026-05-02T12:47:38Z</time></trkpt><trkpt lat="45.77380912507807" lon="7.478724235240597"><ele>1250.5</ele><time>2026-05-02T12:47:39Z</time></trkpt><trkpt lat="45.77388068535435" lon="7.478857117811167"><ele>1256.0</ele><time>2026-05-02T12:47:40Z</time></trkpt><trkpt lat="45.773988844264" lon="7.478941449292397"><ele>1260.5</ele><time>2026-05-02T12:47:41Z</time></trkpt><trkpt lat="45.77412132235096" lon="7.478982401028279"><ele>1265.0</ele><time>2026-05-02T12:47:42Z</time></trkpt><trkpt lat="45.77426315774301" lon="7.479014264095056"><ele>1269.5</ele><time>2026-05-02T12:47:43Z</time></trkpt><trkpt lat="45.77441236522603" lon="7.479051915696116"><ele>1274.0</ele><time>2026-05-02T12:47:44Z</time></trkpt><trkpt lat="45.774571461760594" lon="7.47909067142055"><ele>1274.0</ele><time>2026-05-02T12:47:45Z</time></trkpt><trkpt lat="45.774741123717405" lon="7.479140607426993"><ele>1274.0</ele><time>2026-05-02T12:47:46Z</time></trkpt><trkpt lat="45.77491083026882" lon="7.479212100751052"><ele>1274.0</ele><time>2026-05-02T12:47:47Z</time></trkpt><trkpt lat="45.77509409732681" lon="7.479303512092219"><ele>1276.3333333333335</ele><time>2026-05-02T12:47:48Z</time></trkpt><trkpt lat="45.77527576720277" lon="7.4793949293746955"><ele>1278.6666666666667</ele><time>2026-05-02T12:47:49Z</time></trkpt><trkpt lat="45.77545453804482" lon="7.47949813130494"><ele>1281.0</ele><time>2026-05-02T12:47:50Z</time></trkpt><trkpt lat="45.77561810354303" lon="7.479614854630635"><ele>1281.0</ele><time>2026-05-02T12:47:51Z</time></trkpt><trkpt lat="45.77576460600079" lon="7.479741718324061"><ele>1281.0</ele><time>2026-05-02T12:47:52Z</time></trkpt><trkpt lat="45.7758946743904" lon="7.47986707935503"><ele>1281.0</ele><time>2026-05-02T12:47:53Z</time></trkpt><trkpt lat="45.7759862160647" lon="7.480002036234316"><ele>1276.75</ele><time>2026-05-02T12:47:54Z</time></trkpt><trkpt lat="45.77605399306135" lon="7.480162261577416"><ele>1272.5</ele><time>2026-05-02T12:47:55Z</time></trkpt><trkpt lat="45.77609359235639" lon="7.480344453575791"><ele>1268.25</ele><time>2026-05-02T12:47:56Z</time></trkpt><trkpt lat="45.77612934718342" lon="7.4805451576314"><ele>1264.0</ele><time>2026-05-02T12:47:57Z</time></trkpt><trkpt lat="45.77617466582504" lon="7.480766802772574"><ele>1264.0</ele><time>2026-05-02T12:47:58Z</time></trkpt><trkpt lat="45.77623955781449" lon="7.480996595071589"><ele>1264.0</ele><time>2026-05-02T12:47:59Z</time></trkpt><trkpt lat="45.77631438797118" lon="7.481213300993521"><ele>1264.0</ele><time>2026-05-02T12:48:00Z</time></trkpt><trkpt lat="45.77639968317837" lon="7.48143395848715"><ele>1272.0</ele><time>2026-05-02T12:48:01Z</time></trkpt><trkpt lat="45.77650061064349" lon="7.481645073835514"><ele>1280.0</ele><time>2026-05-02T12:48:02Z</time></trkpt><trkpt lat="45.77662433274079" lon="7.481850942036251"><ele>1288.0</ele><time>2026-05-02T12:48:03Z</time></trkpt><trkpt lat="45.77676355471594" lon="7.482039015370351"><ele>1290.3333333333333</ele><time>2026-05-02T12:48:04Z</time></trkpt><trkpt lat="45.776902360091" lon="7.482215171104381"><ele>1292.6666666666667</ele><time>2026-05-02T12:48:05Z</time></trkpt><trkpt lat="45.77707091149825" lon="7.4822979621685395"><ele>1295.0</ele><time>2026-05-02T12:48:06Z</time></trkpt><trkpt lat="45.77723275450673" lon="7.482340959947081"><ele>1295.0</ele><time>2026-05-02T12:48:07Z</time></trkpt><trkpt lat="45.777390030291286" lon="7.482367599002012"><ele>1295.0</ele><time>2026-05-02T12:48:08Z</time></trkpt><trkpt lat="45.77753234887263" lon="7.482437634417036"><ele>1295.0</ele><time>2026-05-02T12:48:09Z</time></trkpt><trkpt lat="45.77766757967687" lon="7.482550379851236"><ele>1298.6666666666667</ele><time>2026-05-02T12:48:10Z</time></trkpt><trkpt lat="45.77778219396142" lon="7.482728060300156"><ele>1302.3333333333333</ele><time>2026-05-02T12:48:11Z</time></trkpt><trkpt lat="45.77790795258944" lon="7.482893655411246"><ele>1306.0</ele><time>2026-05-02T12:48:12Z</time></trkpt><trkpt lat="45.77806438413886" lon="7.483032179200895"><ele>1306.0</ele><time>2026-05-02T12:48:13Z</time></trkpt><trkpt lat="45.778235924574645" lon="7.483134967470723"><ele>1306.0</ele><time>2026-05-02T12:48:14Z</time></trkpt><trkpt lat="45.77839275398003" lon="7.483261081409819"><ele>1306.0</ele><time>2026-05-02T12:48:15Z</time></trkpt><trkpt lat="45.77853443485171" lon="7.483409734163324"><ele>1309.6666666666665</ele><time>2026-05-02T12:48:16Z</time></trkpt><trkpt lat="45.77866863240989" lon="7.48358302560698"><ele>1313.3333333333333</ele><time>2026-05-02T12:48:17Z</time></trkpt><trkpt lat="45.77879665080468" lon="7.483743858827104"><ele>1317.0</ele><time>2026-05-02T12:48:18Z</time></trkpt><trkpt lat="45.77894571336205" lon="7.483860461378025"><ele>1317.0</ele><time>2026-05-02T12:48:19Z</time></trkpt><trkpt lat="45.779109183356525" lon="7.483894859638062"><ele>1317.0</ele><time>2026-05-02T12:48:20Z</time></trkpt><trkpt lat="45.7792703082935" lon="7.4838854348502055"><ele>1317.0</ele><time>2026-05-02T12:48:21Z</time></trkpt><trkpt lat="45.77943973494906" lon="7.4839006558811505"><ele>1309.6666666666667</ele><time>2026-05-02T12:48:22Z</time></trkpt><trkpt lat="45.779605266324936" lon="7.483951162109753"><ele>1302.3333333333335</ele><time>2026-05-02T12:48:23Z</time></trkpt><trkpt lat="45.77976078867996" lon="7.484042255350257"><ele>1295.0</ele><time>2026-05-02T12:48:24Z</time></trkpt><trkpt lat="45.77989511905537" lon="7.4841854769611675"><ele>1295.0</ele><time>2026-05-02T12:48:25Z</time></trkpt><trkpt lat="45.78000068515885" lon="7.484347858435539"><ele>1295.0</ele><time>2026-05-02T12:48:26Z</time></trkpt><trkpt lat="45.78011284858023" lon="7.484509103757821"><ele>1295.0</ele><time>2026-05-02T12:48:27Z</time></trkpt><trkpt lat="45.78023435549641" lon="7.484670708875794"><ele>1302.0</ele><time>2026-05-02T12:48:28Z</time></trkpt><trkpt lat="45.78039473436553" lon="7.484749842787799"><ele>1309.0</ele><time>2026-05-02T12:48:29Z</time></trkpt><trkpt lat="45.780560591339636" lon="7.484819929161383"><ele>1316.0</ele><time>2026-05-02T12:48:30Z</time></trkpt><trkpt lat="45.78073020544268" lon="7.484876581665322"><ele>1316.0</ele><time>2026-05-02T12:48:31Z</time></trkpt><trkpt lat="45.7809093808214" lon="7.484923398348165"><ele>1316.0</ele><time>2026-05-02T12:48:32Z</time></trkpt><trkpt lat="45.781091127513875" lon="7.4849545632783"><ele>1316.0</ele><time>2026-05-02T12:48:33Z</time></trkpt><trkpt lat="45.781276092724745" lon="7.484971514578289"><ele>1310.3333333333335</ele><time>2026-05-02T12:48:34Z</time></trkpt><trkpt lat="45.78145534223572" lon="7.484981717069389"><ele>1304.6666666666667</ele><time>2026-05-02T12:48:35Z</time></trkpt><trkpt lat="45.781624614733175" lon="7.485003162754258"><ele>1299.0</ele><time>2026-05-02T12:48:36Z</time></trkpt><trkpt lat="45.7817829434336" lon="7.485055876339855"><ele>1300.25</ele><time>2026-05-02T12:48:37Z</time></trkpt><trkpt lat="45.78190625279869" lon="7.485151776724241"><ele>1301.5</ele><time>2026-05-02T12:48:38Z</time></trkpt><trkpt lat="45.782012241218325" lon="7.485287216641702"><ele>1302.75</ele><time>2026-05-02T12:48:39Z</time></trkpt><trkpt lat="45.78210150233484" lon="7.485462005887341"><ele>1304.0</ele><time>2026-05-02T12:48:40Z</time></trkpt><trkpt lat="45.782182423243384" lon="7.485656967320675"><ele>1304.0</ele><time>2026-05-02T12:48:41Z</time></trkpt><trkpt lat="45.782254281985296" lon="7.485847038600452"><ele>1304.0</ele><time>2026-05-02T12:48:42Z</time></trkpt><trkpt lat="45.78232425075549" lon="7.486016457557208"><ele>1304.0</ele><time>2026-05-02T12:48:43Z</time></trkpt><trkpt lat="45.78239809066935" lon="7.4861702967966"><ele>1304.0</ele><time>2026-05-02T12:48:44Z</time></trkpt><trkpt lat="45.78253029494149" lon="7.486239909696673"><ele>1306.0</ele><time>2026-05-02T12:48:45Z</time></trkpt><trkpt lat="45.782663094021075" lon="7.486296490917532"><ele>1308.0</ele><time>2026-05-02T12:48:46Z</time></trkpt><trkpt lat="45.78280871807283" lon="7.486347732894647"><ele>1310.0</ele><time>2026-05-02T12:48:47Z</time></trkpt><trkpt lat="45.782948552068206" lon="7.486420242210321"><ele>1312.0</ele><time>2026-05-02T12:48:48Z</time></trkpt><trkpt lat="45.783072173970595" lon="7.4865369252313485"><ele>1312.0</ele><time>2026-05-02T12:48:49Z</time></trkpt><trkpt lat="45.78318596370199" lon="7.486691553045539"><ele>1312.0</ele><time>2026-05-02T12:48:50Z</time></trkpt><trkpt lat="45.78329884699177" lon="7.486832146878459"><ele>1312.0</ele><time>2026-05-02T12:48:51Z</time></trkpt><trkpt lat="45.783432020397804" lon="7.486947396718354"><ele>1309.0</ele><time>2026-05-02T12:48:52Z</time></trkpt><trkpt lat="45.783584575303244" lon="7.4870408947898595"><ele>1306.0</ele><time>2026-05-02T12:48:53Z</time></trkpt><trkpt lat="45.7837470947926" lon="7.487106545512045"><ele>1303.0</ele><time>2026-05-02T12:48:54Z</time></trkpt><trkpt lat="45.783919446907746" lon="7.487141821421492"><ele>1312.3333333333333</ele><time>2026-05-02T12:48:55Z</time></trkpt><trkpt lat="45.78410308822494" lon="7.487165235441141"><ele>1321.6666666666667</ele><time>2026-05-02T12:48:56Z</time></trkpt><trkpt lat="45.784289057177695" lon="7.487214208685699"><ele>1331.0</ele><time>2026-05-02T12:48:57Z</time></trkpt><trkpt lat="45.78447757440586" lon="7.487190672958921"><ele>1333.0</ele><time>2026-05-02T12:48:58Z</time></trkpt><trkpt lat="45.784666841184645" lon="7.487188227804698"><ele>1335.0</ele><time>2026-05-02T12:48:59Z</time></trkpt><trkpt lat="45.784860745723506" lon="7.487216346682499"><ele>1337.0</ele><time>2026-05-02T12:49:00Z</time></trkpt><trkpt lat="45.785062427757886" lon="7.4872671691131965"><ele>1337.6666666666667</ele><time>2026-05-02T12:49:01Z</time></trkpt><trkpt lat="45.785268316554045" lon="7.487318107722853"><ele>1338.3333333333333</ele><time>2026-05-02T12:49:02Z</time></trkpt><trkpt lat="45.785471743743976" lon="7.487367655451055"><ele>1339.0</ele><time>2026-05-02T12:49:03Z</time></trkpt><trkpt lat="45.78567541236867" lon="7.487410376410113"><ele>1339.0</ele><time>2026-05-02T12:49:04Z</time></trkpt><trkpt lat="45.78587457574061" lon="7.487447119397468"><ele>1339.0</ele><time>2026-05-02T12:49:05Z</time></trkpt><trkpt lat="45.78605627158532" lon="7.487507188033339"><ele>1339.0</ele><time>2026-05-02T12:49:06Z</time></trkpt><trkpt lat="45.78622609542887" lon="7.487591174505125"><ele>1339.0</ele><time>2026-05-02T12:49:07Z</time></trkpt><trkpt lat="45.78638998530005" lon="7.487716400851234"><ele>1339.0</ele><time>2026-05-02T12:49:08Z</time></trkpt><trkpt lat="45.786538633345224" lon="7.487841619243723"><ele>1339.0</ele><time>2026-05-02T12:49:09Z</time></trkpt><trkpt lat="45.786697838977815" lon="7.487967644845675"><ele>1344.0</ele><time>2026-05-02T12:49:10Z</time></trkpt><trkpt lat="45.7868574813933" lon="7.48809740768929"><ele>1349.0</ele><time>2026-05-02T12:49:11Z</time></trkpt><trkpt lat="45.787021496726595" lon="7.488215453069763"><ele>1354.0</ele><time>2026-05-02T12:49:12Z</time></trkpt><trkpt lat="45.78718438937288" lon="7.48830417306363"><ele>1354.0</ele><time>2026-05-02T12:49:13Z</time></trkpt><trkpt lat="45.787338509405295" lon="7.488363261205806"><ele>1354.0</ele><time>2026-05-02T12:49:14Z</time></trkpt><trkpt lat="45.78748528472212" lon="7.488388960373341"><ele>1354.0</ele><time>2026-05-02T12:49:15Z</time></trkpt><trkpt lat="45.787617689603564" lon="7.488375603944617"><ele>1354.0</ele><time>2026-05-02T12:49:16Z</time></trkpt><trkpt lat="45.787737590241925" lon="7.488322976367637"><ele>1356.6</ele><time>2026-05-02T12:49:17Z</time></trkpt><trkpt lat="45.787841463223586" lon="7.488232127541668"><ele>1359.2</ele><time>2026-05-02T12:49:18Z</time></trkpt><trkpt lat="45.78793079507526" lon="7.488138172017653"><ele>1361.8</ele><time>2026-05-02T12:49:19Z</time></trkpt><trkpt lat="45.78801048354333" lon="7.488047024608359"><ele>1364.3999999999999</ele><time>2026-05-02T12:49:20Z</time></trkpt><trkpt lat="45.78803349829453" lon="7.487903179919655"><ele>1367.0</ele><time>2026-05-02T12:49:21Z</time></trkpt><trkpt lat="45.78798555164711" lon="7.487753597043891"><ele>1363.0</ele><time>2026-05-02T12:49:22Z</time></trkpt><trkpt lat="45.78787792611649" lon="7.487661769415809"><ele>1359.0</ele><time>2026-05-02T12:49:23Z</time></trkpt><trkpt lat="45.78777886120029" lon="7.4875587070981355"><ele>1355.0</ele><time>2026-05-02T12:49:24Z</time></trkpt><trkpt lat="45.78768349149516" lon="7.487477606436547"><ele>1351.0</ele><time>2026-05-02T12:49:25Z</time></trkpt><trkpt lat="45.78760658495197" lon="7.487407226251744"><ele>1351.0</ele><time>2026-05-02T12:49:26Z</time></trkpt><trkpt lat="45.78756104608742" lon="7.487328566198692"><ele>1351.0</ele><time>2026-05-02T12:49:27Z</time></trkpt><trkpt lat="45.78757793335649" lon="7.487233163762642"><ele>1351.0</ele><time>2026-05-02T12:49:28Z</time></trkpt><trkpt lat="45.78769806342906" lon="7.487195155582876"><ele>1351.0</ele><time>2026-05-02T12:49:30Z</time></trkpt><trkpt lat="45.78776643297794" lon="7.487279050083054"><ele>1351.0</ele><time>2026-05-02T12:49:31Z</time></trkpt><trkpt lat="45.78784421367818" lon="7.4873836761314925"><ele>1355.0</ele><time>2026-05-02T12:49:32Z</time></trkpt><trkpt lat="45.787938912863325" lon="7.487501930857847"><ele>1359.0</ele><time>2026-05-02T12:49:33Z</time></trkpt><trkpt lat="45.78804936736381" lon="7.48763887205623"><ele>1363.0</ele><time>2026-05-02T12:49:34Z</time></trkpt><trkpt lat="45.78816442821176" lon="7.487803732253439"><ele>1367.0</ele><time>2026-05-02T12:49:35Z</time></trkpt><trkpt lat="45.788282200611356" lon="7.487985586779046"><ele>1367.0</ele><time>2026-05-02T12:49:36Z</time></trkpt><trkpt lat="45.78840504774851" lon="7.488181198776319"><ele>1367.0</ele><time>2026-05-02T12:49:37Z</time></trkpt><trkpt lat="45.78853163653615" lon="7.488380612968416"><ele>1367.0</ele><time>2026-05-02T12:49:38Z</time></trkpt><trkpt lat="45.78865412466342" lon="7.488592478010932"><ele>1378.0</ele><time>2026-05-02T12:49:39Z</time></trkpt><trkpt lat="45.78876245866988" lon="7.4888081242083215"><ele>1389.0</ele><time>2026-05-02T12:49:40Z</time></trkpt><trkpt lat="45.788850053535505" lon="7.489018322666815"><ele>1400.0</ele><time>2026-05-02T12:49:41Z</time></trkpt><trkpt lat="45.78890850216184" lon="7.489242318237368"><ele>1400.0</ele><time>2026-05-02T12:49:42Z</time></trkpt><trkpt lat="45.78895617352596" lon="7.489470389604521"><ele>1400.0</ele><time>2026-05-02T12:49:43Z</time></trkpt><trkpt lat="45.78900054569535" lon="7.489703027019891"><ele>1400.0</ele><time>2026-05-02T12:49:44Z</time></trkpt><trkpt lat="45.78904893577242" lon="7.489929889898645"><ele>1400.25</ele><time>2026-05-02T12:49:45Z</time></trkpt><trkpt lat="45.78909430530887" lon="7.4901353871206595"><ele>1400.5</ele><time>2026-05-02T12:49:46Z</time></trkpt><trkpt lat="45.78913791668331" lon="7.490314834081913"><ele>1400.75</ele><time>2026-05-02T12:49:47Z</time></trkpt><trkpt lat="45.78918690499795" lon="7.490468453515765"><ele>1401.0</ele><time>2026-05-02T12:49:48Z</time></trkpt><trkpt lat="45.78926345920878" lon="7.490595366411894"><ele>1401.5</ele><time>2026-05-02T12:49:49Z</time></trkpt><trkpt lat="45.78937071321755" lon="7.4906836485433255"><ele>1402.0</ele><time>2026-05-02T12:49:50Z</time></trkpt><trkpt lat="45.78949569176799" lon="7.490765479450728"><ele>1402.5</ele><time>2026-05-02T12:49:51Z</time></trkpt><trkpt lat="45.78962873350764" lon="7.490845626418883"><ele>1403.0</ele><time>2026-05-02T12:49:52Z</time></trkpt><trkpt lat="45.78977890384553" lon="7.490900996341092"><ele>1403.0</ele><time>2026-05-02T12:49:53Z</time></trkpt><trkpt lat="45.78994899658808" lon="7.490930893974535"><ele>1403.0</ele><time>2026-05-02T12:49:54Z</time></trkpt><trkpt lat="45.79012953208267" lon="7.490932746666491"><ele>1403.0</ele><time>2026-05-02T12:49:55Z</time></trkpt><trkpt lat="45.790312174374115" lon="7.490899682493699"><ele>1406.6666666666667</ele><time>2026-05-02T12:49:56Z</time></trkpt><trkpt lat="45.79049089403942" lon="7.490842594136288"><ele>1410.3333333333333</ele><time>2026-05-02T12:49:57Z</time></trkpt><trkpt lat="45.790657264405596" lon="7.490812477726817"><ele>1414.0</ele><time>2026-05-02T12:49:58Z</time></trkpt><trkpt lat="45.79083534124612" lon="7.490820871715828"><ele>1419.3333333333333</ele><time>2026-05-02T12:49:59Z</time></trkpt><trkpt lat="45.791030923867375" lon="7.490853042202457"><ele>1424.6666666666667</ele><time>2026-05-02T12:50:00Z</time></trkpt><trkpt lat="45.791220543708974" lon="7.490912851403306"><ele>1430.0</ele><time>2026-05-02T12:50:01Z</time></trkpt><trkpt lat="45.79139331201761" lon="7.49100809079855"><ele>1430.0</ele><time>2026-05-02T12:50:02Z</time></trkpt><trkpt lat="45.79154449965112" lon="7.491160664564632"><ele>1430.0</ele><time>2026-05-02T12:50:03Z</time></trkpt><trkpt lat="45.79171007024203" lon="7.491291463631019"><ele>1430.0</ele><time>2026-05-02T12:50:04Z</time></trkpt><trkpt lat="45.79186450806789" lon="7.4914468054046965"><ele>1434.3333333333335</ele><time>2026-05-02T12:50:05Z</time></trkpt><trkpt lat="45.792014798820894" lon="7.491616260306972"><ele>1438.6666666666667</ele><time>2026-05-02T12:50:06Z</time></trkpt><trkpt lat="45.792155265831404" lon="7.491805016212723"><ele>1443.0</ele><time>2026-05-02T12:50:07Z</time></trkpt><trkpt lat="45.79227796630556" lon="7.492013789794194"><ele>1449.3333333333333</ele><time>2026-05-02T12:50:08Z</time></trkpt><trkpt lat="45.79240366923978" lon="7.492234882758405"><ele>1455.6666666666665</ele><time>2026-05-02T12:50:09Z</time></trkpt><trkpt lat="45.792547660893604" lon="7.492446552761128"><ele>1462.0</ele><time>2026-05-02T12:50:10Z</time></trkpt><trkpt lat="45.792707504549256" lon="7.49265190575199"><ele>1462.0</ele><time>2026-05-02T12:50:11Z</time></trkpt><trkpt lat="45.79287126249148" lon="7.492860078535"><ele>1462.0</ele><time>2026-05-02T12:50:12Z</time></trkpt><trkpt lat="45.793023615145586" lon="7.4930792482052135"><ele>1462.0</ele><time>2026-05-02T12:50:13Z</time></trkpt><trkpt lat="45.793160356917284" lon="7.493321326741429"><ele>1462.6666666666665</ele><time>2026-05-02T12:50:14Z</time></trkpt><trkpt lat="45.7932844304328" lon="7.493585418607508"><ele>1463.3333333333333</ele><time>2026-05-02T12:50:15Z</time></trkpt><trkpt lat="45.793409752754755" lon="7.493841737043437"><ele>1464.0</ele><time>2026-05-02T12:50:16Z</time></trkpt><trkpt lat="45.79355159473594" lon="7.494096430115145"><ele>1464.0</ele><time>2026-05-02T12:50:17Z</time></trkpt><trkpt lat="45.79369905409223" lon="7.494339967451673"><ele>1464.0</ele><time>2026-05-02T12:50:18Z</time></trkpt><trkpt lat="45.79381246057812" lon="7.494563962165495"><ele>1464.0</ele><time>2026-05-02T12:50:19Z</time></trkpt><trkpt lat="45.79392146183926" lon="7.494753823783134"><ele>1462.0</ele><time>2026-05-02T12:50:20Z</time></trkpt><trkpt lat="45.794009397697955" lon="7.494934776457498"><ele>1460.0</ele><time>2026-05-02T12:50:21Z</time></trkpt><trkpt lat="45.79408515713701" lon="7.49510596174468"><ele>1458.0</ele><time>2026-05-02T12:50:22Z</time></trkpt><trkpt lat="45.794141652330886" lon="7.495269823965486"><ele>1456.0</ele><time>2026-05-02T12:50:23Z</time></trkpt><trkpt lat="45.79418249062164" lon="7.495426776553996"><ele>1456.0</ele><time>2026-05-02T12:50:24Z</time></trkpt><trkpt lat="45.79414918962249" lon="7.495590051971948"><ele>1456.0</ele><time>2026-05-02T12:50:25Z</time></trkpt><trkpt lat="45.794091871944794" lon="7.4957390033769595"><ele>1456.0</ele><time>2026-05-02T12:50:26Z</time></trkpt><trkpt lat="45.794023567133635" lon="7.495925377611874"><ele>1456.0</ele><time>2026-05-02T12:50:27Z</time></trkpt><trkpt lat="45.79395981064031" lon="7.496138916499026"><ele>1457.25</ele><time>2026-05-02T12:50:28Z</time></trkpt><trkpt lat="45.793876923930526" lon="7.496321109973994"><ele>1458.5</ele><time>2026-05-02T12:50:29Z</time></trkpt><trkpt lat="45.79385344774009" lon="7.49652821713427"><ele>1459.75</ele><time>2026-05-02T12:50:30Z</time></trkpt><trkpt lat="45.79385368229451" lon="7.4967280772789175"><ele>1461.0</ele><time>2026-05-02T12:50:31Z</time></trkpt><trkpt lat="45.79389120775208" lon="7.496928856863098"><ele>1462.6666666666667</ele><time>2026-05-02T12:50:32Z</time></trkpt><trkpt lat="45.793971992677825" lon="7.497119185274642"><ele>1464.3333333333335</ele><time>2026-05-02T12:50:33Z</time></trkpt><trkpt lat="45.79408242484852" lon="7.497261663922133"><ele>1466.0</ele><time>2026-05-02T12:50:34Z</time></trkpt><trkpt lat="45.79422503096186" lon="7.497373490124814"><ele>1469.3333333333335</ele><time>2026-05-02T12:50:35Z</time></trkpt><trkpt lat="45.79438598626632" lon="7.49750126593465"><ele>1472.6666666666667</ele><time>2026-05-02T12:50:36Z</time></trkpt><trkpt lat="45.79457224082637" lon="7.497585967764152"><ele>1476.0</ele><time>2026-05-02T12:50:37Z</time></trkpt><trkpt lat="45.79475902364684" lon="7.497706335623507"><ele>1476.0</ele><time>2026-05-02T12:50:38Z</time></trkpt><trkpt lat="45.79490927564917" lon="7.497901913847871"><ele>1476.0</ele><time>2026-05-02T12:50:39Z</time></trkpt><trkpt lat="45.79502783003562" lon="7.498107829850576"><ele>1476.0</ele><time>2026-05-02T12:50:40Z</time></trkpt><trkpt lat="45.79517200526451" lon="7.498276853421432"><ele>1476.0</ele><time>2026-05-02T12:50:41Z</time></trkpt><trkpt lat="45.79535190071814" lon="7.498389797562295"><ele>1476.0</ele><time>2026-05-02T12:50:42Z</time></trkpt><trkpt lat="45.79555261943933" lon="7.498454007160563"><ele>1476.0</ele><time>2026-05-02T12:50:43Z</time></trkpt><trkpt lat="45.79575828206405" lon="7.498556324383295"><ele>1476.0</ele><time>2026-05-02T12:50:44Z</time></trkpt><trkpt lat="45.79596017198503" lon="7.498646954511808"><ele>1476.0</ele><time>2026-05-02T12:50:45Z</time></trkpt><trkpt lat="45.79613218517734" lon="7.498797138351396"><ele>1476.0</ele><time>2026-05-02T12:50:46Z</time></trkpt><trkpt lat="45.79627407464659" lon="7.4989861354877565"><ele>1478.0</ele><time>2026-05-02T12:50:47Z</time></trkpt><trkpt lat="45.79639867687811" lon="7.499219601740897"><ele>1480.0</ele><time>2026-05-02T12:50:48Z</time></trkpt><trkpt lat="45.79652394492543" lon="7.499472158519104"><ele>1482.0</ele><time>2026-05-02T12:50:49Z</time></trkpt><trkpt lat="45.79666792088798" lon="7.49971197346974"><ele>1482.0</ele><time>2026-05-02T12:50:50Z</time></trkpt><trkpt lat="45.796798479437555" lon="7.499963123135354"><ele>1482.0</ele><time>2026-05-02T12:50:51Z</time></trkpt><trkpt lat="45.796900739797486" lon="7.500234906979132"><ele>1482.0</ele><time>2026-05-02T12:50:52Z</time></trkpt><trkpt lat="45.79699214548265" lon="7.500479001442508"><ele>1485.0</ele><time>2026-05-02T12:50:53Z</time></trkpt><trkpt lat="45.79715400810193" lon="7.500668659166638"><ele>1488.0</ele><time>2026-05-02T12:50:54Z</time></trkpt><trkpt lat="45.7972898815425" lon="7.500842233325395"><ele>1491.0</ele><time>2026-05-02T12:50:55Z</time></trkpt><trkpt lat="45.79741543700308" lon="7.50098790759639"><ele>1491.0</ele><time>2026-05-02T12:50:56Z</time></trkpt><trkpt lat="45.797526574527" lon="7.501122254862064"><ele>1491.0</ele><time>2026-05-02T12:50:57Z</time></trkpt><trkpt lat="45.79761361644051" lon="7.501255337124255"><ele>1491.0</ele><time>2026-05-02T12:50:58Z</time></trkpt><trkpt lat="45.797672237998086" lon="7.5013916077849965"><ele>1491.0</ele><time>2026-05-02T12:50:59Z</time></trkpt><trkpt lat="45.797711653170985" lon="7.501511120893811"><ele>1495.4</ele><time>2026-05-02T12:51:00Z</time></trkpt><trkpt lat="45.79775792622267" lon="7.501585042100802"><ele>1499.8</ele><time>2026-05-02T12:51:01Z</time></trkpt><trkpt lat="45.797876637006915" lon="7.501587034888207"><ele>1504.2</ele><time>2026-05-02T12:51:03Z</time></trkpt><trkpt lat="45.79791397159343" lon="7.501453869071399"><ele>1508.6000000000001</ele><time>2026-05-02T12:51:04Z</time></trkpt><trkpt lat="45.79787397794626" lon="7.501321788164589"><ele>1513.0</ele><time>2026-05-02T12:51:05Z</time></trkpt><trkpt lat="45.79783461979883" lon="7.501181812652496"><ele>1519.0</ele><time>2026-05-02T12:51:06Z</time></trkpt><trkpt lat="45.797784662677465" lon="7.501005062229161"><ele>1525.0</ele><time>2026-05-02T12:51:07Z</time></trkpt><trkpt lat="45.79772588377109" lon="7.5007901426201204"><ele>1531.0</ele><time>2026-05-02T12:51:08Z</time></trkpt><trkpt lat="45.79766244640201" lon="7.500561072352965"><ele>1521.6666666666665</ele><time>2026-05-02T12:51:09Z</time></trkpt><trkpt lat="45.79759794384364" lon="7.5003191021362365"><ele>1512.3333333333333</ele><time>2026-05-02T12:51:10Z</time></trkpt><trkpt lat="45.7975074026769" lon="7.500069318516515"><ele>1503.0</ele><time>2026-05-02T12:51:11Z</time></trkpt><trkpt lat="45.797418766567205" lon="7.499796743418431"><ele>1509.6666666666667</ele><time>2026-05-02T12:51:12Z</time></trkpt><trkpt lat="45.79732665932859" lon="7.499574432623792"><ele>1516.3333333333335</ele><time>2026-05-02T12:51:13Z</time></trkpt><trkpt lat="45.7972315108015" lon="7.499374018397725"><ele>1523.0</ele><time>2026-05-02T12:51:14Z</time></trkpt><trkpt lat="45.797169712151415" lon="7.499160402998364"><ele>1523.0</ele><time>2026-05-02T12:51:15Z</time></trkpt><trkpt lat="45.79712978762916" lon="7.4989291921423415"><ele>1523.0</ele><time>2026-05-02T12:51:16Z</time></trkpt><trkpt lat="45.79708547274503" lon="7.4986895235332796"><ele>1523.0</ele><time>2026-05-02T12:51:17Z</time></trkpt><trkpt lat="45.79703150173932" lon="7.498445690478014"><ele>1530.6666666666667</ele><time>2026-05-02T12:51:18Z</time></trkpt><trkpt lat="45.79697800756736" lon="7.498200976892268"><ele>1538.3333333333335</ele><time>2026-05-02T12:51:19Z</time></trkpt><trkpt lat="45.7969324669447" lon="7.497951510322586"><ele>1546.0</ele><time>2026-05-02T12:51:20Z</time></trkpt><trkpt lat="45.79691375019949" lon="7.497707074469266"><ele>1542.6666666666667</ele><time>2026-05-02T12:51:21Z</time></trkpt><trkpt lat="45.796891611043236" lon="7.497471647254795"><ele>1539.3333333333335</ele><time>2026-05-02T12:51:22Z</time></trkpt><trkpt lat="45.79683432640479" lon="7.497262382114106"><ele>1536.0</ele><time>2026-05-02T12:51:23Z</time></trkpt><trkpt lat="45.79673810172925" lon="7.4970829988329974"><ele>1536.0</ele><time>2026-05-02T12:51:24Z</time></trkpt><trkpt lat="45.79663013769543" lon="7.496903372317074"><ele>1536.0</ele><time>2026-05-02T12:51:25Z</time></trkpt><trkpt lat="45.79653157852516" lon="7.496703481352984"><ele>1536.0</ele><time>2026-05-02T12:51:26Z</time></trkpt><trkpt lat="45.796405760156084" lon="7.496522771171017"><ele>1536.0</ele><time>2026-05-02T12:51:27Z</time></trkpt><trkpt lat="45.79629110672964" lon="7.4963243599894005"><ele>1536.0</ele><time>2026-05-02T12:51:28Z</time></trkpt><trkpt lat="45.796190844711305" lon="7.496130207580927"><ele>1536.0</ele><time>2026-05-02T12:51:29Z</time></trkpt><trkpt lat="45.796067305664025" lon="7.496002459165001"><ele>1534.25</ele><time>2026-05-02T12:51:30Z</time></trkpt><trkpt lat="45.7959653939758" lon="7.495880485891072"><ele>1532.5</ele><time>2026-05-02T12:51:31Z</time></trkpt><trkpt lat="45.79589246831566" lon="7.495748210113421"><ele>1530.75</ele><time>2026-05-02T12:51:32Z</time></trkpt><trkpt lat="45.79584468968694" lon="7.4955895192417845"><ele>1529.0</ele><time>2026-05-02T12:51:33Z</time></trkpt><trkpt lat="45.79580863829675" lon="7.495411895824515"><ele>1529.0</ele><time>2026-05-02T12:51:34Z</time></trkpt><trkpt lat="45.795766929730526" lon="7.495219897479239"><ele>1529.0</ele><time>2026-05-02T12:51:35Z</time></trkpt><trkpt lat="45.79571753272149" lon="7.495031766496293"><ele>1529.0</ele><time>2026-05-02T12:51:36Z</time></trkpt><trkpt lat="45.795675689778555" lon="7.494855301602054"><ele>1529.0</ele><time>2026-05-02T12:51:37Z</time></trkpt><trkpt lat="45.79565459288001" lon="7.494679338372037"><ele>1532.25</ele><time>2026-05-02T12:51:38Z</time></trkpt><trkpt lat="45.79566028564029" lon="7.494496522671023"><ele>1535.5</ele><time>2026-05-02T12:51:39Z</time></trkpt><trkpt lat="45.79569602026771" lon="7.494315336273053"><ele>1538.75</ele><time>2026-05-02T12:51:40Z</time></trkpt><trkpt lat="45.795732294496716" lon="7.4941501085337086"><ele>1542.0</ele><time>2026-05-02T12:51:41Z</time></trkpt><trkpt lat="45.79575217544934" lon="7.493973102906227"><ele>1542.0</ele><time>2026-05-02T12:51:42Z</time></trkpt><trkpt lat="45.7957013061612" lon="7.4938005679631825"><ele>1542.0</ele><time>2026-05-02T12:51:43Z</time></trkpt><trkpt lat="45.7956136547976" lon="7.493649703845046"><ele>1542.0</ele><time>2026-05-02T12:51:44Z</time></trkpt><trkpt lat="45.79549999729895" lon="7.493544880129661"><ele>1542.0</ele><time>2026-05-02T12:51:45Z</time></trkpt><trkpt lat="45.795405225493084" lon="7.493431965863493"><ele>1548.25</ele><time>2026-05-02T12:51:46Z</time></trkpt><trkpt lat="45.79534690093711" lon="7.49329063775274"><ele>1554.5</ele><time>2026-05-02T12:51:47Z</time></trkpt><trkpt lat="45.795319403337494" lon="7.493109000763367"><ele>1560.75</ele><time>2026-05-02T12:51:48Z</time></trkpt><trkpt lat="45.795292756164585" lon="7.492915537383141"><ele>1567.0</ele><time>2026-05-02T12:51:49Z</time></trkpt><trkpt lat="45.79526435186553" lon="7.4927182668874455"><ele>1568.5</ele><time>2026-05-02T12:51:50Z</time></trkpt><trkpt lat="45.79523810484781" lon="7.492521770480287"><ele>1570.0</ele><time>2026-05-02T12:51:51Z</time></trkpt><trkpt lat="45.79521421349063" lon="7.492335800143356"><ele>1571.5</ele><time>2026-05-02T12:51:52Z</time></trkpt><trkpt lat="45.79513608569361" lon="7.4921597430409035"><ele>1573.0</ele><time>2026-05-02T12:51:53Z</time></trkpt><trkpt lat="45.79503953978038" lon="7.492000050163258"><ele>1573.0</ele><time>2026-05-02T12:51:54Z</time></trkpt><trkpt lat="45.79493435318727" lon="7.491831127303524"><ele>1573.0</ele><time>2026-05-02T12:51:55Z</time></trkpt><trkpt lat="45.794824348089094" lon="7.491654558213789"><ele>1573.0</ele><time>2026-05-02T12:51:56Z</time></trkpt><trkpt lat="45.79470783826668" lon="7.491467150153668"><ele>1573.0</ele><time>2026-05-02T12:51:57Z</time></trkpt><trkpt lat="45.794592323885254" lon="7.4912734928298"><ele>1573.0</ele><time>2026-05-02T12:51:58Z</time></trkpt><trkpt lat="45.794487818079276" lon="7.491094976484438"><ele>1573.0</ele><time>2026-05-02T12:51:59Z</time></trkpt><trkpt lat="45.79438685135308" lon="7.490928398003046"><ele>1569.3333333333335</ele><time>2026-05-02T12:52:00Z</time></trkpt><trkpt lat="45.79427224466837" lon="7.490784088991249"><ele>1565.6666666666665</ele><time>2026-05-02T12:52:01Z</time></trkpt><trkpt lat="45.79412521529385" lon="7.49068862162748"><ele>1562.0</ele><time>2026-05-02T12:52:02Z</time></trkpt><trkpt lat="45.79400203256901" lon="7.490569529683662"><ele>1562.0</ele><time>2026-05-02T12:52:03Z</time></trkpt><trkpt lat="45.79387941974072" lon="7.490444846562983"><ele>1562.0</ele><time>2026-05-02T12:52:04Z</time></trkpt><trkpt lat="45.79378303582879" lon="7.4902809896126366"><ele>1562.0</ele><time>2026-05-02T12:52:05Z</time></trkpt><trkpt lat="45.79365163209313" lon="7.490167650411976"><ele>1567.3333333333333</ele><time>2026-05-02T12:52:06Z</time></trkpt><trkpt lat="45.79349224570628" lon="7.490147534945734"><ele>1572.6666666666665</ele><time>2026-05-02T12:52:07Z</time></trkpt><trkpt lat="45.793353648801414" lon="7.490099443802887"><ele>1578.0</ele><time>2026-05-02T12:52:08Z</time></trkpt><trkpt lat="45.79322112918923" lon="7.4899859477035"><ele>1578.0</ele><time>2026-05-02T12:52:09Z</time></trkpt><trkpt lat="45.793077070442195" lon="7.489891436117362"><ele>1578.0</ele><time>2026-05-02T12:52:10Z</time></trkpt><trkpt lat="45.792943201246814" lon="7.489754520577207"><ele>1578.0</ele><time>2026-05-02T12:52:11Z</time></trkpt><trkpt lat="45.792811234202325" lon="7.489613645576206"><ele>1583.0</ele><time>2026-05-02T12:52:12Z</time></trkpt><trkpt lat="45.79267710497906" lon="7.48947840473762"><ele>1588.0</ele><time>2026-05-02T12:52:13Z</time></trkpt><trkpt lat="45.79255848302159" lon="7.489330873110466"><ele>1593.0</ele><time>2026-05-02T12:52:14Z</time></trkpt><trkpt lat="45.79243052122784" lon="7.489220281069327"><ele>1593.0</ele><time>2026-05-02T12:52:15Z</time></trkpt><trkpt lat="45.792292164627064" lon="7.4891669814805955"><ele>1593.0</ele><time>2026-05-02T12:52:16Z</time></trkpt><trkpt lat="45.792179534380686" lon="7.489050568527676"><ele>1593.0</ele><time>2026-05-02T12:52:17Z</time></trkpt><trkpt lat="45.792075557437144" lon="7.488902585761876"><ele>1593.0</ele><time>2026-05-02T12:52:18Z</time></trkpt><trkpt lat="45.791987165572905" lon="7.48876620157314"><ele>1598.5</ele><time>2026-05-02T12:52:19Z</time></trkpt><trkpt lat="45.79192693153062" lon="7.488623711018006"><ele>1604.0</ele><time>2026-05-02T12:52:20Z</time></trkpt><trkpt lat="45.79190171666237" lon="7.488472753292184"><ele>1609.5</ele><time>2026-05-02T12:52:21Z</time></trkpt><trkpt lat="45.79190810806644" lon="7.488316405157287"><ele>1615.0</ele><time>2026-05-02T12:52:22Z</time></trkpt><trkpt lat="45.79192525287938" lon="7.488136194338297"><ele>1615.0</ele><time>2026-05-02T12:52:23Z</time></trkpt><trkpt lat="45.79194593659011" lon="7.487939676883002"><ele>1615.0</ele><time>2026-05-02T12:52:24Z</time></trkpt><trkpt lat="45.791960167115306" lon="7.487715736882222"><ele>1615.0</ele><time>2026-05-02T12:52:25Z</time></trkpt><trkpt lat="45.79198756885089" lon="7.487477532601427"><ele>1615.6666666666667</ele><time>2026-05-02T12:52:26Z</time></trkpt><trkpt lat="45.79203445801029" lon="7.487242346223174"><ele>1616.3333333333335</ele><time>2026-05-02T12:52:27Z</time></trkpt><trkpt lat="45.79210231767733" lon="7.487003715871683"><ele>1617.0</ele><time>2026-05-02T12:52:28Z</time></trkpt><trkpt lat="45.792170552513966" lon="7.4867534455098355"><ele>1613.0</ele><time>2026-05-02T12:52:29Z</time></trkpt><trkpt lat="45.79224682245134" lon="7.486486724824621"><ele>1609.0</ele><time>2026-05-02T12:52:30Z</time></trkpt><trkpt lat="45.79232595455605" lon="7.486214927347926"><ele>1605.0</ele><time>2026-05-02T12:52:31Z</time></trkpt><trkpt lat="45.79239967899239" lon="7.485932316516349"><ele>1600.3333333333335</ele><time>2026-05-02T12:52:32Z</time></trkpt><trkpt lat="45.79246211873359" lon="7.4856572716466765"><ele>1595.6666666666667</ele><time>2026-05-02T12:52:33Z</time></trkpt><trkpt lat="45.792509473681704" lon="7.485397350030762"><ele>1591.0</ele><time>2026-05-02T12:52:34Z</time></trkpt><trkpt lat="45.7925424250189" lon="7.4851480469315845"><ele>1591.25</ele><time>2026-05-02T12:52:35Z</time></trkpt><trkpt lat="45.79256330908141" lon="7.484918115079372"><ele>1591.5</ele><time>2026-05-02T12:52:36Z</time></trkpt><trkpt lat="45.79257697163124" lon="7.484694794681706"><ele>1591.75</ele><time>2026-05-02T12:52:37Z</time></trkpt><trkpt lat="45.79259632116141" lon="7.484508436531467"><ele>1592.0</ele><time>2026-05-02T12:52:38Z</time></trkpt><trkpt lat="45.79256260207746" lon="7.484311749890266"><ele>1592.0</ele><time>2026-05-02T12:52:39Z</time></trkpt><trkpt lat="45.79245709295423" lon="7.484148759274365"><ele>1592.0</ele><time>2026-05-02T12:52:40Z</time></trkpt><trkpt lat="45.79230862570369" lon="7.484088479209252"><ele>1592.0</ele><time>2026-05-02T12:52:41Z</time></trkpt><trkpt lat="45.792189230203554" lon="7.484063089730015"><ele>1592.0</ele><time>2026-05-02T12:52:42Z</time></trkpt><trkpt lat="45.79206249007968" lon="7.48402225433057"><ele>1592.0</ele><time>2026-05-02T12:52:43Z</time></trkpt><trkpt lat="45.79193628554145" lon="7.483964931035874"><ele>1592.0</ele><time>2026-05-02T12:52:44Z</time></trkpt><trkpt lat="45.79184088220565" lon="7.48384016649838"><ele>1592.0</ele><time>2026-05-02T12:52:45Z</time></trkpt><trkpt lat="45.7917784319863" lon="7.483681427433943"><ele>1592.0</ele><time>2026-05-02T12:52:46Z</time></trkpt><trkpt lat="45.79172956629968" lon="7.483516090583869"><ele>1592.5</ele><time>2026-05-02T12:52:47Z</time></trkpt><trkpt lat="45.79167128987529" lon="7.483356859370707"><ele>1593.0</ele><time>2026-05-02T12:52:48Z</time></trkpt><trkpt lat="45.79155474319193" lon="7.483255945799212"><ele>1593.5</ele><time>2026-05-02T12:52:49Z</time></trkpt><trkpt lat="45.79141106432794" lon="7.483220020202665"><ele>1594.0</ele><time>2026-05-02T12:52:50Z</time></trkpt><trkpt lat="45.79126896889474" lon="7.483251969927723"><ele>1594.0</ele><time>2026-05-02T12:52:51Z</time></trkpt><trkpt lat="45.7911340303155" lon="7.483272024354133"><ele>1594.0</ele><time>2026-05-02T12:52:52Z</time></trkpt><trkpt lat="45.79099437148921" lon="7.483203963266808"><ele>1594.0</ele><time>2026-05-02T12:52:53Z</time></trkpt><trkpt lat="45.790848642830724" lon="7.483083230653205"><ele>1591.3333333333335</ele><time>2026-05-02T12:52:54Z</time></trkpt><trkpt lat="45.79069849847888" lon="7.482976921533776"><ele>1588.6666666666665</ele><time>2026-05-02T12:52:55Z</time></trkpt><trkpt lat="45.79054126339015" lon="7.482865717220422"><ele>1586.0</ele><time>2026-05-02T12:52:56Z</time></trkpt><trkpt lat="45.79039700236967" lon="7.482759113222192"><ele>1590.75</ele><time>2026-05-02T12:52:57Z</time></trkpt><trkpt lat="45.79026798674707" lon="7.482669374465476"><ele>1595.5</ele><time>2026-05-02T12:52:58Z</time></trkpt><trkpt lat="45.79013266103855" lon="7.482612362698814"><ele>1600.25</ele><time>2026-05-02T12:52:59Z</time></trkpt><trkpt lat="45.789982330537704" lon="7.482662207036769"><ele>1605.0</ele><time>2026-05-02T12:53:00Z</time></trkpt><trkpt lat="45.78983553556416" lon="7.482744338307729"><ele>1605.0</ele><time>2026-05-02T12:53:01Z</time></trkpt><trkpt lat="45.78968838929602" lon="7.482906463665435"><ele>1605.0</ele><time>2026-05-02T12:53:02Z</time></trkpt><trkpt lat="45.7895985647741" lon="7.483082213842779"><ele>1605.0</ele><time>2026-05-02T12:53:03Z</time></trkpt><trkpt lat="45.789506965572095" lon="7.483177114240423"><ele>1602.75</ele><time>2026-05-02T12:53:04Z</time></trkpt><trkpt lat="45.78940691617876" lon="7.483221330802156"><ele>1600.5</ele><time>2026-05-02T12:53:05Z</time></trkpt><trkpt lat="45.78928972125123" lon="7.483231514218849"><ele>1598.25</ele><time>2026-05-02T12:53:06Z</time></trkpt><trkpt lat="45.789157977908616" lon="7.48324325171366"><ele>1596.0</ele><time>2026-05-02T12:53:07Z</time></trkpt><trkpt lat="45.78902481115468" lon="7.483278495187848"><ele>1596.0</ele><time>2026-05-02T12:53:08Z</time></trkpt><trkpt lat="45.788880092489414" lon="7.483382203206158"><ele>1596.0</ele><time>2026-05-02T12:53:09Z</time></trkpt><trkpt lat="45.78875611433404" lon="7.483509294894888"><ele>1596.0</ele><time>2026-05-02T12:53:10Z</time></trkpt><trkpt lat="45.78863724807464" lon="7.483598203163037"><ele>1596.0</ele><time>2026-05-02T12:53:11Z</time></trkpt><trkpt lat="45.78851417876733" lon="7.4836432804562865"><ele>1598.0</ele><time>2026-05-02T12:53:12Z</time></trkpt><trkpt lat="45.78837940018002" lon="7.483680255865385"><ele>1600.0</ele><time>2026-05-02T12:53:13Z</time></trkpt><trkpt lat="45.78826672033519" lon="7.483701669718912"><ele>1602.0</ele><time>2026-05-02T12:53:14Z</time></trkpt><trkpt lat="45.788166384306194" lon="7.483705245893388"><ele>1604.0</ele><time>2026-05-02T12:53:15Z</time></trkpt><trkpt lat="45.78806983080799" lon="7.483665399797141"><ele>1604.0</ele><time>2026-05-02T12:53:16Z</time></trkpt><trkpt lat="45.78799229933538" lon="7.483574127786175"><ele>1604.0</ele><time>2026-05-02T12:53:17Z</time></trkpt><trkpt lat="45.78791580004061" lon="7.483458951209887"><ele>1604.0</ele><time>2026-05-02T12:53:18Z</time></trkpt><trkpt lat="45.7878314045035" lon="7.483329436790441"><ele>1604.0</ele><time>2026-05-02T12:53:19Z</time></trkpt><trkpt lat="45.78772941811354" lon="7.483171382062245"><ele>1604.25</ele><time>2026-05-02T12:53:20Z</time></trkpt><trkpt lat="45.7876345288217" lon="7.483024510326505"><ele>1604.5</ele><time>2026-05-02T12:53:21Z</time></trkpt><trkpt lat="45.78754536974689" lon="7.482886444912942"><ele>1604.75</ele><time>2026-05-02T12:53:22Z</time></trkpt><trkpt lat="45.78744759514462" lon="7.48273503942021"><ele>1605.0</ele><time>2026-05-02T12:53:23Z</time></trkpt><trkpt lat="45.787343534842776" lon="7.48257460513786"><ele>1605.0</ele><time>2026-05-02T12:53:24Z</time></trkpt><trkpt lat="45.787237411760984" lon="7.48241471356462"><ele>1605.0</ele><time>2026-05-02T12:53:25Z</time></trkpt><trkpt lat="45.787126159265995" lon="7.482247093691829"><ele>1605.0</ele><time>2026-05-02T12:53:26Z</time></trkpt><trkpt lat="45.787001125360256" lon="7.482092412921265"><ele>1605.6666666666665</ele><time>2026-05-02T12:53:27Z</time></trkpt><trkpt lat="45.78690142059707" lon="7.481909385831479"><ele>1606.3333333333333</ele><time>2026-05-02T12:53:28Z</time></trkpt><trkpt lat="45.78679318033166" lon="7.481771380414879"><ele>1607.0</ele><time>2026-05-02T12:53:29Z</time></trkpt><trkpt lat="45.786696846934944" lon="7.481620140842802"><ele>1607.0</ele><time>2026-05-02T12:53:30Z</time></trkpt><trkpt lat="45.786604485171225" lon="7.481478350518866"><ele>1607.0</ele><time>2026-05-02T12:53:31Z</time></trkpt><trkpt lat="45.786520411288535" lon="7.481330343893342"><ele>1607.0</ele><time>2026-05-02T12:53:32Z</time></trkpt><trkpt lat="45.786454226350166" lon="7.4811642952420465"><ele>1607.0</ele><time>2026-05-02T12:53:33Z</time></trkpt><trkpt lat="45.78639533589718" lon="7.480993838241141"><ele>1610.25</ele><time>2026-05-02T12:53:34Z</time></trkpt><trkpt lat="45.786354273172954" lon="7.4808126586236865"><ele>1613.5</ele><time>2026-05-02T12:53:35Z</time></trkpt><trkpt lat="45.78631304113526" lon="7.480630719774509"><ele>1616.75</ele><time>2026-05-02T12:53:36Z</time></trkpt><trkpt lat="45.78626803023556" lon="7.480450227187565"><ele>1620.0</ele><time>2026-05-02T12:53:37Z</time></trkpt><trkpt lat="45.786227384871005" lon="7.4802851950054485"><ele>1620.75</ele><time>2026-05-02T12:53:38Z</time></trkpt><trkpt lat="45.78619577102681" lon="7.480119720096382"><ele>1621.5</ele><time>2026-05-02T12:53:39Z</time></trkpt><trkpt lat="45.786183479325" lon="7.479949455919719"><ele>1622.25</ele><time>2026-05-02T12:53:40Z</time></trkpt><trkpt lat="45.786186820024895" lon="7.479782866597322"><ele>1623.0</ele><time>2026-05-02T12:53:41Z</time></trkpt><trkpt lat="45.7861888305724" lon="7.479610794132829"><ele>1623.0</ele><time>2026-05-02T12:53:42Z</time></trkpt><trkpt lat="45.78619243439393" lon="7.479434633228828"><ele>1623.0</ele><time>2026-05-02T12:53:43Z</time></trkpt><trkpt lat="45.786196425770825" lon="7.479250159041528"><ele>1623.0</ele><time>2026-05-02T12:53:44Z</time></trkpt><trkpt lat="45.786200870614934" lon="7.479065793690926"><ele>1623.0</ele><time>2026-05-02T12:53:45Z</time></trkpt><trkpt lat="45.78620198241508" lon="7.478879738622153"><ele>1623.6000000000001</ele><time>2026-05-02T12:53:46Z</time></trkpt><trkpt lat="45.7862071585943" lon="7.478699952936731"><ele>1624.2</ele><time>2026-05-02T12:53:47Z</time></trkpt><trkpt lat="45.786222459258326" lon="7.478538545921963"><ele>1624.8</ele><time>2026-05-02T12:53:48Z</time></trkpt><trkpt lat="45.7862622452087" lon="7.478405118123453"><ele>1625.4</ele><time>2026-05-02T12:53:49Z</time></trkpt><trkpt lat="45.78632504762201" lon="7.478288611275809"><ele>1626.0</ele><time>2026-05-02T12:53:50Z</time></trkpt><trkpt lat="45.786405129682876" lon="7.478189008716393"><ele>1626.0</ele><time>2026-05-02T12:53:51Z</time></trkpt><trkpt lat="45.78648855929564" lon="7.478116969399579"><ele>1626.0</ele><time>2026-05-02T12:53:52Z</time></trkpt><trkpt lat="45.786578588047874" lon="7.478036067515643"><ele>1626.0</ele><time>2026-05-02T12:53:53Z</time></trkpt><trkpt lat="45.786670529941" lon="7.477950731208915"><ele>1626.0</ele><time>2026-05-02T12:53:54Z</time></trkpt><trkpt lat="45.78676800871013" lon="7.4778682096716915"><ele>1626.0</ele><time>2026-05-02T12:53:55Z</time></trkpt><trkpt lat="45.786865226772335" lon="7.477788757038279"><ele>1626.6</ele><time>2026-05-02T12:53:56Z</time></trkpt><trkpt lat="45.7869624754938" lon="7.477710719091373"><ele>1627.1999999999998</ele><time>2026-05-02T12:53:57Z</time></trkpt><trkpt lat="45.78705693872959" lon="7.477634042701842"><ele>1627.8000000000002</ele><time>2026-05-02T12:53:58Z</time></trkpt><trkpt lat="45.78715704853804" lon="7.477559225271685"><ele>1628.4</ele><time>2026-05-02T12:53:59Z</time></trkpt><trkpt lat="45.787259920359034" lon="7.4774878149066755"><ele>1629.0</ele><time>2026-05-02T12:54:00Z</time></trkpt><trkpt lat="45.78736236578435" lon="7.477418265098604"><ele>1629.0</ele><time>2026-05-02T12:54:01Z</time></trkpt><trkpt lat="45.78746696355628" lon="7.477358806696632"><ele>1629.0</ele><time>2026-05-02T12:54:02Z</time></trkpt><trkpt lat="45.78756892652513" lon="7.477302906452896"><ele>1629.0</ele><time>2026-05-02T12:54:03Z</time></trkpt><trkpt lat="45.78767033460537" lon="7.477244385918281"><ele>1629.0</ele><time>2026-05-02T12:54:04Z</time></trkpt><trkpt lat="45.78777377258371" lon="7.4771888855023025"><ele>1629.0</ele><time>2026-05-02T12:54:05Z</time></trkpt><trkpt lat="45.78787467590013" lon="7.477136448552785"><ele>1630.0</ele><time>2026-05-02T12:54:06Z</time></trkpt><trkpt lat="45.78798194232183" lon="7.477107771093787"><ele>1631.0</ele><time>2026-05-02T12:54:07Z</time></trkpt><trkpt lat="45.788085765743496" lon="7.477029357322242"><ele>1632.0</ele><time>2026-05-02T12:54:08Z</time></trkpt><trkpt lat="45.788195680733004" lon="7.476970336483298"><ele>1633.0</ele><time>2026-05-02T12:54:09Z</time></trkpt><trkpt lat="45.78830760317987" lon="7.476918704772133"><ele>1633.0</ele><time>2026-05-02T12:54:10Z</time></trkpt><trkpt lat="45.78841548725762" lon="7.476862183691118"><ele>1633.0</ele><time>2026-05-02T12:54:11Z</time></trkpt><trkpt lat="45.788528221005194" lon="7.476802422913798"><ele>1633.0</ele><time>2026-05-02T12:54:12Z</time></trkpt><trkpt lat="45.78864013470415" lon="7.476744469516766"><ele>1633.0</ele><time>2026-05-02T12:54:13Z</time></trkpt><trkpt lat="45.78874509901106" lon="7.476659152218339"><ele>1633.0</ele><time>2026-05-02T12:54:14Z</time></trkpt><trkpt lat="45.78883376861288" lon="7.476547992860222"><ele>1633.0</ele><time>2026-05-02T12:54:15Z</time></trkpt><trkpt lat="45.78892135838252" lon="7.476431633857501"><ele>1633.0</ele><time>2026-05-02T12:54:16Z</time></trkpt><trkpt lat="45.789011498251234" lon="7.476321178182817"><ele>1633.0</ele><time>2026-05-02T12:54:17Z</time></trkpt><trkpt lat="45.78911106441648" lon="7.47621195942653"><ele>1633.0</ele><time>2026-05-02T12:54:18Z</time></trkpt><trkpt lat="45.78921780327673" lon="7.476112206990565"><ele>1633.0</ele><time>2026-05-02T12:54:19Z</time></trkpt><trkpt lat="45.78931848229664" lon="7.476025960045929"><ele>1633.0</ele><time>2026-05-02T12:54:20Z</time></trkpt><trkpt lat="45.789413278311706" lon="7.475940316222979"><ele>1633.0</ele><time>2026-05-02T12:54:21Z</time></trkpt><trkpt lat="45.789514688761514" lon="7.475849568993535"><ele>1633.4</ele><time>2026-05-02T12:54:22Z</time></trkpt><trkpt lat="45.78961056235057" lon="7.475759873986313"><ele>1633.8000000000002</ele><time>2026-05-02T12:54:23Z</time></trkpt><trkpt lat="45.78971445377595" lon="7.475689957576704"><ele>1634.2</ele><time>2026-05-02T12:54:24Z</time></trkpt><trkpt lat="45.78979976946307" lon="7.475587423641064"><ele>1634.6</ele><time>2026-05-02T12:54:25Z</time></trkpt><trkpt lat="45.78986445238355" lon="7.475462312653402"><ele>1635.0</ele><time>2026-05-02T12:54:26Z</time></trkpt><trkpt lat="45.78990992661492" lon="7.475333175552161"><ele>1635.0</ele><time>2026-05-02T12:54:27Z</time></trkpt><trkpt lat="45.789943117629065" lon="7.475216248598816"><ele>1635.0</ele><time>2026-05-02T12:54:28Z</time></trkpt><trkpt lat="45.78997373083076" lon="7.475101654291746"><ele>1635.0</ele><time>2026-05-02T12:54:29Z</time></trkpt><trkpt lat="45.78998919080212" lon="7.474988873382444"><ele>1635.0</ele><time>2026-05-02T12:54:30Z</time></trkpt><trkpt lat="45.790028096158444" lon="7.474890992599106"><ele>1635.0</ele><time>2026-05-02T12:54:31Z</time></trkpt><trkpt lat="45.790057936322356" lon="7.474784460462342"><ele>1635.0</ele><time>2026-05-02T12:54:32Z</time></trkpt><trkpt lat="45.790089144663675" lon="7.4746746545956455"><ele>1636.1666666666667</ele><time>2026-05-02T12:54:33Z</time></trkpt><trkpt lat="45.790130126790125" lon="7.474576621038835"><ele>1637.3333333333335</ele><time>2026-05-02T12:54:34Z</time></trkpt><trkpt lat="45.79017548821643" lon="7.474494312159902"><ele>1638.5</ele><time>2026-05-02T12:54:35Z</time></trkpt><trkpt lat="45.79023273741378" lon="7.474423589304769"><ele>1639.6666666666667</ele><time>2026-05-02T12:54:36Z</time></trkpt><trkpt lat="45.7902997080428" lon="7.474370202361661"><ele>1640.8333333333335</ele><time>2026-05-02T12:54:37Z</time></trkpt><trkpt lat="45.790381773928935" lon="7.474357333636811"><ele>1642.0</ele><time>2026-05-02T12:54:38Z</time></trkpt><trkpt lat="45.79045552381522" lon="7.474302553288674"><ele>1642.0000000000002</ele><time>2026-05-02T12:54:39Z</time></trkpt><trkpt lat="45.790514145359616" lon="7.474249690613014"><ele>1642.0</ele><time>2026-05-02T12:54:40Z</time></trkpt><trkpt lat="45.79057941586578" lon="7.474174554531717"><ele>1642.0</ele><time>2026-05-02T12:54:41Z</time></trkpt><trkpt lat="45.790635060691855" lon="7.474090109298972"><ele>1642.0</ele><time>2026-05-02T12:54:42Z</time></trkpt><trkpt lat="45.79067246453652" lon="7.4739963251019335"><ele>1642.0000000000002</ele><time>2026-05-02T12:54:43Z</time></trkpt><trkpt lat="45.79073097970187" lon="7.473927671800608"><ele>1642.0</ele><time>2026-05-02T12:54:44Z</time></trkpt><trkpt lat="45.7907715677362" lon="7.473837270035975"><ele>1638.8333333333335</ele><time>2026-05-02T12:54:45Z</time></trkpt><trkpt lat="45.790801241107225" lon="7.473726089689937"><ele>1635.6666666666667</ele><time>2026-05-02T12:54:46Z</time></trkpt><trkpt lat="45.79080997660055" lon="7.4736079379392235"><ele>1632.5</ele><time>2026-05-02T12:54:47Z</time></trkpt><trkpt lat="45.7908107547394" lon="7.4734975129966035"><ele>1629.3333333333335</ele><time>2026-05-02T12:54:48Z</time></trkpt><trkpt lat="45.790816972438975" lon="7.473400188545391"><ele>1626.1666666666667</ele><time>2026-05-02T12:54:49Z</time></trkpt><trkpt lat="45.79081518749534" lon="7.473308273459618"><ele>1623.0</ele><time>2026-05-02T12:54:50Z</time></trkpt><trkpt lat="45.79086609630557" lon="7.473167567680362"><ele>1623.0</ele><time>2026-05-02T12:54:52Z</time></trkpt><trkpt lat="45.79092270899374" lon="7.473104500116382"><ele>1623.0</ele><time>2026-05-02T12:54:53Z</time></trkpt><trkpt lat="45.790999113954605" lon="7.473076999967915"><ele>1623.0</ele><time>2026-05-02T12:54:54Z</time></trkpt><trkpt lat="45.79109410110575" lon="7.473049640497726"><ele>1623.0</ele><time>2026-05-02T12:54:55Z</time></trkpt><trkpt lat="45.79119208213776" lon="7.472992379397479"><ele>1623.0</ele><time>2026-05-02T12:54:56Z</time></trkpt><trkpt lat="45.791289012870784" lon="7.472930729214348"><ele>1622.0</ele><time>2026-05-02T12:54:57Z</time></trkpt><trkpt lat="45.79137388635033" lon="7.472855014687327"><ele>1621.0</ele><time>2026-05-02T12:54:58Z</time></trkpt><trkpt lat="45.791440762317784" lon="7.472777455195195"><ele>1620.0</ele><time>2026-05-02T12:54:59Z</time></trkpt><trkpt lat="45.79150400809151" lon="7.472706523898106"><ele>1619.0</ele><time>2026-05-02T12:55:00Z</time></trkpt><trkpt lat="45.79156830961009" lon="7.472640752587433"><ele>1618.0</ele><time>2026-05-02T12:55:01Z</time></trkpt><trkpt lat="45.79163598325282" lon="7.472590710071284"><ele>1617.0</ele><time>2026-05-02T12:55:02Z</time></trkpt><trkpt lat="45.791713936515414" lon="7.472568207996844"><ele>1617.0</ele><time>2026-05-02T12:55:03Z</time></trkpt><trkpt lat="45.791797510399235" lon="7.472569880127044"><ele>1617.0</ele><time>2026-05-02T12:55:04Z</time></trkpt><trkpt lat="45.7918834183854" lon="7.47257100230869"><ele>1617.0</ele><time>2026-05-02T12:55:05Z</time></trkpt><trkpt lat="45.791974661856614" lon="7.472559259020492"><ele>1617.0</ele><time>2026-05-02T12:55:06Z</time></trkpt><trkpt lat="45.79206251020366" lon="7.472547690606989"><ele>1617.0</ele><time>2026-05-02T12:55:07Z</time></trkpt><trkpt lat="45.792154179661416" lon="7.472524433956591"><ele>1617.0</ele><time>2026-05-02T12:55:08Z</time></trkpt><trkpt lat="45.79224775245694" lon="7.472501547353139"><ele>1620.3999999999999</ele><time>2026-05-02T12:55:09Z</time></trkpt><trkpt lat="45.79234394152771" lon="7.472473436475901"><ele>1623.8</ele><time>2026-05-02T12:55:10Z</time></trkpt><trkpt lat="45.79244994246464" lon="7.472427663241498"><ele>1627.2</ele><time>2026-05-02T12:55:11Z</time></trkpt><trkpt lat="45.792561691014726" lon="7.472385771947713"><ele>1630.6</ele><time>2026-05-02T12:55:12Z</time></trkpt><trkpt lat="45.79268482871425" lon="7.472353996252639"><ele>1634.0</ele><time>2026-05-02T12:55:13Z</time></trkpt><trkpt lat="45.79280583814075" lon="7.47231108741265"><ele>1638.25</ele><time>2026-05-02T12:55:14Z</time></trkpt><trkpt lat="45.79291726067713" lon="7.47227303501434"><ele>1642.5</ele><time>2026-05-02T12:55:15Z</time></trkpt><trkpt lat="45.79302261044996" lon="7.472234101642803"><ele>1646.75</ele><time>2026-05-02T12:55:16Z</time></trkpt><trkpt lat="45.79312544407997" lon="7.472169174326183"><ele>1651.0</ele><time>2026-05-02T12:55:17Z</time></trkpt><trkpt lat="45.7932352557027" lon="7.47211927465288"><ele>1651.0</ele><time>2026-05-02T12:55:18Z</time></trkpt><trkpt lat="45.793357975431285" lon="7.472112901054963"><ele>1651.0</ele><time>2026-05-02T12:55:19Z</time></trkpt><trkpt lat="45.793466232239794" lon="7.472082677261366"><ele>1651.0</ele><time>2026-05-02T12:55:20Z</time></trkpt><trkpt lat="45.79356064912441" lon="7.471999259136135"><ele>1651.0</ele><time>2026-05-02T12:55:21Z</time></trkpt><trkpt lat="45.7936315127729" lon="7.471898070721406"><ele>1651.0</ele><time>2026-05-02T12:55:22Z</time></trkpt><trkpt lat="45.79369932451391" lon="7.471865275209093"><ele>1644.25</ele><time>2026-05-02T12:55:23Z</time></trkpt><trkpt lat="45.793799039323936" lon="7.471873244796602"><ele>1637.5</ele><time>2026-05-02T12:55:24Z</time></trkpt><trkpt lat="45.79393007589324" lon="7.471861569322618"><ele>1630.75</ele><time>2026-05-02T12:55:25Z</time></trkpt><trkpt lat="45.79403011688761" lon="7.471817754689444"><ele>1624.0</ele><time>2026-05-02T12:55:26Z</time></trkpt><trkpt lat="45.79414495187626" lon="7.471837594712328"><ele>1624.0</ele><time>2026-05-02T12:55:27Z</time></trkpt><trkpt lat="45.79425622144756" lon="7.471853167592178"><ele>1624.0</ele><time>2026-05-02T12:55:28Z</time></trkpt><trkpt lat="45.79434975874468" lon="7.47187919460328"><ele>1624.0</ele><time>2026-05-02T12:55:29Z</time></trkpt><trkpt lat="45.79444413699501" lon="7.471905638972988"><ele>1624.0</ele><time>2026-05-02T12:55:30Z</time></trkpt><trkpt lat="45.7945175800023" lon="7.471853756947992"><ele>1624.0</ele><time>2026-05-02T12:55:31Z</time></trkpt><trkpt lat="45.79456401689997" lon="7.471770739458141"><ele>1623.8333333333335</ele><time>2026-05-02T12:55:32Z</time></trkpt><trkpt lat="45.79459741172749" lon="7.471669281857823"><ele>1623.6666666666667</ele><time>2026-05-02T12:55:33Z</time></trkpt><trkpt lat="45.794622228564734" lon="7.471563074286372"><ele>1623.5</ele><time>2026-05-02T12:55:34Z</time></trkpt><trkpt lat="45.79465228780072" lon="7.471441749799963"><ele>1623.3333333333335</ele><time>2026-05-02T12:55:35Z</time></trkpt><trkpt lat="45.794698760470986" lon="7.471334138158933"><ele>1623.1666666666667</ele><time>2026-05-02T12:55:36Z</time></trkpt><trkpt lat="45.79474848451046" lon="7.471229162273019"><ele>1623.0</ele><time>2026-05-02T12:55:37Z</time></trkpt><trkpt lat="45.79481648021015" lon="7.471153126965479"><ele>1623.0</ele><time>2026-05-02T12:55:38Z</time></trkpt><trkpt lat="45.79489611205838" lon="7.471072854778047"><ele>1623.0</ele><time>2026-05-02T12:55:39Z</time></trkpt><trkpt lat="45.794981542831295" lon="7.470998021511696"><ele>1623.0</ele><time>2026-05-02T12:55:40Z</time></trkpt><trkpt lat="45.79505933255143" lon="7.470905492660935"><ele>1623.0</ele><time>2026-05-02T12:55:41Z</time></trkpt><trkpt lat="45.795129503967985" lon="7.470801814857813"><ele>1623.0</ele><time>2026-05-02T12:55:42Z</time></trkpt><trkpt lat="45.79520790829696" lon="7.470689400886267"><ele>1623.5</ele><time>2026-05-02T12:55:43Z</time></trkpt><trkpt lat="45.7952976117946" lon="7.470583868508074"><ele>1624.0</ele><time>2026-05-02T12:55:44Z</time></trkpt><trkpt lat="45.795389978550645" lon="7.470492227115785"><ele>1624.5</ele><time>2026-05-02T12:55:45Z</time></trkpt><trkpt lat="45.79549248767754" lon="7.470400798207249"><ele>1625.0</ele><time>2026-05-02T12:55:46Z</time></trkpt><trkpt lat="45.79558506480511" lon="7.470319944346919"><ele>1625.0</ele><time>2026-05-02T12:55:47Z</time></trkpt><trkpt lat="45.79566793458934" lon="7.470238149754437"><ele>1625.0</ele><time>2026-05-02T12:55:48Z</time></trkpt><trkpt lat="45.79574186378857" lon="7.4701561479851755"><ele>1625.0</ele><time>2026-05-02T12:55:49Z</time></trkpt><trkpt lat="45.79580157078954" lon="7.470053653653242"><ele>1625.0</ele><time>2026-05-02T12:55:50Z</time></trkpt><trkpt lat="45.7958573929183" lon="7.469946536776841"><ele>1625.0</ele><time>2026-05-02T12:55:51Z</time></trkpt><trkpt lat="45.79590962900387" lon="7.469836186487913"><ele>1624.9999999999998</ele><time>2026-05-02T12:55:52Z</time></trkpt><trkpt lat="45.79597621043333" lon="7.469732278826771"><ele>1625.0</ele><time>2026-05-02T12:55:53Z</time></trkpt><trkpt lat="45.796052882146874" lon="7.469648767589159"><ele>1625.0</ele><time>2026-05-02T12:55:54Z</time></trkpt><trkpt lat="45.796128679594744" lon="7.469578185824092"><ele>1625.0</ele><time>2026-05-02T12:55:55Z</time></trkpt><trkpt lat="45.796204593089556" lon="7.469522283329212"><ele>1624.9999999999998</ele><time>2026-05-02T12:55:56Z</time></trkpt><trkpt lat="45.79627516705042" lon="7.469472531797065"><ele>1625.0</ele><time>2026-05-02T12:55:57Z</time></trkpt><trkpt lat="45.796343822157816" lon="7.469440314098053"><ele>1626.8</ele><time>2026-05-02T12:55:58Z</time></trkpt><trkpt lat="45.796469560714584" lon="7.469408227538687"><ele>1628.6</ele><time>2026-05-02T12:56:00Z</time></trkpt><trkpt lat="45.79655160425835" lon="7.469319286716741"><ele>1630.4</ele><time>2026-05-02T12:56:02Z</time></trkpt><trkpt lat="45.79658610477229" lon="7.469185461612647"><ele>1632.2</ele><time>2026-05-02T12:56:04Z</time></trkpt><trkpt lat="45.7965627032304" lon="7.469031047743839"><ele>1634.0</ele><time>2026-05-02T12:56:06Z</time></trkpt><trkpt lat="45.79644399864782" lon="7.468937260722883"><ele>1633.9999999999998</ele><time>2026-05-02T12:56:08Z</time></trkpt><trkpt lat="45.796375239037374" lon="7.46891939560736"><ele>1634.0</ele><time>2026-05-02T12:56:09Z</time></trkpt><trkpt lat="45.796307031949226" lon="7.468902069399752"><ele>1634.0</ele><time>2026-05-02T12:56:10Z</time></trkpt><trkpt lat="45.79623444786642" lon="7.468884222983297"><ele>1634.0</ele><time>2026-05-02T12:56:11Z</time></trkpt><trkpt lat="45.796146045209774" lon="7.468876478949938"><ele>1633.9999999999998</ele><time>2026-05-02T12:56:12Z</time></trkpt><trkpt lat="45.7960500646675" lon="7.468875763733391"><ele>1634.0</ele><time>2026-05-02T12:56:13Z</time></trkpt><trkpt lat="45.79594747434164" lon="7.468874999260496"><ele>1636.8000000000002</ele><time>2026-05-02T12:56:14Z</time></trkpt><trkpt lat="45.79584083250788" lon="7.4688742045945675"><ele>1639.6000000000001</ele><time>2026-05-02T12:56:15Z</time></trkpt><trkpt lat="45.7957434754066" lon="7.468866639163117"><ele>1642.4</ele><time>2026-05-02T12:56:16Z</time></trkpt><trkpt lat="45.79565435943467" lon="7.4688335943225885"><ele>1645.2</ele><time>2026-05-02T12:56:17Z</time></trkpt><trkpt lat="45.79556415735648" lon="7.468783254277084"><ele>1648.0</ele><time>2026-05-02T12:56:18Z</time></trkpt><trkpt lat="45.79547222000869" lon="7.468724290667902"><ele>1648.0</ele><time>2026-05-02T12:56:19Z</time></trkpt><trkpt lat="45.795374920359556" lon="7.468665086001441"><ele>1648.0</ele><time>2026-05-02T12:56:20Z</time></trkpt><trkpt lat="45.79526634390911" lon="7.468629387508409"><ele>1648.0</ele><time>2026-05-02T12:56:21Z</time></trkpt><trkpt lat="45.79515957575474" lon="7.4686090131362395"><ele>1648.0</ele><time>2026-05-02T12:56:22Z</time></trkpt><trkpt lat="45.79504289337865" lon="7.468584074780507"><ele>1648.0</ele><time>2026-05-02T12:56:23Z</time></trkpt><trkpt lat="45.794907193310195" lon="7.4685536226965334"><ele>1643.3333333333335</ele><time>2026-05-02T12:56:24Z</time></trkpt><trkpt lat="45.794742996008694" lon="7.468517253114389"><ele>1638.6666666666665</ele><time>2026-05-02T12:56:25Z</time></trkpt><trkpt lat="45.79455729388952" lon="7.468471039565888"><ele>1634.0</ele><time>2026-05-02T12:56:26Z</time></trkpt><trkpt lat="45.79437879453588" lon="7.4684126824785935"><ele>1630.25</ele><time>2026-05-02T12:56:27Z</time></trkpt><trkpt lat="45.79422695359122" lon="7.468358283281761"><ele>1626.5</ele><time>2026-05-02T12:56:28Z</time></trkpt><trkpt lat="45.79408555217704" lon="7.468303923825616"><ele>1622.75</ele><time>2026-05-02T12:56:29Z</time></trkpt><trkpt lat="45.793949317837345" lon="7.468252662393278"><ele>1619.0</ele><time>2026-05-02T12:56:30Z</time></trkpt><trkpt lat="45.7938203055715" lon="7.468208705063202"><ele>1619.0</ele><time>2026-05-02T12:56:31Z</time></trkpt><trkpt lat="45.793696957188466" lon="7.468179607709486"><ele>1619.0</ele><time>2026-05-02T12:56:32Z</time></trkpt><trkpt lat="45.793575086708955" lon="7.46815944343504"><ele>1619.0</ele><time>2026-05-02T12:56:33Z</time></trkpt><trkpt lat="45.79345664763963" lon="7.46814198789606"><ele>1619.0</ele><time>2026-05-02T12:56:34Z</time></trkpt><trkpt lat="45.793340091785964" lon="7.468142875821166"><ele>1615.4</ele><time>2026-05-02T12:56:35Z</time></trkpt><trkpt lat="45.79323569515257" lon="7.468097539027346"><ele>1611.8000000000002</ele><time>2026-05-02T12:56:36Z</time></trkpt><trkpt lat="45.79314795206513" lon="7.468025837400054"><ele>1608.1999999999998</ele><time>2026-05-02T12:56:37Z</time></trkpt><trkpt lat="45.79308088186894" lon="7.46792469817993"><ele>1604.6</ele><time>2026-05-02T12:56:38Z</time></trkpt><trkpt lat="45.793045223947914" lon="7.4678040816031235"><ele>1601.0</ele><time>2026-05-02T12:56:39Z</time></trkpt><trkpt lat="45.793042128403854" lon="7.467671351411515"><ele>1607.3333333333333</ele><time>2026-05-02T12:56:40Z</time></trkpt><trkpt lat="45.79304411912936" lon="7.467538173056853"><ele>1613.6666666666665</ele><time>2026-05-02T12:56:41Z</time></trkpt><trkpt lat="45.79302365283871" lon="7.467417511630891"><ele>1620.0</ele><time>2026-05-02T12:56:42Z</time></trkpt><trkpt lat="45.792982818124486" lon="7.467334987892805"><ele>1626.3333333333335</ele><time>2026-05-02T12:56:43Z</time></trkpt><trkpt lat="45.79293954704397" lon="7.4672614095159835"><ele>1632.6666666666667</ele><time>2026-05-02T12:56:44Z</time></trkpt><trkpt lat="45.79285774305049" lon="7.4671460004624315"><ele>1639.0</ele><time>2026-05-02T12:56:46Z</time></trkpt><trkpt lat="45.79280542750089" lon="7.467061734204135"><ele>1635.1666666666667</ele><time>2026-05-02T12:56:47Z</time></trkpt><trkpt lat="45.79272274438855" lon="7.467058412714003"><ele>1631.3333333333335</ele><time>2026-05-02T12:56:48Z</time></trkpt><trkpt lat="45.792657776353636" lon="7.467150128539918"><ele>1627.5</ele><time>2026-05-02T12:56:49Z</time></trkpt><trkpt lat="45.79262957615187" lon="7.467269570662885"><ele>1623.6666666666665</ele><time>2026-05-02T12:56:50Z</time></trkpt><trkpt lat="45.79259071294304" lon="7.467340854214896"><ele>1619.8333333333333</ele><time>2026-05-02T12:56:51Z</time></trkpt><trkpt lat="45.79246661290769" lon="7.46734971603351"><ele>1616.0</ele><time>2026-05-02T12:56:53Z</time></trkpt><trkpt lat="45.792366403804714" lon="7.467354391920746"><ele>1615.9999999999998</ele><time>2026-05-02T12:56:54Z</time></trkpt><trkpt lat="45.79225926963927" lon="7.467343828376469"><ele>1616.0</ele><time>2026-05-02T12:56:55Z</time></trkpt><trkpt lat="45.79217449821628" lon="7.467350005729771"><ele>1616.0</ele><time>2026-05-02T12:56:56Z</time></trkpt><trkpt lat="45.7920921208217" lon="7.4673425961832365"><ele>1616.0</ele><time>2026-05-02T12:56:57Z</time></trkpt><trkpt lat="45.79201396152474" lon="7.467395117339282"><ele>1615.9999999999998</ele><time>2026-05-02T12:56:58Z</time></trkpt><trkpt lat="45.79195234873242" lon="7.4674857633510525"><ele>1616.0</ele><time>2026-05-02T12:56:59Z</time></trkpt><trkpt lat="45.79184112120855" lon="7.4675606010151645"><ele>1616.4999999999998</ele><time>2026-05-02T12:57:01Z</time></trkpt><trkpt lat="45.791768914035615" lon="7.467539875514419"><ele>1617.0</ele><time>2026-05-02T12:57:02Z</time></trkpt><trkpt lat="45.79168487130682" lon="7.46755795431807"><ele>1617.5</ele><time>2026-05-02T12:57:03Z</time></trkpt><trkpt lat="45.79160235304774" lon="7.4675583555514855"><ele>1618.0</ele><time>2026-05-02T12:57:04Z</time></trkpt><trkpt lat="45.791520755145044" lon="7.46755951077579"><ele>1618.4999999999998</ele><time>2026-05-02T12:57:05Z</time></trkpt><trkpt lat="45.7914414570628" lon="7.467540903807608"><ele>1619.0</ele><time>2026-05-02T12:57:06Z</time></trkpt><trkpt lat="45.79137223486641" lon="7.467487445606723"><ele>1618.9999999999998</ele><time>2026-05-02T12:57:07Z</time></trkpt><trkpt lat="45.791312545346294" lon="7.467408791275248"><ele>1619.0</ele><time>2026-05-02T12:57:08Z</time></trkpt><trkpt lat="45.79124483684655" lon="7.467327514407221"><ele>1619.0</ele><time>2026-05-02T12:57:09Z</time></trkpt><trkpt lat="45.79116248876599" lon="7.467267326045644"><ele>1619.0</ele><time>2026-05-02T12:57:10Z</time></trkpt><trkpt lat="45.79107783131961" lon="7.467245706054263"><ele>1618.9999999999998</ele><time>2026-05-02T12:57:11Z</time></trkpt><trkpt lat="45.79097932161617" lon="7.467215453846998"><ele>1619.0</ele><time>2026-05-02T12:57:12Z</time></trkpt><trkpt lat="45.790865685238366" lon="7.467219293987637"><ele>1617.4999999999998</ele><time>2026-05-02T12:57:13Z</time></trkpt><trkpt lat="45.790748146489825" lon="7.467225593593876"><ele>1616.0</ele><time>2026-05-02T12:57:14Z</time></trkpt><trkpt lat="45.7906525660464" lon="7.467235379583952"><ele>1614.5</ele><time>2026-05-02T12:57:15Z</time></trkpt><trkpt lat="45.79056599027313" lon="7.46724698082911"><ele>1613.0</ele><time>2026-05-02T12:57:16Z</time></trkpt><trkpt lat="45.790491392927386" lon="7.46727622854645"><ele>1611.4999999999998</ele><time>2026-05-02T12:57:17Z</time></trkpt><trkpt lat="45.79043180402048" lon="7.467233704995094"><ele>1610.0</ele><time>2026-05-02T12:57:18Z</time></trkpt><trkpt lat="45.790383841132986" lon="7.467162569095424"><ele>1614.4</ele><time>2026-05-02T12:57:19Z</time></trkpt><trkpt lat="45.790372534183184" lon="7.467055548058598"><ele>1618.8</ele><time>2026-05-02T12:57:20Z</time></trkpt><trkpt lat="45.790371340486054" lon="7.466946771586902"><ele>1623.1999999999998</ele><time>2026-05-02T12:57:21Z</time></trkpt><trkpt lat="45.7903240655594" lon="7.466864002588305"><ele>1627.6</ele><time>2026-05-02T12:57:22Z</time></trkpt><trkpt lat="45.79024174238575" lon="7.466806174990218"><ele>1632.0</ele><time>2026-05-02T12:57:23Z</time></trkpt><trkpt lat="45.790107445569305" lon="7.466814856898097"><ele>1632.0</ele><time>2026-05-02T12:57:25Z</time></trkpt><trkpt lat="45.79003041200051" lon="7.466840622635548"><ele>1632.0</ele><time>2026-05-02T12:57:26Z</time></trkpt><trkpt lat="45.789955028542344" lon="7.466886468795285"><ele>1632.0</ele><time>2026-05-02T12:57:27Z</time></trkpt><trkpt lat="45.78986942043438" lon="7.4669005180823556"><ele>1632.0</ele><time>2026-05-02T12:57:28Z</time></trkpt><trkpt lat="45.789788849703555" lon="7.46690544221784"><ele>1632.0</ele><time>2026-05-02T12:57:29Z</time></trkpt><trkpt lat="45.789710785066795" lon="7.466916266342427"><ele>1632.0</ele><time>2026-05-02T12:57:30Z</time></trkpt><trkpt lat="45.789626305104264" lon="7.466927232654856"><ele>1632.0</ele><time>2026-05-02T12:57:31Z</time></trkpt><trkpt lat="45.78953954666369" lon="7.466936972907708"><ele>1632.0</ele><time>2026-05-02T12:57:32Z</time></trkpt><trkpt lat="45.78944318128359" lon="7.4669667449016295"><ele>1632.0</ele><time>2026-05-02T12:57:33Z</time></trkpt><trkpt lat="45.789344508293425" lon="7.466993951778991"><ele>1632.0</ele><time>2026-05-02T12:57:34Z</time></trkpt><trkpt lat="45.78925371375945" lon="7.467008836353477"><ele>1632.0</ele><time>2026-05-02T12:57:35Z</time></trkpt><trkpt lat="45.789171158682855" lon="7.466989441011751"><ele>1630.0</ele><time>2026-05-02T12:57:36Z</time></trkpt><trkpt lat="45.78909635367564" lon="7.466937070781231"><ele>1628.0</ele><time>2026-05-02T12:57:37Z</time></trkpt><trkpt lat="45.78902786145576" lon="7.466871990972031"><ele>1626.0</ele><time>2026-05-02T12:57:38Z</time></trkpt><trkpt lat="45.78897051174004" lon="7.466793146996429"><ele>1624.0</ele><time>2026-05-02T12:57:39Z</time></trkpt><trkpt lat="45.78891307535595" lon="7.466713968172607"><ele>1622.0</ele><time>2026-05-02T12:57:40Z</time></trkpt><trkpt lat="45.78885713500764" lon="7.466643765376347"><ele>1620.0</ele><time>2026-05-02T12:57:41Z</time></trkpt><trkpt lat="45.78880914472612" lon="7.466570537160783"><ele>1620.0</ele><time>2026-05-02T12:57:42Z</time></trkpt><trkpt lat="45.78878881922691" lon="7.466469098112591"><ele>1620.0</ele><time>2026-05-02T12:57:43Z</time></trkpt><trkpt lat="45.788802764278294" lon="7.466366488717985"><ele>1620.0</ele><time>2026-05-02T12:57:44Z</time></trkpt><trkpt lat="45.7888309120881" lon="7.466256856854027"><ele>1620.0</ele><time>2026-05-02T12:57:45Z</time></trkpt><trkpt lat="45.7888553092861" lon="7.4661409457867"><ele>1620.0</ele><time>2026-05-02T12:57:46Z</time></trkpt><trkpt lat="45.78888842230024" lon="7.466020285752899"><ele>1620.0</ele><time>2026-05-02T12:57:47Z</time></trkpt><trkpt lat="45.78891510420218" lon="7.465899874871621"><ele>1622.3333333333333</ele><time>2026-05-02T12:57:48Z</time></trkpt><trkpt lat="45.78893949579306" lon="7.465778633412157"><ele>1624.6666666666665</ele><time>2026-05-02T12:57:49Z</time></trkpt><trkpt lat="45.788974828250716" lon="7.4656691602751115"><ele>1627.0</ele><time>2026-05-02T12:57:50Z</time></trkpt><trkpt lat="45.788990717817" lon="7.46554778587135"><ele>1629.3333333333333</ele><time>2026-05-02T12:57:51Z</time></trkpt><trkpt lat="45.78899993934757" lon="7.465431980773563"><ele>1631.6666666666665</ele><time>2026-05-02T12:57:52Z</time></trkpt><trkpt lat="45.78901007537989" lon="7.465314218454445"><ele>1634.0</ele><time>2026-05-02T12:57:53Z</time></trkpt><trkpt lat="45.78902008521705" lon="7.465204022938724"><ele>1635.4999999999998</ele><time>2026-05-02T12:57:54Z</time></trkpt><trkpt lat="45.78903717475969" lon="7.4650890665731895"><ele>1637.0</ele><time>2026-05-02T12:57:55Z</time></trkpt><trkpt lat="45.7890437942854" lon="7.464998042585475"><ele>1638.5</ele><time>2026-05-02T12:57:56Z</time></trkpt><trkpt lat="45.78904467552467" lon="7.464899562827027"><ele>1640.0</ele><time>2026-05-02T12:57:57Z</time></trkpt><trkpt lat="45.788996282683904" lon="7.4647840335234825"><ele>1641.4999999999998</ele><time>2026-05-02T12:57:58Z</time></trkpt><trkpt lat="45.788886958581095" lon="7.464719404810147"><ele>1643.0</ele><time>2026-05-02T12:57:59Z</time></trkpt><trkpt lat="45.78879684161766" lon="7.46474898148423"><ele>1643.0</ele><time>2026-05-02T12:58:00Z</time></trkpt><trkpt lat="45.78875587062834" lon="7.46485013190721"><ele>1643.0</ele><time>2026-05-02T12:58:01Z</time></trkpt><trkpt lat="45.78865700013288" lon="7.464985497078541"><ele>1643.0</ele><time>2026-05-02T12:58:03Z</time></trkpt><trkpt lat="45.788587790895626" lon="7.4650612740894395"><ele>1643.0</ele><time>2026-05-02T12:58:04Z</time></trkpt><trkpt lat="45.788508997426085" lon="7.465131871297438"><ele>1643.0</ele><time>2026-05-02T12:58:05Z</time></trkpt><trkpt lat="45.78842596366446" lon="7.465199578633726"><ele>1642.6000000000001</ele><time>2026-05-02T12:58:06Z</time></trkpt><trkpt lat="45.788333708378566" lon="7.4652720631361795"><ele>1642.2</ele><time>2026-05-02T12:58:07Z</time></trkpt><trkpt lat="45.78824302366128" lon="7.4653439848308505"><ele>1641.8</ele><time>2026-05-02T12:58:08Z</time></trkpt><trkpt lat="45.78816113289515" lon="7.4654345928923656"><ele>1641.4</ele><time>2026-05-02T12:58:09Z</time></trkpt><trkpt lat="45.788063653087875" lon="7.4655037468314545"><ele>1641.0</ele><time>2026-05-02T12:58:10Z</time></trkpt><trkpt lat="45.7879763000261" lon="7.465580148040832"><ele>1640.0</ele><time>2026-05-02T12:58:11Z</time></trkpt><trkpt lat="45.78788443090983" lon="7.465653496769559"><ele>1639.0</ele><time>2026-05-02T12:58:12Z</time></trkpt><trkpt lat="45.78779173933736" lon="7.465725086692661"><ele>1638.0</ele><time>2026-05-02T12:58:13Z</time></trkpt><trkpt lat="45.78770477815997" lon="7.4657799734844845"><ele>1637.0</ele><time>2026-05-02T12:58:14Z</time></trkpt><trkpt lat="45.78763624846943" lon="7.4658462531496905"><ele>1636.0</ele><time>2026-05-02T12:58:15Z</time></trkpt><trkpt lat="45.78757962259387" lon="7.465938829978121"><ele>1636.0</ele><time>2026-05-02T12:58:16Z</time></trkpt><trkpt lat="45.787534332854506" lon="7.466050687046296"><ele>1636.0</ele><time>2026-05-02T12:58:17Z</time></trkpt><trkpt lat="45.787491687398955" lon="7.466184467781261"><ele>1636.0</ele><time>2026-05-02T12:58:18Z</time></trkpt><trkpt lat="45.787430378342265" lon="7.466336563422603"><ele>1636.0</ele><time>2026-05-02T12:58:19Z</time></trkpt><trkpt lat="45.787337657997895" lon="7.466473209796857"><ele>1636.0</ele><time>2026-05-02T12:58:20Z</time></trkpt><trkpt lat="45.787223422531284" lon="7.466602284470475"><ele>1636.25</ele><time>2026-05-02T12:58:21Z</time></trkpt><trkpt lat="45.78710993106087" lon="7.466728565610708"><ele>1636.5</ele><time>2026-05-02T12:58:22Z</time></trkpt><trkpt lat="45.78699687008259" lon="7.466829699772923"><ele>1636.75</ele><time>2026-05-02T12:58:23Z</time></trkpt><trkpt lat="45.78688685454138" lon="7.466937370560447"><ele>1637.0</ele><time>2026-05-02T12:58:24Z</time></trkpt><trkpt lat="45.78677874576118" lon="7.467046236081342"><ele>1628.8</ele><time>2026-05-02T12:58:25Z</time></trkpt><trkpt lat="45.78667898421339" lon="7.46715277297777"><ele>1620.6</ele><time>2026-05-02T12:58:26Z</time></trkpt><trkpt lat="45.786580704804486" lon="7.467240362194537"><ele>1612.3999999999999</ele><time>2026-05-02T12:58:27Z</time></trkpt><trkpt lat="45.78649364923013" lon="7.467325319489715"><ele>1604.1999999999998</ele><time>2026-05-02T12:58:28Z</time></trkpt><trkpt lat="45.78641161684712" lon="7.467399806496563"><ele>1596.0</ele><time>2026-05-02T12:58:29Z</time></trkpt><trkpt lat="45.78633920378304" lon="7.467465828087849"><ele>1596.0</ele><time>2026-05-02T12:58:30Z</time></trkpt><trkpt lat="45.78625858855965" lon="7.467528123689374"><ele>1596.0</ele><time>2026-05-02T12:58:31Z</time></trkpt><trkpt lat="45.78616796070354" lon="7.467564228757222"><ele>1596.0</ele><time>2026-05-02T12:58:32Z</time></trkpt><trkpt lat="45.786077589979605" lon="7.46759192541496"><ele>1596.0</ele><time>2026-05-02T12:58:33Z</time></trkpt><trkpt lat="45.785992056103154" lon="7.467563538997412"><ele>1596.0</ele><time>2026-05-02T12:58:34Z</time></trkpt><trkpt lat="45.785910402792595" lon="7.4674776526486815"><ele>1596.1999999999998</ele><time>2026-05-02T12:58:35Z</time></trkpt><trkpt lat="45.78580995931572" lon="7.4674312256754245"><ele>1596.3999999999999</ele><time>2026-05-02T12:58:36Z</time></trkpt><trkpt lat="45.78571917879144" lon="7.467387019692934"><ele>1596.6</ele><time>2026-05-02T12:58:37Z</time></trkpt><trkpt lat="45.78563014825203" lon="7.467339781615172"><ele>1596.8</ele><time>2026-05-02T12:58:38Z</time></trkpt><trkpt lat="45.78553208166909" lon="7.467352838072425"><ele>1597.0</ele><time>2026-05-02T12:58:39Z</time></trkpt><trkpt lat="45.785435367086755" lon="7.467395356577029"><ele>1597.0</ele><time>2026-05-02T12:58:40Z</time></trkpt><trkpt lat="45.78533750666059" lon="7.4673976745984145"><ele>1597.0</ele><time>2026-05-02T12:58:41Z</time></trkpt><trkpt lat="45.78524468060664" lon="7.467416672415818"><ele>1597.0</ele><time>2026-05-02T12:58:42Z</time></trkpt><trkpt lat="45.78515738482252" lon="7.467454543343838"><ele>1597.0</ele><time>2026-05-02T12:58:43Z</time></trkpt><trkpt lat="45.78506605851501" lon="7.467470399996018"><ele>1597.0</ele><time>2026-05-02T12:58:44Z</time></trkpt><trkpt lat="45.784975355234494" lon="7.467509003066513"><ele>1597.8</ele><time>2026-05-02T12:58:45Z</time></trkpt><trkpt lat="45.784890005653075" lon="7.467534626149987"><ele>1598.6</ele><time>2026-05-02T12:58:46Z</time></trkpt><trkpt lat="45.784784954576715" lon="7.467579414218724"><ele>1599.3999999999999</ele><time>2026-05-02T12:58:47Z</time></trkpt><trkpt lat="45.784680608966866" lon="7.467611423187499"><ele>1600.1999999999998</ele><time>2026-05-02T12:58:48Z</time></trkpt><trkpt lat="45.7845868750477" lon="7.46767311546544"><ele>1601.0</ele><time>2026-05-02T12:58:49Z</time></trkpt><trkpt lat="45.78450494611499" lon="7.4677490751298015"><ele>1601.0</ele><time>2026-05-02T12:58:50Z</time></trkpt><trkpt lat="45.784438585495586" lon="7.467837136514642"><ele>1601.0</ele><time>2026-05-02T12:58:51Z</time></trkpt><trkpt lat="45.784384436349725" lon="7.467943000166496"><ele>1601.0</ele><time>2026-05-02T12:58:52Z</time></trkpt><trkpt lat="45.784331647272246" lon="7.468079580996315"><ele>1601.0</ele><time>2026-05-02T12:58:53Z</time></trkpt><trkpt lat="45.784279736092955" lon="7.468215568237592"><ele>1601.0</ele><time>2026-05-02T12:58:54Z</time></trkpt><trkpt lat="45.78422589863651" lon="7.468351796183454"><ele>1602.0</ele><time>2026-05-02T12:58:55Z</time></trkpt><trkpt lat="45.784159418328905" lon="7.468505039107539"><ele>1603.0</ele><time>2026-05-02T12:58:56Z</time></trkpt><trkpt lat="45.78410897960917" lon="7.468642230806703"><ele>1604.0</ele><time>2026-05-02T12:58:57Z</time></trkpt><trkpt lat="45.78404718919043" lon="7.468780998316911"><ele>1605.0</ele><time>2026-05-02T12:58:58Z</time></trkpt><trkpt lat="45.783965920942606" lon="7.468889596310786"><ele>1597.4</ele><time>2026-05-02T12:58:59Z</time></trkpt><trkpt lat="45.78388006576079" lon="7.4689977170142"><ele>1589.8</ele><time>2026-05-02T12:59:00Z</time></trkpt><trkpt lat="45.78380566043241" lon="7.469119784901475"><ele>1582.1999999999998</ele><time>2026-05-02T12:59:01Z</time></trkpt><trkpt lat="45.783731241280286" lon="7.469205831884546"><ele>1574.6</ele><time>2026-05-02T12:59:02Z</time></trkpt><trkpt lat="45.78364926906687" lon="7.469247295828586"><ele>1567.0</ele><time>2026-05-02T12:59:03Z</time></trkpt><trkpt lat="45.78356522196493" lon="7.469230336533492"><ele>1570.8</ele><time>2026-05-02T12:59:04Z</time></trkpt><trkpt lat="45.78346646897497" lon="7.469195934091608"><ele>1574.6</ele><time>2026-05-02T12:59:05Z</time></trkpt><trkpt lat="45.78336018652644" lon="7.469191946366033"><ele>1578.3999999999999</ele><time>2026-05-02T12:59:06Z</time></trkpt><trkpt lat="45.78325558775471" lon="7.469190145695262"><ele>1582.1999999999998</ele><time>2026-05-02T12:59:07Z</time></trkpt><trkpt lat="45.78315013230167" lon="7.469203043793898"><ele>1586.0</ele><time>2026-05-02T12:59:08Z</time></trkpt><trkpt lat="45.78303631579968" lon="7.4692192620877975"><ele>1586.0</ele><time>2026-05-02T12:59:09Z</time></trkpt><trkpt lat="45.78292867991698" lon="7.469225215402704"><ele>1586.0</ele><time>2026-05-02T12:59:10Z</time></trkpt><trkpt lat="45.782831079989414" lon="7.4692389307004206"><ele>1586.0</ele><time>2026-05-02T12:59:11Z</time></trkpt><trkpt lat="45.782736500229504" lon="7.469244856706875"><ele>1586.0</ele><time>2026-05-02T12:59:12Z</time></trkpt><trkpt lat="45.78264371713013" lon="7.469246429666641"><ele>1586.0</ele><time>2026-05-02T12:59:13Z</time></trkpt><trkpt lat="45.782551612851904" lon="7.469253456028108"><ele>1584.9999999999998</ele><time>2026-05-02T12:59:14Z</time></trkpt><trkpt lat="45.78247363826756" lon="7.469244842526389"><ele>1584.0</ele><time>2026-05-02T12:59:15Z</time></trkpt><trkpt lat="45.78239485433207" lon="7.469231233227212"><ele>1583.0</ele><time>2026-05-02T12:59:16Z</time></trkpt><trkpt lat="45.782313238415036" lon="7.469204587481266"><ele>1582.0</ele><time>2026-05-02T12:59:17Z</time></trkpt><trkpt lat="45.78223830143491" lon="7.469175021151083"><ele>1580.9999999999998</ele><time>2026-05-02T12:59:18Z</time></trkpt><trkpt lat="45.78216681413437" lon="7.469134349489705"><ele>1580.0</ele><time>2026-05-02T12:59:19Z</time></trkpt><trkpt lat="45.78210888223648" lon="7.469075349571445"><ele>1579.9999999999998</ele><time>2026-05-02T12:59:20Z</time></trkpt><trkpt lat="45.78202252752733" lon="7.469003406166314"><ele>1580.0</ele><time>2026-05-02T12:59:22Z</time></trkpt><trkpt lat="45.78195061450185" lon="7.468939204253428"><ele>1580.0</ele><time>2026-05-02T13:00:48Z</time></trkpt><trkpt lat="45.781890694063485" lon="7.468899452878972"><ele>1580.0</ele><time>2026-05-02T13:00:49Z</time></trkpt><trkpt lat="45.78181318039714" lon="7.468862281940214"><ele>1579.9999999999998</ele><time>2026-05-02T13:00:50Z</time></trkpt><trkpt lat="45.78171823298243" lon="7.468845085992229"><ele>1580.0</ele><time>2026-05-02T13:00:51Z</time></trkpt><trkpt lat="45.781628133978906" lon="7.46879910222073"><ele>1579.8</ele><time>2026-05-02T13:00:52Z</time></trkpt><trkpt lat="45.781539882516945" lon="7.4687449825515"><ele>1579.6</ele><time>2026-05-02T13:00:53Z</time></trkpt><trkpt lat="45.781465381406974" lon="7.468656740664054"><ele>1579.4</ele><time>2026-05-02T13:00:54Z</time></trkpt><trkpt lat="45.78140062799426" lon="7.468547590840774"><ele>1579.2</ele><time>2026-05-02T13:00:55Z</time></trkpt><trkpt lat="45.781357402663446" lon="7.4684278675001705"><ele>1579.0</ele><time>2026-05-02T13:00:56Z</time></trkpt><trkpt lat="45.78134025353363" lon="7.4682918956622935"><ele>1579.0</ele><time>2026-05-02T13:00:57Z</time></trkpt><trkpt lat="45.78133609384193" lon="7.468158244677786"><ele>1579.0</ele><time>2026-05-02T13:00:58Z</time></trkpt><trkpt lat="45.781359330580486" lon="7.467991002443783"><ele>1579.0</ele><time>2026-05-02T13:00:59Z</time></trkpt><trkpt lat="45.78140622954168" lon="7.467812201893006"><ele>1579.0</ele><time>2026-05-02T13:01:00Z</time></trkpt><trkpt lat="45.78141047320641" lon="7.467630546205781"><ele>1581.5</ele><time>2026-05-02T13:01:01Z</time></trkpt><trkpt lat="45.78141092083952" lon="7.467414086631656"><ele>1584.0</ele><time>2026-05-02T13:01:02Z</time></trkpt><trkpt lat="45.78137986318125" lon="7.467242144080093"><ele>1586.5</ele><time>2026-05-02T13:01:03Z</time></trkpt><trkpt lat="45.78132738961013" lon="7.467078012003297"><ele>1589.0</ele><time>2026-05-02T13:01:04Z</time></trkpt><trkpt lat="45.78125743590126" lon="7.466942535446165"><ele>1593.0</ele><time>2026-05-02T13:01:05Z</time></trkpt><trkpt lat="45.78117910181218" lon="7.466815791947292"><ele>1597.0</ele><time>2026-05-02T13:01:06Z</time></trkpt><trkpt lat="45.78110987662289" lon="7.466666983317593"><ele>1601.0</ele><time>2026-05-02T13:01:07Z</time></trkpt><trkpt lat="45.78106230220345" lon="7.466501151435503"><ele>1605.0</ele><time>2026-05-02T13:01:08Z</time></trkpt><trkpt lat="45.781022149172614" lon="7.46632879385111"><ele>1599.75</ele><time>2026-05-02T13:01:09Z</time></trkpt><trkpt lat="45.780972201904675" lon="7.466179846228541"><ele>1594.5</ele><time>2026-05-02T13:01:10Z</time></trkpt><trkpt lat="45.780909106292164" lon="7.466054757307074"><ele>1589.25</ele><time>2026-05-02T13:01:11Z</time></trkpt><trkpt lat="45.78080742276712" lon="7.46595957608037"><ele>1584.0</ele><time>2026-05-02T13:01:12Z</time></trkpt><trkpt lat="45.78070354943539" lon="7.465874741002901"><ele>1584.0</ele><time>2026-05-02T13:01:13Z</time></trkpt><trkpt lat="45.780605225610806" lon="7.465784570470288"><ele>1584.0</ele><time>2026-05-02T13:01:14Z</time></trkpt><trkpt lat="45.7805037477819" lon="7.465722065028491"><ele>1584.0</ele><time>2026-05-02T13:01:15Z</time></trkpt><trkpt lat="45.78039438858261" lon="7.46568901076904"><ele>1584.0</ele><time>2026-05-02T13:01:16Z</time></trkpt><trkpt lat="45.78029668574977" lon="7.465654193457635"><ele>1584.0</ele><time>2026-05-02T13:01:17Z</time></trkpt><trkpt lat="45.780223498050155" lon="7.465579440114783"><ele>1580.25</ele><time>2026-05-02T13:01:18Z</time></trkpt><trkpt lat="45.78016744425069" lon="7.4654665677567555"><ele>1576.5</ele><time>2026-05-02T13:01:19Z</time></trkpt><trkpt lat="45.780127068611655" lon="7.465311738592822"><ele>1572.75</ele><time>2026-05-02T13:01:20Z</time></trkpt><trkpt lat="45.78006541959606" lon="7.465160822823066"><ele>1569.0</ele><time>2026-05-02T13:01:21Z</time></trkpt><trkpt lat="45.780023453603484" lon="7.4649945534590065"><ele>1569.0</ele><time>2026-05-02T13:01:22Z</time></trkpt><trkpt lat="45.77995557839454" lon="7.464817832016645"><ele>1569.0</ele><time>2026-05-02T13:01:23Z</time></trkpt><trkpt lat="45.77989099653263" lon="7.464660557935324"><ele>1569.0</ele><time>2026-05-02T13:01:24Z</time></trkpt><trkpt lat="45.77984867434801" lon="7.464528458037901"><ele>1569.0</ele><time>2026-05-02T13:01:25Z</time></trkpt><trkpt lat="45.779841356594694" lon="7.464383156844786"><ele>1569.0</ele><time>2026-05-02T13:01:26Z</time></trkpt><trkpt lat="45.7798661038614" lon="7.46421805531131"><ele>1569.0</ele><time>2026-05-02T13:01:27Z</time></trkpt><trkpt lat="45.779908747287315" lon="7.464050226972812"><ele>1569.0</ele><time>2026-05-02T13:01:28Z</time></trkpt><trkpt lat="45.779955435757735" lon="7.463876076727924"><ele>1569.0</ele><time>2026-05-02T13:01:29Z</time></trkpt><trkpt lat="45.780015611029455" lon="7.463717165351359"><ele>1570.0</ele><time>2026-05-02T13:01:30Z</time></trkpt><trkpt lat="45.78007800966042" lon="7.4635904404209565"><ele>1571.0</ele><time>2026-05-02T13:01:31Z</time></trkpt><trkpt lat="45.780107289531564" lon="7.463479064926002"><ele>1572.0</ele><time>2026-05-02T13:01:32Z</time></trkpt><trkpt lat="45.78010987264053" lon="7.463371643907258"><ele>1573.0</ele><time>2026-05-02T13:01:33Z</time></trkpt><trkpt lat="45.780054938890025" lon="7.463230111161669"><ele>1574.0</ele><time>2026-05-02T13:01:34Z</time></trkpt><trkpt lat="45.779975655313365" lon="7.463126462766725"><ele>1574.0</ele><time>2026-05-02T13:01:35Z</time></trkpt><trkpt lat="45.77991971790676" lon="7.46304983023702"><ele>1574.0</ele><time>2026-05-02T13:01:36Z</time></trkpt><trkpt lat="45.77989303145876" lon="7.462954562259849"><ele>1574.0</ele><time>2026-05-02T13:01:37Z</time></trkpt><trkpt lat="45.77989787135583" lon="7.462812749806818"><ele>1574.0</ele><time>2026-05-02T13:01:38Z</time></trkpt><trkpt lat="45.77991574294734" lon="7.462628281493451"><ele>1574.0</ele><time>2026-05-02T13:01:39Z</time></trkpt><trkpt lat="45.77994093896773" lon="7.4624918836490775"><ele>1577.4</ele><time>2026-05-02T13:01:40Z</time></trkpt><trkpt lat="45.77991865620307" lon="7.462369800022925"><ele>1580.8000000000002</ele><time>2026-05-02T13:01:41Z</time></trkpt><trkpt lat="45.779822280268924" lon="7.462302430995822"><ele>1584.1999999999998</ele><time>2026-05-02T13:01:42Z</time></trkpt><trkpt lat="45.77971856935659" lon="7.462368635786496"><ele>1587.6</ele><time>2026-05-02T13:01:43Z</time></trkpt><trkpt lat="45.77963474789538" lon="7.462385078425543"><ele>1591.0</ele><time>2026-05-02T13:01:44Z</time></trkpt><trkpt lat="45.77957128537317" lon="7.462378244085655"><ele>1591.0</ele><time>2026-05-02T13:01:45Z</time></trkpt><trkpt lat="45.779498532119526" lon="7.46233309913927"><ele>1591.0</ele><time>2026-05-02T13:01:46Z</time></trkpt><trkpt lat="45.77939515551956" lon="7.462278135023944"><ele>1591.0</ele><time>2026-05-02T13:01:47Z</time></trkpt><trkpt lat="45.779283042762664" lon="7.462222697418788"><ele>1591.0</ele><time>2026-05-02T13:01:48Z</time></trkpt><trkpt lat="45.77916767504098" lon="7.462168100908465"><ele>1591.0</ele><time>2026-05-02T13:01:49Z</time></trkpt><trkpt lat="45.77905226482847" lon="7.462158364988965"><ele>1593.1999999999998</ele><time>2026-05-02T13:01:50Z</time></trkpt><trkpt lat="45.77894830907182" lon="7.462180393124643"><ele>1595.3999999999999</ele><time>2026-05-02T13:01:51Z</time></trkpt><trkpt lat="45.77885767168995" lon="7.46222058528204"><ele>1597.6</ele><time>2026-05-02T13:01:52Z</time></trkpt><trkpt lat="45.77876146053646" lon="7.462205237399171"><ele>1599.8</ele><time>2026-05-02T13:01:53Z</time></trkpt><trkpt lat="45.778672178667314" lon="7.462168650159733"><ele>1602.0</ele><time>2026-05-02T13:01:54Z</time></trkpt><trkpt lat="45.77857744197055" lon="7.462045670344677"><ele>1584.6666666666665</ele><time>2026-05-02T13:01:55Z</time></trkpt><trkpt lat="45.77846934712122" lon="7.461885734344861"><ele>1567.3333333333333</ele><time>2026-05-02T13:01:56Z</time></trkpt><trkpt lat="45.778350243825344" lon="7.461718828697141"><ele>1550.0</ele><time>2026-05-02T13:01:57Z</time></trkpt><trkpt lat="45.77824864286026" lon="7.461534199641506"><ele>1550.0</ele><time>2026-05-02T13:01:58Z</time></trkpt><trkpt lat="45.778160498037856" lon="7.461346044654463"><ele>1550.0</ele><time>2026-05-02T13:01:59Z</time></trkpt><trkpt lat="45.778049484273716" lon="7.46118696202038"><ele>1550.0</ele><time>2026-05-02T13:02:00Z</time></trkpt><trkpt lat="45.777914536162186" lon="7.461071201269436"><ele>1546.75</ele><time>2026-05-02T13:02:01Z</time></trkpt><trkpt lat="45.77778379534865" lon="7.460993225356843"><ele>1543.5</ele><time>2026-05-02T13:02:02Z</time></trkpt><trkpt lat="45.77765923441266" lon="7.460927151077426"><ele>1540.25</ele><time>2026-05-02T13:02:03Z</time></trkpt><trkpt lat="45.77752434196284" lon="7.460847361327872"><ele>1537.0</ele><time>2026-05-02T13:02:04Z</time></trkpt><trkpt lat="45.777412762034686" lon="7.460757145713058"><ele>1537.0</ele><time>2026-05-02T13:02:05Z</time></trkpt><trkpt lat="45.77735216337694" lon="7.460604152685597"><ele>1537.0</ele><time>2026-05-02T13:02:06Z</time></trkpt><trkpt lat="45.777294469416994" lon="7.460433733043524"><ele>1537.0</ele><time>2026-05-02T13:02:07Z</time></trkpt><trkpt lat="45.777223708950686" lon="7.46024988108943"><ele>1537.0</ele><time>2026-05-02T13:02:08Z</time></trkpt><trkpt lat="45.77715309635808" lon="7.46004790166232"><ele>1540.25</ele><time>2026-05-02T13:02:09Z</time></trkpt><trkpt lat="45.77710057789891" lon="7.4598345134053945"><ele>1543.5</ele><time>2026-05-02T13:02:10Z</time></trkpt><trkpt lat="45.77704929080651" lon="7.459646991908319"><ele>1546.75</ele><time>2026-05-02T13:02:11Z</time></trkpt><trkpt lat="45.776991092134836" lon="7.459489909851652"><ele>1550.0</ele><time>2026-05-02T13:02:12Z</time></trkpt><trkpt lat="45.77691608297292" lon="7.459385195043898"><ele>1545.2</ele><time>2026-05-02T13:02:13Z</time></trkpt><trkpt lat="45.77681691953047" lon="7.45933977564902"><ele>1540.4</ele><time>2026-05-02T13:02:14Z</time></trkpt><trkpt lat="45.77670489709898" lon="7.459344965849465"><ele>1535.6</ele><time>2026-05-02T13:02:15Z</time></trkpt><trkpt lat="45.776583905953565" lon="7.459368998914879"><ele>1530.8</ele><time>2026-05-02T13:02:16Z</time></trkpt><trkpt lat="45.77647852221522" lon="7.459392418597073"><ele>1526.0</ele><time>2026-05-02T13:02:17Z</time></trkpt><trkpt lat="45.77638611908145" lon="7.459381097752617"><ele>1526.0</ele><time>2026-05-02T13:02:18Z</time></trkpt><trkpt lat="45.77629655368969" lon="7.459330188010969"><ele>1526.0</ele><time>2026-05-02T13:02:19Z</time></trkpt><trkpt lat="45.776234874028646" lon="7.459265778971904"><ele>1526.0</ele><time>2026-05-02T13:02:20Z</time></trkpt><trkpt lat="45.77622047932386" lon="7.459146458130841"><ele>1526.0</ele><time>2026-05-02T13:02:21Z</time></trkpt><trkpt lat="45.776233296159496" lon="7.458983648183661"><ele>1526.0</ele><time>2026-05-02T13:02:22Z</time></trkpt><trkpt lat="45.77627228665128" lon="7.458795504129717"><ele>1528.8</ele><time>2026-05-02T13:02:23Z</time></trkpt><trkpt lat="45.77630186736348" lon="7.458641944437765"><ele>1531.6</ele><time>2026-05-02T13:02:24Z</time></trkpt><trkpt lat="45.776292235085016" lon="7.458514507240952"><ele>1534.4</ele><time>2026-05-02T13:02:25Z</time></trkpt><trkpt lat="45.77627027309707" lon="7.458419703073823"><ele>1537.2</ele><time>2026-05-02T13:02:26Z</time></trkpt><trkpt lat="45.77619014055422" lon="7.4583641010877395"><ele>1540.0</ele><time>2026-05-02T13:02:27Z</time></trkpt><trkpt lat="45.776078641859655" lon="7.458391655156945"><ele>1536.75</ele><time>2026-05-02T13:02:28Z</time></trkpt><trkpt lat="45.775988329099185" lon="7.458504097130574"><ele>1533.5</ele><time>2026-05-02T13:02:29Z</time></trkpt><trkpt lat="45.775871020752945" lon="7.45857684825737"><ele>1530.25</ele><time>2026-05-02T13:02:30Z</time></trkpt><trkpt lat="45.77573613130852" lon="7.45867305882652"><ele>1527.0</ele><time>2026-05-02T13:02:31Z</time></trkpt><trkpt lat="45.77561704291999" lon="7.458771431843918"><ele>1520.5</ele><time>2026-05-02T13:02:32Z</time></trkpt><trkpt lat="45.77549197579794" lon="7.458841092022387"><ele>1514.0</ele><time>2026-05-02T13:02:33Z</time></trkpt><trkpt lat="45.77538374302249" lon="7.458901422830617"><ele>1507.5</ele><time>2026-05-02T13:02:34Z</time></trkpt><trkpt lat="45.775285199647534" lon="7.45891336301841"><ele>1501.0</ele><time>2026-05-02T13:02:35Z</time></trkpt><trkpt lat="45.775181956468224" lon="7.458907628567475"><ele>1497.25</ele><time>2026-05-02T13:02:36Z</time></trkpt><trkpt lat="45.77505283861437" lon="7.4588554750667315"><ele>1493.5</ele><time>2026-05-02T13:02:37Z</time></trkpt><trkpt lat="45.77493616170761" lon="7.458781462364131"><ele>1489.75</ele><time>2026-05-02T13:02:38Z</time></trkpt><trkpt lat="45.77482416978677" lon="7.458690413870874"><ele>1486.0</ele><time>2026-05-02T13:02:39Z</time></trkpt><trkpt lat="45.774705325462115" lon="7.458592286558199"><ele>1486.6666666666665</ele><time>2026-05-02T13:02:40Z</time></trkpt><trkpt lat="45.774573627293954" lon="7.458491342036228"><ele>1487.3333333333333</ele><time>2026-05-02T13:02:41Z</time></trkpt><trkpt lat="45.77442581245967" lon="7.458389469358049"><ele>1488.0</ele><time>2026-05-02T13:02:42Z</time></trkpt><trkpt lat="45.77426158874075" lon="7.458284856343004"><ele>1488.0</ele><time>2026-05-02T13:02:43Z</time></trkpt><trkpt lat="45.77409636085871" lon="7.458179995650707"><ele>1488.0</ele><time>2026-05-02T13:02:44Z</time></trkpt><trkpt lat="45.77393721993016" lon="7.458079388862401"><ele>1488.0</ele><time>2026-05-02T13:02:45Z</time></trkpt><trkpt lat="45.77378874010026" lon="7.457989884195457"><ele>1490.25</ele><time>2026-05-02T13:02:46Z</time></trkpt><trkpt lat="45.773641950873056" lon="7.45790432980526"><ele>1492.5</ele><time>2026-05-02T13:02:47Z</time></trkpt><trkpt lat="45.77350451810901" lon="7.457826599708112"><ele>1494.75</ele><time>2026-05-02T13:02:48Z</time></trkpt><trkpt lat="45.773380505341805" lon="7.457754419862531"><ele>1497.0</ele><time>2026-05-02T13:02:49Z</time></trkpt><trkpt lat="45.77326571212195" lon="7.457679402957302"><ele>1497.0</ele><time>2026-05-02T13:02:50Z</time></trkpt><trkpt lat="45.77315592990129" lon="7.457593020432641"><ele>1497.0</ele><time>2026-05-02T13:02:51Z</time></trkpt><trkpt lat="45.77305369863913" lon="7.457499505007124"><ele>1497.0</ele><time>2026-05-02T13:02:52Z</time></trkpt><trkpt lat="45.77295917395677" lon="7.457401259015107"><ele>1497.0</ele><time>2026-05-02T13:02:53Z</time></trkpt><trkpt lat="45.77287126535158" lon="7.457291041249229"><ele>1497.0</ele><time>2026-05-02T13:02:54Z</time></trkpt><trkpt lat="45.772773121152106" lon="7.4572002055671485"><ele>1497.0</ele><time>2026-05-02T13:02:55Z</time></trkpt><trkpt lat="45.772689299916294" lon="7.457086116621718"><ele>1497.0</ele><time>2026-05-02T13:02:56Z</time></trkpt><trkpt lat="45.77262176191543" lon="7.456956791779356"><ele>1497.0</ele><time>2026-05-02T13:02:57Z</time></trkpt><trkpt lat="45.77255353883005" lon="7.456826594289534"><ele>1492.5</ele><time>2026-05-02T13:02:58Z</time></trkpt><trkpt lat="45.77248168248983" lon="7.456696472789775"><ele>1488.0</ele><time>2026-05-02T13:02:59Z</time></trkpt><trkpt lat="45.77241112778979" lon="7.456560107674468"><ele>1483.5</ele><time>2026-05-02T13:03:00Z</time></trkpt><trkpt lat="45.772348087228785" lon="7.456427478262599"><ele>1479.0</ele><time>2026-05-02T13:03:01Z</time></trkpt><trkpt lat="45.772308326494475" lon="7.456270798214852"><ele>1479.0</ele><time>2026-05-02T13:03:02Z</time></trkpt><trkpt lat="45.7723103082639" lon="7.456097954058768"><ele>1479.0</ele><time>2026-05-02T13:03:03Z</time></trkpt><trkpt lat="45.77228350013186" lon="7.45593197380373"><ele>1479.0</ele><time>2026-05-02T13:03:04Z</time></trkpt><trkpt lat="45.772279634903555" lon="7.455769463769967"><ele>1479.0</ele><time>2026-05-02T13:03:05Z</time></trkpt><trkpt lat="45.77228029655873" lon="7.45560275645901"><ele>1478.0</ele><time>2026-05-02T13:03:06Z</time></trkpt><trkpt lat="45.772290367694644" lon="7.4554187901730895"><ele>1477.0</ele><time>2026-05-02T13:03:07Z</time></trkpt><trkpt lat="45.7722960250011" lon="7.45525328047243"><ele>1476.0</ele><time>2026-05-02T13:03:08Z</time></trkpt><trkpt lat="45.772295940461106" lon="7.45510455378187"><ele>1475.0</ele><time>2026-05-02T13:03:09Z</time></trkpt><trkpt lat="45.77230673716751" lon="7.454966842955828"><ele>1474.0</ele><time>2026-05-02T13:03:10Z</time></trkpt><trkpt lat="45.7723480691096" lon="7.454838674609346"><ele>1474.0</ele><time>2026-05-02T13:03:11Z</time></trkpt><trkpt lat="45.77241816505408" lon="7.454737441568441"><ele>1474.0</ele><time>2026-05-02T13:03:12Z</time></trkpt><trkpt lat="45.77248807615676" lon="7.4546431177120915"><ele>1474.0</ele><time>2026-05-02T13:03:13Z</time></trkpt><trkpt lat="45.77251244631315" lon="7.454533660288373"><ele>1474.0</ele><time>2026-05-02T13:03:14Z</time></trkpt><trkpt lat="45.77249567044941" lon="7.454423272386291"><ele>1474.0</ele><time>2026-05-02T13:03:15Z</time></trkpt><trkpt lat="45.77245299065944" lon="7.454338747812571"><ele>1474.0</ele><time>2026-05-02T13:03:16Z</time></trkpt><trkpt lat="45.77235932682423" lon="7.454302405854397"><ele>1474.2</ele><time>2026-05-02T13:03:17Z</time></trkpt><trkpt lat="45.77226879891134" lon="7.454267486714393"><ele>1474.4</ele><time>2026-05-02T13:03:18Z</time></trkpt><trkpt lat="45.772160061095796" lon="7.454238663014057"><ele>1474.6</ele><time>2026-05-02T13:03:19Z</time></trkpt><trkpt lat="45.77207175251663" lon="7.454195122720435"><ele>1474.8</ele><time>2026-05-02T13:03:20Z</time></trkpt><trkpt lat="45.7720194123954" lon="7.454086117696739"><ele>1475.0</ele><time>2026-05-02T13:03:21Z</time></trkpt><trkpt lat="45.771975109955605" lon="7.453942372999206"><ele>1478.25</ele><time>2026-05-02T13:03:22Z</time></trkpt><trkpt lat="45.771922944827175" lon="7.453768673095024"><ele>1481.5</ele><time>2026-05-02T13:03:23Z</time></trkpt><trkpt lat="45.771860395265456" lon="7.453585544470195"><ele>1484.75</ele><time>2026-05-02T13:03:24Z</time></trkpt><trkpt lat="45.77180463522712" lon="7.453414887969584"><ele>1488.0</ele><time>2026-05-02T13:03:25Z</time></trkpt><trkpt lat="45.77175570376421" lon="7.453232019916683"><ele>1479.75</ele><time>2026-05-02T13:03:26Z</time></trkpt><trkpt lat="45.771715398587475" lon="7.453055348717824"><ele>1471.5</ele><time>2026-05-02T13:03:27Z</time></trkpt><trkpt lat="45.77166332264933" lon="7.45289015759967"><ele>1463.25</ele><time>2026-05-02T13:03:28Z</time></trkpt><trkpt lat="45.77161116862132" lon="7.452730348280515"><ele>1455.0</ele><time>2026-05-02T13:03:29Z</time></trkpt><trkpt lat="45.77156977608988" lon="7.452567673692922"><ele>1455.0</ele><time>2026-05-02T13:03:30Z</time></trkpt><trkpt lat="45.77154474832344" lon="7.452384110120361"><ele>1455.0</ele><time>2026-05-02T13:03:31Z</time></trkpt><trkpt lat="45.771520481212974" lon="7.452187085209592"><ele>1455.0</ele><time>2026-05-02T13:03:32Z</time></trkpt><trkpt lat="45.771489534565795" lon="7.451979476657553"><ele>1455.0</ele><time>2026-05-02T13:03:33Z</time></trkpt><trkpt lat="45.771464033313414" lon="7.451762017789565"><ele>1455.0</ele><time>2026-05-02T13:03:34Z</time></trkpt><trkpt lat="45.771433304431206" lon="7.451566278030185"><ele>1455.0</ele><time>2026-05-02T13:03:35Z</time></trkpt><trkpt lat="45.77139965115584" lon="7.451375463226315"><ele>1455.0</ele><time>2026-05-02T13:03:36Z</time></trkpt><trkpt lat="45.77136897307395" lon="7.451184742981998"><ele>1455.0</ele><time>2026-05-02T13:03:37Z</time></trkpt><trkpt lat="45.77134066067297" lon="7.450988808242416"><ele>1455.0</ele><time>2026-05-02T13:03:38Z</time></trkpt><trkpt lat="45.77133039663624" lon="7.45078332445413"><ele>1455.0</ele><time>2026-05-02T13:03:39Z</time></trkpt><trkpt lat="45.77132938487149" lon="7.450581045615021"><ele>1455.0</ele><time>2026-05-02T13:03:40Z</time></trkpt><trkpt lat="45.77132778559349" lon="7.450414404137956"><ele>1455.0</ele><time>2026-05-02T13:03:41Z</time></trkpt><trkpt lat="45.77130167892266" lon="7.4502370843247965"><ele>1454.25</ele><time>2026-05-02T13:03:42Z</time></trkpt><trkpt lat="45.77128716522353" lon="7.450065555500971"><ele>1453.5</ele><time>2026-05-02T13:03:43Z</time></trkpt><trkpt lat="45.771286015368645" lon="7.4498858706465505"><ele>1452.75</ele><time>2026-05-02T13:03:44Z</time></trkpt><trkpt lat="45.77127940739952" lon="7.449701790646262"><ele>1452.0</ele><time>2026-05-02T13:03:45Z</time></trkpt><trkpt lat="45.77126009602772" lon="7.449528569601152"><ele>1450.8</ele><time>2026-05-02T13:03:46Z</time></trkpt><trkpt lat="45.771252034535074" lon="7.449360036179338"><ele>1449.6</ele><time>2026-05-02T13:03:47Z</time></trkpt><trkpt lat="45.77127788588936" lon="7.449231918783314"><ele>1448.3999999999999</ele><time>2026-05-02T13:03:48Z</time></trkpt><trkpt lat="45.77134657829812" lon="7.449115454523787"><ele>1447.1999999999998</ele><time>2026-05-02T13:03:49Z</time></trkpt><trkpt lat="45.77142776952257" lon="7.449009071660412"><ele>1446.0</ele><time>2026-05-02T13:03:50Z</time></trkpt><trkpt lat="45.771488943289995" lon="7.448912987182165"><ele>1446.0</ele><time>2026-05-02T13:03:51Z</time></trkpt><trkpt lat="45.771509963027306" lon="7.448823598841988"><ele>1446.0</ele><time>2026-05-02T13:03:52Z</time></trkpt><trkpt lat="45.77143458374386" lon="7.448730726158989"><ele>1446.0</ele><time>2026-05-02T13:03:54Z</time></trkpt><trkpt lat="45.77135964059617" lon="7.448829955706323"><ele>1446.0</ele><time>2026-05-02T13:03:55Z</time></trkpt><trkpt lat="45.771271003109774" lon="7.4489151456582725"><ele>1446.0</ele><time>2026-05-02T13:03:56Z</time></trkpt><trkpt lat="45.771180304796005" lon="7.4490139950744805"><ele>1446.0</ele><time>2026-05-02T13:03:57Z</time></trkpt><trkpt lat="45.77109659038166" lon="7.449089315998873"><ele>1446.0</ele><time>2026-05-02T13:03:58Z</time></trkpt><trkpt lat="45.77102964859256" lon="7.4491855024589295"><ele>1446.0</ele><time>2026-05-02T13:03:59Z</time></trkpt><trkpt lat="45.77102094323198" lon="7.449344197804635"><ele>1446.0</ele><time>2026-05-02T13:04:00Z</time></trkpt><trkpt lat="45.77099367628976" lon="7.449509961325082"><ele>1446.0</ele><time>2026-05-02T13:04:01Z</time></trkpt><trkpt lat="45.77095090739361" lon="7.4496870685585215"><ele>1437.75</ele><time>2026-05-02T13:04:02Z</time></trkpt><trkpt lat="45.77089527081695" lon="7.449844421846971"><ele>1429.5</ele><time>2026-05-02T13:04:03Z</time></trkpt><trkpt lat="45.770829131023746" lon="7.449981198560317"><ele>1421.25</ele><time>2026-05-02T13:04:04Z</time></trkpt><trkpt lat="45.770796118873115" lon="7.450133765055771"><ele>1413.0</ele><time>2026-05-02T13:04:05Z</time></trkpt><trkpt lat="45.770792592374995" lon="7.450289444487378"><ele>1413.25</ele><time>2026-05-02T13:04:06Z</time></trkpt><trkpt lat="45.77082191219224" lon="7.4504592234768285"><ele>1413.5</ele><time>2026-05-02T13:04:07Z</time></trkpt><trkpt lat="45.77083900139125" lon="7.450649658068648"><ele>1413.75</ele><time>2026-05-02T13:04:08Z</time></trkpt><trkpt lat="45.77082140883646" lon="7.450860353619804"><ele>1414.0</ele><time>2026-05-02T13:04:09Z</time></trkpt><trkpt lat="45.77076768770265" lon="7.451041150812004"><ele>1414.0</ele><time>2026-05-02T13:04:10Z</time></trkpt><trkpt lat="45.770684296381695" lon="7.451204927710967"><ele>1414.0</ele><time>2026-05-02T13:04:11Z</time></trkpt><trkpt lat="45.770591042112365" lon="7.45135586609714"><ele>1414.0</ele><time>2026-05-02T13:04:12Z</time></trkpt><trkpt lat="45.770508566196185" lon="7.451524761868985"><ele>1414.0</ele><time>2026-05-02T13:04:13Z</time></trkpt><trkpt lat="45.77043761962396" lon="7.451715818037105"><ele>1413.75</ele><time>2026-05-02T13:04:14Z</time></trkpt><trkpt lat="45.770371265399014" lon="7.451907567219618"><ele>1413.5</ele><time>2026-05-02T13:04:15Z</time></trkpt><trkpt lat="45.770300725304075" lon="7.452091547320758"><ele>1413.25</ele><time>2026-05-02T13:04:16Z</time></trkpt><trkpt lat="45.770213182933766" lon="7.452261539034732"><ele>1413.0</ele><time>2026-05-02T13:04:17Z</time></trkpt><trkpt lat="45.770136403580146" lon="7.452452572619696"><ele>1408.0</ele><time>2026-05-02T13:04:18Z</time></trkpt><trkpt lat="45.77008647598371" lon="7.45265622269079"><ele>1403.0</ele><time>2026-05-02T13:04:19Z</time></trkpt><trkpt lat="45.77002002278551" lon="7.452848750976547"><ele>1398.0</ele><time>2026-05-02T13:04:20Z</time></trkpt><trkpt lat="45.769955406611345" lon="7.453030703979535"><ele>1393.0</ele><time>2026-05-02T13:04:21Z</time></trkpt><trkpt lat="45.76988677324711" lon="7.453213580566663"><ele>1393.0</ele><time>2026-05-02T13:04:22Z</time></trkpt><trkpt lat="45.76981845029188" lon="7.4533653253760415"><ele>1393.0</ele><time>2026-05-02T13:04:23Z</time></trkpt><trkpt lat="45.76973549622203" lon="7.453502390739277"><ele>1393.0</ele><time>2026-05-02T13:04:24Z</time></trkpt><trkpt lat="45.76963932418095" lon="7.453610303811558"><ele>1393.0</ele><time>2026-05-02T13:04:25Z</time></trkpt><trkpt lat="45.7695406931664" lon="7.45373388385602"><ele>1392.4</ele><time>2026-05-02T13:04:26Z</time></trkpt><trkpt lat="45.769437799134295" lon="7.453840672297275"><ele>1391.8000000000002</ele><time>2026-05-02T13:04:27Z</time></trkpt><trkpt lat="45.76938377589348" lon="7.453961037496094"><ele>1391.2</ele><time>2026-05-02T13:04:28Z</time></trkpt><trkpt lat="45.76933888660071" lon="7.454062457983982"><ele>1390.6</ele><time>2026-05-02T13:04:29Z</time></trkpt><trkpt lat="45.769361619636854" lon="7.454185032886586"><ele>1390.0</ele><time>2026-05-02T13:04:30Z</time></trkpt><trkpt lat="45.769382517021945" lon="7.454273422911834"><ele>1386.0</ele><time>2026-05-02T13:04:31Z</time></trkpt><trkpt lat="45.769310539979394" lon="7.454377258800964"><ele>1382.0</ele><time>2026-05-02T13:04:33Z</time></trkpt><trkpt lat="45.76927146548636" lon="7.454301021716088"><ele>1378.0</ele><time>2026-05-02T13:04:34Z</time></trkpt><trkpt lat="45.769261093143044" lon="7.45419572203517"><ele>1374.0</ele><time>2026-05-02T13:04:35Z</time></trkpt><trkpt lat="45.769258886566824" lon="7.454081029141234"><ele>1370.0</ele><time>2026-05-02T13:04:36Z</time></trkpt><trkpt lat="45.76927095116178" lon="7.453941080596075"><ele>1366.0</ele><time>2026-05-02T13:04:37Z</time></trkpt><trkpt lat="45.7692977648503" lon="7.453810251741685"><ele>1364.75</ele><time>2026-05-02T13:04:38Z</time></trkpt><trkpt lat="45.769338094777" lon="7.4536576148388685"><ele>1363.5</ele><time>2026-05-02T13:04:39Z</time></trkpt><trkpt lat="45.769395508091336" lon="7.453500551798006"><ele>1362.25</ele><time>2026-05-02T13:04:40Z</time></trkpt><trkpt lat="45.76945010423104" lon="7.453353281192402"><ele>1361.0</ele><time>2026-05-02T13:04:41Z</time></trkpt><trkpt lat="45.7694452428082" lon="7.453166592692779"><ele>1360.75</ele><time>2026-05-02T13:04:42Z</time></trkpt><trkpt lat="45.76941495533034" lon="7.452994530653155"><ele>1360.5</ele><time>2026-05-02T13:04:43Z</time></trkpt><trkpt lat="45.76936738494346" lon="7.45284275286335"><ele>1360.25</ele><time>2026-05-02T13:04:44Z</time></trkpt><trkpt lat="45.769306641281915" lon="7.452696646608761"><ele>1360.0</ele><time>2026-05-02T13:04:45Z</time></trkpt><trkpt lat="45.76925155863346" lon="7.452564882706819"><ele>1360.0</ele><time>2026-05-02T13:04:46Z</time></trkpt><trkpt lat="45.769180779464826" lon="7.452406533218632"><ele>1360.0</ele><time>2026-05-02T13:04:47Z</time></trkpt><trkpt lat="45.76911154552091" lon="7.452268797758925"><ele>1360.0</ele><time>2026-05-02T13:04:48Z</time></trkpt><trkpt lat="45.76904177683305" lon="7.452174266805954"><ele>1360.0</ele><time>2026-05-02T13:04:49Z</time></trkpt><trkpt lat="45.76901697425395" lon="7.4520783697631705"><ele>1360.0</ele><time>2026-05-02T13:04:50Z</time></trkpt><trkpt lat="45.76901344965046" lon="7.451965368819553"><ele>1359.4</ele><time>2026-05-02T13:04:51Z</time></trkpt><trkpt lat="45.76902002536871" lon="7.451842175797051"><ele>1358.8</ele><time>2026-05-02T13:04:52Z</time></trkpt><trkpt lat="45.76906293397048" lon="7.451716985892011"><ele>1358.1999999999998</ele><time>2026-05-02T13:04:53Z</time></trkpt><trkpt lat="45.76910699442358" lon="7.451557177025242"><ele>1357.6</ele><time>2026-05-02T13:04:54Z</time></trkpt><trkpt lat="45.769142734662914" lon="7.4513936747466465"><ele>1357.0</ele><time>2026-05-02T13:04:55Z</time></trkpt><trkpt lat="45.76914151783269" lon="7.451226635098981"><ele>1354.1999999999998</ele><time>2026-05-02T13:04:56Z</time></trkpt><trkpt lat="45.769120643647184" lon="7.4510777833250375"><ele>1351.4</ele><time>2026-05-02T13:04:57Z</time></trkpt><trkpt lat="45.7690954365251" lon="7.450939955788376"><ele>1348.6</ele><time>2026-05-02T13:04:58Z</time></trkpt><trkpt lat="45.76910348294164" lon="7.450810271852502"><ele>1345.8000000000002</ele><time>2026-05-02T13:04:59Z</time></trkpt><trkpt lat="45.76913383470726" lon="7.450699508958678"><ele>1343.0</ele><time>2026-05-02T13:05:00Z</time></trkpt><trkpt lat="45.76918949338286" lon="7.450621203968994"><ele>1343.0</ele><time>2026-05-02T13:05:01Z</time></trkpt><trkpt lat="45.769272849547434" lon="7.450571446211282"><ele>1343.0</ele><time>2026-05-02T13:05:02Z</time></trkpt><trkpt lat="45.7693665806163" lon="7.450525238217235"><ele>1343.0</ele><time>2026-05-02T13:05:03Z</time></trkpt><trkpt lat="45.769464523115374" lon="7.450489889321794"><ele>1343.0</ele><time>2026-05-02T13:05:04Z</time></trkpt><trkpt lat="45.769537102361376" lon="7.450375915272086"><ele>1343.0</ele><time>2026-05-02T13:05:05Z</time></trkpt><trkpt lat="45.76956020307653" lon="7.450220451696238"><ele>1345.0</ele><time>2026-05-02T13:05:06Z</time></trkpt><trkpt lat="45.76958020520885" lon="7.450082309891651"><ele>1347.0</ele><time>2026-05-02T13:05:07Z</time></trkpt><trkpt lat="45.769584422303474" lon="7.4499431147085495"><ele>1349.0</ele><time>2026-05-02T13:05:08Z</time></trkpt><trkpt lat="45.76961283375109" lon="7.449802936356342"><ele>1351.0</ele><time>2026-05-02T13:05:09Z</time></trkpt><trkpt lat="45.769638779934894" lon="7.449673290738442"><ele>1353.0</ele><time>2026-05-02T13:05:10Z</time></trkpt><trkpt lat="45.769676562880896" lon="7.449548880753206"><ele>1353.0</ele><time>2026-05-02T13:05:11Z</time></trkpt><trkpt lat="45.7697172583125" lon="7.449427860327198"><ele>1353.0</ele><time>2026-05-02T13:05:12Z</time></trkpt><trkpt lat="45.76975238231841" lon="7.449294919120052"><ele>1353.0</ele><time>2026-05-02T13:05:13Z</time></trkpt><trkpt lat="45.76975426806158" lon="7.449148031309993"><ele>1353.0</ele><time>2026-05-02T13:05:14Z</time></trkpt><trkpt lat="45.76974756628043" lon="7.449013702904371"><ele>1353.0</ele><time>2026-05-02T13:05:15Z</time></trkpt><trkpt lat="45.76974477490789" lon="7.4488890314425"><ele>1348.8000000000002</ele><time>2026-05-02T13:05:16Z</time></trkpt><trkpt lat="45.76975690427612" lon="7.4487634264779805"><ele>1344.6</ele><time>2026-05-02T13:05:17Z</time></trkpt><trkpt lat="45.76979060294674" lon="7.448648442114826"><ele>1340.4</ele><time>2026-05-02T13:05:18Z</time></trkpt><trkpt lat="45.76984187841634" lon="7.448533653325444"><ele>1336.1999999999998</ele><time>2026-05-02T13:05:19Z</time></trkpt><trkpt lat="45.76992176917232" lon="7.448429366332525"><ele>1332.0</ele><time>2026-05-02T13:05:20Z</time></trkpt><trkpt lat="45.77000734284231" lon="7.448320089150297"><ele>1332.0</ele><time>2026-05-02T13:05:21Z</time></trkpt><trkpt lat="45.770094375648235" lon="7.448194589068189"><ele>1332.0</ele><time>2026-05-02T13:05:22Z</time></trkpt><trkpt lat="45.770179932917394" lon="7.448046038461539"><ele>1332.0</ele><time>2026-05-02T13:05:23Z</time></trkpt><trkpt lat="45.770265946081" lon="7.447891777044555"><ele>1332.0</ele><time>2026-05-02T13:05:24Z</time></trkpt><trkpt lat="45.770347544144435" lon="7.447737369320293"><ele>1332.0</ele><time>2026-05-02T13:05:25Z</time></trkpt><trkpt lat="45.770423006007576" lon="7.4475808128055565"><ele>1332.0</ele><time>2026-05-02T13:05:26Z</time></trkpt><trkpt lat="45.77049575716804" lon="7.4474268677381525"><ele>1332.0</ele><time>2026-05-02T13:05:27Z</time></trkpt><trkpt lat="45.77057647017948" lon="7.447276846907863"><ele>1332.0</ele><time>2026-05-02T13:05:28Z</time></trkpt><trkpt lat="45.77064567960242" lon="7.447125484210422"><ele>1332.0</ele><time>2026-05-02T13:05:29Z</time></trkpt><trkpt lat="45.770701259515526" lon="7.446969742669727"><ele>1332.0</ele><time>2026-05-02T13:05:30Z</time></trkpt><trkpt lat="45.770736449347844" lon="7.446803862701518"><ele>1332.0</ele><time>2026-05-02T13:05:31Z</time></trkpt><trkpt lat="45.77076860364493" lon="7.4466260920882545"><ele>1332.0</ele><time>2026-05-02T13:05:32Z</time></trkpt><trkpt lat="45.77076916737706" lon="7.446433826042343"><ele>1330.75</ele><time>2026-05-02T13:05:33Z</time></trkpt><trkpt lat="45.77076362396453" lon="7.446249356976319"><ele>1329.5</ele><time>2026-05-02T13:05:34Z</time></trkpt><trkpt lat="45.77073496430442" lon="7.446073497397859"><ele>1328.25</ele><time>2026-05-02T13:05:35Z</time></trkpt><trkpt lat="45.770702017167544" lon="7.445897180020435"><ele>1327.0</ele><time>2026-05-02T13:05:36Z</time></trkpt><trkpt lat="45.77064480178585" lon="7.445738907839421"><ele>1327.0</ele><time>2026-05-02T13:05:37Z</time></trkpt><trkpt lat="45.77058054523031" lon="7.445595915770202"><ele>1327.0</ele><time>2026-05-02T13:05:38Z</time></trkpt><trkpt lat="45.770524612491776" lon="7.445458652658126"><ele>1327.0</ele><time>2026-05-02T13:05:39Z</time></trkpt><trkpt lat="45.77048189769689" lon="7.445321005761411"><ele>1327.0</ele><time>2026-05-02T13:05:40Z</time></trkpt><trkpt lat="45.77046721275293" lon="7.445170004912607"><ele>1327.0</ele><time>2026-05-02T13:05:41Z</time></trkpt><trkpt lat="45.77048687084709" lon="7.445028312633845"><ele>1327.1999999999998</ele><time>2026-05-02T13:05:42Z</time></trkpt><trkpt lat="45.77053737795009" lon="7.444911731889698"><ele>1327.4</ele><time>2026-05-02T13:05:43Z</time></trkpt><trkpt lat="45.77060791926778" lon="7.444795592968788"><ele>1327.6</ele><time>2026-05-02T13:05:44Z</time></trkpt><trkpt lat="45.770680188764445" lon="7.4446598314623795"><ele>1327.8000000000002</ele><time>2026-05-02T13:05:45Z</time></trkpt><trkpt lat="45.770740638484064" lon="7.4445097697803115"><ele>1328.0</ele><time>2026-05-02T13:05:46Z</time></trkpt><trkpt lat="45.77081110791196" lon="7.444347601677554"><ele>1334.25</ele><time>2026-05-02T13:05:47Z</time></trkpt><trkpt lat="45.77088931860531" lon="7.444202454520147"><ele>1340.5</ele><time>2026-05-02T13:05:48Z</time></trkpt><trkpt lat="45.770972771797666" lon="7.444068553699808"><ele>1346.75</ele><time>2026-05-02T13:05:49Z</time></trkpt><trkpt lat="45.771069497985444" lon="7.443935653570592"><ele>1353.0</ele><time>2026-05-02T13:05:50Z</time></trkpt><trkpt lat="45.771175141413984" lon="7.443801219475257"><ele>1344.75</ele><time>2026-05-02T13:05:51Z</time></trkpt><trkpt lat="45.77128528569738" lon="7.443660628158021"><ele>1336.5</ele><time>2026-05-02T13:05:52Z</time></trkpt><trkpt lat="45.77137530169086" lon="7.443505928680395"><ele>1328.25</ele><time>2026-05-02T13:05:53Z</time></trkpt><trkpt lat="45.77145404257818" lon="7.44334182945485"><ele>1320.0</ele><time>2026-05-02T13:05:54Z</time></trkpt><trkpt lat="45.77153063545644" lon="7.4431772883602845"><ele>1320.0</ele><time>2026-05-02T13:05:55Z</time></trkpt><trkpt lat="45.771574130279035" lon="7.442996372268469"><ele>1320.0</ele><time>2026-05-02T13:05:56Z</time></trkpt><trkpt lat="45.77164537448259" lon="7.442843572126008"><ele>1320.0</ele><time>2026-05-02T13:05:57Z</time></trkpt><trkpt lat="45.771699617405716" lon="7.442686145044783"><ele>1320.0</ele><time>2026-05-02T13:05:58Z</time></trkpt><trkpt lat="45.771747326613806" lon="7.442537203887758"><ele>1316.25</ele><time>2026-05-02T13:05:59Z</time></trkpt><trkpt lat="45.771828595519914" lon="7.442415339546231"><ele>1312.5</ele><time>2026-05-02T13:06:00Z</time></trkpt><trkpt lat="45.771922204298825" lon="7.442296198360761"><ele>1308.75</ele><time>2026-05-02T13:06:01Z</time></trkpt><trkpt lat="45.77201775886585" lon="7.442167805002679"><ele>1305.0</ele><time>2026-05-02T13:06:02Z</time></trkpt><trkpt lat="45.77213003239739" lon="7.442058640628291"><ele>1305.0</ele><time>2026-05-02T13:06:03Z</time></trkpt><trkpt lat="45.772223205086426" lon="7.441937278615897"><ele>1305.0</ele><time>2026-05-02T13:06:04Z</time></trkpt><trkpt lat="45.77229897465931" lon="7.441796733559655"><ele>1305.0</ele><time>2026-05-02T13:06:05Z</time></trkpt><trkpt lat="45.77235589298991" lon="7.4416454564762775"><ele>1305.0</ele><time>2026-05-02T13:06:06Z</time></trkpt><trkpt lat="45.77239539876864" lon="7.441491053463172"><ele>1305.0</ele><time>2026-05-02T13:06:07Z</time></trkpt><trkpt lat="45.77243543332678" lon="7.441343505694166"><ele>1305.0</ele><time>2026-05-02T13:06:08Z</time></trkpt><trkpt lat="45.77246858678855" lon="7.441200285672093"><ele>1305.0</ele><time>2026-05-02T13:06:09Z</time></trkpt><trkpt lat="45.772497029576336" lon="7.441074583297562"><ele>1305.0</ele><time>2026-05-02T13:06:10Z</time></trkpt><trkpt lat="45.77248200584809" lon="7.440948397485609"><ele>1305.0</ele><time>2026-05-02T13:06:11Z</time></trkpt><trkpt lat="45.77242330153618" lon="7.440859611775052"><ele>1305.6</ele><time>2026-05-02T13:06:12Z</time></trkpt><trkpt lat="45.77233490576535" lon="7.440826771580238"><ele>1306.2</ele><time>2026-05-02T13:06:13Z</time></trkpt><trkpt lat="45.77223510653694" lon="7.4408912283258"><ele>1306.8000000000002</ele><time>2026-05-02T13:06:14Z</time></trkpt><trkpt lat="45.77215544400873" lon="7.441023155145245"><ele>1307.4</ele><time>2026-05-02T13:06:15Z</time></trkpt><trkpt lat="45.772080630985535" lon="7.441133678729229"><ele>1308.0</ele><time>2026-05-02T13:06:16Z</time></trkpt><trkpt lat="45.772003126164414" lon="7.4412449394569"><ele>1307.4</ele><time>2026-05-02T13:06:17Z</time></trkpt><trkpt lat="45.77193430289496" lon="7.44135543120358"><ele>1306.8000000000002</ele><time>2026-05-02T13:06:18Z</time></trkpt><trkpt lat="45.77184646113629" lon="7.4414380339046655"><ele>1306.2</ele><time>2026-05-02T13:06:19Z</time></trkpt><trkpt lat="45.77174817322712" lon="7.441457474704731"><ele>1305.6</ele><time>2026-05-02T13:06:20Z</time></trkpt><trkpt lat="45.77165823677578" lon="7.441472130237069"><ele>1305.0</ele><time>2026-05-02T13:06:21Z</time></trkpt><trkpt lat="45.77155705960198" lon="7.441456272230896"><ele>1299.8</ele><time>2026-05-02T13:06:22Z</time></trkpt><trkpt lat="45.77144520538623" lon="7.441487330977413"><ele>1294.6</ele><time>2026-05-02T13:06:23Z</time></trkpt><trkpt lat="45.771353603500465" lon="7.4415759715472936"><ele>1289.4</ele><time>2026-05-02T13:06:24Z</time></trkpt><trkpt lat="45.771244379017745" lon="7.44164060459517"><ele>1284.2</ele><time>2026-05-02T13:06:26Z</time></trkpt><trkpt lat="45.77116507871408" lon="7.441627943776789"><ele>1279.0</ele><time>2026-05-02T13:06:27Z</time></trkpt><trkpt lat="45.771074044083235" lon="7.441643058034101"><ele>1282.8333333333333</ele><time>2026-05-02T13:06:28Z</time></trkpt><trkpt lat="45.770992864435975" lon="7.44167623680527"><ele>1286.6666666666665</ele><time>2026-05-02T13:06:29Z</time></trkpt><trkpt lat="45.77091213830371" lon="7.441707696419185"><ele>1290.5</ele><time>2026-05-02T13:06:30Z</time></trkpt><trkpt lat="45.77083108586317" lon="7.4416890992766485"><ele>1294.3333333333333</ele><time>2026-05-02T13:06:31Z</time></trkpt><trkpt lat="45.77075452661467" lon="7.441643203374015"><ele>1298.1666666666667</ele><time>2026-05-02T13:06:32Z</time></trkpt><trkpt lat="45.77067943750701" lon="7.441616546835416"><ele>1302.0</ele><time>2026-05-02T13:06:33Z</time></trkpt><trkpt lat="45.77059222732138" lon="7.441619188459124"><ele>1302.0</ele><time>2026-05-02T13:06:34Z</time></trkpt><trkpt lat="45.7705108975563" lon="7.4416993549512584"><ele>1302.0</ele><time>2026-05-02T13:06:35Z</time></trkpt><trkpt lat="45.770458297789666" lon="7.441831791048523"><ele>1302.0</ele><time>2026-05-02T13:06:36Z</time></trkpt><trkpt lat="45.7704032546511" lon="7.44194533465738"><ele>1302.0</ele><time>2026-05-02T13:06:37Z</time></trkpt><trkpt lat="45.770330847131305" lon="7.442030142534706"><ele>1302.0</ele><time>2026-05-02T13:06:38Z</time></trkpt><trkpt lat="45.770247878084994" lon="7.44211319603344"><ele>1296.8</ele><time>2026-05-02T13:06:39Z</time></trkpt><trkpt lat="45.77016473119671" lon="7.442194921201896"><ele>1291.6</ele><time>2026-05-02T13:06:40Z</time></trkpt><trkpt lat="45.77008684691385" lon="7.4422352002715275"><ele>1286.3999999999999</ele><time>2026-05-02T13:06:41Z</time></trkpt><trkpt lat="45.77000694468571" lon="7.44225658318671"><ele>1281.1999999999998</ele><time>2026-05-02T13:06:42Z</time></trkpt><trkpt lat="45.7699113912593" lon="7.442272433844833"><ele>1276.0</ele><time>2026-05-02T13:06:43Z</time></trkpt><trkpt lat="45.76981904055584" lon="7.44228706791847"><ele>1276.0</ele><time>2026-05-02T13:06:44Z</time></trkpt><trkpt lat="45.76973469944358" lon="7.442295060583648"><ele>1276.0</ele><time>2026-05-02T13:06:45Z</time></trkpt><trkpt lat="45.76965569295079" lon="7.4422939474224"><ele>1276.0</ele><time>2026-05-02T13:06:46Z</time></trkpt><trkpt lat="45.76955825616549" lon="7.442288436762165"><ele>1276.0</ele><time>2026-05-02T13:06:47Z</time></trkpt><trkpt lat="45.76946692661478" lon="7.442282871569927"><ele>1276.0</ele><time>2026-05-02T13:06:48Z</time></trkpt><trkpt lat="45.76937896006325" lon="7.442277511293002"><ele>1276.0</ele><time>2026-05-02T13:06:49Z</time></trkpt><trkpt lat="45.769296363739265" lon="7.442272478258827"><ele>1278.1999999999998</ele><time>2026-05-02T13:06:50Z</time></trkpt><trkpt lat="45.769195902805784" lon="7.442288839249194"><ele>1280.3999999999999</ele><time>2026-05-02T13:06:51Z</time></trkpt><trkpt lat="45.769097984550065" lon="7.442270223847071"><ele>1282.6</ele><time>2026-05-02T13:06:52Z</time></trkpt><trkpt lat="45.7689898300633" lon="7.442281736493622"><ele>1284.8</ele><time>2026-05-02T13:06:53Z</time></trkpt><trkpt lat="45.768875326098076" lon="7.4423201006253015"><ele>1287.0</ele><time>2026-05-02T13:06:54Z</time></trkpt><trkpt lat="45.76876045931166" lon="7.4423705557020305"><ele>1287.0</ele><time>2026-05-02T13:06:55Z</time></trkpt><trkpt lat="45.76865379687861" lon="7.4424287280045"><ele>1287.0</ele><time>2026-05-02T13:06:56Z</time></trkpt><trkpt lat="45.768541523028084" lon="7.442469252823169"><ele>1287.0</ele><time>2026-05-02T13:06:57Z</time></trkpt><trkpt lat="45.76845074604542" lon="7.442591223909039"><ele>1287.0</ele><time>2026-05-02T13:06:58Z</time></trkpt><trkpt lat="45.76839192626418" lon="7.442730418661097"><ele>1284.3999999999999</ele><time>2026-05-02T13:06:59Z</time></trkpt><trkpt lat="45.768312009744264" lon="7.442833742405376"><ele>1281.8</ele><time>2026-05-02T13:07:00Z</time></trkpt><trkpt lat="45.76824683489315" lon="7.442940526695724"><ele>1279.2</ele><time>2026-05-02T13:07:01Z</time></trkpt><trkpt lat="45.768179574919195" lon="7.443044008637244"><ele>1276.6</ele><time>2026-05-02T13:07:02Z</time></trkpt><trkpt lat="45.768088842846026" lon="7.4431029582584465"><ele>1274.0</ele><time>2026-05-02T13:07:03Z</time></trkpt><trkpt lat="45.76798636214" lon="7.443130777152917"><ele>1274.0</ele><time>2026-05-02T13:07:04Z</time></trkpt><trkpt lat="45.76787220414836" lon="7.4431695664047375"><ele>1274.0</ele><time>2026-05-02T13:07:05Z</time></trkpt><trkpt lat="45.767764394900496" lon="7.44320325439533"><ele>1274.0</ele><time>2026-05-02T13:07:06Z</time></trkpt><trkpt lat="45.767649319708966" lon="7.4432252408726365"><ele>1274.0</ele><time>2026-05-02T13:07:07Z</time></trkpt><trkpt lat="45.76754092930406" lon="7.44325357427305"><ele>1278.2</ele><time>2026-05-02T13:07:08Z</time></trkpt><trkpt lat="45.76742951258566" lon="7.4432832567228235"><ele>1282.4</ele><time>2026-05-02T13:07:09Z</time></trkpt><trkpt lat="45.767336563596565" lon="7.443329931711889"><ele>1286.6</ele><time>2026-05-02T13:07:10Z</time></trkpt><trkpt lat="45.76725138369597" lon="7.4433670621674635"><ele>1290.8</ele><time>2026-05-02T13:07:11Z</time></trkpt><trkpt lat="45.767180993736055" lon="7.443456361586672"><ele>1295.0</ele><time>2026-05-02T13:07:12Z</time></trkpt><trkpt lat="45.76712693936391" lon="7.443571141274537"><ele>1295.0</ele><time>2026-05-02T13:07:13Z</time></trkpt><trkpt lat="45.76710583320689" lon="7.443718418962495"><ele>1295.0</ele><time>2026-05-02T13:07:14Z</time></trkpt><trkpt lat="45.76708750768185" lon="7.443874276729652"><ele>1295.0</ele><time>2026-05-02T13:07:15Z</time></trkpt><trkpt lat="45.767050975168125" lon="7.444043812539223"><ele>1295.0</ele><time>2026-05-02T13:07:16Z</time></trkpt><trkpt lat="45.767040343587276" lon="7.444224622665274"><ele>1295.8</ele><time>2026-05-02T13:07:17Z</time></trkpt><trkpt lat="45.76701755482038" lon="7.44437577394512"><ele>1296.6</ele><time>2026-05-02T13:07:18Z</time></trkpt><trkpt lat="45.76699479051062" lon="7.444506642647925"><ele>1297.4</ele><time>2026-05-02T13:07:19Z</time></trkpt><trkpt lat="45.76694626012214" lon="7.444619932461138"><ele>1298.2</ele><time>2026-05-02T13:07:20Z</time></trkpt><trkpt lat="45.76687386693984" lon="7.44470360260087"><ele>1299.0</ele><time>2026-05-02T13:07:21Z</time></trkpt><trkpt lat="45.766790275355895" lon="7.444786901218971"><ele>1299.0</ele><time>2026-05-02T13:07:22Z</time></trkpt><trkpt lat="45.766697795713746" lon="7.444885579099245"><ele>1299.0</ele><time>2026-05-02T13:07:23Z</time></trkpt><trkpt lat="45.76659612851443" lon="7.444993558080567"><ele>1299.0</ele><time>2026-05-02T13:07:24Z</time></trkpt><trkpt lat="45.766477761135" lon="7.445080481549374"><ele>1299.0</ele><time>2026-05-02T13:07:25Z</time></trkpt><trkpt lat="45.766385125577514" lon="7.44520456978682"><ele>1299.0</ele><time>2026-05-02T13:07:26Z</time></trkpt><trkpt lat="45.76629463365606" lon="7.4453004553125"><ele>1299.0</ele><time>2026-05-02T13:07:27Z</time></trkpt><trkpt lat="45.76624893257009" lon="7.445460090321698"><ele>1299.0</ele><time>2026-05-02T13:07:28Z</time></trkpt><trkpt lat="45.76619032179394" lon="7.445596970123225"><ele>1299.0</ele><time>2026-05-02T13:07:29Z</time></trkpt><trkpt lat="45.76616790883355" lon="7.445745539017956"><ele>1297.4</ele><time>2026-05-02T13:07:30Z</time></trkpt><trkpt lat="45.76610890600833" lon="7.445866543243454"><ele>1295.8000000000002</ele><time>2026-05-02T13:07:31Z</time></trkpt><trkpt lat="45.7660602850387" lon="7.445983181985253"><ele>1294.1999999999998</ele><time>2026-05-02T13:07:32Z</time></trkpt><trkpt lat="45.76600334618535" lon="7.4460979810752335"><ele>1292.6</ele><time>2026-05-02T13:07:33Z</time></trkpt><trkpt lat="45.76594424798923" lon="7.446230950922216"><ele>1291.0</ele><time>2026-05-02T13:07:34Z</time></trkpt><trkpt lat="45.76584360336248" lon="7.446323539822316"><ele>1291.0</ele><time>2026-05-02T13:07:35Z</time></trkpt><trkpt lat="45.76574130035644" lon="7.446451453658899"><ele>1291.0</ele><time>2026-05-02T13:07:36Z</time></trkpt><trkpt lat="45.765670462902996" lon="7.4466255303313496"><ele>1291.0</ele><time>2026-05-02T13:07:37Z</time></trkpt><trkpt lat="45.765586707645284" lon="7.446780557000087"><ele>1291.0</ele><time>2026-05-02T13:07:38Z</time></trkpt><trkpt lat="45.76551014146799" lon="7.446938972618892"><ele>1291.0</ele><time>2026-05-02T13:07:39Z</time></trkpt><trkpt lat="45.76543710774188" lon="7.44710320772447"><ele>1291.0</ele><time>2026-05-02T13:07:40Z</time></trkpt><trkpt lat="45.765370052406844" lon="7.4472642321143265"><ele>1291.0</ele><time>2026-05-02T13:07:41Z</time></trkpt><trkpt lat="45.765295458468586" lon="7.447417060601933"><ele>1291.0</ele><time>2026-05-02T13:07:42Z</time></trkpt><trkpt lat="45.76522038268318" lon="7.447553025828078"><ele>1289.8</ele><time>2026-05-02T13:07:43Z</time></trkpt><trkpt lat="45.76514995670942" lon="7.4476806684214445"><ele>1288.6</ele><time>2026-05-02T13:07:44Z</time></trkpt><trkpt lat="45.76508450247469" lon="7.447790100239844"><ele>1287.4</ele><time>2026-05-02T13:07:45Z</time></trkpt><trkpt lat="45.76501751795997" lon="7.44785849769791"><ele>1286.2</ele><time>2026-05-02T13:07:46Z</time></trkpt><trkpt lat="45.76493998053878" lon="7.447895857109488"><ele>1285.0</ele><time>2026-05-02T13:07:47Z</time></trkpt><trkpt lat="45.76484702005088" lon="7.447908946594713"><ele>1285.0</ele><time>2026-05-02T13:07:48Z</time></trkpt><trkpt lat="45.76474218975412" lon="7.447912754607941"><ele>1285.0</ele><time>2026-05-02T13:07:49Z</time></trkpt><trkpt lat="45.76462628909537" lon="7.447935045720278"><ele>1285.0</ele><time>2026-05-02T13:07:50Z</time></trkpt><trkpt lat="45.76450888493511" lon="7.4479654025567905"><ele>1285.0</ele><time>2026-05-02T13:07:51Z</time></trkpt><trkpt lat="45.76442305423304" lon="7.448040904738747"><ele>1285.0</ele><time>2026-05-02T13:07:52Z</time></trkpt><trkpt lat="45.76436522264761" lon="7.448119662543575"><ele>1284.4</ele><time>2026-05-02T13:07:53Z</time></trkpt><trkpt lat="45.76425590379627" lon="7.448102807555825"><ele>1283.8</ele><time>2026-05-02T13:07:55Z</time></trkpt><trkpt lat="45.76421308485168" lon="7.447987658165619"><ele>1283.1999999999998</ele><time>2026-05-02T13:07:56Z</time></trkpt><trkpt lat="45.764146976873754" lon="7.447869578822366"><ele>1282.6</ele><time>2026-05-02T13:07:57Z</time></trkpt><trkpt lat="45.764064279922394" lon="7.447721123195199"><ele>1282.0</ele><time>2026-05-02T13:07:58Z</time></trkpt><trkpt lat="45.76395740105671" lon="7.447603765916371"><ele>1282.0</ele><time>2026-05-02T13:07:59Z</time></trkpt><trkpt lat="45.763846145397856" lon="7.447521138715559"><ele>1282.0</ele><time>2026-05-02T13:08:00Z</time></trkpt><trkpt lat="45.76373919453765" lon="7.447442940699671"><ele>1282.0</ele><time>2026-05-02T13:08:01Z</time></trkpt><trkpt lat="45.76365120612001" lon="7.447351721207405"><ele>1282.0</ele><time>2026-05-02T13:08:02Z</time></trkpt><trkpt lat="45.76356956655424" lon="7.447260476802"><ele>1280.8</ele><time>2026-05-02T13:08:03Z</time></trkpt><trkpt lat="45.763503378305764" lon="7.447175083138207"><ele>1279.6</ele><time>2026-05-02T13:08:04Z</time></trkpt><trkpt lat="45.763439178170415" lon="7.447106361142552"><ele>1278.3999999999999</ele><time>2026-05-02T13:08:05Z</time></trkpt><trkpt lat="45.76336622773696" lon="7.4470386275495555"><ele>1277.1999999999998</ele><time>2026-05-02T13:08:06Z</time></trkpt><trkpt lat="45.76327016394264" lon="7.4469916291396485"><ele>1276.0</ele><time>2026-05-02T13:08:07Z</time></trkpt><trkpt lat="45.76315667255795" lon="7.446937387857856"><ele>1276.0</ele><time>2026-05-02T13:08:08Z</time></trkpt><trkpt lat="45.76303166222171" lon="7.446892687793765"><ele>1276.0</ele><time>2026-05-02T13:08:09Z</time></trkpt><trkpt lat="45.7628855507207" lon="7.446850463268158"><ele>1276.0</ele><time>2026-05-02T13:08:10Z</time></trkpt><trkpt lat="45.76274670231233" lon="7.44685090947319"><ele>1276.0</ele><time>2026-05-02T13:08:11Z</time></trkpt><trkpt lat="45.76261869771617" lon="7.4468640176581395"><ele>1275.3999999999999</ele><time>2026-05-02T13:08:12Z</time></trkpt><trkpt lat="45.76249876980471" lon="7.446844546977701"><ele>1274.8</ele><time>2026-05-02T13:08:13Z</time></trkpt><trkpt lat="45.762389521090384" lon="7.446837782213309"><ele>1274.1999999999998</ele><time>2026-05-02T13:08:14Z</time></trkpt><trkpt lat="45.762280425262425" lon="7.446821575714586"><ele>1273.6</ele><time>2026-05-02T13:08:15Z</time></trkpt><trkpt lat="45.76217486549607" lon="7.446798952091076"><ele>1273.0</ele><time>2026-05-02T13:08:16Z</time></trkpt><trkpt lat="45.76206279850891" lon="7.446776347160387"><ele>1273.0</ele><time>2026-05-02T13:08:17Z</time></trkpt><trkpt lat="45.76197174437751" lon="7.4467336498006205"><ele>1273.0</ele><time>2026-05-02T13:08:18Z</time></trkpt><trkpt lat="45.76189909137626" lon="7.446663508252658"><ele>1273.0</ele><time>2026-05-02T13:08:19Z</time></trkpt><trkpt lat="45.76183337737525" lon="7.44657244693138"><ele>1273.0</ele><time>2026-05-02T13:08:20Z</time></trkpt><trkpt lat="45.7617311156353" lon="7.446527916445131"><ele>1273.0</ele><time>2026-05-02T13:08:21Z</time></trkpt><trkpt lat="45.76161435338098" lon="7.446521888493873"><ele>1273.8</ele><time>2026-05-02T13:08:22Z</time></trkpt><trkpt lat="45.761500887538766" lon="7.446488621221592"><ele>1274.6</ele><time>2026-05-02T13:08:23Z</time></trkpt><trkpt lat="45.76139420878655" lon="7.446438917801972"><ele>1275.4</ele><time>2026-05-02T13:08:24Z</time></trkpt><trkpt lat="45.7612993512374" lon="7.446400312153691"><ele>1276.2</ele><time>2026-05-02T13:08:25Z</time></trkpt><trkpt lat="45.761229899942094" lon="7.446316753947233"><ele>1277.0</ele><time>2026-05-02T13:08:26Z</time></trkpt><trkpt lat="45.76117573590021" lon="7.446186857408102"><ele>1277.0</ele><time>2026-05-02T13:08:27Z</time></trkpt><trkpt lat="45.76111428008318" lon="7.446061030341491"><ele>1277.0</ele><time>2026-05-02T13:08:28Z</time></trkpt><trkpt lat="45.76103221803619" lon="7.445930517505184"><ele>1277.0</ele><time>2026-05-02T13:08:29Z</time></trkpt><trkpt lat="45.7609219260734" lon="7.445865839289321"><ele>1277.0</ele><time>2026-05-02T13:08:30Z</time></trkpt><trkpt lat="45.76082247267695" lon="7.445822080271748"><ele>1273.5</ele><time>2026-05-02T13:08:31Z</time></trkpt><trkpt lat="45.76074378936112" lon="7.445727600952265"><ele>1270.0</ele><time>2026-05-02T13:08:32Z</time></trkpt><trkpt lat="45.760685256405516" lon="7.445644334629271"><ele>1266.5</ele><time>2026-05-02T13:08:33Z</time></trkpt><trkpt lat="45.760640243210815" lon="7.445572430943843"><ele>1263.0</ele><time>2026-05-02T13:08:34Z</time></trkpt><trkpt lat="45.76055124837857" lon="7.44565764692169"><ele>1259.5</ele><time>2026-05-02T13:08:36Z</time></trkpt><trkpt lat="45.76057216302979" lon="7.445775616968561"><ele>1256.0</ele><time>2026-05-02T13:08:37Z</time></trkpt><trkpt lat="45.760670083491476" lon="7.445877385835677"><ele>1256.0</ele><time>2026-05-02T13:08:38Z</time></trkpt><trkpt lat="45.76075300451879" lon="7.445992344862516"><ele>1256.0</ele><time>2026-05-02T13:08:39Z</time></trkpt><trkpt lat="45.76082360191916" lon="7.446140022301907"><ele>1256.0</ele><time>2026-05-02T13:08:40Z</time></trkpt><trkpt lat="45.76085914176122" lon="7.446308903455278"><ele>1256.0</ele><time>2026-05-02T13:08:41Z</time></trkpt><trkpt lat="45.760885247948806" lon="7.446453725388716"><ele>1257.0</ele><time>2026-05-02T13:08:42Z</time></trkpt><trkpt lat="45.76092709783307" lon="7.446594953632572"><ele>1258.0</ele><time>2026-05-02T13:08:43Z</time></trkpt><trkpt lat="45.760996143565244" lon="7.446705095182189"><ele>1259.0</ele><time>2026-05-02T13:08:44Z</time></trkpt><trkpt lat="45.76109739431004" lon="7.446799377983605"><ele>1260.0</ele><time>2026-05-02T13:08:45Z</time></trkpt><trkpt lat="45.7612198042372" lon="7.4468985157393615"><ele>1260.0</ele><time>2026-05-02T13:08:46Z</time></trkpt><trkpt lat="45.761350035778335" lon="7.446982146536647"><ele>1260.0</ele><time>2026-05-02T13:08:47Z</time></trkpt><trkpt lat="45.76146396503038" lon="7.447066990301245"><ele>1260.0</ele><time>2026-05-02T13:08:48Z</time></trkpt><trkpt lat="45.76155862540851" lon="7.447187078842454"><ele>1260.0</ele><time>2026-05-02T13:08:49Z</time></trkpt><trkpt lat="45.76162934438703" lon="7.447316085400532"><ele>1256.0</ele><time>2026-05-02T13:08:50Z</time></trkpt><trkpt lat="45.761706659647025" lon="7.4474307172802146"><ele>1252.0</ele><time>2026-05-02T13:08:51Z</time></trkpt><trkpt lat="45.76177304957626" lon="7.447516066590254"><ele>1248.0</ele><time>2026-05-02T13:08:52Z</time></trkpt><trkpt lat="45.76176964702176" lon="7.447664304202054"><ele>1244.0</ele><time>2026-05-02T13:08:54Z</time></trkpt><trkpt lat="45.76168207559253" lon="7.447606917272763"><ele>1240.0</ele><time>2026-05-02T13:08:56Z</time></trkpt><trkpt lat="45.761600869897805" lon="7.447469974917405"><ele>1240.0</ele><time>2026-05-02T13:08:57Z</time></trkpt><trkpt lat="45.7614860930262" lon="7.447343617887464"><ele>1240.0</ele><time>2026-05-02T13:08:58Z</time></trkpt><trkpt lat="45.76135317321075" lon="7.4472555112889"><ele>1240.0</ele><time>2026-05-02T13:08:59Z</time></trkpt><trkpt lat="45.761204446300205" lon="7.447202964415415"><ele>1240.0</ele><time>2026-05-02T13:09:00Z</time></trkpt><trkpt lat="45.761069153829915" lon="7.447138595226452"><ele>1239.6</ele><time>2026-05-02T13:09:01Z</time></trkpt><trkpt lat="45.76095501374862" lon="7.447107438379685"><ele>1239.2</ele><time>2026-05-02T13:09:02Z</time></trkpt><trkpt lat="45.76086557803351" lon="7.447057524839135"><ele>1238.8</ele><time>2026-05-02T13:09:03Z</time></trkpt><trkpt lat="45.76078323133793" lon="7.446969709000777"><ele>1238.4</ele><time>2026-05-02T13:09:04Z</time></trkpt><trkpt lat="45.76068855406004" lon="7.446857735981577"><ele>1238.0</ele><time>2026-05-02T13:09:05Z</time></trkpt><trkpt lat="45.760616516390016" lon="7.44675975581475"><ele>1238.0</ele><time>2026-05-02T13:09:06Z</time></trkpt><trkpt lat="45.760593158503355" lon="7.44659312408661"><ele>1238.0</ele><time>2026-05-02T13:09:07Z</time></trkpt><trkpt lat="45.760513443823896" lon="7.446412338206193"><ele>1238.0</ele><time>2026-05-02T13:09:08Z</time></trkpt><trkpt lat="45.76039273015603" lon="7.446258454273483"><ele>1238.0</ele><time>2026-05-02T13:09:09Z</time></trkpt><trkpt lat="45.760290323300794" lon="7.4461057968307385"><ele>1233.75</ele><time>2026-05-02T13:09:10Z</time></trkpt><trkpt lat="45.76019021298094" lon="7.445959644343582"><ele>1229.5</ele><time>2026-05-02T13:09:11Z</time></trkpt><trkpt lat="45.760101196081976" lon="7.445828303400255"><ele>1225.25</ele><time>2026-05-02T13:09:12Z</time></trkpt><trkpt lat="45.760009266167444" lon="7.4457094200103935"><ele>1221.0</ele><time>2026-05-02T13:09:13Z</time></trkpt><trkpt lat="45.75990889210207" lon="7.445649302041996"><ele>1221.0</ele><time>2026-05-02T13:09:14Z</time></trkpt><trkpt lat="45.75981625511515" lon="7.4455687278023825"><ele>1221.0</ele><time>2026-05-02T13:09:15Z</time></trkpt><trkpt lat="45.7597684912399" lon="7.445403220971448"><ele>1221.0</ele><time>2026-05-02T13:09:16Z</time></trkpt><trkpt lat="45.75969482197633" lon="7.445255345069878"><ele>1221.0</ele><time>2026-05-02T13:09:17Z</time></trkpt><trkpt lat="45.759655243917656" lon="7.445096903594293"><ele>1216.75</ele><time>2026-05-02T13:09:18Z</time></trkpt><trkpt lat="45.759601661402876" lon="7.444972142683806"><ele>1212.5</ele><time>2026-05-02T13:09:19Z</time></trkpt><trkpt lat="45.75950480561795" lon="7.444874430402343"><ele>1208.25</ele><time>2026-05-02T13:09:20Z</time></trkpt><trkpt lat="45.759379953882686" lon="7.444858418391034"><ele>1204.0</ele><time>2026-05-02T13:09:21Z</time></trkpt><trkpt lat="45.759271792213696" lon="7.4448390957294"><ele>1204.0</ele><time>2026-05-02T13:09:22Z</time></trkpt><trkpt lat="45.75918132881477" lon="7.444808086277612"><ele>1204.0</ele><time>2026-05-02T13:09:23Z</time></trkpt><trkpt lat="45.75909693661078" lon="7.444756305968556"><ele>1204.0</ele><time>2026-05-02T13:09:24Z</time></trkpt><trkpt lat="45.75902089222199" lon="7.444655140239141"><ele>1204.0</ele><time>2026-05-02T13:09:25Z</time></trkpt><trkpt lat="45.75895618892762" lon="7.444529777727375"><ele>1204.0</ele><time>2026-05-02T13:09:26Z</time></trkpt><trkpt lat="45.75891415515678" lon="7.444395488180952"><ele>1205.6000000000001</ele><time>2026-05-02T13:09:27Z</time></trkpt><trkpt lat="45.758870741541976" lon="7.444263694524197"><ele>1207.2</ele><time>2026-05-02T13:09:28Z</time></trkpt><trkpt lat="45.75881331905446" lon="7.444167851472405"><ele>1208.8000000000002</ele><time>2026-05-02T13:09:29Z</time></trkpt><trkpt lat="45.75872981208061" lon="7.444091966324195"><ele>1210.4</ele><time>2026-05-02T13:09:30Z</time></trkpt><trkpt lat="45.75862910457773" lon="7.444103361199619"><ele>1212.0</ele><time>2026-05-02T13:09:31Z</time></trkpt><trkpt lat="45.75853184336709" lon="7.444186925942694"><ele>1212.0</ele><time>2026-05-02T13:09:32Z</time></trkpt><trkpt lat="45.758453282667844" lon="7.444255543888221"><ele>1212.0</ele><time>2026-05-02T13:09:33Z</time></trkpt><trkpt lat="45.75833398826028" lon="7.444303383810531"><ele>1212.0</ele><time>2026-05-02T13:09:35Z</time></trkpt><trkpt lat="45.75825777335555" lon="7.444296253734262"><ele>1212.0</ele><time>2026-05-02T13:09:36Z</time></trkpt><trkpt lat="45.758162552161245" lon="7.444295263199565"><ele>1212.0</ele><time>2026-05-02T13:09:37Z</time></trkpt><trkpt lat="45.75806607791278" lon="7.444286646311067"><ele>1212.0</ele><time>2026-05-02T13:09:38Z</time></trkpt><trkpt lat="45.75796219670053" lon="7.444273842429375"><ele>1212.0</ele><time>2026-05-02T13:09:39Z</time></trkpt><trkpt lat="45.757867473182884" lon="7.4442455210694085"><ele>1212.0</ele><time>2026-05-02T13:09:40Z</time></trkpt><trkpt lat="45.75772444075745" lon="7.444167159964128"><ele>1212.0</ele><time>2026-05-02T13:09:41Z</time></trkpt><trkpt lat="45.7575858490932" lon="7.4440984257007665"><ele>1214.4</ele><time>2026-05-02T13:09:42Z</time></trkpt><trkpt lat="45.757461523824894" lon="7.444081096043463"><ele>1216.8000000000002</ele><time>2026-05-02T13:09:43Z</time></trkpt><trkpt lat="45.75735883175941" lon="7.4440160727229"><ele>1219.2</ele><time>2026-05-02T13:09:44Z</time></trkpt><trkpt lat="45.75728778317482" lon="7.44390248436865"><ele>1221.6000000000001</ele><time>2026-05-02T13:09:45Z</time></trkpt><trkpt lat="45.75723456150004" lon="7.443808928037991"><ele>1224.0</ele><time>2026-05-02T13:09:46Z</time></trkpt><trkpt lat="45.757173143425916" lon="7.443751195340523"><ele>1218.2</ele><time>2026-05-02T13:09:47Z</time></trkpt><trkpt lat="45.75709239326072" lon="7.443810651096493"><ele>1212.4</ele><time>2026-05-02T13:09:49Z</time></trkpt><trkpt lat="45.75714581275492" lon="7.444002782004144"><ele>1206.6</ele><time>2026-05-02T13:09:52Z</time></trkpt><trkpt lat="45.75719866468457" lon="7.444079063998911"><ele>1200.8</ele><time>2026-05-02T13:09:53Z</time></trkpt><trkpt lat="45.75725739135097" lon="7.4441721009380535"><ele>1195.0</ele><time>2026-05-02T13:09:54Z</time></trkpt><trkpt lat="45.757332148059774" lon="7.444265601868109"><ele>1195.0</ele><time>2026-05-02T13:09:55Z</time></trkpt><trkpt lat="45.757425916522095" lon="7.444355536758277"><ele>1195.0</ele><time>2026-05-02T13:09:56Z</time></trkpt><trkpt lat="45.75752242331003" lon="7.444464119416238"><ele>1195.0</ele><time>2026-05-02T13:09:57Z</time></trkpt><trkpt lat="45.75762092671724" lon="7.444559336678363"><ele>1195.0</ele><time>2026-05-02T13:09:58Z</time></trkpt><trkpt lat="45.75773037523722" lon="7.44463030804554"><ele>1191.0</ele><time>2026-05-02T13:09:59Z</time></trkpt><trkpt lat="45.757852551074954" lon="7.4446751530989985"><ele>1187.0</ele><time>2026-05-02T13:10:00Z</time></trkpt><trkpt lat="45.757979847599856" lon="7.4447155408597565"><ele>1183.0</ele><time>2026-05-02T13:10:01Z</time></trkpt><trkpt lat="45.75810726402206" lon="7.444770019652807"><ele>1179.0</ele><time>2026-05-02T13:10:02Z</time></trkpt><trkpt lat="45.75822818608357" lon="7.4448283441231835"><ele>1179.0</ele><time>2026-05-02T13:10:03Z</time></trkpt><trkpt lat="45.75834382055391" lon="7.4448906948765226"><ele>1179.0</ele><time>2026-05-02T13:10:04Z</time></trkpt><trkpt lat="45.75844709780265" lon="7.44496196949779"><ele>1179.0</ele><time>2026-05-02T13:10:05Z</time></trkpt><trkpt lat="45.758519767541266" lon="7.445077137079561"><ele>1179.0</ele><time>2026-05-02T13:10:06Z</time></trkpt><trkpt lat="45.75855758333921" lon="7.4452222789976075"><ele>1179.5</ele><time>2026-05-02T13:10:07Z</time></trkpt><trkpt lat="45.758591175549455" lon="7.445386250241667"><ele>1180.0</ele><time>2026-05-02T13:10:08Z</time></trkpt><trkpt lat="45.75864938980425" lon="7.445538251656547"><ele>1180.5</ele><time>2026-05-02T13:10:09Z</time></trkpt><trkpt lat="45.7587307459014" lon="7.4456883256129816"><ele>1181.0</ele><time>2026-05-02T13:10:10Z</time></trkpt><trkpt lat="45.75882032193569" lon="7.445832613489517"><ele>1181.0</ele><time>2026-05-02T13:10:11Z</time></trkpt><trkpt lat="45.758908282734794" lon="7.445969133702106"><ele>1181.0</ele><time>2026-05-02T13:10:12Z</time></trkpt><trkpt lat="45.758978675773626" lon="7.446111295564651"><ele>1181.0</ele><time>2026-05-02T13:10:13Z</time></trkpt><trkpt lat="45.759048151077195" lon="7.446245702361859"><ele>1181.0</ele><time>2026-05-02T13:10:14Z</time></trkpt><trkpt lat="45.7591088415541" lon="7.4463858546629"><ele>1176.5</ele><time>2026-05-02T13:10:15Z</time></trkpt><trkpt lat="45.759135642029214" lon="7.446553980510858"><ele>1172.0</ele><time>2026-05-02T13:10:16Z</time></trkpt><trkpt lat="45.759153942157475" lon="7.446730006012756"><ele>1167.5</ele><time>2026-05-02T13:10:17Z</time></trkpt><trkpt lat="45.759194469557116" lon="7.446895026230167"><ele>1163.0</ele><time>2026-05-02T13:10:18Z</time></trkpt><trkpt lat="45.75922637288911" lon="7.447049282968887"><ele>1160.8</ele><time>2026-05-02T13:10:19Z</time></trkpt><trkpt lat="45.75923749037188" lon="7.447190737191771"><ele>1158.6</ele><time>2026-05-02T13:10:20Z</time></trkpt><trkpt lat="45.75921734193532" lon="7.447312325370206"><ele>1156.4</ele><time>2026-05-02T13:10:21Z</time></trkpt><trkpt lat="45.75916249837866" lon="7.447407485488954"><ele>1154.2</ele><time>2026-05-02T13:10:22Z</time></trkpt><trkpt lat="45.75909832129127" lon="7.447511781961201"><ele>1152.0</ele><time>2026-05-02T13:10:23Z</time></trkpt><trkpt lat="45.75906226924303" lon="7.447632210271972"><ele>1152.0</ele><time>2026-05-02T13:10:24Z</time></trkpt><trkpt lat="45.759061100899906" lon="7.447768963855153"><ele>1152.0</ele><time>2026-05-02T13:10:25Z</time></trkpt><trkpt lat="45.7591101531966" lon="7.447909875729244"><ele>1152.0</ele><time>2026-05-02T13:10:26Z</time></trkpt><trkpt lat="45.75917640281984" lon="7.4480299088444415"><ele>1152.0</ele><time>2026-05-02T13:10:27Z</time></trkpt><trkpt lat="45.75924920884744" lon="7.448159368778966"><ele>1152.0</ele><time>2026-05-02T13:10:28Z</time></trkpt><trkpt lat="45.759312660059685" lon="7.4483022101825345"><ele>1151.0</ele><time>2026-05-02T13:10:29Z</time></trkpt><trkpt lat="45.75936746898515" lon="7.448458300053991"><ele>1150.0</ele><time>2026-05-02T13:10:30Z</time></trkpt><trkpt lat="45.759417583836836" lon="7.448621219616421"><ele>1149.0</ele><time>2026-05-02T13:10:31Z</time></trkpt><trkpt lat="45.75946392025934" lon="7.448796704213274"><ele>1148.0</ele><time>2026-05-02T13:10:32Z</time></trkpt><trkpt lat="45.75951092718822" lon="7.448978769224806"><ele>1148.0</ele><time>2026-05-02T13:10:33Z</time></trkpt><trkpt lat="45.75955774334356" lon="7.449158839453676"><ele>1148.0</ele><time>2026-05-02T13:10:34Z</time></trkpt><trkpt lat="45.759597684268876" lon="7.449338689935895"><ele>1148.0</ele><time>2026-05-02T13:10:35Z</time></trkpt><trkpt lat="45.75962570664977" lon="7.449529342531844"><ele>1148.0</ele><time>2026-05-02T13:10:36Z</time></trkpt><trkpt lat="45.759645339452135" lon="7.44971753070536"><ele>1145.0</ele><time>2026-05-02T13:10:37Z</time></trkpt><trkpt lat="45.75966315807426" lon="7.4499016638833275"><ele>1142.0</ele><time>2026-05-02T13:10:38Z</time></trkpt><trkpt lat="45.7596852816833" lon="7.450083031555062"><ele>1139.0</ele><time>2026-05-02T13:10:39Z</time></trkpt><trkpt lat="45.75972330217301" lon="7.450257047586724"><ele>1136.0</ele><time>2026-05-02T13:10:40Z</time></trkpt><trkpt lat="45.75977753455156" lon="7.450414957517816"><ele>1132.75</ele><time>2026-05-02T13:10:41Z</time></trkpt><trkpt lat="45.75985585566109" lon="7.450556890010158"><ele>1129.5</ele><time>2026-05-02T13:10:42Z</time></trkpt><trkpt lat="45.7599514117751" lon="7.450676069104558"><ele>1126.25</ele><time>2026-05-02T13:10:43Z</time></trkpt><trkpt lat="45.760062426487444" lon="7.45077408338238"><ele>1123.0</ele><time>2026-05-02T13:10:44Z</time></trkpt><trkpt lat="45.760173295678634" lon="7.450867683575493"><ele>1124.75</ele><time>2026-05-02T13:10:45Z</time></trkpt><trkpt lat="45.76028748350893" lon="7.4509672105980425"><ele>1126.5</ele><time>2026-05-02T13:10:46Z</time></trkpt><trkpt lat="45.76039963523575" lon="7.451059727257899"><ele>1128.25</ele><time>2026-05-02T13:10:47Z</time></trkpt><trkpt lat="45.76050129557104" lon="7.451170336942877"><ele>1130.0</ele><time>2026-05-02T13:10:48Z</time></trkpt><trkpt lat="45.76057777179076" lon="7.451292567347489"><ele>1127.5</ele><time>2026-05-02T13:10:49Z</time></trkpt><trkpt lat="45.76062844639007" lon="7.4514092339256335"><ele>1125.0</ele><time>2026-05-02T13:10:50Z</time></trkpt><trkpt lat="45.76065835965005" lon="7.451523068888959"><ele>1122.5</ele><time>2026-05-02T13:10:51Z</time></trkpt><trkpt lat="45.76064564704184" lon="7.451624405016971"><ele>1120.0</ele><time>2026-05-02T13:10:52Z</time></trkpt><trkpt lat="45.76059781551876" lon="7.451696931103117"><ele>1117.5</ele><time>2026-05-02T13:10:53Z</time></trkpt><trkpt lat="45.76052012682523" lon="7.451729802012357"><ele>1115.0</ele><time>2026-05-02T13:10:54Z</time></trkpt><trkpt lat="45.760415726018444" lon="7.4517402229846335"><ele>1115.0</ele><time>2026-05-02T13:10:55Z</time></trkpt><trkpt lat="45.76028722163247" lon="7.45174658589283"><ele>1115.0</ele><time>2026-05-02T13:10:56Z</time></trkpt><trkpt lat="45.7601502398524" lon="7.451759857379209"><ele>1115.0</ele><time>2026-05-02T13:10:57Z</time></trkpt><trkpt lat="45.76001567747315" lon="7.4518224738199015"><ele>1115.0</ele><time>2026-05-02T13:10:58Z</time></trkpt><trkpt lat="45.75989191968755" lon="7.451913267742181"><ele>1114.0</ele><time>2026-05-02T13:10:59Z</time></trkpt><trkpt lat="45.75977036512666" lon="7.452008866605273"><ele>1113.0</ele><time>2026-05-02T13:11:00Z</time></trkpt><trkpt lat="45.75964352705818" lon="7.452102985674096"><ele>1112.0</ele><time>2026-05-02T13:11:01Z</time></trkpt><trkpt lat="45.75951855250549" lon="7.45219831598729"><ele>1111.0</ele><time>2026-05-02T13:11:02Z</time></trkpt><trkpt lat="45.75939373195687" lon="7.45229891021331"><ele>1107.0</ele><time>2026-05-02T13:11:03Z</time></trkpt><trkpt lat="45.75924589798899" lon="7.452337993230087"><ele>1103.0</ele><time>2026-05-02T13:11:04Z</time></trkpt><trkpt lat="45.75908441083302" lon="7.452386903583361"><ele>1099.0</ele><time>2026-05-02T13:11:05Z</time></trkpt><trkpt lat="45.75892014355276" lon="7.452435638876484"><ele>1099.0</ele><time>2026-05-02T13:11:06Z</time></trkpt><trkpt lat="45.75874888273161" lon="7.452483062177745"><ele>1099.0</ele><time>2026-05-02T13:11:07Z</time></trkpt><trkpt lat="45.758589945428575" lon="7.452549005182622"><ele>1099.0</ele><time>2026-05-02T13:11:08Z</time></trkpt><trkpt lat="45.75843167550416" lon="7.4525915667616225"><ele>1098.0</ele><time>2026-05-02T13:11:09Z</time></trkpt><trkpt lat="45.75829061020823" lon="7.452643142916035"><ele>1097.0</ele><time>2026-05-02T13:11:10Z</time></trkpt><trkpt lat="45.758145237599734" lon="7.452667776764876"><ele>1096.0</ele><time>2026-05-02T13:11:11Z</time></trkpt><trkpt lat="45.758011657532734" lon="7.4527338552138644"><ele>1095.0</ele><time>2026-05-02T13:11:12Z</time></trkpt><trkpt lat="45.757884819544785" lon="7.4527673352363575"><ele>1095.0</ele><time>2026-05-02T13:11:13Z</time></trkpt><trkpt lat="45.75776692276647" lon="7.452771685067676"><ele>1095.0</ele><time>2026-05-02T13:11:14Z</time></trkpt><trkpt lat="45.75767166635644" lon="7.45273219733334"><ele>1095.0</ele><time>2026-05-02T13:11:15Z</time></trkpt><trkpt lat="45.75761439110756" lon="7.452620991974987"><ele>1095.0</ele><time>2026-05-02T13:11:16Z</time></trkpt><trkpt lat="45.75753497889637" lon="7.45250047688213"><ele>1095.0</ele><time>2026-05-02T13:11:17Z</time></trkpt><trkpt lat="45.75744677530664" lon="7.452369046545973"><ele>1094.0</ele><time>2026-05-02T13:11:18Z</time></trkpt><trkpt lat="45.75735270068642" lon="7.45222924899567"><ele>1093.0</ele><time>2026-05-02T13:11:19Z</time></trkpt><trkpt lat="45.757258846881214" lon="7.45209195663088"><ele>1092.0</ele><time>2026-05-02T13:11:20Z</time></trkpt><trkpt lat="45.75716378861294" lon="7.451954003481925"><ele>1091.0</ele><time>2026-05-02T13:11:21Z</time></trkpt><trkpt lat="45.75706322393657" lon="7.451815128769421"><ele>1090.25</ele><time>2026-05-02T13:11:22Z</time></trkpt><trkpt lat="45.756952045821464" lon="7.451685550499958"><ele>1089.5</ele><time>2026-05-02T13:11:23Z</time></trkpt><trkpt lat="45.75682567761071" lon="7.451584357405324"><ele>1088.75</ele><time>2026-05-02T13:11:24Z</time></trkpt><trkpt lat="45.75669283464693" lon="7.451514418943515"><ele>1088.0</ele><time>2026-05-02T13:11:25Z</time></trkpt><trkpt lat="45.75655968632903" lon="7.451475995450822"><ele>1088.0</ele><time>2026-05-02T13:11:26Z</time></trkpt><trkpt lat="45.7564296647749" lon="7.451414569947863"><ele>1088.0</ele><time>2026-05-02T13:11:27Z</time></trkpt><trkpt lat="45.756306422973374" lon="7.4513325513285995"><ele>1088.0</ele><time>2026-05-02T13:11:28Z</time></trkpt><trkpt lat="45.756175213977606" lon="7.451269278639407"><ele>1088.0</ele><time>2026-05-02T13:11:29Z</time></trkpt><trkpt lat="45.756043453137345" lon="7.4512324191636505"><ele>1089.0</ele><time>2026-05-02T13:11:30Z</time></trkpt><trkpt lat="45.755923670358925" lon="7.451173167761679"><ele>1090.0</ele><time>2026-05-02T13:11:31Z</time></trkpt><trkpt lat="45.75580886491173" lon="7.45111342599841"><ele>1091.0</ele><time>2026-05-02T13:11:32Z</time></trkpt><trkpt lat="45.75570475923846" lon="7.451034380851331"><ele>1092.0</ele><time>2026-05-02T13:11:33Z</time></trkpt><trkpt lat="45.75561464679752" lon="7.45091113122193"><ele>1092.0</ele><time>2026-05-02T13:11:34Z</time></trkpt><trkpt lat="45.755534330764654" lon="7.4507701985182235"><ele>1092.0</ele><time>2026-05-02T13:11:35Z</time></trkpt><trkpt lat="45.75545433657384" lon="7.45063261190717"><ele>1092.0</ele><time>2026-05-02T13:11:36Z</time></trkpt><trkpt lat="45.755380992991526" lon="7.450505626145594"><ele>1092.0</ele><time>2026-05-02T13:11:37Z</time></trkpt><trkpt lat="45.755318868211376" lon="7.450364420229119"><ele>1090.25</ele><time>2026-05-02T13:11:38Z</time></trkpt><trkpt lat="45.7552609864404" lon="7.45021790837132"><ele>1088.5</ele><time>2026-05-02T13:11:39Z</time></trkpt><trkpt lat="45.755203546962605" lon="7.4500690893591806"><ele>1086.75</ele><time>2026-05-02T13:11:40Z</time></trkpt><trkpt lat="45.755142961150575" lon="7.4499095252289"><ele>1085.0</ele><time>2026-05-02T13:11:41Z</time></trkpt><trkpt lat="45.75507994446313" lon="7.449752619166159"><ele>1087.25</ele><time>2026-05-02T13:11:42Z</time></trkpt><trkpt lat="45.75500677817171" lon="7.449595298707448"><ele>1089.5</ele><time>2026-05-02T13:11:43Z</time></trkpt><trkpt lat="45.7549292228047" lon="7.4494400236908165"><ele>1091.75</ele><time>2026-05-02T13:11:44Z</time></trkpt><trkpt lat="45.754852958732954" lon="7.449287517335084"><ele>1094.0</ele><time>2026-05-02T13:11:45Z</time></trkpt><trkpt lat="45.75478031916026" lon="7.449134785456138"><ele>1094.0</ele><time>2026-05-02T13:11:46Z</time></trkpt><trkpt lat="45.754715894065704" lon="7.4489744611366815"><ele>1094.0</ele><time>2026-05-02T13:11:47Z</time></trkpt><trkpt lat="45.75466485408931" lon="7.448801450876149"><ele>1094.0</ele><time>2026-05-02T13:11:48Z</time></trkpt><trkpt lat="45.75463412545453" lon="7.448619971057192"><ele>1094.0</ele><time>2026-05-02T13:11:49Z</time></trkpt><trkpt lat="45.7546074377895" lon="7.448430252890807"><ele>1094.5</ele><time>2026-05-02T13:11:50Z</time></trkpt><trkpt lat="45.75457631900643" lon="7.448234665338406"><ele>1095.0</ele><time>2026-05-02T13:11:51Z</time></trkpt><trkpt lat="45.75454196812584" lon="7.44803016321431"><ele>1095.5</ele><time>2026-05-02T13:11:52Z</time></trkpt><trkpt lat="45.75451461756361" lon="7.447818332396321"><ele>1096.0</ele><time>2026-05-02T13:11:53Z</time></trkpt><trkpt lat="45.75448244465885" lon="7.447606052741856"><ele>1096.6666666666665</ele><time>2026-05-02T13:11:54Z</time></trkpt><trkpt lat="45.754443263464935" lon="7.447390287075749"><ele>1097.3333333333333</ele><time>2026-05-02T13:11:55Z</time></trkpt><trkpt lat="45.75440911942039" lon="7.447179718926952"><ele>1098.0</ele><time>2026-05-02T13:11:56Z</time></trkpt><trkpt lat="45.75434703171838" lon="7.4469801454669105"><ele>1096.75</ele><time>2026-05-02T13:11:57Z</time></trkpt><trkpt lat="45.75426651455969" lon="7.4467929521731655"><ele>1095.5</ele><time>2026-05-02T13:11:58Z</time></trkpt><trkpt lat="45.75418121993886" lon="7.446618176204799"><ele>1094.25</ele><time>2026-05-02T13:11:59Z</time></trkpt><trkpt lat="45.75410384924833" lon="7.446446755029667"><ele>1093.0</ele><time>2026-05-02T13:12:00Z</time></trkpt><trkpt lat="45.75402648034065" lon="7.4462777342502795"><ele>1093.0</ele><time>2026-05-02T13:12:01Z</time></trkpt><trkpt lat="45.753963788345914" lon="7.446098043783106"><ele>1093.0</ele><time>2026-05-02T13:12:02Z</time></trkpt><trkpt lat="45.75388892304305" lon="7.44594016125242"><ele>1093.0</ele><time>2026-05-02T13:12:03Z</time></trkpt><trkpt lat="45.753806433469535" lon="7.445806001355195"><ele>1093.0</ele><time>2026-05-02T13:12:04Z</time></trkpt><trkpt lat="45.7536974048075" lon="7.445716973910218"><ele>1093.0</ele><time>2026-05-02T13:12:05Z</time></trkpt><trkpt lat="45.75356094824561" lon="7.445727521703223"><ele>1093.0</ele><time>2026-05-02T13:12:06Z</time></trkpt><trkpt lat="45.753444510437895" lon="7.445789969276092"><ele>1093.0</ele><time>2026-05-02T13:12:07Z</time></trkpt><trkpt lat="45.75331915751375" lon="7.4458219291042775"><ele>1093.0</ele><time>2026-05-02T13:12:08Z</time></trkpt><trkpt lat="45.75320229997906" lon="7.445794476743894"><ele>1090.0</ele><time>2026-05-02T13:12:09Z</time></trkpt><trkpt lat="45.75307376506104" lon="7.445757581518097"><ele>1087.0</ele><time>2026-05-02T13:12:10Z</time></trkpt><trkpt lat="45.75292720933669" lon="7.445737127665436"><ele>1084.0</ele><time>2026-05-02T13:12:11Z</time></trkpt><trkpt lat="45.75278453187705" lon="7.445774204673062"><ele>1081.0</ele><time>2026-05-02T13:12:12Z</time></trkpt><trkpt lat="45.7526559016542" lon="7.445842463202226"><ele>1080.75</ele><time>2026-05-02T13:12:13Z</time></trkpt><trkpt lat="45.752530748000375" lon="7.445932042721372"><ele>1080.5</ele><time>2026-05-02T13:12:14Z</time></trkpt><trkpt lat="45.75241930746555" lon="7.446021595136905"><ele>1080.25</ele><time>2026-05-02T13:12:15Z</time></trkpt><trkpt lat="45.75230610211405" lon="7.4461014190048775"><ele>1080.0</ele><time>2026-05-02T13:12:16Z</time></trkpt><trkpt lat="45.75219295714778" lon="7.446156126729295"><ele>1080.0</ele><time>2026-05-02T13:12:17Z</time></trkpt><trkpt lat="45.752087670313934" lon="7.4461109170927395"><ele>1080.0</ele><time>2026-05-02T13:12:18Z</time></trkpt><trkpt lat="45.75199077796526" lon="7.446044528033963"><ele>1080.0</ele><time>2026-05-02T13:12:19Z</time></trkpt><trkpt lat="45.75189277171701" lon="7.445950025836619"><ele>1080.0</ele><time>2026-05-02T13:12:20Z</time></trkpt><trkpt lat="45.75177536183196" lon="7.4458633036581325"><ele>1077.75</ele><time>2026-05-02T13:12:21Z</time></trkpt><trkpt lat="45.75164339533783" lon="7.445794050146131"><ele>1075.5</ele><time>2026-05-02T13:12:22Z</time></trkpt><trkpt lat="45.75150831996165" lon="7.445730697775972"><ele>1073.25</ele><time>2026-05-02T13:12:23Z</time></trkpt><trkpt lat="45.7513702701527" lon="7.445687786987188"><ele>1071.0</ele><time>2026-05-02T13:12:24Z</time></trkpt><trkpt lat="45.75123302868998" lon="7.445678674303213"><ele>1071.0</ele><time>2026-05-02T13:12:25Z</time></trkpt><trkpt lat="45.7510988248521" lon="7.44567086525669"><ele>1071.0</ele><time>2026-05-02T13:12:26Z</time></trkpt><trkpt lat="45.75097254198625" lon="7.4456655685299395"><ele>1071.0</ele><time>2026-05-02T13:12:27Z</time></trkpt><trkpt lat="45.750853383649265" lon="7.445662535706834"><ele>1071.0</ele><time>2026-05-02T13:12:28Z</time></trkpt><trkpt lat="45.750739733002725" lon="7.445661125360301"><ele>1068.0</ele><time>2026-05-02T13:12:29Z</time></trkpt><trkpt lat="45.750632170878646" lon="7.4456718660985315"><ele>1065.0</ele><time>2026-05-02T13:12:30Z</time></trkpt><trkpt lat="45.75053314293664" lon="7.445738947317773"><ele>1062.0</ele><time>2026-05-02T13:12:31Z</time></trkpt><trkpt lat="45.750474262301914" lon="7.4459079839265145"><ele>1059.0</ele><time>2026-05-02T13:12:32Z</time></trkpt><trkpt lat="45.750430350203764" lon="7.446069284919692"><ele>1059.0</ele><time>2026-05-02T13:12:33Z</time></trkpt><trkpt lat="45.75039224288926" lon="7.446249933854299"><ele>1059.0</ele><time>2026-05-02T13:12:34Z</time></trkpt><trkpt lat="45.75035397777959" lon="7.4464373111011675"><ele>1059.0</ele><time>2026-05-02T13:12:35Z</time></trkpt><trkpt lat="45.75031795216182" lon="7.446610729297878"><ele>1059.0</ele><time>2026-05-02T13:12:36Z</time></trkpt><trkpt lat="45.75028376525438" lon="7.446773929620873"><ele>1057.3333333333333</ele><time>2026-05-02T13:12:37Z</time></trkpt><trkpt lat="45.750246872501165" lon="7.4469100332146505"><ele>1055.6666666666667</ele><time>2026-05-02T13:12:38Z</time></trkpt><trkpt lat="45.75020955655814" lon="7.447015584935755"><ele>1054.0</ele><time>2026-05-02T13:12:39Z</time></trkpt><trkpt lat="45.75014441572594" lon="7.447078978385934"><ele>1052.3333333333335</ele><time>2026-05-02T13:12:40Z</time></trkpt><trkpt lat="45.750076937901525" lon="7.447076583442408"><ele>1050.6666666666667</ele><time>2026-05-02T13:12:41Z</time></trkpt><trkpt lat="45.75000947798031" lon="7.4470598840809705"><ele>1049.0</ele><time>2026-05-02T13:12:42Z</time></trkpt><trkpt lat="45.749960373587705" lon="7.446997980465133"><ele>1048.8</ele><time>2026-05-02T13:12:43Z</time></trkpt><trkpt lat="45.74993371199355" lon="7.446895492091476"><ele>1048.6000000000001</ele><time>2026-05-02T13:12:44Z</time></trkpt><trkpt lat="45.74993036477949" lon="7.446759917311355"><ele>1048.4</ele><time>2026-05-02T13:12:45Z</time></trkpt><trkpt lat="45.74994252450097" lon="7.446605695484422"><ele>1048.2</ele><time>2026-05-02T13:12:46Z</time></trkpt><trkpt lat="45.74994841156296" lon="7.446429892307842"><ele>1048.0</ele><time>2026-05-02T13:12:47Z</time></trkpt><trkpt lat="45.749945040514426" lon="7.446241511975057"><ele>1048.0</ele><time>2026-05-02T13:12:48Z</time></trkpt><trkpt lat="45.749929239653106" lon="7.446049441494179"><ele>1048.0</ele><time>2026-05-02T13:12:49Z</time></trkpt><trkpt lat="45.74984729005371" lon="7.4458758148099085"><ele>1048.0</ele><time>2026-05-02T13:12:50Z</time></trkpt><trkpt lat="45.74973486882882" lon="7.445755205574742"><ele>1048.0</ele><time>2026-05-02T13:12:51Z</time></trkpt><trkpt lat="45.74963011020339" lon="7.44564554974789"><ele>1048.0</ele><time>2026-05-02T13:12:52Z</time></trkpt><trkpt lat="45.74953684918206" lon="7.445528196889395"><ele>1048.0</ele><time>2026-05-02T13:12:53Z</time></trkpt><trkpt lat="45.74949207844823" lon="7.44534107903275"><ele>1048.0</ele><time>2026-05-02T13:12:54Z</time></trkpt><trkpt lat="45.7494281635443" lon="7.445149459531375"><ele>1048.0</ele><time>2026-05-02T13:12:55Z</time></trkpt><trkpt lat="45.74938295690071" lon="7.444957775737668"><ele>1042.25</ele><time>2026-05-02T13:12:56Z</time></trkpt><trkpt lat="45.74933501021426" lon="7.444758931426864"><ele>1036.5</ele><time>2026-05-02T13:12:57Z</time></trkpt><trkpt lat="45.74929012183386" lon="7.44456867520408"><ele>1030.75</ele><time>2026-05-02T13:12:58Z</time></trkpt><trkpt lat="45.74925007395213" lon="7.444379239816253"><ele>1025.0</ele><time>2026-05-02T13:12:59Z</time></trkpt><trkpt lat="45.7492163689877" lon="7.444196844875771"><ele>1025.0</ele><time>2026-05-02T13:13:00Z</time></trkpt><trkpt lat="45.74919432549585" lon="7.444015611899566"><ele>1025.0</ele><time>2026-05-02T13:13:01Z</time></trkpt><trkpt lat="45.74920871391055" lon="7.443828093172299"><ele>1025.0</ele><time>2026-05-02T13:13:02Z</time></trkpt><trkpt lat="45.74922796173914" lon="7.443632756450792"><ele>1025.0</ele><time>2026-05-02T13:13:03Z</time></trkpt><trkpt lat="45.74924682560924" lon="7.443420284529251"><ele>1024.0</ele><time>2026-05-02T13:13:04Z</time></trkpt><trkpt lat="45.74927166111201" lon="7.443203112845506"><ele>1023.0</ele><time>2026-05-02T13:13:05Z</time></trkpt><trkpt lat="45.74929257377908" lon="7.442992255534661"><ele>1022.0</ele><time>2026-05-02T13:13:06Z</time></trkpt><trkpt lat="45.749334495945995" lon="7.442791376029236"><ele>1021.0</ele><time>2026-05-02T13:13:07Z</time></trkpt><trkpt lat="45.749383827846856" lon="7.442591719179894"><ele>1026.25</ele><time>2026-05-02T13:13:08Z</time></trkpt><trkpt lat="45.74942174778248" lon="7.442384861493601"><ele>1031.5</ele><time>2026-05-02T13:13:09Z</time></trkpt><trkpt lat="45.749440792153045" lon="7.442169204838308"><ele>1036.75</ele><time>2026-05-02T13:13:10Z</time></trkpt><trkpt lat="45.749440266522555" lon="7.441959970136495"><ele>1042.0</ele><time>2026-05-02T13:13:11Z</time></trkpt><trkpt lat="45.74942013900711" lon="7.4417504331642155"><ele>1042.0</ele><time>2026-05-02T13:13:12Z</time></trkpt><trkpt lat="45.749379567485015" lon="7.441559609181001"><ele>1042.0</ele><time>2026-05-02T13:13:13Z</time></trkpt><trkpt lat="45.749315222392774" lon="7.4413931529533475"><ele>1042.0</ele><time>2026-05-02T13:13:14Z</time></trkpt><trkpt lat="45.749243297544574" lon="7.441235665581601"><ele>1042.0</ele><time>2026-05-02T13:13:15Z</time></trkpt><trkpt lat="45.74918702959365" lon="7.441068595134397"><ele>1032.25</ele><time>2026-05-02T13:13:16Z</time></trkpt><trkpt lat="45.749152075395614" lon="7.440896645910233"><ele>1022.5</ele><time>2026-05-02T13:13:17Z</time></trkpt><trkpt lat="45.74914534830704" lon="7.440717488338235"><ele>1012.75</ele><time>2026-05-02T13:13:18Z</time></trkpt><trkpt lat="45.74916164649457" lon="7.440532844938579"><ele>1003.0</ele><time>2026-05-02T13:13:19Z</time></trkpt><trkpt lat="45.74917943119814" lon="7.4403354499986065"><ele>1001.3333333333333</ele><time>2026-05-02T13:13:20Z</time></trkpt><trkpt lat="45.749195131127614" lon="7.440127240378284"><ele>999.6666666666667</ele><time>2026-05-02T13:13:21Z</time></trkpt><trkpt lat="45.7492148838691" lon="7.439898568052124"><ele>998.0</ele><time>2026-05-02T13:13:22Z</time></trkpt><trkpt lat="45.74923493337705" lon="7.439661794809411"><ele>995.3333333333334</ele><time>2026-05-02T13:13:23Z</time></trkpt><trkpt lat="45.74926344699139" lon="7.439421828837071"><ele>992.6666666666667</ele><time>2026-05-02T13:13:24Z</time></trkpt><trkpt lat="45.749306819676214" lon="7.4391804715169485"><ele>990.0</ele><time>2026-05-02T13:13:25Z</time></trkpt><trkpt lat="45.74936224050448" lon="7.438939414317413"><ele>995.3333333333333</ele><time>2026-05-02T13:13:26Z</time></trkpt><trkpt lat="45.74942815716926" lon="7.438708777186778"><ele>1000.6666666666666</ele><time>2026-05-02T13:13:27Z</time></trkpt><trkpt lat="45.74949660928497" lon="7.438485763523418"><ele>1006.0</ele><time>2026-05-02T13:13:28Z</time></trkpt><trkpt lat="45.74955726299965" lon="7.438263735695118"><ele>1006.0</ele><time>2026-05-02T13:13:29Z</time></trkpt><trkpt lat="45.7496088197625" lon="7.43804769186835"><ele>1006.0</ele><time>2026-05-02T13:13:30Z</time></trkpt><trkpt lat="45.74966692988099" lon="7.437845580350638"><ele>1006.0</ele><time>2026-05-02T13:13:31Z</time></trkpt><trkpt lat="45.74974558362135" lon="7.437657469554859"><ele>1002.5</ele><time>2026-05-02T13:13:32Z</time></trkpt><trkpt lat="45.749816800312544" lon="7.437468616049177"><ele>999.0</ele><time>2026-05-02T13:13:33Z</time></trkpt><trkpt lat="45.74985427656982" lon="7.437276217662677"><ele>995.5</ele><time>2026-05-02T13:13:34Z</time></trkpt><trkpt lat="45.749868200612795" lon="7.437077364747032"><ele>992.0</ele><time>2026-05-02T13:13:35Z</time></trkpt><trkpt lat="45.74990044674574" lon="7.436885357549968"><ele>989.0</ele><time>2026-05-02T13:13:36Z</time></trkpt><trkpt lat="45.74996539037705" lon="7.436711231371852"><ele>986.0</ele><time>2026-05-02T13:13:37Z</time></trkpt><trkpt lat="45.75004424229766" lon="7.436543646737186"><ele>983.0</ele><time>2026-05-02T13:13:38Z</time></trkpt><trkpt lat="45.750071752283596" lon="7.436324227965463"><ele>980.0</ele><time>2026-05-02T13:13:39Z</time></trkpt><trkpt lat="45.750112493957" lon="7.436110721245532"><ele>976.3333333333334</ele><time>2026-05-02T13:13:40Z</time></trkpt><trkpt lat="45.75017802393445" lon="7.435898624761085"><ele>972.6666666666667</ele><time>2026-05-02T13:13:41Z</time></trkpt><trkpt lat="45.75024395518694" lon="7.435677659223884"><ele>969.0</ele><time>2026-05-02T13:13:42Z</time></trkpt><trkpt lat="45.75030699550934" lon="7.435458575544441"><ele>974.75</ele><time>2026-05-02T13:13:43Z</time></trkpt><trkpt lat="45.75036915737258" lon="7.435250967690961"><ele>980.5</ele><time>2026-05-02T13:13:44Z</time></trkpt><trkpt lat="45.75041830477493" lon="7.435058013181175"><ele>986.25</ele><time>2026-05-02T13:13:45Z</time></trkpt><trkpt lat="45.75044233020493" lon="7.434855072961593"><ele>992.0</ele><time>2026-05-02T13:13:46Z</time></trkpt><trkpt lat="45.750429614487864" lon="7.434653650403889"><ele>989.0</ele><time>2026-05-02T13:13:47Z</time></trkpt><trkpt lat="45.750400851399995" lon="7.4344396510965955"><ele>986.0</ele><time>2026-05-02T13:13:48Z</time></trkpt><trkpt lat="45.75038750564883" lon="7.4342185287554985"><ele>983.0</ele><time>2026-05-02T13:13:49Z</time></trkpt><trkpt lat="45.75040664543436" lon="7.433999802640911"><ele>980.0</ele><time>2026-05-02T13:13:50Z</time></trkpt><trkpt lat="45.75045159814094" lon="7.433796638632735"><ele>977.0</ele><time>2026-05-02T13:13:51Z</time></trkpt><trkpt lat="45.75051709910582" lon="7.433610254889878"><ele>974.0</ele><time>2026-05-02T13:13:52Z</time></trkpt><trkpt lat="45.75058638291997" lon="7.433432483013824"><ele>971.0</ele><time>2026-05-02T13:13:53Z</time></trkpt><trkpt lat="45.75066318879125" lon="7.433263255256493"><ele>971.0</ele><time>2026-05-02T13:13:54Z</time></trkpt><trkpt lat="45.75067555565469" lon="7.433064466311614"><ele>971.0</ele><time>2026-05-02T13:13:55Z</time></trkpt><trkpt lat="45.75068087922288" lon="7.432875422809487"><ele>971.0</ele><time>2026-05-02T13:13:56Z</time></trkpt><trkpt lat="45.750686999547376" lon="7.432679577548257"><ele>971.0</ele><time>2026-05-02T13:13:57Z</time></trkpt><trkpt lat="45.75070337141809" lon="7.432478272415068"><ele>968.25</ele><time>2026-05-02T13:13:58Z</time></trkpt><trkpt lat="45.75074414958752" lon="7.432282190370544"><ele>965.5</ele><time>2026-05-02T13:13:59Z</time></trkpt><trkpt lat="45.75079299912692" lon="7.4320849720135005"><ele>962.75</ele><time>2026-05-02T13:14:00Z</time></trkpt><trkpt lat="45.75084232537566" lon="7.431879840816808"><ele>960.0</ele><time>2026-05-02T13:14:01Z</time></trkpt><trkpt lat="45.75088724109699" lon="7.431672752410791"><ele>956.3333333333333</ele><time>2026-05-02T13:14:02Z</time></trkpt><trkpt lat="45.75093911864809" lon="7.431462200538348"><ele>952.6666666666666</ele><time>2026-05-02T13:14:03Z</time></trkpt><trkpt lat="45.75098359970062" lon="7.431260535810995"><ele>949.0</ele><time>2026-05-02T13:14:04Z</time></trkpt><trkpt lat="45.75102073688684" lon="7.431054839845002"><ele>946.25</ele><time>2026-05-02T13:14:05Z</time></trkpt><trkpt lat="45.751047217652996" lon="7.430849688638927"><ele>943.5</ele><time>2026-05-02T13:14:06Z</time></trkpt><trkpt lat="45.751059091808806" lon="7.430663284827113"><ele>940.75</ele><time>2026-05-02T13:14:07Z</time></trkpt><trkpt lat="45.75106069779201" lon="7.430471091296543"><ele>938.0</ele><time>2026-05-02T13:14:08Z</time></trkpt><trkpt lat="45.75099779599172" lon="7.430287836028858"><ele>938.0</ele><time>2026-05-02T13:14:09Z</time></trkpt><trkpt lat="45.7509468772993" lon="7.430107148198831"><ele>938.0</ele><time>2026-05-02T13:14:10Z</time></trkpt><trkpt lat="45.75090815535502" lon="7.4299159752065025"><ele>938.0</ele><time>2026-05-02T13:14:11Z</time></trkpt><trkpt lat="45.7508674361737" lon="7.429716791627285"><ele>938.0</ele><time>2026-05-02T13:14:12Z</time></trkpt><trkpt lat="45.75080116169193" lon="7.4295297292985145"><ele>939.5</ele><time>2026-05-02T13:14:13Z</time></trkpt><trkpt lat="45.750719789688986" lon="7.429360546912436"><ele>941.0</ele><time>2026-05-02T13:14:14Z</time></trkpt><trkpt lat="45.75064837142459" lon="7.429185373155186"><ele>942.5</ele><time>2026-05-02T13:14:15Z</time></trkpt><trkpt lat="45.750558993357174" lon="7.429035855910841"><ele>944.0</ele><time>2026-05-02T13:14:16Z</time></trkpt><trkpt lat="45.75049840662161" lon="7.4288553879721935"><ele>945.25</ele><time>2026-05-02T13:14:17Z</time></trkpt><trkpt lat="45.75044958917413" lon="7.428653189557295"><ele>946.5</ele><time>2026-05-02T13:14:18Z</time></trkpt><trkpt lat="45.7504077780996" lon="7.428453788967987"><ele>947.75</ele><time>2026-05-02T13:14:19Z</time></trkpt><trkpt lat="45.75036790144785" lon="7.428266194807535"><ele>949.0</ele><time>2026-05-02T13:14:20Z</time></trkpt><trkpt lat="45.75032842733806" lon="7.4280871712382845"><ele>949.9999999999999</ele><time>2026-05-02T13:14:21Z</time></trkpt><trkpt lat="45.750288840885034" lon="7.427954363108884"><ele>951.0</ele><time>2026-05-02T13:14:22Z</time></trkpt><trkpt lat="45.75024251603642" lon="7.427872652731719"><ele>952.0</ele><time>2026-05-02T13:14:23Z</time></trkpt><trkpt lat="45.750173430458034" lon="7.427829393541023"><ele>953.0</ele><time>2026-05-02T13:14:24Z</time></trkpt><trkpt lat="45.75009760960797" lon="7.427889176350659"><ele>953.9999999999999</ele><time>2026-05-02T13:14:25Z</time></trkpt><trkpt lat="45.75009609048872" lon="7.4280192055455805"><ele>955.0</ele><time>2026-05-02T13:14:26Z</time></trkpt><trkpt lat="45.75010388095508" lon="7.428109091780671"><ele>947.4</ele><time>2026-05-02T13:14:27Z</time></trkpt><trkpt lat="45.75010330611731" lon="7.428218904617016"><ele>939.8</ele><time>2026-05-02T13:14:28Z</time></trkpt><trkpt lat="45.750093281290546" lon="7.42834735824533"><ele>932.2</ele><time>2026-05-02T13:14:29Z</time></trkpt><trkpt lat="45.75007504691199" lon="7.428491996773693"><ele>924.6</ele><time>2026-05-02T13:14:30Z</time></trkpt><trkpt lat="45.750049187871845" lon="7.428647488021031"><ele>917.0</ele><time>2026-05-02T13:14:31Z</time></trkpt><trkpt lat="45.75002465437016" lon="7.428797096977143"><ele>916.0</ele><time>2026-05-02T13:14:32Z</time></trkpt><trkpt lat="45.75003724703793" lon="7.428938471069362"><ele>915.0</ele><time>2026-05-02T13:14:33Z</time></trkpt><trkpt lat="45.750085395351974" lon="7.4290661522048325"><ele>914.0</ele><time>2026-05-02T13:14:34Z</time></trkpt><trkpt lat="45.7501523484139" lon="7.429148069953463"><ele>913.0</ele><time>2026-05-02T13:14:35Z</time></trkpt><trkpt lat="45.75018908312034" lon="7.429246286448587"><ele>912.0</ele><time>2026-05-02T13:14:36Z</time></trkpt><trkpt lat="45.75013381446723" lon="7.429356807719999"><ele>912.0</ele><time>2026-05-02T13:14:38Z</time></trkpt><trkpt lat="45.750066556173444" lon="7.429330650847248"><ele>912.0</ele><time>2026-05-02T13:14:39Z</time></trkpt><trkpt lat="45.75000193038321" lon="7.42922855435881"><ele>912.0</ele><time>2026-05-02T13:14:40Z</time></trkpt><trkpt lat="45.74992513912399" lon="7.429140542330374"><ele>912.0</ele><time>2026-05-02T13:14:41Z</time></trkpt><trkpt lat="45.749849329677794" lon="7.429055838825276"><ele>912.0</ele><time>2026-05-02T13:14:42Z</time></trkpt><trkpt lat="45.74978510144875" lon="7.4289490781889675"><ele>912.0</ele><time>2026-05-02T13:14:43Z</time></trkpt><trkpt lat="45.749753497706706" lon="7.428817600388605"><ele>912.0</ele><time>2026-05-02T13:14:44Z</time></trkpt><trkpt lat="45.74975563721169" lon="7.428664485150087"><ele>912.0</ele><time>2026-05-02T13:14:45Z</time></trkpt><trkpt lat="45.74979760988184" lon="7.428504740820227"><ele>912.0</ele><time>2026-05-02T13:14:46Z</time></trkpt><trkpt lat="45.74979385499278" lon="7.42829640515442"><ele>913.25</ele><time>2026-05-02T13:14:47Z</time></trkpt><trkpt lat="45.7497558456348" lon="7.428109608697795"><ele>914.5</ele><time>2026-05-02T13:14:48Z</time></trkpt><trkpt lat="45.74968342850929" lon="7.427960327880916"><ele>915.75</ele><time>2026-05-02T13:14:49Z</time></trkpt><trkpt lat="45.74966090581895" lon="7.4277957008202735"><ele>917.0</ele><time>2026-05-02T13:14:50Z</time></trkpt><trkpt lat="45.749671407688616" lon="7.427627848320038"><ele>917.0</ele><time>2026-05-02T13:14:51Z</time></trkpt><trkpt lat="45.74970051118769" lon="7.427448019463845"><ele>917.0</ele><time>2026-05-02T13:14:52Z</time></trkpt><trkpt lat="45.74973115550396" lon="7.427250614422483"><ele>917.0</ele><time>2026-05-02T13:14:53Z</time></trkpt><trkpt lat="45.74976851989308" lon="7.427049278041736"><ele>917.0</ele><time>2026-05-02T13:14:54Z</time></trkpt><trkpt lat="45.749808710203915" lon="7.426851918467474"><ele>914.5</ele><time>2026-05-02T13:14:55Z</time></trkpt><trkpt lat="45.74984274067461" lon="7.426661864303888"><ele>912.0</ele><time>2026-05-02T13:14:56Z</time></trkpt><trkpt lat="45.74986554561949" lon="7.426466943732519"><ele>909.5</ele><time>2026-05-02T13:14:57Z</time></trkpt><trkpt lat="45.74987019856845" lon="7.426248960250051"><ele>907.0</ele><time>2026-05-02T13:14:58Z</time></trkpt><trkpt lat="45.749862917308505" lon="7.426035292813249"><ele>905.0</ele><time>2026-05-02T13:14:59Z</time></trkpt><trkpt lat="45.749851486107524" lon="7.42582740804287"><ele>903.0</ele><time>2026-05-02T13:15:00Z</time></trkpt><trkpt lat="45.74985155572469" lon="7.425619195412821"><ele>901.0</ele><time>2026-05-02T13:15:01Z</time></trkpt><trkpt lat="45.74985228296815" lon="7.425419655408917"><ele>899.0</ele><time>2026-05-02T13:15:02Z</time></trkpt><trkpt lat="45.74983668062715" lon="7.425228748915038"><ele>898.25</ele><time>2026-05-02T13:15:03Z</time></trkpt><trkpt lat="45.74982016534984" lon="7.425036309115904"><ele>897.5</ele><time>2026-05-02T13:15:04Z</time></trkpt><trkpt lat="45.74976245089258" lon="7.424861743831778"><ele>896.75</ele><time>2026-05-02T13:15:05Z</time></trkpt><trkpt lat="45.74972300434483" lon="7.4246786575747965"><ele>896.0</ele><time>2026-05-02T13:15:06Z</time></trkpt><trkpt lat="45.749702072428946" lon="7.424495600904371"><ele>895.75</ele><time>2026-05-02T13:15:07Z</time></trkpt><trkpt lat="45.74971672129756" lon="7.424302868881588"><ele>895.5</ele><time>2026-05-02T13:15:08Z</time></trkpt><trkpt lat="45.74973962258244" lon="7.424105612948738"><ele>895.25</ele><time>2026-05-02T13:15:09Z</time></trkpt><trkpt lat="45.74975679794438" lon="7.42390122803638"><ele>895.0</ele><time>2026-05-02T13:15:10Z</time></trkpt><trkpt lat="45.7497642682959" lon="7.4236848960312285"><ele>892.6666666666666</ele><time>2026-05-02T13:15:11Z</time></trkpt><trkpt lat="45.749765550050554" lon="7.423465985505504"><ele>890.3333333333333</ele><time>2026-05-02T13:15:12Z</time></trkpt><trkpt lat="45.74976837084497" lon="7.423242929620449"><ele>888.0</ele><time>2026-05-02T13:15:13Z</time></trkpt><trkpt lat="45.74977215523978" lon="7.423021903145616"><ele>886.0</ele><time>2026-05-02T13:15:14Z</time></trkpt><trkpt lat="45.749760272007585" lon="7.4228143106035755"><ele>884.0</ele><time>2026-05-02T13:15:15Z</time></trkpt><trkpt lat="45.74972651355034" lon="7.42261484473575"><ele>882.0</ele><time>2026-05-02T13:15:16Z</time></trkpt><trkpt lat="45.74968052083279" lon="7.422421335865584"><ele>880.0</ele><time>2026-05-02T13:15:17Z</time></trkpt><trkpt lat="45.749642612851986" lon="7.422230903105131"><ele>879.25</ele><time>2026-05-02T13:15:18Z</time></trkpt><trkpt lat="45.74962328159092" lon="7.422034179163585"><ele>878.5</ele><time>2026-05-02T13:15:19Z</time></trkpt><trkpt lat="45.74962735594922" lon="7.421833963389643"><ele>877.75</ele><time>2026-05-02T13:15:20Z</time></trkpt><trkpt lat="45.7496515717349" lon="7.421636638742638"><ele>877.0</ele><time>2026-05-02T13:15:21Z</time></trkpt><trkpt lat="45.74967604855408" lon="7.421439741015717"><ele>877.3333333333333</ele><time>2026-05-02T13:15:22Z</time></trkpt><trkpt lat="45.74967999960077" lon="7.421227475370195"><ele>877.6666666666667</ele><time>2026-05-02T13:15:23Z</time></trkpt><trkpt lat="45.74965140735506" lon="7.421010815100903"><ele>878.0</ele><time>2026-05-02T13:15:24Z</time></trkpt><trkpt lat="45.749620936926384" lon="7.420803102202636"><ele>878.0</ele><time>2026-05-02T13:15:25Z</time></trkpt><trkpt lat="45.74961287317965" lon="7.420596128396049"><ele>878.0</ele><time>2026-05-02T13:15:26Z</time></trkpt><trkpt lat="45.749590084408375" lon="7.420398871374489"><ele>878.0</ele><time>2026-05-02T13:15:27Z</time></trkpt><trkpt lat="45.74956924766379" lon="7.420213258370715"><ele>878.0</ele><time>2026-05-02T13:15:28Z</time></trkpt><trkpt lat="45.74959972773156" lon="7.420020104398795"><ele>877.3333333333334</ele><time>2026-05-02T13:15:29Z</time></trkpt><trkpt lat="45.749635898542266" lon="7.419798610186516"><ele>876.6666666666667</ele><time>2026-05-02T13:15:30Z</time></trkpt><trkpt lat="45.749670983983584" lon="7.419571770341109"><ele>876.0</ele><time>2026-05-02T13:15:31Z</time></trkpt><trkpt lat="45.74966335585264" lon="7.4193392540760295"><ele>872.75</ele><time>2026-05-02T13:15:32Z</time></trkpt><trkpt lat="45.7496370146467" lon="7.419129132970369"><ele>869.5</ele><time>2026-05-02T13:15:33Z</time></trkpt><trkpt lat="45.749634682952525" lon="7.418947158125798"><ele>866.25</ele><time>2026-05-02T13:15:34Z</time></trkpt><trkpt lat="45.74963266513488" lon="7.418802608471824"><ele>863.0</ele><time>2026-05-02T13:15:35Z</time></trkpt><trkpt lat="45.749681872682395" lon="7.418691817596497"><ele>859.0</ele><time>2026-05-02T13:15:36Z</time></trkpt><trkpt lat="45.74976713134253" lon="7.418626227504239"><ele>855.0</ele><time>2026-05-02T13:15:37Z</time></trkpt><trkpt lat="45.74986525778308" lon="7.418516794240938"><ele>851.0</ele><time>2026-05-02T13:15:38Z</time></trkpt><trkpt lat="45.7499648350597" lon="7.4184182554512095"><ele>847.0</ele><time>2026-05-02T13:15:39Z</time></trkpt><trkpt lat="45.75005825278139" lon="7.4182994971191025"><ele>847.0</ele><time>2026-05-02T13:15:40Z</time></trkpt><trkpt lat="45.75011082465263" lon="7.4181382487127285"><ele>847.0</ele><time>2026-05-02T13:15:41Z</time></trkpt><trkpt lat="45.75013450399831" lon="7.417945263815186"><ele>847.0</ele><time>2026-05-02T13:15:42Z</time></trkpt><trkpt lat="45.750167890553854" lon="7.41775467315858"><ele>847.0</ele><time>2026-05-02T13:15:43Z</time></trkpt><trkpt lat="45.75016943251685" lon="7.417574050628857"><ele>844.0</ele><time>2026-05-02T13:15:44Z</time></trkpt><trkpt lat="45.75016333803612" lon="7.417401134831724"><ele>841.0</ele><time>2026-05-02T13:15:45Z</time></trkpt><trkpt lat="45.75012773294397" lon="7.417207667565611"><ele>838.0</ele><time>2026-05-02T13:15:46Z</time></trkpt><trkpt lat="45.7500946088209" lon="7.417014966897709"><ele>835.0</ele><time>2026-05-02T13:15:47Z</time></trkpt><trkpt lat="45.75006160672555" lon="7.4168229761459115"><ele>835.0</ele><time>2026-05-02T13:15:48Z</time></trkpt><trkpt lat="45.75001852439267" lon="7.416633273023672"><ele>835.0</ele><time>2026-05-02T13:15:49Z</time></trkpt><trkpt lat="45.75001996190232" lon="7.416435536793026"><ele>835.0</ele><time>2026-05-02T13:15:50Z</time></trkpt><trkpt lat="45.75001490606128" lon="7.416237813132054"><ele>835.0</ele><time>2026-05-02T13:15:51Z</time></trkpt><trkpt lat="45.75001596626813" lon="7.416046325736663"><ele>834.75</ele><time>2026-05-02T13:15:52Z</time></trkpt><trkpt lat="45.75002127851974" lon="7.415859293189809"><ele>834.5</ele><time>2026-05-02T13:15:53Z</time></trkpt><trkpt lat="45.75002258704103" lon="7.4156755372513725"><ele>834.25</ele><time>2026-05-02T13:15:54Z</time></trkpt><trkpt lat="45.75003826564753" lon="7.415491520953751"><ele>834.0</ele><time>2026-05-02T13:15:55Z</time></trkpt><trkpt lat="45.75005174528411" lon="7.415314044299785"><ele>834.0</ele><time>2026-05-02T13:15:56Z</time></trkpt><trkpt lat="45.75007987447275" lon="7.415141922325636"><ele>834.0</ele><time>2026-05-02T13:15:57Z</time></trkpt><trkpt lat="45.750083793148534" lon="7.414970214467659"><ele>834.0</ele><time>2026-05-02T13:15:58Z</time></trkpt><trkpt lat="45.75008449764407" lon="7.41479755094935"><ele>834.0</ele><time>2026-05-02T13:15:59Z</time></trkpt><trkpt lat="45.75008697316408" lon="7.414618350361402"><ele>831.75</ele><time>2026-05-02T13:16:00Z</time></trkpt><trkpt lat="45.750089433685616" lon="7.414444676213755"><ele>829.5</ele><time>2026-05-02T13:16:01Z</time></trkpt><trkpt lat="45.75010151751804" lon="7.414259338179141"><ele>827.25</ele><time>2026-05-02T13:16:02Z</time></trkpt><trkpt lat="45.75012666686567" lon="7.414072019782724"><ele>825.0</ele><time>2026-05-02T13:16:03Z</time></trkpt><trkpt lat="45.75015532024301" lon="7.413879013193422"><ele>822.75</ele><time>2026-05-02T13:16:04Z</time></trkpt><trkpt lat="45.750177354477636" lon="7.413682621745929"><ele>820.5</ele><time>2026-05-02T13:16:05Z</time></trkpt><trkpt lat="45.750194191740576" lon="7.413480185104707"><ele>818.25</ele><time>2026-05-02T13:16:06Z</time></trkpt><trkpt lat="45.750203748265015" lon="7.4132892378093"><ele>816.0</ele><time>2026-05-02T13:16:07Z</time></trkpt><trkpt lat="45.750217057649394" lon="7.41308443253796"><ele>822.75</ele><time>2026-05-02T13:16:08Z</time></trkpt><trkpt lat="45.75022240072455" lon="7.4128829046431335"><ele>829.5</ele><time>2026-05-02T13:16:09Z</time></trkpt><trkpt lat="45.75022797347776" lon="7.412678650682245"><ele>836.25</ele><time>2026-05-02T13:16:10Z</time></trkpt><trkpt lat="45.7502331690933" lon="7.412476675758259"><ele>843.0</ele><time>2026-05-02T13:16:11Z</time></trkpt><trkpt lat="45.7502362956274" lon="7.412279946277915"><ele>842.4</ele><time>2026-05-02T13:16:12Z</time></trkpt><trkpt lat="45.75023613643559" lon="7.412114489515659"><ele>841.8</ele><time>2026-05-02T13:16:13Z</time></trkpt><trkpt lat="45.75021553096565" lon="7.411980697898376"><ele>841.2</ele><time>2026-05-02T13:16:14Z</time></trkpt><trkpt lat="45.75017570004973" lon="7.4118791541220235"><ele>840.6</ele><time>2026-05-02T13:16:15Z</time></trkpt><trkpt lat="45.75010041614587" lon="7.41184707328766"><ele>840.0</ele><time>2026-05-02T13:16:16Z</time></trkpt><trkpt lat="45.75001508402436" lon="7.4118967055810465"><ele>834.8</ele><time>2026-05-02T13:16:17Z</time></trkpt><trkpt lat="45.749962105534735" lon="7.412030980135217"><ele>829.6</ele><time>2026-05-02T13:16:18Z</time></trkpt><trkpt lat="45.74999367279224" lon="7.412180717159535"><ele>824.4000000000001</ele><time>2026-05-02T13:16:19Z</time></trkpt><trkpt lat="45.75003496206597" lon="7.41231287687607"><ele>819.2</ele><time>2026-05-02T13:16:20Z</time></trkpt><trkpt lat="45.750064088238446" lon="7.412469339885676"><ele>814.0</ele><time>2026-05-02T13:16:21Z</time></trkpt><trkpt lat="45.75004592025047" lon="7.412657417923718"><ele>814.0</ele><time>2026-05-02T13:16:22Z</time></trkpt><trkpt lat="45.7499932747302" lon="7.412854281238379"><ele>814.0</ele><time>2026-05-02T13:16:23Z</time></trkpt><trkpt lat="45.74993742762083" lon="7.413034523075969"><ele>814.0</ele><time>2026-05-02T13:16:24Z</time></trkpt><trkpt lat="45.74988322124813" lon="7.413205639920893"><ele>814.0</ele><time>2026-05-02T13:16:25Z</time></trkpt><trkpt lat="45.74981126467204" lon="7.4133580331782465"><ele>814.5</ele><time>2026-05-02T13:16:26Z</time></trkpt><trkpt lat="45.74971435756985" lon="7.4134931175985175"><ele>815.0</ele><time>2026-05-02T13:16:27Z</time></trkpt><trkpt lat="45.749609780897636" lon="7.413629145015298"><ele>815.5</ele><time>2026-05-02T13:16:28Z</time></trkpt><trkpt lat="45.749503295734115" lon="7.41377418390757"><ele>816.0</ele><time>2026-05-02T13:16:29Z</time></trkpt><trkpt lat="45.74939515059476" lon="7.413913542667213"><ele>812.75</ele><time>2026-05-02T13:16:30Z</time></trkpt><trkpt lat="45.7492913737081" lon="7.414041466550708"><ele>809.5</ele><time>2026-05-02T13:16:31Z</time></trkpt><trkpt lat="45.74918305123787" lon="7.414146551068351"><ele>806.25</ele><time>2026-05-02T13:16:32Z</time></trkpt><trkpt lat="45.74906179588299" lon="7.414226175250531"><ele>803.0</ele><time>2026-05-02T13:16:33Z</time></trkpt><trkpt lat="45.74892348949934" lon="7.414239054273002"><ele>803.0</ele><time>2026-05-02T13:16:34Z</time></trkpt><trkpt lat="45.748791617561075" lon="7.414240399044569"><ele>803.0</ele><time>2026-05-02T13:16:35Z</time></trkpt><trkpt lat="45.74867230136407" lon="7.4142387857313565"><ele>803.0</ele><time>2026-05-02T13:16:36Z</time></trkpt><trkpt lat="45.74855438994835" lon="7.414267966143901"><ele>803.0</ele><time>2026-05-02T13:16:37Z</time></trkpt><trkpt lat="45.74845321936506" lon="7.414361784287292"><ele>798.25</ele><time>2026-05-02T13:16:38Z</time></trkpt><trkpt lat="45.748391193339785" lon="7.414532294102691"><ele>793.5</ele><time>2026-05-02T13:16:39Z</time></trkpt><trkpt lat="45.74838321383946" lon="7.414719728921259"><ele>788.75</ele><time>2026-05-02T13:16:40Z</time></trkpt><trkpt lat="45.7483836595441" lon="7.4149106604170125"><ele>784.0</ele><time>2026-05-02T13:16:41Z</time></trkpt><trkpt lat="45.74840163641372" lon="7.415100123913491"><ele>784.0</ele><time>2026-05-02T13:16:42Z</time></trkpt><trkpt lat="45.748419037989095" lon="7.415293594635419"><ele>784.0</ele><time>2026-05-02T13:16:43Z</time></trkpt><trkpt lat="45.74842850919788" lon="7.415488028175321"><ele>784.0</ele><time>2026-05-02T13:16:44Z</time></trkpt><trkpt lat="45.748422349605846" lon="7.415677718807522"><ele>784.0</ele><time>2026-05-02T13:16:45Z</time></trkpt><trkpt lat="45.74838305933021" lon="7.41585064794343"><ele>783.75</ele><time>2026-05-02T13:16:46Z</time></trkpt><trkpt lat="45.74832183888406" lon="7.416013856151215"><ele>783.5</ele><time>2026-05-02T13:16:47Z</time></trkpt><trkpt lat="45.74824780683413" lon="7.416183878388826"><ele>783.25</ele><time>2026-05-02T13:16:48Z</time></trkpt><trkpt lat="45.748185960709556" lon="7.416343514730161"><ele>783.0</ele><time>2026-05-02T13:16:49Z</time></trkpt><trkpt lat="45.74814616898953" lon="7.4164904989458496"><ele>783.0</ele><time>2026-05-02T13:16:50Z</time></trkpt><trkpt lat="45.748115654704634" lon="7.416597700963222"><ele>783.0</ele><time>2026-05-02T13:16:51Z</time></trkpt><trkpt lat="45.74806125721942" lon="7.416653843362493"><ele>783.0</ele><time>2026-05-02T13:16:52Z</time></trkpt><trkpt lat="45.747993921387135" lon="7.4166313364016"><ele>783.0</ele><time>2026-05-02T13:16:53Z</time></trkpt><trkpt lat="45.74793692537332" lon="7.416551956292744"><ele>783.0</ele><time>2026-05-02T13:16:54Z</time></trkpt><trkpt lat="45.74792481773886" lon="7.4164420911067035"><ele>783.0</ele><time>2026-05-02T13:16:55Z</time></trkpt><trkpt lat="45.747954536917256" lon="7.416325068318622"><ele>783.0</ele><time>2026-05-02T13:16:56Z</time></trkpt><trkpt lat="45.748002638467305" lon="7.416175464104862"><ele>783.0</ele><time>2026-05-02T13:16:57Z</time></trkpt><trkpt lat="45.748046601253215" lon="7.41598928151963"><ele>783.0</ele><time>2026-05-02T13:16:58Z</time></trkpt><trkpt lat="45.74808712496817" lon="7.4157907152371765"><ele>783.0</ele><time>2026-05-02T13:16:59Z</time></trkpt><trkpt lat="45.748102239019374" lon="7.415576643841022"><ele>783.3333333333333</ele><time>2026-05-02T13:17:00Z</time></trkpt><trkpt lat="45.74809967510721" lon="7.415353688860079"><ele>783.6666666666666</ele><time>2026-05-02T13:17:01Z</time></trkpt><trkpt lat="45.74808576819819" lon="7.415137601007893"><ele>784.0</ele><time>2026-05-02T13:17:02Z</time></trkpt><trkpt lat="45.74806883126568" lon="7.414930160308636"><ele>784.0</ele><time>2026-05-02T13:17:03Z</time></trkpt><trkpt lat="45.74805297911479" lon="7.414723727620934"><ele>784.0</ele><time>2026-05-02T13:17:04Z</time></trkpt><trkpt lat="45.748037315007174" lon="7.414525495814033"><ele>784.0</ele><time>2026-05-02T13:17:05Z</time></trkpt><trkpt lat="45.748015105975504" lon="7.414336937050488"><ele>784.0</ele><time>2026-05-02T13:17:06Z</time></trkpt><trkpt lat="45.747968486053466" lon="7.414169143945157"><ele>783.25</ele><time>2026-05-02T13:17:07Z</time></trkpt><trkpt lat="45.74792406761473" lon="7.414006521657369"><ele>782.5</ele><time>2026-05-02T13:17:08Z</time></trkpt><trkpt lat="45.74785279826268" lon="7.41386789898172"><ele>781.75</ele><time>2026-05-02T13:17:09Z</time></trkpt><trkpt lat="45.747816431466724" lon="7.413714408776593"><ele>781.0</ele><time>2026-05-02T13:17:10Z</time></trkpt><trkpt lat="45.74780807535917" lon="7.413555733709436"><ele>778.25</ele><time>2026-05-02T13:17:11Z</time></trkpt><trkpt lat="45.747817087942835" lon="7.413386231280544"><ele>775.5</ele><time>2026-05-02T13:17:12Z</time></trkpt><trkpt lat="45.7478354348885" lon="7.413208663543473"><ele>772.75</ele><time>2026-05-02T13:17:13Z</time></trkpt><trkpt lat="45.74786029748103" lon="7.413028872300251"><ele>770.0</ele><time>2026-05-02T13:17:14Z</time></trkpt><trkpt lat="45.74789098502116" lon="7.412871202026724"><ele>766.0</ele><time>2026-05-02T13:17:15Z</time></trkpt><trkpt lat="45.747949413764964" lon="7.412741406461328"><ele>762.0</ele><time>2026-05-02T13:17:16Z</time></trkpt><trkpt lat="45.748042882969244" lon="7.412634481751025"><ele>758.0</ele><time>2026-05-02T13:17:17Z</time></trkpt><trkpt lat="45.74816648353532" lon="7.412549327759878"><ele>754.0</ele><time>2026-05-02T13:17:18Z</time></trkpt><trkpt lat="45.74829255402442" lon="7.412470016996387"><ele>754.0</ele><time>2026-05-02T13:17:19Z</time></trkpt><trkpt lat="45.74840410515539" lon="7.412387261595259"><ele>754.0</ele><time>2026-05-02T13:17:20Z</time></trkpt><trkpt lat="45.74849792243556" lon="7.412280631557529"><ele>754.0</ele><time>2026-05-02T13:17:21Z</time></trkpt><trkpt lat="45.748562845316" lon="7.412134115959277"><ele>754.0</ele><time>2026-05-02T13:17:22Z</time></trkpt><trkpt lat="45.74861306442886" lon="7.411972795799075"><ele>755.0</ele><time>2026-05-02T13:17:23Z</time></trkpt><trkpt lat="45.74865960741352" lon="7.411799158342089"><ele>756.0</ele><time>2026-05-02T13:17:24Z</time></trkpt><trkpt lat="45.74869942497756" lon="7.411622104191911"><ele>757.0</ele><time>2026-05-02T13:17:25Z</time></trkpt><trkpt lat="45.74872635100089" lon="7.411432952459818"><ele>758.0</ele><time>2026-05-02T13:17:26Z</time></trkpt><trkpt lat="45.74874044680212" lon="7.41124153560147"><ele>758.0</ele><time>2026-05-02T13:17:27Z</time></trkpt><trkpt lat="45.74874329301231" lon="7.411050037053547"><ele>758.0</ele><time>2026-05-02T13:17:28Z</time></trkpt><trkpt lat="45.748754888357034" lon="7.410865548609513"><ele>758.0</ele><time>2026-05-02T13:17:29Z</time></trkpt><trkpt lat="45.74879089431614" lon="7.410697055159309"><ele>758.0</ele><time>2026-05-02T13:17:30Z</time></trkpt><trkpt lat="45.748856894798564" lon="7.410547491622515"><ele>753.5</ele><time>2026-05-02T13:17:31Z</time></trkpt><trkpt lat="45.748941803612034" lon="7.410405611359762"><ele>749.0</ele><time>2026-05-02T13:17:32Z</time></trkpt><trkpt lat="45.74903114119184" lon="7.41027256528174"><ele>744.5</ele><time>2026-05-02T13:17:33Z</time></trkpt><trkpt lat="45.74912477753432" lon="7.410161529788663"><ele>740.0</ele><time>2026-05-02T13:17:34Z</time></trkpt><trkpt lat="45.749223748617396" lon="7.410076258207243"><ele>740.0</ele><time>2026-05-02T13:17:35Z</time></trkpt><trkpt lat="45.74930240552832" lon="7.410002296512314"><ele>740.0</ele><time>2026-05-02T13:17:36Z</time></trkpt><trkpt lat="45.749326925705304" lon="7.409902097590697"><ele>740.0</ele><time>2026-05-02T13:17:37Z</time></trkpt><trkpt lat="45.749350253710155" lon="7.409794404835405"><ele>740.0</ele><time>2026-05-02T13:17:38Z</time></trkpt><trkpt lat="45.74926535748324" lon="7.40964353103617"><ele>740.0</ele><time>2026-05-02T13:17:39Z</time></trkpt><trkpt lat="45.74918121739497" lon="7.409526263674685"><ele>740.25</ele><time>2026-05-02T13:17:40Z</time></trkpt><trkpt lat="45.74906805054256" lon="7.409419790269037"><ele>740.5</ele><time>2026-05-02T13:17:41Z</time></trkpt><trkpt lat="45.74895538142097" lon="7.409299987014854"><ele>740.75</ele><time>2026-05-02T13:17:42Z</time></trkpt><trkpt lat="45.74885793753257" lon="7.409167294607869"><ele>741.0</ele><time>2026-05-02T13:17:43Z</time></trkpt><trkpt lat="45.7487601926123" lon="7.409059867573081"><ele>741.0</ele><time>2026-05-02T13:17:44Z</time></trkpt><trkpt lat="45.748675009854" lon="7.408946276010055"><ele>741.0</ele><time>2026-05-02T13:17:45Z</time></trkpt><trkpt lat="45.74862696051165" lon="7.408784017893991"><ele>741.0</ele><time>2026-05-02T13:17:46Z</time></trkpt><trkpt lat="45.748606087783415" lon="7.408607394122671"><ele>741.0</ele><time>2026-05-02T13:17:47Z</time></trkpt><trkpt lat="45.748612129447956" lon="7.408417102572316"><ele>741.0</ele><time>2026-05-02T13:17:48Z</time></trkpt><trkpt lat="45.748617625563554" lon="7.408217441115651"><ele>741.0</ele><time>2026-05-02T13:17:49Z</time></trkpt><trkpt lat="45.74862752755326" lon="7.408011661561467"><ele>741.0</ele><time>2026-05-02T13:17:50Z</time></trkpt><trkpt lat="45.74863358259657" lon="7.407813024730588"><ele>741.0</ele><time>2026-05-02T13:17:51Z</time></trkpt><trkpt lat="45.74863631773808" lon="7.407649059983681"><ele>741.0</ele><time>2026-05-02T13:17:52Z</time></trkpt><trkpt lat="45.748636911433046" lon="7.407502703095493"><ele>741.0</ele><time>2026-05-02T13:17:53Z</time></trkpt><trkpt lat="45.74858925394391" lon="7.407372081173782"><ele>741.0</ele><time>2026-05-02T13:17:54Z</time></trkpt><trkpt lat="45.74851017335485" lon="7.407288747016581"><ele>741.0</ele><time>2026-05-02T13:17:55Z</time></trkpt><trkpt lat="45.74840034999854" lon="7.407249739731683"><ele>741.0</ele><time>2026-05-02T13:17:56Z</time></trkpt><trkpt lat="45.748301335986966" lon="7.40721559953368"><ele>736.8</ele><time>2026-05-02T13:17:57Z</time></trkpt><trkpt lat="45.748220437859395" lon="7.407124037595074"><ele>732.5999999999999</ele><time>2026-05-02T13:17:58Z</time></trkpt><trkpt lat="45.748169972823675" lon="7.406995521597498"><ele>728.4</ele><time>2026-05-02T13:17:59Z</time></trkpt><trkpt lat="45.7481468410438" lon="7.406846130108757"><ele>724.2</ele><time>2026-05-02T13:18:00Z</time></trkpt><trkpt lat="45.74815361439743" lon="7.406703512687752"><ele>720.0</ele><time>2026-05-02T13:18:01Z</time></trkpt><trkpt lat="45.748173012297364" lon="7.406538505440341"><ele>720.0</ele><time>2026-05-02T13:18:02Z</time></trkpt><trkpt lat="45.748199343467206" lon="7.4063509516884976"><ele>720.0</ele><time>2026-05-02T13:18:03Z</time></trkpt><trkpt lat="45.74822515889555" lon="7.406152022902506"><ele>720.0</ele><time>2026-05-02T13:18:04Z</time></trkpt><trkpt lat="45.74825417003056" lon="7.405945194621849"><ele>720.0</ele><time>2026-05-02T13:18:05Z</time></trkpt><trkpt lat="45.748282172777664" lon="7.4057593667057695"><ele>720.0</ele><time>2026-05-02T13:18:06Z</time></trkpt><trkpt lat="45.7482707528164" lon="7.405564456727872"><ele>720.0</ele><time>2026-05-02T13:18:07Z</time></trkpt><trkpt lat="45.7482459125325" lon="7.405370644968672"><ele>720.0</ele><time>2026-05-02T13:18:08Z</time></trkpt><trkpt lat="45.74819341900733" lon="7.40518952972921"><ele>720.0</ele><time>2026-05-02T13:18:09Z</time></trkpt><trkpt lat="45.748159224883324" lon="7.40498019532811"><ele>720.25</ele><time>2026-05-02T13:18:10Z</time></trkpt><trkpt lat="45.748124139171985" lon="7.404776189376559"><ele>720.5</ele><time>2026-05-02T13:18:11Z</time></trkpt><trkpt lat="45.748086493074446" lon="7.40459767180015"><ele>720.75</ele><time>2026-05-02T13:18:12Z</time></trkpt><trkpt lat="45.748045463924385" lon="7.404428259959407"><ele>721.0</ele><time>2026-05-02T13:18:13Z</time></trkpt><trkpt lat="45.74800651959824" lon="7.404261731236208"><ele>721.75</ele><time>2026-05-02T13:18:14Z</time></trkpt><trkpt lat="45.74793378317455" lon="7.404126543950601"><ele>722.5</ele><time>2026-05-02T13:18:15Z</time></trkpt><trkpt lat="45.74788951483091" lon="7.403980966068358"><ele>723.25</ele><time>2026-05-02T13:18:16Z</time></trkpt><trkpt lat="45.747863743694396" lon="7.403825396759911"><ele>724.0</ele><time>2026-05-02T13:18:17Z</time></trkpt><trkpt lat="45.74787282553978" lon="7.40365425320509"><ele>724.0</ele><time>2026-05-02T13:18:18Z</time></trkpt><trkpt lat="45.74790301453875" lon="7.4034766379395744"><ele>724.0</ele><time>2026-05-02T13:18:19Z</time></trkpt><trkpt lat="45.747931607814714" lon="7.40328288932452"><ele>724.0</ele><time>2026-05-02T13:18:20Z</time></trkpt><trkpt lat="45.74794231745827" lon="7.403089034188216"><ele>724.0</ele><time>2026-05-02T13:18:21Z</time></trkpt><trkpt lat="45.747950267240334" lon="7.402883512860942"><ele>723.5</ele><time>2026-05-02T13:18:22Z</time></trkpt><trkpt lat="45.74791753172614" lon="7.402696259831503"><ele>723.0</ele><time>2026-05-02T13:18:23Z</time></trkpt><trkpt lat="45.747885571131235" lon="7.402528074472529"><ele>722.5</ele><time>2026-05-02T13:18:24Z</time></trkpt><trkpt lat="45.74784222167418" lon="7.402376453777283"><ele>722.0</ele><time>2026-05-02T13:18:25Z</time></trkpt><trkpt lat="45.74778019746708" lon="7.402240706540492"><ele>724.5</ele><time>2026-05-02T13:18:26Z</time></trkpt><trkpt lat="45.747710612316475" lon="7.402110583355599"><ele>727.0</ele><time>2026-05-02T13:18:27Z</time></trkpt><trkpt lat="45.74765364403362" lon="7.401965444354368"><ele>729.5</ele><time>2026-05-02T13:18:28Z</time></trkpt><trkpt lat="45.74758060174024" lon="7.401846886980305"><ele>732.0</ele><time>2026-05-02T13:18:29Z</time></trkpt><trkpt lat="45.74749665259088" lon="7.40173216622474"><ele>724.75</ele><time>2026-05-02T13:18:30Z</time></trkpt><trkpt lat="45.74739698989192" lon="7.401640748361732"><ele>717.5</ele><time>2026-05-02T13:18:31Z</time></trkpt><trkpt lat="45.74729443292179" lon="7.401580950569304"><ele>710.25</ele><time>2026-05-02T13:18:32Z</time></trkpt><trkpt lat="45.74718193620043" lon="7.401549784223781"><ele>703.0</ele><time>2026-05-02T13:18:33Z</time></trkpt><trkpt lat="45.74707512257867" lon="7.401540998976363"><ele>703.0</ele><time>2026-05-02T13:18:34Z</time></trkpt><trkpt lat="45.74697148387956" lon="7.4015791270606766"><ele>703.0</ele><time>2026-05-02T13:18:35Z</time></trkpt><trkpt lat="45.74687921815356" lon="7.401589174459532"><ele>703.0</ele><time>2026-05-02T13:18:36Z</time></trkpt><trkpt lat="45.74679337234425" lon="7.40160339380635"><ele>703.0</ele><time>2026-05-02T13:18:37Z</time></trkpt><trkpt lat="45.74671816285393" lon="7.401590337104064"><ele>703.0</ele><time>2026-05-02T13:18:38Z</time></trkpt><trkpt lat="45.74665705660118" lon="7.401520220635621"><ele>703.0</ele><time>2026-05-02T13:18:39Z</time></trkpt><trkpt lat="45.74663291165964" lon="7.40141089121776"><ele>699.5</ele><time>2026-05-02T13:18:40Z</time></trkpt><trkpt lat="45.74662585963733" lon="7.401300428083847"><ele>696.0</ele><time>2026-05-02T13:18:41Z</time></trkpt><trkpt lat="45.74663590678518" lon="7.401184604133645"><ele>692.5</ele><time>2026-05-02T13:18:42Z</time></trkpt><trkpt lat="45.74664947616583" lon="7.401059059964977"><ele>689.0</ele><time>2026-05-02T13:18:43Z</time></trkpt><trkpt lat="45.74666456049756" lon="7.400919120987352"><ele>685.5</ele><time>2026-05-02T13:18:44Z</time></trkpt><trkpt lat="45.74667260261047" lon="7.400781162985757"><ele>682.0</ele><time>2026-05-02T13:18:45Z</time></trkpt><trkpt lat="45.746674101605116" lon="7.400643449582157"><ele>679.2</ele><time>2026-05-02T13:18:46Z</time></trkpt><trkpt lat="45.74668581467577" lon="7.400493034035256"><ele>676.4000000000001</ele><time>2026-05-02T13:18:47Z</time></trkpt><trkpt lat="45.74671072744463" lon="7.400348209829616"><ele>673.5999999999999</ele><time>2026-05-02T13:18:48Z</time></trkpt><trkpt lat="45.746758385133575" lon="7.400220076545243"><ele>670.8</ele><time>2026-05-02T13:18:49Z</time></trkpt><trkpt lat="45.74682703452542" lon="7.4000952667091635"><ele>668.0</ele><time>2026-05-02T13:18:50Z</time></trkpt><trkpt lat="45.74691107853357" lon="7.39998035654901"><ele>669.5</ele><time>2026-05-02T13:18:51Z</time></trkpt><trkpt lat="45.74701144129297" lon="7.399858420653264"><ele>671.0</ele><time>2026-05-02T13:18:52Z</time></trkpt><trkpt lat="45.747128827939534" lon="7.399726261753128"><ele>672.5</ele><time>2026-05-02T13:18:53Z</time></trkpt><trkpt lat="45.74725086253675" lon="7.399592614962532"><ele>674.0</ele><time>2026-05-02T13:18:54Z</time></trkpt><trkpt lat="45.747374558674366" lon="7.399462252074729"><ele>674.0</ele><time>2026-05-02T13:18:55Z</time></trkpt><trkpt lat="45.74749540721963" lon="7.399340193067502"><ele>674.0</ele><time>2026-05-02T13:18:56Z</time></trkpt><trkpt lat="45.74761980027679" lon="7.399219547990997"><ele>674.0</ele><time>2026-05-02T13:18:57Z</time></trkpt><trkpt lat="45.747739319177796" lon="7.399095881485446"><ele>674.0</ele><time>2026-05-02T13:18:58Z</time></trkpt><trkpt lat="45.74785293718563" lon="7.398962110821673"><ele>672.0</ele><time>2026-05-02T13:18:59Z</time></trkpt><trkpt lat="45.74796964952368" lon="7.398828170059598"><ele>670.0</ele><time>2026-05-02T13:19:00Z</time></trkpt><trkpt lat="45.748090693775254" lon="7.398701140672507"><ele>668.0</ele><time>2026-05-02T13:19:01Z</time></trkpt><trkpt lat="45.748213765928405" lon="7.398570847720657"><ele>668.0</ele><time>2026-05-02T13:19:02Z</time></trkpt><trkpt lat="45.748334985075985" lon="7.398444990311096"><ele>668.0</ele><time>2026-05-02T13:19:03Z</time></trkpt><trkpt lat="45.74845985620805" lon="7.398324841973907"><ele>668.0</ele><time>2026-05-02T13:19:04Z</time></trkpt><trkpt lat="45.748576423140925" lon="7.398212872009754"><ele>668.0</ele><time>2026-05-02T13:19:05Z</time></trkpt><trkpt lat="45.74868447059387" lon="7.398096500180792"><ele>668.75</ele><time>2026-05-02T13:19:06Z</time></trkpt><trkpt lat="45.7487755530952" lon="7.397951764017808"><ele>669.5</ele><time>2026-05-02T13:19:07Z</time></trkpt><trkpt lat="45.74884904973155" lon="7.397792757996453"><ele>670.25</ele><time>2026-05-02T13:19:08Z</time></trkpt><trkpt lat="45.74891310331997" lon="7.397626711689554"><ele>671.0</ele><time>2026-05-02T13:19:09Z</time></trkpt><trkpt lat="45.74897280600328" lon="7.397471462274598"><ele>671.0</ele><time>2026-05-02T13:19:10Z</time></trkpt><trkpt lat="45.74902928495246" lon="7.3973274091961665"><ele>671.0</ele><time>2026-05-02T13:19:11Z</time></trkpt><trkpt lat="45.749100711643685" lon="7.397212733173556"><ele>671.0</ele><time>2026-05-02T13:19:12Z</time></trkpt><trkpt lat="45.74918204260541" lon="7.397100549396403"><ele>671.0</ele><time>2026-05-02T13:19:13Z</time></trkpt><trkpt lat="45.749276215857996" lon="7.397017364285474"><ele>671.0</ele><time>2026-05-02T13:19:14Z</time></trkpt><trkpt lat="45.74938221504726" lon="7.396960303499668"><ele>673.0</ele><time>2026-05-02T13:19:15Z</time></trkpt><trkpt lat="45.749492487437976" lon="7.39688794085809"><ele>675.0</ele><time>2026-05-02T13:19:16Z</time></trkpt><trkpt lat="45.74957467392615" lon="7.396771108198929"><ele>677.0</ele><time>2026-05-02T13:19:17Z</time></trkpt><trkpt lat="45.749621218306245" lon="7.396627944065473"><ele>679.0</ele><time>2026-05-02T13:19:18Z</time></trkpt><trkpt lat="45.74963858511721" lon="7.39646300947842"><ele>676.75</ele><time>2026-05-02T13:19:19Z</time></trkpt><trkpt lat="45.74963972916318" lon="7.396288282024555"><ele>674.5</ele><time>2026-05-02T13:19:20Z</time></trkpt><trkpt lat="45.7496359855528" lon="7.396125342576754"><ele>672.25</ele><time>2026-05-02T13:19:21Z</time></trkpt><trkpt lat="45.749632311445495" lon="7.395963493140601"><ele>670.0</ele><time>2026-05-02T13:19:22Z</time></trkpt><trkpt lat="45.74963460383049" lon="7.395805915241789"><ele>670.0</ele><time>2026-05-02T13:19:23Z</time></trkpt><trkpt lat="45.749640597425675" lon="7.395648147903048"><ele>670.0</ele><time>2026-05-02T13:19:24Z</time></trkpt><trkpt lat="45.749645635224766" lon="7.39548895568521"><ele>670.0</ele><time>2026-05-02T13:19:25Z</time></trkpt><trkpt lat="45.74965377629292" lon="7.395328400416046"><ele>670.0</ele><time>2026-05-02T13:19:26Z</time></trkpt><trkpt lat="45.74967208818163" lon="7.395169582479653"><ele>670.0</ele><time>2026-05-02T13:19:27Z</time></trkpt><trkpt lat="45.749714912199344" lon="7.395022434036521"><ele>667.4</ele><time>2026-05-02T13:19:28Z</time></trkpt><trkpt lat="45.749773679004356" lon="7.394893537003536"><ele>664.8</ele><time>2026-05-02T13:19:29Z</time></trkpt><trkpt lat="45.74983468273464" lon="7.394776712711398"><ele>662.2</ele><time>2026-05-02T13:19:30Z</time></trkpt><trkpt lat="45.74987524363893" lon="7.394645504770163"><ele>659.6</ele><time>2026-05-02T13:19:31Z</time></trkpt><trkpt lat="45.74990438786508" lon="7.394522828820495"><ele>657.0</ele><time>2026-05-02T13:19:32Z</time></trkpt><trkpt lat="45.749952532442016" lon="7.394436064827287"><ele>657.0</ele><time>2026-05-02T13:19:33Z</time></trkpt><trkpt lat="45.74980023776037" lon="7.394201962982055"><ele>657.0</ele><time>2026-05-02T13:19:35Z</time></trkpt><trkpt lat="45.74972015259367" lon="7.3941365833703845"><ele>657.0</ele><time>2026-05-02T13:19:36Z</time></trkpt><trkpt lat="45.749644523381995" lon="7.3940798918200965"><ele>657.0</ele><time>2026-05-02T13:19:37Z</time></trkpt><trkpt lat="45.749563833071484" lon="7.3940279948072245"><ele>657.0</ele><time>2026-05-02T13:19:38Z</time></trkpt><trkpt lat="45.74948816328862" lon="7.393958527511211"><ele>657.0</ele><time>2026-05-02T13:19:39Z</time></trkpt><trkpt lat="45.74943695681787" lon="7.3938454588074"><ele>657.0</ele><time>2026-05-02T13:19:40Z</time></trkpt><trkpt lat="45.749406364943205" lon="7.393709256045253"><ele>657.0</ele><time>2026-05-02T13:19:41Z</time></trkpt><trkpt lat="45.749392339063576" lon="7.393573640096244"><ele>657.0</ele><time>2026-05-02T13:19:42Z</time></trkpt><trkpt lat="45.74937701700218" lon="7.393452137656054"><ele>654.4000000000001</ele><time>2026-05-02T13:19:43Z</time></trkpt><trkpt lat="45.74936725509545" lon="7.393312897311034"><ele>651.8000000000001</ele><time>2026-05-02T13:19:44Z</time></trkpt><trkpt lat="45.74935543162636" lon="7.393169840246692"><ele>649.2</ele><time>2026-05-02T13:19:45Z</time></trkpt><trkpt lat="45.74934567188948" lon="7.393025650125314"><ele>646.6</ele><time>2026-05-02T13:19:46Z</time></trkpt><trkpt lat="45.749332586947816" lon="7.39286971168989"><ele>644.0</ele><time>2026-05-02T13:19:47Z</time></trkpt><trkpt lat="45.74931710570019" lon="7.392712031300903"><ele>643.75</ele><time>2026-05-02T13:19:48Z</time></trkpt><trkpt lat="45.74929949749115" lon="7.39253670143531"><ele>643.5</ele><time>2026-05-02T13:19:49Z</time></trkpt><trkpt lat="45.74926700499946" lon="7.392347051117843"><ele>643.25</ele><time>2026-05-02T13:19:50Z</time></trkpt><trkpt lat="45.74922202043019" lon="7.392168553930219"><ele>643.0</ele><time>2026-05-02T13:19:51Z</time></trkpt><trkpt lat="45.7491786588141" lon="7.392002488913762"><ele>642.75</ele><time>2026-05-02T13:19:52Z</time></trkpt><trkpt lat="45.74914271499054" lon="7.391822664563842"><ele>642.5</ele><time>2026-05-02T13:19:53Z</time></trkpt><trkpt lat="45.74910656407739" lon="7.39164405345256"><ele>642.25</ele><time>2026-05-02T13:19:54Z</time></trkpt><trkpt lat="45.749093560413215" lon="7.391460474876583"><ele>642.0</ele><time>2026-05-02T13:19:55Z</time></trkpt><trkpt lat="45.74908727386137" lon="7.391269081512749"><ele>642.0</ele><time>2026-05-02T13:19:56Z</time></trkpt><trkpt lat="45.74907997373154" lon="7.391060302457218"><ele>642.0</ele><time>2026-05-02T13:19:57Z</time></trkpt><trkpt lat="45.749070059406264" lon="7.39085197875269"><ele>642.0</ele><time>2026-05-02T13:19:58Z</time></trkpt><trkpt lat="45.74906153972689" lon="7.390649281273363"><ele>642.0</ele><time>2026-05-02T13:19:59Z</time></trkpt><trkpt lat="45.749053606037805" lon="7.390450426823937"><ele>642.0</ele><time>2026-05-02T13:20:00Z</time></trkpt><trkpt lat="45.74904127740491" lon="7.390263917164171"><ele>642.0</ele><time>2026-05-02T13:20:01Z</time></trkpt><trkpt lat="45.74902303588747" lon="7.390077412571549"><ele>642.0</ele><time>2026-05-02T13:20:02Z</time></trkpt><trkpt lat="45.74901001355468" lon="7.389900786808561"><ele>642.0</ele><time>2026-05-02T13:20:03Z</time></trkpt><trkpt lat="45.74895847603352" lon="7.389735765833977"><ele>642.75</ele><time>2026-05-02T13:20:04Z</time></trkpt><trkpt lat="45.7488758254331" lon="7.389596989615421"><ele>643.5</ele><time>2026-05-02T13:20:05Z</time></trkpt><trkpt lat="45.74881424335819" lon="7.389447992236971"><ele>644.25</ele><time>2026-05-02T13:20:06Z</time></trkpt><trkpt lat="45.748760595527436" lon="7.3892933589344425"><ele>645.0</ele><time>2026-05-02T13:20:07Z</time></trkpt><trkpt lat="45.74872137829184" lon="7.389138097560614"><ele>645.0</ele><time>2026-05-02T13:20:08Z</time></trkpt><trkpt lat="45.74869405923838" lon="7.388968244023564"><ele>645.0</ele><time>2026-05-02T13:20:09Z</time></trkpt><trkpt lat="45.748678805349755" lon="7.388788824945144"><ele>645.0</ele><time>2026-05-02T13:20:10Z</time></trkpt><trkpt lat="45.74867866958488" lon="7.38860678922173"><ele>645.0</ele><time>2026-05-02T13:20:11Z</time></trkpt><trkpt lat="45.748679155016056" lon="7.388434962212248"><ele>645.5</ele><time>2026-05-02T13:20:12Z</time></trkpt><trkpt lat="45.748679748342994" lon="7.388262630166902"><ele>646.0</ele><time>2026-05-02T13:20:13Z</time></trkpt><trkpt lat="45.74866179022595" lon="7.388101346589049"><ele>646.5</ele><time>2026-05-02T13:20:14Z</time></trkpt><trkpt lat="45.74863479125057" lon="7.387943323406513"><ele>647.0</ele><time>2026-05-02T13:20:15Z</time></trkpt><trkpt lat="45.748573844871444" lon="7.387819888355268"><ele>641.8000000000001</ele><time>2026-05-02T13:20:16Z</time></trkpt><trkpt lat="45.748502444635264" lon="7.38770357558517"><ele>636.6</ele><time>2026-05-02T13:20:17Z</time></trkpt><trkpt lat="45.748430727626285" lon="7.387595552983035"><ele>631.4000000000001</ele><time>2026-05-02T13:20:18Z</time></trkpt><trkpt lat="45.748368050668276" lon="7.387478343238201"><ele>626.2</ele><time>2026-05-02T13:20:19Z</time></trkpt><trkpt lat="45.74833375085955" lon="7.387350471205169"><ele>621.0</ele><time>2026-05-02T13:20:20Z</time></trkpt><trkpt lat="45.74829319581485" lon="7.387232889713031"><ele>621.2</ele><time>2026-05-02T13:20:21Z</time></trkpt><trkpt lat="45.74827297595873" lon="7.3871111968139145"><ele>621.4000000000001</ele><time>2026-05-02T13:20:22Z</time></trkpt><trkpt lat="45.748249420234984" lon="7.387010012719144"><ele>621.6</ele><time>2026-05-02T13:20:23Z</time></trkpt><trkpt lat="45.74817761457007" lon="7.386865473800219"><ele>621.8000000000001</ele><time>2026-05-02T13:20:25Z</time></trkpt><trkpt lat="45.74804624312315" lon="7.386933767660979"><ele>622.0</ele><time>2026-05-02T13:20:27Z</time></trkpt><trkpt lat="45.74800662123197" lon="7.387011252912419"><ele>622.0</ele><time>2026-05-02T13:20:28Z</time></trkpt><trkpt lat="45.748002288251385" lon="7.387114015638182"><ele>622.0</ele><time>2026-05-02T13:20:29Z</time></trkpt><trkpt lat="45.74802823299163" lon="7.3872100766375945"><ele>622.0</ele><time>2026-05-02T13:20:30Z</time></trkpt><trkpt lat="45.74806205757313" lon="7.387312709391297"><ele>622.0</ele><time>2026-05-02T13:20:31Z</time></trkpt><trkpt lat="45.74809361916417" lon="7.387420335605951"><ele>622.0</ele><time>2026-05-02T13:20:32Z</time></trkpt><trkpt lat="45.74812023942034" lon="7.387546672392542"><ele>622.0</ele><time>2026-05-02T13:20:33Z</time></trkpt><trkpt lat="45.748142456188155" lon="7.3876932178770796"><ele>621.8000000000001</ele><time>2026-05-02T13:20:34Z</time></trkpt><trkpt lat="45.74813983487162" lon="7.38784588887458"><ele>621.6</ele><time>2026-05-02T13:20:35Z</time></trkpt><trkpt lat="45.74812529559601" lon="7.388010038516683"><ele>621.4000000000001</ele><time>2026-05-02T13:20:36Z</time></trkpt><trkpt lat="45.74810586716454" lon="7.388172353395778"><ele>621.2</ele><time>2026-05-02T13:20:37Z</time></trkpt><trkpt lat="45.74808384707413" lon="7.388328455360745"><ele>621.0</ele><time>2026-05-02T13:20:38Z</time></trkpt><trkpt lat="45.74806187137893" lon="7.388499470723809"><ele>620.75</ele><time>2026-05-02T13:20:39Z</time></trkpt><trkpt lat="45.748031548067274" lon="7.388686235555307"><ele>620.5</ele><time>2026-05-02T13:20:40Z</time></trkpt><trkpt lat="45.748008364064525" lon="7.38886414152193"><ele>620.25</ele><time>2026-05-02T13:20:41Z</time></trkpt><trkpt lat="45.74798636447866" lon="7.389026546447249"><ele>620.0</ele><time>2026-05-02T13:20:42Z</time></trkpt><trkpt lat="45.74796386324553" lon="7.389181687634266"><ele>620.0</ele><time>2026-05-02T13:20:43Z</time></trkpt><trkpt lat="45.747933481299036" lon="7.389333362898637"><ele>620.0</ele><time>2026-05-02T13:20:44Z</time></trkpt><trkpt lat="45.747891660527934" lon="7.389480649799971"><ele>620.0</ele><time>2026-05-02T13:20:45Z</time></trkpt><trkpt lat="45.74784322141618" lon="7.389622337352545"><ele>620.0</ele><time>2026-05-02T13:20:46Z</time></trkpt><trkpt lat="45.747795915183545" lon="7.3897493141751225"><ele>620.0</ele><time>2026-05-02T13:20:47Z</time></trkpt><trkpt lat="45.74773610526506" lon="7.389870510901372"><ele>615.4</ele><time>2026-05-02T13:20:48Z</time></trkpt><trkpt lat="45.74769232554267" lon="7.389965902611967"><ele>610.8</ele><time>2026-05-02T13:20:49Z</time></trkpt><trkpt lat="45.74765633218611" lon="7.390043408450886"><ele>606.2</ele><time>2026-05-02T13:20:50Z</time></trkpt><trkpt lat="45.74759824139426" lon="7.390177628520945"><ele>601.6</ele><time>2026-05-02T13:20:52Z</time></trkpt><trkpt lat="45.74753022688062" lon="7.390318343721167"><ele>597.0</ele><time>2026-05-02T13:20:54Z</time></trkpt><trkpt lat="45.747490679099876" lon="7.390443986370237"><ele>597.6666666666666</ele><time>2026-05-02T13:20:55Z</time></trkpt><trkpt lat="45.74745789359683" lon="7.390566034941291"><ele>598.3333333333334</ele><time>2026-05-02T13:20:56Z</time></trkpt><trkpt lat="45.74743529425971" lon="7.390667698680251"><ele>599.0</ele><time>2026-05-02T13:20:57Z</time></trkpt><trkpt lat="45.74742883444847" lon="7.390774071156542"><ele>599.6666666666667</ele><time>2026-05-02T13:20:58Z</time></trkpt><trkpt lat="45.7474007430051" lon="7.390866468729327"><ele>600.3333333333334</ele><time>2026-05-02T13:20:59Z</time></trkpt><trkpt lat="45.74738314572895" lon="7.390955306575981"><ele>601.0</ele><time>2026-05-02T13:21:00Z</time></trkpt><trkpt lat="45.7473339491209" lon="7.39111097691585"><ele>601.0</ele><time>2026-05-02T13:21:02Z</time></trkpt><trkpt lat="45.74721966885209" lon="7.391180637895987"><ele>601.0</ele><time>2026-05-02T13:21:04Z</time></trkpt><trkpt lat="45.747152563862365" lon="7.391161959377052"><ele>601.0</ele><time>2026-05-02T13:21:05Z</time></trkpt><trkpt lat="45.74708203226283" lon="7.391152557195683"><ele>601.0</ele><time>2026-05-02T13:21:06Z</time></trkpt><trkpt lat="45.74699948472406" lon="7.391155956703658"><ele>601.0</ele><time>2026-05-02T13:21:07Z</time></trkpt><trkpt lat="45.746910340866236" lon="7.3911398058133715"><ele>601.0</ele><time>2026-05-02T13:21:08Z</time></trkpt><trkpt lat="45.746812080947066" lon="7.391121205808118"><ele>599.0</ele><time>2026-05-02T13:21:09Z</time></trkpt><trkpt lat="45.74671456451745" lon="7.391098737612918"><ele>597.0</ele><time>2026-05-02T13:21:10Z</time></trkpt><trkpt lat="45.74661489329747" lon="7.391068443167385"><ele>595.0</ele><time>2026-05-02T13:21:11Z</time></trkpt><trkpt lat="45.7465154315578" lon="7.3910160509506415"><ele>593.0</ele><time>2026-05-02T13:21:12Z</time></trkpt><trkpt lat="45.74641484892707" lon="7.390939206657157"><ele>591.0</ele><time>2026-05-02T13:21:13Z</time></trkpt><trkpt lat="45.74631989108591" lon="7.390860096483644"><ele>591.0</ele><time>2026-05-02T13:21:14Z</time></trkpt><trkpt lat="45.746236232145435" lon="7.390768774122837"><ele>591.0</ele><time>2026-05-02T13:21:15Z</time></trkpt><trkpt lat="45.74612872574047" lon="7.390700794768915"><ele>591.0</ele><time>2026-05-02T13:21:16Z</time></trkpt><trkpt lat="45.74601430661887" lon="7.390676359903989"><ele>591.0</ele><time>2026-05-02T13:21:17Z</time></trkpt><trkpt lat="45.74589891012728" lon="7.3906525499444715"><ele>589.6</ele><time>2026-05-02T13:21:18Z</time></trkpt><trkpt lat="45.745798154775954" lon="7.390634161079251"><ele>588.2</ele><time>2026-05-02T13:21:19Z</time></trkpt><trkpt lat="45.745697579020906" lon="7.390621316598467"><ele>586.8</ele><time>2026-05-02T13:21:20Z</time></trkpt><trkpt lat="45.74561498826715" lon="7.390605421093378"><ele>585.4</ele><time>2026-05-02T13:21:21Z</time></trkpt><trkpt lat="45.7455408897518" lon="7.390591257300269"><ele>584.0</ele><time>2026-05-02T13:21:22Z</time></trkpt><trkpt lat="45.745447379963636" lon="7.390577800763395"><ele>584.0</ele><time>2026-05-02T13:21:24Z</time></trkpt><trkpt lat="45.74537847671848" lon="7.390560330338484"><ele>584.0</ele><time>2026-05-02T13:21:35Z</time></trkpt><trkpt lat="45.74529693288001" lon="7.390544722017992"><ele>584.0</ele><time>2026-05-02T13:21:38Z</time></trkpt><trkpt lat="45.74522715756248" lon="7.390533464892014"><ele>584.0</ele><time>2026-05-02T13:21:40Z</time></trkpt><trkpt lat="45.74513594940822" lon="7.390493304542402"><ele>584.0</ele><time>2026-05-02T13:21:42Z</time></trkpt><trkpt lat="45.745050940971005" lon="7.390415646403831"><ele>584.0</ele><time>2026-05-02T13:21:44Z</time></trkpt><trkpt lat="45.744981502362315" lon="7.390319990960464"><ele>582.2</ele><time>2026-05-02T13:21:46Z</time></trkpt><trkpt lat="45.744894024856066" lon="7.390194389859981"><ele>580.4</ele><time>2026-05-02T13:21:48Z</time></trkpt><trkpt lat="45.74484321338508" lon="7.390111934991543"><ele>578.6</ele><time>2026-05-02T13:21:49Z</time></trkpt><trkpt lat="45.744785065138224" lon="7.390022136131264"><ele>576.8</ele><time>2026-05-02T13:21:50Z</time></trkpt><trkpt lat="45.744719121197555" lon="7.389931680107582"><ele>575.0</ele><time>2026-05-02T13:21:51Z</time></trkpt><trkpt lat="45.74465585626706" lon="7.3898286412599745"><ele>575.0</ele><time>2026-05-02T13:21:52Z</time></trkpt><trkpt lat="45.744603834326256" lon="7.389713547082019"><ele>575.0</ele><time>2026-05-02T13:21:53Z</time></trkpt><trkpt lat="45.74455457613458" lon="7.389598736852639"><ele>575.0</ele><time>2026-05-02T13:21:54Z</time></trkpt><trkpt lat="45.744515676230414" lon="7.389488593098489"><ele>575.0</ele><time>2026-05-02T13:21:55Z</time></trkpt><trkpt lat="45.74448152870705" lon="7.389376926854973"><ele>575.0</ele><time>2026-05-02T13:21:56Z</time></trkpt><trkpt lat="45.744440380473684" lon="7.389256226524047"><ele>574.0</ele><time>2026-05-02T13:21:57Z</time></trkpt><trkpt lat="45.74439996491203" lon="7.389129782188595"><ele>573.0</ele><time>2026-05-02T13:21:58Z</time></trkpt><trkpt lat="45.74436700886049" lon="7.389007714313052"><ele>572.0</ele><time>2026-05-02T13:21:59Z</time></trkpt><trkpt lat="45.744338472088906" lon="7.388889451969433"><ele>571.0</ele><time>2026-05-02T13:22:00Z</time></trkpt><trkpt lat="45.74432095930235" lon="7.388765535221175"><ele>570.0</ele><time>2026-05-02T13:22:01Z</time></trkpt><trkpt lat="45.74431641206815" lon="7.388636700758464"><ele>568.6666666666666</ele><time>2026-05-02T13:22:02Z</time></trkpt><trkpt lat="45.7443141797762" lon="7.388512348413909"><ele>567.3333333333334</ele><time>2026-05-02T13:22:03Z</time></trkpt><trkpt lat="45.74431224942941" lon="7.388393302311608"><ele>566.0</ele><time>2026-05-02T13:22:04Z</time></trkpt><trkpt lat="45.744308685007894" lon="7.38827088599634"><ele>564.6666666666667</ele><time>2026-05-02T13:22:05Z</time></trkpt><trkpt lat="45.7443039777024" lon="7.388145912845131"><ele>563.3333333333334</ele><time>2026-05-02T13:22:06Z</time></trkpt><trkpt lat="45.74430670950289" lon="7.388019447579373"><ele>562.0</ele><time>2026-05-02T13:22:07Z</time></trkpt><trkpt lat="45.74430911663027" lon="7.387905885958288"><ele>562.0</ele><time>2026-05-02T13:22:08Z</time></trkpt><trkpt lat="45.74431972512091" lon="7.387784183973498"><ele>562.0</ele><time>2026-05-02T13:22:09Z</time></trkpt><trkpt lat="45.74433524325247" lon="7.387669758480824"><ele>562.0</ele><time>2026-05-02T13:22:10Z</time></trkpt><trkpt lat="45.74435742289238" lon="7.387540871048454"><ele>562.0</ele><time>2026-05-02T13:22:11Z</time></trkpt><trkpt lat="45.74439513585514" lon="7.387419191535105"><ele>562.0</ele><time>2026-05-02T13:22:12Z</time></trkpt><trkpt lat="45.74443913773892" lon="7.387310725263335"><ele>562.0</ele><time>2026-05-02T13:22:13Z</time></trkpt><trkpt lat="45.7444910076972" lon="7.387209201038422"><ele>561.5</ele><time>2026-05-02T13:22:14Z</time></trkpt><trkpt lat="45.744538644683466" lon="7.38710716430103"><ele>561.0</ele><time>2026-05-02T13:22:15Z</time></trkpt><trkpt lat="45.74456066661095" lon="7.387007137890147"><ele>560.5</ele><time>2026-05-02T13:22:16Z</time></trkpt><trkpt lat="45.74457369769392" lon="7.386895333926396"><ele>560.0</ele><time>2026-05-02T13:22:17Z</time></trkpt><trkpt lat="45.74455924429488" lon="7.386791294085178"><ele>559.5</ele><time>2026-05-02T13:22:18Z</time></trkpt><trkpt lat="45.744528904542314" lon="7.3867036244273265"><ele>559.0</ele><time>2026-05-02T13:22:19Z</time></trkpt><trkpt lat="45.74448047271161" lon="7.386625541221405"><ele>559.0</ele><time>2026-05-02T13:22:20Z</time></trkpt><trkpt lat="45.74442377659077" lon="7.386537958987642"><ele>559.0</ele><time>2026-05-02T13:22:21Z</time></trkpt><trkpt lat="45.74434110356119" lon="7.386505965744071"><ele>559.0</ele><time>2026-05-02T13:22:22Z</time></trkpt><trkpt lat="45.7442501479996" lon="7.386512089636898"><ele>559.0</ele><time>2026-05-02T13:22:23Z</time></trkpt><trkpt lat="45.74416625772196" lon="7.386512089634521"><ele>559.0</ele><time>2026-05-02T13:22:24Z</time></trkpt><trkpt lat="45.74408460366812" lon="7.386513488933566"><ele>559.0</ele><time>2026-05-02T13:22:25Z</time></trkpt><trkpt lat="45.744008093011786" lon="7.386537437223675"><ele>557.3333333333334</ele><time>2026-05-02T13:22:26Z</time></trkpt><trkpt lat="45.74392402207256" lon="7.386534791568399"><ele>555.6666666666667</ele><time>2026-05-02T13:22:27Z</time></trkpt><trkpt lat="45.74383640228472" lon="7.3865163826387885"><ele>554.0</ele><time>2026-05-02T13:22:28Z</time></trkpt><trkpt lat="45.74375182369293" lon="7.38651091699699"><ele>552.3333333333334</ele><time>2026-05-02T13:22:29Z</time></trkpt><trkpt lat="45.7436815207941" lon="7.38651344278039"><ele>550.6666666666666</ele><time>2026-05-02T13:22:30Z</time></trkpt><trkpt lat="45.7436146150261" lon="7.386510362927153"><ele>549.0</ele><time>2026-05-02T13:22:31Z</time></trkpt><trkpt lat="45.74352173877748" lon="7.3864849572371165"><ele>547.6666666666666</ele><time>2026-05-02T13:22:33Z</time></trkpt><trkpt lat="45.74344883851071" lon="7.386448690791423"><ele>546.3333333333334</ele><time>2026-05-02T13:22:35Z</time></trkpt><trkpt lat="45.74338997473675" lon="7.386415863396963"><ele>545.0</ele><time>2026-05-02T13:22:37Z</time></trkpt><trkpt lat="45.743315105205276" lon="7.386383382678181"><ele>543.6666666666667</ele><time>2026-05-02T13:22:39Z</time></trkpt><trkpt lat="45.74324660344908" lon="7.386347349133972"><ele>542.3333333333334</ele><time>2026-05-02T13:22:41Z</time></trkpt><trkpt lat="45.74318251430465" lon="7.38630230765395"><ele>541.0</ele><time>2026-05-02T13:22:46Z</time></trkpt><trkpt lat="45.743106952440456" lon="7.386212156667585"><ele>541.0</ele><time>2026-05-02T13:22:48Z</time></trkpt><trkpt lat="45.74299402609573" lon="7.386212937902737"><ele>541.0</ele><time>2026-05-02T13:22:50Z</time></trkpt><trkpt lat="45.74297519367464" lon="7.386361903829813"><ele>541.0</ele><time>2026-05-02T13:22:51Z</time></trkpt><trkpt lat="45.7429483379483" lon="7.386500205544341"><ele>541.0</ele><time>2026-05-02T13:22:52Z</time></trkpt><trkpt lat="45.7428697515959" lon="7.386632528251438"><ele>541.0</ele><time>2026-05-02T13:22:53Z</time></trkpt><trkpt lat="45.74276021141152" lon="7.386742394622225"><ele>540.6</ele><time>2026-05-02T13:22:54Z</time></trkpt><trkpt lat="45.7426514456228" lon="7.38682569178698"><ele>540.2</ele><time>2026-05-02T13:22:55Z</time></trkpt><trkpt lat="45.742551071035685" lon="7.386896721582892"><ele>539.8</ele><time>2026-05-02T13:22:56Z</time></trkpt><trkpt lat="45.74246369295119" lon="7.386957761513716"><ele>539.4</ele><time>2026-05-02T13:22:57Z</time></trkpt><trkpt lat="45.742382211222996" lon="7.38697819060529"><ele>539.0</ele><time>2026-05-02T13:22:58Z</time></trkpt><trkpt lat="45.7423160734613" lon="7.3869381947766914"><ele>539.0</ele><time>2026-05-02T13:22:59Z</time></trkpt><trkpt lat="45.742267809779186" lon="7.386849580793994"><ele>539.0</ele><time>2026-05-02T13:23:00Z</time></trkpt><trkpt lat="45.742244375727374" lon="7.386719961210832"><ele>539.0</ele><time>2026-05-02T13:23:01Z</time></trkpt><trkpt lat="45.74223782269535" lon="7.3865635661264175"><ele>539.0</ele><time>2026-05-02T13:23:02Z</time></trkpt><trkpt lat="45.74223123488788" lon="7.386390205922055"><ele>539.0</ele><time>2026-05-02T13:23:03Z</time></trkpt><trkpt lat="45.742214627661546" lon="7.386204741035889"><ele>539.0</ele><time>2026-05-02T13:23:04Z</time></trkpt><trkpt lat="45.74219429462646" lon="7.386018509903762"><ele>539.0</ele><time>2026-05-02T13:23:05Z</time></trkpt><trkpt lat="45.74217894868217" lon="7.3858329513079"><ele>539.0</ele><time>2026-05-02T13:23:06Z</time></trkpt><trkpt lat="45.74216362586449" lon="7.385649718235558"><ele>539.0</ele><time>2026-05-02T13:23:07Z</time></trkpt><trkpt lat="45.742130587344235" lon="7.385472251348281"><ele>539.0</ele><time>2026-05-02T13:23:08Z</time></trkpt><trkpt lat="45.74215404144147" lon="7.3852865627429045"><ele>539.0</ele><time>2026-05-02T13:23:09Z</time></trkpt><trkpt lat="45.74216810891789" lon="7.3851112185025025"><ele>539.0</ele><time>2026-05-02T13:23:10Z</time></trkpt><trkpt lat="45.74220016259083" lon="7.3849465748445295"><ele>539.0</ele><time>2026-05-02T13:23:11Z</time></trkpt><trkpt lat="45.742258908491955" lon="7.3847996567391005"><ele>539.25</ele><time>2026-05-02T13:23:12Z</time></trkpt><trkpt lat="45.74233860913317" lon="7.384674412668717"><ele>539.5</ele><time>2026-05-02T13:23:13Z</time></trkpt><trkpt lat="45.74243458977865" lon="7.384565724386916"><ele>539.75</ele><time>2026-05-02T13:23:14Z</time></trkpt><trkpt lat="45.74254097591829" lon="7.384473534540534"><ele>540.0</ele><time>2026-05-02T13:23:15Z</time></trkpt><trkpt lat="45.74265238305077" lon="7.3843730623185655"><ele>540.25</ele><time>2026-05-02T13:23:16Z</time></trkpt><trkpt lat="45.74274359802273" lon="7.3842310870208"><ele>540.5</ele><time>2026-05-02T13:23:17Z</time></trkpt><trkpt lat="45.74280633063801" lon="7.384050896446469"><ele>540.75</ele><time>2026-05-02T13:23:18Z</time></trkpt><trkpt lat="45.74283345990951" lon="7.383844512800747"><ele>541.0</ele><time>2026-05-02T13:23:19Z</time></trkpt><trkpt lat="45.74283238720295" lon="7.383628467268327"><ele>541.0</ele><time>2026-05-02T13:23:20Z</time></trkpt><trkpt lat="45.74283143019361" lon="7.383408417648543"><ele>541.0</ele><time>2026-05-02T13:23:21Z</time></trkpt><trkpt lat="45.7428512077287" lon="7.383199542789149"><ele>541.0</ele><time>2026-05-02T13:23:22Z</time></trkpt><trkpt lat="45.742899844494595" lon="7.383008480378664"><ele>541.0</ele><time>2026-05-02T13:23:23Z</time></trkpt><trkpt lat="45.742971978405144" lon="7.382815006170684"><ele>541.3333333333334</ele><time>2026-05-02T13:23:24Z</time></trkpt><trkpt lat="45.74309929458397" lon="7.382652306870648"><ele>541.6666666666666</ele><time>2026-05-02T13:23:25Z</time></trkpt><trkpt lat="45.74323186853743" lon="7.382496843856528"><ele>542.0</ele><time>2026-05-02T13:23:26Z</time></trkpt><trkpt lat="45.74341948684316" lon="7.382415534978731"><ele>542.6666666666666</ele><time>2026-05-02T13:23:27Z</time></trkpt><trkpt lat="45.74358173842508" lon="7.382290128806743"><ele>543.3333333333334</ele><time>2026-05-02T13:23:28Z</time></trkpt><trkpt lat="45.74375394140683" lon="7.3821752355554295"><ele>544.0</ele><time>2026-05-02T13:23:29Z</time></trkpt><trkpt lat="45.74392416916811" lon="7.382043973946923"><ele>546.0</ele><time>2026-05-02T13:23:30Z</time></trkpt><trkpt lat="45.744098388271276" lon="7.381911130672766"><ele>548.0</ele><time>2026-05-02T13:23:31Z</time></trkpt><trkpt lat="45.744269508878446" lon="7.381779708526262"><ele>550.0</ele><time>2026-05-02T13:23:32Z</time></trkpt><trkpt lat="45.744439860875545" lon="7.381649019793211"><ele>554.0</ele><time>2026-05-02T13:23:33Z</time></trkpt><trkpt lat="45.74460523296271" lon="7.381522453405128"><ele>558.0</ele><time>2026-05-02T13:23:34Z</time></trkpt><trkpt lat="45.744772205439475" lon="7.381390616637892"><ele>562.0</ele><time>2026-05-02T13:23:35.015Z</time></trkpt><trkpt lat="45.74493745839397" lon="7.3812560660307325"><ele>563.3333333333334</ele><time>2026-05-02T13:23:36.033Z</time></trkpt><trkpt lat="45.74510070158688" lon="7.381121840586977"><ele>564.6666666666666</ele><time>2026-05-02T13:23:37.017Z</time></trkpt><trkpt lat="45.745268063884694" lon="7.380982023810847"><ele>566.0</ele><time>2026-05-02T13:23:38.017Z</time></trkpt><trkpt lat="45.74543461885986" lon="7.380840641848363"><ele>630.0</ele><time>2026-05-02T13:23:39.018Z</time></trkpt><trkpt lat="45.746171105909006" lon="7.380068081799225"><ele>630.0</ele><time>2026-05-02T13:23:43.579Z</time></trkpt><trkpt lat="45.74633006017464" lon="7.379893224918364"><ele>630.0</ele><time>2026-05-02T13:23:44.582Z</time></trkpt><trkpt lat="45.746496045312995" lon="7.379732042269917"><ele>630.0</ele><time>2026-05-02T13:23:45.582Z</time></trkpt><trkpt lat="45.74663778682902" lon="7.379528635752535"><ele>630.0</ele><time>2026-05-02T13:23:46.582Z</time></trkpt><trkpt lat="45.74678689528297" lon="7.379338438293738"><ele>630.0</ele><time>2026-05-02T13:23:47.582Z</time></trkpt><trkpt lat="45.74693307894538" lon="7.379143630414848"><ele>630.0</ele><time>2026-05-02T13:23:48.582Z</time></trkpt><trkpt lat="45.74708735771737" lon="7.378960819287007"><ele>634.6666666666666</ele><time>2026-05-02T13:23:49.581Z</time></trkpt><trkpt lat="45.7472268592168" lon="7.378755771342786"><ele>639.3333333333333</ele><time>2026-05-02T13:23:50.579Z</time></trkpt><trkpt lat="45.747350655481206" lon="7.378530164763658"><ele>644.0</ele><time>2026-05-02T13:23:51.579Z</time></trkpt><trkpt lat="45.74749638193345" lon="7.378332967542329"><ele>644.0</ele><time>2026-05-02T13:23:52.579Z</time></trkpt><trkpt lat="45.747613215972194" lon="7.378099566910095"><ele>644.0</ele><time>2026-05-02T13:23:53.579Z</time></trkpt><trkpt lat="45.747739741382134" lon="7.377877509069334"><ele>644.0</ele><time>2026-05-02T13:23:54.581Z</time></trkpt><trkpt lat="45.747876586170605" lon="7.377667462809032"><ele>644.6666666666666</ele><time>2026-05-02T13:23:55.582Z</time></trkpt><trkpt lat="45.7479982259639" lon="7.377441507551004"><ele>645.3333333333334</ele><time>2026-05-02T13:23:56.58Z</time></trkpt><trkpt lat="45.74811581106298" lon="7.377207917504886"><ele>646.0</ele><time>2026-05-02T13:23:57.582Z</time></trkpt><trkpt lat="45.74822615234672" lon="7.3769703111089795"><ele>646.0</ele><time>2026-05-02T13:23:58.579Z</time></trkpt><trkpt lat="45.748332972607685" lon="7.376728306226211"><ele>646.0</ele><time>2026-05-02T13:23:59.579Z</time></trkpt><trkpt lat="45.74842280389168" lon="7.376470844283688"><ele>646.0</ele><time>2026-05-02T13:24:00.582Z</time></trkpt><trkpt lat="45.74853816491774" lon="7.376237521579476"><ele>653.0</ele><time>2026-05-02T13:24:01.579Z</time></trkpt><trkpt lat="45.748635557261764" lon="7.375985888567689"><ele>660.0</ele><time>2026-05-02T13:24:02.582Z</time></trkpt><trkpt lat="45.74871428422347" lon="7.375722301554928"><ele>667.0</ele><time>2026-05-02T13:24:03.582Z</time></trkpt><trkpt lat="45.74881899544282" lon="7.37547865296526"><ele>666.6666666666667</ele><time>2026-05-02T13:24:04.579Z</time></trkpt><trkpt lat="45.74889167370687" lon="7.375210906926297"><ele>666.3333333333334</ele><time>2026-05-02T13:24:05.581Z</time></trkpt><trkpt lat="45.74898782895899" lon="7.374959633526059"><ele>666.0</ele><time>2026-05-02T13:24:06.579Z</time></trkpt><trkpt lat="45.74904837348685" lon="7.3746860927225795"><ele>666.0</ele><time>2026-05-02T13:24:07.579Z</time></trkpt><trkpt lat="45.74912120721735" lon="7.374419100974028"><ele>666.0</ele><time>2026-05-02T13:24:08.582Z</time></trkpt><trkpt lat="45.7491902518689" lon="7.374151095710069"><ele>666.0</ele><time>2026-05-02T13:24:09.582Z</time></trkpt><trkpt lat="45.749270933062405" lon="7.373888583206686"><ele>665.3333333333334</ele><time>2026-05-02T13:24:10.582Z</time></trkpt><trkpt lat="45.749330884217436" lon="7.373616132184681"><ele>664.6666666666667</ele><time>2026-05-02T13:24:11.58Z</time></trkpt><trkpt lat="45.74937223646801" lon="7.373334840995581"><ele>664.0</ele><time>2026-05-02T13:24:12.582Z</time></trkpt><trkpt lat="45.74944114229575" lon="7.3730652095061755"><ele>671.0</ele><time>2026-05-02T13:24:13.582Z</time></trkpt><trkpt lat="45.74948773206551" lon="7.3727880847424245"><ele>678.0</ele><time>2026-05-02T13:24:14.579Z</time></trkpt><trkpt lat="45.74953144720778" lon="7.37250803873777"><ele>685.0</ele><time>2026-05-02T13:24:15.582Z</time></trkpt><trkpt lat="45.74955500759089" lon="7.372224168963645"><ele>684.6666666666667</ele><time>2026-05-02T13:24:16.579Z</time></trkpt><trkpt lat="45.74958962123541" lon="7.371942843074531"><ele>684.3333333333334</ele><time>2026-05-02T13:24:17.579Z</time></trkpt><trkpt lat="45.74963728144319" lon="7.371662590191105"><ele>684.0</ele><time>2026-05-02T13:24:18.582Z</time></trkpt><trkpt lat="45.74966034311277" lon="7.371379192024298"><ele>682.3333333333334</ele><time>2026-05-02T13:24:19.581Z</time></trkpt><trkpt lat="45.74968187912181" lon="7.371094775131743"><ele>680.6666666666667</ele><time>2026-05-02T13:24:20.581Z</time></trkpt><trkpt lat="45.74968208979552" lon="7.370807694524856"><ele>679.0</ele><time>2026-05-02T13:24:21.582Z</time></trkpt><trkpt lat="45.7496940981879" lon="7.370523591939628"><ele>677.6666666666667</ele><time>2026-05-02T13:24:22.579Z</time></trkpt><trkpt lat="45.74971916555458" lon="7.370238206709605"><ele>676.3333333333334</ele><time>2026-05-02T13:24:23.582Z</time></trkpt><trkpt lat="45.74970687551289" lon="7.369952446561169"><ele>675.0</ele><time>2026-05-02T13:24:24.58Z</time></trkpt><trkpt lat="45.749725578680724" lon="7.369666725208035"><ele>675.0</ele><time>2026-05-02T13:24:25.579Z</time></trkpt><trkpt lat="45.74970492360806" lon="7.369381554202741"><ele>675.0</ele><time>2026-05-02T13:24:26.579Z</time></trkpt><trkpt lat="45.74970090187218" lon="7.369095437739491"><ele>675.0</ele><time>2026-05-02T13:24:27.581Z</time></trkpt><trkpt lat="45.74969689870297" lon="7.368810642156029"><ele>674.0</ele><time>2026-05-02T13:24:28.579Z</time></trkpt><trkpt lat="45.749692885014596" lon="7.368525098212441"><ele>673.0</ele><time>2026-05-02T13:24:29.579Z</time></trkpt><trkpt lat="45.74968885732634" lon="7.36823855828206"><ele>672.0</ele><time>2026-05-02T13:24:30.582Z</time></trkpt><trkpt lat="45.749684847486606" lon="7.367953288140385"><ele>669.3333333333334</ele><time>2026-05-02T13:24:31.581Z</time></trkpt><trkpt lat="45.7496969884652" lon="7.367666930303546"><ele>666.6666666666667</ele><time>2026-05-02T13:24:32.582Z</time></trkpt><trkpt lat="45.749691484508766" lon="7.3673811387956505"><ele>664.0</ele><time>2026-05-02T13:24:33.582Z</time></trkpt><trkpt lat="45.74966926425403" lon="7.367096578332321"><ele>664.0</ele><time>2026-05-02T13:24:34.582Z</time></trkpt><trkpt lat="45.7496639708902" lon="7.366811077789386"><ele>664.0</ele><time>2026-05-02T13:24:35.582Z</time></trkpt><trkpt lat="45.74965869059485" lon="7.366526282103041"><ele>664.0</ele><time>2026-05-02T13:24:36.58Z</time></trkpt><trkpt lat="45.74967002558789" lon="7.3662394566788"><ele>665.0</ele><time>2026-05-02T13:24:37.582Z</time></trkpt><trkpt lat="45.749647844377876" lon="7.365954639701245"><ele>666.0</ele><time>2026-05-02T13:24:38.582Z</time></trkpt><trkpt lat="45.74964231899196" lon="7.365670139572147"><ele>667.0</ele><time>2026-05-02T13:24:39.579Z</time></trkpt><trkpt lat="45.749637384720074" lon="7.365384649392713"><ele>667.3333333333334</ele><time>2026-05-02T13:24:40.579Z</time></trkpt><trkpt lat="45.7496328111609" lon="7.365098131130024"><ele>667.6666666666666</ele><time>2026-05-02T13:24:41.582Z</time></trkpt><trkpt lat="45.74962826458698" lon="7.364813303403117"><ele>668.0</ele><time>2026-05-02T13:24:42.58Z</time></trkpt><trkpt lat="45.74964033484332" lon="7.364526548217138"><ele>667.0</ele><time>2026-05-02T13:24:43.582Z</time></trkpt><trkpt lat="45.74963596376081" lon="7.36424203566364"><ele>666.0</ele><time>2026-05-02T13:24:44.579Z</time></trkpt><trkpt lat="45.749631950547396" lon="7.363955572254965"><ele>665.0</ele><time>2026-05-02T13:24:45.582Z</time></trkpt><trkpt lat="45.749627950602296" lon="7.363670056261942"><ele>664.6666666666666</ele><time>2026-05-02T13:24:46.582Z</time></trkpt><trkpt lat="45.74960731049954" lon="7.363385000191592"><ele>664.3333333333334</ele><time>2026-05-02T13:24:47.582Z</time></trkpt><trkpt lat="45.749619954837875" lon="7.363099318092208"><ele>664.0</ele><time>2026-05-02T13:24:48.581Z</time></trkpt><trkpt lat="45.74959976293039" lon="7.36281482365712"><ele>662.6666666666667</ele><time>2026-05-02T13:24:49.579Z</time></trkpt><trkpt lat="45.74961351741374" lon="7.362528042935414"><ele>661.3333333333334</ele><time>2026-05-02T13:24:50.582Z</time></trkpt><trkpt lat="45.7495940067114" lon="7.362243723391507"><ele>660.0</ele><time>2026-05-02T13:24:51.579Z</time></trkpt><trkpt lat="45.749607770615334" lon="7.361957877309172"><ele>660.0</ele><time>2026-05-02T13:24:52.579Z</time></trkpt><trkpt lat="45.74960505407963" lon="7.36167155597106"><ele>660.0</ele><time>2026-05-02T13:24:53.582Z</time></trkpt><trkpt lat="45.74960318887162" lon="7.361386447653124"><ele>660.0</ele><time>2026-05-02T13:24:54.58Z</time></trkpt><trkpt lat="45.74960256051022" lon="7.3611014926508656"><ele>660.3333333333334</ele><time>2026-05-02T13:24:55.579Z</time></trkpt><trkpt lat="45.74958601499419" lon="7.3608149166117665"><ele>660.6666666666667</ele><time>2026-05-02T13:24:56.582Z</time></trkpt><trkpt lat="45.749603925049726" lon="7.360529544973555"><ele>661.0</ele><time>2026-05-02T13:24:57.582Z</time></trkpt><trkpt lat="45.74960563199232" lon="7.3602439524950976"><ele>661.3333333333334</ele><time>2026-05-02T13:24:58.582Z</time></trkpt><trkpt lat="45.74960740378451" lon="7.359959461407344"><ele>661.6666666666666</ele><time>2026-05-02T13:24:59.579Z</time></trkpt><trkpt lat="45.74961043229904" lon="7.359672998458689"><ele>662.0</ele><time>2026-05-02T13:25:00.582Z</time></trkpt><trkpt lat="45.74961345125623" lon="7.359387439604009"><ele>662.6666666666666</ele><time>2026-05-02T13:25:01.582Z</time></trkpt><trkpt lat="45.74961733874782" lon="7.359101992722855"><ele>663.3333333333334</ele><time>2026-05-02T13:25:02.582Z</time></trkpt><trkpt lat="45.74960554742194" lon="7.358816598034079"><ele>664.0</ele><time>2026-05-02T13:25:03.58Z</time></trkpt><trkpt lat="45.7496279768701" lon="7.358531245393943"><ele>664.3333333333334</ele><time>2026-05-02T13:25:04.582Z</time></trkpt><trkpt lat="45.74963523485848" lon="7.358246086583877"><ele>664.6666666666666</ele><time>2026-05-02T13:25:05.582Z</time></trkpt><trkpt lat="45.74962646800704" lon="7.357960769411512"><ele>665.0</ele><time>2026-05-02T13:25:06.579Z</time></trkpt><trkpt lat="45.74963570693508" lon="7.357674487571571"><ele>665.6666666666666</ele><time>2026-05-02T13:25:07.582Z</time></trkpt><trkpt lat="45.749662143540995" lon="7.357390446782765"><ele>666.3333333333334</ele><time>2026-05-02T13:25:08.582Z</time></trkpt><trkpt lat="45.74967226427149" lon="7.357105948381126"><ele>667.0</ele><time>2026-05-02T13:25:09.58Z</time></trkpt><trkpt lat="45.74966658631467" lon="7.356818894981198"><ele>667.3333333333334</ele><time>2026-05-02T13:25:10.582Z</time></trkpt><trkpt lat="45.749677468762094" lon="7.356534655577145"><ele>667.6666666666666</ele><time>2026-05-02T13:25:11.579Z</time></trkpt><trkpt lat="45.749689201763466" lon="7.3562495745167125"><ele>668.0</ele><time>2026-05-02T13:25:12.579Z</time></trkpt><trkpt lat="45.74971804094395" lon="7.355965091387105"><ele>668.0</ele><time>2026-05-02T13:25:13.582Z</time></trkpt><trkpt lat="45.74971508188836" lon="7.355679557525982"><ele>668.0</ele><time>2026-05-02T13:25:14.579Z</time></trkpt><trkpt lat="45.74972901897446" lon="7.355393750222962"><ele>668.0</ele><time>2026-05-02T13:25:15.582Z</time></trkpt><trkpt lat="45.74974381300189" lon="7.355109929600699"><ele>670.3333333333333</ele><time>2026-05-02T13:25:16.579Z</time></trkpt><trkpt lat="45.749758874844844" lon="7.354825175071972"><ele>672.6666666666666</ele><time>2026-05-02T13:25:17.579Z</time></trkpt><trkpt lat="45.74979188744243" lon="7.354541539906161"><ele>675.0</ele><time>2026-05-02T13:25:18.582Z</time></trkpt><trkpt lat="45.74979211468398" lon="7.354254971130715"><ele>676.0</ele><time>2026-05-02T13:25:19.582Z</time></trkpt><trkpt lat="45.749810124081414" lon="7.353971550283904"><ele>677.0</ele><time>2026-05-02T13:25:20.579Z</time></trkpt><trkpt lat="45.749828259428725" lon="7.35368614731522"><ele>678.0</ele><time>2026-05-02T13:25:21.582Z</time></trkpt><trkpt lat="45.74986321190479" lon="7.353404082400136"><ele>678.0</ele><time>2026-05-02T13:25:22.582Z</time></trkpt><trkpt lat="45.749866156086824" lon="7.353117532848571"><ele>678.0</ele><time>2026-05-02T13:25:23.582Z</time></trkpt><trkpt lat="45.74988751898723" lon="7.352833581050553"><ele>678.0</ele><time>2026-05-02T13:25:24.582Z</time></trkpt><trkpt lat="45.74990958612688" lon="7.352549718768726"><ele>680.0</ele><time>2026-05-02T13:25:25.582Z</time></trkpt><trkpt lat="45.74994960460202" lon="7.352268916881093"><ele>682.0</ele><time>2026-05-02T13:25:26.582Z</time></trkpt><trkpt lat="45.74997337700464" lon="7.351986311162907"><ele>684.0</ele><time>2026-05-02T13:25:27.579Z</time></trkpt><trkpt lat="45.74999739762013" lon="7.351701862076665"><ele>686.0</ele><time>2026-05-02T13:25:28.582Z</time></trkpt><trkpt lat="45.75002126320379" lon="7.351419248905808"><ele>688.0</ele><time>2026-05-02T13:25:29.579Z</time></trkpt><trkpt lat="45.750045319878936" lon="7.3511356341221505"><ele>690.0</ele><time>2026-05-02T13:25:30.58Z</time></trkpt><trkpt lat="45.750054009206444" lon="7.350849622052628"><ele>692.3333333333334</ele><time>2026-05-02T13:25:31.579Z</time></trkpt><trkpt lat="45.750080120656676" lon="7.350565516447606"><ele>694.6666666666667</ele><time>2026-05-02T13:25:32.582Z</time></trkpt><trkpt lat="45.750124779998835" lon="7.35028663286818"><ele>697.0</ele><time>2026-05-02T13:25:33.58Z</time></trkpt><trkpt lat="45.75013649101942" lon="7.350000988446767"><ele>698.6666666666667</ele><time>2026-05-02T13:25:34.579Z</time></trkpt><trkpt lat="45.75016538674112" lon="7.349717458849048"><ele>700.3333333333334</ele><time>2026-05-02T13:25:35.582Z</time></trkpt><trkpt lat="45.75021160904679" lon="7.349438748780233"><ele>702.0</ele><time>2026-05-02T13:25:36.582Z</time></trkpt><trkpt lat="45.750226270580235" lon="7.349153353266416"><ele>707.6666666666666</ele><time>2026-05-02T13:25:37.581Z</time></trkpt><trkpt lat="45.75027454653039" lon="7.34887581193246"><ele>713.3333333333333</ele><time>2026-05-02T13:25:38.579Z</time></trkpt><trkpt lat="45.75029046646724" lon="7.3485891493156545"><ele>719.0</ele><time>2026-05-02T13:25:39.582Z</time></trkpt><trkpt lat="45.750324018751364" lon="7.348307606033958"><ele>719.6666666666666</ele><time>2026-05-02T13:25:40.582Z</time></trkpt><trkpt lat="45.750374411709" lon="7.3480311951462545"><ele>720.3333333333334</ele><time>2026-05-02T13:25:41.579Z</time></trkpt><trkpt lat="45.75040879572818" lon="7.34774996888018"><ele>721.0</ele><time>2026-05-02T13:25:42.579Z</time></trkpt><trkpt lat="45.750443396451935" lon="7.347467663898591"><ele>721.6666666666667</ele><time>2026-05-02T13:25:43.582Z</time></trkpt><trkpt lat="45.75047836906334" lon="7.347186648793097"><ele>722.3333333333334</ele><time>2026-05-02T13:25:44.582Z</time></trkpt><trkpt lat="45.7505141522403" lon="7.346905684137553"><ele>723.0</ele><time>2026-05-02T13:25:45.582Z</time></trkpt><trkpt lat="45.75053379729687" lon="7.3466204795590215"><ele>724.6666666666666</ele><time>2026-05-02T13:25:46.582Z</time></trkpt><trkpt lat="45.750586576448605" lon="7.346344815041559"><ele>726.3333333333333</ele><time>2026-05-02T13:25:47.58Z</time></trkpt><trkpt lat="45.75060793000594" lon="7.346059177242557"><ele>728.0</ele><time>2026-05-02T13:25:48.582Z</time></trkpt><trkpt lat="45.750663333665194" lon="7.345783780107661"><ele>727.0</ele><time>2026-05-02T13:25:49.582Z</time></trkpt><trkpt lat="45.750702421824364" lon="7.345503692118823"><ele>726.0</ele><time>2026-05-02T13:25:50.582Z</time></trkpt><trkpt lat="45.750741616764685" lon="7.345223669779848"><ele>725.0</ele><time>2026-05-02T13:25:51.582Z</time></trkpt><trkpt lat="45.750780876853796" lon="7.344943621481377"><ele>725.3333333333333</ele><time>2026-05-02T13:25:52.582Z</time></trkpt><trkpt lat="45.75080381533616" lon="7.34465892094175"><ele>725.6666666666666</ele><time>2026-05-02T13:25:53.582Z</time></trkpt><trkpt lat="45.750842989080205" lon="7.344379488417483"><ele>726.0</ele><time>2026-05-02T13:25:54.58Z</time></trkpt><trkpt lat="45.75089864948607" lon="7.344103530060565"><ele>726.6666666666666</ele><time>2026-05-02T13:25:55.582Z</time></trkpt><trkpt lat="45.75092195488866" lon="7.343818917152395"><ele>727.3333333333333</ele><time>2026-05-02T13:25:56.582Z</time></trkpt><trkpt lat="45.75096215904309" lon="7.34353916987687"><ele>728.0</ele><time>2026-05-02T13:25:57.582Z</time></trkpt><trkpt lat="45.751003245225775" lon="7.34326054342939"><ele>732.3333333333333</ele><time>2026-05-02T13:25:58.579Z</time></trkpt><trkpt lat="45.75104521239267" lon="7.342980420099433"><ele>736.6666666666666</ele><time>2026-05-02T13:25:59.582Z</time></trkpt><trkpt lat="45.75108779927565" lon="7.342701373345464"><ele>741.0</ele><time>2026-05-02T13:26:00.582Z</time></trkpt><trkpt lat="45.75114665887255" lon="7.342427407869258"><ele>742.6666666666666</ele><time>2026-05-02T13:26:01.582Z</time></trkpt><trkpt lat="45.751172995735224" lon="7.34214331512344"><ele>744.3333333333333</ele><time>2026-05-02T13:26:02.582Z</time></trkpt><trkpt lat="45.751215596453356" lon="7.341864269713113"><ele>746.0</ele><time>2026-05-02T13:26:03.582Z</time></trkpt><trkpt lat="45.75125819470345" lon="7.341585240469046"><ele>747.6666666666666</ele><time>2026-05-02T13:26:04.582Z</time></trkpt><trkpt lat="45.751300794532895" lon="7.341306200879903"><ele>749.3333333333334</ele><time>2026-05-02T13:26:05.582Z</time></trkpt><trkpt lat="45.75134325578157" lon="7.341028069029571"><ele>751.0</ele><time>2026-05-02T13:26:06.579Z</time></trkpt><trkpt lat="45.75138568825459" lon="7.340748064032372"><ele>754.3333333333334</ele><time>2026-05-02T13:26:07.582Z</time></trkpt><trkpt lat="45.75142803973259" lon="7.340468901545559"><ele>757.6666666666666</ele><time>2026-05-02T13:26:08.582Z</time></trkpt><trkpt lat="45.751470625849954" lon="7.340190029170555"><ele>761.0</ele><time>2026-05-02T13:26:09.582Z</time></trkpt><trkpt lat="45.75151325973135" lon="7.3399108440160195"><ele>762.6666666666666</ele><time>2026-05-02T13:26:10.582Z</time></trkpt><trkpt lat="45.75155587460974" lon="7.3396317833013685"><ele>764.3333333333334</ele><time>2026-05-02T13:26:11.582Z</time></trkpt><trkpt lat="45.75161444597396" lon="7.339357779172197"><ele>766.0</ele><time>2026-05-02T13:26:12.581Z</time></trkpt><trkpt lat="45.7516559164817" lon="7.33907817450002"><ele>765.0</ele><time>2026-05-02T13:26:13.582Z</time></trkpt><trkpt lat="45.75169717129346" lon="7.338798640476791"><ele>764.0</ele><time>2026-05-02T13:26:14.582Z</time></trkpt><trkpt lat="45.75172156656607" lon="7.33851419009401"><ele>763.0</ele><time>2026-05-02T13:26:15.582Z</time></trkpt><trkpt lat="45.75177850505109" lon="7.338239737537141"><ele>760.0</ele><time>2026-05-02T13:26:16.581Z</time></trkpt><trkpt lat="45.75180172662762" lon="7.337954593540955"><ele>757.0</ele><time>2026-05-02T13:26:17.582Z</time></trkpt><trkpt lat="45.751856576832985" lon="7.3376791692601"><ele>754.0</ele><time>2026-05-02T13:26:18.581Z</time></trkpt><trkpt lat="45.751877319582334" lon="7.337393895537426"><ele>760.3333333333334</ele><time>2026-05-02T13:26:19.581Z</time></trkpt><trkpt lat="45.751913221808714" lon="7.337112767640085"><ele>766.6666666666667</ele><time>2026-05-02T13:26:20.582Z</time></trkpt><trkpt lat="45.75194741042823" lon="7.336832304415009"><ele>773.0</ele><time>2026-05-02T13:26:21.579Z</time></trkpt><trkpt lat="45.75198130030287" lon="7.336549956436848"><ele>773.6666666666667</ele><time>2026-05-02T13:26:22.582Z</time></trkpt><trkpt lat="45.75203027497622" lon="7.33627189460446"><ele>774.3333333333333</ele><time>2026-05-02T13:26:23.582Z</time></trkpt><trkpt lat="45.7520609052757" lon="7.335989363704665"><ele>775.0</ele><time>2026-05-02T13:26:24.582Z</time></trkpt><trkpt lat="45.752072528743646" lon="7.335703097387717"><ele>775.0</ele><time>2026-05-02T13:26:25.582Z</time></trkpt><trkpt lat="45.75211423016871" lon="7.335422638170602"><ele>775.0</ele><time>2026-05-02T13:26:26.582Z</time></trkpt><trkpt lat="45.75213662668532" lon="7.3351383582862395"><ele>775.0</ele><time>2026-05-02T13:26:27.582Z</time></trkpt><trkpt lat="45.75215599923334" lon="7.334854559951739"><ele>773.0</ele><time>2026-05-02T13:26:28.579Z</time></trkpt><trkpt lat="45.752172656887765" lon="7.334569117735731"><ele>771.0</ele><time>2026-05-02T13:26:29.582Z</time></trkpt><trkpt lat="45.75217064465771" lon="7.334282304095245"><ele>769.0</ele><time>2026-05-02T13:26:30.582Z</time></trkpt><trkpt lat="45.75218397839025" lon="7.333997255672833"><ele>764.6666666666666</ele><time>2026-05-02T13:26:31.582Z</time></trkpt><trkpt lat="45.75221224186559" lon="7.333713519801625"><ele>760.3333333333333</ele><time>2026-05-02T13:26:32.582Z</time></trkpt><trkpt lat="45.75220442793339" lon="7.333427783455152"><ele>756.0</ele><time>2026-05-02T13:26:33.579Z</time></trkpt><trkpt lat="45.75221052538951" lon="7.333141412090383"><ele>752.0</ele><time>2026-05-02T13:26:34.582Z</time></trkpt><trkpt lat="45.75223006638717" lon="7.332855958618092"><ele>748.0</ele><time>2026-05-02T13:26:35.582Z</time></trkpt><trkpt lat="45.75221356769648" lon="7.332570279293632"><ele>744.0</ele><time>2026-05-02T13:26:36.582Z</time></trkpt><trkpt lat="45.752228116506544" lon="7.332285140089043"><ele>741.5</ele><time>2026-05-02T13:26:37.579Z</time></trkpt><trkpt lat="45.75220742660955" lon="7.331999536603522"><ele>739.0</ele><time>2026-05-02T13:26:38.581Z</time></trkpt><trkpt lat="45.7516156738498" lon="7.32336121750318"><ele>714.0</ele><time>2026-05-02T13:26:40Z</time></trkpt><trkpt lat="45.75143903707619" lon="7.323205749845451"><ele>689.0</ele><time>2026-05-02T13:26:41Z</time></trkpt><trkpt lat="45.75136175381828" lon="7.322909775341827"><ele>664.0</ele><time>2026-05-02T13:26:42Z</time></trkpt><trkpt lat="45.75131541916632" lon="7.322594664823819"><ele>649.5</ele><time>2026-05-02T13:26:43Z</time></trkpt><trkpt lat="45.75127482026098" lon="7.322261307786723"><ele>635.0</ele><time>2026-05-02T13:26:44Z</time></trkpt><trkpt lat="45.75124542807401" lon="7.321931787071304"><ele>635.0</ele><time>2026-05-02T13:26:45Z</time></trkpt><trkpt lat="45.751203611765945" lon="7.321584236642013"><ele>635.0</ele><time>2026-05-02T13:26:46Z</time></trkpt><trkpt lat="45.75117221275082" lon="7.321249678997283"><ele>648.5</ele><time>2026-05-02T13:26:47Z</time></trkpt><trkpt lat="45.751136592822334" lon="7.3209203496438136"><ele>662.0</ele><time>2026-05-02T13:26:48Z</time></trkpt><trkpt lat="45.75109863237918" lon="7.320593700972844"><ele>671.0</ele><time>2026-05-02T13:26:49Z</time></trkpt><trkpt lat="45.75106455882565" lon="7.320264248018417"><ele>680.0</ele><time>2026-05-02T13:26:50Z</time></trkpt><trkpt lat="45.75102824392469" lon="7.319934776005162"><ele>684.0</ele><time>2026-05-02T13:26:51Z</time></trkpt><trkpt lat="45.75098712354894" lon="7.319602860748218"><ele>688.0</ele><time>2026-05-02T13:26:52Z</time></trkpt><trkpt lat="45.7509449054249" lon="7.319268650317518"><ele>688.0</ele><time>2026-05-02T13:26:53Z</time></trkpt><trkpt lat="45.75090537594531" lon="7.318939327669334"><ele>688.0</ele><time>2026-05-02T13:26:54Z</time></trkpt><trkpt lat="45.750867695503885" lon="7.318606998024736"><ele>692.0</ele><time>2026-05-02T13:26:55Z</time></trkpt><trkpt lat="45.75082783693151" lon="7.31827738157235"><ele>696.0</ele><time>2026-05-02T13:26:56Z</time></trkpt><trkpt lat="45.75078877833629" lon="7.317945769333414"><ele>702.0</ele><time>2026-05-02T13:26:57Z</time></trkpt><trkpt lat="45.7507490283484" lon="7.317609919245291"><ele>708.0</ele><time>2026-05-02T13:26:58.018Z</time></trkpt><trkpt lat="45.75070994135879" lon="7.317278880564292"><ele>717.0</ele><time>2026-05-02T13:26:59.018Z</time></trkpt><trkpt lat="45.75067085349883" lon="7.31694850593651"><ele>726.0</ele><time>2026-05-02T13:27:00.018Z</time></trkpt><trkpt lat="45.75063168242899" lon="7.31661810401826"><ele>736.5</ele><time>2026-05-02T13:27:01.02Z</time></trkpt><trkpt lat="45.75059260612261" lon="7.316287760298652"><ele>747.0</ele><time>2026-05-02T13:27:02.02Z</time></trkpt><trkpt lat="45.750446716834766" lon="7.315103694300776"><ele>758.0</ele><time>2026-05-02T13:27:05.581Z</time></trkpt><trkpt lat="45.75045050749706" lon="7.314769836079067"><ele>769.0</ele><time>2026-05-02T13:27:06.579Z</time></trkpt><trkpt lat="45.750437719065616" lon="7.314433588007425"><ele>785.5</ele><time>2026-05-02T13:27:07.582Z</time></trkpt><trkpt lat="45.750471736485835" lon="7.314101749248711"><ele>802.0</ele><time>2026-05-02T13:27:08.582Z</time></trkpt><trkpt lat="45.75050575065536" lon="7.313772296808133"><ele>819.0</ele><time>2026-05-02T13:27:09.581Z</time></trkpt><trkpt lat="45.750537597181435" lon="7.313439821119674"><ele>836.0</ele><time>2026-05-02T13:27:10.582Z</time></trkpt><trkpt lat="45.75059872459667" lon="7.31311621525551"><ele>852.0</ele><time>2026-05-02T13:27:11.582Z</time></trkpt><trkpt lat="45.75067761651097" lon="7.312801820999268"><ele>868.0</ele><time>2026-05-02T13:27:12.579Z</time></trkpt><trkpt lat="45.750772487833956" lon="7.312494079079234"><ele>880.5</ele><time>2026-05-02T13:27:13.582Z</time></trkpt><trkpt lat="45.7508782836728" lon="7.312194839208228"><ele>893.0</ele><time>2026-05-02T13:27:14.582Z</time></trkpt><trkpt lat="45.751010001031375" lon="7.31191701438428"><ele>902.0</ele><time>2026-05-02T13:27:15.582Z</time></trkpt><trkpt lat="45.751128223166056" lon="7.311628524687232"><ele>911.0</ele><time>2026-05-02T13:27:16.581Z</time></trkpt><trkpt lat="45.751287930190216" lon="7.311384004686075"><ele>922.5</ele><time>2026-05-02T13:27:17.579Z</time></trkpt><trkpt lat="45.75143332147636" lon="7.311119139214265"><ele>934.0</ele><time>2026-05-02T13:27:18.582Z</time></trkpt><trkpt lat="45.75160048187254" lon="7.310884036403325"><ele>934.0</ele><time>2026-05-02T13:27:19.582Z</time></trkpt><trkpt lat="45.751790139609085" lon="7.310688019030627"><ele>934.0</ele><time>2026-05-02T13:27:20.579Z</time></trkpt><trkpt lat="45.75196638385409" lon="7.310464701108415"><ele>946.5</ele><time>2026-05-02T13:27:21.582Z</time></trkpt><trkpt lat="45.75216230688865" lon="7.310282343381588"><ele>959.0</ele><time>2026-05-02T13:27:22.579Z</time></trkpt><trkpt lat="45.75237493845055" lon="7.310139833586847"><ele>959.0</ele><time>2026-05-02T13:27:23.579Z</time></trkpt><trkpt lat="45.75257884431212" lon="7.309971691677712"><ele>959.0</ele><time>2026-05-02T13:27:24.582Z</time></trkpt><trkpt lat="45.75280127137137" lon="7.30986824274852"><ele>961.5</ele><time>2026-05-02T13:27:25.58Z</time></trkpt><trkpt lat="45.75302344388083" lon="7.30976458878724"><ele>964.0</ele><time>2026-05-02T13:27:26.58Z</time></trkpt><trkpt lat="45.753248886183044" lon="7.309679935272574"><ele>964.0</ele><time>2026-05-02T13:27:27.579Z</time></trkpt><trkpt lat="45.75347935061434" lon="7.309618252693068"><ele>964.0</ele><time>2026-05-02T13:27:28.582Z</time></trkpt><trkpt lat="45.75370881935716" lon="7.309554314017171"><ele>956.0</ele><time>2026-05-02T13:27:29.579Z</time></trkpt><trkpt lat="45.75417865254754" lon="7.309538766520706"><ele>954.5</ele><time>2026-05-02T13:27:31.582Z</time></trkpt><trkpt lat="45.75441264125246" lon="7.3095630278566865"><ele>953.0</ele><time>2026-05-02T13:27:32.582Z</time></trkpt><trkpt lat="45.75464433849291" lon="7.309615743870672"><ele>953.0</ele><time>2026-05-02T13:27:33.582Z</time></trkpt><trkpt lat="45.75487412256164" lon="7.309683577473424"><ele>953.0</ele><time>2026-05-02T13:27:34.582Z</time></trkpt><trkpt lat="45.75509612771543" lon="7.309792789018867"><ele>949.0</ele><time>2026-05-02T13:27:35.582Z</time></trkpt><trkpt lat="45.75532159836304" lon="7.309882912443445"><ele>945.0</ele><time>2026-05-02T13:27:36.582Z</time></trkpt><trkpt lat="45.75553749340045" lon="7.310014030310429"><ele>945.0</ele><time>2026-05-02T13:27:37.581Z</time></trkpt><trkpt lat="45.75574808087514" lon="7.3101607818967835"><ele>945.0</ele><time>2026-05-02T13:27:38.58Z</time></trkpt><trkpt lat="45.75594239777319" lon="7.310348519904456"><ele>943.5</ele><time>2026-05-02T13:27:39.579Z</time></trkpt><trkpt lat="45.75613760550865" lon="7.310533944378008"><ele>942.0</ele><time>2026-05-02T13:27:40.582Z</time></trkpt><trkpt lat="45.75633711589137" lon="7.310711139092089"><ele>933.0</ele><time>2026-05-02T13:27:41.582Z</time></trkpt><trkpt lat="45.75652576067207" lon="7.310910597784839"><ele>924.0</ele><time>2026-05-02T13:27:42.582Z</time></trkpt><trkpt lat="45.756714419872935" lon="7.311109975138885"><ele>915.5</ele><time>2026-05-02T13:27:43.582Z</time></trkpt><trkpt lat="45.75690300230288" lon="7.311309160777108"><ele>907.0</ele><time>2026-05-02T13:27:44.582Z</time></trkpt><trkpt lat="45.75709180381398" lon="7.311508577814521"><ele>896.0</ele><time>2026-05-02T13:27:45.582Z</time></trkpt><trkpt lat="45.75728069948938" lon="7.311707512617146"><ele>885.0</ele><time>2026-05-02T13:27:46.582Z</time></trkpt><trkpt lat="45.75746907632315" lon="7.311905545036206"><ele>885.0</ele><time>2026-05-02T13:27:47.579Z</time></trkpt><trkpt lat="45.75765873764714" lon="7.312104928541752"><ele>885.0</ele><time>2026-05-02T13:27:48.582Z</time></trkpt><trkpt lat="45.757836902192565" lon="7.312324030383376"><ele>866.0</ele><time>2026-05-02T13:27:49.581Z</time></trkpt><trkpt lat="45.75803524357727" lon="7.312505310224766"><ele>847.0</ele><time>2026-05-02T13:27:50.582Z</time></trkpt><trkpt lat="45.7582161258959" lon="7.31272031019719"><ele>847.0</ele><time>2026-05-02T13:27:51.582Z</time></trkpt><trkpt lat="45.75841619111126" lon="7.312895159912793"><ele>847.0</ele><time>2026-05-02T13:27:52.579Z</time></trkpt><trkpt lat="45.75861493729844" lon="7.313075420722182"><ele>822.0</ele><time>2026-05-02T13:27:53.582Z</time></trkpt><trkpt lat="45.75880424076235" lon="7.313275013213301"><ele>797.0</ele><time>2026-05-02T13:27:54.582Z</time></trkpt><trkpt lat="45.75901323808515" lon="7.313428530299088"><ele>797.0</ele><time>2026-05-02T13:27:55.58Z</time></trkpt><trkpt lat="45.75922089696617" lon="7.31358382273152"><ele>797.0</ele><time>2026-05-02T13:27:56.579Z</time></trkpt><trkpt lat="45.75942887459257" lon="7.313739353529618"><ele>792.5</ele><time>2026-05-02T13:27:57.579Z</time></trkpt><trkpt lat="45.7596461527889" lon="7.313868480668225"><ele>788.0</ele><time>2026-05-02T13:27:58.582Z</time></trkpt><trkpt lat="45.75985764339797" lon="7.314015380614956"><ele>776.5</ele><time>2026-05-02T13:27:59.579Z</time></trkpt><trkpt lat="45.76008222648388" lon="7.314120127187836"><ele>765.0</ele><time>2026-05-02T13:28:00.582Z</time></trkpt><trkpt lat="45.760313666987884" lon="7.314183975276508"><ele>765.0</ele><time>2026-05-02T13:28:01.582Z</time></trkpt><trkpt lat="45.76054299254636" lon="7.314248708133791"><ele>765.0</ele><time>2026-05-02T13:28:02.579Z</time></trkpt><trkpt lat="45.76077522602645" lon="7.314313239837646"><ele>765.0</ele><time>2026-05-02T13:28:03.582Z</time></trkpt><trkpt lat="45.761010887377374" lon="7.314309650615919"><ele>765.0</ele><time>2026-05-02T13:28:04.582Z</time></trkpt><trkpt lat="45.761245526250484" lon="7.3143081767491225"><ele>770.0</ele><time>2026-05-02T13:28:05.582Z</time></trkpt><trkpt lat="45.761714828023806" lon="7.314262509044112"><ele>768.5</ele><time>2026-05-02T13:28:07.582Z</time></trkpt><trkpt lat="45.761944850969975" lon="7.314190280973256"><ele>767.0</ele><time>2026-05-02T13:28:08.581Z</time></trkpt><trkpt lat="45.762168397028915" lon="7.314086045333494"><ele>767.0</ele><time>2026-05-02T13:28:09.579Z</time></trkpt><trkpt lat="45.76238706335979" lon="7.313958415077361"><ele>767.0</ele><time>2026-05-02T13:28:10.582Z</time></trkpt><trkpt lat="45.7626112694483" lon="7.313857914405251"><ele>772.0</ele><time>2026-05-02T13:28:11.58Z</time></trkpt><trkpt lat="45.76299710203499" lon="7.313471529639617"><ele>772.0</ele><time>2026-05-02T13:28:22Z</time></trkpt><trkpt lat="45.76317557710164" lon="7.313333213164371"><ele>772.0</ele><time>2026-05-02T13:28:23Z</time></trkpt><trkpt lat="45.763384406770754" lon="7.3132528785671935"><ele>772.0</ele><time>2026-05-02T13:28:24Z</time></trkpt><trkpt lat="45.76358348994488" lon="7.313132420264532"><ele>774.0</ele><time>2026-05-02T13:28:25Z</time></trkpt><trkpt lat="45.763748111917096" lon="7.312901811188827"><ele>776.0</ele><time>2026-05-02T13:28:26Z</time></trkpt><trkpt lat="45.763935721258306" lon="7.312725703438132"><ele>776.0</ele><time>2026-05-02T13:28:27Z</time></trkpt><trkpt lat="45.76413443008694" lon="7.312502556748421"><ele>776.0</ele><time>2026-05-02T13:28:28Z</time></trkpt><trkpt lat="45.764315441597105" lon="7.312337071916649"><ele>780.3333333333334</ele><time>2026-05-02T13:28:29Z</time></trkpt><trkpt lat="45.764493401712365" lon="7.312172968844503"><ele>784.6666666666667</ele><time>2026-05-02T13:28:30Z</time></trkpt><trkpt lat="45.764677962888044" lon="7.31206783065946"><ele>789.0</ele><time>2026-05-02T13:28:31Z</time></trkpt><trkpt lat="45.76485864409735" lon="7.311979555304103"><ele>789.0</ele><time>2026-05-02T13:28:32Z</time></trkpt><trkpt lat="45.76504196115265" lon="7.311923293348787"><ele>789.0</ele><time>2026-05-02T13:28:33Z</time></trkpt><trkpt lat="45.76520081620435" lon="7.3118876482217345"><ele>789.0</ele><time>2026-05-02T13:28:34Z</time></trkpt><trkpt lat="45.765349559550984" lon="7.31184544075748"><ele>788.5</ele><time>2026-05-02T13:28:35Z</time></trkpt><trkpt lat="45.765492185325236" lon="7.311845258138354"><ele>788.0</ele><time>2026-05-02T13:28:36Z</time></trkpt><trkpt lat="45.76562129129586" lon="7.311849790412048"><ele>787.5</ele><time>2026-05-02T13:28:37Z</time></trkpt><trkpt lat="45.765744571781994" lon="7.311846727267125"><ele>787.0</ele><time>2026-05-02T13:28:38Z</time></trkpt><trkpt lat="45.76586906749574" lon="7.311832898203228"><ele>787.0</ele><time>2026-05-02T13:28:39Z</time></trkpt><trkpt lat="45.7659979472111" lon="7.3118050122543226"><ele>787.0</ele><time>2026-05-02T13:28:40Z</time></trkpt><trkpt lat="45.76613249426623" lon="7.311756313175748"><ele>787.0</ele><time>2026-05-02T13:28:41Z</time></trkpt><trkpt lat="45.76625945121199" lon="7.311698773824876"><ele>787.0</ele><time>2026-05-02T13:28:42Z</time></trkpt><trkpt lat="45.76637614339738" lon="7.311646597949405"><ele>786.4999999999999</ele><time>2026-05-02T13:28:43Z</time></trkpt><trkpt lat="45.76647790218713" lon="7.311600768064322"><ele>786.0</ele><time>2026-05-02T13:28:44Z</time></trkpt><trkpt lat="45.76657385550103" lon="7.311601931819442"><ele>785.5</ele><time>2026-05-02T13:28:45Z</time></trkpt><trkpt lat="45.76663241709259" lon="7.311703866403103"><ele>785.0</ele><time>2026-05-02T13:28:46Z</time></trkpt><trkpt lat="45.76668531199898" lon="7.311754346348246"><ele>784.4999999999999</ele><time>2026-05-02T13:28:47Z</time></trkpt><trkpt lat="45.766700163543774" lon="7.311874448759812"><ele>784.0</ele><time>2026-05-02T13:28:48Z</time></trkpt><trkpt lat="45.76676323291402" lon="7.311961481723744"><ele>784.0</ele><time>2026-05-02T13:28:49Z</time></trkpt><trkpt lat="45.766838440227325" lon="7.311976818608909"><ele>784.0</ele><time>2026-05-02T13:28:50Z</time></trkpt><trkpt lat="45.76692664248657" lon="7.3119846433191595"><ele>784.0</ele><time>2026-05-02T13:28:51Z</time></trkpt><trkpt lat="45.76702620122764" lon="7.311970324281511"><ele>784.0</ele><time>2026-05-02T13:28:52Z</time></trkpt><trkpt lat="45.76713035599468" lon="7.311936538635376"><ele>784.0</ele><time>2026-05-02T13:28:53Z</time></trkpt><trkpt lat="45.76723733764156" lon="7.311899752078619"><ele>783.0</ele><time>2026-05-02T13:28:54Z</time></trkpt><trkpt lat="45.76734486253547" lon="7.311850389775384"><ele>782.0</ele><time>2026-05-02T13:28:55Z</time></trkpt><trkpt lat="45.767448913264424" lon="7.311781874649713"><ele>781.0</ele><time>2026-05-02T13:28:56Z</time></trkpt><trkpt lat="45.76755498971973" lon="7.311702424964124"><ele>780.0</ele><time>2026-05-02T13:28:57Z</time></trkpt><trkpt lat="45.76765515214062" lon="7.31162487283833"><ele>778.6</ele><time>2026-05-02T13:28:58Z</time></trkpt><trkpt lat="45.76775181530267" lon="7.311565414346326"><ele>777.2</ele><time>2026-05-02T13:28:59Z</time></trkpt><trkpt lat="45.76783845523886" lon="7.311491271747387"><ele>775.8</ele><time>2026-05-02T13:29:00Z</time></trkpt><trkpt lat="45.76793302723949" lon="7.311424199996699"><ele>774.4</ele><time>2026-05-02T13:29:01Z</time></trkpt><trkpt lat="45.768029194242715" lon="7.311361078515151"><ele>773.0</ele><time>2026-05-02T13:29:02Z</time></trkpt><trkpt lat="45.768132621440245" lon="7.311301309361517"><ele>773.5</ele><time>2026-05-02T13:29:03Z</time></trkpt><trkpt lat="45.76824098699243" lon="7.311235498382262"><ele>774.0</ele><time>2026-05-02T13:29:04Z</time></trkpt><trkpt lat="45.76834322610744" lon="7.31117657519813"><ele>774.5</ele><time>2026-05-02T13:29:05Z</time></trkpt><trkpt lat="45.76845138704092" lon="7.31112264667483"><ele>775.0</ele><time>2026-05-02T13:29:06Z</time></trkpt><trkpt lat="45.768558784048196" lon="7.311058522070341"><ele>775.0</ele><time>2026-05-02T13:29:07Z</time></trkpt><trkpt lat="45.76866842075372" lon="7.310990241175806"><ele>775.0</ele><time>2026-05-02T13:29:08Z</time></trkpt><trkpt lat="45.76878159401413" lon="7.310923187750763"><ele>775.0</ele><time>2026-05-02T13:29:09Z</time></trkpt><trkpt lat="45.76889244061193" lon="7.310861565510551"><ele>775.0</ele><time>2026-05-02T13:29:10Z</time></trkpt><trkpt lat="45.768988444438165" lon="7.31079900990754"><ele>775.0</ele><time>2026-05-02T13:29:11Z</time></trkpt><trkpt lat="45.76910159360849" lon="7.310736038591393"><ele>775.0</ele><time>2026-05-02T13:29:12Z</time></trkpt><trkpt lat="45.769214806831386" lon="7.310667884026679"><ele>775.0</ele><time>2026-05-02T13:29:13Z</time></trkpt><trkpt lat="45.76933258007199" lon="7.310598079410675"><ele>775.0</ele><time>2026-05-02T13:29:14Z</time></trkpt><trkpt lat="45.769446700764384" lon="7.310519073827813"><ele>777.25</ele><time>2026-05-02T13:29:15Z</time></trkpt><trkpt lat="45.76956481307628" lon="7.310433398328208"><ele>779.5</ele><time>2026-05-02T13:29:16Z</time></trkpt><trkpt lat="45.76966871902318" lon="7.310342897377709"><ele>781.75</ele><time>2026-05-02T13:29:17Z</time></trkpt><trkpt lat="45.76977999598759" lon="7.310259887001698"><ele>784.0</ele><time>2026-05-02T13:29:18Z</time></trkpt><trkpt lat="45.76988174885004" lon="7.3101934237400075"><ele>784.0</ele><time>2026-05-02T13:29:19Z</time></trkpt><trkpt lat="45.76999857346634" lon="7.310135616596205"><ele>784.0</ele><time>2026-05-02T13:29:20Z</time></trkpt><trkpt lat="45.77011932549111" lon="7.310076449369272"><ele>784.0</ele><time>2026-05-02T13:29:21Z</time></trkpt><trkpt lat="45.770226798717374" lon="7.310026109093512"><ele>784.0</ele><time>2026-05-02T13:29:22Z</time></trkpt><trkpt lat="45.770337520963785" lon="7.309981961046081"><ele>783.2</ele><time>2026-05-02T13:29:23Z</time></trkpt><trkpt lat="45.770451301056916" lon="7.309971558015703"><ele>782.4000000000001</ele><time>2026-05-02T13:29:24Z</time></trkpt><trkpt lat="45.7705616369397" lon="7.309988359596294"><ele>781.6</ele><time>2026-05-02T13:29:25Z</time></trkpt><trkpt lat="45.77066301896825" lon="7.310041284038626"><ele>780.8</ele><time>2026-05-02T13:29:26Z</time></trkpt><trkpt lat="45.77075811126726" lon="7.310129127703757"><ele>780.0</ele><time>2026-05-02T13:29:27Z</time></trkpt><trkpt lat="45.77084979848294" lon="7.310233856640755"><ele>780.0</ele><time>2026-05-02T13:29:28Z</time></trkpt><trkpt lat="45.770931031562554" lon="7.310354127140783"><ele>780.0</ele><time>2026-05-02T13:29:29Z</time></trkpt><trkpt lat="45.7710110808989" lon="7.310487632454452"><ele>780.0</ele><time>2026-05-02T13:29:30Z</time></trkpt><trkpt lat="45.771077722500124" lon="7.3106293864884755"><ele>780.0</ele><time>2026-05-02T13:29:31Z</time></trkpt><trkpt lat="45.77114183011978" lon="7.310778511472135"><ele>779.0</ele><time>2026-05-02T13:29:32Z</time></trkpt><trkpt lat="45.77119990240356" lon="7.310909719831392"><ele>778.0</ele><time>2026-05-02T13:29:33Z</time></trkpt><trkpt lat="45.77127557477845" lon="7.311026729509397"><ele>777.0</ele><time>2026-05-02T13:29:34Z</time></trkpt><trkpt lat="45.771364117731224" lon="7.311107151075156"><ele>776.0</ele><time>2026-05-02T13:29:35Z</time></trkpt><trkpt lat="45.771473489150274" lon="7.311151597653456"><ele>775.0</ele><time>2026-05-02T13:29:36Z</time></trkpt><trkpt lat="45.771585777179446" lon="7.31115294551504"><ele>775.0</ele><time>2026-05-02T13:29:37Z</time></trkpt><trkpt lat="45.77170075627249" lon="7.311142071606443"><ele>775.0</ele><time>2026-05-02T13:29:38Z</time></trkpt><trkpt lat="45.771811766507064" lon="7.311123156884661"><ele>775.0</ele><time>2026-05-02T13:29:39Z</time></trkpt><trkpt lat="45.77192213421973" lon="7.311098533695029"><ele>775.0</ele><time>2026-05-02T13:29:40Z</time></trkpt><trkpt lat="45.77203587956022" lon="7.311080711418541"><ele>775.25</ele><time>2026-05-02T13:29:41Z</time></trkpt><trkpt lat="45.77214862573096" lon="7.311074323753869"><ele>775.5</ele><time>2026-05-02T13:29:42Z</time></trkpt><trkpt lat="45.772274410018596" lon="7.311077100860107"><ele>775.75</ele><time>2026-05-02T13:29:43Z</time></trkpt><trkpt lat="45.772395469381856" lon="7.311081597673421"><ele>776.0</ele><time>2026-05-02T13:29:44Z</time></trkpt><trkpt lat="45.77252292945497" lon="7.311075913010539"><ele>776.0</ele><time>2026-05-02T13:29:45Z</time></trkpt><trkpt lat="45.772649193997715" lon="7.311062557267037"><ele>776.0</ele><time>2026-05-02T13:29:46Z</time></trkpt><trkpt lat="45.772779711901244" lon="7.311046520388906"><ele>776.0</ele><time>2026-05-02T13:29:47Z</time></trkpt><trkpt lat="45.772905253732354" lon="7.3110309694483195"><ele>776.0</ele><time>2026-05-02T13:29:48Z</time></trkpt><trkpt lat="45.773029987318715" lon="7.311003670028521"><ele>775.75</ele><time>2026-05-02T13:29:49Z</time></trkpt><trkpt lat="45.77316888459842" lon="7.310962580072778"><ele>775.5</ele><time>2026-05-02T13:29:50Z</time></trkpt><trkpt lat="45.77330176846369" lon="7.3109173612651945"><ele>775.25</ele><time>2026-05-02T13:29:51Z</time></trkpt><trkpt lat="45.7734370560357" lon="7.310858360197656"><ele>775.0</ele><time>2026-05-02T13:29:52Z</time></trkpt><trkpt lat="45.773581295381526" lon="7.31079316014618"><ele>771.6666666666666</ele><time>2026-05-02T13:29:53Z</time></trkpt><trkpt lat="45.77373667143529" lon="7.310730618646669"><ele>768.3333333333333</ele><time>2026-05-02T13:29:54Z</time></trkpt><trkpt lat="45.773897003111216" lon="7.310677212154734"><ele>765.0</ele><time>2026-05-02T13:29:55Z</time></trkpt><trkpt lat="45.77406182684458" lon="7.310617340163192"><ele>768.3333333333333</ele><time>2026-05-02T13:29:56Z</time></trkpt><trkpt lat="45.774231001053565" lon="7.3105482916520765"><ele>771.6666666666666</ele><time>2026-05-02T13:29:57Z</time></trkpt><trkpt lat="45.774392540236214" lon="7.310489549276488"><ele>775.0</ele><time>2026-05-02T13:29:58Z</time></trkpt><trkpt lat="45.774554701815084" lon="7.310423468248483"><ele>775.0</ele><time>2026-05-02T13:29:59Z</time></trkpt><trkpt lat="45.77471582150383" lon="7.3103473639404175"><ele>775.0</ele><time>2026-05-02T13:30:00Z</time></trkpt><trkpt lat="45.77487739149053" lon="7.310236771599192"><ele>775.0</ele><time>2026-05-02T13:30:01Z</time></trkpt><trkpt lat="45.77502357565924" lon="7.310068427128189"><ele>775.0</ele><time>2026-05-02T13:30:02Z</time></trkpt><trkpt lat="45.77515168328215" lon="7.309854784140423"><ele>775.0</ele><time>2026-05-02T13:30:03Z</time></trkpt><trkpt lat="45.775271821182315" lon="7.309646405812541"><ele>775.0</ele><time>2026-05-02T13:30:04Z</time></trkpt><trkpt lat="45.77539651792129" lon="7.309467349923753"><ele>774.0</ele><time>2026-05-02T13:30:05Z</time></trkpt><trkpt lat="45.77552828449744" lon="7.309325226820013"><ele>773.0</ele><time>2026-05-02T13:30:06Z</time></trkpt><trkpt lat="45.775661362586874" lon="7.309216282437376"><ele>772.0</ele><time>2026-05-02T13:30:07Z</time></trkpt><trkpt lat="45.77577858727085" lon="7.309084137380571"><ele>772.0</ele><time>2026-05-02T13:30:08Z</time></trkpt><trkpt lat="45.77584554137459" lon="7.308934270387637"><ele>772.0</ele><time>2026-05-02T13:30:09Z</time></trkpt><trkpt lat="45.77590204084326" lon="7.3087742758784495"><ele>772.0</ele><time>2026-05-02T13:30:10Z</time></trkpt><trkpt lat="45.77592038052794" lon="7.308627154430229"><ele>772.0</ele><time>2026-05-02T13:30:11Z</time></trkpt><trkpt lat="45.77592237311313" lon="7.30850517169634"><ele>772.0</ele><time>2026-05-02T13:30:12Z</time></trkpt><trkpt lat="45.77597368180788" lon="7.308421258450581"><ele>773.0</ele><time>2026-05-02T13:30:13Z</time></trkpt><trkpt lat="45.77605250744592" lon="7.308397806425537"><ele>774.0</ele><time>2026-05-02T13:30:14Z</time></trkpt><trkpt lat="45.77615190834792" lon="7.308430222928876"><ele>775.0</ele><time>2026-05-02T13:30:15Z</time></trkpt><trkpt lat="45.7762940414343" lon="7.308462373574824"><ele>776.0</ele><time>2026-05-02T13:30:16Z</time></trkpt><trkpt lat="45.776438082872616" lon="7.308469974441125"><ele>776.0</ele><time>2026-05-02T13:30:17Z</time></trkpt><trkpt lat="45.77660259101081" lon="7.308423713816325"><ele>776.0</ele><time>2026-05-02T13:30:18Z</time></trkpt><trkpt lat="45.77676277507998" lon="7.308352839695725"><ele>776.0</ele><time>2026-05-02T13:30:19Z</time></trkpt><trkpt lat="45.77692337516252" lon="7.308287553417041"><ele>773.0</ele><time>2026-05-02T13:30:20Z</time></trkpt><trkpt lat="45.777055868683796" lon="7.308216609543193"><ele>770.0</ele><time>2026-05-02T13:30:21Z</time></trkpt><trkpt lat="45.7771713937549" lon="7.308098063782115"><ele>767.0</ele><time>2026-05-02T13:30:22Z</time></trkpt><trkpt lat="45.777262215043876" lon="7.30792723225207"><ele>764.0</ele><time>2026-05-02T13:30:23Z</time></trkpt><trkpt lat="45.777327420127605" lon="7.307735140175546"><ele>764.0</ele><time>2026-05-02T13:30:24Z</time></trkpt><trkpt lat="45.77735380540204" lon="7.307519199758737"><ele>764.0</ele><time>2026-05-02T13:30:25Z</time></trkpt><trkpt lat="45.77736157118237" lon="7.307289274428686"><ele>764.0</ele><time>2026-05-02T13:30:26Z</time></trkpt><trkpt lat="45.77737159893507" lon="7.307053085086621"><ele>767.0</ele><time>2026-05-02T13:30:27Z</time></trkpt><trkpt lat="45.77739289846025" lon="7.3068230308363775"><ele>770.0</ele><time>2026-05-02T13:30:28Z</time></trkpt><trkpt lat="45.77742909136173" lon="7.306600357243895"><ele>773.0</ele><time>2026-05-02T13:30:29Z</time></trkpt><trkpt lat="45.7774990097835" lon="7.306392331808655"><ele>769.3333333333334</ele><time>2026-05-02T13:30:30Z</time></trkpt><trkpt lat="45.777595898662035" lon="7.306204403727017"><ele>765.6666666666667</ele><time>2026-05-02T13:30:31Z</time></trkpt><trkpt lat="45.77770175087427" lon="7.306020601767589"><ele>762.0</ele><time>2026-05-02T13:30:32Z</time></trkpt><trkpt lat="45.77780639144459" lon="7.3058402496741195"><ele>762.0</ele><time>2026-05-02T13:30:33Z</time></trkpt><trkpt lat="45.77791936066313" lon="7.305666541198067"><ele>762.0</ele><time>2026-05-02T13:30:34Z</time></trkpt><trkpt lat="45.77804354364335" lon="7.3055043035877825"><ele>762.0</ele><time>2026-05-02T13:30:35Z</time></trkpt><trkpt lat="45.778169544679535" lon="7.305351529898194"><ele>763.6666666666666</ele><time>2026-05-02T13:30:36Z</time></trkpt><trkpt lat="45.7783110111025" lon="7.305230090622111"><ele>765.3333333333333</ele><time>2026-05-02T13:30:37Z</time></trkpt><trkpt lat="45.7784570577274" lon="7.30514606327362"><ele>767.0</ele><time>2026-05-02T13:30:38Z</time></trkpt><trkpt lat="45.778604084807895" lon="7.305096119690077"><ele>767.0</ele><time>2026-05-02T13:30:39Z</time></trkpt><trkpt lat="45.778767718483024" lon="7.305074383207204"><ele>767.0</ele><time>2026-05-02T13:30:40Z</time></trkpt><trkpt lat="45.77893814429368" lon="7.305057111380127"><ele>767.0</ele><time>2026-05-02T13:30:41Z</time></trkpt><trkpt lat="45.77909967228323" lon="7.305044179562206"><ele>767.0</ele><time>2026-05-02T13:30:42Z</time></trkpt><trkpt lat="45.779264645395564" lon="7.305023102093243"><ele>767.0</ele><time>2026-05-02T13:30:43Z</time></trkpt><trkpt lat="45.77943275966531" lon="7.305005055199766"><ele>767.0</ele><time>2026-05-02T13:30:44Z</time></trkpt><trkpt lat="45.77959159830163" lon="7.304980854336789"><ele>770.3333333333333</ele><time>2026-05-02T13:30:45Z</time></trkpt><trkpt lat="45.77974756140656" lon="7.304955782026111"><ele>773.6666666666666</ele><time>2026-05-02T13:30:46Z</time></trkpt><trkpt lat="45.779907331993016" lon="7.304934250686737"><ele>777.0</ele><time>2026-05-02T13:30:47Z</time></trkpt><trkpt lat="45.78005577839117" lon="7.304912120424769"><ele>778.5</ele><time>2026-05-02T13:30:48Z</time></trkpt><trkpt lat="45.780194283150806" lon="7.304905489595494"><ele>780.0</ele><time>2026-05-02T13:30:49Z</time></trkpt><trkpt lat="45.780321991664735" lon="7.304941104258008"><ele>781.5</ele><time>2026-05-02T13:30:50Z</time></trkpt><trkpt lat="45.78044748858616" lon="7.305026954966602"><ele>783.0</ele><time>2026-05-02T13:30:51Z</time></trkpt><trkpt lat="45.78056655146585" lon="7.305139874653089"><ele>783.0</ele><time>2026-05-02T13:30:52Z</time></trkpt><trkpt lat="45.78067409023885" lon="7.305229450714245"><ele>783.0</ele><time>2026-05-02T13:30:53Z</time></trkpt><trkpt lat="45.78079074314657" lon="7.305268643108091"><ele>783.0</ele><time>2026-05-02T13:30:54Z</time></trkpt><trkpt lat="45.780912378851596" lon="7.305248870867559"><ele>783.0</ele><time>2026-05-02T13:30:55Z</time></trkpt><trkpt lat="45.7810241616696" lon="7.305182935188683"><ele>780.25</ele><time>2026-05-02T13:30:56Z</time></trkpt><trkpt lat="45.78112064604239" lon="7.305053061542165"><ele>777.5</ele><time>2026-05-02T13:30:57Z</time></trkpt><trkpt lat="45.78121159322974" lon="7.304911333583165"><ele>774.75</ele><time>2026-05-02T13:30:58Z</time></trkpt><trkpt lat="45.781324169868405" lon="7.304795436842582"><ele>772.0</ele><time>2026-05-02T13:30:59Z</time></trkpt><trkpt lat="45.78146258349159" lon="7.304734968195405"><ele>780.6666666666666</ele><time>2026-05-02T13:31:00Z</time></trkpt><trkpt lat="45.78161910996036" lon="7.304702375565153"><ele>789.3333333333333</ele><time>2026-05-02T13:31:01Z</time></trkpt><trkpt lat="45.781786500339095" lon="7.30465238644762"><ele>798.0</ele><time>2026-05-02T13:31:02Z</time></trkpt><trkpt lat="45.78195692665536" lon="7.30456919025045"><ele>798.0</ele><time>2026-05-02T13:31:03Z</time></trkpt><trkpt lat="45.782131275568375" lon="7.30447124005515"><ele>798.0</ele><time>2026-05-02T13:31:04Z</time></trkpt><trkpt lat="45.78230993480809" lon="7.304393496674518"><ele>798.0</ele><time>2026-05-02T13:31:05Z</time></trkpt><trkpt lat="45.78246619339094" lon="7.304310680013206"><ele>798.0</ele><time>2026-05-02T13:31:06Z</time></trkpt><trkpt lat="45.78263673754385" lon="7.304288293802433"><ele>798.0</ele><time>2026-05-02T13:31:07Z</time></trkpt><trkpt lat="45.78280175759186" lon="7.3043189648025475"><ele>798.0</ele><time>2026-05-02T13:31:08Z</time></trkpt><trkpt lat="45.782952672149214" lon="7.3043690807322585"><ele>798.6666666666667</ele><time>2026-05-02T13:31:09Z</time></trkpt><trkpt lat="45.78311496465668" lon="7.304421149787428"><ele>799.3333333333334</ele><time>2026-05-02T13:31:10Z</time></trkpt><trkpt lat="45.783279017704274" lon="7.304469980795985"><ele>800.0</ele><time>2026-05-02T13:31:11Z</time></trkpt><trkpt lat="45.78344629159357" lon="7.304530122472084"><ele>802.3333333333334</ele><time>2026-05-02T13:31:12Z</time></trkpt><trkpt lat="45.78362051680507" lon="7.304588298944375"><ele>804.6666666666667</ele><time>2026-05-02T13:31:13Z</time></trkpt><trkpt lat="45.78379085018483" lon="7.304666031956646"><ele>807.0</ele><time>2026-05-02T13:31:14Z</time></trkpt><trkpt lat="45.783967705813446" lon="7.304754550462189"><ele>798.6666666666667</ele><time>2026-05-02T13:31:15Z</time></trkpt><trkpt lat="45.784146266070834" lon="7.304839407421622"><ele>790.3333333333334</ele><time>2026-05-02T13:31:16Z</time></trkpt><trkpt lat="45.78432140202476" lon="7.304924016881542"><ele>782.0</ele><time>2026-05-02T13:31:17Z</time></trkpt><trkpt lat="45.784498853893076" lon="7.305000881330095"><ele>782.0</ele><time>2026-05-02T13:31:18Z</time></trkpt><trkpt lat="45.78467011644872" lon="7.305065438906668"><ele>782.0</ele><time>2026-05-02T13:31:19Z</time></trkpt><trkpt lat="45.78483409518859" lon="7.305115855028525"><ele>782.0</ele><time>2026-05-02T13:31:20Z</time></trkpt><trkpt lat="45.7849878874" lon="7.305162508085754"><ele>782.0</ele><time>2026-05-02T13:31:21Z</time></trkpt><trkpt lat="45.78513213244142" lon="7.3052284261067975"><ele>782.0</ele><time>2026-05-02T13:31:22Z</time></trkpt><trkpt lat="45.78526636501755" lon="7.305291523349611"><ele>782.0</ele><time>2026-05-02T13:31:23Z</time></trkpt><trkpt lat="45.7854038834779" lon="7.305313587464083"><ele>782.0</ele><time>2026-05-02T13:31:24Z</time></trkpt><trkpt lat="45.78553742806315" lon="7.3052773231143995"><ele>782.0</ele><time>2026-05-02T13:31:25Z</time></trkpt><trkpt lat="45.78566838923984" lon="7.305201155370112"><ele>782.0</ele><time>2026-05-02T13:31:26Z</time></trkpt><trkpt lat="45.78580368779102" lon="7.305140561051922"><ele>782.0</ele><time>2026-05-02T13:31:27Z</time></trkpt><trkpt lat="45.785953267910884" lon="7.305120293190665"><ele>782.0</ele><time>2026-05-02T13:31:28Z</time></trkpt><trkpt lat="45.78611169030619" lon="7.305129952017184"><ele>782.0</ele><time>2026-05-02T13:31:29Z</time></trkpt><trkpt lat="45.78626451755448" lon="7.305156798545107"><ele>782.0</ele><time>2026-05-02T13:31:30Z</time></trkpt><trkpt lat="45.78639635161895" lon="7.305240470374548"><ele>782.0</ele><time>2026-05-02T13:31:31Z</time></trkpt><trkpt lat="45.7865324300201" lon="7.3053371514113286"><ele>782.0</ele><time>2026-05-02T13:31:32Z</time></trkpt><trkpt lat="45.7866713404126" lon="7.305409289346274"><ele>782.0</ele><time>2026-05-02T13:31:33Z</time></trkpt><trkpt lat="45.78681620747663" lon="7.305445592984997"><ele>782.0</ele><time>2026-05-02T13:31:34Z</time></trkpt><trkpt lat="45.78696434403793" lon="7.305458233805986"><ele>782.0</ele><time>2026-05-02T13:31:35Z</time></trkpt><trkpt lat="45.787111681627145" lon="7.305472150917127"><ele>781.0</ele><time>2026-05-02T13:31:36Z</time></trkpt><trkpt lat="45.78725910949275" lon="7.30548618482582"><ele>780.0</ele><time>2026-05-02T13:31:37Z</time></trkpt><trkpt lat="45.78740605966868" lon="7.305505058993197"><ele>779.0</ele><time>2026-05-02T13:31:38Z</time></trkpt><trkpt lat="45.7875524843297" lon="7.305511736637446"><ele>778.0</ele><time>2026-05-02T13:31:39Z</time></trkpt><trkpt lat="45.78769482239575" lon="7.305509002816882"><ele>778.0</ele><time>2026-05-02T13:31:40Z</time></trkpt><trkpt lat="45.78783476275569" lon="7.30547496962745"><ele>778.0</ele><time>2026-05-02T13:31:41Z</time></trkpt><trkpt lat="45.78796929722441" lon="7.305390043172087"><ele>778.0</ele><time>2026-05-02T13:31:42Z</time></trkpt><trkpt lat="45.7880950045442" lon="7.305278496492045"><ele>778.0</ele><time>2026-05-02T13:31:43Z</time></trkpt><trkpt lat="45.78821554542908" lon="7.305168362298116"><ele>778.0</ele><time>2026-05-02T13:31:44Z</time></trkpt><trkpt lat="45.788340214250226" lon="7.305083188520845"><ele>778.0</ele><time>2026-05-02T13:31:45Z</time></trkpt><trkpt lat="45.78847143473301" lon="7.305041672955356"><ele>778.0</ele><time>2026-05-02T13:31:46Z</time></trkpt><trkpt lat="45.78860900584966" lon="7.305050107361351"><ele>778.0</ele><time>2026-05-02T13:31:47Z</time></trkpt><trkpt lat="45.7887455580682" lon="7.305077865714281"><ele>779.0</ele><time>2026-05-02T13:31:48Z</time></trkpt><trkpt lat="45.78888232609064" lon="7.3051205464191185"><ele>780.0</ele><time>2026-05-02T13:31:49Z</time></trkpt><trkpt lat="45.7890218376349" lon="7.305173285002176"><ele>781.0</ele><time>2026-05-02T13:31:50Z</time></trkpt><trkpt lat="45.7891344868375" lon="7.305289398509124"><ele>782.0</ele><time>2026-05-02T13:31:51Z</time></trkpt><trkpt lat="45.789238017360915" lon="7.30543584948907"><ele>781.5</ele><time>2026-05-02T13:31:52Z</time></trkpt><trkpt lat="45.78935075979822" lon="7.3055773003434865"><ele>781.0</ele><time>2026-05-02T13:31:53Z</time></trkpt><trkpt lat="45.78946747950787" lon="7.305700611019827"><ele>780.5</ele><time>2026-05-02T13:31:54Z</time></trkpt><trkpt lat="45.78959889446928" lon="7.305798954928809"><ele>780.0</ele><time>2026-05-02T13:31:55Z</time></trkpt><trkpt lat="45.78973955988034" lon="7.305863619233253"><ele>780.0</ele><time>2026-05-02T13:31:56Z</time></trkpt><trkpt lat="45.7898891788405" lon="7.305895866234243"><ele>780.0</ele><time>2026-05-02T13:31:57Z</time></trkpt><trkpt lat="45.79004157832864" lon="7.30591636157147"><ele>780.0</ele><time>2026-05-02T13:31:58Z</time></trkpt><trkpt lat="45.79019495142646" lon="7.305936743568417"><ele>782.6666666666667</ele><time>2026-05-02T13:31:59Z</time></trkpt><trkpt lat="45.79035282494992" lon="7.305955877795103"><ele>785.3333333333334</ele><time>2026-05-02T13:32:00Z</time></trkpt><trkpt lat="45.79050928636082" lon="7.3059863189426295"><ele>788.0</ele><time>2026-05-02T13:32:01Z</time></trkpt><trkpt lat="45.79066877004323" lon="7.306032172997236"><ele>788.0</ele><time>2026-05-02T13:32:02Z</time></trkpt><trkpt lat="45.79082417485118" lon="7.3061022222812015"><ele>788.0</ele><time>2026-05-02T13:32:03Z</time></trkpt><trkpt lat="45.790974074596356" lon="7.306186947830582"><ele>788.0</ele><time>2026-05-02T13:32:04Z</time></trkpt><trkpt lat="45.791124446589215" lon="7.306271582562173"><ele>786.6666666666667</ele><time>2026-05-02T13:32:05Z</time></trkpt><trkpt lat="45.79127313792396" lon="7.306352342731355"><ele>785.3333333333333</ele><time>2026-05-02T13:32:06Z</time></trkpt><trkpt lat="45.79140794642278" lon="7.306463403719092"><ele>784.0</ele><time>2026-05-02T13:32:07Z</time></trkpt><trkpt lat="45.79152981852909" lon="7.3066122517392005"><ele>784.0</ele><time>2026-05-02T13:32:08Z</time></trkpt><trkpt lat="45.79164298517634" lon="7.306780967291704"><ele>784.0</ele><time>2026-05-02T13:32:09Z</time></trkpt><trkpt lat="45.79175788793637" lon="7.306955114167016"><ele>784.0</ele><time>2026-05-02T13:32:10Z</time></trkpt><trkpt lat="45.79187153059289" lon="7.3071150044108455"><ele>784.25</ele><time>2026-05-02T13:32:11Z</time></trkpt><trkpt lat="45.79197524717841" lon="7.307264561054269"><ele>784.5</ele><time>2026-05-02T13:32:12Z</time></trkpt><trkpt lat="45.79207173191218" lon="7.307404286307541"><ele>784.75</ele><time>2026-05-02T13:32:13Z</time></trkpt><trkpt lat="45.79216331271384" lon="7.307529284377914"><ele>785.0</ele><time>2026-05-02T13:32:14Z</time></trkpt><trkpt lat="45.79225499134963" lon="7.307636721559842"><ele>785.0</ele><time>2026-05-02T13:32:15Z</time></trkpt><trkpt lat="45.79234710593057" lon="7.30771424950179"><ele>785.0</ele><time>2026-05-02T13:32:16Z</time></trkpt><trkpt lat="45.79243767798405" lon="7.307765097742055"><ele>785.0</ele><time>2026-05-02T13:32:17Z</time></trkpt><trkpt lat="45.79253612318316" lon="7.30780347213237"><ele>785.0</ele><time>2026-05-02T13:32:18Z</time></trkpt><trkpt lat="45.79264156662043" lon="7.307834024700526"><ele>785.0</ele><time>2026-05-02T13:32:19Z</time></trkpt><trkpt lat="45.79275239731698" lon="7.307872633535624"><ele>786.25</ele><time>2026-05-02T13:32:20Z</time></trkpt><trkpt lat="45.79286809295951" lon="7.307911464535135"><ele>787.5</ele><time>2026-05-02T13:32:21Z</time></trkpt><trkpt lat="45.79299099852386" lon="7.307943566437344"><ele>788.75</ele><time>2026-05-02T13:32:22Z</time></trkpt><trkpt lat="45.79311788047388" lon="7.307959161310722"><ele>790.0</ele><time>2026-05-02T13:32:23Z</time></trkpt><trkpt lat="45.79325638054747" lon="7.307942155342038"><ele>790.0</ele><time>2026-05-02T13:32:24Z</time></trkpt><trkpt lat="45.793401395401595" lon="7.307908593109895"><ele>790.0</ele><time>2026-05-02T13:32:25Z</time></trkpt><trkpt lat="45.793554555601894" lon="7.307873094644466"><ele>790.0</ele><time>2026-05-02T13:32:26Z</time></trkpt><trkpt lat="45.79371792167108" lon="7.307833806085181"><ele>791.0</ele><time>2026-05-02T13:32:27Z</time></trkpt><trkpt lat="45.79387427825323" lon="7.307792532250475"><ele>792.0</ele><time>2026-05-02T13:32:28Z</time></trkpt><trkpt lat="45.79403070491895" lon="7.307758608635623"><ele>793.0</ele><time>2026-05-02T13:32:29Z</time></trkpt><trkpt lat="45.794187309403306" lon="7.30775090431598"><ele>793.6666666666666</ele><time>2026-05-02T13:32:30Z</time></trkpt><trkpt lat="45.79434316241418" lon="7.307764697737231"><ele>794.3333333333333</ele><time>2026-05-02T13:32:31Z</time></trkpt><trkpt lat="45.79449414961504" lon="7.307801245021674"><ele>795.0</ele><time>2026-05-02T13:32:32Z</time></trkpt><trkpt lat="45.79463759669598" lon="7.307860041953257"><ele>795.0</ele><time>2026-05-02T13:32:33Z</time></trkpt><trkpt lat="45.79477594349643" lon="7.307944816361133"><ele>795.0</ele><time>2026-05-02T13:32:34Z</time></trkpt><trkpt lat="45.79491338036381" lon="7.30804659677714"><ele>795.0</ele><time>2026-05-02T13:32:35Z</time></trkpt><trkpt lat="45.79503588118306" lon="7.308184261307212"><ele>793.6666666666667</ele><time>2026-05-02T13:32:36Z</time></trkpt><trkpt lat="45.79516856773643" lon="7.308295934858067"><ele>792.3333333333334</ele><time>2026-05-02T13:32:37Z</time></trkpt><trkpt lat="45.795317152859155" lon="7.308363236710142"><ele>791.0</ele><time>2026-05-02T13:32:38Z</time></trkpt><trkpt lat="45.79546079631101" lon="7.308451066726802"><ele>791.0</ele><time>2026-05-02T13:32:39Z</time></trkpt><trkpt lat="45.795613017851586" lon="7.308478235298569"><ele>791.0</ele><time>2026-05-02T13:32:40Z</time></trkpt><trkpt lat="45.79576366195284" lon="7.308523911769472"><ele>791.0</ele><time>2026-05-02T13:32:41Z</time></trkpt><trkpt lat="45.795905160284846" lon="7.308568415361313"><ele>791.5</ele><time>2026-05-02T13:32:42Z</time></trkpt><trkpt lat="45.796041038466875" lon="7.308611380507128"><ele>792.0</ele><time>2026-05-02T13:32:43Z</time></trkpt><trkpt lat="45.79617081225649" lon="7.308657055403769"><ele>792.5</ele><time>2026-05-02T13:32:44Z</time></trkpt><trkpt lat="45.796299249712085" lon="7.308696211178375"><ele>793.0</ele><time>2026-05-02T13:32:45Z</time></trkpt><trkpt lat="45.79643648792383" lon="7.308718763698729"><ele>793.0</ele><time>2026-05-02T13:32:46Z</time></trkpt><trkpt lat="45.79658041883113" lon="7.308718331013521"><ele>793.0</ele><time>2026-05-02T13:32:47Z</time></trkpt><trkpt lat="45.796732236717254" lon="7.308695444788501"><ele>793.0</ele><time>2026-05-02T13:32:48Z</time></trkpt><trkpt lat="45.796896692533025" lon="7.308665058503507"><ele>793.3333333333333</ele><time>2026-05-02T13:32:49Z</time></trkpt><trkpt lat="45.79706269457452" lon="7.308629669204036"><ele>793.6666666666667</ele><time>2026-05-02T13:32:50Z</time></trkpt><trkpt lat="45.79723251160083" lon="7.308592229422866"><ele>794.0</ele><time>2026-05-02T13:32:51Z</time></trkpt><trkpt lat="45.79740323506153" lon="7.308580175571367"><ele>794.0</ele><time>2026-05-02T13:32:52Z</time></trkpt><trkpt lat="45.797577176625985" lon="7.308549564898877"><ele>794.0</ele><time>2026-05-02T13:32:53Z</time></trkpt><trkpt lat="45.79775589702678" lon="7.3085889338931835"><ele>794.0</ele><time>2026-05-02T13:32:54Z</time></trkpt><trkpt lat="45.7979368873801" lon="7.308667196067489"><ele>792.3333333333334</ele><time>2026-05-02T13:32:55Z</time></trkpt><trkpt lat="45.79811352968922" lon="7.308808316949073"><ele>790.6666666666667</ele><time>2026-05-02T13:32:56Z</time></trkpt><trkpt lat="45.798307978594025" lon="7.308921600480301"><ele>789.0</ele><time>2026-05-02T13:32:57Z</time></trkpt><trkpt lat="45.79850456517686" lon="7.3090520514983135"><ele>796.0</ele><time>2026-05-02T13:32:58Z</time></trkpt><trkpt lat="45.798706341192165" lon="7.309192495405039"><ele>803.0</ele><time>2026-05-02T13:32:59Z</time></trkpt><trkpt lat="45.7989181419323" lon="7.309339526131527"><ele>803.0</ele><time>2026-05-02T13:33:00Z</time></trkpt><trkpt lat="45.7991397107519" lon="7.3094872373732285"><ele>803.0</ele><time>2026-05-02T13:33:01Z</time></trkpt><trkpt lat="45.79935315431002" lon="7.309630825498004"><ele>802.6666666666667</ele><time>2026-05-02T13:33:02Z</time></trkpt><trkpt lat="45.79955408215174" lon="7.309772469497104"><ele>802.3333333333333</ele><time>2026-05-02T13:33:03Z</time></trkpt><trkpt lat="45.7997521102521" lon="7.309907702511998"><ele>802.0</ele><time>2026-05-02T13:33:04Z</time></trkpt><trkpt lat="45.79994876168073" lon="7.310034779511485"><ele>802.0</ele><time>2026-05-02T13:33:05Z</time></trkpt><trkpt lat="45.80013483162137" lon="7.3101827957486165"><ele>802.0</ele><time>2026-05-02T13:33:06Z</time></trkpt><trkpt lat="45.800316889834015" lon="7.310309444120159"><ele>802.0</ele><time>2026-05-02T13:33:07Z</time></trkpt><trkpt lat="45.800487125138474" lon="7.310441046445616"><ele>802.6666666666666</ele><time>2026-05-02T13:33:08Z</time></trkpt><trkpt lat="45.800642001373326" lon="7.310573330631394"><ele>803.3333333333333</ele><time>2026-05-02T13:33:09Z</time></trkpt><trkpt lat="45.800794868257334" lon="7.3106689716250575"><ele>804.0</ele><time>2026-05-02T13:33:10Z</time></trkpt><trkpt lat="45.80093673491642" lon="7.310776679115193"><ele>808.0</ele><time>2026-05-02T13:33:11Z</time></trkpt><trkpt lat="45.8010709413837" lon="7.310901251827717"><ele>812.0</ele><time>2026-05-02T13:33:12Z</time></trkpt><trkpt lat="45.80121958267328" lon="7.310987371546861"><ele>816.0</ele><time>2026-05-02T13:33:13Z</time></trkpt><trkpt lat="45.80138480003005" lon="7.311034159489993"><ele>816.0</ele><time>2026-05-02T13:33:14Z</time></trkpt><trkpt lat="45.80155978324658" lon="7.311070499302914"><ele>816.0</ele><time>2026-05-02T13:33:15Z</time></trkpt><trkpt lat="45.80173147395183" lon="7.311137488653717"><ele>816.0</ele><time>2026-05-02T13:33:16Z</time></trkpt><trkpt lat="45.80191928163505" lon="7.311196465376949"><ele>819.0</ele><time>2026-05-02T13:33:17Z</time></trkpt><trkpt lat="45.802116852217615" lon="7.3112743292612175"><ele>822.0</ele><time>2026-05-02T13:33:18Z</time></trkpt><trkpt lat="45.802301608517126" lon="7.311364852734379"><ele>825.0</ele><time>2026-05-02T13:33:19Z</time></trkpt><trkpt lat="45.80251630059135" lon="7.31140492188191"><ele>819.6666666666667</ele><time>2026-05-02T13:33:20Z</time></trkpt><trkpt lat="45.802740236856295" lon="7.311424587193381"><ele>814.3333333333334</ele><time>2026-05-02T13:33:21Z</time></trkpt><trkpt lat="45.802959861958975" lon="7.311422824567154"><ele>809.0</ele><time>2026-05-02T13:33:22Z</time></trkpt><trkpt lat="45.80317676007197" lon="7.311443863618527"><ele>809.0</ele><time>2026-05-02T13:33:23Z</time></trkpt><trkpt lat="45.803392877933284" lon="7.311465526014478"><ele>809.0</ele><time>2026-05-02T13:33:24Z</time></trkpt><trkpt lat="45.803602073232305" lon="7.311485296663575"><ele>809.0</ele><time>2026-05-02T13:33:25Z</time></trkpt><trkpt lat="45.80381144512823" lon="7.311528251654582"><ele>813.0</ele><time>2026-05-02T13:33:26Z</time></trkpt><trkpt lat="45.804012552549864" lon="7.3116231741891955"><ele>817.0</ele><time>2026-05-02T13:33:27Z</time></trkpt><trkpt lat="45.80420015485" lon="7.3117547047659635"><ele>821.0</ele><time>2026-05-02T13:33:28Z</time></trkpt><trkpt lat="45.80438494425004" lon="7.311888366013057"><ele>824.6666666666667</ele><time>2026-05-02T13:33:29Z</time></trkpt><trkpt lat="45.80458899860178" lon="7.311984004416155"><ele>828.3333333333333</ele><time>2026-05-02T13:33:30Z</time></trkpt><trkpt lat="45.80479361311102" lon="7.312027222525926"><ele>832.0</ele><time>2026-05-02T13:33:31Z</time></trkpt><trkpt lat="45.80498209693206" lon="7.312063654023179"><ele>832.0</ele><time>2026-05-02T13:33:32Z</time></trkpt><trkpt lat="45.805156518497355" lon="7.312099975314278"><ele>832.0</ele><time>2026-05-02T13:33:33Z</time></trkpt><trkpt lat="45.80530274209703" lon="7.312151225041023"><ele>832.0</ele><time>2026-05-02T13:33:34Z</time></trkpt><trkpt lat="45.805428141870166" lon="7.312246317758685"><ele>831.25</ele><time>2026-05-02T13:33:35Z</time></trkpt><trkpt lat="45.80554119577728" lon="7.312362773179518"><ele>830.5</ele><time>2026-05-02T13:33:36Z</time></trkpt><trkpt lat="45.80565964408342" lon="7.312457488378605"><ele>829.75</ele><time>2026-05-02T13:33:37Z</time></trkpt><trkpt lat="45.805792537491286" lon="7.3125028272062425"><ele>829.0</ele><time>2026-05-02T13:33:38Z</time></trkpt><trkpt lat="45.80593866185628" lon="7.312500654822703"><ele>834.3333333333333</ele><time>2026-05-02T13:33:39Z</time></trkpt><trkpt lat="45.80609519837071" lon="7.312480591272123"><ele>839.6666666666667</ele><time>2026-05-02T13:33:40Z</time></trkpt><trkpt lat="45.806255887113295" lon="7.312458885334224"><ele>845.0</ele><time>2026-05-02T13:33:41Z</time></trkpt><trkpt lat="45.80642105588356" lon="7.312439024748612"><ele>845.0</ele><time>2026-05-02T13:33:42Z</time></trkpt><trkpt lat="45.806590384096594" lon="7.312406893091485"><ele>845.0</ele><time>2026-05-02T13:33:43Z</time></trkpt><trkpt lat="45.80675234368047" lon="7.312333790049873"><ele>845.0</ele><time>2026-05-02T13:33:44Z</time></trkpt><trkpt lat="45.806911263776065" lon="7.312220651166438"><ele>846.0</ele><time>2026-05-02T13:33:45Z</time></trkpt><trkpt lat="45.807074417671735" lon="7.312110407252148"><ele>847.0</ele><time>2026-05-02T13:33:46Z</time></trkpt><trkpt lat="45.807246273728765" lon="7.3120383249074825"><ele>848.0</ele><time>2026-05-02T13:33:47Z</time></trkpt><trkpt lat="45.80742772462581" lon="7.312002225596239"><ele>848.0</ele><time>2026-05-02T13:33:48Z</time></trkpt><trkpt lat="45.807611267671206" lon="7.312019893358462"><ele>848.0</ele><time>2026-05-02T13:33:49Z</time></trkpt><trkpt lat="45.807790991252936" lon="7.312103747768123"><ele>848.0</ele><time>2026-05-02T13:33:50Z</time></trkpt><trkpt lat="45.80796080369753" lon="7.312239824253617"><ele>846.6666666666667</ele><time>2026-05-02T13:33:51Z</time></trkpt><trkpt lat="45.80810586039189" lon="7.3124339371469675"><ele>845.3333333333333</ele><time>2026-05-02T13:33:52Z</time></trkpt><trkpt lat="45.80822383456774" lon="7.31266853443861"><ele>844.0</ele><time>2026-05-02T13:33:53Z</time></trkpt><trkpt lat="45.8083333004424" lon="7.312907711537845"><ele>845.3333333333333</ele><time>2026-05-02T13:33:54Z</time></trkpt><trkpt lat="45.80845874417382" lon="7.313129702816218"><ele>846.6666666666667</ele><time>2026-05-02T13:33:55Z</time></trkpt><trkpt lat="45.808611617130666" lon="7.313310153771725"><ele>848.0</ele><time>2026-05-02T13:33:56Z</time></trkpt><trkpt lat="45.80877917585973" lon="7.313460792059817"><ele>848.0</ele><time>2026-05-02T13:33:57Z</time></trkpt><trkpt lat="45.80893730240149" lon="7.3135847105886835"><ele>848.0</ele><time>2026-05-02T13:33:58Z</time></trkpt><trkpt lat="45.80909056811522" lon="7.313699719206787"><ele>848.0</ele><time>2026-05-02T13:33:59Z</time></trkpt><trkpt lat="45.80923485036175" lon="7.313803689999688"><ele>849.0</ele><time>2026-05-02T13:34:00Z</time></trkpt><trkpt lat="45.809373135645245" lon="7.313910084554896"><ele>850.0</ele><time>2026-05-02T13:34:01Z</time></trkpt><trkpt lat="45.8095103856331" lon="7.314011069517018"><ele>851.0</ele><time>2026-05-02T13:34:02Z</time></trkpt><trkpt lat="45.80964394194858" lon="7.314110088720933"><ele>851.0</ele><time>2026-05-02T13:34:03Z</time></trkpt><trkpt lat="45.809781515690176" lon="7.3142137569028645"><ele>851.0</ele><time>2026-05-02T13:34:04Z</time></trkpt><trkpt lat="45.80991997516063" lon="7.3143149160256"><ele>851.0</ele><time>2026-05-02T13:34:05Z</time></trkpt><trkpt lat="45.81005796665539" lon="7.314416456002293"><ele>854.6666666666667</ele><time>2026-05-02T13:34:06Z</time></trkpt><trkpt lat="45.810193412232024" lon="7.314513660508892"><ele>858.3333333333333</ele><time>2026-05-02T13:34:07Z</time></trkpt><trkpt lat="45.81033230053526" lon="7.314603924585528"><ele>862.0</ele><time>2026-05-02T13:34:08Z</time></trkpt><trkpt lat="45.81047303503255" lon="7.314691054120392"><ele>864.75</ele><time>2026-05-02T13:34:09Z</time></trkpt><trkpt lat="45.8106124663276" lon="7.314775525723804"><ele>867.5</ele><time>2026-05-02T13:34:10Z</time></trkpt><trkpt lat="45.81074849050991" lon="7.314853345745566"><ele>870.25</ele><time>2026-05-02T13:34:11Z</time></trkpt><trkpt lat="45.81087813111236" lon="7.3149368544649125"><ele>873.0</ele><time>2026-05-02T13:34:12Z</time></trkpt><trkpt lat="45.81100007125025" lon="7.315037874032579"><ele>873.25</ele><time>2026-05-02T13:34:13Z</time></trkpt><trkpt lat="45.811116295505094" lon="7.315140413353491"><ele>873.5</ele><time>2026-05-02T13:34:14Z</time></trkpt><trkpt lat="45.81122296354689" lon="7.315254121174346"><ele>873.75</ele><time>2026-05-02T13:34:15Z</time></trkpt><trkpt lat="45.811336963032915" lon="7.315355978028711"><ele>874.0</ele><time>2026-05-02T13:34:16Z</time></trkpt><trkpt lat="45.81144519775683" lon="7.315455704179377"><ele>874.0</ele><time>2026-05-02T13:34:17Z</time></trkpt><trkpt lat="45.8115514636222" lon="7.315536465516917"><ele>874.0</ele><time>2026-05-02T13:34:18Z</time></trkpt><trkpt lat="45.81165523506407" lon="7.315609694464004"><ele>874.0</ele><time>2026-05-02T13:34:19Z</time></trkpt><trkpt lat="45.81175754723484" lon="7.315669693564298"><ele>874.0</ele><time>2026-05-02T13:34:20Z</time></trkpt><trkpt lat="45.81185822059871" lon="7.315737665764395"><ele>874.5</ele><time>2026-05-02T13:34:21Z</time></trkpt><trkpt lat="45.81195919315453" lon="7.315800379365693"><ele>875.0</ele><time>2026-05-02T13:34:22Z</time></trkpt><trkpt lat="45.81206998174744" lon="7.315876961076586"><ele>875.5</ele><time>2026-05-02T13:34:23Z</time></trkpt><trkpt lat="45.81217961367583" lon="7.3159496504304204"><ele>876.0</ele><time>2026-05-02T13:34:24Z</time></trkpt><trkpt lat="45.81228741893729" lon="7.316018510031444"><ele>876.0</ele><time>2026-05-02T13:34:25Z</time></trkpt><trkpt lat="45.812394404391846" lon="7.31608550788841"><ele>875.9999999999999</ele><time>2026-05-02T13:34:26.017Z</time></trkpt><trkpt lat="45.81249715385803" lon="7.316149085110208"><ele>875.9999999999999</ele><time>2026-05-02T13:34:27.023Z</time></trkpt><trkpt lat="45.81259412896154" lon="7.316210155444488"><ele>876.0</ele><time>2026-05-02T13:34:28.02Z</time></trkpt><trkpt lat="45.812690160876556" lon="7.316271656556089"><ele>876.0</ele><time>2026-05-02T13:34:29.016Z</time></trkpt><trkpt lat="45.813835943160406" lon="7.31696275994863"><ele>877.0</ele><time>2026-05-02T13:34:39Z</time></trkpt><trkpt lat="45.81394313974088" lon="7.317038748035306"><ele>878.0</ele><time>2026-05-02T13:34:40Z</time></trkpt><trkpt lat="45.81403948846425" lon="7.317079479728473"><ele>879.0</ele><time>2026-05-02T13:34:41Z</time></trkpt><trkpt lat="45.81414472192034" lon="7.317165187548596"><ele>880.0</ele><time>2026-05-02T13:34:42Z</time></trkpt><trkpt lat="45.814240930581846" lon="7.31724123347617"><ele>881.6</ele><time>2026-05-02T13:34:43Z</time></trkpt><trkpt lat="45.814336754749576" lon="7.317313503032509"><ele>883.2</ele><time>2026-05-02T13:34:44Z</time></trkpt><trkpt lat="45.8144248247199" lon="7.31739187164982"><ele>884.8</ele><time>2026-05-02T13:34:45Z</time></trkpt><trkpt lat="45.81451488409777" lon="7.317465909421825"><ele>886.4</ele><time>2026-05-02T13:34:46Z</time></trkpt><trkpt lat="45.8146097621615" lon="7.3175409215323715"><ele>888.0</ele><time>2026-05-02T13:34:47Z</time></trkpt><trkpt lat="45.81470982209637" lon="7.317614081880832"><ele>888.0</ele><time>2026-05-02T13:34:48Z</time></trkpt><trkpt lat="45.81482186233174" lon="7.317685458977174"><ele>888.0</ele><time>2026-05-02T13:34:49Z</time></trkpt><trkpt lat="45.81492705663248" lon="7.317757678893595"><ele>888.0</ele><time>2026-05-02T13:34:50Z</time></trkpt><trkpt lat="45.81503836720248" lon="7.317848976827039"><ele>888.0</ele><time>2026-05-02T13:34:51Z</time></trkpt><trkpt lat="45.815145363544765" lon="7.317960227904879"><ele>887.25</ele><time>2026-05-02T13:34:52Z</time></trkpt><trkpt lat="45.815253271684426" lon="7.31808276016118"><ele>886.5</ele><time>2026-05-02T13:34:53Z</time></trkpt><trkpt lat="45.81536015401749" lon="7.318203877635737"><ele>885.75</ele><time>2026-05-02T13:34:54Z</time></trkpt><trkpt lat="45.815467515992104" lon="7.318336711643307"><ele>885.0</ele><time>2026-05-02T13:34:55Z</time></trkpt><trkpt lat="45.81557636542452" lon="7.31846351928971"><ele>885.0</ele><time>2026-05-02T13:34:56Z</time></trkpt><trkpt lat="45.81568440505988" lon="7.31858759481163"><ele>885.0</ele><time>2026-05-02T13:34:57Z</time></trkpt><trkpt lat="45.81579159502463" lon="7.318707642402941"><ele>885.0</ele><time>2026-05-02T13:34:58Z</time></trkpt><trkpt lat="45.81589078622104" lon="7.318826339998797"><ele>885.0</ele><time>2026-05-02T13:34:59Z</time></trkpt><trkpt lat="45.815990448669595" lon="7.3189385907900135"><ele>886.5</ele><time>2026-05-02T13:35:00Z</time></trkpt><trkpt lat="45.81608312378288" lon="7.319045657955359"><ele>888.0</ele><time>2026-05-02T13:35:01Z</time></trkpt><trkpt lat="45.8161828807004" lon="7.319135773125619"><ele>889.5</ele><time>2026-05-02T13:35:02Z</time></trkpt><trkpt lat="45.81628966945326" lon="7.319212864736213"><ele>891.0</ele><time>2026-05-02T13:35:03Z</time></trkpt><trkpt lat="45.816391449822056" lon="7.319269591403381"><ele>891.0</ele><time>2026-05-02T13:35:04Z</time></trkpt><trkpt lat="45.81649106327887" lon="7.319317853334794"><ele>890.9999999999999</ele><time>2026-05-02T13:35:05Z</time></trkpt><trkpt lat="45.81659305796865" lon="7.319360827872038"><ele>890.9999999999999</ele><time>2026-05-02T13:35:06Z</time></trkpt><trkpt lat="45.81669747174522" lon="7.319404547785748"><ele>891.0</ele><time>2026-05-02T13:35:07Z</time></trkpt><trkpt lat="45.81679851139062" lon="7.319447473921433"><ele>891.0</ele><time>2026-05-02T13:35:08Z</time></trkpt><trkpt lat="45.81689309969689" lon="7.319490389553726"><ele>893.8</ele><time>2026-05-02T13:35:09Z</time></trkpt><trkpt lat="45.81698733584174" lon="7.319530167361064"><ele>896.5999999999999</ele><time>2026-05-02T13:35:10Z</time></trkpt><trkpt lat="45.81707591880438" lon="7.319572855736194"><ele>899.4</ele><time>2026-05-02T13:35:11Z</time></trkpt><trkpt lat="45.81716858813109" lon="7.319614634691458"><ele>902.2</ele><time>2026-05-02T13:35:12Z</time></trkpt><trkpt lat="45.81726166730983" lon="7.31966033394257"><ele>905.0</ele><time>2026-05-02T13:35:13Z</time></trkpt><trkpt lat="45.81735788939725" lon="7.319708153672836"><ele>904.6</ele><time>2026-05-02T13:35:14Z</time></trkpt><trkpt lat="45.81745946498588" lon="7.31975157544542"><ele>904.2</ele><time>2026-05-02T13:35:15Z</time></trkpt><trkpt lat="45.817560914456095" lon="7.319799803332277"><ele>903.8</ele><time>2026-05-02T13:35:16Z</time></trkpt><trkpt lat="45.81766420040831" lon="7.319853918482526"><ele>903.4</ele><time>2026-05-02T13:35:17Z</time></trkpt><trkpt lat="45.817769401173415" lon="7.319909087969861"><ele>903.0</ele><time>2026-05-02T13:35:18Z</time></trkpt><trkpt lat="45.81787395005747" lon="7.319968066200086"><ele>903.0</ele><time>2026-05-02T13:35:19Z</time></trkpt><trkpt lat="45.81797425008094" lon="7.320024660781695"><ele>903.0</ele><time>2026-05-02T13:35:20Z</time></trkpt><trkpt lat="45.818072240723076" lon="7.320077338231204"><ele>903.0</ele><time>2026-05-02T13:35:21Z</time></trkpt><trkpt lat="45.81817040151981" lon="7.320123368988138"><ele>903.0</ele><time>2026-05-02T13:35:22Z</time></trkpt><trkpt lat="45.81826612950699" lon="7.320162150725268"><ele>903.0</ele><time>2026-05-02T13:35:23Z</time></trkpt><trkpt lat="45.81836065070693" lon="7.320210468067447"><ele>903.0</ele><time>2026-05-02T13:35:24Z</time></trkpt><trkpt lat="45.818451865329756" lon="7.320267376280851"><ele>903.0</ele><time>2026-05-02T13:35:25Z</time></trkpt><trkpt lat="45.81853669519211" lon="7.320321978037146"><ele>903.0</ele><time>2026-05-02T13:35:26Z</time></trkpt><trkpt lat="45.81860346859878" lon="7.320386169126387"><ele>903.0</ele><time>2026-05-02T13:35:27Z</time></trkpt><trkpt lat="45.81866850086676" lon="7.320436515904551"><ele>903.0</ele><time>2026-05-02T13:35:28Z</time></trkpt><trkpt lat="45.81872911899772" lon="7.320484853083727"><ele>903.0</ele><time>2026-05-02T13:35:29Z</time></trkpt><trkpt lat="45.81883343075576" lon="7.320561463830398"><ele>902.4</ele><time>2026-05-02T13:35:31Z</time></trkpt><trkpt lat="45.81890700824969" lon="7.320642923099042"><ele>901.8</ele><time>2026-05-02T13:35:33Z</time></trkpt><trkpt lat="45.818966873046314" lon="7.320735179274384"><ele>901.2</ele><time>2026-05-02T13:35:35Z</time></trkpt><trkpt lat="45.81901100815047" lon="7.320840927051522"><ele>900.6</ele><time>2026-05-02T13:35:37Z</time></trkpt><trkpt lat="45.81908828727835" lon="7.32091542618284"><ele>900.0</ele><time>2026-05-02T13:35:39Z</time></trkpt><trkpt lat="45.8192023605801" lon="7.320919192055287"><ele>900.0</ele><time>2026-05-02T13:35:41Z</time></trkpt><trkpt lat="45.81926996785784" lon="7.320954360041251"><ele>900.0</ele><time>2026-05-02T13:35:42Z</time></trkpt><trkpt lat="45.81934792888577" lon="7.321021098768473"><ele>900.0</ele><time>2026-05-02T13:35:44Z</time></trkpt><trkpt lat="45.81940505509055" lon="7.3210604945333175"><ele>900.0</ele><time>2026-05-02T13:35:45Z</time></trkpt><trkpt lat="45.81946952702799" lon="7.3211046082764115"><ele>900.0</ele><time>2026-05-02T13:35:46Z</time></trkpt><trkpt lat="45.81953803546885" lon="7.321161711427827"><ele>900.0</ele><time>2026-05-02T13:35:47Z</time></trkpt><trkpt lat="45.81961423898289" lon="7.321233013012326"><ele>900.6</ele><time>2026-05-02T13:35:48Z</time></trkpt><trkpt lat="45.81969793252739" lon="7.321309163437635"><ele>901.2</ele><time>2026-05-02T13:35:49Z</time></trkpt><trkpt lat="45.819792821510504" lon="7.321384174895033"><ele>901.8</ele><time>2026-05-02T13:35:50Z</time></trkpt><trkpt lat="45.819897778448755" lon="7.321462275916857"><ele>902.4</ele><time>2026-05-02T13:35:51Z</time></trkpt><trkpt lat="45.819994783825706" lon="7.321564130743841"><ele>903.0</ele><time>2026-05-02T13:35:52Z</time></trkpt><trkpt lat="45.82009858632939" lon="7.321643924949821"><ele>905.75</ele><time>2026-05-02T13:35:53Z</time></trkpt><trkpt lat="45.82020911489472" lon="7.321712105452886"><ele>908.5</ele><time>2026-05-02T13:35:54Z</time></trkpt><trkpt lat="45.820322551963955" lon="7.3217577889152885"><ele>911.25</ele><time>2026-05-02T13:35:55Z</time></trkpt><trkpt lat="45.82043569252773" lon="7.321814592688324"><ele>914.0</ele><time>2026-05-02T13:35:56Z</time></trkpt><trkpt lat="45.8205456381337" lon="7.321860701424174"><ele>914.0</ele><time>2026-05-02T13:35:57Z</time></trkpt><trkpt lat="45.82065865340188" lon="7.321893429639454"><ele>914.0000000000001</ele><time>2026-05-02T13:35:58Z</time></trkpt><trkpt lat="45.82076725537827" lon="7.321924126082593"><ele>914.0000000000001</ele><time>2026-05-02T13:35:59Z</time></trkpt><trkpt lat="45.82085986156702" lon="7.321947766800039"><ele>914.0</ele><time>2026-05-02T13:36:00Z</time></trkpt><trkpt lat="45.82093683214994" lon="7.32196834252628"><ele>914.0</ele><time>2026-05-02T13:36:01Z</time></trkpt><trkpt lat="45.82105785831099" lon="7.322001697015004"><ele>914.5000000000001</ele><time>2026-05-02T13:36:03Z</time></trkpt><trkpt lat="45.821122346898846" lon="7.322015715815733"><ele>915.0</ele><time>2026-05-02T13:36:04Z</time></trkpt><trkpt lat="45.82118792946172" lon="7.322045434305364"><ele>915.5</ele><time>2026-05-02T13:36:05Z</time></trkpt><trkpt lat="45.821274997230525" lon="7.322072769561223"><ele>916.0</ele><time>2026-05-02T13:36:06Z</time></trkpt><trkpt lat="45.82137322448645" lon="7.322103114215915"><ele>916.5000000000001</ele><time>2026-05-02T13:36:07Z</time></trkpt><trkpt lat="45.82147951780669" lon="7.322130177704399"><ele>917.0</ele><time>2026-05-02T13:36:08Z</time></trkpt><trkpt lat="45.82160015322565" lon="7.322158912050109"><ele>917.0</ele><time>2026-05-02T13:36:09Z</time></trkpt><trkpt lat="45.82171648772278" lon="7.322203018059835"><ele>917.0</ele><time>2026-05-02T13:36:10Z</time></trkpt><trkpt lat="45.821823643255165" lon="7.322269365282213"><ele>917.0</ele><time>2026-05-02T13:36:11Z</time></trkpt><trkpt lat="45.821920687342725" lon="7.32235203768728"><ele>917.0</ele><time>2026-05-02T13:36:12Z</time></trkpt><trkpt lat="45.82201696837017" lon="7.32243784601105"><ele>918.4000000000001</ele><time>2026-05-02T13:36:13Z</time></trkpt><trkpt lat="45.822101781154345" lon="7.322537647324212"><ele>919.8000000000001</ele><time>2026-05-02T13:36:14Z</time></trkpt><trkpt lat="45.82219538978097" lon="7.32261993173249"><ele>921.2</ele><time>2026-05-02T13:36:15Z</time></trkpt><trkpt lat="45.82229266571503" lon="7.322703160146845"><ele>922.6</ele><time>2026-05-02T13:36:16Z</time></trkpt><trkpt lat="45.82238510281907" lon="7.322782032115744"><ele>924.0</ele><time>2026-05-02T13:36:17Z</time></trkpt><trkpt lat="45.822469610155686" lon="7.3228513149973"><ele>924.0</ele><time>2026-05-02T13:36:18Z</time></trkpt><trkpt lat="45.82254210037222" lon="7.322912737181062"><ele>924.0000000000001</ele><time>2026-05-02T13:36:19Z</time></trkpt><trkpt lat="45.82260361078873" lon="7.322968736186594"><ele>924.0000000000001</ele><time>2026-05-02T13:36:20Z</time></trkpt><trkpt lat="45.82270404143205" lon="7.323068687969869"><ele>924.0</ele><time>2026-05-02T13:36:22Z</time></trkpt><trkpt lat="45.82279280645715" lon="7.323052351665506"><ele>924.0</ele><time>2026-05-02T13:36:24Z</time></trkpt><trkpt lat="45.82282664731892" lon="7.322934817081185"><ele>925.2</ele><time>2026-05-02T13:37:24Z</time></trkpt><trkpt lat="45.82290109086149" lon="7.322799141933119"><ele>926.4000000000001</ele><time>2026-05-02T13:37:26Z</time></trkpt><trkpt lat="45.8229520630103" lon="7.322713933138867"><ele>927.6</ele><time>2026-05-02T13:37:27Z</time></trkpt><trkpt lat="45.8230038715496" lon="7.322615411018278"><ele>928.8</ele><time>2026-05-02T13:37:28Z</time></trkpt><trkpt lat="45.82307562548471" lon="7.32248340503363"><ele>930.0</ele><time>2026-05-02T13:37:29Z</time></trkpt><trkpt lat="45.823158125151295" lon="7.322354464048891"><ele>931.2</ele><time>2026-05-02T13:37:30Z</time></trkpt><trkpt lat="45.823235680109434" lon="7.322226020082775"><ele>932.4</ele><time>2026-05-02T13:37:31Z</time></trkpt><trkpt lat="45.82330789592728" lon="7.322089055429724"><ele>933.5999999999999</ele><time>2026-05-02T13:37:32Z</time></trkpt><trkpt lat="45.82334905628038" lon="7.321953596711091"><ele>934.8</ele><time>2026-05-02T13:37:33Z</time></trkpt><trkpt lat="45.82337894099733" lon="7.32183844714262"><ele>936.0</ele><time>2026-05-02T13:37:34Z</time></trkpt><trkpt lat="45.82339722777809" lon="7.321714962611185"><ele>936.0</ele><time>2026-05-02T13:37:35Z</time></trkpt><trkpt lat="45.82338535574884" lon="7.321584805382073"><ele>935.9999999999999</ele><time>2026-05-02T13:37:36Z</time></trkpt><trkpt lat="45.82335060444423" lon="7.3214362848847045"><ele>935.9999999999999</ele><time>2026-05-02T13:37:37Z</time></trkpt><trkpt lat="45.82331906813473" lon="7.321274807553883"><ele>936.0</ele><time>2026-05-02T13:37:38Z</time></trkpt><trkpt lat="45.82326541868043" lon="7.321112703917617"><ele>936.0</ele><time>2026-05-02T13:37:39Z</time></trkpt><trkpt lat="45.82318578418742" lon="7.320934295333692"><ele>942.3333333333333</ele><time>2026-05-02T13:37:40Z</time></trkpt><trkpt lat="45.82307555624097" lon="7.3207883306589805"><ele>948.6666666666666</ele><time>2026-05-02T13:37:41Z</time></trkpt><trkpt lat="45.82296042654933" lon="7.320635592477246"><ele>955.0</ele><time>2026-05-02T13:37:42Z</time></trkpt><trkpt lat="45.82284780542389" lon="7.320475521488997"><ele>953.0</ele><time>2026-05-02T13:37:43Z</time></trkpt><trkpt lat="45.82272949487731" lon="7.320304212952051"><ele>951.0</ele><time>2026-05-02T13:37:44Z</time></trkpt><trkpt lat="45.82260989026451" lon="7.32013079955098"><ele>949.0</ele><time>2026-05-02T13:37:45Z</time></trkpt><trkpt lat="45.8224853301518" lon="7.319945256802594"><ele>949.0</ele><time>2026-05-02T13:37:46Z</time></trkpt><trkpt lat="45.82236529511545" lon="7.319766121872956"><ele>949.0</ele><time>2026-05-02T13:37:47Z</time></trkpt><trkpt lat="45.82226200614599" lon="7.319608922128232"><ele>949.0</ele><time>2026-05-02T13:37:48Z</time></trkpt><trkpt lat="45.822154962156915" lon="7.3194540627992275"><ele>951.6666666666666</ele><time>2026-05-02T13:37:49Z</time></trkpt><trkpt lat="45.82202827872547" lon="7.319326674188385"><ele>954.3333333333333</ele><time>2026-05-02T13:37:50Z</time></trkpt><trkpt lat="45.82189038736177" lon="7.319227509417762"><ele>957.0</ele><time>2026-05-02T13:37:51Z</time></trkpt><trkpt lat="45.82174778186997" lon="7.319162409138711"><ele>957.0</ele><time>2026-05-02T13:37:52Z</time></trkpt><trkpt lat="45.82162330412766" lon="7.319141294731525"><ele>957.0</ele><time>2026-05-02T13:37:53Z</time></trkpt><trkpt lat="45.82153134935785" lon="7.319127370044364"><ele>957.0</ele><time>2026-05-02T13:37:54Z</time></trkpt><trkpt lat="45.82143558405362" lon="7.319120835789217"><ele>957.0</ele><time>2026-05-02T13:37:56Z</time></trkpt><trkpt lat="45.821407835893666" lon="7.319006507460114"><ele>957.0</ele><time>2026-05-02T13:37:58Z</time></trkpt><trkpt lat="45.821536616568366" lon="7.318910216146718"><ele>957.0</ele><time>2026-05-02T13:38:00Z</time></trkpt><trkpt lat="45.821634192268526" lon="7.318905725187373"><ele>957.0</ele><time>2026-05-02T13:38:01Z</time></trkpt><trkpt lat="45.82173292363923" lon="7.318911469240576"><ele>957.0</ele><time>2026-05-02T13:38:02Z</time></trkpt><trkpt lat="45.82185700006674" lon="7.318892704696881"><ele>957.0</ele><time>2026-05-02T13:38:03Z</time></trkpt><trkpt lat="45.82199469048828" lon="7.318871981723045"><ele>964.3333333333333</ele><time>2026-05-02T13:38:04Z</time></trkpt><trkpt lat="45.82213856246769" lon="7.318863277996784"><ele>971.6666666666666</ele><time>2026-05-02T13:38:05Z</time></trkpt><trkpt lat="45.822298320005295" lon="7.3188400730232575"><ele>979.0</ele><time>2026-05-02T13:38:06Z</time></trkpt><trkpt lat="45.82244681003169" lon="7.3188192982385045"><ele>979.0</ele><time>2026-05-02T13:38:07Z</time></trkpt><trkpt lat="45.82259128729089" lon="7.31880888777265"><ele>979.0</ele><time>2026-05-02T13:38:08Z</time></trkpt><trkpt lat="45.82273179348137" lon="7.318821008238241"><ele>979.0</ele><time>2026-05-02T13:38:09Z</time></trkpt><trkpt lat="45.822869225795046" lon="7.318851402997161"><ele>979.0</ele><time>2026-05-02T13:38:10Z</time></trkpt><trkpt lat="45.823008311093744" lon="7.318921262363814"><ele>979.25</ele><time>2026-05-02T13:38:11Z</time></trkpt><trkpt lat="45.82315055063393" lon="7.318966516223131"><ele>979.5</ele><time>2026-05-02T13:38:12Z</time></trkpt><trkpt lat="45.82326583044176" lon="7.319089973819582"><ele>979.75</ele><time>2026-05-02T13:38:13Z</time></trkpt><trkpt lat="45.82339851251477" lon="7.319203311897175"><ele>980.0</ele><time>2026-05-02T13:38:14Z</time></trkpt><trkpt lat="45.823519462170886" lon="7.319347275865951"><ele>981.5</ele><time>2026-05-02T13:38:15Z</time></trkpt><trkpt lat="45.82360756400246" lon="7.319506037156091"><ele>983.0</ele><time>2026-05-02T13:38:16Z</time></trkpt><trkpt lat="45.823680876047185" lon="7.319642293837242"><ele>984.5</ele><time>2026-05-02T13:38:17Z</time></trkpt><trkpt lat="45.82375445522954" lon="7.319750222474728"><ele>986.0</ele><time>2026-05-02T13:38:18Z</time></trkpt><trkpt lat="45.82383513399939" lon="7.319805208359396"><ele>986.0</ele><time>2026-05-02T13:38:19Z</time></trkpt><trkpt lat="45.823917256693264" lon="7.319784618365923"><ele>985.9999999999999</ele><time>2026-05-02T13:38:20Z</time></trkpt><trkpt lat="45.82398260131938" lon="7.319693647162363"><ele>985.9999999999999</ele><time>2026-05-02T13:38:21Z</time></trkpt><trkpt lat="45.824003068694395" lon="7.3195581755945085"><ele>986.0</ele><time>2026-05-02T13:38:22Z</time></trkpt><trkpt lat="45.82397192991124" lon="7.31941198708888"><ele>986.0</ele><time>2026-05-02T13:38:23Z</time></trkpt><trkpt lat="45.82390614566392" lon="7.319228376682185"><ele>995.3333333333334</ele><time>2026-05-02T13:38:24Z</time></trkpt><trkpt lat="45.82379244557631" lon="7.31904934646007"><ele>1004.6666666666667</ele><time>2026-05-02T13:38:25Z</time></trkpt><trkpt lat="45.82365413174187" lon="7.318858852213428"><ele>1014.0</ele><time>2026-05-02T13:38:26Z</time></trkpt><trkpt lat="45.82349842428984" lon="7.318674307323803"><ele>1010.0</ele><time>2026-05-02T13:38:27Z</time></trkpt><trkpt lat="45.82331923303393" lon="7.318472719524679"><ele>1006.0</ele><time>2026-05-02T13:38:28Z</time></trkpt><trkpt lat="45.82314209530977" lon="7.318279125149787"><ele>1022.5</ele><time>2026-05-02T13:38:29Z</time></trkpt><trkpt lat="45.82297467002602" lon="7.3180428676068905"><ele>1039.0</ele><time>2026-05-02T13:38:30Z</time></trkpt><trkpt lat="45.82283364738803" lon="7.317804894423646"><ele>1039.0</ele><time>2026-05-02T13:38:31Z</time></trkpt><trkpt lat="45.822698006663416" lon="7.317621574858135"><ele>1039.0</ele><time>2026-05-02T13:38:32Z</time></trkpt><trkpt lat="45.82258358321888" lon="7.317467171154098"><ele>1039.0</ele><time>2026-05-02T13:38:33Z</time></trkpt><trkpt lat="45.82250311027703" lon="7.317332203395474"><ele>1037.75</ele><time>2026-05-02T13:38:34Z</time></trkpt><trkpt lat="45.82240713601788" lon="7.317159233549231"><ele>1036.5</ele><time>2026-05-02T13:38:35Z</time></trkpt><trkpt lat="45.82232306705415" lon="7.317000740138506"><ele>1035.25</ele><time>2026-05-02T13:38:36Z</time></trkpt><trkpt lat="45.82224606368971" lon="7.316875126152384"><ele>1034.0</ele><time>2026-05-02T13:38:37Z</time></trkpt><trkpt lat="45.82213761519977" lon="7.316806595522895"><ele>1034.0</ele><time>2026-05-02T13:38:38Z</time></trkpt><trkpt lat="45.822022472902376" lon="7.316867603687665"><ele>1034.0</ele><time>2026-05-02T13:38:39Z</time></trkpt><trkpt lat="45.82191237157459" lon="7.316919876728814"><ele>1034.0</ele><time>2026-05-02T13:38:40Z</time></trkpt><trkpt lat="45.82178446368298" lon="7.31697845419419"><ele>1034.0</ele><time>2026-05-02T13:38:41Z</time></trkpt><trkpt lat="45.821641957295526" lon="7.317046466623798"><ele>1036.0</ele><time>2026-05-02T13:38:42Z</time></trkpt><trkpt lat="45.82149698334793" lon="7.317158176753884"><ele>1038.0</ele><time>2026-05-02T13:38:43Z</time></trkpt><trkpt lat="45.82136642975827" lon="7.317307903604069"><ele>1040.0</ele><time>2026-05-02T13:38:44Z</time></trkpt><trkpt lat="45.821252916556" lon="7.317443402445151"><ele>1037.5</ele><time>2026-05-02T13:38:45Z</time></trkpt><trkpt lat="45.821156238225946" lon="7.317578391799255"><ele>1035.0</ele><time>2026-05-02T13:38:46Z</time></trkpt><trkpt lat="45.82105095820476" lon="7.317697201363982"><ele>1032.5</ele><time>2026-05-02T13:38:47Z</time></trkpt><trkpt lat="45.8209609696056" lon="7.317797783456296"><ele>1030.0</ele><time>2026-05-02T13:38:48Z</time></trkpt><trkpt lat="45.820869461647405" lon="7.317873753915811"><ele>1030.0</ele><time>2026-05-02T13:38:49Z</time></trkpt><trkpt lat="45.8207975648175" lon="7.317872484781187"><ele>1030.0</ele><time>2026-05-02T13:38:50Z</time></trkpt><trkpt lat="45.82071517489866" lon="7.317813427052931"><ele>1030.0</ele><time>2026-05-02T13:38:52Z</time></trkpt><trkpt lat="45.82073855726603" lon="7.317704134667577"><ele>1030.0</ele><time>2026-05-02T13:38:53Z</time></trkpt><trkpt lat="45.82079056827069" lon="7.31764858808002"><ele>1030.0</ele><time>2026-05-02T13:38:54Z</time></trkpt><trkpt lat="45.82086867232067" lon="7.317599685496201"><ele>1030.0</ele><time>2026-05-02T13:38:55Z</time></trkpt><trkpt lat="45.82092233683954" lon="7.317499488494638"><ele>1030.0</ele><time>2026-05-02T13:38:56Z</time></trkpt><trkpt lat="45.82095631178424" lon="7.31734750518355"><ele>1030.0</ele><time>2026-05-02T13:38:57Z</time></trkpt><trkpt lat="45.82099896057073" lon="7.3171856628464225"><ele>1030.0</ele><time>2026-05-02T13:38:58Z</time></trkpt><trkpt lat="45.821060774251464" lon="7.317019516253977"><ele>1030.0</ele><time>2026-05-02T13:38:59Z</time></trkpt><trkpt lat="45.821136944447105" lon="7.31686956495384"><ele>1032.0</ele><time>2026-05-02T13:39:00Z</time></trkpt><trkpt lat="45.82121225512865" lon="7.316753750057147"><ele>1034.0</ele><time>2026-05-02T13:39:01Z</time></trkpt><trkpt lat="45.82129203292468" lon="7.316688029270796"><ele>1036.0</ele><time>2026-05-02T13:39:02Z</time></trkpt><trkpt lat="45.82136133699188" lon="7.316653347993749"><ele>1038.0</ele><time>2026-05-02T13:39:03Z</time></trkpt><trkpt lat="45.82139857467904" lon="7.31657566729926"><ele>1040.0</ele><time>2026-05-02T13:39:04Z</time></trkpt><trkpt lat="45.82135022045722" lon="7.316415760536743"><ele>1040.0</ele><time>2026-05-02T13:39:06Z</time></trkpt><trkpt lat="45.821264683846174" lon="7.316390554620935"><ele>1040.0</ele><time>2026-05-02T13:39:07Z</time></trkpt><trkpt lat="45.8211729966071" lon="7.316448187020314"><ele>1040.0</ele><time>2026-05-02T13:39:08Z</time></trkpt><trkpt lat="45.82106295022928" lon="7.316499007470794"><ele>1040.0</ele><time>2026-05-02T13:39:09Z</time></trkpt><trkpt lat="45.82093085981854" lon="7.316491095920019"><ele>1040.0</ele><time>2026-05-02T13:39:10Z</time></trkpt><trkpt lat="45.820788885855166" lon="7.316507011535894"><ele>1045.3333333333335</ele><time>2026-05-02T13:39:11Z</time></trkpt><trkpt lat="45.82064686975184" lon="7.316521414127005"><ele>1050.6666666666667</ele><time>2026-05-02T13:39:12Z</time></trkpt><trkpt lat="45.82048657822043" lon="7.316531751380176"><ele>1056.0</ele><time>2026-05-02T13:39:13Z</time></trkpt><trkpt lat="45.820310026721884" lon="7.316543794498081"><ele>1056.6666666666667</ele><time>2026-05-02T13:39:14Z</time></trkpt><trkpt lat="45.82012549033576" lon="7.316553117457108"><ele>1057.3333333333335</ele><time>2026-05-02T13:39:15Z</time></trkpt><trkpt lat="45.81994823724681" lon="7.316548134544293"><ele>1058.0</ele><time>2026-05-02T13:39:16Z</time></trkpt><trkpt lat="45.81982022986947" lon="7.3164843120586935"><ele>1062.2</ele><time>2026-05-02T13:39:17Z</time></trkpt><trkpt lat="45.81971490738646" lon="7.316383582298764"><ele>1066.4</ele><time>2026-05-02T13:39:18Z</time></trkpt><trkpt lat="45.81963087719368" lon="7.316270011136346"><ele>1070.6000000000001</ele><time>2026-05-02T13:39:19Z</time></trkpt><trkpt lat="45.819605774487044" lon="7.316185086104672"><ele>1074.8</ele><time>2026-05-02T13:39:20Z</time></trkpt><trkpt lat="45.81956542643834" lon="7.3160714491499474"><ele>1079.0</ele><time>2026-05-02T13:39:21Z</time></trkpt><trkpt lat="45.8195152534793" lon="7.3159491306672635"><ele>1079.0</ele><time>2026-05-02T13:39:22Z</time></trkpt><trkpt lat="45.819486941630565" lon="7.3158548690891445"><ele>1079.0</ele><time>2026-05-02T13:39:23Z</time></trkpt><trkpt lat="45.81946554076269" lon="7.3157325508275"><ele>1079.0</ele><time>2026-05-02T13:39:24Z</time></trkpt><trkpt lat="45.819511612569734" lon="7.315625453910471"><ele>1079.0</ele><time>2026-05-02T13:39:25Z</time></trkpt><trkpt lat="45.81959094481533" lon="7.315575954383997"><ele>1079.0</ele><time>2026-05-02T13:39:26Z</time></trkpt><trkpt lat="45.819674642501695" lon="7.31555392285731"><ele>1079.0</ele><time>2026-05-02T13:39:27Z</time></trkpt><trkpt lat="45.819769070202284" lon="7.315603043769891"><ele>1079.0</ele><time>2026-05-02T13:39:28Z</time></trkpt><trkpt lat="45.819823415435145" lon="7.315724982782085"><ele>1079.0</ele><time>2026-05-02T13:39:29Z</time></trkpt><trkpt lat="45.819871110878594" lon="7.315849931944851"><ele>1079.0</ele><time>2026-05-02T13:39:30Z</time></trkpt><trkpt lat="45.819920390469825" lon="7.3159702761009076"><ele>1079.0</ele><time>2026-05-02T13:39:31Z</time></trkpt><trkpt lat="45.819991859414785" lon="7.316057151782051"><ele>1079.0</ele><time>2026-05-02T13:39:32Z</time></trkpt><trkpt lat="45.82008432755281" lon="7.316111619999373"><ele>1080.5</ele><time>2026-05-02T13:39:33Z</time></trkpt><trkpt lat="45.82018659920154" lon="7.3161034238047735"><ele>1082.0</ele><time>2026-05-02T13:39:34Z</time></trkpt><trkpt lat="45.82029258603432" lon="7.316058342913117"><ele>1083.5</ele><time>2026-05-02T13:39:35Z</time></trkpt><trkpt lat="45.820392663044416" lon="7.315973893153457"><ele>1085.0</ele><time>2026-05-02T13:39:36Z</time></trkpt><trkpt lat="45.8204845926262" lon="7.315862055318138"><ele>1085.0</ele><time>2026-05-02T13:39:37Z</time></trkpt><trkpt lat="45.82058842163574" lon="7.315747254673933"><ele>1085.0</ele><time>2026-05-02T13:39:38Z</time></trkpt><trkpt lat="45.8207035662335" lon="7.315646463595489"><ele>1085.0</ele><time>2026-05-02T13:39:39Z</time></trkpt><trkpt lat="45.82083662998666" lon="7.3155793346290485"><ele>1085.0</ele><time>2026-05-02T13:39:40Z</time></trkpt><trkpt lat="45.82098057132937" lon="7.315530400604317"><ele>1092.0</ele><time>2026-05-02T13:39:41Z</time></trkpt><trkpt lat="45.821127919708736" lon="7.315482293975806"><ele>1099.0</ele><time>2026-05-02T13:39:42Z</time></trkpt><trkpt lat="45.82127132922835" lon="7.315452612568352"><ele>1106.0</ele><time>2026-05-02T13:39:43Z</time></trkpt><trkpt lat="45.82139017611822" lon="7.315471309593936"><ele>1113.0</ele><time>2026-05-02T13:39:44Z</time></trkpt><trkpt lat="45.821496017602655" lon="7.315496137886001"><ele>1113.0</ele><time>2026-05-02T13:39:45Z</time></trkpt><trkpt lat="45.82158517612053" lon="7.315511703023863"><ele>1113.0</ele><time>2026-05-02T13:39:46Z</time></trkpt><trkpt lat="45.82165756747702" lon="7.3154887427309685"><ele>1113.0</ele><time>2026-05-02T13:39:47Z</time></trkpt><trkpt lat="45.821705160070486" lon="7.315424503936099"><ele>1113.0</ele><time>2026-05-02T13:39:48Z</time></trkpt><trkpt lat="45.82167585905457" lon="7.315264492790648"><ele>1113.0</ele><time>2026-05-02T13:39:50Z</time></trkpt><trkpt lat="45.821620940063156" lon="7.3152020979876955"><ele>1113.0</ele><time>2026-05-02T13:39:51Z</time></trkpt><trkpt lat="45.8215258625333" lon="7.315204824640519"><ele>1113.0</ele><time>2026-05-02T13:39:52Z</time></trkpt><trkpt lat="45.821431534602254" lon="7.315225154052906"><ele>1113.0</ele><time>2026-05-02T13:39:53Z</time></trkpt><trkpt lat="45.82131196249915" lon="7.315167172511966"><ele>1113.0</ele><time>2026-05-02T13:39:54Z</time></trkpt><trkpt lat="45.82116398931154" lon="7.315149075442269"><ele>1113.0</ele><time>2026-05-02T13:39:55Z</time></trkpt><trkpt lat="45.82103765844556" lon="7.315144777348659"><ele>1114.2</ele><time>2026-05-02T13:39:56Z</time></trkpt><trkpt lat="45.82093399529704" lon="7.315075801090467"><ele>1115.4</ele><time>2026-05-02T13:39:57Z</time></trkpt><trkpt lat="45.82085864799403" lon="7.314985648445457"><ele>1116.6000000000001</ele><time>2026-05-02T13:39:58Z</time></trkpt><trkpt lat="45.820811644199644" lon="7.314867292310569"><ele>1117.8</ele><time>2026-05-02T13:39:59Z</time></trkpt><trkpt lat="45.820795675745096" lon="7.314708224856986"><ele>1119.0</ele><time>2026-05-02T13:40:00Z</time></trkpt><trkpt lat="45.82075947396293" lon="7.314554921418253"><ele>1119.0</ele><time>2026-05-02T13:40:01Z</time></trkpt><trkpt lat="45.82071166886357" lon="7.3143873376182835"><ele>1119.0</ele><time>2026-05-02T13:40:02Z</time></trkpt><trkpt lat="45.82066555968486" lon="7.3142204450221335"><ele>1119.0</ele><time>2026-05-02T13:40:03Z</time></trkpt><trkpt lat="45.82061855735102" lon="7.314038932303007"><ele>1119.0</ele><time>2026-05-02T13:40:04Z</time></trkpt><trkpt lat="45.82057526925954" lon="7.313852616958683"><ele>1121.0</ele><time>2026-05-02T13:40:05Z</time></trkpt><trkpt lat="45.82055160139066" lon="7.313649012979352"><ele>1123.0</ele><time>2026-05-02T13:40:06Z</time></trkpt><trkpt lat="45.820543948842335" lon="7.313436246468886"><ele>1125.0</ele><time>2026-05-02T13:40:07Z</time></trkpt><trkpt lat="45.82053071723932" lon="7.313249497872132"><ele>1127.0</ele><time>2026-05-02T13:40:08Z</time></trkpt><trkpt lat="45.820495631346304" lon="7.313098006781843"><ele>1130.2</ele><time>2026-05-02T13:40:09Z</time></trkpt><trkpt lat="45.820459224611945" lon="7.312958109075738"><ele>1133.4</ele><time>2026-05-02T13:40:10Z</time></trkpt><trkpt lat="45.82036841771795" lon="7.312878953915196"><ele>1136.6</ele><time>2026-05-02T13:40:11Z</time></trkpt><trkpt lat="45.82025546997354" lon="7.312886371834527"><ele>1139.8</ele><time>2026-05-02T13:40:12Z</time></trkpt><trkpt lat="45.820143508550366" lon="7.312899177492642"><ele>1143.0</ele><time>2026-05-02T13:40:13Z</time></trkpt><trkpt lat="45.82002748503759" lon="7.31294455350786"><ele>1143.0</ele><time>2026-05-02T13:40:14Z</time></trkpt><trkpt lat="45.8199048167987" lon="7.312996965072633"><ele>1143.0</ele><time>2026-05-02T13:40:15Z</time></trkpt><trkpt lat="45.81977533021835" lon="7.313040397549507"><ele>1143.0</ele><time>2026-05-02T13:40:16Z</time></trkpt><trkpt lat="45.819673594437006" lon="7.313058171321949"><ele>1143.0</ele><time>2026-05-02T13:40:17Z</time></trkpt><trkpt lat="45.819585226591066" lon="7.313055603196217"><ele>1143.0</ele><time>2026-05-02T13:40:18Z</time></trkpt><trkpt lat="45.81948714663095" lon="7.313044545138527"><ele>1143.0</ele><time>2026-05-02T13:40:19Z</time></trkpt><trkpt lat="45.819392672850256" lon="7.312971049174508"><ele>1143.0</ele><time>2026-05-02T13:40:20Z</time></trkpt><trkpt lat="45.8193021800614" lon="7.312885275216995"><ele>1143.0</ele><time>2026-05-02T13:40:21Z</time></trkpt><trkpt lat="45.81920891885136" lon="7.3127638699944075"><ele>1143.0</ele><time>2026-05-02T13:40:22Z</time></trkpt><trkpt lat="45.8191036043811" lon="7.312625687474595"><ele>1141.0</ele><time>2026-05-02T13:40:23Z</time></trkpt><trkpt lat="45.8189965949301" lon="7.31248485830813"><ele>1139.0</ele><time>2026-05-02T13:40:24Z</time></trkpt><trkpt lat="45.81889275671531" lon="7.31233747156317"><ele>1137.0</ele><time>2026-05-02T13:40:25Z</time></trkpt><trkpt lat="45.81879469492839" lon="7.312179401369353"><ele>1135.0</ele><time>2026-05-02T13:40:26Z</time></trkpt><trkpt lat="45.81869324562247" lon="7.312040621004272"><ele>1133.75</ele><time>2026-05-02T13:40:27Z</time></trkpt><trkpt lat="45.818613600064175" lon="7.311901742486416"><ele>1132.5</ele><time>2026-05-02T13:40:28Z</time></trkpt><trkpt lat="45.818551893857254" lon="7.311758567174448"><ele>1131.25</ele><time>2026-05-02T13:40:29Z</time></trkpt><trkpt lat="45.81849939705571" lon="7.311606325015651"><ele>1130.0</ele><time>2026-05-02T13:40:30Z</time></trkpt><trkpt lat="45.81845421520924" lon="7.311443052668341"><ele>1132.25</ele><time>2026-05-02T13:40:31Z</time></trkpt><trkpt lat="45.818418023472724" lon="7.311270262935326"><ele>1134.5</ele><time>2026-05-02T13:40:32Z</time></trkpt><trkpt lat="45.81839012524313" lon="7.311092287303509"><ele>1136.75</ele><time>2026-05-02T13:40:33Z</time></trkpt><trkpt lat="45.81837930735547" lon="7.310908657740333"><ele>1139.0</ele><time>2026-05-02T13:40:34Z</time></trkpt><trkpt lat="45.8183884037614" lon="7.3107232350332625"><ele>1140.25</ele><time>2026-05-02T13:40:35Z</time></trkpt><trkpt lat="45.81843196959132" lon="7.310538301402104"><ele>1141.5</ele><time>2026-05-02T13:40:36Z</time></trkpt><trkpt lat="45.81848423334457" lon="7.310362992343727"><ele>1142.75</ele><time>2026-05-02T13:40:37Z</time></trkpt><trkpt lat="45.81853810264525" lon="7.310189728944362"><ele>1144.0</ele><time>2026-05-02T13:40:38Z</time></trkpt><trkpt lat="45.81858302580465" lon="7.310009548458665"><ele>1147.5</ele><time>2026-05-02T13:40:39Z</time></trkpt><trkpt lat="45.81863059851727" lon="7.309807670901257"><ele>1151.0</ele><time>2026-05-02T13:40:40Z</time></trkpt><trkpt lat="45.818662197768376" lon="7.309631858010631"><ele>1154.5</ele><time>2026-05-02T13:40:41Z</time></trkpt><trkpt lat="45.818664917011866" lon="7.309461398913169"><ele>1158.0</ele><time>2026-05-02T13:40:42Z</time></trkpt><trkpt lat="45.81863311152513" lon="7.30930487855854"><ele>1158.0</ele><time>2026-05-02T13:40:43Z</time></trkpt><trkpt lat="45.818573682147694" lon="7.309151548292832"><ele>1158.0</ele><time>2026-05-02T13:40:44Z</time></trkpt><trkpt lat="45.81851214752581" lon="7.308993379721939"><ele>1158.0</ele><time>2026-05-02T13:40:45Z</time></trkpt><trkpt lat="45.81846449320512" lon="7.308820028123605"><ele>1158.0</ele><time>2026-05-02T13:40:46Z</time></trkpt><trkpt lat="45.81842267991717" lon="7.308633927330497"><ele>1158.0</ele><time>2026-05-02T13:40:47Z</time></trkpt><trkpt lat="45.818375642771784" lon="7.3084493747641694"><ele>1158.0</ele><time>2026-05-02T13:40:48Z</time></trkpt><trkpt lat="45.81833467294764" lon="7.308277431770312"><ele>1158.0</ele><time>2026-05-02T13:40:49Z</time></trkpt><trkpt lat="45.81831260827431" lon="7.308105223955467"><ele>1158.0</ele><time>2026-05-02T13:40:50Z</time></trkpt><trkpt lat="45.81830246896821" lon="7.307932978192206"><ele>1159.75</ele><time>2026-05-02T13:40:51Z</time></trkpt><trkpt lat="45.81830031329526" lon="7.307762514863107"><ele>1161.5</ele><time>2026-05-02T13:40:52Z</time></trkpt><trkpt lat="45.81829730232159" lon="7.3075934614589375"><ele>1163.25</ele><time>2026-05-02T13:40:53Z</time></trkpt><trkpt lat="45.818283875356094" lon="7.3074307483025684"><ele>1165.0</ele><time>2026-05-02T13:40:54Z</time></trkpt><trkpt lat="45.818271657211326" lon="7.307278377853605"><ele>1166.5</ele><time>2026-05-02T13:40:55Z</time></trkpt><trkpt lat="45.81825632115524" lon="7.307122640055897"><ele>1168.0</ele><time>2026-05-02T13:40:56Z</time></trkpt><trkpt lat="45.818236078513166" lon="7.306955246653494"><ele>1169.5</ele><time>2026-05-02T13:40:57Z</time></trkpt><trkpt lat="45.818216515096836" lon="7.3067793536807795"><ele>1171.0</ele><time>2026-05-02T13:40:58Z</time></trkpt><trkpt lat="45.81818743726333" lon="7.306599918025158"><ele>1171.0</ele><time>2026-05-02T13:40:59Z</time></trkpt><trkpt lat="45.81815660156655" lon="7.306415836399915"><ele>1171.0</ele><time>2026-05-02T13:41:00Z</time></trkpt><trkpt lat="45.81814101141939" lon="7.306228119676026"><ele>1171.0</ele><time>2026-05-02T13:41:01Z</time></trkpt><trkpt lat="45.81809147527768" lon="7.306058648055718"><ele>1171.0</ele><time>2026-05-02T13:41:02Z</time></trkpt><trkpt lat="45.81805233982995" lon="7.305901194984847"><ele>1171.75</ele><time>2026-05-02T13:41:03Z</time></trkpt><trkpt lat="45.81800433030604" lon="7.305736569556569"><ele>1172.5</ele><time>2026-05-02T13:41:04Z</time></trkpt><trkpt lat="45.81794538077688" lon="7.305574049397021"><ele>1173.25</ele><time>2026-05-02T13:41:05Z</time></trkpt><trkpt lat="45.81789951535352" lon="7.305413787102712"><ele>1174.0</ele><time>2026-05-02T13:41:06Z</time></trkpt><trkpt lat="45.817836458943994" lon="7.305265232260169"><ele>1173.4</ele><time>2026-05-02T13:41:07Z</time></trkpt><trkpt lat="45.81776352621959" lon="7.305138694111029"><ele>1172.8000000000002</ele><time>2026-05-02T13:41:08Z</time></trkpt><trkpt lat="45.817665741876844" lon="7.3050560474087884"><ele>1172.1999999999998</ele><time>2026-05-02T13:41:09Z</time></trkpt><trkpt lat="45.8175553804807" lon="7.305066942716424"><ele>1171.6</ele><time>2026-05-02T13:41:10Z</time></trkpt><trkpt lat="45.81745363711287" lon="7.3050606666808635"><ele>1171.0</ele><time>2026-05-02T13:41:11Z</time></trkpt><trkpt lat="45.81736466284839" lon="7.305015672192494"><ele>1171.0</ele><time>2026-05-02T13:41:12Z</time></trkpt><trkpt lat="45.81725686365627" lon="7.304971270923188"><ele>1171.0</ele><time>2026-05-02T13:41:14Z</time></trkpt><trkpt lat="45.81726502850437" lon="7.304829999714165"><ele>1171.0</ele><time>2026-05-02T13:41:16Z</time></trkpt><trkpt lat="45.81737143647554" lon="7.304818816830388"><ele>1171.0</ele><time>2026-05-02T13:41:18Z</time></trkpt><trkpt lat="45.81746015581899" lon="7.304817173927937"><ele>1171.0</ele><time>2026-05-02T13:41:19Z</time></trkpt><trkpt lat="45.81754512733529" lon="7.3048511911518865"><ele>1172.75</ele><time>2026-05-02T13:41:20Z</time></trkpt><trkpt lat="45.81765719945794" lon="7.304814843293259"><ele>1174.5</ele><time>2026-05-02T13:41:21Z</time></trkpt><trkpt lat="45.81778870510337" lon="7.304725561977976"><ele>1176.25</ele><time>2026-05-02T13:41:22Z</time></trkpt><trkpt lat="45.817924517233145" lon="7.304663010537342"><ele>1178.0</ele><time>2026-05-02T13:41:23Z</time></trkpt><trkpt lat="45.81805392949058" lon="7.3046495677663765"><ele>1178.0</ele><time>2026-05-02T13:41:24Z</time></trkpt><trkpt lat="45.81816268616042" lon="7.304695708551436"><ele>1178.0</ele><time>2026-05-02T13:41:25Z</time></trkpt><trkpt lat="45.81822922320248" lon="7.304809102662999"><ele>1178.0</ele><time>2026-05-02T13:41:26Z</time></trkpt><trkpt lat="45.818317453780466" lon="7.304919745268615"><ele>1178.0</ele><time>2026-05-02T13:41:27Z</time></trkpt><trkpt lat="45.81838496522237" lon="7.305088939383123"><ele>1178.0</ele><time>2026-05-02T13:41:28Z</time></trkpt><trkpt lat="45.818457706815984" lon="7.305229237216276"><ele>1178.0</ele><time>2026-05-02T13:41:29Z</time></trkpt><trkpt lat="45.81852307266395" lon="7.305369448772744"><ele>1178.0</ele><time>2026-05-02T13:41:30Z</time></trkpt><trkpt lat="45.81857577394286" lon="7.305496236858581"><ele>1178.0</ele><time>2026-05-02T13:41:31Z</time></trkpt><trkpt lat="45.81863484128451" lon="7.3055886087844915"><ele>1178.0</ele><time>2026-05-02T13:41:32Z</time></trkpt><trkpt lat="45.81879584378766" lon="7.305469256737129"><ele>1180.6</ele><time>2026-05-02T13:41:35Z</time></trkpt><trkpt lat="45.8188219365433" lon="7.305355310896668"><ele>1183.1999999999998</ele><time>2026-05-02T13:41:36Z</time></trkpt><trkpt lat="45.81884529237227" lon="7.305220991743859"><ele>1185.8</ele><time>2026-05-02T13:41:37Z</time></trkpt><trkpt lat="45.81886986623841" lon="7.305064686811239"><ele>1188.3999999999999</ele><time>2026-05-02T13:41:38Z</time></trkpt><trkpt lat="45.818891549020954" lon="7.3048729349065"><ele>1191.0</ele><time>2026-05-02T13:41:39Z</time></trkpt><trkpt lat="45.81888062966306" lon="7.304678756154579"><ele>1192.5</ele><time>2026-05-02T13:41:40Z</time></trkpt><trkpt lat="45.81882134305321" lon="7.304475463651376"><ele>1194.0</ele><time>2026-05-02T13:41:41Z</time></trkpt><trkpt lat="45.81876057431335" lon="7.304286852120648"><ele>1195.5</ele><time>2026-05-02T13:41:42Z</time></trkpt><trkpt lat="45.818711661794374" lon="7.3041338119337444"><ele>1197.0</ele><time>2026-05-02T13:41:43Z</time></trkpt><trkpt lat="45.818641135707416" lon="7.304031183302973"><ele>1197.0</ele><time>2026-05-02T13:41:44Z</time></trkpt><trkpt lat="45.81853903157594" lon="7.303976812397716"><ele>1197.0</ele><time>2026-05-02T13:41:45Z</time></trkpt><trkpt lat="45.81841571479981" lon="7.303969985160388"><ele>1197.0</ele><time>2026-05-02T13:41:46Z</time></trkpt><trkpt lat="45.81829021418855" lon="7.303944521531465"><ele>1197.0</ele><time>2026-05-02T13:41:47Z</time></trkpt><trkpt lat="45.81817302226092" lon="7.3039406292169335"><ele>1198.2</ele><time>2026-05-02T13:41:48Z</time></trkpt><trkpt lat="45.81807123493468" lon="7.303919876311534"><ele>1199.4</ele><time>2026-05-02T13:41:49Z</time></trkpt><trkpt lat="45.81798668584568" lon="7.3038847106583535"><ele>1200.6</ele><time>2026-05-02T13:41:50Z</time></trkpt><trkpt lat="45.817929014389875" lon="7.303781930008912"><ele>1201.8</ele><time>2026-05-02T13:41:51Z</time></trkpt><trkpt lat="45.81790504638814" lon="7.303649160016581"><ele>1203.0</ele><time>2026-05-02T13:41:52Z</time></trkpt><trkpt lat="45.817902041304215" lon="7.3034938330207595"><ele>1203.0</ele><time>2026-05-02T13:41:53Z</time></trkpt><trkpt lat="45.81789423779941" lon="7.3033216864392365"><ele>1203.0</ele><time>2026-05-02T13:41:54Z</time></trkpt><trkpt lat="45.81787283065558" lon="7.303133480727258"><ele>1203.0</ele><time>2026-05-02T13:41:55Z</time></trkpt><trkpt lat="45.81785692497103" lon="7.3029490948718125"><ele>1203.0</ele><time>2026-05-02T13:41:56Z</time></trkpt><trkpt lat="45.817834424163976" lon="7.302802055173663"><ele>1203.8</ele><time>2026-05-02T13:41:57Z</time></trkpt><trkpt lat="45.81778423797812" lon="7.302693204592326"><ele>1204.6</ele><time>2026-05-02T13:41:58Z</time></trkpt><trkpt lat="45.81772510778854" lon="7.3026096064915595"><ele>1205.4</ele><time>2026-05-02T13:41:59Z</time></trkpt><trkpt lat="45.81762895203414" lon="7.302593310632549"><ele>1206.2</ele><time>2026-05-02T13:42:00Z</time></trkpt><trkpt lat="45.8175297037315" lon="7.302622799833238"><ele>1207.0</ele><time>2026-05-02T13:42:01Z</time></trkpt><trkpt lat="45.81741058956653" lon="7.302688048467157"><ele>1207.0</ele><time>2026-05-02T13:42:02Z</time></trkpt><trkpt lat="45.81727424820607" lon="7.302745106807254"><ele>1207.0</ele><time>2026-05-02T13:42:03Z</time></trkpt><trkpt lat="45.81714037693345" lon="7.302788031295611"><ele>1207.0</ele><time>2026-05-02T13:42:04Z</time></trkpt><trkpt lat="45.81701564396465" lon="7.302806245843991"><ele>1207.0</ele><time>2026-05-02T13:42:05Z</time></trkpt><trkpt lat="45.816901421038054" lon="7.302755852714681"><ele>1208.25</ele><time>2026-05-02T13:42:06Z</time></trkpt><trkpt lat="45.816784291352974" lon="7.302702609669579"><ele>1209.5</ele><time>2026-05-02T13:42:07Z</time></trkpt><trkpt lat="45.816660352212565" lon="7.3026343659247495"><ele>1210.75</ele><time>2026-05-02T13:42:08Z</time></trkpt><trkpt lat="45.816513398504036" lon="7.302574371409282"><ele>1212.0</ele><time>2026-05-02T13:42:09Z</time></trkpt><trkpt lat="45.81636174191588" lon="7.302513993155725"><ele>1212.0</ele><time>2026-05-02T13:42:10Z</time></trkpt><trkpt lat="45.8162392044234" lon="7.3024572930513125"><ele>1212.0</ele><time>2026-05-02T13:42:11Z</time></trkpt><trkpt lat="45.81613166598027" lon="7.302442870282794"><ele>1212.0</ele><time>2026-05-02T13:42:12Z</time></trkpt><trkpt lat="45.81602531938394" lon="7.302429475672047"><ele>1212.0</ele><time>2026-05-02T13:42:13Z</time></trkpt><trkpt lat="45.815901062112935" lon="7.3024811117377375"><ele>1213.75</ele><time>2026-05-02T13:42:14Z</time></trkpt><trkpt lat="45.815778133601306" lon="7.302558762453066"><ele>1215.5</ele><time>2026-05-02T13:42:15Z</time></trkpt><trkpt lat="45.81565672471526" lon="7.302637280975183"><ele>1217.25</ele><time>2026-05-02T13:42:16Z</time></trkpt><trkpt lat="45.81552161448304" lon="7.302731002072123"><ele>1219.0</ele><time>2026-05-02T13:42:17Z</time></trkpt><trkpt lat="45.815372937961776" lon="7.302848113347222"><ele>1219.0</ele><time>2026-05-02T13:42:18Z</time></trkpt><trkpt lat="45.81522307570563" lon="7.3029796540804135"><ele>1219.0</ele><time>2026-05-02T13:42:19Z</time></trkpt><trkpt lat="45.81507404927591" lon="7.303111465295459"><ele>1219.0</ele><time>2026-05-02T13:42:20Z</time></trkpt><trkpt lat="45.8149274176058" lon="7.303234070858904"><ele>1217.3333333333333</ele><time>2026-05-02T13:42:21Z</time></trkpt><trkpt lat="45.814775106315516" lon="7.303321208642469"><ele>1215.6666666666667</ele><time>2026-05-02T13:42:22Z</time></trkpt><trkpt lat="45.8146217954623" lon="7.303441901596551"><ele>1214.0</ele><time>2026-05-02T13:42:23Z</time></trkpt><trkpt lat="45.81448659192888" lon="7.303606400336891"><ele>1214.0</ele><time>2026-05-02T13:42:24Z</time></trkpt><trkpt lat="45.814363374299845" lon="7.303786783028672"><ele>1214.0</ele><time>2026-05-02T13:42:25Z</time></trkpt><trkpt lat="45.8142486374071" lon="7.303962007303712"><ele>1214.0</ele><time>2026-05-02T13:42:26Z</time></trkpt><trkpt lat="45.81414239118247" lon="7.304130487922931"><ele>1214.75</ele><time>2026-05-02T13:42:27Z</time></trkpt><trkpt lat="45.81404637236449" lon="7.304283994580065"><ele>1215.5</ele><time>2026-05-02T13:42:28Z</time></trkpt><trkpt lat="45.81395977189126" lon="7.304422443918122"><ele>1216.25</ele><time>2026-05-02T13:42:29Z</time></trkpt><trkpt lat="45.813877474726915" lon="7.3045499394990285"><ele>1217.0</ele><time>2026-05-02T13:42:30Z</time></trkpt><trkpt lat="45.813791382897314" lon="7.304653803299501"><ele>1216.5</ele><time>2026-05-02T13:42:31Z</time></trkpt><trkpt lat="45.813686215014954" lon="7.30474824297441"><ele>1216.0</ele><time>2026-05-02T13:42:32Z</time></trkpt><trkpt lat="45.81357278353474" lon="7.3048494893680465"><ele>1215.5</ele><time>2026-05-02T13:42:33Z</time></trkpt><trkpt lat="45.81345868344471" lon="7.304975301718361"><ele>1215.0</ele><time>2026-05-02T13:42:34Z</time></trkpt><trkpt lat="45.8133322686157" lon="7.305080756767948"><ele>1215.0</ele><time>2026-05-02T13:42:35Z</time></trkpt><trkpt lat="45.81321310462992" lon="7.305184112855133"><ele>1215.0</ele><time>2026-05-02T13:42:36Z</time></trkpt><trkpt lat="45.81310402641374" lon="7.305286112098787"><ele>1215.0</ele><time>2026-05-02T13:42:37Z</time></trkpt><trkpt lat="45.81299758195138" lon="7.30538432142906"><ele>1215.0</ele><time>2026-05-02T13:42:38Z</time></trkpt><trkpt lat="45.812891007638044" lon="7.305476296231882"><ele>1215.0</ele><time>2026-05-02T13:42:39Z</time></trkpt><trkpt lat="45.812793408522566" lon="7.305554508021376"><ele>1215.0</ele><time>2026-05-02T13:42:40Z</time></trkpt><trkpt lat="45.812696517165314" lon="7.305585803051543"><ele>1215.0</ele><time>2026-05-02T13:42:41Z</time></trkpt><trkpt lat="45.81261023556456" lon="7.305632666237393"><ele>1215.0</ele><time>2026-05-02T13:42:42Z</time></trkpt><trkpt lat="45.812513007141774" lon="7.3056391504670595"><ele>1215.0</ele><time>2026-05-02T13:42:43Z</time></trkpt><trkpt lat="45.81240765749887" lon="7.305624426513499"><ele>1216.8</ele><time>2026-05-02T13:42:44Z</time></trkpt><trkpt lat="45.81230472531552" lon="7.3056131132093824"><ele>1218.6</ele><time>2026-05-02T13:42:45Z</time></trkpt><trkpt lat="45.812185032471305" lon="7.305595251320581"><ele>1220.4</ele><time>2026-05-02T13:42:46Z</time></trkpt><trkpt lat="45.812072063906164" lon="7.305562599753554"><ele>1222.2</ele><time>2026-05-02T13:42:47Z</time></trkpt><trkpt lat="45.811977402126274" lon="7.305489134909127"><ele>1224.0</ele><time>2026-05-02T13:42:48Z</time></trkpt><trkpt lat="45.81189820039" lon="7.305369932223845"><ele>1220.75</ele><time>2026-05-02T13:42:49Z</time></trkpt><trkpt lat="45.81180901908378" lon="7.305248690513208"><ele>1217.5</ele><time>2026-05-02T13:42:50Z</time></trkpt><trkpt lat="45.811700647715526" lon="7.305137374395018"><ele>1214.25</ele><time>2026-05-02T13:42:51Z</time></trkpt><trkpt lat="45.81157543770351" lon="7.305032957992283"><ele>1211.0</ele><time>2026-05-02T13:42:52Z</time></trkpt><trkpt lat="45.81144147800529" lon="7.304923237204696"><ele>1211.0</ele><time>2026-05-02T13:42:53Z</time></trkpt><trkpt lat="45.81130175455186" lon="7.304808795572508"><ele>1211.0</ele><time>2026-05-02T13:42:54Z</time></trkpt><trkpt lat="45.81115401756027" lon="7.304687790362155"><ele>1211.0</ele><time>2026-05-02T13:42:55Z</time></trkpt><trkpt lat="45.8109981621657" lon="7.304561305562042"><ele>1215.0</ele><time>2026-05-02T13:42:56Z</time></trkpt><trkpt lat="45.81083022440227" lon="7.304426402645841"><ele>1219.0</ele><time>2026-05-02T13:42:57Z</time></trkpt><trkpt lat="45.81066005733491" lon="7.304294203511765"><ele>1223.0</ele><time>2026-05-02T13:42:58Z</time></trkpt><trkpt lat="45.81046635328617" lon="7.3041583566236925"><ele>1223.0</ele><time>2026-05-02T13:42:59Z</time></trkpt><trkpt lat="45.810300894391474" lon="7.304051056001205"><ele>1223.0</ele><time>2026-05-02T13:43:00Z</time></trkpt><trkpt lat="45.81015036764961" lon="7.303956141618684"><ele>1223.0</ele><time>2026-05-02T13:43:01Z</time></trkpt><trkpt lat="45.80999867345078" lon="7.30385860352613"><ele>1228.6666666666667</ele><time>2026-05-02T13:43:02Z</time></trkpt><trkpt lat="45.80984983180219" lon="7.303762328163571"><ele>1234.3333333333333</ele><time>2026-05-02T13:43:03Z</time></trkpt><trkpt lat="45.809704670961786" lon="7.303665886610071"><ele>1240.0</ele><time>2026-05-02T13:43:04Z</time></trkpt><trkpt lat="45.80956259313111" lon="7.303563917514314"><ele>1240.0</ele><time>2026-05-02T13:43:05Z</time></trkpt><trkpt lat="45.80942600843823" lon="7.30345377919296"><ele>1240.0</ele><time>2026-05-02T13:43:06Z</time></trkpt><trkpt lat="45.809293799695226" lon="7.303338736893397"><ele>1240.0</ele><time>2026-05-02T13:43:07Z</time></trkpt><trkpt lat="45.8091698864186" lon="7.303222646035034"><ele>1241.75</ele><time>2026-05-02T13:43:08Z</time></trkpt><trkpt lat="45.80905368483337" lon="7.3030988194717805"><ele>1243.5</ele><time>2026-05-02T13:43:09Z</time></trkpt><trkpt lat="45.80895116890039" lon="7.302950319274371"><ele>1245.25</ele><time>2026-05-02T13:43:10Z</time></trkpt><trkpt lat="45.808847262295245" lon="7.302783192124298"><ele>1247.0</ele><time>2026-05-02T13:43:11Z</time></trkpt><trkpt lat="45.80873511072314" lon="7.302621898911385"><ele>1247.0</ele><time>2026-05-02T13:43:12Z</time></trkpt><trkpt lat="45.808595091271535" lon="7.3024852334082615"><ele>1247.0</ele><time>2026-05-02T13:43:13Z</time></trkpt><trkpt lat="45.808450044333355" lon="7.302351747016933"><ele>1247.0</ele><time>2026-05-02T13:43:14Z</time></trkpt><trkpt lat="45.808306655375425" lon="7.302216446795727"><ele>1248.0</ele><time>2026-05-02T13:43:15Z</time></trkpt><trkpt lat="45.808165853585145" lon="7.302083587795734"><ele>1249.0</ele><time>2026-05-02T13:43:16Z</time></trkpt><trkpt lat="45.80802852718825" lon="7.301959142181628"><ele>1250.0</ele><time>2026-05-02T13:43:17Z</time></trkpt><trkpt lat="45.80789207987566" lon="7.301835795934518"><ele>1250.0</ele><time>2026-05-02T13:43:18Z</time></trkpt><trkpt lat="45.807768463611175" lon="7.3017240487557515"><ele>1250.0</ele><time>2026-05-02T13:43:19Z</time></trkpt><trkpt lat="45.807663969770225" lon="7.301628615624995"><ele>1250.0</ele><time>2026-05-02T13:43:20Z</time></trkpt><trkpt lat="45.80757865599161" lon="7.30154378242996"><ele>1250.0</ele><time>2026-05-02T13:43:21Z</time></trkpt><trkpt lat="45.807502474455426" lon="7.301460609103554"><ele>1250.75</ele><time>2026-05-02T13:43:22Z</time></trkpt><trkpt lat="45.807437198896984" lon="7.3013613676694264"><ele>1251.5</ele><time>2026-05-02T13:43:23Z</time></trkpt><trkpt lat="45.80738037617545" lon="7.301229823307408"><ele>1252.25</ele><time>2026-05-02T13:43:24Z</time></trkpt><trkpt lat="45.807316010476434" lon="7.301071361357166"><ele>1253.0</ele><time>2026-05-02T13:43:25Z</time></trkpt><trkpt lat="45.80723342843848" lon="7.300924832262295"><ele>1253.0</ele><time>2026-05-02T13:43:26Z</time></trkpt><trkpt lat="45.8071662009132" lon="7.300753926101152"><ele>1253.0</ele><time>2026-05-02T13:43:27Z</time></trkpt><trkpt lat="45.80708753399786" lon="7.300577070487453"><ele>1253.0</ele><time>2026-05-02T13:43:28Z</time></trkpt><trkpt lat="45.80700565882734" lon="7.300400606253994"><ele>1253.0</ele><time>2026-05-02T13:43:29Z</time></trkpt><trkpt lat="45.806927773310264" lon="7.300231013077512"><ele>1252.25</ele><time>2026-05-02T13:43:30Z</time></trkpt><trkpt lat="45.80684708638623" lon="7.3000686269234105"><ele>1251.5</ele><time>2026-05-02T13:43:31Z</time></trkpt><trkpt lat="45.806761953180064" lon="7.299909860581989"><ele>1250.75</ele><time>2026-05-02T13:43:32Z</time></trkpt><trkpt lat="45.806668893746114" lon="7.2997602136851665"><ele>1250.0</ele><time>2026-05-02T13:43:33Z</time></trkpt><trkpt lat="45.80658540673922" lon="7.299615242893035"><ele>1251.5</ele><time>2026-05-02T13:43:34Z</time></trkpt><trkpt lat="45.806519580701526" lon="7.299474475711308"><ele>1253.0</ele><time>2026-05-02T13:43:35Z</time></trkpt><trkpt lat="45.80646600663878" lon="7.299320794987415"><ele>1254.5</ele><time>2026-05-02T13:43:36Z</time></trkpt><trkpt lat="45.80644410966575" lon="7.299144179987987"><ele>1256.0</ele><time>2026-05-02T13:43:37Z</time></trkpt><trkpt lat="45.80639926285265" lon="7.298991928972988"><ele>1257.25</ele><time>2026-05-02T13:43:38Z</time></trkpt><trkpt lat="45.8063811534519" lon="7.298843388544169"><ele>1258.5</ele><time>2026-05-02T13:43:39Z</time></trkpt><trkpt lat="45.80638611765843" lon="7.298689640307178"><ele>1259.75</ele><time>2026-05-02T13:43:40Z</time></trkpt><trkpt lat="45.806424622230985" lon="7.29853356444018"><ele>1261.0</ele><time>2026-05-02T13:43:41Z</time></trkpt><trkpt lat="45.80647672101358" lon="7.298369601287411"><ele>1261.0</ele><time>2026-05-02T13:43:42Z</time></trkpt><trkpt lat="45.80652510619603" lon="7.298201010288627"><ele>1261.0</ele><time>2026-05-02T13:43:43Z</time></trkpt><trkpt lat="45.80657084818055" lon="7.298044862491046"><ele>1261.0</ele><time>2026-05-02T13:43:44Z</time></trkpt><trkpt lat="45.80659693915606" lon="7.297894803184498"><ele>1261.0</ele><time>2026-05-02T13:43:45Z</time></trkpt><trkpt lat="45.80659985260114" lon="7.2977178430492975"><ele>1262.5</ele><time>2026-05-02T13:43:46Z</time></trkpt><trkpt lat="45.80656860814005" lon="7.297542608143025"><ele>1264.0</ele><time>2026-05-02T13:43:47Z</time></trkpt><trkpt lat="45.806524565276824" lon="7.297354685435003"><ele>1265.5</ele><time>2026-05-02T13:43:48Z</time></trkpt><trkpt lat="45.80647724911234" lon="7.297161602017961"><ele>1267.0</ele><time>2026-05-02T13:43:49Z</time></trkpt><trkpt lat="45.80642426674603" lon="7.296974434197711"><ele>1270.25</ele><time>2026-05-02T13:43:50Z</time></trkpt><trkpt lat="45.806358262210615" lon="7.296804286289847"><ele>1273.5</ele><time>2026-05-02T13:43:51Z</time></trkpt><trkpt lat="45.806280530206195" lon="7.296663269789994"><ele>1276.75</ele><time>2026-05-02T13:43:52Z</time></trkpt><trkpt lat="45.806189328575954" lon="7.296565141202493"><ele>1280.0</ele><time>2026-05-02T13:43:53Z</time></trkpt><trkpt lat="45.80611442314707" lon="7.2964479574111945"><ele>1282.8</ele><time>2026-05-02T13:43:54Z</time></trkpt><trkpt lat="45.80608079789828" lon="7.296315446867801"><ele>1285.6</ele><time>2026-05-02T13:43:55Z</time></trkpt><trkpt lat="45.806071774166" lon="7.296177848720615"><ele>1288.4</ele><time>2026-05-02T13:43:56Z</time></trkpt><trkpt lat="45.806097269726415" lon="7.296010152157898"><ele>1291.2</ele><time>2026-05-02T13:43:57Z</time></trkpt><trkpt lat="45.80610430675246" lon="7.295847007978125"><ele>1294.0</ele><time>2026-05-02T13:43:58Z</time></trkpt><trkpt lat="45.806075410103965" lon="7.2957138734427645"><ele>1294.0</ele><time>2026-05-02T13:43:59Z</time></trkpt><trkpt lat="45.806042239926526" lon="7.295588978423788"><ele>1294.0</ele><time>2026-05-02T13:44:00Z</time></trkpt><trkpt lat="45.80594667369045" lon="7.295530014247509"><ele>1294.0</ele><time>2026-05-02T13:44:01Z</time></trkpt><trkpt lat="45.805838295407995" lon="7.295527885423673"><ele>1294.0</ele><time>2026-05-02T13:44:02Z</time></trkpt><trkpt lat="45.805729760780636" lon="7.295536888230423"><ele>1294.0</ele><time>2026-05-02T13:44:03Z</time></trkpt><trkpt lat="45.80560561398187" lon="7.295533963490952"><ele>1293.5</ele><time>2026-05-02T13:44:04Z</time></trkpt><trkpt lat="45.80547563602318" lon="7.2955039133180675"><ele>1293.0</ele><time>2026-05-02T13:44:05Z</time></trkpt><trkpt lat="45.80536154937199" lon="7.295454546219865"><ele>1292.5</ele><time>2026-05-02T13:44:06Z</time></trkpt><trkpt lat="45.805249237789354" lon="7.295375289637045"><ele>1292.0</ele><time>2026-05-02T13:44:07Z</time></trkpt><trkpt lat="45.805134754506426" lon="7.295294471979136"><ele>1291.5</ele><time>2026-05-02T13:44:08Z</time></trkpt><trkpt lat="45.80501700831486" lon="7.295209225011783"><ele>1291.0</ele><time>2026-05-02T13:44:09Z</time></trkpt><trkpt lat="45.80490290094298" lon="7.295126612542605"><ele>1290.5</ele><time>2026-05-02T13:44:10Z</time></trkpt><trkpt lat="45.80479823466183" lon="7.295072821016729"><ele>1290.0</ele><time>2026-05-02T13:44:11Z</time></trkpt><trkpt lat="45.804722443042934" lon="7.294987008844303"><ele>1290.0</ele><time>2026-05-02T13:44:12Z</time></trkpt><trkpt lat="45.80466388936707" lon="7.294875916562213"><ele>1290.0</ele><time>2026-05-02T13:44:13Z</time></trkpt><trkpt lat="45.80461332803364" lon="7.294736420032364"><ele>1290.0</ele><time>2026-05-02T13:44:14Z</time></trkpt><trkpt lat="45.80456567732526" lon="7.294586021294423"><ele>1290.0</ele><time>2026-05-02T13:44:15Z</time></trkpt><trkpt lat="45.80450948667536" lon="7.294432260325442"><ele>1290.0</ele><time>2026-05-02T13:44:16Z</time></trkpt><trkpt lat="45.80447092454282" lon="7.2942892876643715"><ele>1293.25</ele><time>2026-05-02T13:44:17Z</time></trkpt><trkpt lat="45.80444482662369" lon="7.294142330661726"><ele>1296.5</ele><time>2026-05-02T13:44:18Z</time></trkpt><trkpt lat="45.804441781420934" lon="7.29398311261739"><ele>1299.75</ele><time>2026-05-02T13:44:19Z</time></trkpt><trkpt lat="45.80443949298815" lon="7.293811834673983"><ele>1303.0</ele><time>2026-05-02T13:44:20Z</time></trkpt><trkpt lat="45.8044433624165" lon="7.293640603454661"><ele>1303.25</ele><time>2026-05-02T13:44:21Z</time></trkpt><trkpt lat="45.8044461232295" lon="7.293467913450984"><ele>1303.5</ele><time>2026-05-02T13:44:22Z</time></trkpt><trkpt lat="45.80445938027757" lon="7.29330563184452"><ele>1303.75</ele><time>2026-05-02T13:44:23Z</time></trkpt><trkpt lat="45.804486764774275" lon="7.29315019665045"><ele>1304.0</ele><time>2026-05-02T13:44:24Z</time></trkpt><trkpt lat="45.804541086805386" lon="7.293006312168096"><ele>1304.0</ele><time>2026-05-02T13:44:25Z</time></trkpt><trkpt lat="45.804606792749865" lon="7.292864610810691"><ele>1304.0</ele><time>2026-05-02T13:44:26Z</time></trkpt><trkpt lat="45.80466822833838" lon="7.292712260320007"><ele>1304.0</ele><time>2026-05-02T13:44:27Z</time></trkpt><trkpt lat="45.80473297759105" lon="7.292549743632643"><ele>1304.0</ele><time>2026-05-02T13:44:28Z</time></trkpt><trkpt lat="45.80479717727259" lon="7.292371629082441"><ele>1301.6666666666667</ele><time>2026-05-02T13:44:29Z</time></trkpt><trkpt lat="45.80485230128715" lon="7.292177969503638"><ele>1299.3333333333333</ele><time>2026-05-02T13:44:30Z</time></trkpt><trkpt lat="45.80490180815536" lon="7.291960210820281"><ele>1297.0</ele><time>2026-05-02T13:44:31Z</time></trkpt><trkpt lat="45.80495159052353" lon="7.291739620824943"><ele>1297.0</ele><time>2026-05-02T13:44:32Z</time></trkpt><trkpt lat="45.80499613100948" lon="7.291525204205796"><ele>1297.0</ele><time>2026-05-02T13:44:33Z</time></trkpt><trkpt lat="45.80503794090218" lon="7.2913259149512"><ele>1297.0</ele><time>2026-05-02T13:44:34Z</time></trkpt><trkpt lat="45.805088749670844" lon="7.291149157536405"><ele>1297.0</ele><time>2026-05-02T13:44:35Z</time></trkpt><trkpt lat="45.80516350673978" lon="7.290990893761433"><ele>1299.75</ele><time>2026-05-02T13:44:36Z</time></trkpt><trkpt lat="45.80525766238027" lon="7.290853568480478"><ele>1302.5</ele><time>2026-05-02T13:44:37Z</time></trkpt><trkpt lat="45.8053583062811" lon="7.2907087218970785"><ele>1305.25</ele><time>2026-05-02T13:44:38Z</time></trkpt><trkpt lat="45.80544202653056" lon="7.29053609659273"><ele>1308.0</ele><time>2026-05-02T13:44:39Z</time></trkpt><trkpt lat="45.8055070969891" lon="7.290364409772904"><ele>1308.0</ele><time>2026-05-02T13:44:40Z</time></trkpt><trkpt lat="45.80557926302145" lon="7.29021634444201"><ele>1308.0</ele><time>2026-05-02T13:44:41Z</time></trkpt><trkpt lat="45.805675735091114" lon="7.2901074081333945"><ele>1308.0</ele><time>2026-05-02T13:44:42Z</time></trkpt><trkpt lat="45.80576538265284" lon="7.290010213483519"><ele>1308.0</ele><time>2026-05-02T13:44:43Z</time></trkpt><trkpt lat="45.80582551501545" lon="7.289885609314647"><ele>1304.5</ele><time>2026-05-02T13:44:44Z</time></trkpt><trkpt lat="45.80584884636845" lon="7.289730533096502"><ele>1301.0</ele><time>2026-05-02T13:44:45Z</time></trkpt><trkpt lat="45.805861450010354" lon="7.289542731459427"><ele>1297.5</ele><time>2026-05-02T13:44:46Z</time></trkpt><trkpt lat="45.80587690871072" lon="7.289336276300176"><ele>1294.0</ele><time>2026-05-02T13:44:47Z</time></trkpt><trkpt lat="45.80590385371575" lon="7.289124635889154"><ele>1291.6666666666665</ele><time>2026-05-02T13:44:48Z</time></trkpt><trkpt lat="45.805939905669476" lon="7.288903958022951"><ele>1289.3333333333333</ele><time>2026-05-02T13:44:49Z</time></trkpt><trkpt lat="45.80598132974721" lon="7.288684332842787"><ele>1287.0</ele><time>2026-05-02T13:44:50Z</time></trkpt><trkpt lat="45.80602755944422" lon="7.288453949364506"><ele>1297.3333333333333</ele><time>2026-05-02T13:44:51Z</time></trkpt><trkpt lat="45.80607298704055" lon="7.288219536246769"><ele>1307.6666666666665</ele><time>2026-05-02T13:44:52Z</time></trkpt><trkpt lat="45.80611183699167" lon="7.2880023464251895"><ele>1318.0</ele><time>2026-05-02T13:44:53Z</time></trkpt><trkpt lat="45.80615393404124" lon="7.28780189548384"><ele>1318.0</ele><time>2026-05-02T13:44:54Z</time></trkpt><trkpt lat="45.80621136466193" lon="7.287642412609383"><ele>1318.0</ele><time>2026-05-02T13:44:55Z</time></trkpt><trkpt lat="45.806295718891896" lon="7.287510922351619"><ele>1318.0</ele><time>2026-05-02T13:44:56Z</time></trkpt><trkpt lat="45.80639336756679" lon="7.287400985855168"><ele>1318.0</ele><time>2026-05-02T13:44:57Z</time></trkpt><trkpt lat="45.80648009062685" lon="7.287290737396417"><ele>1317.0</ele><time>2026-05-02T13:44:58Z</time></trkpt><trkpt lat="45.806541909478376" lon="7.287159510647419"><ele>1316.0</ele><time>2026-05-02T13:44:59Z</time></trkpt><trkpt lat="45.8065828243214" lon="7.287010315845569"><ele>1315.0</ele><time>2026-05-02T13:45:00Z</time></trkpt><trkpt lat="45.80657790518255" lon="7.286849836985695"><ele>1314.0</ele><time>2026-05-02T13:45:01Z</time></trkpt><trkpt lat="45.80653771388955" lon="7.286681897560188"><ele>1314.0</ele><time>2026-05-02T13:45:02Z</time></trkpt><trkpt lat="45.8064785370285" lon="7.286516505930707"><ele>1314.0</ele><time>2026-05-02T13:45:03Z</time></trkpt><trkpt lat="45.80641823853606" lon="7.286342801371463"><ele>1314.0</ele><time>2026-05-02T13:45:04Z</time></trkpt><trkpt lat="45.806385555094614" lon="7.286147849099532"><ele>1314.0</ele><time>2026-05-02T13:45:05Z</time></trkpt><trkpt lat="45.806362906833535" lon="7.285946378286648"><ele>1315.5</ele><time>2026-05-02T13:45:06Z</time></trkpt><trkpt lat="45.806352870324716" lon="7.285770689399168"><ele>1317.0</ele><time>2026-05-02T13:45:07Z</time></trkpt><trkpt lat="45.80630346772652" lon="7.285619448164151"><ele>1318.5</ele><time>2026-05-02T13:45:08Z</time></trkpt><trkpt lat="45.806218079610076" lon="7.2854926855667115"><ele>1320.0</ele><time>2026-05-02T13:45:09Z</time></trkpt><trkpt lat="45.80614475989124" lon="7.285359842825631"><ele>1322.5</ele><time>2026-05-02T13:45:10Z</time></trkpt><trkpt lat="45.80608835289184" lon="7.2852141087418305"><ele>1325.0</ele><time>2026-05-02T13:45:11Z</time></trkpt><trkpt lat="45.80606148614331" lon="7.285046518352653"><ele>1327.5</ele><time>2026-05-02T13:45:12Z</time></trkpt><trkpt lat="45.80606268857999" lon="7.284868411679797"><ele>1330.0</ele><time>2026-05-02T13:45:13Z</time></trkpt><trkpt lat="45.806072221334176" lon="7.284677416827942"><ele>1330.0</ele><time>2026-05-02T13:45:14Z</time></trkpt><trkpt lat="45.806099522882526" lon="7.284490195842257"><ele>1330.0</ele><time>2026-05-02T13:45:15Z</time></trkpt><trkpt lat="45.8061600436377" lon="7.284303726001678"><ele>1330.0</ele><time>2026-05-02T13:45:16Z</time></trkpt><trkpt lat="45.80623240386337" lon="7.284105364044927"><ele>1330.0</ele><time>2026-05-02T13:45:17Z</time></trkpt><trkpt lat="45.80630204057256" lon="7.283893672671399"><ele>1325.6666666666665</ele><time>2026-05-02T13:45:18Z</time></trkpt><trkpt lat="45.806371894990505" lon="7.28366017691404"><ele>1321.3333333333333</ele><time>2026-05-02T13:45:19Z</time></trkpt><trkpt lat="45.80642559244476" lon="7.28342622992299"><ele>1317.0</ele><time>2026-05-02T13:45:20Z</time></trkpt><trkpt lat="45.80647802550242" lon="7.283226184087488"><ele>1312.5</ele><time>2026-05-02T13:45:21Z</time></trkpt><trkpt lat="45.8065292783749" lon="7.283039882840777"><ele>1308.0</ele><time>2026-05-02T13:45:22Z</time></trkpt><trkpt lat="45.80658498148789" lon="7.282875312527349"><ele>1303.5</ele><time>2026-05-02T13:45:23Z</time></trkpt><trkpt lat="45.80664903725964" lon="7.282731556866896"><ele>1299.0</ele><time>2026-05-02T13:45:24Z</time></trkpt><trkpt lat="45.80672781139249" lon="7.282593822774021"><ele>1299.0</ele><time>2026-05-02T13:45:25Z</time></trkpt><trkpt lat="45.80681495928852" lon="7.2824515703742785"><ele>1299.0</ele><time>2026-05-02T13:45:26Z</time></trkpt><trkpt lat="45.80690873080504" lon="7.282300553349147"><ele>1299.0</ele><time>2026-05-02T13:45:27Z</time></trkpt><trkpt lat="45.807004738003336" lon="7.2821376174615144"><ele>1299.0</ele><time>2026-05-02T13:45:28Z</time></trkpt><trkpt lat="45.80710882097211" lon="7.281961307477134"><ele>1304.3333333333333</ele><time>2026-05-02T13:45:29Z</time></trkpt><trkpt lat="45.80721848840155" lon="7.281789790629851"><ele>1309.6666666666665</ele><time>2026-05-02T13:45:30Z</time></trkpt><trkpt lat="45.8073347285155" lon="7.281614119413524"><ele>1315.0</ele><time>2026-05-02T13:45:31Z</time></trkpt><trkpt lat="45.80745177766532" lon="7.281448628523366"><ele>1319.5</ele><time>2026-05-02T13:45:32Z</time></trkpt><trkpt lat="45.80755767387708" lon="7.281298488179544"><ele>1324.0</ele><time>2026-05-02T13:45:33Z</time></trkpt><trkpt lat="45.807659373134854" lon="7.281163360025459"><ele>1328.5</ele><time>2026-05-02T13:45:34Z</time></trkpt><trkpt lat="45.807750613589135" lon="7.281034045762348"><ele>1333.0</ele><time>2026-05-02T13:45:35Z</time></trkpt><trkpt lat="45.807820492947855" lon="7.280886675764849"><ele>1333.0</ele><time>2026-05-02T13:45:36Z</time></trkpt><trkpt lat="45.8078552277192" lon="7.28071575787266"><ele>1333.0</ele><time>2026-05-02T13:45:37Z</time></trkpt><trkpt lat="45.80787516993076" lon="7.280529902217337"><ele>1333.0</ele><time>2026-05-02T13:45:38Z</time></trkpt><trkpt lat="45.807916188550564" lon="7.280353485145086"><ele>1333.0</ele><time>2026-05-02T13:45:39Z</time></trkpt><trkpt lat="45.807976047990344" lon="7.280179640637712"><ele>1329.25</ele><time>2026-05-02T13:45:40Z</time></trkpt><trkpt lat="45.8080429487985" lon="7.279995191089545"><ele>1325.5</ele><time>2026-05-02T13:45:41Z</time></trkpt><trkpt lat="45.808104067692554" lon="7.279820409294193"><ele>1321.75</ele><time>2026-05-02T13:45:42Z</time></trkpt><trkpt lat="45.80817827266497" lon="7.279676589561513"><ele>1318.0</ele><time>2026-05-02T13:45:43Z</time></trkpt><trkpt lat="45.80827370386716" lon="7.279553382369951"><ele>1321.25</ele><time>2026-05-02T13:45:44Z</time></trkpt><trkpt lat="45.80838001987969" lon="7.27943379100554"><ele>1324.5</ele><time>2026-05-02T13:45:45Z</time></trkpt><trkpt lat="45.80848830453418" lon="7.279306884405536"><ele>1327.75</ele><time>2026-05-02T13:45:46Z</time></trkpt><trkpt lat="45.808587445590575" lon="7.279183197148569"><ele>1331.0</ele><time>2026-05-02T13:45:47Z</time></trkpt><trkpt lat="45.808665108820996" lon="7.279053539316304"><ele>1328.1999999999998</ele><time>2026-05-02T13:45:48Z</time></trkpt><trkpt lat="45.80870848441691" lon="7.278901481310415"><ele>1325.3999999999999</ele><time>2026-05-02T13:45:49Z</time></trkpt><trkpt lat="45.80874998724074" lon="7.278754019952393"><ele>1322.6</ele><time>2026-05-02T13:45:50Z</time></trkpt><trkpt lat="45.808825522182524" lon="7.278651735535448"><ele>1319.8</ele><time>2026-05-02T13:45:51Z</time></trkpt><trkpt lat="45.80892953421337" lon="7.278575654879857"><ele>1317.0</ele><time>2026-05-02T13:45:52Z</time></trkpt><trkpt lat="45.80900610645026" lon="7.278461965362446"><ele>1317.0</ele><time>2026-05-02T13:45:53Z</time></trkpt><trkpt lat="45.8090192552098" lon="7.278290715370035"><ele>1317.0</ele><time>2026-05-02T13:45:54Z</time></trkpt><trkpt lat="45.80903046037185" lon="7.278138145462011"><ele>1317.0</ele><time>2026-05-02T13:45:55Z</time></trkpt><trkpt lat="45.809066364045755" lon="7.278014710584902"><ele>1317.0</ele><time>2026-05-02T13:45:56Z</time></trkpt><trkpt lat="45.80912827871032" lon="7.277944779815251"><ele>1317.0</ele><time>2026-05-02T13:45:57Z</time></trkpt><trkpt lat="45.80921529513031" lon="7.277948384464124"><ele>1312.25</ele><time>2026-05-02T13:45:58Z</time></trkpt><trkpt lat="45.80933778275097" lon="7.277975614680345"><ele>1307.5</ele><time>2026-05-02T13:45:59Z</time></trkpt><trkpt lat="45.80946736620643" lon="7.277972699091391"><ele>1302.75</ele><time>2026-05-02T13:46:00Z</time></trkpt><trkpt lat="45.80960352237927" lon="7.277961804009727"><ele>1298.0</ele><time>2026-05-02T13:46:01Z</time></trkpt><trkpt lat="45.80972024257182" lon="7.277935309522632"><ele>1298.0</ele><time>2026-05-02T13:46:02Z</time></trkpt><trkpt lat="45.80983046605449" lon="7.277937040416354"><ele>1298.0</ele><time>2026-05-02T13:46:03Z</time></trkpt><trkpt lat="45.809947486452984" lon="7.277987754825021"><ele>1298.0</ele><time>2026-05-02T13:46:04Z</time></trkpt><trkpt lat="45.810081266808844" lon="7.278033070015612"><ele>1298.0</ele><time>2026-05-02T13:46:05Z</time></trkpt><trkpt lat="45.81021475936551" lon="7.278079203268984"><ele>1303.5</ele><time>2026-05-02T13:46:06Z</time></trkpt><trkpt lat="45.810356293871465" lon="7.278133955177185"><ele>1309.0</ele><time>2026-05-02T13:46:07Z</time></trkpt><trkpt lat="45.810499507983515" lon="7.2782313012743565"><ele>1314.5</ele><time>2026-05-02T13:46:08Z</time></trkpt><trkpt lat="45.81062669879912" lon="7.27830823741173"><ele>1320.0</ele><time>2026-05-02T13:46:09Z</time></trkpt><trkpt lat="45.81073394974659" lon="7.278414709929855"><ele>1320.0</ele><time>2026-05-02T13:46:10Z</time></trkpt><trkpt lat="45.81085351831036" lon="7.278480283763729"><ele>1320.0</ele><time>2026-05-02T13:46:11Z</time></trkpt><trkpt lat="45.81096429295486" lon="7.278524520363702"><ele>1320.0</ele><time>2026-05-02T13:46:12Z</time></trkpt><trkpt lat="45.81108478392893" lon="7.278518316257522"><ele>1320.0</ele><time>2026-05-02T13:46:13Z</time></trkpt><trkpt lat="45.81120998759395" lon="7.278492111566575"><ele>1320.8</ele><time>2026-05-02T13:46:14Z</time></trkpt><trkpt lat="45.811347929894765" lon="7.278474177054012"><ele>1321.6</ele><time>2026-05-02T13:46:15Z</time></trkpt><trkpt lat="45.811467811184784" lon="7.2784682601503405"><ele>1322.4</ele><time>2026-05-02T13:46:16Z</time></trkpt><trkpt lat="45.811560939031125" lon="7.27844345660063"><ele>1323.2</ele><time>2026-05-02T13:46:17Z</time></trkpt><trkpt lat="45.811628267830315" lon="7.278396546565537"><ele>1324.0</ele><time>2026-05-02T13:46:18Z</time></trkpt><trkpt lat="45.81167820439812" lon="7.278341357100548"><ele>1324.0</ele><time>2026-05-02T13:46:19Z</time></trkpt><trkpt lat="45.811748317648885" lon="7.278221046412964"><ele>1324.0</ele><time>2026-05-02T13:46:21Z</time></trkpt><trkpt lat="45.8117458640933" lon="7.278107451053984"><ele>1324.0</ele><time>2026-05-02T13:46:22Z</time></trkpt><trkpt lat="45.81170393847398" lon="7.277985864823976"><ele>1324.0</ele><time>2026-05-02T13:46:23Z</time></trkpt><trkpt lat="45.811596827669014" lon="7.277912297667802"><ele>1324.0</ele><time>2026-05-02T13:46:24Z</time></trkpt><trkpt lat="45.81148933708149" lon="7.277825330938553"><ele>1325.0</ele><time>2026-05-02T13:46:25Z</time></trkpt><trkpt lat="45.811373163517096" lon="7.277705748926699"><ele>1326.0</ele><time>2026-05-02T13:46:26Z</time></trkpt><trkpt lat="45.811268049653314" lon="7.2775539498051725"><ele>1327.0</ele><time>2026-05-02T13:46:27Z</time></trkpt><trkpt lat="45.81117137430562" lon="7.277384954944947"><ele>1328.0</ele><time>2026-05-02T13:46:28Z</time></trkpt><trkpt lat="45.811062749235354" lon="7.277223185770987"><ele>1321.0</ele><time>2026-05-02T13:46:29Z</time></trkpt><trkpt lat="45.81097241315789" lon="7.277058347695106"><ele>1314.0</ele><time>2026-05-02T13:46:30Z</time></trkpt><trkpt lat="45.81088684601998" lon="7.276899383545026"><ele>1307.0</ele><time>2026-05-02T13:46:31Z</time></trkpt><trkpt lat="45.81080328859752" lon="7.276749193985009"><ele>1300.0</ele><time>2026-05-02T13:46:32Z</time></trkpt><trkpt lat="45.81073526375257" lon="7.27660647948264"><ele>1300.0</ele><time>2026-05-02T13:46:33Z</time></trkpt><trkpt lat="45.810704881960774" lon="7.276457620381765"><ele>1300.0</ele><time>2026-05-02T13:46:34Z</time></trkpt><trkpt lat="45.81071656737349" lon="7.2762927964456"><ele>1300.0</ele><time>2026-05-02T13:46:35Z</time></trkpt><trkpt lat="45.81074311417155" lon="7.276120969054098"><ele>1300.0</ele><time>2026-05-02T13:46:36Z</time></trkpt><trkpt lat="45.81076371865689" lon="7.275945580383261"><ele>1301.0</ele><time>2026-05-02T13:46:37Z</time></trkpt><trkpt lat="45.81074920545536" lon="7.275781166238736"><ele>1302.0</ele><time>2026-05-02T13:46:38Z</time></trkpt><trkpt lat="45.810708984335626" lon="7.275639382143821"><ele>1303.0</ele><time>2026-05-02T13:46:39Z</time></trkpt><trkpt lat="45.81060002191399" lon="7.275520840330828"><ele>1304.0</ele><time>2026-05-02T13:46:40Z</time></trkpt><trkpt lat="45.810473258058614" lon="7.275427603597323"><ele>1300.3333333333335</ele><time>2026-05-02T13:46:41Z</time></trkpt><trkpt lat="45.810336230865424" lon="7.275359068517162"><ele>1296.6666666666667</ele><time>2026-05-02T13:46:42Z</time></trkpt><trkpt lat="45.81019101475098" lon="7.2752885480308755"><ele>1293.0</ele><time>2026-05-02T13:46:43Z</time></trkpt><trkpt lat="45.810030889798995" lon="7.275202858154761"><ele>1293.0</ele><time>2026-05-02T13:46:44Z</time></trkpt><trkpt lat="45.809870469527844" lon="7.275122099936561"><ele>1293.0</ele><time>2026-05-02T13:46:45Z</time></trkpt><trkpt lat="45.80971688161916" lon="7.275052210733071"><ele>1293.0</ele><time>2026-05-02T13:46:46Z</time></trkpt><trkpt lat="45.80958698794316" lon="7.27499469543562"><ele>1293.0</ele><time>2026-05-02T13:46:47Z</time></trkpt><trkpt lat="45.80948203627866" lon="7.274939276167395"><ele>1293.0</ele><time>2026-05-02T13:46:48Z</time></trkpt><trkpt lat="45.80939951310954" lon="7.2748865052458545"><ele>1293.0</ele><time>2026-05-02T13:46:49Z</time></trkpt><trkpt lat="45.809361453471496" lon="7.274780822036728"><ele>1293.0</ele><time>2026-05-02T13:46:50Z</time></trkpt><trkpt lat="45.809367554071116" lon="7.274645859133877"><ele>1293.0</ele><time>2026-05-02T13:46:51Z</time></trkpt><trkpt lat="45.80940992045611" lon="7.274499886060185"><ele>1294.75</ele><time>2026-05-02T13:46:52Z</time></trkpt><trkpt lat="45.809439512011465" lon="7.27433480431137"><ele>1296.5</ele><time>2026-05-02T13:46:53Z</time></trkpt><trkpt lat="45.80943426753187" lon="7.27416618339739"><ele>1298.25</ele><time>2026-05-02T13:46:54Z</time></trkpt><trkpt lat="45.809391370906766" lon="7.274019323183421"><ele>1300.0</ele><time>2026-05-02T13:46:55Z</time></trkpt><trkpt lat="45.80931388259438" lon="7.273894790344239"><ele>1293.0</ele><time>2026-05-02T13:46:56Z</time></trkpt><trkpt lat="45.80921615205214" lon="7.27381859675249"><ele>1286.0</ele><time>2026-05-02T13:46:57Z</time></trkpt><trkpt lat="45.809109282124275" lon="7.273742617267351"><ele>1279.0</ele><time>2026-05-02T13:46:58Z</time></trkpt><trkpt lat="45.80901317113428" lon="7.273637866017706"><ele>1272.0</ele><time>2026-05-02T13:46:59Z</time></trkpt><trkpt lat="45.80893472492058" lon="7.27349653192585"><ele>1272.0</ele><time>2026-05-02T13:47:00Z</time></trkpt><trkpt lat="45.80887099827506" lon="7.273353247807936"><ele>1272.0</ele><time>2026-05-02T13:47:01Z</time></trkpt><trkpt lat="45.808814237510155" lon="7.273196627606456"><ele>1272.0</ele><time>2026-05-02T13:47:02Z</time></trkpt><trkpt lat="45.808767882513514" lon="7.273038088397296"><ele>1272.0</ele><time>2026-05-02T13:47:03Z</time></trkpt><trkpt lat="45.808728841462845" lon="7.272878345837689"><ele>1271.6</ele><time>2026-05-02T13:47:04Z</time></trkpt><trkpt lat="45.808697599069475" lon="7.272709006534477"><ele>1271.2</ele><time>2026-05-02T13:47:05Z</time></trkpt><trkpt lat="45.8086830762049" lon="7.272550154982595"><ele>1270.8</ele><time>2026-05-02T13:47:06Z</time></trkpt><trkpt lat="45.808668015486845" lon="7.272396593840724"><ele>1270.4</ele><time>2026-05-02T13:47:07Z</time></trkpt><trkpt lat="45.80865000125922" lon="7.272249448135122"><ele>1270.0</ele><time>2026-05-02T13:47:08Z</time></trkpt><trkpt lat="45.808633543511746" lon="7.272113483069205"><ele>1270.0</ele><time>2026-05-02T13:47:09Z</time></trkpt><trkpt lat="45.808616744834886" lon="7.271977763177313"><ele>1270.0</ele><time>2026-05-02T13:47:10Z</time></trkpt><trkpt lat="45.80859694283197" lon="7.271846409588185"><ele>1270.0</ele><time>2026-05-02T13:47:11Z</time></trkpt><trkpt lat="45.8085897467653" lon="7.2717377959279625"><ele>1270.0</ele><time>2026-05-02T13:47:12Z</time></trkpt><trkpt lat="45.808639167751984" lon="7.271574522683264"><ele>1270.0</ele><time>2026-05-02T13:47:14Z</time></trkpt><trkpt lat="45.80871602230674" lon="7.271466922938545"><ele>1265.6</ele><time>2026-05-02T13:47:15Z</time></trkpt><trkpt lat="45.80880203920892" lon="7.271414837147132"><ele>1261.2</ele><time>2026-05-02T13:47:16Z</time></trkpt><trkpt lat="45.808894355887055" lon="7.271370311849792"><ele>1256.8</ele><time>2026-05-02T13:47:17Z</time></trkpt><trkpt lat="45.80898123376979" lon="7.271288219849585"><ele>1252.4</ele><time>2026-05-02T13:47:18Z</time></trkpt><trkpt lat="45.80906864608246" lon="7.271209889839819"><ele>1248.0</ele><time>2026-05-02T13:47:19Z</time></trkpt><trkpt lat="45.809142795014914" lon="7.271111355220373"><ele>1248.0</ele><time>2026-05-02T13:47:20Z</time></trkpt><trkpt lat="45.809210173100844" lon="7.270998338565752"><ele>1248.0</ele><time>2026-05-02T13:47:21Z</time></trkpt><trkpt lat="45.80926828999906" lon="7.270859680277647"><ele>1248.0</ele><time>2026-05-02T13:47:22Z</time></trkpt><trkpt lat="45.80934383711157" lon="7.270691486344559"><ele>1248.0</ele><time>2026-05-02T13:47:23Z</time></trkpt><trkpt lat="45.809430383945696" lon="7.27051175553202"><ele>1252.3333333333333</ele><time>2026-05-02T13:47:24Z</time></trkpt><trkpt lat="45.8095390109844" lon="7.270312316064524"><ele>1256.6666666666665</ele><time>2026-05-02T13:47:25Z</time></trkpt><trkpt lat="45.80963112112446" lon="7.270133971433109"><ele>1261.0</ele><time>2026-05-02T13:47:26Z</time></trkpt><trkpt lat="45.80970085476763" lon="7.269982732936453"><ele>1261.0</ele><time>2026-05-02T13:47:27Z</time></trkpt><trkpt lat="45.80974210174236" lon="7.26984696148986"><ele>1261.0</ele><time>2026-05-02T13:47:28Z</time></trkpt><trkpt lat="45.809740015502676" lon="7.2697263482073256"><ele>1261.0</ele><time>2026-05-02T13:47:29Z</time></trkpt><trkpt lat="45.80970861563786" lon="7.269593166549844"><ele>1261.0</ele><time>2026-05-02T13:47:30Z</time></trkpt><trkpt lat="45.80964170477102" lon="7.269476186689099"><ele>1261.0</ele><time>2026-05-02T13:47:31Z</time></trkpt><trkpt lat="45.80953516593102" lon="7.269427264762714"><ele>1259.75</ele><time>2026-05-02T13:47:32Z</time></trkpt><trkpt lat="45.80941459504096" lon="7.269338408397513"><ele>1258.5</ele><time>2026-05-02T13:47:33Z</time></trkpt><trkpt lat="45.809277399583486" lon="7.2692729910773615"><ele>1257.25</ele><time>2026-05-02T13:47:34Z</time></trkpt><trkpt lat="45.809131377275655" lon="7.269207637835235"><ele>1256.0</ele><time>2026-05-02T13:47:35Z</time></trkpt><trkpt lat="45.80900096251369" lon="7.269151998786643"><ele>1256.0</ele><time>2026-05-02T13:47:36Z</time></trkpt><trkpt lat="45.80889024084197" lon="7.269098800631738"><ele>1256.0</ele><time>2026-05-02T13:47:37Z</time></trkpt><trkpt lat="45.80878705844677" lon="7.269048635718403"><ele>1256.0</ele><time>2026-05-02T13:47:38Z</time></trkpt><trkpt lat="45.80871120995282" lon="7.268930363581432"><ele>1256.0</ele><time>2026-05-02T13:47:39Z</time></trkpt><trkpt lat="45.80866967630932" lon="7.268786067519266"><ele>1256.0</ele><time>2026-05-02T13:47:40Z</time></trkpt><trkpt lat="45.808665819097605" lon="7.268638319317186"><ele>1261.5</ele><time>2026-05-02T13:47:41Z</time></trkpt><trkpt lat="45.808699833192996" lon="7.26847949311478"><ele>1267.0</ele><time>2026-05-02T13:47:42Z</time></trkpt><trkpt lat="45.8087373570171" lon="7.268284624486884"><ele>1272.5</ele><time>2026-05-02T13:47:43Z</time></trkpt><trkpt lat="45.808783207983126" lon="7.268081176527098"><ele>1278.0</ele><time>2026-05-02T13:47:44Z</time></trkpt><trkpt lat="45.808827133338774" lon="7.267859188815743"><ele>1278.0</ele><time>2026-05-02T13:47:45Z</time></trkpt><trkpt lat="45.808886670947345" lon="7.267627486899249"><ele>1278.0</ele><time>2026-05-02T13:47:46Z</time></trkpt><trkpt lat="45.8089371776345" lon="7.267404077620615"><ele>1278.0</ele><time>2026-05-02T13:47:47Z</time></trkpt><trkpt lat="45.80894985171867" lon="7.267186162040324"><ele>1279.75</ele><time>2026-05-02T13:47:48Z</time></trkpt><trkpt lat="45.808936014167784" lon="7.266979509680488"><ele>1281.5</ele><time>2026-05-02T13:47:49Z</time></trkpt><trkpt lat="45.808886050841316" lon="7.266804267761424"><ele>1283.25</ele><time>2026-05-02T13:47:50Z</time></trkpt><trkpt lat="45.80886174750052" lon="7.266625177701461"><ele>1285.0</ele><time>2026-05-02T13:47:51Z</time></trkpt><trkpt lat="45.80885580529281" lon="7.266449141019417"><ele>1286.0</ele><time>2026-05-02T13:47:52Z</time></trkpt><trkpt lat="45.80886762524532" lon="7.266251477473183"><ele>1287.0</ele><time>2026-05-02T13:47:53Z</time></trkpt><trkpt lat="45.80889018220538" lon="7.266022616638656"><ele>1288.0</ele><time>2026-05-02T13:47:54Z</time></trkpt><trkpt lat="45.80890473723553" lon="7.265769745582609"><ele>1288.0</ele><time>2026-05-02T13:47:55Z</time></trkpt><trkpt lat="45.80892479537473" lon="7.265500610323861"><ele>1288.0</ele><time>2026-05-02T13:47:56Z</time></trkpt><trkpt lat="45.80895108638608" lon="7.265216278620135"><ele>1288.0</ele><time>2026-05-02T13:47:57Z</time></trkpt><trkpt lat="45.80898036500735" lon="7.264921647892166"><ele>1288.6666666666665</ele><time>2026-05-02T13:47:58Z</time></trkpt><trkpt lat="45.80901259762037" lon="7.264607902975877"><ele>1289.3333333333333</ele><time>2026-05-02T13:47:59Z</time></trkpt><trkpt lat="45.80903965681621" lon="7.264289243861024"><ele>1290.0</ele><time>2026-05-02T13:48:00Z</time></trkpt><trkpt lat="45.80906132223731" lon="7.2639953645773305"><ele>1292.6666666666667</ele><time>2026-05-02T13:48:01Z</time></trkpt><trkpt lat="45.80905300921937" lon="7.263720182244771"><ele>1295.3333333333335</ele><time>2026-05-02T13:48:02Z</time></trkpt><trkpt lat="45.80902257759781" lon="7.26346038480938"><ele>1298.0</ele><time>2026-05-02T13:48:03Z</time></trkpt><trkpt lat="45.8089841723518" lon="7.263204295812533"><ele>1300.3333333333335</ele><time>2026-05-02T13:48:04Z</time></trkpt><trkpt lat="45.80894061576949" lon="7.262953551984386"><ele>1302.6666666666667</ele><time>2026-05-02T13:48:05Z</time></trkpt><trkpt lat="45.8089036959899" lon="7.262701198415383"><ele>1305.0</ele><time>2026-05-02T13:48:06Z</time></trkpt><trkpt lat="45.80886540449067" lon="7.262462549955714"><ele>1306.0</ele><time>2026-05-02T13:48:07Z</time></trkpt><trkpt lat="45.80882906956319" lon="7.26222822643894"><ele>1307.0</ele><time>2026-05-02T13:48:08Z</time></trkpt><trkpt lat="45.808793576471444" lon="7.262015413756923"><ele>1308.0</ele><time>2026-05-02T13:48:09Z</time></trkpt><trkpt lat="45.80876442359957" lon="7.261816776742578"><ele>1308.0</ele><time>2026-05-02T13:48:10Z</time></trkpt><trkpt lat="45.80874568899842" lon="7.261626038299614"><ele>1308.0</ele><time>2026-05-02T13:48:11Z</time></trkpt><trkpt lat="45.80874009527353" lon="7.261424947995399"><ele>1308.0</ele><time>2026-05-02T13:48:12Z</time></trkpt><trkpt lat="45.808747432567515" lon="7.261207657682665"><ele>1308.0</ele><time>2026-05-02T13:48:13Z</time></trkpt><trkpt lat="45.80876056272281" lon="7.26097352147899"><ele>1307.6666666666667</ele><time>2026-05-02T13:48:14Z</time></trkpt><trkpt lat="45.808785565457015" lon="7.260723468364045"><ele>1307.3333333333335</ele><time>2026-05-02T13:48:15Z</time></trkpt><trkpt lat="45.80881696256448" lon="7.260454511809132"><ele>1307.0</ele><time>2026-05-02T13:48:16Z</time></trkpt><trkpt lat="45.80885625420548" lon="7.260178731794889"><ele>1307.0</ele><time>2026-05-02T13:48:17Z</time></trkpt><trkpt lat="45.80889988891325" lon="7.259902728888449"><ele>1307.0</ele><time>2026-05-02T13:48:18Z</time></trkpt><trkpt lat="45.808938702472595" lon="7.259638380206471"><ele>1307.0</ele><time>2026-05-02T13:48:19Z</time></trkpt><trkpt lat="45.80897618561395" lon="7.259369866140828"><ele>1307.0</ele><time>2026-05-02T13:48:20Z</time></trkpt><trkpt lat="45.809012402224994" lon="7.259115122024074"><ele>1307.0</ele><time>2026-05-02T13:48:21Z</time></trkpt><trkpt lat="45.80904212645625" lon="7.258879389500606"><ele>1307.0</ele><time>2026-05-02T13:48:22Z</time></trkpt><trkpt lat="45.80907726933123" lon="7.258665595347699"><ele>1309.5</ele><time>2026-05-02T13:48:23Z</time></trkpt><trkpt lat="45.8091265764245" lon="7.2584604163869395"><ele>1312.0</ele><time>2026-05-02T13:48:24Z</time></trkpt><trkpt lat="45.809197975439616" lon="7.258281936468375"><ele>1314.5</ele><time>2026-05-02T13:48:25Z</time></trkpt><trkpt lat="45.809293674606714" lon="7.258137671199119"><ele>1317.0</ele><time>2026-05-02T13:48:26Z</time></trkpt><trkpt lat="45.80941238890803" lon="7.258028482119005"><ele>1317.0</ele><time>2026-05-02T13:48:27Z</time></trkpt><trkpt lat="45.809523365062894" lon="7.257898961010628"><ele>1317.0</ele><time>2026-05-02T13:48:28Z</time></trkpt><trkpt lat="45.80961732675385" lon="7.2577494853055455"><ele>1317.0</ele><time>2026-05-02T13:48:29Z</time></trkpt><trkpt lat="45.809685459946344" lon="7.257570195292687"><ele>1317.0</ele><time>2026-05-02T13:48:30Z</time></trkpt><trkpt lat="45.80973496970847" lon="7.257361940841651"><ele>1313.0</ele><time>2026-05-02T13:48:31Z</time></trkpt><trkpt lat="45.8097879965292" lon="7.257116871014661"><ele>1309.0</ele><time>2026-05-02T13:48:32Z</time></trkpt><trkpt lat="45.80983793270932" lon="7.256880066632948"><ele>1305.0</ele><time>2026-05-02T13:48:33Z</time></trkpt><trkpt lat="45.809892205945204" lon="7.256646115154728"><ele>1300.3333333333333</ele><time>2026-05-02T13:48:34Z</time></trkpt><trkpt lat="45.809952976257655" lon="7.256417985622821"><ele>1295.6666666666665</ele><time>2026-05-02T13:48:35Z</time></trkpt><trkpt lat="45.81004248985634" lon="7.25620498884444"><ele>1291.0</ele><time>2026-05-02T13:48:36Z</time></trkpt><trkpt lat="45.81015659016042" lon="7.256014056505137"><ele>1298.6666666666665</ele><time>2026-05-02T13:48:37Z</time></trkpt><trkpt lat="45.81027980863626" lon="7.255827833889439"><ele>1306.3333333333333</ele><time>2026-05-02T13:48:38Z</time></trkpt><trkpt lat="45.810416630281054" lon="7.255628161072925"><ele>1314.0</ele><time>2026-05-02T13:48:39Z</time></trkpt><trkpt lat="45.81053517680579" lon="7.255449026655056"><ele>1314.0</ele><time>2026-05-02T13:48:40Z</time></trkpt><trkpt lat="45.810645555601134" lon="7.2552868013324066"><ele>1314.0</ele><time>2026-05-02T13:48:41Z</time></trkpt><trkpt lat="45.81073522791383" lon="7.255154666670544"><ele>1314.0</ele><time>2026-05-02T13:48:42Z</time></trkpt><trkpt lat="45.810788324857725" lon="7.255017381833889"><ele>1314.0</ele><time>2026-05-02T13:48:43Z</time></trkpt><trkpt lat="45.81085656139405" lon="7.25486029303013"><ele>1311.6</ele><time>2026-05-02T13:48:44Z</time></trkpt><trkpt lat="45.81086496452861" lon="7.254665884700028"><ele>1309.2</ele><time>2026-05-02T13:48:45Z</time></trkpt><trkpt lat="45.81086155196804" lon="7.254492748189264"><ele>1306.8</ele><time>2026-05-02T13:48:46Z</time></trkpt><trkpt lat="45.810881362956884" lon="7.254351408595631"><ele>1304.3999999999999</ele><time>2026-05-02T13:48:47Z</time></trkpt><trkpt lat="45.81095388549355" lon="7.254278366003569"><ele>1302.0</ele><time>2026-05-02T13:48:48Z</time></trkpt><trkpt lat="45.81107464422195" lon="7.254224737578437"><ele>1308.75</ele><time>2026-05-02T13:48:49Z</time></trkpt><trkpt lat="45.8111910595315" lon="7.254103223426257"><ele>1315.5</ele><time>2026-05-02T13:48:50Z</time></trkpt><trkpt lat="45.81128104860426" lon="7.2539920057390965"><ele>1322.25</ele><time>2026-05-02T13:48:51Z</time></trkpt><trkpt lat="45.8113150625306" lon="7.253814764015793"><ele>1329.0</ele><time>2026-05-02T13:48:52Z</time></trkpt><trkpt lat="45.811326059857095" lon="7.25364012120686"><ele>1329.0</ele><time>2026-05-02T13:48:53Z</time></trkpt><trkpt lat="45.81134796147032" lon="7.253482194249749"><ele>1329.0</ele><time>2026-05-02T13:48:54Z</time></trkpt><trkpt lat="45.81142055859244" lon="7.253359970804963"><ele>1329.0</ele><time>2026-05-02T13:48:55Z</time></trkpt><trkpt lat="45.81151579682203" lon="7.2532768943267785"><ele>1329.0</ele><time>2026-05-02T13:48:56Z</time></trkpt><trkpt lat="45.81161961566745" lon="7.253207667740381"><ele>1333.0</ele><time>2026-05-02T13:48:57Z</time></trkpt><trkpt lat="45.81171663899196" lon="7.253111882417562"><ele>1337.0</ele><time>2026-05-02T13:48:58Z</time></trkpt><trkpt lat="45.811784203395256" lon="7.252959713497786"><ele>1341.0</ele><time>2026-05-02T13:48:59Z</time></trkpt><trkpt lat="45.81185762159484" lon="7.25280581975635"><ele>1345.0</ele><time>2026-05-02T13:49:00Z</time></trkpt><trkpt lat="45.8119485210356" lon="7.2526574331943126"><ele>1345.0</ele><time>2026-05-02T13:49:01Z</time></trkpt><trkpt lat="45.81204604221857" lon="7.252511159115007"><ele>1345.0</ele><time>2026-05-02T13:49:02Z</time></trkpt><trkpt lat="45.81214845586184" lon="7.252389554697536"><ele>1345.0</ele><time>2026-05-02T13:49:03Z</time></trkpt><trkpt lat="45.8122126012977" lon="7.252240281857135"><ele>1345.0</ele><time>2026-05-02T13:49:04Z</time></trkpt><trkpt lat="45.81223871760444" lon="7.252066284901442"><ele>1343.0</ele><time>2026-05-02T13:49:05Z</time></trkpt><trkpt lat="45.81219839103144" lon="7.251900430445708"><ele>1341.0</ele><time>2026-05-02T13:49:06Z</time></trkpt><trkpt lat="45.81217459915327" lon="7.251786615680669"><ele>1339.0</ele><time>2026-05-02T13:49:07Z</time></trkpt><trkpt lat="45.812186005342255" lon="7.2516758335567655"><ele>1337.0</ele><time>2026-05-02T13:49:08Z</time></trkpt><trkpt lat="45.81222187789555" lon="7.25158193749902"><ele>1335.0</ele><time>2026-05-02T13:49:09Z</time></trkpt><trkpt lat="45.812282014405945" lon="7.25150997661163"><ele>1333.0</ele><time>2026-05-02T13:49:10Z</time></trkpt><trkpt lat="45.812367532669725" lon="7.251475773814218"><ele>1333.0</ele><time>2026-05-02T13:49:11Z</time></trkpt><trkpt lat="45.812468888897996" lon="7.251465220384748"><ele>1333.0</ele><time>2026-05-02T13:49:12Z</time></trkpt><trkpt lat="45.812565312982784" lon="7.251432567046874"><ele>1333.0</ele><time>2026-05-02T13:49:13Z</time></trkpt><trkpt lat="45.812663290440376" lon="7.25137011856468"><ele>1333.0</ele><time>2026-05-02T13:49:14Z</time></trkpt><trkpt lat="45.81270950397389" lon="7.251229210460005"><ele>1333.0</ele><time>2026-05-02T13:49:15Z</time></trkpt><trkpt lat="45.812744671284314" lon="7.251096365861619"><ele>1337.2</ele><time>2026-05-02T13:49:16Z</time></trkpt><trkpt lat="45.81270271645755" lon="7.250942219735162"><ele>1341.4</ele><time>2026-05-02T13:49:17Z</time></trkpt><trkpt lat="45.812667397561356" lon="7.2507829442326655"><ele>1345.6000000000001</ele><time>2026-05-02T13:49:18Z</time></trkpt><trkpt lat="45.812648420821105" lon="7.2506189935451735"><ele>1349.8000000000002</ele><time>2026-05-02T13:49:19Z</time></trkpt><trkpt lat="45.81260821519137" lon="7.250485110705416"><ele>1354.0</ele><time>2026-05-02T13:49:20Z</time></trkpt><trkpt lat="45.81260439510493" lon="7.250363673504583"><ele>1351.4</ele><time>2026-05-02T13:49:21Z</time></trkpt><trkpt lat="45.81264052502859" lon="7.250264683168214"><ele>1348.8000000000002</ele><time>2026-05-02T13:49:22Z</time></trkpt><trkpt lat="45.81271293299881" lon="7.250207192904613"><ele>1346.1999999999998</ele><time>2026-05-02T13:49:23Z</time></trkpt><trkpt lat="45.812815360570475" lon="7.250205724217272"><ele>1343.6</ele><time>2026-05-02T13:49:24Z</time></trkpt><trkpt lat="45.8129352638856" lon="7.250225652278448"><ele>1341.0</ele><time>2026-05-02T13:49:25Z</time></trkpt><trkpt lat="45.81304660018114" lon="7.250229693663314"><ele>1341.0</ele><time>2026-05-02T13:49:26Z</time></trkpt><trkpt lat="45.813149746684076" lon="7.2501888846366915"><ele>1341.0</ele><time>2026-05-02T13:49:27Z</time></trkpt><trkpt lat="45.813223620104296" lon="7.250104129453426"><ele>1341.0</ele><time>2026-05-02T13:49:28Z</time></trkpt><trkpt lat="45.813290428327015" lon="7.249996413398906"><ele>1341.0</ele><time>2026-05-02T13:49:29Z</time></trkpt><trkpt lat="45.81331518564701" lon="7.249825164229199"><ele>1341.0</ele><time>2026-05-02T13:49:30Z</time></trkpt><trkpt lat="45.813313553612325" lon="7.249651559955355"><ele>1340.0</ele><time>2026-05-02T13:49:31Z</time></trkpt><trkpt lat="45.813289035042644" lon="7.249471624418879"><ele>1339.0</ele><time>2026-05-02T13:49:32Z</time></trkpt><trkpt lat="45.81327697394911" lon="7.249279365684705"><ele>1338.0</ele><time>2026-05-02T13:49:33Z</time></trkpt><trkpt lat="45.81325897844012" lon="7.249076801878473"><ele>1337.0</ele><time>2026-05-02T13:49:34Z</time></trkpt><trkpt lat="45.81324029964654" lon="7.248864994547126"><ele>1336.0</ele><time>2026-05-02T13:49:35Z</time></trkpt><trkpt lat="45.81323576202922" lon="7.2486357401631825"><ele>1335.0</ele><time>2026-05-02T13:49:36Z</time></trkpt><trkpt lat="45.81320186404241" lon="7.24841851024381"><ele>1334.0</ele><time>2026-05-02T13:49:37Z</time></trkpt><trkpt lat="45.813158775728944" lon="7.248218641571371"><ele>1333.25</ele><time>2026-05-02T13:49:38Z</time></trkpt><trkpt lat="45.8131194370652" lon="7.248038037282529"><ele>1332.5</ele><time>2026-05-02T13:49:39Z</time></trkpt><trkpt lat="45.81308194711008" lon="7.247874649281732"><ele>1331.75</ele><time>2026-05-02T13:49:40Z</time></trkpt><trkpt lat="45.81307076468572" lon="7.247716154415562"><ele>1331.0</ele><time>2026-05-02T13:49:41Z</time></trkpt><trkpt lat="45.81309334553902" lon="7.247555696174718"><ele>1331.0</ele><time>2026-05-02T13:49:42Z</time></trkpt><trkpt lat="45.81313727743547" lon="7.24738743670415"><ele>1331.0</ele><time>2026-05-02T13:49:43Z</time></trkpt><trkpt lat="45.81319151206848" lon="7.247206380555299"><ele>1331.0</ele><time>2026-05-02T13:49:44Z</time></trkpt><trkpt lat="45.81325951382469" lon="7.247010653420485"><ele>1331.0</ele><time>2026-05-02T13:49:45Z</time></trkpt><trkpt lat="45.813334338470966" lon="7.246801460768088"><ele>1331.75</ele><time>2026-05-02T13:49:46Z</time></trkpt><trkpt lat="45.81340696813654" lon="7.246600122171266"><ele>1332.5</ele><time>2026-05-02T13:49:47Z</time></trkpt><trkpt lat="45.813473764875674" lon="7.246413928055825"><ele>1333.25</ele><time>2026-05-02T13:49:48Z</time></trkpt><trkpt lat="45.81354664354187" lon="7.24624528937678"><ele>1334.0</ele><time>2026-05-02T13:49:49Z</time></trkpt><trkpt lat="45.81363614137657" lon="7.246087466066156"><ele>1334.0</ele><time>2026-05-02T13:49:50Z</time></trkpt><trkpt lat="45.813744032206536" lon="7.24594394129015"><ele>1334.0</ele><time>2026-05-02T13:49:51Z</time></trkpt><trkpt lat="45.81386238383369" lon="7.245800433138979"><ele>1334.0</ele><time>2026-05-02T13:49:52Z</time></trkpt><trkpt lat="45.81398520794783" lon="7.245653908852578"><ele>1338.6666666666667</ele><time>2026-05-02T13:49:53Z</time></trkpt><trkpt lat="45.81410872630065" lon="7.245499216410525"><ele>1343.3333333333333</ele><time>2026-05-02T13:49:54Z</time></trkpt><trkpt lat="45.81422674924926" lon="7.2453350254012925"><ele>1348.0</ele><time>2026-05-02T13:49:55Z</time></trkpt><trkpt lat="45.814333455117946" lon="7.24516959371384"><ele>1348.0</ele><time>2026-05-02T13:49:56Z</time></trkpt><trkpt lat="45.81443091120346" lon="7.245010606346376"><ele>1348.0</ele><time>2026-05-02T13:49:57Z</time></trkpt><trkpt lat="45.81451834137277" lon="7.2448572270762135"><ele>1348.0</ele><time>2026-05-02T13:49:58Z</time></trkpt><trkpt lat="45.81460589081304" lon="7.244702274497176"><ele>1348.0</ele><time>2026-05-02T13:49:59Z</time></trkpt><trkpt lat="45.81472159931878" lon="7.24457006902264"><ele>1341.3333333333333</ele><time>2026-05-02T13:50:00Z</time></trkpt><trkpt lat="45.81483969392163" lon="7.244438997944937"><ele>1334.6666666666667</ele><time>2026-05-02T13:50:01Z</time></trkpt><trkpt lat="45.8149679989393" lon="7.244308159474205"><ele>1328.0</ele><time>2026-05-02T13:50:02Z</time></trkpt><trkpt lat="45.81509691705402" lon="7.244171617515961"><ele>1333.3333333333335</ele><time>2026-05-02T13:50:03Z</time></trkpt><trkpt lat="45.815234120515434" lon="7.244021089850389"><ele>1338.6666666666667</ele><time>2026-05-02T13:50:04Z</time></trkpt><trkpt lat="45.8153588504416" lon="7.24386534880552"><ele>1344.0</ele><time>2026-05-02T13:50:05Z</time></trkpt><trkpt lat="45.815478833851294" lon="7.24370301387741"><ele>1344.0</ele><time>2026-05-02T13:50:06Z</time></trkpt><trkpt lat="45.815594260024106" lon="7.2435475512257455"><ele>1344.0</ele><time>2026-05-02T13:50:07Z</time></trkpt><trkpt lat="45.815705826254" lon="7.243390752349473"><ele>1344.0</ele><time>2026-05-02T13:50:08Z</time></trkpt><trkpt lat="45.81581068418902" lon="7.243233953988962"><ele>1344.75</ele><time>2026-05-02T13:50:09Z</time></trkpt><trkpt lat="45.815914521139476" lon="7.243077816793225"><ele>1345.5</ele><time>2026-05-02T13:50:10Z</time></trkpt><trkpt lat="45.81600904725755" lon="7.242917618199025"><ele>1346.25</ele><time>2026-05-02T13:50:11Z</time></trkpt><trkpt lat="45.81611280479518" lon="7.242770236115202"><ele>1347.0</ele><time>2026-05-02T13:50:12Z</time></trkpt><trkpt lat="45.816223850250914" lon="7.242625969489674"><ele>1347.0</ele><time>2026-05-02T13:50:13Z</time></trkpt><trkpt lat="45.816329602621785" lon="7.242471139052624"><ele>1347.0</ele><time>2026-05-02T13:50:14Z</time></trkpt><trkpt lat="45.81643092506791" lon="7.242304955905558"><ele>1347.0</ele><time>2026-05-02T13:50:15Z</time></trkpt><trkpt lat="45.81653251988469" lon="7.242124091175094"><ele>1350.0</ele><time>2026-05-02T13:50:16Z</time></trkpt><trkpt lat="45.816627080355005" lon="7.241939551414829"><ele>1353.0</ele><time>2026-05-02T13:50:17Z</time></trkpt><trkpt lat="45.81672674574266" lon="7.241759549497372"><ele>1356.0</ele><time>2026-05-02T13:50:18Z</time></trkpt><trkpt lat="45.81682527959619" lon="7.24157599234704"><ele>1347.0</ele><time>2026-05-02T13:50:19Z</time></trkpt><trkpt lat="45.81691501880262" lon="7.241390934729451"><ele>1338.0</ele><time>2026-05-02T13:50:20Z</time></trkpt><trkpt lat="45.81700664584278" lon="7.2412110833158"><ele>1329.0</ele><time>2026-05-02T13:50:21Z</time></trkpt><trkpt lat="45.81710106004077" lon="7.2410566440429145"><ele>1329.0</ele><time>2026-05-02T13:50:22Z</time></trkpt><trkpt lat="45.81720726015356" lon="7.240924518236353"><ele>1329.0</ele><time>2026-05-02T13:50:23Z</time></trkpt><trkpt lat="45.81732972926626" lon="7.240792593965576"><ele>1329.0</ele><time>2026-05-02T13:50:24Z</time></trkpt><trkpt lat="45.817446245768686" lon="7.240670590469889"><ele>1329.0</ele><time>2026-05-02T13:50:25Z</time></trkpt><trkpt lat="45.817567717673526" lon="7.240584558608211"><ele>1327.25</ele><time>2026-05-02T13:50:26Z</time></trkpt><trkpt lat="45.817696985580994" lon="7.240550947053557"><ele>1325.5</ele><time>2026-05-02T13:50:27Z</time></trkpt><trkpt lat="45.81783634189302" lon="7.240542601970352"><ele>1323.75</ele><time>2026-05-02T13:50:28Z</time></trkpt><trkpt lat="45.81798212385368" lon="7.2405213580931145"><ele>1322.0</ele><time>2026-05-02T13:50:29Z</time></trkpt><trkpt lat="45.81812572852149" lon="7.240486801826296"><ele>1322.0</ele><time>2026-05-02T13:50:30Z</time></trkpt><trkpt lat="45.81826111140013" lon="7.240424863626896"><ele>1322.0</ele><time>2026-05-02T13:50:31Z</time></trkpt><trkpt lat="45.81838493668592" lon="7.24031427528537"><ele>1322.0</ele><time>2026-05-02T13:50:32Z</time></trkpt><trkpt lat="45.81848694225536" lon="7.2401800849416365"><ele>1322.0</ele><time>2026-05-02T13:50:33Z</time></trkpt><trkpt lat="45.818591141470236" lon="7.240038550442046"><ele>1321.75</ele><time>2026-05-02T13:50:34Z</time></trkpt><trkpt lat="45.81870380472014" lon="7.239891186619281"><ele>1321.5</ele><time>2026-05-02T13:50:35Z</time></trkpt><trkpt lat="45.81880993228346" lon="7.239748545803614"><ele>1321.25</ele><time>2026-05-02T13:50:36Z</time></trkpt><trkpt lat="45.81891878988282" lon="7.239616079407381"><ele>1321.0</ele><time>2026-05-02T13:50:37Z</time></trkpt><trkpt lat="45.81903692160841" lon="7.239508901316534"><ele>1321.0</ele><time>2026-05-02T13:50:38Z</time></trkpt><trkpt lat="45.81917086455349" lon="7.239430016393703"><ele>1321.0</ele><time>2026-05-02T13:50:39Z</time></trkpt><trkpt lat="45.81930849619472" lon="7.23934980824789"><ele>1321.0</ele><time>2026-05-02T13:50:40Z</time></trkpt><trkpt lat="45.81944355977963" lon="7.239240951003111"><ele>1321.0</ele><time>2026-05-02T13:50:41Z</time></trkpt><trkpt lat="45.81956244080482" lon="7.239092928375748"><ele>1323.3333333333333</ele><time>2026-05-02T13:50:42Z</time></trkpt><trkpt lat="45.81966379428468" lon="7.238928777737624"><ele>1325.6666666666667</ele><time>2026-05-02T13:50:43Z</time></trkpt><trkpt lat="45.819758424686675" lon="7.238756478055625"><ele>1328.0</ele><time>2026-05-02T13:50:44Z</time></trkpt><trkpt lat="45.81985862554497" lon="7.23858711749262"><ele>1328.0</ele><time>2026-05-02T13:50:45Z</time></trkpt><trkpt lat="45.81996728504548" lon="7.238407405541991"><ele>1328.0</ele><time>2026-05-02T13:50:46Z</time></trkpt><trkpt lat="45.82007843991762" lon="7.2382256820989115"><ele>1328.0</ele><time>2026-05-02T13:50:47Z</time></trkpt><trkpt lat="45.8201828214437" lon="7.238056796690801"><ele>1327.25</ele><time>2026-05-02T13:50:48Z</time></trkpt><trkpt lat="45.820277428487074" lon="7.237901543871263"><ele>1326.5</ele><time>2026-05-02T13:50:49Z</time></trkpt><trkpt lat="45.82036546044798" lon="7.237763519285208"><ele>1325.75</ele><time>2026-05-02T13:50:50Z</time></trkpt><trkpt lat="45.820463428210005" lon="7.237676446884898"><ele>1325.0</ele><time>2026-05-02T13:50:51Z</time></trkpt><trkpt lat="45.820578182827205" lon="7.237612282863754"><ele>1325.0</ele><time>2026-05-02T13:50:52Z</time></trkpt><trkpt lat="45.82069085334042" lon="7.237560968249541"><ele>1325.0</ele><time>2026-05-02T13:50:53Z</time></trkpt><trkpt lat="45.82078960052851" lon="7.2375564289832255"><ele>1325.0</ele><time>2026-05-02T13:50:54Z</time></trkpt><trkpt lat="45.82088148601417" lon="7.2376050113814125"><ele>1325.0</ele><time>2026-05-02T13:50:55Z</time></trkpt><trkpt lat="45.82097068189126" lon="7.237687756051714"><ele>1325.0</ele><time>2026-05-02T13:50:56Z</time></trkpt><trkpt lat="45.82105361932581" lon="7.237787777936099"><ele>1323.5</ele><time>2026-05-02T13:50:57Z</time></trkpt><trkpt lat="45.8211587262138" lon="7.237883914032644"><ele>1322.0</ele><time>2026-05-02T13:50:58Z</time></trkpt><trkpt lat="45.821276037179096" lon="7.237956088313151"><ele>1320.5</ele><time>2026-05-02T13:50:59Z</time></trkpt><trkpt lat="45.82140245001963" lon="7.238015015488271"><ele>1319.0</ele><time>2026-05-02T13:51:00Z</time></trkpt><trkpt lat="45.821538121724586" lon="7.238065144530571"><ele>1319.0</ele><time>2026-05-02T13:51:01Z</time></trkpt><trkpt lat="45.821680961678645" lon="7.238108180582289"><ele>1319.0</ele><time>2026-05-02T13:51:02Z</time></trkpt><trkpt lat="45.82181659960305" lon="7.238147947216413"><ele>1319.0</ele><time>2026-05-02T13:51:03Z</time></trkpt><trkpt lat="45.82193353247741" lon="7.238161309597755"><ele>1319.0</ele><time>2026-05-02T13:51:04Z</time></trkpt><trkpt lat="45.82203042684508" lon="7.238124595838948"><ele>1322.4</ele><time>2026-05-02T13:51:05Z</time></trkpt><trkpt lat="45.82212252807669" lon="7.238073129606406"><ele>1325.8000000000002</ele><time>2026-05-02T13:51:06Z</time></trkpt><trkpt lat="45.8221725058683" lon="7.237939246142446"><ele>1329.1999999999998</ele><time>2026-05-02T13:51:07Z</time></trkpt><trkpt lat="45.822195518658155" lon="7.237798300975563"><ele>1332.6</ele><time>2026-05-02T13:51:08Z</time></trkpt><trkpt lat="45.822162264455066" lon="7.237634886092381"><ele>1336.0</ele><time>2026-05-02T13:51:09Z</time></trkpt><trkpt lat="45.82212892781585" lon="7.237462230594211"><ele>1336.5</ele><time>2026-05-02T13:51:10Z</time></trkpt><trkpt lat="45.82208795925395" lon="7.237281418449544"><ele>1337.0</ele><time>2026-05-02T13:51:11Z</time></trkpt><trkpt lat="45.82204892063514" lon="7.237080749976939"><ele>1337.5</ele><time>2026-05-02T13:51:12Z</time></trkpt><trkpt lat="45.82200892358368" lon="7.23687258649499"><ele>1338.0</ele><time>2026-05-02T13:51:13Z</time></trkpt><trkpt lat="45.82196246757883" lon="7.236696529025383"><ele>1338.0</ele><time>2026-05-02T13:51:14Z</time></trkpt><trkpt lat="45.82193219174927" lon="7.236506103164729"><ele>1338.0</ele><time>2026-05-02T13:51:15Z</time></trkpt><trkpt lat="45.82186291653051" lon="7.236336525306166"><ele>1338.0</ele><time>2026-05-02T13:51:16Z</time></trkpt><trkpt lat="45.821786852488685" lon="7.236183696617185"><ele>1338.0</ele><time>2026-05-02T13:51:17Z</time></trkpt><trkpt lat="45.82171814716906" lon="7.2360534780991435"><ele>1335.6000000000001</ele><time>2026-05-02T13:51:18Z</time></trkpt><trkpt lat="45.821644897744626" lon="7.235953507790009"><ele>1333.2</ele><time>2026-05-02T13:51:19Z</time></trkpt><trkpt lat="45.8216036304624" lon="7.235859365328715"><ele>1330.8</ele><time>2026-05-02T13:51:20Z</time></trkpt><trkpt lat="45.82154310152849" lon="7.235738585401087"><ele>1328.4</ele><time>2026-05-02T13:51:22Z</time></trkpt><trkpt lat="45.821458527095764" lon="7.235553997530384"><ele>1326.0</ele><time>2026-05-02T13:51:24Z</time></trkpt><trkpt lat="45.82137062704885" lon="7.2354629594862665"><ele>1326.0</ele><time>2026-05-02T13:51:25Z</time></trkpt><trkpt lat="45.821300646050005" lon="7.235379214752476"><ele>1326.0</ele><time>2026-05-02T13:51:26Z</time></trkpt><trkpt lat="45.821249147401" lon="7.2352680102014135"><ele>1326.0</ele><time>2026-05-02T13:51:27Z</time></trkpt><trkpt lat="45.821213377911036" lon="7.2351291010631"><ele>1326.0</ele><time>2026-05-02T13:51:28Z</time></trkpt><trkpt lat="45.821213660120634" lon="7.234959544239211"><ele>1326.0</ele><time>2026-05-02T13:51:29Z</time></trkpt><trkpt lat="45.821202220904425" lon="7.234785125047683"><ele>1326.25</ele><time>2026-05-02T13:51:30Z</time></trkpt><trkpt lat="45.82117629138515" lon="7.234595181905125"><ele>1326.5</ele><time>2026-05-02T13:51:31Z</time></trkpt><trkpt lat="45.821166017224044" lon="7.234383271364493"><ele>1326.75</ele><time>2026-05-02T13:51:32Z</time></trkpt><trkpt lat="45.82116079985102" lon="7.234192968624087"><ele>1327.0</ele><time>2026-05-02T13:51:33Z</time></trkpt><trkpt lat="45.82115414116757" lon="7.2340242133136705"><ele>1324.1999999999998</ele><time>2026-05-02T13:51:34Z</time></trkpt><trkpt lat="45.82116957018513" lon="7.233872913877737"><ele>1321.4</ele><time>2026-05-02T13:51:35Z</time></trkpt><trkpt lat="45.82121508439317" lon="7.233744962015315"><ele>1318.6</ele><time>2026-05-02T13:51:36Z</time></trkpt><trkpt lat="45.821289404706434" lon="7.233640197733456"><ele>1315.8000000000002</ele><time>2026-05-02T13:51:37Z</time></trkpt><trkpt lat="45.821377810664366" lon="7.233533309801424"><ele>1313.0</ele><time>2026-05-02T13:51:38Z</time></trkpt><trkpt lat="45.821482859239325" lon="7.23342717894723"><ele>1313.0</ele><time>2026-05-02T13:51:39Z</time></trkpt><trkpt lat="45.82158555689767" lon="7.233329801225217"><ele>1313.0</ele><time>2026-05-02T13:51:40Z</time></trkpt><trkpt lat="45.82167395032144" lon="7.233220970189556"><ele>1313.0</ele><time>2026-05-02T13:51:41Z</time></trkpt><trkpt lat="45.821741381396" lon="7.233094191479271"><ele>1313.0</ele><time>2026-05-02T13:51:42Z</time></trkpt><trkpt lat="45.82179983330955" lon="7.23295336822417"><ele>1318.4</ele><time>2026-05-02T13:51:43Z</time></trkpt><trkpt lat="45.82182902278892" lon="7.2328001556366965"><ele>1323.8000000000002</ele><time>2026-05-02T13:51:44Z</time></trkpt><trkpt lat="45.82184131131842" lon="7.232634672717118"><ele>1329.2</ele><time>2026-05-02T13:51:45Z</time></trkpt><trkpt lat="45.82184002009402" lon="7.232489060841527"><ele>1334.6</ele><time>2026-05-02T13:51:46Z</time></trkpt><trkpt lat="45.821828627667784" lon="7.232335919770167"><ele>1340.0</ele><time>2026-05-02T13:51:47Z</time></trkpt><trkpt lat="45.821826966642654" lon="7.232165147169284"><ele>1340.0</ele><time>2026-05-02T13:51:48Z</time></trkpt><trkpt lat="45.82183275728345" lon="7.231987634476448"><ele>1340.0</ele><time>2026-05-02T13:51:49Z</time></trkpt><trkpt lat="45.82183134599504" lon="7.231815297488608"><ele>1340.0</ele><time>2026-05-02T13:51:50Z</time></trkpt><trkpt lat="45.82182501787976" lon="7.231632354841848"><ele>1340.0</ele><time>2026-05-02T13:51:51Z</time></trkpt><trkpt lat="45.82181955829743" lon="7.231450481535286"><ele>1341.25</ele><time>2026-05-02T13:51:52Z</time></trkpt><trkpt lat="45.821817273860376" lon="7.231273660331533"><ele>1342.5</ele><time>2026-05-02T13:51:53Z</time></trkpt><trkpt lat="45.82181740914928" lon="7.231098848606512"><ele>1343.75</ele><time>2026-05-02T13:51:54Z</time></trkpt><trkpt lat="45.821836338389126" lon="7.230917025692754"><ele>1345.0</ele><time>2026-05-02T13:51:55Z</time></trkpt><trkpt lat="45.8218590404394" lon="7.230735330077174"><ele>1342.75</ele><time>2026-05-02T13:51:56Z</time></trkpt><trkpt lat="45.82187172438331" lon="7.23054954471501"><ele>1340.5</ele><time>2026-05-02T13:51:57Z</time></trkpt><trkpt lat="45.821876085939806" lon="7.230362361647577"><ele>1338.25</ele><time>2026-05-02T13:51:58Z</time></trkpt><trkpt lat="45.821874390157795" lon="7.230167003342318"><ele>1336.0</ele><time>2026-05-02T13:51:59Z</time></trkpt><trkpt lat="45.82187253269569" lon="7.229971174127151"><ele>1333.5</ele><time>2026-05-02T13:52:00Z</time></trkpt><trkpt lat="45.821869628336835" lon="7.2297797236268035"><ele>1331.0</ele><time>2026-05-02T13:52:01Z</time></trkpt><trkpt lat="45.82186535578772" lon="7.229583514590427"><ele>1328.5</ele><time>2026-05-02T13:52:02Z</time></trkpt><trkpt lat="45.82186327144641" lon="7.229382108138475"><ele>1326.0</ele><time>2026-05-02T13:52:03Z</time></trkpt><trkpt lat="45.821864242755694" lon="7.229200419150088"><ele>1326.0</ele><time>2026-05-02T13:52:04Z</time></trkpt><trkpt lat="45.82186415457286" lon="7.2290244867641755"><ele>1326.0</ele><time>2026-05-02T13:52:05Z</time></trkpt><trkpt lat="45.82185961789552" lon="7.228860217251577"><ele>1326.0</ele><time>2026-05-02T13:52:06Z</time></trkpt><trkpt lat="45.82186001437243" lon="7.228703230403128"><ele>1326.0</ele><time>2026-05-02T13:52:07Z</time></trkpt><trkpt lat="45.82185928867969" lon="7.228559383984675"><ele>1326.0</ele><time>2026-05-02T13:52:08Z</time></trkpt><trkpt lat="45.82185701685442" lon="7.228423779691944"><ele>1325.0</ele><time>2026-05-02T13:52:09Z</time></trkpt><trkpt lat="45.82184947521039" lon="7.228297016489808"><ele>1324.0</ele><time>2026-05-02T13:52:10Z</time></trkpt><trkpt lat="45.82183254449267" lon="7.228188159184976"><ele>1323.0</ele><time>2026-05-02T13:52:11Z</time></trkpt><trkpt lat="45.82177879153744" lon="7.228068490946144"><ele>1322.0</ele><time>2026-05-02T13:52:13Z</time></trkpt><trkpt lat="45.821712105780264" lon="7.228036090215166"><ele>1321.0</ele><time>2026-05-02T13:52:15Z</time></trkpt><trkpt lat="45.82165234356649" lon="7.2281248096129245"><ele>1320.0</ele><time>2026-05-02T13:52:17Z</time></trkpt><trkpt lat="45.821643681433834" lon="7.228256178694919"><ele>1312.25</ele><time>2026-05-02T13:52:18Z</time></trkpt><trkpt lat="45.82162784454075" lon="7.2283958425465675"><ele>1304.5</ele><time>2026-05-02T13:52:19Z</time></trkpt><trkpt lat="45.821605099971286" lon="7.228547382845407"><ele>1296.75</ele><time>2026-05-02T13:52:20Z</time></trkpt><trkpt lat="45.82157965306539" lon="7.228718271963558"><ele>1289.0</ele><time>2026-05-02T13:52:21Z</time></trkpt><trkpt lat="45.821551761072804" lon="7.228896581001137"><ele>1288.0</ele><time>2026-05-02T13:52:22Z</time></trkpt><trkpt lat="45.82152163897905" lon="7.22908973791161"><ele>1287.0</ele><time>2026-05-02T13:52:23Z</time></trkpt><trkpt lat="45.821494344250375" lon="7.229277341342973"><ele>1286.0</ele><time>2026-05-02T13:52:24Z</time></trkpt><trkpt lat="45.82146766280696" lon="7.2294547512962355"><ele>1285.0</ele><time>2026-05-02T13:52:25Z</time></trkpt><trkpt lat="45.821438668168135" lon="7.229622419016018"><ele>1285.0</ele><time>2026-05-02T13:52:26Z</time></trkpt><trkpt lat="45.82139865920211" lon="7.2297824881178"><ele>1285.0</ele><time>2026-05-02T13:52:27Z</time></trkpt><trkpt lat="45.82135310712972" lon="7.229940263258816"><ele>1285.0</ele><time>2026-05-02T13:52:28Z</time></trkpt><trkpt lat="45.82130647627276" lon="7.230098900503982"><ele>1285.0</ele><time>2026-05-02T13:52:29Z</time></trkpt><trkpt lat="45.82125644573216" lon="7.230246150043826"><ele>1285.6666666666665</ele><time>2026-05-02T13:52:30Z</time></trkpt><trkpt lat="45.821207527890586" lon="7.230366050943818"><ele>1286.3333333333333</ele><time>2026-05-02T13:52:31Z</time></trkpt><trkpt lat="45.82114912687372" lon="7.230439217568385"><ele>1287.0</ele><time>2026-05-02T13:52:32Z</time></trkpt><trkpt lat="45.821077157764655" lon="7.230462148005927"><ele>1287.6666666666667</ele><time>2026-05-02T13:52:33Z</time></trkpt><trkpt lat="45.820989064278216" lon="7.230344246012"><ele>1288.3333333333335</ele><time>2026-05-02T13:52:35Z</time></trkpt><trkpt lat="45.820994672946185" lon="7.2302324817719255"><ele>1289.0</ele><time>2026-05-02T13:52:36Z</time></trkpt><trkpt lat="45.821032052710336" lon="7.230094149871916"><ele>1289.0</ele><time>2026-05-02T13:52:37Z</time></trkpt><trkpt lat="45.82110181683358" lon="7.229952907670052"><ele>1289.0</ele><time>2026-05-02T13:52:38Z</time></trkpt><trkpt lat="45.821186165616" lon="7.229799677377141"><ele>1289.0</ele><time>2026-05-02T13:52:39Z</time></trkpt><trkpt lat="45.82125928197471" lon="7.229650735057921"><ele>1289.0</ele><time>2026-05-02T13:52:40Z</time></trkpt><trkpt lat="45.821322155776436" lon="7.229512670900404"><ele>1288.2</ele><time>2026-05-02T13:52:41Z</time></trkpt><trkpt lat="45.82135727799553" lon="7.229379961543379"><ele>1287.4</ele><time>2026-05-02T13:52:42Z</time></trkpt><trkpt lat="45.82135434452418" lon="7.229250825111277"><ele>1286.6</ele><time>2026-05-02T13:52:43Z</time></trkpt><trkpt lat="45.82130353038926" lon="7.229167901547391"><ele>1285.8</ele><time>2026-05-02T13:52:44Z</time></trkpt><trkpt lat="45.821227390725845" lon="7.229114660212979"><ele>1285.0</ele><time>2026-05-02T13:52:45Z</time></trkpt><trkpt lat="45.821115622129774" lon="7.229158627805893"><ele>1285.0</ele><time>2026-05-02T13:52:46Z</time></trkpt><trkpt lat="45.82103891942966" lon="7.229282103275437"><ele>1285.0</ele><time>2026-05-02T13:52:47Z</time></trkpt><trkpt lat="45.820956961264436" lon="7.229410601422346"><ele>1285.0</ele><time>2026-05-02T13:52:48Z</time></trkpt><trkpt lat="45.820862088216906" lon="7.2295555127871625"><ele>1285.0</ele><time>2026-05-02T13:52:49Z</time></trkpt><trkpt lat="45.820752355145665" lon="7.229685895013547"><ele>1281.0</ele><time>2026-05-02T13:52:50Z</time></trkpt><trkpt lat="45.82062785072382" lon="7.229793239749785"><ele>1277.0</ele><time>2026-05-02T13:52:51Z</time></trkpt><trkpt lat="45.820500339233995" lon="7.229876222455856"><ele>1273.0</ele><time>2026-05-02T13:52:52Z</time></trkpt><trkpt lat="45.82036316543966" lon="7.2299282658848805"><ele>1269.0</ele><time>2026-05-02T13:52:53Z</time></trkpt><trkpt lat="45.82021699248621" lon="7.229949936767979"><ele>1267.25</ele><time>2026-05-02T13:52:54Z</time></trkpt><trkpt lat="45.82006936628475" lon="7.229951911476797"><ele>1265.5</ele><time>2026-05-02T13:52:55Z</time></trkpt><trkpt lat="45.81992126187989" lon="7.229950674091681"><ele>1263.75</ele><time>2026-05-02T13:52:56Z</time></trkpt><trkpt lat="45.81978058320511" lon="7.229949887119215"><ele>1262.0</ele><time>2026-05-02T13:52:57Z</time></trkpt><trkpt lat="45.81965002070372" lon="7.229952964784935"><ele>1262.0</ele><time>2026-05-02T13:52:58Z</time></trkpt><trkpt lat="45.81953212293866" lon="7.229951905455884"><ele>1262.0</ele><time>2026-05-02T13:52:59Z</time></trkpt><trkpt lat="45.819422224100165" lon="7.229970076999353"><ele>1262.0</ele><time>2026-05-02T13:53:00Z</time></trkpt><trkpt lat="45.819334258125394" lon="7.230036123293375"><ele>1262.0</ele><time>2026-05-02T13:53:01Z</time></trkpt><trkpt lat="45.819252199290574" lon="7.230121618102264"><ele>1262.0</ele><time>2026-05-02T13:53:02Z</time></trkpt><trkpt lat="45.81920658220556" lon="7.230279535132178"><ele>1263.25</ele><time>2026-05-02T13:53:03Z</time></trkpt><trkpt lat="45.819206764377284" lon="7.230453898106272"><ele>1264.5</ele><time>2026-05-02T13:53:04Z</time></trkpt><trkpt lat="45.81920970417746" lon="7.2306304558037"><ele>1265.75</ele><time>2026-05-02T13:53:05Z</time></trkpt><trkpt lat="45.819206101205175" lon="7.230820926725854"><ele>1267.0</ele><time>2026-05-02T13:53:06Z</time></trkpt><trkpt lat="45.81918346900131" lon="7.231017981262454"><ele>1267.0</ele><time>2026-05-02T13:53:07Z</time></trkpt><trkpt lat="45.81915749902573" lon="7.231229122800066"><ele>1267.0</ele><time>2026-05-02T13:53:08Z</time></trkpt><trkpt lat="45.81911398592179" lon="7.231443642169836"><ele>1267.0</ele><time>2026-05-02T13:53:09Z</time></trkpt><trkpt lat="45.8190584480894" lon="7.231673402225681"><ele>1267.0</ele><time>2026-05-02T13:53:10Z</time></trkpt><trkpt lat="45.818985298108636" lon="7.231894270390056"><ele>1267.0</ele><time>2026-05-02T13:53:11Z</time></trkpt><trkpt lat="45.81889838893662" lon="7.232124831116038"><ele>1267.0</ele><time>2026-05-02T13:53:12Z</time></trkpt><trkpt lat="45.81880920148389" lon="7.232356582448229"><ele>1265.6666666666665</ele><time>2026-05-02T13:53:13Z</time></trkpt><trkpt lat="45.8187146409419" lon="7.232591837491326"><ele>1264.3333333333333</ele><time>2026-05-02T13:53:14Z</time></trkpt><trkpt lat="45.818620708067385" lon="7.232834698310877"><ele>1263.0</ele><time>2026-05-02T13:53:15Z</time></trkpt><trkpt lat="45.818523214567406" lon="7.2330753937416725"><ele>1265.3333333333333</ele><time>2026-05-02T13:53:16Z</time></trkpt><trkpt lat="45.81842070006185" lon="7.233317036602579"><ele>1267.6666666666665</ele><time>2026-05-02T13:53:17Z</time></trkpt><trkpt lat="45.81831921023083" lon="7.233553880433784"><ele>1270.0</ele><time>2026-05-02T13:53:18Z</time></trkpt><trkpt lat="45.818216416264626" lon="7.233798539700295"><ele>1266.0</ele><time>2026-05-02T13:53:19Z</time></trkpt><trkpt lat="45.818112666678005" lon="7.234042752189093"><ele>1262.0</ele><time>2026-05-02T13:53:20Z</time></trkpt><trkpt lat="45.818010798646675" lon="7.234287522846669"><ele>1258.0</ele><time>2026-05-02T13:53:21Z</time></trkpt><trkpt lat="45.81790821485676" lon="7.234527007362523"><ele>1258.0</ele><time>2026-05-02T13:53:22Z</time></trkpt><trkpt lat="45.817806644279855" lon="7.234770456457932"><ele>1258.0</ele><time>2026-05-02T13:53:23Z</time></trkpt><trkpt lat="45.817706036302916" lon="7.235009209676534"><ele>1258.0</ele><time>2026-05-02T13:53:24Z</time></trkpt><trkpt lat="45.8176056646429" lon="7.235248144879038"><ele>1256.3333333333333</ele><time>2026-05-02T13:53:25Z</time></trkpt><trkpt lat="45.817506458214105" lon="7.235486133676982"><ele>1254.6666666666667</ele><time>2026-05-02T13:53:26Z</time></trkpt><trkpt lat="45.817404181466074" lon="7.23571915833727"><ele>1253.0</ele><time>2026-05-02T13:53:27Z</time></trkpt><trkpt lat="45.81730206664421" lon="7.235950905205428"><ele>1253.0</ele><time>2026-05-02T13:53:28Z</time></trkpt><trkpt lat="45.8172007081986" lon="7.236174194456535"><ele>1253.0</ele><time>2026-05-02T13:53:29Z</time></trkpt><trkpt lat="45.817104087972524" lon="7.236394957558932"><ele>1253.0</ele><time>2026-05-02T13:53:30Z</time></trkpt><trkpt lat="45.817003953558334" lon="7.236617354554587"><ele>1250.0</ele><time>2026-05-02T13:53:31Z</time></trkpt><trkpt lat="45.8169054030783" lon="7.2368328217018965"><ele>1247.0</ele><time>2026-05-02T13:53:32Z</time></trkpt><trkpt lat="45.816804782629745" lon="7.237036097954474"><ele>1244.0</ele><time>2026-05-02T13:53:33Z</time></trkpt><trkpt lat="45.81669432800078" lon="7.23722406567903"><ele>1249.3333333333335</ele><time>2026-05-02T13:53:34Z</time></trkpt><trkpt lat="45.81656472147758" lon="7.237386094491097"><ele>1254.6666666666667</ele><time>2026-05-02T13:53:35Z</time></trkpt><trkpt lat="45.81642330031144" lon="7.237531416300444"><ele>1260.0</ele><time>2026-05-02T13:53:36Z</time></trkpt><trkpt lat="45.816270461588736" lon="7.237647408429968"><ele>1260.0</ele><time>2026-05-02T13:53:37Z</time></trkpt><trkpt lat="45.81611317435521" lon="7.237735222383786"><ele>1260.0</ele><time>2026-05-02T13:53:38Z</time></trkpt><trkpt lat="45.81594616992222" lon="7.237790629160685"><ele>1260.0</ele><time>2026-05-02T13:53:39Z</time></trkpt><trkpt lat="45.81577155580931" lon="7.237814385375495"><ele>1261.6666666666667</ele><time>2026-05-02T13:53:40Z</time></trkpt><trkpt lat="45.81559345323225" lon="7.2378170579775265"><ele>1263.3333333333335</ele><time>2026-05-02T13:53:41Z</time></trkpt><trkpt lat="45.81541093345183" lon="7.237816258559671"><ele>1265.0</ele><time>2026-05-02T13:53:42Z</time></trkpt><trkpt lat="45.81523066899286" lon="7.237806397389896"><ele>1265.3333333333335</ele><time>2026-05-02T13:53:43Z</time></trkpt><trkpt lat="45.81504253529379" lon="7.2377990851802485"><ele>1265.6666666666667</ele><time>2026-05-02T13:53:44Z</time></trkpt><trkpt lat="45.8148546289963" lon="7.237789791217879"><ele>1266.0</ele><time>2026-05-02T13:53:45Z</time></trkpt><trkpt lat="45.81467623796224" lon="7.2377887584660785"><ele>1266.0</ele><time>2026-05-02T13:53:46Z</time></trkpt><trkpt lat="45.81450372943331" lon="7.237778420773179"><ele>1266.0</ele><time>2026-05-02T13:53:47Z</time></trkpt><trkpt lat="45.8143269456905" lon="7.237771738296546"><ele>1266.0</ele><time>2026-05-02T13:53:48Z</time></trkpt><trkpt lat="45.814151539103506" lon="7.237759835162058"><ele>1264.0</ele><time>2026-05-02T13:53:49Z</time></trkpt><trkpt lat="45.81397272218198" lon="7.237749668676502"><ele>1262.0</ele><time>2026-05-02T13:53:50Z</time></trkpt><trkpt lat="45.81379323356756" lon="7.237736663860251"><ele>1260.0</ele><time>2026-05-02T13:53:51Z</time></trkpt><trkpt lat="45.81361419946629" lon="7.237727368981196"><ele>1259.3333333333333</ele><time>2026-05-02T13:53:52Z</time></trkpt><trkpt lat="45.813434726395606" lon="7.237719355380063"><ele>1258.6666666666665</ele><time>2026-05-02T13:53:53Z</time></trkpt><trkpt lat="45.81325275199979" lon="7.2377280128150066"><ele>1258.0</ele><time>2026-05-02T13:53:54Z</time></trkpt><trkpt lat="45.81306609385229" lon="7.237761294516638"><ele>1258.0</ele><time>2026-05-02T13:53:55Z</time></trkpt><trkpt lat="45.81288489007699" lon="7.237819212937573"><ele>1258.0</ele><time>2026-05-02T13:53:56Z</time></trkpt><trkpt lat="45.812712880439655" lon="7.237900322727712"><ele>1258.0</ele><time>2026-05-02T13:53:57Z</time></trkpt><trkpt lat="45.812545608654396" lon="7.237988849133729"><ele>1258.0</ele><time>2026-05-02T13:53:58Z</time></trkpt><trkpt lat="45.81238258134006" lon="7.238077065890293"><ele>1258.0</ele><time>2026-05-02T13:53:59Z</time></trkpt><trkpt lat="45.812220710292706" lon="7.238167933875751"><ele>1258.0</ele><time>2026-05-02T13:54:00.022Z</time></trkpt><trkpt lat="45.81206421127101" lon="7.238257178082008"><ele>1255.0</ele><time>2026-05-02T13:54:01.025Z</time></trkpt><trkpt lat="45.811909124600206" lon="7.238342607154838"><ele>1252.0</ele><time>2026-05-02T13:54:02.025Z</time></trkpt><trkpt lat="45.81175157630409" lon="7.238426867866367"><ele>1249.0</ele><time>2026-05-02T13:54:03.019Z</time></trkpt><trkpt lat="45.81159007330591" lon="7.238512933653"><ele>1249.0</ele><time>2026-05-02T13:54:04.018Z</time></trkpt><trkpt lat="45.81143215742764" lon="7.238597754416252"><ele>1249.0</ele><time>2026-05-02T13:54:05.022Z</time></trkpt><trkpt lat="45.811281779784984" lon="7.238682243909981"><ele>1249.0</ele><time>2026-05-02T13:54:06Z</time></trkpt><trkpt lat="45.811099021873396" lon="7.238873544609269"><ele>1246.0</ele><time>2026-05-02T13:54:07Z</time></trkpt><trkpt lat="45.81091712923931" lon="7.238991342226829"><ele>1243.0</ele><time>2026-05-02T13:54:08Z</time></trkpt><trkpt lat="45.81074473596791" lon="7.239159244426262"><ele>1240.0</ele><time>2026-05-02T13:54:09Z</time></trkpt><trkpt lat="45.81058003736649" lon="7.239358182604365"><ele>1240.0</ele><time>2026-05-02T13:54:10Z</time></trkpt><trkpt lat="45.81044498240852" lon="7.239610860157349"><ele>1240.0</ele><time>2026-05-02T13:54:11Z</time></trkpt><trkpt lat="45.81030185905784" lon="7.239854849125811"><ele>1240.0</ele><time>2026-05-02T13:54:12Z</time></trkpt><trkpt lat="45.810174709810475" lon="7.240117051025665"><ele>1241.0</ele><time>2026-05-02T13:54:13Z</time></trkpt><trkpt lat="45.81005332698081" lon="7.240400199099837"><ele>1242.0</ele><time>2026-05-02T13:54:14Z</time></trkpt><trkpt lat="45.80993582134004" lon="7.2406817334362765"><ele>1235.0</ele><time>2026-05-02T13:54:15Z</time></trkpt><trkpt lat="45.809815510522604" lon="7.240970332916001"><ele>1228.0</ele><time>2026-05-02T13:54:16Z</time></trkpt><trkpt lat="45.80969515750726" lon="7.24126249490128"><ele>1222.0</ele><time>2026-05-02T13:54:17Z</time></trkpt><trkpt lat="45.809572844980636" lon="7.24156701063189"><ele>1216.0</ele><time>2026-05-02T13:54:18Z</time></trkpt><trkpt lat="45.809452745474786" lon="7.241865990645816"><ele>1216.0</ele><time>2026-05-02T13:54:19Z</time></trkpt><trkpt lat="45.80933054319481" lon="7.242162198368766"><ele>1216.0</ele><time>2026-05-02T13:54:20Z</time></trkpt><trkpt lat="45.80921316564235" lon="7.242457153889742"><ele>1221.5</ele><time>2026-05-02T13:54:21Z</time></trkpt><trkpt lat="45.80909292423935" lon="7.24275669370221"><ele>1227.0</ele><time>2026-05-02T13:54:22Z</time></trkpt><trkpt lat="45.80897337330455" lon="7.243046182177325"><ele>1223.0</ele><time>2026-05-02T13:54:23Z</time></trkpt><trkpt lat="45.808855787027504" lon="7.243334907774052"><ele>1219.0</ele><time>2026-05-02T13:54:24Z</time></trkpt><trkpt lat="45.80873979076168" lon="7.243616755438781"><ele>1219.0</ele><time>2026-05-02T13:54:25Z</time></trkpt><trkpt lat="45.808622063027585" lon="7.243895395244153"><ele>1219.0</ele><time>2026-05-02T13:54:26Z</time></trkpt><trkpt lat="45.80850498127837" lon="7.244173064546141"><ele>1225.0</ele><time>2026-05-02T13:54:27Z</time></trkpt><trkpt lat="45.808390904828116" lon="7.24444427743499"><ele>1231.0</ele><time>2026-05-02T13:54:28Z</time></trkpt><trkpt lat="45.80827304441036" lon="7.24473083491112"><ele>1223.5</ele><time>2026-05-02T13:54:29Z</time></trkpt><trkpt lat="45.8081604412089" lon="7.245014379908592"><ele>1216.0</ele><time>2026-05-02T13:54:30Z</time></trkpt><trkpt lat="45.808050082124375" lon="7.245296197737601"><ele>1216.0</ele><time>2026-05-02T13:54:31Z</time></trkpt><trkpt lat="45.80795809983" lon="7.245582760340073"><ele>1216.0</ele><time>2026-05-02T13:54:32Z</time></trkpt><trkpt lat="45.80789072747513" lon="7.245873183388777"><ele>1216.0</ele><time>2026-05-02T13:54:33Z</time></trkpt><trkpt lat="45.807837858816626" lon="7.246175496411473"><ele>1211.3333333333333</ele><time>2026-05-02T13:54:34Z</time></trkpt><trkpt lat="45.80780910371401" lon="7.246481526546931"><ele>1206.6666666666667</ele><time>2026-05-02T13:54:35Z</time></trkpt><trkpt lat="45.80780011972493" lon="7.246796711216323"><ele>1202.0</ele><time>2026-05-02T13:54:36Z</time></trkpt><trkpt lat="45.80780956973244" lon="7.247113396197451"><ele>1203.3333333333335</ele><time>2026-05-02T13:54:37Z</time></trkpt><trkpt lat="45.807831993017" lon="7.247426218001238"><ele>1204.6666666666667</ele><time>2026-05-02T13:54:38Z</time></trkpt><trkpt lat="45.80785835142972" lon="7.247743559513618"><ele>1206.0</ele><time>2026-05-02T13:54:39Z</time></trkpt><trkpt lat="45.80787188486375" lon="7.248052405773361"><ele>1205.6666666666667</ele><time>2026-05-02T13:54:40Z</time></trkpt><trkpt lat="45.807875536518196" lon="7.248352606228248"><ele>1205.3333333333335</ele><time>2026-05-02T13:54:41Z</time></trkpt><trkpt lat="45.80786515631846" lon="7.248651161851915"><ele>1205.0</ele><time>2026-05-02T13:54:42Z</time></trkpt><trkpt lat="45.80783324741152" lon="7.24895122340209"><ele>1202.3333333333335</ele><time>2026-05-02T13:54:43Z</time></trkpt><trkpt lat="45.807783691885845" lon="7.2492475984135805"><ele>1199.6666666666667</ele><time>2026-05-02T13:54:44Z</time></trkpt><trkpt lat="45.80771731182077" lon="7.249540417053799"><ele>1197.0</ele><time>2026-05-02T13:54:45Z</time></trkpt><trkpt lat="45.807634342837325" lon="7.2498324524457125"><ele>1200.6666666666667</ele><time>2026-05-02T13:54:46Z</time></trkpt><trkpt lat="45.80752462874341" lon="7.250108352930984"><ele>1204.3333333333335</ele><time>2026-05-02T13:54:47Z</time></trkpt><trkpt lat="45.807420051538244" lon="7.250392233573947"><ele>1208.0</ele><time>2026-05-02T13:54:48Z</time></trkpt><trkpt lat="45.80731858669422" lon="7.250666104377703"><ele>1208.0</ele><time>2026-05-02T13:54:49Z</time></trkpt><trkpt lat="45.80721693076083" lon="7.250932757519691"><ele>1208.0</ele><time>2026-05-02T13:54:50Z</time></trkpt><trkpt lat="45.807116717056886" lon="7.251201892818809"><ele>1208.0</ele><time>2026-05-02T13:54:51Z</time></trkpt><trkpt lat="45.80700944606043" lon="7.251457016841281"><ele>1213.3333333333335</ele><time>2026-05-02T13:54:52Z</time></trkpt><trkpt lat="45.8069118831396" lon="7.251700270045813"><ele>1218.6666666666667</ele><time>2026-05-02T13:54:53Z</time></trkpt><trkpt lat="45.806812897412684" lon="7.251931812547698"><ele>1224.0</ele><time>2026-05-02T13:54:54Z</time></trkpt><trkpt lat="45.8066988269284" lon="7.252144051162204"><ele>1219.0</ele><time>2026-05-02T13:54:55Z</time></trkpt><trkpt lat="45.80659877591799" lon="7.252358469182124"><ele>1214.0</ele><time>2026-05-02T13:54:56Z</time></trkpt><trkpt lat="45.806496976585684" lon="7.252564067136475"><ele>1209.0</ele><time>2026-05-02T13:54:57Z</time></trkpt><trkpt lat="45.80639722564812" lon="7.25276152912909"><ele>1209.0</ele><time>2026-05-02T13:54:58Z</time></trkpt><trkpt lat="45.806300185694575" lon="7.252951339325047"><ele>1209.0</ele><time>2026-05-02T13:54:59Z</time></trkpt><trkpt lat="45.80619858905592" lon="7.253144389404797"><ele>1209.0</ele><time>2026-05-02T13:55:00Z</time></trkpt><trkpt lat="45.80609881966225" lon="7.253333966461444"><ele>1201.6666666666667</ele><time>2026-05-02T13:55:01Z</time></trkpt><trkpt lat="45.8060021781362" lon="7.2535176007075295"><ele>1194.3333333333335</ele><time>2026-05-02T13:55:02Z</time></trkpt><trkpt lat="45.8058980781107" lon="7.253715407183462"><ele>1187.0</ele><time>2026-05-02T13:55:03Z</time></trkpt><trkpt lat="45.805804332519514" lon="7.25393062547566"><ele>1193.3333333333335</ele><time>2026-05-02T13:55:04Z</time></trkpt><trkpt lat="45.805702115180466" lon="7.25411938677298"><ele>1199.6666666666667</ele><time>2026-05-02T13:55:05Z</time></trkpt><trkpt lat="45.805600537004075" lon="7.254316247713228"><ele>1206.0</ele><time>2026-05-02T13:55:06Z</time></trkpt><trkpt lat="45.805496122165415" lon="7.254510123281661"><ele>1206.0</ele><time>2026-05-02T13:55:07Z</time></trkpt><trkpt lat="45.8053823624111" lon="7.254691168531298"><ele>1206.0</ele><time>2026-05-02T13:55:08Z</time></trkpt><trkpt lat="45.8052815059849" lon="7.254881837652899"><ele>1206.0</ele><time>2026-05-02T13:55:09Z</time></trkpt><trkpt lat="45.805179425455165" lon="7.255074821176682"><ele>1204.6666666666667</ele><time>2026-05-02T13:55:10Z</time></trkpt><trkpt lat="45.80507864881968" lon="7.255271460649228"><ele>1203.3333333333335</ele><time>2026-05-02T13:55:11Z</time></trkpt><trkpt lat="45.80497528096579" lon="7.255476743353284"><ele>1202.0</ele><time>2026-05-02T13:55:12Z</time></trkpt><trkpt lat="45.804884466379185" lon="7.255700490703519"><ele>1202.0</ele><time>2026-05-02T13:55:13Z</time></trkpt><trkpt lat="45.8047740324355" lon="7.2559040943962865"><ele>1202.0</ele><time>2026-05-02T13:55:14Z</time></trkpt><trkpt lat="45.804680814326815" lon="7.256121708382903"><ele>1202.0</ele><time>2026-05-02T13:55:15Z</time></trkpt><trkpt lat="45.8046022856229" lon="7.256356692932552"><ele>1197.3333333333335</ele><time>2026-05-02T13:55:16Z</time></trkpt><trkpt lat="45.80450526255113" lon="7.256590292470595"><ele>1192.6666666666667</ele><time>2026-05-02T13:55:17Z</time></trkpt><trkpt lat="45.80441185317816" lon="7.256851658462476"><ele>1188.0</ele><time>2026-05-02T13:55:18Z</time></trkpt><trkpt lat="45.80432287738914" lon="7.257129514114943"><ele>1198.0</ele><time>2026-05-02T13:55:19Z</time></trkpt><trkpt lat="45.804228336798715" lon="7.257404544307604"><ele>1208.0</ele><time>2026-05-02T13:55:20Z</time></trkpt><trkpt lat="45.80414514269902" lon="7.257698538401902"><ele>1218.0</ele><time>2026-05-02T13:55:21Z</time></trkpt><trkpt lat="45.804060835459595" lon="7.258004190088599"><ele>1211.5</ele><time>2026-05-02T13:55:22Z</time></trkpt><trkpt lat="45.80397529098015" lon="7.258321882084254"><ele>1205.0</ele><time>2026-05-02T13:55:23Z</time></trkpt><trkpt lat="45.803896477567015" lon="7.2586470464468045"><ele>1198.5</ele><time>2026-05-02T13:55:24Z</time></trkpt><trkpt lat="45.80380161918135" lon="7.258979545215387"><ele>1192.0</ele><time>2026-05-02T13:55:25Z</time></trkpt><trkpt lat="45.80371683888284" lon="7.259308637545589"><ele>1192.0</ele><time>2026-05-02T13:55:26Z</time></trkpt><trkpt lat="45.80363739957205" lon="7.25963435795536"><ele>1192.0</ele><time>2026-05-02T13:55:27Z</time></trkpt><trkpt lat="45.80353957867184" lon="7.259971387040084"><ele>1205.5</ele><time>2026-05-02T13:55:28Z</time></trkpt><trkpt lat="45.80344652887127" lon="7.260316470301211"><ele>1219.0</ele><time>2026-05-02T13:55:29Z</time></trkpt><trkpt lat="45.8033670109326" lon="7.26065524234597"><ele>1219.0</ele><time>2026-05-02T13:55:30Z</time></trkpt><trkpt lat="45.80331801394266" lon="7.2609737792867595"><ele>1219.0</ele><time>2026-05-02T13:55:31Z</time></trkpt><trkpt lat="45.803274440361214" lon="7.261281838916706"><ele>1219.0</ele><time>2026-05-02T13:55:32Z</time></trkpt><trkpt lat="45.803250454855046" lon="7.261515391609958"><ele>1213.3333333333333</ele><time>2026-05-02T13:55:33Z</time></trkpt><trkpt lat="45.803213814264744" lon="7.261764677711219"><ele>1207.6666666666667</ele><time>2026-05-02T13:55:34Z</time></trkpt><trkpt lat="45.8031659361813" lon="7.262001569245043"><ele>1202.0</ele><time>2026-05-02T13:55:35Z</time></trkpt><trkpt lat="45.80314494698949" lon="7.262237267564056"><ele>1200.0</ele><time>2026-05-02T13:55:36Z</time></trkpt><trkpt lat="45.80311530924053" lon="7.262449200092606"><ele>1198.0</ele><time>2026-05-02T13:55:37Z</time></trkpt><trkpt lat="45.80307763485377" lon="7.262658520193439"><ele>1196.0</ele><time>2026-05-02T13:55:38Z</time></trkpt><trkpt lat="45.803034872899836" lon="7.2628714275497614"><ele>1196.0</ele><time>2026-05-02T13:55:39Z</time></trkpt><trkpt lat="45.802988530752756" lon="7.263102676289"><ele>1196.0</ele><time>2026-05-02T13:55:40Z</time></trkpt><trkpt lat="45.802934380355595" lon="7.263347353255819"><ele>1196.0</ele><time>2026-05-02T13:55:41Z</time></trkpt><trkpt lat="45.80287329935726" lon="7.263619803963083"><ele>1188.0</ele><time>2026-05-02T13:55:42Z</time></trkpt><trkpt lat="45.802805474681676" lon="7.2639211640541985"><ele>1180.0</ele><time>2026-05-02T13:55:43Z</time></trkpt><trkpt lat="45.80273323132906" lon="7.264246392344024"><ele>1190.5</ele><time>2026-05-02T13:55:44Z</time></trkpt><trkpt lat="45.80265877557374" lon="7.26458956115397"><ele>1201.0</ele><time>2026-05-02T13:55:45Z</time></trkpt><trkpt lat="45.80259915276878" lon="7.264947350014591"><ele>1201.0</ele><time>2026-05-02T13:55:46Z</time></trkpt><trkpt lat="45.80252641367929" lon="7.2653037766822175"><ele>1201.0</ele><time>2026-05-02T13:55:47Z</time></trkpt><trkpt lat="45.802459433688014" lon="7.265666957797788"><ele>1190.5</ele><time>2026-05-02T13:55:48Z</time></trkpt><trkpt lat="45.80239318834364" lon="7.266019190933609"><ele>1180.0</ele><time>2026-05-02T13:55:49Z</time></trkpt><trkpt lat="45.802320562956965" lon="7.26635950226403"><ele>1167.0</ele><time>2026-05-02T13:55:50Z</time></trkpt><trkpt lat="45.80225902608042" lon="7.2666831349024035"><ele>1154.0</ele><time>2026-05-02T13:55:51Z</time></trkpt><trkpt lat="45.802196844027925" lon="7.2669996075119885"><ele>1147.0</ele><time>2026-05-02T13:55:52Z</time></trkpt><trkpt lat="45.802134351304474" lon="7.267312192469949"><ele>1140.0</ele><time>2026-05-02T13:55:53Z</time></trkpt><trkpt lat="45.80207187204381" lon="7.267623319197161"><ele>1140.0</ele><time>2026-05-02T13:55:54Z</time></trkpt><trkpt lat="45.80201384587029" lon="7.267929734804126"><ele>1140.0</ele><time>2026-05-02T13:55:55Z</time></trkpt><trkpt lat="45.80196248157633" lon="7.268230095569157"><ele>1140.0</ele><time>2026-05-02T13:55:56Z</time></trkpt><trkpt lat="45.80190788121613" lon="7.268520412834224"><ele>1139.0</ele><time>2026-05-02T13:55:57Z</time></trkpt><trkpt lat="45.8018468918636" lon="7.268802079213477"><ele>1138.0</ele><time>2026-05-02T13:55:58Z</time></trkpt><trkpt lat="45.80177125719049" lon="7.26907911393396"><ele>1137.0</ele><time>2026-05-02T13:55:59Z</time></trkpt><trkpt lat="45.8016750591164" lon="7.269349431704614"><ele>1151.0</ele><time>2026-05-02T13:56:00Z</time></trkpt><trkpt lat="45.80156254688878" lon="7.269596369610601"><ele>1165.0</ele><time>2026-05-02T13:56:01Z</time></trkpt><trkpt lat="45.80145671449357" lon="7.269840336983152"><ele>1179.0</ele><time>2026-05-02T13:56:02Z</time></trkpt><trkpt lat="45.801351240874055" lon="7.2700908609464"><ele>1179.0</ele><time>2026-05-02T13:56:03Z</time></trkpt><trkpt lat="45.80125263167389" lon="7.270361978398602"><ele>1179.0</ele><time>2026-05-02T13:56:04Z</time></trkpt><trkpt lat="45.80115790027656" lon="7.270637977214999"><ele>1179.0</ele><time>2026-05-02T13:56:05Z</time></trkpt><trkpt lat="45.8010725270789" lon="7.270899700283493"><ele>1181.6666666666667</ele><time>2026-05-02T13:56:06Z</time></trkpt><trkpt lat="45.80100105164166" lon="7.271153610121171"><ele>1184.3333333333335</ele><time>2026-05-02T13:56:07Z</time></trkpt><trkpt lat="45.80093740573205" lon="7.271405145019284"><ele>1187.0</ele><time>2026-05-02T13:56:08Z</time></trkpt><trkpt lat="45.80088532652675" lon="7.271644425962605"><ele>1187.0</ele><time>2026-05-02T13:56:09Z</time></trkpt><trkpt lat="45.800833402614124" lon="7.271881210577542"><ele>1187.0</ele><time>2026-05-02T13:56:10Z</time></trkpt><trkpt lat="45.800780847974956" lon="7.272109962721321"><ele>1187.0</ele><time>2026-05-02T13:56:11Z</time></trkpt><trkpt lat="45.80071641816634" lon="7.272332489671564"><ele>1181.3333333333335</ele><time>2026-05-02T13:56:12Z</time></trkpt><trkpt lat="45.800641699248985" lon="7.27255004103382"><ele>1175.6666666666667</ele><time>2026-05-02T13:56:13Z</time></trkpt><trkpt lat="45.80054816263902" lon="7.272774636206825"><ele>1170.0</ele><time>2026-05-02T13:56:14Z</time></trkpt><trkpt lat="45.80044395491628" lon="7.273007171871561"><ele>1166.0</ele><time>2026-05-02T13:56:15Z</time></trkpt><trkpt lat="45.80032966442547" lon="7.273210280513568"><ele>1162.0</ele><time>2026-05-02T13:56:16Z</time></trkpt><trkpt lat="45.80021198513886" lon="7.273405388751156"><ele>1158.0</ele><time>2026-05-02T13:56:17Z</time></trkpt><trkpt lat="45.80010203731157" lon="7.273600777658883"><ele>1162.3333333333333</ele><time>2026-05-02T13:56:18Z</time></trkpt><trkpt lat="45.79999081021155" lon="7.273789148793602"><ele>1166.6666666666665</ele><time>2026-05-02T13:56:19Z</time></trkpt><trkpt lat="45.7998733942112" lon="7.273964769265015"><ele>1171.0</ele><time>2026-05-02T13:56:20Z</time></trkpt><trkpt lat="45.7997497166838" lon="7.274132861537292"><ele>1171.0</ele><time>2026-05-02T13:56:21Z</time></trkpt><trkpt lat="45.799625993729876" lon="7.274295131807157"><ele>1171.0</ele><time>2026-05-02T13:56:22Z</time></trkpt><trkpt lat="45.79949943734959" lon="7.274458872488545"><ele>1171.0</ele><time>2026-05-02T13:56:23Z</time></trkpt><trkpt lat="45.799368336265765" lon="7.274625458116859"><ele>1174.6666666666665</ele><time>2026-05-02T13:56:24Z</time></trkpt><trkpt lat="45.799249761883985" lon="7.274794574170126"><ele>1178.3333333333333</ele><time>2026-05-02T13:56:25Z</time></trkpt><trkpt lat="45.79913542355177" lon="7.274994227905664"><ele>1182.0</ele><time>2026-05-02T13:56:26Z</time></trkpt><trkpt lat="45.799034933224426" lon="7.275236446275774"><ele>1182.0</ele><time>2026-05-02T13:56:27Z</time></trkpt><trkpt lat="45.79892190620454" lon="7.2755151900125465"><ele>1182.0</ele><time>2026-05-02T13:56:28Z</time></trkpt><trkpt lat="45.79881852969179" lon="7.2758442036693785"><ele>1171.0</ele><time>2026-05-02T13:56:29Z</time></trkpt><trkpt lat="45.798715758136886" lon="7.276171992223937"><ele>1160.0</ele><time>2026-05-02T13:56:30Z</time></trkpt><trkpt lat="45.798626229246615" lon="7.276494951129919"><ele>1155.3333333333335</ele><time>2026-05-02T13:56:31Z</time></trkpt><trkpt lat="45.79853231935753" lon="7.27678438283237"><ele>1150.6666666666667</ele><time>2026-05-02T13:56:32Z</time></trkpt><trkpt lat="45.79843228383833" lon="7.277073956689176"><ele>1146.0</ele><time>2026-05-02T13:56:33Z</time></trkpt><trkpt lat="45.798349253739694" lon="7.277343759814829"><ele>1149.3333333333333</ele><time>2026-05-02T13:56:34Z</time></trkpt><trkpt lat="45.79825953025768" lon="7.277605242959187"><ele>1152.6666666666665</ele><time>2026-05-02T13:56:35Z</time></trkpt><trkpt lat="45.79818174803726" lon="7.277866256050107"><ele>1156.0</ele><time>2026-05-02T13:56:36Z</time></trkpt><trkpt lat="45.7981010375733" lon="7.278114912824674"><ele>1156.0</ele><time>2026-05-02T13:56:37Z</time></trkpt><trkpt lat="45.798010089478794" lon="7.278358506796985"><ele>1156.0</ele><time>2026-05-02T13:56:38Z</time></trkpt><trkpt lat="45.79790951671895" lon="7.278597800011209"><ele>1156.0</ele><time>2026-05-02T13:56:39Z</time></trkpt><trkpt lat="45.79779589119799" lon="7.278829306275328"><ele>1162.0</ele><time>2026-05-02T13:56:40Z</time></trkpt><trkpt lat="45.79767471764671" lon="7.279049469130197"><ele>1168.0</ele><time>2026-05-02T13:56:41Z</time></trkpt><trkpt lat="45.797537307701276" lon="7.279262157046666"><ele>1174.0</ele><time>2026-05-02T13:56:42Z</time></trkpt><trkpt lat="45.797410982201924" lon="7.279478657901339"><ele>1174.0</ele><time>2026-05-02T13:56:43Z</time></trkpt><trkpt lat="45.79728534382303" lon="7.279681198229625"><ele>1174.0</ele><time>2026-05-02T13:56:44Z</time></trkpt><trkpt lat="45.79717146830398" lon="7.279875069831463"><ele>1174.0</ele><time>2026-05-02T13:56:45Z</time></trkpt><trkpt lat="45.79705047118397" lon="7.280067281636743"><ele>1178.6666666666665</ele><time>2026-05-02T13:56:46Z</time></trkpt><trkpt lat="45.79692992925483" lon="7.280265989240199"><ele>1183.3333333333333</ele><time>2026-05-02T13:56:47Z</time></trkpt><trkpt lat="45.79681950037417" lon="7.280471997985355"><ele>1188.0</ele><time>2026-05-02T13:56:48Z</time></trkpt><trkpt lat="45.7967175502099" lon="7.280695005719531"><ele>1178.0</ele><time>2026-05-02T13:56:49Z</time></trkpt><trkpt lat="45.79662548510699" lon="7.280926659832212"><ele>1168.0</ele><time>2026-05-02T13:56:50Z</time></trkpt><trkpt lat="45.79654872505659" lon="7.28115103542231"><ele>1158.0</ele><time>2026-05-02T13:56:51Z</time></trkpt><trkpt lat="45.79648742052914" lon="7.281381886516617"><ele>1150.6666666666667</ele><time>2026-05-02T13:56:52Z</time></trkpt><trkpt lat="45.796425846313625" lon="7.281611365123169"><ele>1143.3333333333335</ele><time>2026-05-02T13:56:53Z</time></trkpt><trkpt lat="45.796369161278825" lon="7.281847370938566"><ele>1136.0</ele><time>2026-05-02T13:56:54Z</time></trkpt><trkpt lat="45.7963060786676" lon="7.282078544434752"><ele>1131.6666666666667</ele><time>2026-05-02T13:56:55Z</time></trkpt><trkpt lat="45.7962420093019" lon="7.2823071957515175"><ele>1127.3333333333333</ele><time>2026-05-02T13:56:56Z</time></trkpt><trkpt lat="45.79617985780319" lon="7.282530573540057"><ele>1123.0</ele><time>2026-05-02T13:56:57Z</time></trkpt><trkpt lat="45.79610181608555" lon="7.2827543725813415"><ele>1123.0</ele><time>2026-05-02T13:56:58Z</time></trkpt><trkpt lat="45.79601987962041" lon="7.28297299715668"><ele>1123.0</ele><time>2026-05-02T13:56:59Z</time></trkpt><trkpt lat="45.795907038469046" lon="7.283199811291337"><ele>1123.0</ele><time>2026-05-02T13:57:00Z</time></trkpt><trkpt lat="45.795775352052324" lon="7.283479367151106"><ele>1125.6666666666665</ele><time>2026-05-02T13:57:01Z</time></trkpt><trkpt lat="45.7956334213329" lon="7.2837346718258305"><ele>1128.3333333333333</ele><time>2026-05-02T13:57:02Z</time></trkpt><trkpt lat="45.79549691025247" lon="7.283946647714236"><ele>1131.0</ele><time>2026-05-02T13:57:03Z</time></trkpt><trkpt lat="45.79534653265377" lon="7.284174119968134"><ele>1130.0</ele><time>2026-05-02T13:57:04Z</time></trkpt><trkpt lat="45.795174999413085" lon="7.284423366472555"><ele>1129.0</ele><time>2026-05-02T13:57:05Z</time></trkpt><trkpt lat="45.79501622391604" lon="7.284654825296957"><ele>1124.3333333333333</ele><time>2026-05-02T13:57:06Z</time></trkpt><trkpt lat="45.79485446920805" lon="7.284890176075053"><ele>1119.6666666666667</ele><time>2026-05-02T13:57:07Z</time></trkpt><trkpt lat="45.79470605112665" lon="7.2851102984205465"><ele>1115.0</ele><time>2026-05-02T13:57:08Z</time></trkpt><trkpt lat="45.79456245906974" lon="7.285330833489062"><ele>1115.0</ele><time>2026-05-02T13:57:09Z</time></trkpt><trkpt lat="45.79443663605486" lon="7.285535977944304"><ele>1115.0</ele><time>2026-05-02T13:57:10Z</time></trkpt><trkpt lat="45.79432227546216" lon="7.2857258157796965"><ele>1115.0</ele><time>2026-05-02T13:57:11Z</time></trkpt><trkpt lat="45.79421464613346" lon="7.285908951407927"><ele>1114.3333333333335</ele><time>2026-05-02T13:57:12Z</time></trkpt><trkpt lat="45.79411240549232" lon="7.2860889263950055"><ele>1113.6666666666667</ele><time>2026-05-02T13:57:13Z</time></trkpt><trkpt lat="45.79401082521501" lon="7.286270806542276"><ele>1113.0</ele><time>2026-05-02T13:57:14Z</time></trkpt><trkpt lat="45.79391008345385" lon="7.286451314986383"><ele>1109.3333333333333</ele><time>2026-05-02T13:57:15Z</time></trkpt><trkpt lat="45.79380836166551" lon="7.286631774777211"><ele>1105.6666666666665</ele><time>2026-05-02T13:57:16Z</time></trkpt><trkpt lat="45.79370799579668" lon="7.28680300887818"><ele>1102.0</ele><time>2026-05-02T13:57:17Z</time></trkpt><trkpt lat="45.793610927298616" lon="7.286971057183534"><ele>1102.0</ele><time>2026-05-02T13:57:18Z</time></trkpt><trkpt lat="45.793528076144206" lon="7.287112540542473"><ele>1102.0</ele><time>2026-05-02T13:57:19Z</time></trkpt><trkpt lat="45.79345345248988" lon="7.2872393281718555"><ele>1102.0</ele><time>2026-05-02T13:57:20Z</time></trkpt><trkpt lat="45.79338615217246" lon="7.287340872522748"><ele>1102.0</ele><time>2026-05-02T13:57:21Z</time></trkpt><trkpt lat="45.79331989535228" lon="7.287425782732181"><ele>1102.0</ele><time>2026-05-02T13:57:22Z</time></trkpt><trkpt lat="45.79324520759741" lon="7.287496820455704"><ele>1100.8</ele><time>2026-05-02T13:57:23Z</time></trkpt><trkpt lat="45.793152793587126" lon="7.287537482610817"><ele>1099.6</ele><time>2026-05-02T13:57:24Z</time></trkpt><trkpt lat="45.79305318343862" lon="7.287548630112251"><ele>1098.3999999999999</ele><time>2026-05-02T13:57:25Z</time></trkpt><trkpt lat="45.79295323568983" lon="7.287526911971262"><ele>1097.2</ele><time>2026-05-02T13:57:26Z</time></trkpt><trkpt lat="45.79285872104726" lon="7.287465350047136"><ele>1096.0</ele><time>2026-05-02T13:57:27Z</time></trkpt><trkpt lat="45.79277559313489" lon="7.287373848630493"><ele>1096.0</ele><time>2026-05-02T13:57:28Z</time></trkpt><trkpt lat="45.792703491489824" lon="7.287260918831761"><ele>1096.0</ele><time>2026-05-02T13:57:29Z</time></trkpt><trkpt lat="45.79264630774384" lon="7.287117750505382"><ele>1096.0</ele><time>2026-05-02T13:57:30Z</time></trkpt><trkpt lat="45.79259293876584" lon="7.286921541517803"><ele>1096.0</ele><time>2026-05-02T13:57:31Z</time></trkpt><trkpt lat="45.79254277918741" lon="7.286693287977692"><ele>1095.0</ele><time>2026-05-02T13:57:32Z</time></trkpt><trkpt lat="45.792501734977826" lon="7.286462397846226"><ele>1094.0</ele><time>2026-05-02T13:57:33Z</time></trkpt><trkpt lat="45.79245961398854" lon="7.286249238008218"><ele>1093.0</ele><time>2026-05-02T13:57:34Z</time></trkpt><trkpt lat="45.79241042832421" lon="7.286038870596684"><ele>1096.0</ele><time>2026-05-02T13:57:35Z</time></trkpt><trkpt lat="45.79232858834792" lon="7.285836265210832"><ele>1099.0</ele><time>2026-05-02T13:57:36Z</time></trkpt><trkpt lat="45.79223362835647" lon="7.285608940857477"><ele>1102.0</ele><time>2026-05-02T13:57:37Z</time></trkpt><trkpt lat="45.792102592154585" lon="7.285386500199737"><ele>1099.0</ele><time>2026-05-02T13:57:38Z</time></trkpt><trkpt lat="45.79196394354493" lon="7.285197809659691"><ele>1096.0</ele><time>2026-05-02T13:57:39Z</time></trkpt><trkpt lat="45.791842267896655" lon="7.284995548452029"><ele>1093.0</ele><time>2026-05-02T13:57:40Z</time></trkpt><trkpt lat="45.79173048617778" lon="7.284827691949392"><ele>1099.0</ele><time>2026-05-02T13:57:41Z</time></trkpt><trkpt lat="45.79163038645783" lon="7.284709986336758"><ele>1105.0</ele><time>2026-05-02T13:57:42Z</time></trkpt><trkpt lat="45.791533519671184" lon="7.284638754623233"><ele>1111.0</ele><time>2026-05-02T13:57:43Z</time></trkpt><trkpt lat="45.791446976483684" lon="7.284614293134848"><ele>1117.0</ele><time>2026-05-02T13:57:44Z</time></trkpt><trkpt lat="45.79137274398823" lon="7.284629143879787"><ele>1123.0</ele><time>2026-05-02T13:57:45Z</time></trkpt><trkpt lat="45.79129459866468" lon="7.284679545290383"><ele>1123.0</ele><time>2026-05-02T13:57:46Z</time></trkpt><trkpt lat="45.79122875087143" lon="7.284761206755344"><ele>1123.0</ele><time>2026-05-02T13:57:47Z</time></trkpt><trkpt lat="45.791170193494686" lon="7.2848533504930595"><ele>1123.0</ele><time>2026-05-02T13:57:48Z</time></trkpt><trkpt lat="45.79114329596648" lon="7.2849757295368835"><ele>1123.0</ele><time>2026-05-02T13:57:49Z</time></trkpt><trkpt lat="45.791144779531386" lon="7.285111713095268"><ele>1123.0</ele><time>2026-05-02T13:57:50Z</time></trkpt><trkpt lat="45.791186928722134" lon="7.285236288086507"><ele>1117.0</ele><time>2026-05-02T13:57:51Z</time></trkpt><trkpt lat="45.7912156289496" lon="7.285373764495084"><ele>1111.0</ele><time>2026-05-02T13:57:52Z</time></trkpt><trkpt lat="45.79125739679544" lon="7.285508715796491"><ele>1105.0</ele><time>2026-05-02T13:57:53Z</time></trkpt><trkpt lat="45.7913120405496" lon="7.285649524775705"><ele>1099.0</ele><time>2026-05-02T13:57:54Z</time></trkpt><trkpt lat="45.79133377665328" lon="7.285803158664802"><ele>1093.0</ele><time>2026-05-02T13:57:55Z</time></trkpt><trkpt lat="45.79134875487634" lon="7.28596122711901"><ele>1090.0</ele><time>2026-05-02T13:57:56Z</time></trkpt><trkpt lat="45.791349549492736" lon="7.286120337243929"><ele>1087.0</ele><time>2026-05-02T13:57:57Z</time></trkpt><trkpt lat="45.791332123462794" lon="7.286270011745139"><ele>1084.0</ele><time>2026-05-02T13:57:58Z</time></trkpt><trkpt lat="45.79130158276554" lon="7.286431143033222"><ele>1081.0</ele><time>2026-05-02T13:57:59Z</time></trkpt><trkpt lat="45.79125666833599" lon="7.286587357205703"><ele>1078.5</ele><time>2026-05-02T13:58:00Z</time></trkpt><trkpt lat="45.79120666262168" lon="7.286751714229007"><ele>1076.0</ele><time>2026-05-02T13:58:01Z</time></trkpt><trkpt lat="45.7911478054493" lon="7.28691388282645"><ele>1073.5</ele><time>2026-05-02T13:58:02Z</time></trkpt><trkpt lat="45.791089971248" lon="7.287079487665626"><ele>1071.0</ele><time>2026-05-02T13:58:03Z</time></trkpt><trkpt lat="45.791032579926004" lon="7.287249800122736"><ele>1073.0</ele><time>2026-05-02T13:58:04Z</time></trkpt><trkpt lat="45.790977147038994" lon="7.287421643809209"><ele>1075.0</ele><time>2026-05-02T13:58:05Z</time></trkpt><trkpt lat="45.790918470107314" lon="7.287595814252205"><ele>1077.0</ele><time>2026-05-02T13:58:06Z</time></trkpt><trkpt lat="45.790861800995145" lon="7.2877793982755685"><ele>1079.0</ele><time>2026-05-02T13:58:07Z</time></trkpt><trkpt lat="45.79081613002616" lon="7.287970729380606"><ele>1076.6666666666667</ele><time>2026-05-02T13:58:08Z</time></trkpt><trkpt lat="45.79078589497732" lon="7.288175328800125"><ele>1074.3333333333333</ele><time>2026-05-02T13:58:09Z</time></trkpt><trkpt lat="45.7907684161032" lon="7.288391888708947"><ele>1072.0</ele><time>2026-05-02T13:58:10Z</time></trkpt><trkpt lat="45.790753758496024" lon="7.288631655756666"><ele>1070.0</ele><time>2026-05-02T13:58:11Z</time></trkpt><trkpt lat="45.79076421414975" lon="7.288928113052172"><ele>1068.0</ele><time>2026-05-02T13:58:12Z</time></trkpt><trkpt lat="45.79080835824437" lon="7.289275212082993"><ele>1068.0</ele><time>2026-05-02T13:58:13Z</time></trkpt><trkpt lat="45.79087175903571" lon="7.289643651809953"><ele>1068.0</ele><time>2026-05-02T13:58:14Z</time></trkpt><trkpt lat="45.79094041834866" lon="7.290043225368644"><ele>1071.5</ele><time>2026-05-02T13:58:15Z</time></trkpt><trkpt lat="45.79100393119924" lon="7.290413065111745"><ele>1075.0</ele><time>2026-05-02T13:58:16Z</time></trkpt><trkpt lat="45.79107706135071" lon="7.290776506106114"><ele>1055.0</ele><time>2026-05-02T13:58:17Z</time></trkpt><trkpt lat="45.791131226533224" lon="7.29111632780369"><ele>1035.0</ele><time>2026-05-02T13:58:18Z</time></trkpt><trkpt lat="45.791189606708286" lon="7.291425611421667"><ele>1035.0</ele><time>2026-05-02T13:58:19Z</time></trkpt><trkpt lat="45.791238144917294" lon="7.291719096460113"><ele>1035.0</ele><time>2026-05-02T13:58:20Z</time></trkpt><trkpt lat="45.79124788509906" lon="7.292004711938248"><ele>1035.0</ele><time>2026-05-02T13:58:21Z</time></trkpt><trkpt lat="45.791207795259616" lon="7.2922617530323235"><ele>1034.6666666666667</ele><time>2026-05-02T13:58:22Z</time></trkpt><trkpt lat="45.79114820893152" lon="7.292484523351577"><ele>1034.3333333333335</ele><time>2026-05-02T13:58:23Z</time></trkpt><trkpt lat="45.79106265213824" lon="7.2926821670227495"><ele>1034.0</ele><time>2026-05-02T13:58:24Z</time></trkpt><trkpt lat="45.790960896370756" lon="7.292845999877591"><ele>1034.6666666666667</ele><time>2026-05-02T13:58:25Z</time></trkpt><trkpt lat="45.79082197630797" lon="7.293016324562232"><ele>1035.3333333333333</ele><time>2026-05-02T13:58:26Z</time></trkpt><trkpt lat="45.79064393378871" lon="7.293128587429258"><ele>1036.0</ele><time>2026-05-02T13:58:27Z</time></trkpt><trkpt lat="45.790448125032405" lon="7.29325755481875"><ele>1036.0</ele><time>2026-05-02T13:58:28Z</time></trkpt><trkpt lat="45.79023371048361" lon="7.293390940907031"><ele>1036.0</ele><time>2026-05-02T13:58:29Z</time></trkpt><trkpt lat="45.790009944968354" lon="7.293533316970204"><ele>1041.0</ele><time>2026-05-02T13:58:30Z</time></trkpt><trkpt lat="45.78976411735319" lon="7.293728690252472"><ele>1046.0</ele><time>2026-05-02T13:58:31Z</time></trkpt><trkpt lat="45.78953205804886" lon="7.293912294161634"><ele>1040.0</ele><time>2026-05-02T13:58:32Z</time></trkpt><trkpt lat="45.78930647960124" lon="7.294069083775638"><ele>1034.0</ele><time>2026-05-02T13:58:33Z</time></trkpt><trkpt lat="45.789085114021056" lon="7.294219939100735"><ele>1034.0</ele><time>2026-05-02T13:58:34Z</time></trkpt><trkpt lat="45.78886496484424" lon="7.2943441016901"><ele>1034.0</ele><time>2026-05-02T13:58:35Z</time></trkpt><trkpt lat="45.78865095342929" lon="7.294488117573654"><ele>1037.5</ele><time>2026-05-02T13:58:36Z</time></trkpt><trkpt lat="45.788433153894445" lon="7.294623489402842"><ele>1041.0</ele><time>2026-05-02T13:58:37Z</time></trkpt><trkpt lat="45.788223519080596" lon="7.2947640161192195"><ele>1029.0</ele><time>2026-05-02T13:58:38Z</time></trkpt><trkpt lat="45.787997997511475" lon="7.29486020213936"><ele>1017.0</ele><time>2026-05-02T13:58:39Z</time></trkpt><trkpt lat="45.78775425382679" lon="7.294939424415006"><ele>1018.0</ele><time>2026-05-02T13:58:40Z</time></trkpt><trkpt lat="45.78750609362771" lon="7.295012449963203"><ele>1019.0</ele><time>2026-05-02T13:58:41Z</time></trkpt><trkpt lat="45.78724553968766" lon="7.295093778575551"><ele>1019.0</ele><time>2026-05-02T13:58:42Z</time></trkpt><trkpt lat="45.786995547605294" lon="7.29516850897784"><ele>1019.0</ele><time>2026-05-02T13:58:43Z</time></trkpt><trkpt lat="45.78676166698543" lon="7.295242795538538"><ele>1020.5</ele><time>2026-05-02T13:58:44Z</time></trkpt><trkpt lat="45.78652673470658" lon="7.295318222310838"><ele>1022.0</ele><time>2026-05-02T13:58:45Z</time></trkpt><trkpt lat="45.78630020728722" lon="7.295391278669236"><ele>1022.0</ele><time>2026-05-02T13:58:46Z</time></trkpt><trkpt lat="45.78608240930661" lon="7.295461958495287"><ele>1022.0</ele><time>2026-05-02T13:58:47Z</time></trkpt><trkpt lat="45.7858859741521" lon="7.295525631134131"><ele>1022.0</ele><time>2026-05-02T13:58:48Z</time></trkpt><trkpt lat="45.785698131888886" lon="7.295579932956098"><ele>1013.0</ele><time>2026-05-02T13:58:49Z</time></trkpt><trkpt lat="45.785522221167106" lon="7.295630542532032"><ele>1004.0</ele><time>2026-05-02T13:58:50Z</time></trkpt><trkpt lat="45.785357563068615" lon="7.295675495656506"><ele>995.0</ele><time>2026-05-02T13:58:51Z</time></trkpt><trkpt lat="45.78520156713799" lon="7.295704057663065"><ele>995.3333333333334</ele><time>2026-05-02T13:58:52Z</time></trkpt><trkpt lat="45.78504583323168" lon="7.295714741442663"><ele>995.6666666666667</ele><time>2026-05-02T13:58:53Z</time></trkpt><trkpt lat="45.784884831698896" lon="7.295723438117413"><ele>996.0</ele><time>2026-05-02T13:58:54Z</time></trkpt><trkpt lat="45.78472369965655" lon="7.295734562264835"><ele>996.0</ele><time>2026-05-02T13:58:55Z</time></trkpt><trkpt lat="45.78456526911559" lon="7.295751541828536"><ele>996.0</ele><time>2026-05-02T13:58:56Z</time></trkpt><trkpt lat="45.78439976542713" lon="7.295759093306023"><ele>996.0</ele><time>2026-05-02T13:58:57Z</time></trkpt><trkpt lat="45.78423919047296" lon="7.2957647252941475"><ele>997.3333333333333</ele><time>2026-05-02T13:58:58Z</time></trkpt><trkpt lat="45.78408239819251" lon="7.2957396805892945"><ele>998.6666666666666</ele><time>2026-05-02T13:58:59Z</time></trkpt><trkpt lat="45.78392867993282" lon="7.295747981195124"><ele>1000.0</ele><time>2026-05-02T13:59:00Z</time></trkpt><trkpt lat="45.78378172714523" lon="7.295759966247726"><ele>1000.0</ele><time>2026-05-02T13:59:01Z</time></trkpt><trkpt lat="45.78364353345598" lon="7.295773314092877"><ele>1000.0</ele><time>2026-05-02T13:59:02Z</time></trkpt><trkpt lat="45.783528804043954" lon="7.295777140400243"><ele>1000.0</ele><time>2026-05-02T13:59:03Z</time></trkpt><trkpt lat="45.78343262017555" lon="7.295761023030953"><ele>1000.0</ele><time>2026-05-02T13:59:04Z</time></trkpt><trkpt lat="45.78334538424304" lon="7.2956944343326375"><ele>1000.0</ele><time>2026-05-02T13:59:05Z</time></trkpt><trkpt lat="45.78327579489064" lon="7.295585289738001"><ele>1002.5</ele><time>2026-05-02T13:59:06Z</time></trkpt><trkpt lat="45.783198638815456" lon="7.295454940576056"><ele>1005.0</ele><time>2026-05-02T13:59:07Z</time></trkpt><trkpt lat="45.78312340336287" lon="7.295284333171633"><ele>1007.5</ele><time>2026-05-02T13:59:08Z</time></trkpt><trkpt lat="45.783042026908795" lon="7.295104528448731"><ele>1010.0</ele><time>2026-05-02T13:59:09Z</time></trkpt><trkpt lat="45.78294125973069" lon="7.29493022780041"><ele>1013.0</ele><time>2026-05-02T13:59:10Z</time></trkpt><trkpt lat="45.78282884122381" lon="7.294747912754767"><ele>1016.0</ele><time>2026-05-02T13:59:11Z</time></trkpt><trkpt lat="45.78268845182728" lon="7.2946059915324195"><ele>1019.0</ele><time>2026-05-02T13:59:12Z</time></trkpt><trkpt lat="45.782549338686685" lon="7.29449769193771"><ele>1019.0</ele><time>2026-05-02T13:59:13Z</time></trkpt><trkpt lat="45.78240236593985" lon="7.294365373106918"><ele>1019.0</ele><time>2026-05-02T13:59:14Z</time></trkpt><trkpt lat="45.782260070962685" lon="7.2942252867711295"><ele>1019.0</ele><time>2026-05-02T13:59:15Z</time></trkpt><trkpt lat="45.782118298228454" lon="7.294088963429339"><ele>1019.0</ele><time>2026-05-02T13:59:16Z</time></trkpt><trkpt lat="45.78197884422334" lon="7.293960732818061"><ele>1019.0</ele><time>2026-05-02T13:59:17Z</time></trkpt><trkpt lat="45.78184692851666" lon="7.293838416513415"><ele>1019.0</ele><time>2026-05-02T13:59:18Z</time></trkpt><trkpt lat="45.78170675125662" lon="7.293716559709691"><ele>1023.0</ele><time>2026-05-02T13:59:19Z</time></trkpt><trkpt lat="45.78156355523982" lon="7.293612058996197"><ele>1027.0</ele><time>2026-05-02T13:59:20Z</time></trkpt><trkpt lat="45.78141512504515" lon="7.293524915878022"><ele>1031.0</ele><time>2026-05-02T13:59:21Z</time></trkpt><trkpt lat="45.78125727894527" lon="7.293454612002719"><ele>1031.0</ele><time>2026-05-02T13:59:22Z</time></trkpt><trkpt lat="45.78109920524023" lon="7.2933781414856735"><ele>1031.0</ele><time>2026-05-02T13:59:23Z</time></trkpt><trkpt lat="45.780941607843495" lon="7.293301712626783"><ele>1031.0</ele><time>2026-05-02T13:59:24Z</time></trkpt><trkpt lat="45.78078584078061" lon="7.293229859590811"><ele>1026.0</ele><time>2026-05-02T13:59:25Z</time></trkpt><trkpt lat="45.78063340574342" lon="7.293163045152416"><ele>1021.0</ele><time>2026-05-02T13:59:26Z</time></trkpt><trkpt lat="45.780484153213436" lon="7.29309092514063"><ele>1016.0</ele><time>2026-05-02T13:59:27Z</time></trkpt><trkpt lat="45.78035489647775" lon="7.293024357324937"><ele>1019.0</ele><time>2026-05-02T13:59:28Z</time></trkpt><trkpt lat="45.78023990746716" lon="7.292957180358889"><ele>1022.0</ele><time>2026-05-02T13:59:29Z</time></trkpt><trkpt lat="45.780136773571996" lon="7.292862547850173"><ele>1025.0</ele><time>2026-05-02T13:59:30Z</time></trkpt><trkpt lat="45.7800591674439" lon="7.292724899685388"><ele>1028.0</ele><time>2026-05-02T13:59:31Z</time></trkpt><trkpt lat="45.77999587255744" lon="7.292562635094798"><ele>1028.0</ele><time>2026-05-02T13:59:32Z</time></trkpt><trkpt lat="45.77993675178736" lon="7.292392307442074"><ele>1028.0</ele><time>2026-05-02T13:59:33Z</time></trkpt><trkpt lat="45.77988379603717" lon="7.292227276804488"><ele>1028.0</ele><time>2026-05-02T13:59:34Z</time></trkpt><trkpt lat="45.77982657931751" lon="7.292076286008613"><ele>1028.0</ele><time>2026-05-02T13:59:35Z</time></trkpt><trkpt lat="45.77973051752112" lon="7.291958368613136"><ele>1029.75</ele><time>2026-05-02T13:59:36Z</time></trkpt><trkpt lat="45.77960456002666" lon="7.291896039176464"><ele>1031.5</ele><time>2026-05-02T13:59:37Z</time></trkpt><trkpt lat="45.77947526093387" lon="7.291911028851941"><ele>1033.25</ele><time>2026-05-02T13:59:38Z</time></trkpt><trkpt lat="45.77936249428136" lon="7.291937208967495"><ele>1035.0</ele><time>2026-05-02T13:59:39Z</time></trkpt><trkpt lat="45.77925719531215" lon="7.2919344578888055"><ele>1035.0</ele><time>2026-05-02T13:59:40Z</time></trkpt><trkpt lat="45.77916888006548" lon="7.291848456977037"><ele>1035.0</ele><time>2026-05-02T13:59:41Z</time></trkpt><trkpt lat="45.77908751381836" lon="7.291727140286783"><ele>1035.0</ele><time>2026-05-02T13:59:42Z</time></trkpt><trkpt lat="45.778993460027024" lon="7.291594731981922"><ele>1035.0</ele><time>2026-05-02T13:59:43Z</time></trkpt><trkpt lat="45.77885755683212" lon="7.291510797978475"><ele>1035.0</ele><time>2026-05-02T13:59:44Z</time></trkpt><trkpt lat="45.77869885714692" lon="7.291472159272551"><ele>1035.0</ele><time>2026-05-02T13:59:45Z</time></trkpt><trkpt lat="45.778540315943175" lon="7.291417918257081"><ele>1035.0</ele><time>2026-05-02T13:59:46Z</time></trkpt><trkpt lat="45.77838390627194" lon="7.291316275764616"><ele>1038.6666666666667</ele><time>2026-05-02T13:59:47Z</time></trkpt><trkpt lat="45.778223588657305" lon="7.291177172049423"><ele>1042.3333333333335</ele><time>2026-05-02T13:59:48Z</time></trkpt><trkpt lat="45.77808195105683" lon="7.291058011992425"><ele>1046.0</ele><time>2026-05-02T13:59:49Z</time></trkpt><trkpt lat="45.77795414717389" lon="7.290946919381867"><ele>1046.0</ele><time>2026-05-02T13:59:50Z</time></trkpt><trkpt lat="45.77783208442154" lon="7.290832144353629"><ele>1046.0</ele><time>2026-05-02T13:59:51Z</time></trkpt><trkpt lat="45.77772907151725" lon="7.290684141875543"><ele>1046.0</ele><time>2026-05-02T13:59:52Z</time></trkpt><trkpt lat="45.777650129300284" lon="7.2905076091748935"><ele>1046.0</ele><time>2026-05-02T13:59:53Z</time></trkpt><trkpt lat="45.77754683429247" lon="7.290352482862665"><ele>1047.25</ele><time>2026-05-02T13:59:54Z</time></trkpt><trkpt lat="45.77745907026386" lon="7.290192852828844"><ele>1048.5</ele><time>2026-05-02T13:59:55Z</time></trkpt><trkpt lat="45.77736026873288" lon="7.290058343743097"><ele>1049.75</ele><time>2026-05-02T13:59:56Z</time></trkpt><trkpt lat="45.777251756746324" lon="7.289944618850619"><ele>1051.0</ele><time>2026-05-02T13:59:57Z</time></trkpt><trkpt lat="45.777102007413475" lon="7.289934585572546"><ele>1051.0</ele><time>2026-05-02T13:59:58Z</time></trkpt><trkpt lat="45.77695565798418" lon="7.289936014956485"><ele>1051.0</ele><time>2026-05-02T13:59:59Z</time></trkpt><trkpt lat="45.776823017733335" lon="7.289941271801298"><ele>1051.0</ele><time>2026-05-02T14:00:00Z</time></trkpt><trkpt lat="45.77669991165098" lon="7.289932283320573"><ele>1051.0</ele><time>2026-05-02T14:00:01Z</time></trkpt><trkpt lat="45.776595698591905" lon="7.289851138827576"><ele>1049.3999999999999</ele><time>2026-05-02T14:00:02Z</time></trkpt><trkpt lat="45.77650276719513" lon="7.289759230468365"><ele>1047.8</ele><time>2026-05-02T14:00:03Z</time></trkpt><trkpt lat="45.77640514580317" lon="7.289692408970387"><ele>1046.1999999999998</ele><time>2026-05-02T14:00:04Z</time></trkpt><trkpt lat="45.77631556347639" lon="7.28965465991459"><ele>1044.6</ele><time>2026-05-02T14:00:05Z</time></trkpt><trkpt lat="45.77620703222563" lon="7.289741730712497"><ele>1043.0</ele><time>2026-05-02T14:00:06Z</time></trkpt><trkpt lat="45.77615650420475" lon="7.289921430273165"><ele>1043.0</ele><time>2026-05-02T14:00:07Z</time></trkpt><trkpt lat="45.776110184553325" lon="7.290102854862561"><ele>1043.0</ele><time>2026-05-02T14:00:08Z</time></trkpt><trkpt lat="45.77605769132112" lon="7.290307897486544"><ele>1043.0</ele><time>2026-05-02T14:00:09Z</time></trkpt><trkpt lat="45.77600651316217" lon="7.290530597254429"><ele>1048.0</ele><time>2026-05-02T14:00:10Z</time></trkpt><trkpt lat="45.775978094717864" lon="7.290784478645456"><ele>1053.0</ele><time>2026-05-02T14:00:11Z</time></trkpt><trkpt lat="45.775943270953206" lon="7.291061203080795"><ele>1058.0</ele><time>2026-05-02T14:00:12Z</time></trkpt><trkpt lat="45.77591598276731" lon="7.291314817693413"><ele>1057.25</ele><time>2026-05-02T14:00:13Z</time></trkpt><trkpt lat="45.77590118972718" lon="7.291535054256433"><ele>1056.5</ele><time>2026-05-02T14:00:14Z</time></trkpt><trkpt lat="45.775910384533326" lon="7.291734816699047"><ele>1055.75</ele><time>2026-05-02T14:00:15Z</time></trkpt><trkpt lat="45.77595532696421" lon="7.291909686037046"><ele>1055.0</ele><time>2026-05-02T14:00:16Z</time></trkpt><trkpt lat="45.77602059248631" lon="7.292064001335055"><ele>1054.4</ele><time>2026-05-02T14:00:17Z</time></trkpt><trkpt lat="45.776063906616336" lon="7.292213019970863"><ele>1053.8</ele><time>2026-05-02T14:00:18Z</time></trkpt><trkpt lat="45.77605862196271" lon="7.292348907228322"><ele>1053.2</ele><time>2026-05-02T14:00:19Z</time></trkpt><trkpt lat="45.776015190666186" lon="7.2924688049392765"><ele>1052.6</ele><time>2026-05-02T14:00:20Z</time></trkpt><trkpt lat="45.77593681770724" lon="7.292568189218281"><ele>1052.0</ele><time>2026-05-02T14:00:21Z</time></trkpt><trkpt lat="45.77582460028291" lon="7.2926597997423706"><ele>1052.0</ele><time>2026-05-02T14:00:22Z</time></trkpt><trkpt lat="45.77569285067365" lon="7.292745785778614"><ele>1052.0</ele><time>2026-05-02T14:00:23Z</time></trkpt><trkpt lat="45.77555493675008" lon="7.292852384043057"><ele>1052.0</ele><time>2026-05-02T14:00:24Z</time></trkpt><trkpt lat="45.7754314436577" lon="7.292981976937771"><ele>1052.0</ele><time>2026-05-02T14:00:25Z</time></trkpt><trkpt lat="45.775314552789176" lon="7.293039448048569"><ele>1052.0</ele><time>2026-05-02T14:00:26Z</time></trkpt><trkpt lat="45.775194453494144" lon="7.293036101875723"><ele>1052.0</ele><time>2026-05-02T14:00:27Z</time></trkpt><trkpt lat="45.77507136609101" lon="7.293004833604661"><ele>1052.0</ele><time>2026-05-02T14:00:28Z</time></trkpt><trkpt lat="45.774963613922615" lon="7.293063282657203"><ele>1050.2</ele><time>2026-05-02T14:00:29Z</time></trkpt><trkpt lat="45.774884038651074" lon="7.293123895849658"><ele>1048.4</ele><time>2026-05-02T14:00:30Z</time></trkpt><trkpt lat="45.77481200656644" lon="7.2931767779460825"><ele>1046.6</ele><time>2026-05-02T14:00:31Z</time></trkpt><trkpt lat="45.77473338540152" lon="7.293145710303331"><ele>1044.8</ele><time>2026-05-02T14:00:32Z</time></trkpt><trkpt lat="45.774634157838506" lon="7.293082915541165"><ele>1043.0</ele><time>2026-05-02T14:00:33Z</time></trkpt><trkpt lat="45.77452051840757" lon="7.2930087729364965"><ele>1048.25</ele><time>2026-05-02T14:00:34Z</time></trkpt><trkpt lat="45.77439897531314" lon="7.292942280079289"><ele>1053.5</ele><time>2026-05-02T14:00:35Z</time></trkpt><trkpt lat="45.77428480153561" lon="7.292846531985449"><ele>1058.75</ele><time>2026-05-02T14:00:36Z</time></trkpt><trkpt lat="45.77417857289297" lon="7.292705726700195"><ele>1064.0</ele><time>2026-05-02T14:00:37Z</time></trkpt><trkpt lat="45.77409719450846" lon="7.292536930003331"><ele>1064.0</ele><time>2026-05-02T14:00:38Z</time></trkpt><trkpt lat="45.774004458460105" lon="7.292415881533592"><ele>1064.0</ele><time>2026-05-02T14:00:39Z</time></trkpt><trkpt lat="45.773944017293125" lon="7.292288585322922"><ele>1064.0</ele><time>2026-05-02T14:00:40Z</time></trkpt><trkpt lat="45.77386590611944" lon="7.29221223479366"><ele>1064.0</ele><time>2026-05-02T14:00:41Z</time></trkpt><trkpt lat="45.773762127063534" lon="7.2922127227080304"><ele>1064.0</ele><time>2026-05-02T14:00:42Z</time></trkpt><trkpt lat="45.77367056805356" lon="7.292282032647723"><ele>1064.0</ele><time>2026-05-02T14:00:43Z</time></trkpt><trkpt lat="45.773604247866" lon="7.292427393555592"><ele>1064.0</ele><time>2026-05-02T14:00:44Z</time></trkpt><trkpt lat="45.773586504867524" lon="7.292614116786828"><ele>1064.0</ele><time>2026-05-02T14:00:45Z</time></trkpt><trkpt lat="45.77355691148058" lon="7.29280814934776"><ele>1064.0</ele><time>2026-05-02T14:00:46Z</time></trkpt><trkpt lat="45.77350514545314" lon="7.293024304685563"><ele>1065.25</ele><time>2026-05-02T14:00:47Z</time></trkpt><trkpt lat="45.77346974213122" lon="7.293240263908007"><ele>1066.5</ele><time>2026-05-02T14:00:48Z</time></trkpt><trkpt lat="45.773439716069554" lon="7.293440738625741"><ele>1067.75</ele><time>2026-05-02T14:00:49Z</time></trkpt><trkpt lat="45.77342127328142" lon="7.293632970294547"><ele>1069.0</ele><time>2026-05-02T14:00:50Z</time></trkpt><trkpt lat="45.773425366554385" lon="7.293818986568252"><ele>1068.4</ele><time>2026-05-02T14:00:51Z</time></trkpt><trkpt lat="45.7734504133794" lon="7.293975155851952"><ele>1067.8000000000002</ele><time>2026-05-02T14:00:52Z</time></trkpt><trkpt lat="45.773430249592245" lon="7.294104760572316"><ele>1067.1999999999998</ele><time>2026-05-02T14:00:53Z</time></trkpt><trkpt lat="45.77342202351004" lon="7.294217737694212"><ele>1066.6</ele><time>2026-05-02T14:00:54Z</time></trkpt><trkpt lat="45.7733596263886" lon="7.294300937193472"><ele>1066.0</ele><time>2026-05-02T14:00:55Z</time></trkpt><trkpt lat="45.77326362379939" lon="7.294334132461626"><ele>1066.0</ele><time>2026-05-02T14:00:56Z</time></trkpt><trkpt lat="45.77315907022079" lon="7.294343649751631"><ele>1066.0</ele><time>2026-05-02T14:00:57Z</time></trkpt><trkpt lat="45.77303514179983" lon="7.2943753615626905"><ele>1066.0</ele><time>2026-05-02T14:00:58Z</time></trkpt><trkpt lat="45.77289703074707" lon="7.294373301546533"><ele>1066.0</ele><time>2026-05-02T14:00:59Z</time></trkpt><trkpt lat="45.77275652935749" lon="7.294389261257693"><ele>1068.0</ele><time>2026-05-02T14:01:00Z</time></trkpt><trkpt lat="45.77261275978485" lon="7.294404257345912"><ele>1070.0</ele><time>2026-05-02T14:01:01Z</time></trkpt><trkpt lat="45.77247069493986" lon="7.294416815307795"><ele>1072.0</ele><time>2026-05-02T14:01:02Z</time></trkpt><trkpt lat="45.7723378619338" lon="7.294432353216332"><ele>1074.0</ele><time>2026-05-02T14:01:03Z</time></trkpt><trkpt lat="45.77220367518862" lon="7.29444398788418"><ele>1074.0</ele><time>2026-05-02T14:01:04Z</time></trkpt><trkpt lat="45.77207689522159" lon="7.2944558249850555"><ele>1074.0</ele><time>2026-05-02T14:01:05Z</time></trkpt><trkpt lat="45.77195476225184" lon="7.294466005110238"><ele>1074.0</ele><time>2026-05-02T14:01:06Z</time></trkpt><trkpt lat="45.77184064542315" lon="7.294476014817606"><ele>1074.0</ele><time>2026-05-02T14:01:07Z</time></trkpt><trkpt lat="45.77172228502468" lon="7.294488022272172"><ele>1074.0</ele><time>2026-05-02T14:01:08Z</time></trkpt><trkpt lat="45.771617074915376" lon="7.294493265868752"><ele>1074.0</ele><time>2026-05-02T14:01:09Z</time></trkpt><trkpt lat="45.771509289929085" lon="7.29448517606026"><ele>1074.0</ele><time>2026-05-02T14:01:10Z</time></trkpt><trkpt lat="45.77141926214159" lon="7.294457384360968"><ele>1074.0</ele><time>2026-05-02T14:01:11Z</time></trkpt><trkpt lat="45.77134300081652" lon="7.294390606283653"><ele>1074.0</ele><time>2026-05-02T14:01:12Z</time></trkpt><trkpt lat="45.77127652880465" lon="7.294287628475913"><ele>1074.0</ele><time>2026-05-02T14:01:13Z</time></trkpt><trkpt lat="45.771220570387044" lon="7.2941704776264675"><ele>1074.0</ele><time>2026-05-02T14:01:14Z</time></trkpt><trkpt lat="45.7711644954657" lon="7.294063785431447"><ele>1074.0</ele><time>2026-05-02T14:01:15Z</time></trkpt><trkpt lat="45.77110116975606" lon="7.293981202090867"><ele>1074.0</ele><time>2026-05-02T14:01:16Z</time></trkpt><trkpt lat="45.77101817249186" lon="7.293922722378984"><ele>1074.0</ele><time>2026-05-02T14:01:17Z</time></trkpt><trkpt lat="45.77091337675882" lon="7.293953336584311"><ele>1073.5</ele><time>2026-05-02T14:01:18Z</time></trkpt><trkpt lat="45.770817901109325" lon="7.294058088051924"><ele>1073.0</ele><time>2026-05-02T14:01:19Z</time></trkpt><trkpt lat="45.77071285003979" lon="7.294155345763676"><ele>1072.5</ele><time>2026-05-02T14:01:20Z</time></trkpt><trkpt lat="45.7705977791696" lon="7.294234120609753"><ele>1072.0</ele><time>2026-05-02T14:01:21Z</time></trkpt><trkpt lat="45.77050205019251" lon="7.2943163053052436"><ele>1072.0</ele><time>2026-05-02T14:01:22Z</time></trkpt><trkpt lat="45.77041055552487" lon="7.294416452382181"><ele>1072.0</ele><time>2026-05-02T14:01:23Z</time></trkpt><trkpt lat="45.770302288843595" lon="7.294478126934972"><ele>1072.0</ele><time>2026-05-02T14:01:24Z</time></trkpt><trkpt lat="45.770205772558704" lon="7.294531313304213"><ele>1072.0</ele><time>2026-05-02T14:01:25Z</time></trkpt><trkpt lat="45.7701070327775" lon="7.294568600397161"><ele>1072.0</ele><time>2026-05-02T14:01:26Z</time></trkpt><trkpt lat="45.77001370939594" lon="7.2945844607380845"><ele>1072.6</ele><time>2026-05-02T14:01:27Z</time></trkpt><trkpt lat="45.76992276352573" lon="7.294608992486796"><ele>1073.2</ele><time>2026-05-02T14:01:28Z</time></trkpt><trkpt lat="45.76984322659732" lon="7.294668142753942"><ele>1073.8</ele><time>2026-05-02T14:01:29Z</time></trkpt><trkpt lat="45.76977200784413" lon="7.294772237593727"><ele>1074.4</ele><time>2026-05-02T14:01:30Z</time></trkpt><trkpt lat="45.76970007485488" lon="7.294887088336086"><ele>1075.0</ele><time>2026-05-02T14:01:31Z</time></trkpt><trkpt lat="45.76960395189942" lon="7.294972312213715"><ele>1075.0</ele><time>2026-05-02T14:01:32Z</time></trkpt><trkpt lat="45.769502949492846" lon="7.295065380205441"><ele>1075.0</ele><time>2026-05-02T14:01:33Z</time></trkpt><trkpt lat="45.769402927047054" lon="7.29515205518511"><ele>1075.0</ele><time>2026-05-02T14:01:34Z</time></trkpt><trkpt lat="45.769306832818145" lon="7.29526089380339"><ele>1075.0</ele><time>2026-05-02T14:01:35Z</time></trkpt><trkpt lat="45.769194083522635" lon="7.295340527190364"><ele>1075.5</ele><time>2026-05-02T14:01:36Z</time></trkpt><trkpt lat="45.769089250939416" lon="7.295430152790876"><ele>1076.0</ele><time>2026-05-02T14:01:37Z</time></trkpt><trkpt lat="45.76898528251475" lon="7.2955138401696145"><ele>1076.5</ele><time>2026-05-02T14:01:38Z</time></trkpt><trkpt lat="45.76888178521249" lon="7.295586064488872"><ele>1077.0</ele><time>2026-05-02T14:01:39Z</time></trkpt><trkpt lat="45.76877112640539" lon="7.29564107909385"><ele>1077.0</ele><time>2026-05-02T14:01:40Z</time></trkpt><trkpt lat="45.76865847415203" lon="7.2956990439145235"><ele>1077.0</ele><time>2026-05-02T14:01:41Z</time></trkpt><trkpt lat="45.76854246157492" lon="7.295746268177228"><ele>1077.0</ele><time>2026-05-02T14:01:42Z</time></trkpt><trkpt lat="45.76842123163684" lon="7.295792974380566"><ele>1077.0</ele><time>2026-05-02T14:01:43Z</time></trkpt><trkpt lat="45.76829799230317" lon="7.295839786021734"><ele>1078.5</ele><time>2026-05-02T14:01:44Z</time></trkpt><trkpt lat="45.76816848833877" lon="7.2958896893844445"><ele>1080.0</ele><time>2026-05-02T14:01:45Z</time></trkpt><trkpt lat="45.76803373115446" lon="7.295940196196806"><ele>1081.5</ele><time>2026-05-02T14:01:46Z</time></trkpt><trkpt lat="45.76789363222339" lon="7.295995332738425"><ele>1083.0</ele><time>2026-05-02T14:01:47Z</time></trkpt><trkpt lat="45.76775346309412" lon="7.2960545897104465"><ele>1083.0</ele><time>2026-05-02T14:01:48Z</time></trkpt><trkpt lat="45.76761238889329" lon="7.296109321057826"><ele>1083.0</ele><time>2026-05-02T14:01:49Z</time></trkpt><trkpt lat="45.76746999416269" lon="7.2961682498250315"><ele>1083.0</ele><time>2026-05-02T14:01:50Z</time></trkpt><trkpt lat="45.76733465409998" lon="7.296221350151352"><ele>1083.0</ele><time>2026-05-02T14:01:51Z</time></trkpt><trkpt lat="45.7671994922442" lon="7.296270767119171"><ele>1083.0</ele><time>2026-05-02T14:01:52Z</time></trkpt><trkpt lat="45.76706918358824" lon="7.296321130669158"><ele>1083.0</ele><time>2026-05-02T14:01:53Z</time></trkpt><trkpt lat="45.76694680656513" lon="7.296368163364317"><ele>1083.0</ele><time>2026-05-02T14:01:54Z</time></trkpt><trkpt lat="45.76682777187606" lon="7.296403101145111"><ele>1083.0</ele><time>2026-05-02T14:01:55Z</time></trkpt><trkpt lat="45.7667102122354" lon="7.296405170321197"><ele>1084.5</ele><time>2026-05-02T14:01:56Z</time></trkpt><trkpt lat="45.766568812894086" lon="7.296368755354737"><ele>1086.0</ele><time>2026-05-02T14:01:57Z</time></trkpt><trkpt lat="45.76643218049555" lon="7.296319086703224"><ele>1087.5</ele><time>2026-05-02T14:01:58Z</time></trkpt><trkpt lat="45.76629306852978" lon="7.296262487738059"><ele>1089.0</ele><time>2026-05-02T14:01:59Z</time></trkpt><trkpt lat="45.76615540089239" lon="7.296205805708784"><ele>1088.75</ele><time>2026-05-02T14:02:00Z</time></trkpt><trkpt lat="45.766016361772614" lon="7.296146313985678"><ele>1088.5</ele><time>2026-05-02T14:02:01Z</time></trkpt><trkpt lat="45.765873204261695" lon="7.296088300255415"><ele>1088.25</ele><time>2026-05-02T14:02:02Z</time></trkpt><trkpt lat="45.76573127708396" lon="7.296026523171899"><ele>1088.0</ele><time>2026-05-02T14:02:03Z</time></trkpt><trkpt lat="45.76559264866986" lon="7.295967677966478"><ele>1088.0</ele><time>2026-05-02T14:02:04Z</time></trkpt><trkpt lat="45.765460967269284" lon="7.295916914579156"><ele>1088.0</ele><time>2026-05-02T14:02:05Z</time></trkpt><trkpt lat="45.76534134038497" lon="7.295870909232302"><ele>1088.0</ele><time>2026-05-02T14:02:06Z</time></trkpt><trkpt lat="45.765236608434314" lon="7.295831648902458"><ele>1088.0</ele><time>2026-05-02T14:02:07Z</time></trkpt><trkpt lat="45.76514672742241" lon="7.295812253511113"><ele>1088.0</ele><time>2026-05-02T14:02:08Z</time></trkpt><trkpt lat="45.76506177237434" lon="7.295836621272611"><ele>1088.0</ele><time>2026-05-02T14:02:09Z</time></trkpt><trkpt lat="45.764978024410404" lon="7.295909069632731"><ele>1088.0</ele><time>2026-05-02T14:02:10Z</time></trkpt><trkpt lat="45.76488232195037" lon="7.296010528990044"><ele>1088.0</ele><time>2026-05-02T14:02:11Z</time></trkpt><trkpt lat="45.764783845769216" lon="7.296116249986947"><ele>1088.0</ele><time>2026-05-02T14:02:12Z</time></trkpt><trkpt lat="45.76467443525675" lon="7.296215034746255"><ele>1088.0</ele><time>2026-05-02T14:02:13Z</time></trkpt><trkpt lat="45.76455288146817" lon="7.29633074652291"><ele>1088.0</ele><time>2026-05-02T14:02:14Z</time></trkpt><trkpt lat="45.764436017897715" lon="7.296445989051249"><ele>1088.0</ele><time>2026-05-02T14:02:15Z</time></trkpt><trkpt lat="45.76433875963709" lon="7.296552036906019"><ele>1088.0</ele><time>2026-05-02T14:02:16Z</time></trkpt><trkpt lat="45.76425828239752" lon="7.296682670429165"><ele>1085.4</ele><time>2026-05-02T14:02:17Z</time></trkpt><trkpt lat="45.76421417308862" lon="7.296834916071129"><ele>1082.8</ele><time>2026-05-02T14:02:18Z</time></trkpt><trkpt lat="45.76420825251916" lon="7.297000730380851"><ele>1080.2</ele><time>2026-05-02T14:02:19Z</time></trkpt><trkpt lat="45.76421118816582" lon="7.297169997138727"><ele>1077.6</ele><time>2026-05-02T14:02:20Z</time></trkpt><trkpt lat="45.76418574357263" lon="7.297305662881241"><ele>1075.0</ele><time>2026-05-02T14:02:21Z</time></trkpt><trkpt lat="45.76412059943586" lon="7.297399202562116"><ele>1075.0</ele><time>2026-05-02T14:02:22Z</time></trkpt><trkpt lat="45.76403097336402" lon="7.297456867790912"><ele>1075.0</ele><time>2026-05-02T14:02:23Z</time></trkpt><trkpt lat="45.76393578442206" lon="7.297453431970494"><ele>1075.0</ele><time>2026-05-02T14:02:24Z</time></trkpt><trkpt lat="45.76385638262943" lon="7.297357588784647"><ele>1075.0</ele><time>2026-05-02T14:02:25Z</time></trkpt><trkpt lat="45.76373982635695" lon="7.297281977804279"><ele>1075.0</ele><time>2026-05-02T14:02:26Z</time></trkpt><trkpt lat="45.76363590027687" lon="7.297170644511764"><ele>1075.0</ele><time>2026-05-02T14:02:27Z</time></trkpt><trkpt lat="45.763533486354795" lon="7.297076711393345"><ele>1075.0</ele><time>2026-05-02T14:02:28Z</time></trkpt><trkpt lat="45.76343272280758" lon="7.297013203448798"><ele>1075.0</ele><time>2026-05-02T14:02:29Z</time></trkpt><trkpt lat="45.76332320398451" lon="7.297004881296616"><ele>1075.0</ele><time>2026-05-02T14:02:30Z</time></trkpt><trkpt lat="45.76320756352942" lon="7.297037204430516"><ele>1072.75</ele><time>2026-05-02T14:02:31Z</time></trkpt><trkpt lat="45.763096321386904" lon="7.297098562173762"><ele>1070.5</ele><time>2026-05-02T14:02:32Z</time></trkpt><trkpt lat="45.76297997392887" lon="7.297167375414887"><ele>1068.25</ele><time>2026-05-02T14:02:33Z</time></trkpt><trkpt lat="45.76287507115106" lon="7.297244277984269"><ele>1066.0</ele><time>2026-05-02T14:02:34Z</time></trkpt><trkpt lat="45.76278187953992" lon="7.2973396228023875"><ele>1064.75</ele><time>2026-05-02T14:02:35Z</time></trkpt><trkpt lat="45.76272881867862" lon="7.297474551080502"><ele>1063.5</ele><time>2026-05-02T14:02:36Z</time></trkpt><trkpt lat="45.76266208147727" lon="7.297619078568451"><ele>1062.25</ele><time>2026-05-02T14:02:37Z</time></trkpt><trkpt lat="45.76262163467011" lon="7.297787843526905"><ele>1061.0</ele><time>2026-05-02T14:02:38Z</time></trkpt><trkpt lat="45.76255795731226" lon="7.297950801265413"><ele>1059.25</ele><time>2026-05-02T14:02:39Z</time></trkpt><trkpt lat="45.762500045008075" lon="7.2981134082936405"><ele>1057.5</ele><time>2026-05-02T14:02:40Z</time></trkpt><trkpt lat="45.76242350158684" lon="7.298266213670078"><ele>1055.75</ele><time>2026-05-02T14:02:41Z</time></trkpt><trkpt lat="45.76235567887766" lon="7.298427477993104"><ele>1054.0</ele><time>2026-05-02T14:02:42Z</time></trkpt><trkpt lat="45.762285912136086" lon="7.298584966812363"><ele>1054.0</ele><time>2026-05-02T14:02:43Z</time></trkpt><trkpt lat="45.762222957349834" lon="7.298753758007028"><ele>1054.0</ele><time>2026-05-02T14:02:44Z</time></trkpt><trkpt lat="45.76213990492793" lon="7.2988997591776"><ele>1054.0</ele><time>2026-05-02T14:02:45Z</time></trkpt><trkpt lat="45.76206685081794" lon="7.299052113454904"><ele>1054.0</ele><time>2026-05-02T14:02:46Z</time></trkpt><trkpt lat="45.76199568069399" lon="7.2991992304957645"><ele>1053.4</ele><time>2026-05-02T14:02:47Z</time></trkpt><trkpt lat="45.76193160751167" lon="7.299335354783726"><ele>1052.8000000000002</ele><time>2026-05-02T14:02:48Z</time></trkpt><trkpt lat="45.761872917628054" lon="7.299465392039698"><ele>1052.1999999999998</ele><time>2026-05-02T14:02:49Z</time></trkpt><trkpt lat="45.761807225151145" lon="7.299576716808431"><ele>1051.6</ele><time>2026-05-02T14:02:50Z</time></trkpt><trkpt lat="45.761747329839935" lon="7.299688378620857"><ele>1051.0</ele><time>2026-05-02T14:02:51Z</time></trkpt><trkpt lat="45.76167648933281" lon="7.299790369134819"><ele>1050.3999999999999</ele><time>2026-05-02T14:02:52Z</time></trkpt><trkpt lat="45.7615931966838" lon="7.29988866128344"><ele>1049.8</ele><time>2026-05-02T14:02:53Z</time></trkpt><trkpt lat="45.76150832109162" lon="7.299973848039781"><ele>1049.1999999999998</ele><time>2026-05-02T14:02:54Z</time></trkpt><trkpt lat="45.76142649028343" lon="7.300049427557054"><ele>1048.6</ele><time>2026-05-02T14:02:55Z</time></trkpt><trkpt lat="45.761346243346416" lon="7.300141787671428"><ele>1048.0</ele><time>2026-05-02T14:02:56Z</time></trkpt><trkpt lat="45.76126386460654" lon="7.300247691556265"><ele>1048.0</ele><time>2026-05-02T14:02:57Z</time></trkpt><trkpt lat="45.76118208534114" lon="7.300351018303827"><ele>1048.0</ele><time>2026-05-02T14:02:58Z</time></trkpt><trkpt lat="45.76110668412851" lon="7.300455302184201"><ele>1048.0</ele><time>2026-05-02T14:02:59Z</time></trkpt><trkpt lat="45.761035691949765" lon="7.300546816692186"><ele>1048.0</ele><time>2026-05-02T14:03:00Z</time></trkpt><trkpt lat="45.760966730020115" lon="7.300636314888121"><ele>1048.0</ele><time>2026-05-02T14:03:01Z</time></trkpt><trkpt lat="45.760886578938845" lon="7.300740967137986"><ele>1046.8</ele><time>2026-05-02T14:03:02Z</time></trkpt><trkpt lat="45.760810776345025" lon="7.3008364794761835"><ele>1045.6</ele><time>2026-05-02T14:03:03Z</time></trkpt><trkpt lat="45.76071563140652" lon="7.300912106562028"><ele>1044.4</ele><time>2026-05-02T14:03:04Z</time></trkpt><trkpt lat="45.76061040920649" lon="7.30095922622396"><ele>1043.2</ele><time>2026-05-02T14:03:05Z</time></trkpt><trkpt lat="45.76051203259694" lon="7.301027340039388"><ele>1042.0</ele><time>2026-05-02T14:03:06Z</time></trkpt><trkpt lat="45.76040334502704" lon="7.30109535484933"><ele>1042.0</ele><time>2026-05-02T14:03:07Z</time></trkpt><trkpt lat="45.76029264188951" lon="7.301161404319592"><ele>1042.0</ele><time>2026-05-02T14:03:08Z</time></trkpt><trkpt lat="45.760185555326274" lon="7.301222132688969"><ele>1042.0</ele><time>2026-05-02T14:03:09Z</time></trkpt><trkpt lat="45.760083367798245" lon="7.301255669285305"><ele>1042.0</ele><time>2026-05-02T14:03:10Z</time></trkpt><trkpt lat="45.75999239612022" lon="7.30129575013317"><ele>1042.0</ele><time>2026-05-02T14:03:11Z</time></trkpt><trkpt lat="45.75989605767117" lon="7.3013031099978445"><ele>1042.75</ele><time>2026-05-02T14:03:12Z</time></trkpt><trkpt lat="45.7597915451369" lon="7.301289403331311"><ele>1043.5</ele><time>2026-05-02T14:03:13Z</time></trkpt><trkpt lat="45.75967079238943" lon="7.301282229788468"><ele>1044.25</ele><time>2026-05-02T14:03:14Z</time></trkpt><trkpt lat="45.75955235170112" lon="7.301299546996075"><ele>1045.0</ele><time>2026-05-02T14:03:15Z</time></trkpt><trkpt lat="45.75943342765547" lon="7.301354535250653"><ele>1044.25</ele><time>2026-05-02T14:03:16Z</time></trkpt><trkpt lat="45.75929957917872" lon="7.301396442386276"><ele>1043.5</ele><time>2026-05-02T14:03:17Z</time></trkpt><trkpt lat="45.7591649971078" lon="7.301465936563479"><ele>1042.75</ele><time>2026-05-02T14:03:18Z</time></trkpt><trkpt lat="45.75904202140863" lon="7.301545477234597"><ele>1042.0</ele><time>2026-05-02T14:03:19Z</time></trkpt><trkpt lat="45.75891639174923" lon="7.301565843646082"><ele>1038.75</ele><time>2026-05-02T14:03:20Z</time></trkpt><trkpt lat="45.758784117132976" lon="7.301550409415566"><ele>1035.5</ele><time>2026-05-02T14:03:21Z</time></trkpt><trkpt lat="45.75864634884516" lon="7.301523700416113"><ele>1032.25</ele><time>2026-05-02T14:03:22Z</time></trkpt><trkpt lat="45.75850354096041" lon="7.301499110338963"><ele>1029.0</ele><time>2026-05-02T14:03:23Z</time></trkpt><trkpt lat="45.75836553460356" lon="7.301481921925088"><ele>1028.75</ele><time>2026-05-02T14:03:24Z</time></trkpt><trkpt lat="45.758240625585955" lon="7.301447511101106"><ele>1028.5</ele><time>2026-05-02T14:03:25Z</time></trkpt><trkpt lat="45.75811829393801" lon="7.3014731119018625"><ele>1028.25</ele><time>2026-05-02T14:03:26Z</time></trkpt><trkpt lat="45.758014007485706" lon="7.301612532818413"><ele>1028.0</ele><time>2026-05-02T14:03:27Z</time></trkpt><trkpt lat="45.75791318117597" lon="7.301745411371768"><ele>1028.0</ele><time>2026-05-02T14:03:28Z</time></trkpt><trkpt lat="45.75779257025477" lon="7.301904211679342"><ele>1028.0</ele><time>2026-05-02T14:03:29Z</time></trkpt><trkpt lat="45.75766723886024" lon="7.302065198721093"><ele>1028.0</ele><time>2026-05-02T14:03:30Z</time></trkpt><trkpt lat="45.7575513400898" lon="7.302212699232628"><ele>1026.6666666666667</ele><time>2026-05-02T14:03:31Z</time></trkpt><trkpt lat="45.75742832190632" lon="7.3023736081162625"><ele>1025.3333333333333</ele><time>2026-05-02T14:03:32Z</time></trkpt><trkpt lat="45.75730611506502" lon="7.302541150061809"><ele>1024.0</ele><time>2026-05-02T14:03:33Z</time></trkpt><trkpt lat="45.75718560284014" lon="7.302710013442913"><ele>1024.0</ele><time>2026-05-02T14:03:34Z</time></trkpt><trkpt lat="45.757068263583506" lon="7.3028744309489415"><ele>1024.0</ele><time>2026-05-02T14:03:35Z</time></trkpt><trkpt lat="45.75695515706101" lon="7.303032917210706"><ele>1024.0</ele><time>2026-05-02T14:03:36Z</time></trkpt><trkpt lat="45.75684922739538" lon="7.303178511915886"><ele>1023.75</ele><time>2026-05-02T14:03:37Z</time></trkpt><trkpt lat="45.75674622204239" lon="7.3033141089316"><ele>1023.5</ele><time>2026-05-02T14:03:38Z</time></trkpt><trkpt lat="45.75666668708688" lon="7.303458631567851"><ele>1023.25</ele><time>2026-05-02T14:03:39Z</time></trkpt><trkpt lat="45.75656153829753" lon="7.303560971231357"><ele>1023.0</ele><time>2026-05-02T14:03:40Z</time></trkpt><trkpt lat="45.7564517166558" lon="7.303635382477723"><ele>1023.0</ele><time>2026-05-02T14:03:41Z</time></trkpt><trkpt lat="45.75632952975771" lon="7.303697335523957"><ele>1023.0</ele><time>2026-05-02T14:03:42Z</time></trkpt><trkpt lat="45.75620532865432" lon="7.303793685969882"><ele>1023.0</ele><time>2026-05-02T14:03:43Z</time></trkpt><trkpt lat="45.75606515909513" lon="7.303868394876248"><ele>1023.0</ele><time>2026-05-02T14:03:44Z</time></trkpt><trkpt lat="45.75591959587994" lon="7.30392639159211"><ele>1019.6666666666667</ele><time>2026-05-02T14:03:45Z</time></trkpt><trkpt lat="45.755765864168005" lon="7.303962516068825"><ele>1016.3333333333334</ele><time>2026-05-02T14:03:46Z</time></trkpt><trkpt lat="45.75560500359374" lon="7.303993912788085"><ele>1013.0</ele><time>2026-05-02T14:03:47Z</time></trkpt><trkpt lat="45.755438914125264" lon="7.304018689068292"><ele>1013.0</ele><time>2026-05-02T14:03:48Z</time></trkpt><trkpt lat="45.75526988412548" lon="7.30405269349171"><ele>1013.0</ele><time>2026-05-02T14:03:49Z</time></trkpt><trkpt lat="45.75510404252121" lon="7.3040683711383885"><ele>1013.0</ele><time>2026-05-02T14:03:50Z</time></trkpt><trkpt lat="45.75494006211218" lon="7.304120271529857"><ele>1012.0</ele><time>2026-05-02T14:03:51Z</time></trkpt><trkpt lat="45.75477998296857" lon="7.30418285007042"><ele>1011.0</ele><time>2026-05-02T14:03:52Z</time></trkpt><trkpt lat="45.754626769614504" lon="7.30423988297636"><ele>1010.0</ele><time>2026-05-02T14:03:53Z</time></trkpt><trkpt lat="45.75446734571234" lon="7.304295702353764"><ele>1010.75</ele><time>2026-05-02T14:03:54Z</time></trkpt><trkpt lat="45.754315424935804" lon="7.304352467466242"><ele>1011.5</ele><time>2026-05-02T14:03:55Z</time></trkpt><trkpt lat="45.75417782618976" lon="7.30440775179918"><ele>1012.25</ele><time>2026-05-02T14:03:56Z</time></trkpt><trkpt lat="45.754035023431314" lon="7.304469550936057"><ele>1013.0</ele><time>2026-05-02T14:03:57Z</time></trkpt><trkpt lat="45.75390239535814" lon="7.304540741189638"><ele>1013.0</ele><time>2026-05-02T14:03:58Z</time></trkpt><trkpt lat="45.75377836829602" lon="7.304608976248054"><ele>1013.0</ele><time>2026-05-02T14:03:59Z</time></trkpt><trkpt lat="45.75366261985679" lon="7.3046685500482855"><ele>1013.0</ele><time>2026-05-02T14:04:00Z</time></trkpt><trkpt lat="45.75354866919099" lon="7.304725614345484"><ele>1013.0</ele><time>2026-05-02T14:04:01Z</time></trkpt><trkpt lat="45.753419753611155" lon="7.304729551309256"><ele>1011.5</ele><time>2026-05-02T14:04:02Z</time></trkpt><trkpt lat="45.75329503083371" lon="7.304745787439615"><ele>1010.0</ele><time>2026-05-02T14:04:03Z</time></trkpt><trkpt lat="45.75317122308176" lon="7.304757222367911"><ele>1008.5</ele><time>2026-05-02T14:04:04Z</time></trkpt><trkpt lat="45.75304660373259" lon="7.3048401419773015"><ele>1007.0</ele><time>2026-05-02T14:04:05Z</time></trkpt><trkpt lat="45.752930893945084" lon="7.3049221481058755"><ele>1007.0</ele><time>2026-05-02T14:04:06Z</time></trkpt><trkpt lat="45.752819109417096" lon="7.305000276488731"><ele>1007.0</ele><time>2026-05-02T14:04:07Z</time></trkpt><trkpt lat="45.75271119385455" lon="7.305099601443775"><ele>1007.0</ele><time>2026-05-02T14:04:08Z</time></trkpt><trkpt lat="45.75259645355606" lon="7.305172943730274"><ele>1007.0</ele><time>2026-05-02T14:04:09Z</time></trkpt><trkpt lat="45.75248499326023" lon="7.305253604654172"><ele>1008.2</ele><time>2026-05-02T14:04:10Z</time></trkpt><trkpt lat="45.75237307689776" lon="7.305323202661152"><ele>1009.4000000000001</ele><time>2026-05-02T14:04:11Z</time></trkpt><trkpt lat="45.752272211892354" lon="7.305393128671139"><ele>1010.5999999999999</ele><time>2026-05-02T14:04:12Z</time></trkpt><trkpt lat="45.75217491688189" lon="7.305452005879551"><ele>1011.8</ele><time>2026-05-02T14:04:13Z</time></trkpt><trkpt lat="45.75208002586178" lon="7.305492500158134"><ele>1013.0</ele><time>2026-05-02T14:04:14Z</time></trkpt><trkpt lat="45.75199144485714" lon="7.305523275561776"><ele>1013.0</ele><time>2026-05-02T14:04:15Z</time></trkpt><trkpt lat="45.75190175246047" lon="7.30554745800109"><ele>1013.0</ele><time>2026-05-02T14:04:16Z</time></trkpt><trkpt lat="45.75181185899289" lon="7.305664241828049"><ele>1013.0</ele><time>2026-05-02T14:04:17Z</time></trkpt><trkpt lat="45.75173936742923" lon="7.305803078048096"><ele>1013.0</ele><time>2026-05-02T14:04:18Z</time></trkpt><trkpt lat="45.75166869810376" lon="7.305938475153837"><ele>1011.8</ele><time>2026-05-02T14:04:19Z</time></trkpt><trkpt lat="45.75159123655751" lon="7.30606845898769"><ele>1010.5999999999999</ele><time>2026-05-02T14:04:20Z</time></trkpt><trkpt lat="45.75151840346952" lon="7.306173734338093"><ele>1009.4000000000001</ele><time>2026-05-02T14:04:21Z</time></trkpt><trkpt lat="45.75143473734593" lon="7.306242365738906"><ele>1008.2</ele><time>2026-05-02T14:04:22Z</time></trkpt><trkpt lat="45.75133162953308" lon="7.306232922881334"><ele>1007.0</ele><time>2026-05-02T14:04:23Z</time></trkpt><trkpt lat="45.75121534908772" lon="7.306207874396942"><ele>1007.0</ele><time>2026-05-02T14:04:24Z</time></trkpt><trkpt lat="45.75109588740864" lon="7.30614435386577"><ele>1007.0</ele><time>2026-05-02T14:04:25Z</time></trkpt><trkpt lat="45.75097056645912" lon="7.306095736303589"><ele>1007.0</ele><time>2026-05-02T14:04:26Z</time></trkpt><trkpt lat="45.750843792236125" lon="7.306046530330777"><ele>1007.0</ele><time>2026-05-02T14:04:27Z</time></trkpt><trkpt lat="45.750725402024365" lon="7.30599852443521"><ele>1006.3333333333334</ele><time>2026-05-02T14:04:28Z</time></trkpt><trkpt lat="45.75061300699223" lon="7.305953312294759"><ele>1005.6666666666667</ele><time>2026-05-02T14:04:29Z</time></trkpt><trkpt lat="45.7505206136757" lon="7.305915133136051"><ele>1005.0</ele><time>2026-05-02T14:04:30Z</time></trkpt><trkpt lat="45.75044586764481" lon="7.305884159000929"><ele>1004.3333333333333</ele><time>2026-05-02T14:04:31Z</time></trkpt><trkpt lat="45.7503812668951" lon="7.30585309324965"><ele>1003.6666666666666</ele><time>2026-05-02T14:04:32Z</time></trkpt><trkpt lat="45.750299796938464" lon="7.305803421650379"><ele>1003.0</ele><time>2026-05-02T14:04:34Z</time></trkpt><trkpt lat="45.75036076467035" lon="7.305672433645706"><ele>1003.0</ele><time>2026-05-02T14:04:36Z</time></trkpt><trkpt lat="45.75041267078264" lon="7.305588880607918"><ele>1003.0</ele><time>2026-05-02T14:04:38Z</time></trkpt><trkpt lat="45.750458955017656" lon="7.305471164807688"><ele>1003.0</ele><time>2026-05-02T14:04:47Z</time></trkpt><trkpt lat="45.750531008813724" lon="7.305309574928224"><ele>1003.0</ele><time>2026-05-02T14:04:49Z</time></trkpt><trkpt lat="45.750562572839726" lon="7.305201713356694"><ele>1003.0</ele><time>2026-05-02T14:04:50Z</time></trkpt><trkpt lat="45.75058826378201" lon="7.305074557134526"><ele>1004.3333333333333</ele><time>2026-05-02T14:04:51Z</time></trkpt><trkpt lat="45.75062138607934" lon="7.304973372763721"><ele>1005.6666666666666</ele><time>2026-05-02T14:04:52Z</time></trkpt><trkpt lat="45.750655245019395" lon="7.3048918936240215"><ele>1007.0</ele><time>2026-05-02T14:04:53Z</time></trkpt><trkpt lat="45.750749497757646" lon="7.304815995291209"><ele>1008.3333333333333</ele><time>2026-05-02T14:04:55Z</time></trkpt><trkpt lat="45.75086498266654" lon="7.304792628612567"><ele>1009.6666666666666</ele><time>2026-05-02T14:04:57Z</time></trkpt><trkpt lat="45.750939451582525" lon="7.304754823088734"><ele>1011.0</ele><time>2026-05-02T14:04:58Z</time></trkpt><trkpt lat="45.751025791163" lon="7.30470668613084"><ele>1015.5</ele><time>2026-05-02T14:04:59Z</time></trkpt><trkpt lat="45.75111810764836" lon="7.30465488756542"><ele>1020.0</ele><time>2026-05-02T14:05:00Z</time></trkpt><trkpt lat="45.75122530514711" lon="7.304610131508776"><ele>1024.5</ele><time>2026-05-02T14:05:01Z</time></trkpt><trkpt lat="45.75134245398581" lon="7.3045687375150905"><ele>1029.0</ele><time>2026-05-02T14:05:02Z</time></trkpt><trkpt lat="45.751463795392176" lon="7.304515551270743"><ele>1029.0</ele><time>2026-05-02T14:05:03Z</time></trkpt><trkpt lat="45.75158137437348" lon="7.304478317221866"><ele>1029.0</ele><time>2026-05-02T14:05:04Z</time></trkpt><trkpt lat="45.75169674634268" lon="7.304434048642015"><ele>1029.0</ele><time>2026-05-02T14:05:05Z</time></trkpt><trkpt lat="45.75180618699901" lon="7.304372562842901"><ele>1029.0</ele><time>2026-05-02T14:05:06Z</time></trkpt><trkpt lat="45.75190592725701" lon="7.30428823647272"><ele>1028.75</ele><time>2026-05-02T14:05:07Z</time></trkpt><trkpt lat="45.75201869920466" lon="7.304222400662297"><ele>1028.5</ele><time>2026-05-02T14:05:08Z</time></trkpt><trkpt lat="45.75213511791377" lon="7.30418598968436"><ele>1028.25</ele><time>2026-05-02T14:05:09Z</time></trkpt><trkpt lat="45.7522691469634" lon="7.304151306451739"><ele>1028.0</ele><time>2026-05-02T14:05:10Z</time></trkpt><trkpt lat="45.752414662662694" lon="7.304103748698513"><ele>1028.0</ele><time>2026-05-02T14:05:11Z</time></trkpt><trkpt lat="45.75254432303291" lon="7.304103028506557"><ele>1028.0</ele><time>2026-05-02T14:05:12Z</time></trkpt><trkpt lat="45.75263904950006" lon="7.304130590553857"><ele>1028.0</ele><time>2026-05-02T14:05:13Z</time></trkpt><trkpt lat="45.75272910810131" lon="7.3041273304909105"><ele>1028.0</ele><time>2026-05-02T14:05:14Z</time></trkpt><trkpt lat="45.75280341473672" lon="7.304019788338135"><ele>1028.0</ele><time>2026-05-02T14:05:16Z</time></trkpt><trkpt lat="45.752700815349584" lon="7.303895049601722"><ele>1032.25</ele><time>2026-05-02T14:05:18Z</time></trkpt><trkpt lat="45.75259951348812" lon="7.303892567690879"><ele>1036.5</ele><time>2026-05-02T14:05:19Z</time></trkpt><trkpt lat="45.75247476235097" lon="7.303887015314935"><ele>1040.75</ele><time>2026-05-02T14:05:20Z</time></trkpt><trkpt lat="45.7523391946888" lon="7.303876789741631"><ele>1045.0</ele><time>2026-05-02T14:05:21Z</time></trkpt><trkpt lat="45.75220265934284" lon="7.303866491185363"><ele>1045.0</ele><time>2026-05-02T14:05:22Z</time></trkpt><trkpt lat="45.75208004892139" lon="7.303850714309621"><ele>1045.0</ele><time>2026-05-02T14:05:23Z</time></trkpt><trkpt lat="45.751962277930616" lon="7.303824981082045"><ele>1045.0</ele><time>2026-05-02T14:05:24Z</time></trkpt><trkpt lat="45.75185317216822" lon="7.303746635831735"><ele>1045.0</ele><time>2026-05-02T14:05:25Z</time></trkpt><trkpt lat="45.75174676905452" lon="7.303660189715854"><ele>1044.75</ele><time>2026-05-02T14:05:26Z</time></trkpt><trkpt lat="45.7516331033986" lon="7.303567058416437"><ele>1044.5</ele><time>2026-05-02T14:05:27Z</time></trkpt><trkpt lat="45.75151166997729" lon="7.303462729295391"><ele>1044.25</ele><time>2026-05-02T14:05:28Z</time></trkpt><trkpt lat="45.751385404442495" lon="7.303359203163913"><ele>1044.0</ele><time>2026-05-02T14:05:29Z</time></trkpt><trkpt lat="45.751251706426295" lon="7.3032484092638565"><ele>1044.0</ele><time>2026-05-02T14:05:30Z</time></trkpt><trkpt lat="45.75112043049745" lon="7.303124153021477"><ele>1044.0</ele><time>2026-05-02T14:05:31Z</time></trkpt><trkpt lat="45.750994097538886" lon="7.303035018149903"><ele>1044.0</ele><time>2026-05-02T14:05:32Z</time></trkpt><trkpt lat="45.750867849796236" lon="7.302990506857142"><ele>1044.0</ele><time>2026-05-02T14:05:33Z</time></trkpt><trkpt lat="45.75075070823188" lon="7.30295571932605"><ele>1044.0</ele><time>2026-05-02T14:05:34Z</time></trkpt><trkpt lat="45.75062646360142" lon="7.302992352210594"><ele>1044.0</ele><time>2026-05-02T14:05:35Z</time></trkpt><trkpt lat="45.750492325760554" lon="7.303058823190412"><ele>1044.0</ele><time>2026-05-02T14:05:36Z</time></trkpt><trkpt lat="45.75036177362934" lon="7.3031271849107275"><ele>1044.0</ele><time>2026-05-02T14:05:37Z</time></trkpt><trkpt lat="45.750226462569735" lon="7.303195590201289"><ele>1047.5</ele><time>2026-05-02T14:05:38Z</time></trkpt><trkpt lat="45.75008603559783" lon="7.30326083890996"><ele>1051.0</ele><time>2026-05-02T14:05:39Z</time></trkpt><trkpt lat="45.74994507435072" lon="7.30333822759226"><ele>1054.5</ele><time>2026-05-02T14:05:40Z</time></trkpt><trkpt lat="45.74979999210896" lon="7.303392906661074"><ele>1058.0</ele><time>2026-05-02T14:05:41Z</time></trkpt><trkpt lat="45.749671330282915" lon="7.303448393584007"><ele>1058.0</ele><time>2026-05-02T14:05:42Z</time></trkpt><trkpt lat="45.749566546716935" lon="7.303492039120835"><ele>1058.0</ele><time>2026-05-02T14:05:43Z</time></trkpt><trkpt lat="45.74946444868493" lon="7.303525795731152"><ele>1058.0</ele><time>2026-05-02T14:05:44Z</time></trkpt><trkpt lat="45.74936842991242" lon="7.303514570575153"><ele>1058.0</ele><time>2026-05-02T14:05:45Z</time></trkpt><trkpt lat="45.74928451417868" lon="7.303449747861262"><ele>1058.0</ele><time>2026-05-02T14:05:46Z</time></trkpt><trkpt lat="45.74922314251577" lon="7.303335937843093"><ele>1059.5</ele><time>2026-05-02T14:05:47Z</time></trkpt><trkpt lat="45.74916909361314" lon="7.303195033625719"><ele>1061.0</ele><time>2026-05-02T14:05:48Z</time></trkpt><trkpt lat="45.749103765164335" lon="7.303039465136266"><ele>1062.5</ele><time>2026-05-02T14:05:49Z</time></trkpt><trkpt lat="45.74902915379738" lon="7.302870406455157"><ele>1064.0</ele><time>2026-05-02T14:05:50Z</time></trkpt><trkpt lat="45.74894433794266" lon="7.302689420015094"><ele>1069.6666666666667</ele><time>2026-05-02T14:05:51Z</time></trkpt><trkpt lat="45.74884870155752" lon="7.302488880228132"><ele>1075.3333333333333</ele><time>2026-05-02T14:05:52Z</time></trkpt><trkpt lat="45.74875768558121" lon="7.302270912650002"><ele>1081.0</ele><time>2026-05-02T14:05:53Z</time></trkpt><trkpt lat="45.74865726166822" lon="7.302044329193861"><ele>1079.0</ele><time>2026-05-02T14:05:54Z</time></trkpt><trkpt lat="45.748568800792974" lon="7.301818095240269"><ele>1077.0</ele><time>2026-05-02T14:05:55Z</time></trkpt><trkpt lat="45.7484827830094" lon="7.301612629117705"><ele>1075.0</ele><time>2026-05-02T14:05:56Z</time></trkpt><trkpt lat="45.74840081195472" lon="7.301438286529284"><ele>1077.5</ele><time>2026-05-02T14:05:57Z</time></trkpt><trkpt lat="45.7483233712775" lon="7.301324265249583"><ele>1080.0</ele><time>2026-05-02T14:05:58Z</time></trkpt><trkpt lat="45.748275597354585" lon="7.30122128659536"><ele>1082.5</ele><time>2026-05-02T14:05:59Z</time></trkpt><trkpt lat="45.748248676086305" lon="7.3011370831213735"><ele>1085.0</ele><time>2026-05-02T14:06:00Z</time></trkpt><trkpt lat="45.74831628325712" lon="7.301060307725187"><ele>1087.5</ele><time>2026-05-02T14:06:01Z</time></trkpt><trkpt lat="45.74837570063583" lon="7.301176514001825"><ele>1090.0</ele><time>2026-05-02T14:06:02Z</time></trkpt><trkpt lat="45.74841360675349" lon="7.30127444626473"><ele>1090.0</ele><time>2026-05-02T14:06:03Z</time></trkpt><trkpt lat="45.74850026673854" lon="7.30138646336673"><ele>1090.0</ele><time>2026-05-02T14:06:04Z</time></trkpt><trkpt lat="45.748604251533486" lon="7.301536895222647"><ele>1090.0</ele><time>2026-05-02T14:06:05Z</time></trkpt><trkpt lat="45.74871590957137" lon="7.3016908905843865"><ele>1090.0</ele><time>2026-05-02T14:06:06Z</time></trkpt><trkpt lat="45.74884140627221" lon="7.301873536016642"><ele>1093.0</ele><time>2026-05-02T14:06:07Z</time></trkpt><trkpt lat="45.7489545519254" lon="7.302043955141687"><ele>1096.0</ele><time>2026-05-02T14:06:08Z</time></trkpt><trkpt lat="45.749069047792936" lon="7.302193779588232"><ele>1099.0</ele><time>2026-05-02T14:06:09Z</time></trkpt><trkpt lat="45.749193957103145" lon="7.302279785026297"><ele>1094.75</ele><time>2026-05-02T14:06:10Z</time></trkpt><trkpt lat="45.74931323946227" lon="7.302330290693771"><ele>1090.5</ele><time>2026-05-02T14:06:11Z</time></trkpt><trkpt lat="45.749443737978716" lon="7.302340222241028"><ele>1086.25</ele><time>2026-05-02T14:06:12Z</time></trkpt><trkpt lat="45.749578654064955" lon="7.302302778430765"><ele>1082.0</ele><time>2026-05-02T14:06:13Z</time></trkpt><trkpt lat="45.749697479492625" lon="7.302251200852415"><ele>1086.8</ele><time>2026-05-02T14:06:14Z</time></trkpt><trkpt lat="45.749797095082464" lon="7.302207782053532"><ele>1091.6</ele><time>2026-05-02T14:06:15Z</time></trkpt><trkpt lat="45.749871937040766" lon="7.302150971780068"><ele>1096.3999999999999</ele><time>2026-05-02T14:06:16Z</time></trkpt><trkpt lat="45.749905606418544" lon="7.302067281765296"><ele>1101.2</ele><time>2026-05-02T14:06:17Z</time></trkpt><trkpt lat="45.74984964671101" lon="7.30192060607185"><ele>1106.0</ele><time>2026-05-02T14:06:19Z</time></trkpt><trkpt lat="45.74976996929233" lon="7.301908229678821"><ele>1106.0</ele><time>2026-05-02T14:06:20Z</time></trkpt><trkpt lat="45.749674081430534" lon="7.301914407923435"><ele>1106.0</ele><time>2026-05-02T14:06:21Z</time></trkpt><trkpt lat="45.74956588571465" lon="7.30185490822555"><ele>1106.0</ele><time>2026-05-02T14:06:22Z</time></trkpt><trkpt lat="45.74944998699364" lon="7.301753423809207"><ele>1106.0</ele><time>2026-05-02T14:06:23Z</time></trkpt><trkpt lat="45.7493381421934" lon="7.301625753217283"><ele>1103.6666666666667</ele><time>2026-05-02T14:06:24Z</time></trkpt><trkpt lat="45.749226581506214" lon="7.3014535467717065"><ele>1101.3333333333333</ele><time>2026-05-02T14:06:25Z</time></trkpt><trkpt lat="45.74912578198073" lon="7.301247839005855"><ele>1099.0</ele><time>2026-05-02T14:06:26Z</time></trkpt><trkpt lat="45.749028584552235" lon="7.301012607794198"><ele>1104.3333333333333</ele><time>2026-05-02T14:06:27Z</time></trkpt><trkpt lat="45.74891801298096" lon="7.300755731965761"><ele>1109.6666666666667</ele><time>2026-05-02T14:06:28Z</time></trkpt><trkpt lat="45.74879817724968" lon="7.300483725367617"><ele>1115.0</ele><time>2026-05-02T14:06:29Z</time></trkpt><trkpt lat="45.748679909305864" lon="7.300187454227273"><ele>1121.5</ele><time>2026-05-02T14:06:30Z</time></trkpt><trkpt lat="45.748598459455074" lon="7.299844274525944"><ele>1128.0</ele><time>2026-05-02T14:06:31Z</time></trkpt><trkpt lat="45.748437635489566" lon="7.299567991049022"><ele>1128.0</ele><time>2026-05-02T14:06:32Z</time></trkpt><trkpt lat="45.74828980865921" lon="7.299245172410768"><ele>1128.0</ele><time>2026-05-02T14:06:33Z</time></trkpt><trkpt lat="45.74814886572195" lon="7.298885634830597"><ele>1136.0</ele><time>2026-05-02T14:06:34Z</time></trkpt><trkpt lat="45.74802853647099" lon="7.298580593871205"><ele>1144.0</ele><time>2026-05-02T14:06:35Z</time></trkpt><trkpt lat="45.74790656936362" lon="7.298324330805936"><ele>1144.0</ele><time>2026-05-02T14:06:36Z</time></trkpt><trkpt lat="45.747792013077294" lon="7.298092321990686"><ele>1144.0</ele><time>2026-05-02T14:06:37Z</time></trkpt><trkpt lat="45.74768890290688" lon="7.297876533758696"><ele>1144.0</ele><time>2026-05-02T14:06:38Z</time></trkpt><trkpt lat="45.74760778690176" lon="7.2976941839045"><ele>1141.0</ele><time>2026-05-02T14:06:39Z</time></trkpt><trkpt lat="45.74755011317259" lon="7.297543509916921"><ele>1138.0</ele><time>2026-05-02T14:06:40Z</time></trkpt><trkpt lat="45.74751483172271" lon="7.297434202873331"><ele>1135.0</ele><time>2026-05-02T14:06:41Z</time></trkpt><trkpt lat="45.74756364366659" lon="7.297346805437988"><ele>1132.0</ele><time>2026-05-02T14:06:43Z</time></trkpt><trkpt lat="45.74763949786597" lon="7.297388594439358"><ele>1129.0</ele><time>2026-05-02T14:06:44Z</time></trkpt><trkpt lat="45.74769957681464" lon="7.297507864779175"><ele>1137.5</ele><time>2026-05-02T14:06:45Z</time></trkpt><trkpt lat="45.74778428813756" lon="7.297638590180764"><ele>1146.0</ele><time>2026-05-02T14:06:46Z</time></trkpt><trkpt lat="45.74789819000879" lon="7.297776857978574"><ele>1154.5</ele><time>2026-05-02T14:06:47Z</time></trkpt><trkpt lat="45.74799531221149" lon="7.297902752245009"><ele>1163.0</ele><time>2026-05-02T14:06:48Z</time></trkpt><trkpt lat="45.7480621389589" lon="7.2980054328655175"><ele>1163.0</ele><time>2026-05-02T14:06:49Z</time></trkpt><trkpt lat="45.74812951583403" lon="7.298053785417978"><ele>1163.0</ele><time>2026-05-02T14:06:50Z</time></trkpt><trkpt lat="45.7482246190328" lon="7.297933327982272"><ele>1163.0</ele><time>2026-05-02T14:06:52Z</time></trkpt><trkpt lat="45.74821400353754" lon="7.297809011284713"><ele>1163.0</ele><time>2026-05-02T14:06:53Z</time></trkpt><trkpt lat="45.74814463830654" lon="7.2977066805067565"><ele>1163.0</ele><time>2026-05-02T14:06:54Z</time></trkpt><trkpt lat="45.7480666471207" lon="7.297599303455521"><ele>1163.0</ele><time>2026-05-02T14:06:55Z</time></trkpt><trkpt lat="45.74799028530704" lon="7.297439768095829"><ele>1163.0</ele><time>2026-05-02T14:06:56Z</time></trkpt><trkpt lat="45.7479089376671" lon="7.297263399634543"><ele>1163.0</ele><time>2026-05-02T14:06:57Z</time></trkpt><trkpt lat="45.74783476777062" lon="7.297054996901291"><ele>1163.0</ele><time>2026-05-02T14:06:58Z</time></trkpt><trkpt lat="45.74778466259675" lon="7.296792723694259"><ele>1158.3333333333335</ele><time>2026-05-02T14:06:59Z</time></trkpt><trkpt lat="45.747744138787674" lon="7.296507212762904"><ele>1153.6666666666667</ele><time>2026-05-02T14:07:00Z</time></trkpt><trkpt lat="45.74769747747714" lon="7.29621753915679"><ele>1149.0</ele><time>2026-05-02T14:07:01Z</time></trkpt><trkpt lat="45.74765098981941" lon="7.295959633221158"><ele>1149.0</ele><time>2026-05-02T14:07:02Z</time></trkpt><trkpt lat="45.74761321721416" lon="7.295711507137669"><ele>1149.0</ele><time>2026-05-02T14:07:03Z</time></trkpt><trkpt lat="45.747608307268585" lon="7.295452492503564"><ele>1149.0</ele><time>2026-05-02T14:07:04Z</time></trkpt><trkpt lat="45.74762375497337" lon="7.295274146659146"><ele>1154.6666666666667</ele><time>2026-05-02T14:07:05Z</time></trkpt><trkpt lat="45.74767195927942" lon="7.295043666742621"><ele>1160.3333333333335</ele><time>2026-05-02T14:07:06Z</time></trkpt><trkpt lat="45.747720001734706" lon="7.2948052860052455"><ele>1166.0</ele><time>2026-05-02T14:07:07Z</time></trkpt><trkpt lat="45.74775010000022" lon="7.294549831041213"><ele>1169.6666666666667</ele><time>2026-05-02T14:07:08Z</time></trkpt><trkpt lat="45.74776862695808" lon="7.294307262288754"><ele>1173.3333333333333</ele><time>2026-05-02T14:07:09Z</time></trkpt><trkpt lat="45.74772893496412" lon="7.294089646289757"><ele>1177.0</ele><time>2026-05-02T14:07:10Z</time></trkpt><trkpt lat="45.74766109065236" lon="7.293875254254606"><ele>1177.0</ele><time>2026-05-02T14:07:11Z</time></trkpt><trkpt lat="45.74757570238393" lon="7.293665942867491"><ele>1177.0</ele><time>2026-05-02T14:07:12Z</time></trkpt><trkpt lat="45.74748069760829" lon="7.293486415208855"><ele>1177.0</ele><time>2026-05-02T14:07:13Z</time></trkpt><trkpt lat="45.74740562168444" lon="7.2933384665158245"><ele>1177.0</ele><time>2026-05-02T14:07:14Z</time></trkpt><trkpt lat="45.74736950406851" lon="7.293184684684072"><ele>1177.0</ele><time>2026-05-02T14:07:15Z</time></trkpt><trkpt lat="45.747430992561064" lon="7.293023663913956"><ele>1177.0</ele><time>2026-05-02T14:07:16Z</time></trkpt><trkpt lat="45.7474403765764" lon="7.292836389921539"><ele>1177.0</ele><time>2026-05-02T14:07:17Z</time></trkpt><trkpt lat="45.74742746146176" lon="7.292630279305325"><ele>1180.0</ele><time>2026-05-02T14:07:18Z</time></trkpt><trkpt lat="45.747418393701096" lon="7.292407424988888"><ele>1183.0</ele><time>2026-05-02T14:07:19Z</time></trkpt><trkpt lat="45.74743477656396" lon="7.292171597299858"><ele>1186.0</ele><time>2026-05-02T14:07:20Z</time></trkpt><trkpt lat="45.74745796696425" lon="7.291897213264287"><ele>1188.6666666666665</ele><time>2026-05-02T14:07:21Z</time></trkpt><trkpt lat="45.74747842072714" lon="7.291642292344369"><ele>1191.3333333333333</ele><time>2026-05-02T14:07:22Z</time></trkpt><trkpt lat="45.747504937900416" lon="7.291366272191517"><ele>1194.0</ele><time>2026-05-02T14:07:23Z</time></trkpt><trkpt lat="45.7475099178564" lon="7.291131523987497"><ele>1194.75</ele><time>2026-05-02T14:07:24Z</time></trkpt><trkpt lat="45.74748695165479" lon="7.290908558435138"><ele>1195.5</ele><time>2026-05-02T14:07:25Z</time></trkpt><trkpt lat="45.74743493599415" lon="7.290713474410728"><ele>1196.25</ele><time>2026-05-02T14:07:26Z</time></trkpt><trkpt lat="45.74738844368264" lon="7.290565959555132"><ele>1197.0</ele><time>2026-05-02T14:07:27Z</time></trkpt><trkpt lat="45.74738439049691" lon="7.290475029347867"><ele>1197.0</ele><time>2026-05-02T14:07:28Z</time></trkpt><trkpt lat="45.747506553707424" lon="7.290477436508308"><ele>1197.0</ele><time>2026-05-02T14:07:30Z</time></trkpt><trkpt lat="45.74749743838872" lon="7.290639110279888"><ele>1197.0</ele><time>2026-05-02T14:07:31Z</time></trkpt><trkpt lat="45.74752258188452" lon="7.2907783497268195"><ele>1197.0</ele><time>2026-05-02T14:07:32Z</time></trkpt><trkpt lat="45.74755609258902" lon="7.290954546992386"><ele>1197.0</ele><time>2026-05-02T14:07:33Z</time></trkpt><trkpt lat="45.747606701750705" lon="7.291168026761104"><ele>1197.0</ele><time>2026-05-02T14:07:34Z</time></trkpt><trkpt lat="45.74764006552733" lon="7.291410138323892"><ele>1197.0</ele><time>2026-05-02T14:07:35Z</time></trkpt><trkpt lat="45.74766869280324" lon="7.291666123375671"><ele>1196.0</ele><time>2026-05-02T14:07:36Z</time></trkpt><trkpt lat="45.747696855159546" lon="7.291934533251632"><ele>1195.0</ele><time>2026-05-02T14:07:37Z</time></trkpt><trkpt lat="45.747744954754346" lon="7.29220510199601"><ele>1194.0</ele><time>2026-05-02T14:07:38Z</time></trkpt><trkpt lat="45.747810479584466" lon="7.292433808965146"><ele>1205.0</ele><time>2026-05-02T14:07:39Z</time></trkpt><trkpt lat="45.7478944293356" lon="7.292629955786845"><ele>1216.0</ele><time>2026-05-02T14:07:40Z</time></trkpt><trkpt lat="45.747986405569776" lon="7.29280239967192"><ele>1227.0</ele><time>2026-05-02T14:07:41Z</time></trkpt><trkpt lat="45.74807647611463" lon="7.292960478411148"><ele>1226.25</ele><time>2026-05-02T14:07:42Z</time></trkpt><trkpt lat="45.74815034111406" lon="7.293126071282269"><ele>1225.5</ele><time>2026-05-02T14:07:43Z</time></trkpt><trkpt lat="45.74821180745733" lon="7.293305990107271"><ele>1224.75</ele><time>2026-05-02T14:07:44Z</time></trkpt><trkpt lat="45.74826149850446" lon="7.293442980044482"><ele>1224.0</ele><time>2026-05-02T14:07:45Z</time></trkpt><trkpt lat="45.74832068499756" lon="7.29351838920123"><ele>1224.0</ele><time>2026-05-02T14:07:46Z</time></trkpt><trkpt lat="45.74838379945602" lon="7.293496098029865"><ele>1224.0</ele><time>2026-05-02T14:07:47Z</time></trkpt><trkpt lat="45.74839721178556" lon="7.293354059283563"><ele>1224.0</ele><time>2026-05-02T14:07:48Z</time></trkpt><trkpt lat="45.748396606905445" lon="7.293234461195594"><ele>1224.0</ele><time>2026-05-02T14:07:49Z</time></trkpt><trkpt lat="45.748316626084424" lon="7.293083124352395"><ele>1224.0</ele><time>2026-05-02T14:07:50Z</time></trkpt><trkpt lat="45.74823173504115" lon="7.292929844126823"><ele>1225.0</ele><time>2026-05-02T14:07:51Z</time></trkpt><trkpt lat="45.74819437111055" lon="7.292698677527677"><ele>1226.0</ele><time>2026-05-02T14:07:52Z</time></trkpt><trkpt lat="45.74822598769426" lon="7.292361890350574"><ele>1227.0</ele><time>2026-05-02T14:07:53Z</time></trkpt><trkpt lat="45.74826723962213" lon="7.2921193587684385"><ele>1229.0</ele><time>2026-05-02T14:07:54Z</time></trkpt><trkpt lat="45.74826675082283" lon="7.29183521327944"><ele>1231.0</ele><time>2026-05-02T14:07:55Z</time></trkpt><trkpt lat="45.74822947014726" lon="7.291591650481612"><ele>1233.0</ele><time>2026-05-02T14:07:56Z</time></trkpt><trkpt lat="45.748214330539014" lon="7.291368313164175"><ele>1233.0</ele><time>2026-05-02T14:07:57Z</time></trkpt><trkpt lat="45.74823105898658" lon="7.291158593837907"><ele>1233.0</ele><time>2026-05-02T14:07:58Z</time></trkpt><trkpt lat="45.74828182063963" lon="7.290966574209511"><ele>1233.0</ele><time>2026-05-02T14:07:59Z</time></trkpt><trkpt lat="45.748354034143716" lon="7.290772929073141"><ele>1233.0</ele><time>2026-05-02T14:08:00Z</time></trkpt><trkpt lat="45.74842007757715" lon="7.290591695465475"><ele>1234.4</ele><time>2026-05-02T14:08:01Z</time></trkpt><trkpt lat="45.748461226629225" lon="7.290425209359355"><ele>1235.8</ele><time>2026-05-02T14:08:02Z</time></trkpt><trkpt lat="45.74845054428039" lon="7.290279007315671"><ele>1237.2</ele><time>2026-05-02T14:08:03Z</time></trkpt><trkpt lat="45.748393662824455" lon="7.290158493196866"><ele>1238.6</ele><time>2026-05-02T14:08:04Z</time></trkpt><trkpt lat="45.74834273917875" lon="7.290029756379948"><ele>1240.0</ele><time>2026-05-02T14:08:05Z</time></trkpt><trkpt lat="45.74830379686645" lon="7.2899336850454475"><ele>1240.0</ele><time>2026-05-02T14:08:06Z</time></trkpt><trkpt lat="45.74826036936892" lon="7.289829290638939"><ele>1240.0</ele><time>2026-05-02T14:08:07Z</time></trkpt><trkpt lat="45.74819988804531" lon="7.2897116541542415"><ele>1240.0</ele><time>2026-05-02T14:08:08Z</time></trkpt><trkpt lat="45.74813840769888" lon="7.289580239827295"><ele>1240.0</ele><time>2026-05-02T14:08:10Z</time></trkpt><trkpt lat="45.74816095198349" lon="7.2894055769758985"><ele>1240.0</ele><time>2026-05-02T14:08:12Z</time></trkpt><trkpt lat="45.748226428882546" lon="7.289317500899496"><ele>1242.25</ele><time>2026-05-02T14:08:13Z</time></trkpt><trkpt lat="45.74828860355947" lon="7.289181862590941"><ele>1244.5</ele><time>2026-05-02T14:08:14Z</time></trkpt><trkpt lat="45.74832115147296" lon="7.289015909318646"><ele>1246.75</ele><time>2026-05-02T14:08:15Z</time></trkpt><trkpt lat="45.74833502729903" lon="7.288804678593961"><ele>1249.0</ele><time>2026-05-02T14:08:16Z</time></trkpt><trkpt lat="45.74832666983555" lon="7.2885847407276145"><ele>1251.3333333333333</ele><time>2026-05-02T14:08:17Z</time></trkpt><trkpt lat="45.74828709916022" lon="7.288344606114037"><ele>1253.6666666666667</ele><time>2026-05-02T14:08:18Z</time></trkpt><trkpt lat="45.74825996417947" lon="7.288114792003402"><ele>1256.0</ele><time>2026-05-02T14:08:19Z</time></trkpt><trkpt lat="45.74822206184464" lon="7.28790632604759"><ele>1257.25</ele><time>2026-05-02T14:08:20Z</time></trkpt><trkpt lat="45.74823435091646" lon="7.2877163162943095"><ele>1258.5</ele><time>2026-05-02T14:08:21Z</time></trkpt><trkpt lat="45.748266048065524" lon="7.287522477416901"><ele>1259.75</ele><time>2026-05-02T14:08:22Z</time></trkpt><trkpt lat="45.74830477713688" lon="7.2873044786678"><ele>1261.0</ele><time>2026-05-02T14:08:23Z</time></trkpt><trkpt lat="45.74834842247013" lon="7.287067496100142"><ele>1261.0</ele><time>2026-05-02T14:08:24Z</time></trkpt><trkpt lat="45.74839159284986" lon="7.286824740395518"><ele>1261.0</ele><time>2026-05-02T14:08:25Z</time></trkpt><trkpt lat="45.74843037911902" lon="7.286558363530339"><ele>1261.0</ele><time>2026-05-02T14:08:26Z</time></trkpt><trkpt lat="45.74848652520013" lon="7.2862775170041125"><ele>1262.0</ele><time>2026-05-02T14:08:27Z</time></trkpt><trkpt lat="45.74854167939799" lon="7.28598685832823"><ele>1263.0</ele><time>2026-05-02T14:08:28Z</time></trkpt><trkpt lat="45.74857740599275" lon="7.2856934685745065"><ele>1264.0</ele><time>2026-05-02T14:08:29Z</time></trkpt><trkpt lat="45.74861332951697" lon="7.285421264738325"><ele>1275.0</ele><time>2026-05-02T14:08:30Z</time></trkpt><trkpt lat="45.7486393982755" lon="7.28517003212452"><ele>1286.0</ele><time>2026-05-02T14:08:31Z</time></trkpt><trkpt lat="45.748674144125836" lon="7.284954194782257"><ele>1297.0</ele><time>2026-05-02T14:08:32Z</time></trkpt><trkpt lat="45.74872482472807" lon="7.2847295183158645"><ele>1297.0</ele><time>2026-05-02T14:08:33Z</time></trkpt><trkpt lat="45.748768763044204" lon="7.284536964817132"><ele>1297.0</ele><time>2026-05-02T14:08:34Z</time></trkpt><trkpt lat="45.74882065127724" lon="7.284376959192233"><ele>1297.0</ele><time>2026-05-02T14:08:35Z</time></trkpt><trkpt lat="45.748849845223276" lon="7.284242895197545"><ele>1297.0</ele><time>2026-05-02T14:08:36Z</time></trkpt><trkpt lat="45.748837488056346" lon="7.284109415043714"><ele>1297.0</ele><time>2026-05-02T14:08:37Z</time></trkpt><trkpt lat="45.74883888988175" lon="7.283959324467123"><ele>1297.0</ele><time>2026-05-02T14:08:38Z</time></trkpt><trkpt lat="45.74883350697564" lon="7.283775750256959"><ele>1297.0</ele><time>2026-05-02T14:08:39Z</time></trkpt><trkpt lat="45.748851519259645" lon="7.28357299388206"><ele>1297.0</ele><time>2026-05-02T14:08:40Z</time></trkpt><trkpt lat="45.74887437319405" lon="7.283358751708959"><ele>1296.6666666666665</ele><time>2026-05-02T14:08:41Z</time></trkpt><trkpt lat="45.74890339711464" lon="7.283131020761171"><ele>1296.3333333333333</ele><time>2026-05-02T14:08:42Z</time></trkpt><trkpt lat="45.748946649758075" lon="7.282889156928039"><ele>1296.0</ele><time>2026-05-02T14:08:43Z</time></trkpt><trkpt lat="45.74899166355205" lon="7.28267915931966"><ele>1294.5</ele><time>2026-05-02T14:08:44Z</time></trkpt><trkpt lat="45.749055812507684" lon="7.28249445817233"><ele>1293.0</ele><time>2026-05-02T14:08:45Z</time></trkpt><trkpt lat="45.749111600775414" lon="7.282355907941772"><ele>1291.5</ele><time>2026-05-02T14:08:46Z</time></trkpt><trkpt lat="45.749181547368146" lon="7.28219248302795"><ele>1290.0</ele><time>2026-05-02T14:08:47Z</time></trkpt><trkpt lat="45.74925923512123" lon="7.282036479369241"><ele>1284.6666666666667</ele><time>2026-05-02T14:08:48Z</time></trkpt><trkpt lat="45.749356338967964" lon="7.281876986516977"><ele>1279.3333333333335</ele><time>2026-05-02T14:08:49Z</time></trkpt><trkpt lat="45.74946264832978" lon="7.281699415851155"><ele>1274.0</ele><time>2026-05-02T14:08:50Z</time></trkpt><trkpt lat="45.749565439969864" lon="7.281474370171932"><ele>1271.3333333333335</ele><time>2026-05-02T14:08:51Z</time></trkpt><trkpt lat="45.74965887304183" lon="7.281188270130811"><ele>1268.6666666666667</ele><time>2026-05-02T14:08:52Z</time></trkpt><trkpt lat="45.749756686960744" lon="7.280902251261509"><ele>1266.0</ele><time>2026-05-02T14:08:53Z</time></trkpt><trkpt lat="45.74987425402692" lon="7.280589005504347"><ele>1266.0</ele><time>2026-05-02T14:08:54Z</time></trkpt><trkpt lat="45.74998531997292" lon="7.280287015168092"><ele>1266.0</ele><time>2026-05-02T14:08:55Z</time></trkpt><trkpt lat="45.75008913996377" lon="7.2799985943917855"><ele>1257.0</ele><time>2026-05-02T14:08:56Z</time></trkpt><trkpt lat="45.75020570725703" lon="7.279738184557543"><ele>1248.0</ele><time>2026-05-02T14:08:57Z</time></trkpt><trkpt lat="45.75028324127247" lon="7.279465953711793"><ele>1239.0</ele><time>2026-05-02T14:08:58Z</time></trkpt><trkpt lat="45.750366699264745" lon="7.279214541758061"><ele>1249.3333333333333</ele><time>2026-05-02T14:08:59Z</time></trkpt><trkpt lat="45.750477002794405" lon="7.279028321752485"><ele>1259.6666666666665</ele><time>2026-05-02T14:09:00Z</time></trkpt><trkpt lat="45.75058515969605" lon="7.278820698960722"><ele>1270.0</ele><time>2026-05-02T14:09:01Z</time></trkpt><trkpt lat="45.75067955587182" lon="7.278622105428618"><ele>1270.0</ele><time>2026-05-02T14:09:02Z</time></trkpt><trkpt lat="45.750767481075826" lon="7.278401441402669"><ele>1270.0</ele><time>2026-05-02T14:09:03Z</time></trkpt><trkpt lat="45.75082934149603" lon="7.278150382308144"><ele>1270.0</ele><time>2026-05-02T14:09:04Z</time></trkpt><trkpt lat="45.75090648652989" lon="7.2779352254822305"><ele>1280.3333333333333</ele><time>2026-05-02T14:09:05Z</time></trkpt><trkpt lat="45.75100914689239" lon="7.277737223028163"><ele>1290.6666666666667</ele><time>2026-05-02T14:09:06Z</time></trkpt><trkpt lat="45.75113076647262" lon="7.277544850951702"><ele>1301.0</ele><time>2026-05-02T14:09:07Z</time></trkpt><trkpt lat="45.75124382676193" lon="7.2773478473895254"><ele>1290.0</ele><time>2026-05-02T14:09:08Z</time></trkpt><trkpt lat="45.751346561199966" lon="7.277163204668639"><ele>1279.0</ele><time>2026-05-02T14:09:09Z</time></trkpt><trkpt lat="45.75144120553498" lon="7.2769783739862195"><ele>1268.0</ele><time>2026-05-02T14:09:10Z</time></trkpt><trkpt lat="45.75151785557855" lon="7.27679687120072"><ele>1268.0</ele><time>2026-05-02T14:09:11Z</time></trkpt><trkpt lat="45.75156759549866" lon="7.276628722639048"><ele>1268.0</ele><time>2026-05-02T14:09:12Z</time></trkpt><trkpt lat="45.751606583968595" lon="7.276475004287434"><ele>1268.0</ele><time>2026-05-02T14:09:13Z</time></trkpt><trkpt lat="45.75164775647989" lon="7.276330671521797"><ele>1268.0</ele><time>2026-05-02T14:09:14Z</time></trkpt><trkpt lat="45.751681337560996" lon="7.276204829960218"><ele>1268.0</ele><time>2026-05-02T14:09:15Z</time></trkpt><trkpt lat="45.75170648258711" lon="7.276100354955226"><ele>1267.8</ele><time>2026-05-02T14:09:16Z</time></trkpt><trkpt lat="45.75172705941083" lon="7.276008977281023"><ele>1267.6</ele><time>2026-05-02T14:09:17Z</time></trkpt><trkpt lat="45.75174093171013" lon="7.275877744680307"><ele>1267.4</ele><time>2026-05-02T14:09:19Z</time></trkpt><trkpt lat="45.751691458678444" lon="7.275763648870308"><ele>1267.2</ele><time>2026-05-02T14:09:21Z</time></trkpt><trkpt lat="45.75160581597453" lon="7.275631455193449"><ele>1267.0</ele><time>2026-05-02T14:09:23Z</time></trkpt><trkpt lat="45.751516183771614" lon="7.275650327183997"><ele>1267.0</ele><time>2026-05-02T14:09:24Z</time></trkpt><trkpt lat="45.75142441601346" lon="7.275753491682107"><ele>1267.0</ele><time>2026-05-02T14:09:25Z</time></trkpt><trkpt lat="45.751300639047436" lon="7.27586898543369"><ele>1267.0</ele><time>2026-05-02T14:09:26Z</time></trkpt><trkpt lat="45.7511750066141" lon="7.276007278339917"><ele>1267.0</ele><time>2026-05-02T14:09:27Z</time></trkpt><trkpt lat="45.75104354690334" lon="7.276078245006366"><ele>1270.75</ele><time>2026-05-02T14:09:28Z</time></trkpt><trkpt lat="45.75094999177401" lon="7.276139136325214"><ele>1274.5</ele><time>2026-05-02T14:09:29Z</time></trkpt><trkpt lat="45.75078731753403" lon="7.276127555311969"><ele>1278.25</ele><time>2026-05-02T14:09:30Z</time></trkpt><trkpt lat="45.750617394034606" lon="7.2762246261580925"><ele>1282.0</ele><time>2026-05-02T14:09:31Z</time></trkpt><trkpt lat="45.75047323081926" lon="7.276274865512669"><ele>1282.0</ele><time>2026-05-02T14:09:32Z</time></trkpt><trkpt lat="45.75032735845724" lon="7.276268468185596"><ele>1282.0</ele><time>2026-05-02T14:09:33Z</time></trkpt><trkpt lat="45.75016700482122" lon="7.276239453323352"><ele>1282.0</ele><time>2026-05-02T14:09:34Z</time></trkpt><trkpt lat="45.74999885707678" lon="7.276208035128737"><ele>1287.3333333333333</ele><time>2026-05-02T14:09:35Z</time></trkpt><trkpt lat="45.74981813472278" lon="7.276208081204879"><ele>1292.6666666666667</ele><time>2026-05-02T14:09:36Z</time></trkpt><trkpt lat="45.749658782709524" lon="7.276210000393274"><ele>1298.0</ele><time>2026-05-02T14:09:37Z</time></trkpt><trkpt lat="45.74950917376828" lon="7.276202082343467"><ele>1298.0</ele><time>2026-05-02T14:09:38Z</time></trkpt><trkpt lat="45.74938567207732" lon="7.276197737490932"><ele>1298.0</ele><time>2026-05-02T14:09:39Z</time></trkpt><trkpt lat="45.74927455941637" lon="7.276232022351674"><ele>1298.0</ele><time>2026-05-02T14:09:40Z</time></trkpt><trkpt lat="45.74914625556589" lon="7.2762719713875"><ele>1298.0</ele><time>2026-05-02T14:09:41Z</time></trkpt><trkpt lat="45.749024539233375" lon="7.276274139435552"><ele>1296.0</ele><time>2026-05-02T14:09:42Z</time></trkpt><trkpt lat="45.74891691494818" lon="7.276216186102026"><ele>1294.0</ele><time>2026-05-02T14:09:43Z</time></trkpt><trkpt lat="45.74880824994795" lon="7.2761149476992"><ele>1292.0</ele><time>2026-05-02T14:09:44Z</time></trkpt><trkpt lat="45.74869010599759" lon="7.275993084741998"><ele>1290.0</ele><time>2026-05-02T14:09:45Z</time></trkpt><trkpt lat="45.74856597167994" lon="7.275871951052567"><ele>1294.0</ele><time>2026-05-02T14:09:46Z</time></trkpt><trkpt lat="45.748437415112235" lon="7.27573894999596"><ele>1298.0</ele><time>2026-05-02T14:09:47Z</time></trkpt><trkpt lat="45.74831696348262" lon="7.275631653814568"><ele>1302.0</ele><time>2026-05-02T14:09:48Z</time></trkpt><trkpt lat="45.748195964038885" lon="7.275560769006915"><ele>1306.0</ele><time>2026-05-02T14:09:49Z</time></trkpt><trkpt lat="45.748065860034174" lon="7.275527327566678"><ele>1306.0</ele><time>2026-05-02T14:09:50Z</time></trkpt><trkpt lat="45.74793950241965" lon="7.275547971745017"><ele>1306.0</ele><time>2026-05-02T14:09:51Z</time></trkpt><trkpt lat="45.7478085593536" lon="7.275629118125627"><ele>1306.0</ele><time>2026-05-02T14:09:52Z</time></trkpt><trkpt lat="45.74768334375935" lon="7.275668060792592"><ele>1306.0</ele><time>2026-05-02T14:09:53Z</time></trkpt><trkpt lat="45.74754860034235" lon="7.275636209669072"><ele>1293.6666666666665</ele><time>2026-05-02T14:09:54Z</time></trkpt><trkpt lat="45.74739644825104" lon="7.2756039634778755"><ele>1281.3333333333333</ele><time>2026-05-02T14:09:55Z</time></trkpt><trkpt lat="45.74722547739354" lon="7.275610891566934"><ele>1269.0</ele><time>2026-05-02T14:09:56Z</time></trkpt><trkpt lat="45.7470587104466" lon="7.275657432649849"><ele>1269.0</ele><time>2026-05-02T14:09:57Z</time></trkpt><trkpt lat="45.74689164849577" lon="7.275654787827577"><ele>1269.0</ele><time>2026-05-02T14:09:58Z</time></trkpt><trkpt lat="45.74672750876383" lon="7.275622807979378"><ele>1269.0</ele><time>2026-05-02T14:09:59Z</time></trkpt><trkpt lat="45.74656789618847" lon="7.275579539532226"><ele>1278.6666666666667</ele><time>2026-05-02T14:10:00Z</time></trkpt><trkpt lat="45.74640943612465" lon="7.275549320622195"><ele>1288.3333333333335</ele><time>2026-05-02T14:10:01Z</time></trkpt><trkpt lat="45.74624199114266" lon="7.2754908132522855"><ele>1298.0</ele><time>2026-05-02T14:10:02Z</time></trkpt><trkpt lat="45.74606477873752" lon="7.275419919505645"><ele>1293.0</ele><time>2026-05-02T14:10:03Z</time></trkpt><trkpt lat="45.74589494487795" lon="7.275348169190659"><ele>1288.0</ele><time>2026-05-02T14:10:04Z</time></trkpt><trkpt lat="45.74572654286542" lon="7.2752813740923195"><ele>1283.0</ele><time>2026-05-02T14:10:05Z</time></trkpt><trkpt lat="45.74557015569765" lon="7.275190731833358"><ele>1283.0</ele><time>2026-05-02T14:10:06Z</time></trkpt><trkpt lat="45.74541353836703" lon="7.275124822582494"><ele>1283.0</ele><time>2026-05-02T14:10:07Z</time></trkpt><trkpt lat="45.74522911015735" lon="7.275044229945253"><ele>1283.0</ele><time>2026-05-02T14:10:08Z</time></trkpt><trkpt lat="45.74507761748919" lon="7.274897148779165"><ele>1286.3333333333335</ele><time>2026-05-02T14:10:09Z</time></trkpt><trkpt lat="45.74491207091566" lon="7.2747599959514435"><ele>1289.6666666666667</ele><time>2026-05-02T14:10:10Z</time></trkpt><trkpt lat="45.744752920877076" lon="7.274628016802307"><ele>1293.0</ele><time>2026-05-02T14:10:11Z</time></trkpt><trkpt lat="45.74458576518935" lon="7.274490504175607"><ele>1293.0</ele><time>2026-05-02T14:10:12Z</time></trkpt><trkpt lat="45.74442881656658" lon="7.274359501725481"><ele>1293.0</ele><time>2026-05-02T14:10:13Z</time></trkpt><trkpt lat="45.7442833394741" lon="7.274238799213953"><ele>1293.0</ele><time>2026-05-02T14:10:14Z</time></trkpt><trkpt lat="45.74413661940118" lon="7.274117617801676"><ele>1290.0</ele><time>2026-05-02T14:10:15Z</time></trkpt><trkpt lat="45.74400333225773" lon="7.274022326681096"><ele>1287.0</ele><time>2026-05-02T14:10:16Z</time></trkpt><trkpt lat="45.74391060659376" lon="7.273880189081986"><ele>1284.0</ele><time>2026-05-02T14:10:17Z</time></trkpt><trkpt lat="45.743837875674636" lon="7.273699315508807"><ele>1281.0</ele><time>2026-05-02T14:10:18Z</time></trkpt><trkpt lat="45.743770512969824" lon="7.273520005859656"><ele>1281.0</ele><time>2026-05-02T14:10:19Z</time></trkpt><trkpt lat="45.743695742540275" lon="7.273330118659308"><ele>1281.0</ele><time>2026-05-02T14:10:20Z</time></trkpt><trkpt lat="45.74361614401919" lon="7.2731289185969334"><ele>1281.0</ele><time>2026-05-02T14:10:21Z</time></trkpt><trkpt lat="45.74353258521186" lon="7.272959025575531"><ele>1275.5</ele><time>2026-05-02T14:10:22Z</time></trkpt><trkpt lat="45.743464343989785" lon="7.272789586011632"><ele>1270.0</ele><time>2026-05-02T14:10:23Z</time></trkpt><trkpt lat="45.74334964760985" lon="7.272678269270077"><ele>1264.5</ele><time>2026-05-02T14:10:24Z</time></trkpt><trkpt lat="45.743269836336346" lon="7.272534967230439"><ele>1259.0</ele><time>2026-05-02T14:10:25Z</time></trkpt><trkpt lat="45.743218608843755" lon="7.272367502261637"><ele>1260.0</ele><time>2026-05-02T14:10:26Z</time></trkpt><trkpt lat="45.74318415678448" lon="7.272183218780909"><ele>1261.0</ele><time>2026-05-02T14:10:27Z</time></trkpt><trkpt lat="45.74316480608639" lon="7.271997312583635"><ele>1262.0</ele><time>2026-05-02T14:10:28Z</time></trkpt><trkpt lat="45.74317223904632" lon="7.271807719212549"><ele>1263.0</ele><time>2026-05-02T14:10:29Z</time></trkpt><trkpt lat="45.74321352586157" lon="7.271626394432706"><ele>1263.0</ele><time>2026-05-02T14:10:30Z</time></trkpt><trkpt lat="45.74326052104653" lon="7.271454130196926"><ele>1263.0</ele><time>2026-05-02T14:10:31Z</time></trkpt><trkpt lat="45.74332536770799" lon="7.271301506340605"><ele>1263.0</ele><time>2026-05-02T14:10:32Z</time></trkpt><trkpt lat="45.74338426993024" lon="7.271216570886049"><ele>1263.0</ele><time>2026-05-02T14:10:33Z</time></trkpt><trkpt lat="45.74343925941873" lon="7.2711217964747865"><ele>1263.0</ele><time>2026-05-02T14:10:34Z</time></trkpt><trkpt lat="45.743464385229906" lon="7.271004761618604"><ele>1263.6</ele><time>2026-05-02T14:10:35Z</time></trkpt><trkpt lat="45.74342138527341" lon="7.27086856419802"><ele>1264.1999999999998</ele><time>2026-05-02T14:10:36Z</time></trkpt><trkpt lat="45.743339449825704" lon="7.270803628315872"><ele>1264.8</ele><time>2026-05-02T14:10:37Z</time></trkpt><trkpt lat="45.743231125248855" lon="7.270818317376349"><ele>1265.3999999999999</ele><time>2026-05-02T14:10:38Z</time></trkpt><trkpt lat="45.74314475663447" lon="7.270904860972662"><ele>1266.0</ele><time>2026-05-02T14:10:39Z</time></trkpt><trkpt lat="45.74302947623604" lon="7.270968914567658"><ele>1266.0</ele><time>2026-05-02T14:10:40Z</time></trkpt><trkpt lat="45.74287825208311" lon="7.271011127254448"><ele>1266.0</ele><time>2026-05-02T14:10:41Z</time></trkpt><trkpt lat="45.74271526237937" lon="7.271089625792728"><ele>1266.0</ele><time>2026-05-02T14:10:42Z</time></trkpt><trkpt lat="45.74252996545222" lon="7.271136304178406"><ele>1264.0</ele><time>2026-05-02T14:10:43Z</time></trkpt><trkpt lat="45.742349596312174" lon="7.271146131209476"><ele>1262.0</ele><time>2026-05-02T14:10:44Z</time></trkpt><trkpt lat="45.742177828292824" lon="7.2711853221891385"><ele>1260.0</ele><time>2026-05-02T14:10:45Z</time></trkpt><trkpt lat="45.74201722144911" lon="7.271270738798844"><ele>1261.0</ele><time>2026-05-02T14:10:46Z</time></trkpt><trkpt lat="45.74186292675977" lon="7.27136595674565"><ele>1262.0</ele><time>2026-05-02T14:10:47Z</time></trkpt><trkpt lat="45.7417129775065" lon="7.271459948956186"><ele>1263.0</ele><time>2026-05-02T14:10:48Z</time></trkpt><trkpt lat="45.741561226619915" lon="7.271553025057203"><ele>1254.0</ele><time>2026-05-02T14:10:49Z</time></trkpt><trkpt lat="45.74141391229371" lon="7.271632200578392"><ele>1245.0</ele><time>2026-05-02T14:10:50Z</time></trkpt><trkpt lat="45.74126428597546" lon="7.271700855099631"><ele>1236.0</ele><time>2026-05-02T14:10:51Z</time></trkpt><trkpt lat="45.741122249852125" lon="7.271763447091696"><ele>1236.25</ele><time>2026-05-02T14:10:52Z</time></trkpt><trkpt lat="45.74098623880167" lon="7.271822178481713"><ele>1236.5</ele><time>2026-05-02T14:10:53Z</time></trkpt><trkpt lat="45.740855779003454" lon="7.271878050502129"><ele>1236.75</ele><time>2026-05-02T14:10:54Z</time></trkpt><trkpt lat="45.740747296127644" lon="7.271928193487773"><ele>1237.0</ele><time>2026-05-02T14:10:55Z</time></trkpt><trkpt lat="45.74065315234605" lon="7.27192314179"><ele>1237.0</ele><time>2026-05-02T14:10:56Z</time></trkpt><trkpt lat="45.74057518817303" lon="7.271838689468799"><ele>1237.0</ele><time>2026-05-02T14:10:57Z</time></trkpt><trkpt lat="45.74048703299409" lon="7.271750810375618"><ele>1237.0</ele><time>2026-05-02T14:10:58Z</time></trkpt><trkpt lat="45.74039425152589" lon="7.271665336744362"><ele>1237.0</ele><time>2026-05-02T14:10:59Z</time></trkpt><trkpt lat="45.74029533309898" lon="7.271550297645379"><ele>1237.0</ele><time>2026-05-02T14:11:00Z</time></trkpt><trkpt lat="45.74020198331153" lon="7.271410837158235"><ele>1241.3333333333333</ele><time>2026-05-02T14:11:01Z</time></trkpt><trkpt lat="45.74008769413125" lon="7.271272700904099"><ele>1245.6666666666667</ele><time>2026-05-02T14:11:02Z</time></trkpt><trkpt lat="45.73995494027848" lon="7.271121725611654"><ele>1250.0</ele><time>2026-05-02T14:11:03Z</time></trkpt><trkpt lat="45.739806580304744" lon="7.270953702493772"><ele>1250.0</ele><time>2026-05-02T14:11:04Z</time></trkpt><trkpt lat="45.7396700601011" lon="7.270793338683038"><ele>1250.0</ele><time>2026-05-02T14:11:05Z</time></trkpt><trkpt lat="45.73955299380605" lon="7.270661727441208"><ele>1250.0</ele><time>2026-05-02T14:11:06Z</time></trkpt><trkpt lat="45.73946374378569" lon="7.270468041768189"><ele>1247.6666666666667</ele><time>2026-05-02T14:11:07Z</time></trkpt><trkpt lat="45.73940454212475" lon="7.27022592150801"><ele>1245.3333333333333</ele><time>2026-05-02T14:11:08Z</time></trkpt><trkpt lat="45.73925801241945" lon="7.270038313406041"><ele>1243.0</ele><time>2026-05-02T14:11:09Z</time></trkpt><trkpt lat="45.73910335832968" lon="7.269851731718232"><ele>1251.3333333333333</ele><time>2026-05-02T14:11:10Z</time></trkpt><trkpt lat="45.738964985504666" lon="7.269657202232012"><ele>1259.6666666666667</ele><time>2026-05-02T14:11:11Z</time></trkpt><trkpt lat="45.73883929677564" lon="7.269472867391671"><ele>1268.0</ele><time>2026-05-02T14:11:12Z</time></trkpt><trkpt lat="45.738724244573454" lon="7.269295019876197"><ele>1268.0</ele><time>2026-05-02T14:11:13Z</time></trkpt><trkpt lat="45.73863605568868" lon="7.269136877160482"><ele>1268.0</ele><time>2026-05-02T14:11:14Z</time></trkpt><trkpt lat="45.73857256918669" lon="7.268991493181995"><ele>1268.0</ele><time>2026-05-02T14:11:15Z</time></trkpt><trkpt lat="45.738530934245496" lon="7.268845440910356"><ele>1268.0</ele><time>2026-05-02T14:11:16Z</time></trkpt><trkpt lat="45.738520849077965" lon="7.268692948046994"><ele>1270.75</ele><time>2026-05-02T14:11:17Z</time></trkpt><trkpt lat="45.738540297669935" lon="7.268521281397467"><ele>1273.5</ele><time>2026-05-02T14:11:18Z</time></trkpt><trkpt lat="45.73856346015587" lon="7.268339626724885"><ele>1276.25</ele><time>2026-05-02T14:11:19Z</time></trkpt><trkpt lat="45.738566442876284" lon="7.268137855721804"><ele>1279.0</ele><time>2026-05-02T14:11:20Z</time></trkpt><trkpt lat="45.7385406524486" lon="7.267921649035638"><ele>1267.0</ele><time>2026-05-02T14:11:21Z</time></trkpt><trkpt lat="45.73850012363379" lon="7.267689405990303"><ele>1255.0</ele><time>2026-05-02T14:11:22Z</time></trkpt><trkpt lat="45.7384645789932" lon="7.267440599195651"><ele>1243.0</ele><time>2026-05-02T14:11:23Z</time></trkpt><trkpt lat="45.73843309838865" lon="7.267197211616421"><ele>1243.0</ele><time>2026-05-02T14:11:24Z</time></trkpt><trkpt lat="45.7383526235839" lon="7.266984915710447"><ele>1243.0</ele><time>2026-05-02T14:11:25Z</time></trkpt><trkpt lat="45.73825710676679" lon="7.266806354635543"><ele>1243.0</ele><time>2026-05-02T14:11:26Z</time></trkpt><trkpt lat="45.73820616730334" lon="7.266621282449811"><ele>1240.5</ele><time>2026-05-02T14:11:27Z</time></trkpt><trkpt lat="45.738188915989184" lon="7.2664440806850745"><ele>1238.0</ele><time>2026-05-02T14:11:28Z</time></trkpt><trkpt lat="45.73820490898948" lon="7.26627040507332"><ele>1235.5</ele><time>2026-05-02T14:11:29Z</time></trkpt><trkpt lat="45.738235353412094" lon="7.266083883909779"><ele>1233.0</ele><time>2026-05-02T14:11:30Z</time></trkpt><trkpt lat="45.7382677561285" lon="7.265891370442545"><ele>1233.0</ele><time>2026-05-02T14:11:31Z</time></trkpt><trkpt lat="45.73831742163842" lon="7.265722301789848"><ele>1233.0</ele><time>2026-05-02T14:11:32Z</time></trkpt><trkpt lat="45.73839510909118" lon="7.26557488484847"><ele>1233.0</ele><time>2026-05-02T14:11:33Z</time></trkpt><trkpt lat="45.73848587085284" lon="7.265451437526038"><ele>1233.0</ele><time>2026-05-02T14:11:34Z</time></trkpt><trkpt lat="45.73858196643721" lon="7.2653151140969205"><ele>1240.75</ele><time>2026-05-02T14:11:35Z</time></trkpt><trkpt lat="45.73859957627292" lon="7.265101063063963"><ele>1248.5</ele><time>2026-05-02T14:11:36Z</time></trkpt><trkpt lat="45.7386452991822" lon="7.26492063769092"><ele>1256.25</ele><time>2026-05-02T14:11:37Z</time></trkpt><trkpt lat="45.73869102442981" lon="7.264765023395574"><ele>1264.0</ele><time>2026-05-02T14:11:38Z</time></trkpt><trkpt lat="45.73870474115609" lon="7.264623647056539"><ele>1264.0</ele><time>2026-05-02T14:11:39Z</time></trkpt><trkpt lat="45.738685725637296" lon="7.264486042338543"><ele>1264.0</ele><time>2026-05-02T14:11:40Z</time></trkpt><trkpt lat="45.73864519753516" lon="7.264371917351376"><ele>1264.0</ele><time>2026-05-02T14:11:41Z</time></trkpt><trkpt lat="45.73853943779118" lon="7.26434871636136"><ele>1264.0</ele><time>2026-05-02T14:11:42Z</time></trkpt><trkpt lat="45.73845367784616" lon="7.264457030194789"><ele>1264.0</ele><time>2026-05-02T14:11:43Z</time></trkpt><trkpt lat="45.73835531954126" lon="7.264528573641852"><ele>1260.3333333333333</ele><time>2026-05-02T14:11:44Z</time></trkpt><trkpt lat="45.73822756496738" lon="7.264583115498231"><ele>1256.6666666666667</ele><time>2026-05-02T14:11:45Z</time></trkpt><trkpt lat="45.73807886156238" lon="7.264618899987578"><ele>1253.0</ele><time>2026-05-02T14:11:46Z</time></trkpt><trkpt lat="45.737913308796415" lon="7.264636716921079"><ele>1253.0</ele><time>2026-05-02T14:11:47Z</time></trkpt><trkpt lat="45.73773925255668" lon="7.2646171359662866"><ele>1253.0</ele><time>2026-05-02T14:11:48Z</time></trkpt><trkpt lat="45.73757100730656" lon="7.264602383990721"><ele>1253.0</ele><time>2026-05-02T14:11:49Z</time></trkpt><trkpt lat="45.73742820337443" lon="7.264662158569423"><ele>1250.5</ele><time>2026-05-02T14:11:50Z</time></trkpt><trkpt lat="45.737283148164884" lon="7.264685199724278"><ele>1248.0</ele><time>2026-05-02T14:11:51Z</time></trkpt><trkpt lat="45.73715118801376" lon="7.26475181927574"><ele>1245.5</ele><time>2026-05-02T14:11:52Z</time></trkpt><trkpt lat="45.73701264062525" lon="7.264718657418309"><ele>1243.0</ele><time>2026-05-02T14:11:53Z</time></trkpt><trkpt lat="45.736904377990335" lon="7.2646647778229605"><ele>1239.8</ele><time>2026-05-02T14:11:54Z</time></trkpt><trkpt lat="45.73678516991854" lon="7.2646307201797455"><ele>1236.6</ele><time>2026-05-02T14:11:55Z</time></trkpt><trkpt lat="45.73668928297755" lon="7.264557495832781"><ele>1233.4</ele><time>2026-05-02T14:11:56Z</time></trkpt><trkpt lat="45.73662200056149" lon="7.264462260882919"><ele>1230.2</ele><time>2026-05-02T14:11:57Z</time></trkpt><trkpt lat="45.73664571386445" lon="7.264328149762503"><ele>1227.0</ele><time>2026-05-02T14:11:58Z</time></trkpt><trkpt lat="45.73662595130379" lon="7.264216412429983"><ele>1227.0</ele><time>2026-05-02T14:11:59Z</time></trkpt><trkpt lat="45.73659156751096" lon="7.264101315334221"><ele>1227.0</ele><time>2026-05-02T14:12:00Z</time></trkpt><trkpt lat="45.736509463218226" lon="7.264023341208703"><ele>1227.0</ele><time>2026-05-02T14:12:01Z</time></trkpt><trkpt lat="45.736386624788544" lon="7.264016542071682"><ele>1227.0</ele><time>2026-05-02T14:12:02Z</time></trkpt><trkpt lat="45.73626126872117" lon="7.264070444849657"><ele>1227.0</ele><time>2026-05-02T14:12:03Z</time></trkpt><trkpt lat="45.736125425744234" lon="7.264110052167485"><ele>1222.3333333333333</ele><time>2026-05-02T14:12:04Z</time></trkpt><trkpt lat="45.735974939328486" lon="7.264169423974026"><ele>1217.6666666666665</ele><time>2026-05-02T14:12:05Z</time></trkpt><trkpt lat="45.73581724932361" lon="7.264192472900012"><ele>1213.0</ele><time>2026-05-02T14:12:06Z</time></trkpt><trkpt lat="45.73566880496148" lon="7.264193462769351"><ele>1213.0</ele><time>2026-05-02T14:12:07Z</time></trkpt><trkpt lat="45.735527719155506" lon="7.264171258116456"><ele>1213.0</ele><time>2026-05-02T14:12:08Z</time></trkpt><trkpt lat="45.735398391746" lon="7.26412476172762"><ele>1213.0</ele><time>2026-05-02T14:12:09Z</time></trkpt><trkpt lat="45.73528793159119" lon="7.264050054062071"><ele>1213.0</ele><time>2026-05-02T14:12:10Z</time></trkpt><trkpt lat="45.73519806889725" lon="7.263937440919335"><ele>1211.25</ele><time>2026-05-02T14:12:11Z</time></trkpt><trkpt lat="45.73513660276903" lon="7.263793643031747"><ele>1209.5</ele><time>2026-05-02T14:12:12Z</time></trkpt><trkpt lat="45.735097420070296" lon="7.263625373807766"><ele>1207.75</ele><time>2026-05-02T14:12:13Z</time></trkpt><trkpt lat="45.735067397123196" lon="7.2634456764165245"><ele>1206.0</ele><time>2026-05-02T14:12:14Z</time></trkpt><trkpt lat="45.73501761961568" lon="7.263279020451048"><ele>1206.0</ele><time>2026-05-02T14:12:15Z</time></trkpt><trkpt lat="45.73493491090259" lon="7.263116561462336"><ele>1206.0</ele><time>2026-05-02T14:12:16Z</time></trkpt><trkpt lat="45.73485515989984" lon="7.262960520044248"><ele>1206.0</ele><time>2026-05-02T14:12:17Z</time></trkpt><trkpt lat="45.73477011956215" lon="7.262801776942894"><ele>1206.0</ele><time>2026-05-02T14:12:18Z</time></trkpt><trkpt lat="45.734699160866235" lon="7.262628722057508"><ele>1205.0</ele><time>2026-05-02T14:12:19Z</time></trkpt><trkpt lat="45.73461322938719" lon="7.262466043638987"><ele>1204.0</ele><time>2026-05-02T14:12:20Z</time></trkpt><trkpt lat="45.73453325081167" lon="7.262312804028131"><ele>1203.0</ele><time>2026-05-02T14:12:21Z</time></trkpt><trkpt lat="45.73445593366033" lon="7.262159077587704"><ele>1202.0</ele><time>2026-05-02T14:12:22Z</time></trkpt><trkpt lat="45.734378591187856" lon="7.262006568077335"><ele>1202.0</ele><time>2026-05-02T14:12:23Z</time></trkpt><trkpt lat="45.73430202842679" lon="7.26185579436096"><ele>1202.0</ele><time>2026-05-02T14:12:24Z</time></trkpt><trkpt lat="45.73422909400447" lon="7.261706522211025"><ele>1202.0</ele><time>2026-05-02T14:12:25Z</time></trkpt><trkpt lat="45.73415726658105" lon="7.261564325642218"><ele>1202.0</ele><time>2026-05-02T14:12:26Z</time></trkpt><trkpt lat="45.73408405884841" lon="7.2614187848330545"><ele>1204.5</ele><time>2026-05-02T14:12:27Z</time></trkpt><trkpt lat="45.734013839571645" lon="7.261261264517244"><ele>1207.0</ele><time>2026-05-02T14:12:28Z</time></trkpt><trkpt lat="45.73393286025822" lon="7.2611166552157345"><ele>1209.5</ele><time>2026-05-02T14:12:29Z</time></trkpt><trkpt lat="45.733855105120135" lon="7.260976000535403"><ele>1212.0</ele><time>2026-05-02T14:12:30Z</time></trkpt><trkpt lat="45.7337792878725" lon="7.260828149525979"><ele>1212.0</ele><time>2026-05-02T14:12:31Z</time></trkpt><trkpt lat="45.73370289721126" lon="7.260677609423898"><ele>1212.0</ele><time>2026-05-02T14:12:32Z</time></trkpt><trkpt lat="45.73362919533743" lon="7.260532398819852"><ele>1212.0</ele><time>2026-05-02T14:12:33Z</time></trkpt><trkpt lat="45.73356788096131" lon="7.260397713462568"><ele>1212.0</ele><time>2026-05-02T14:12:34Z</time></trkpt><trkpt lat="45.7335353536512" lon="7.260258660291156"><ele>1209.25</ele><time>2026-05-02T14:12:35Z</time></trkpt><trkpt lat="45.73352975627785" lon="7.26010428316963"><ele>1206.5</ele><time>2026-05-02T14:12:36Z</time></trkpt><trkpt lat="45.73353470332125" lon="7.259936206310883"><ele>1203.75</ele><time>2026-05-02T14:12:37Z</time></trkpt><trkpt lat="45.73354083090195" lon="7.259760834010305"><ele>1201.0</ele><time>2026-05-02T14:12:38Z</time></trkpt><trkpt lat="45.73353425629282" lon="7.259592523250802"><ele>1201.0</ele><time>2026-05-02T14:12:39Z</time></trkpt><trkpt lat="45.73352486411066" lon="7.259416468572294"><ele>1201.0</ele><time>2026-05-02T14:12:40Z</time></trkpt><trkpt lat="45.733502646484965" lon="7.259242058490942"><ele>1201.0</ele><time>2026-05-02T14:12:41Z</time></trkpt><trkpt lat="45.733474834578786" lon="7.259071670653443"><ele>1201.0</ele><time>2026-05-02T14:12:42Z</time></trkpt><trkpt lat="45.73344078979981" lon="7.258903865179546"><ele>1202.5</ele><time>2026-05-02T14:12:43Z</time></trkpt><trkpt lat="45.733399165379076" lon="7.258750548910591"><ele>1204.0</ele><time>2026-05-02T14:12:44Z</time></trkpt><trkpt lat="45.733331915619715" lon="7.258614961106777"><ele>1205.5</ele><time>2026-05-02T14:12:45Z</time></trkpt><trkpt lat="45.73324757363325" lon="7.258482258739793"><ele>1207.0</ele><time>2026-05-02T14:12:46Z</time></trkpt><trkpt lat="45.73315879249839" lon="7.258328101354088"><ele>1207.0</ele><time>2026-05-02T14:12:47Z</time></trkpt><trkpt lat="45.73308451555767" lon="7.258139095370922"><ele>1207.0</ele><time>2026-05-02T14:12:48Z</time></trkpt><trkpt lat="45.733019944401455" lon="7.2579535501705115"><ele>1207.0</ele><time>2026-05-02T14:12:49Z</time></trkpt><trkpt lat="45.732966326294225" lon="7.257772790797651"><ele>1207.0</ele><time>2026-05-02T14:12:50Z</time></trkpt><trkpt lat="45.73285384174677" lon="7.257647277988311"><ele>1205.75</ele><time>2026-05-02T14:12:51Z</time></trkpt><trkpt lat="45.73271065813969" lon="7.257616378603313"><ele>1204.5</ele><time>2026-05-02T14:12:52Z</time></trkpt><trkpt lat="45.73257279566164" lon="7.257635885462887"><ele>1203.25</ele><time>2026-05-02T14:12:53Z</time></trkpt><trkpt lat="45.73242660720622" lon="7.257636610970317"><ele>1202.0</ele><time>2026-05-02T14:12:54Z</time></trkpt><trkpt lat="45.73228279303264" lon="7.257636362120394"><ele>1202.0</ele><time>2026-05-02T14:12:55Z</time></trkpt><trkpt lat="45.73214856277679" lon="7.257635986580393"><ele>1202.0</ele><time>2026-05-02T14:12:56Z</time></trkpt><trkpt lat="45.732018785161344" lon="7.257616858631187"><ele>1202.0</ele><time>2026-05-02T14:12:57Z</time></trkpt><trkpt lat="45.73189932445738" lon="7.257565484694977"><ele>1202.0</ele><time>2026-05-02T14:12:58Z</time></trkpt><trkpt lat="45.731789430361914" lon="7.25747685011376"><ele>1201.5</ele><time>2026-05-02T14:12:59Z</time></trkpt><trkpt lat="45.731701165604605" lon="7.2573529092153715"><ele>1201.0</ele><time>2026-05-02T14:13:00Z</time></trkpt><trkpt lat="45.731605615437545" lon="7.257258975776997"><ele>1200.5</ele><time>2026-05-02T14:13:01Z</time></trkpt><trkpt lat="45.73153588180501" lon="7.2571331215315364"><ele>1200.0</ele><time>2026-05-02T14:13:02Z</time></trkpt><trkpt lat="45.731482995733835" lon="7.256995575779222"><ele>1200.0</ele><time>2026-05-02T14:13:03Z</time></trkpt><trkpt lat="45.731462589647506" lon="7.256829001948761"><ele>1200.0</ele><time>2026-05-02T14:13:04Z</time></trkpt><trkpt lat="45.731456292316075" lon="7.256653215655523"><ele>1200.0</ele><time>2026-05-02T14:13:05Z</time></trkpt><trkpt lat="45.73142183263517" lon="7.256451313687785"><ele>1200.0</ele><time>2026-05-02T14:13:06Z</time></trkpt><trkpt lat="45.73132447696363" lon="7.256260537415303"><ele>1200.6666666666667</ele><time>2026-05-02T14:13:07Z</time></trkpt><trkpt lat="45.7312309009107" lon="7.25604446973329"><ele>1201.3333333333335</ele><time>2026-05-02T14:13:08Z</time></trkpt><trkpt lat="45.731119247508005" lon="7.255808983322457"><ele>1202.0</ele><time>2026-05-02T14:13:09Z</time></trkpt><trkpt lat="45.73100563697485" lon="7.255561039046808"><ele>1202.0</ele><time>2026-05-02T14:13:10Z</time></trkpt><trkpt lat="45.73091456797407" lon="7.255289023962881"><ele>1202.0</ele><time>2026-05-02T14:13:11Z</time></trkpt><trkpt lat="45.730806695214405" lon="7.255027519928641"><ele>1202.0</ele><time>2026-05-02T14:13:12Z</time></trkpt><trkpt lat="45.73070392872081" lon="7.254798451463675"><ele>1207.0</ele><time>2026-05-02T14:13:13Z</time></trkpt><trkpt lat="45.7305985978712" lon="7.254599788204362"><ele>1212.0</ele><time>2026-05-02T14:13:14Z</time></trkpt><trkpt lat="45.73052287004295" lon="7.254391770886663"><ele>1217.0</ele><time>2026-05-02T14:13:15Z</time></trkpt><trkpt lat="45.73047711182157" lon="7.254182733233411"><ele>1217.0</ele><time>2026-05-02T14:13:16Z</time></trkpt><trkpt lat="45.73046907186777" lon="7.253981018389262"><ele>1217.0</ele><time>2026-05-02T14:13:17Z</time></trkpt><trkpt lat="45.73048646697494" lon="7.253793596733017"><ele>1217.0</ele><time>2026-05-02T14:13:18Z</time></trkpt><trkpt lat="45.73052325634153" lon="7.253589906818172"><ele>1217.0</ele><time>2026-05-02T14:13:19Z</time></trkpt><trkpt lat="45.730570015263744" lon="7.253385456314275"><ele>1219.3333333333335</ele><time>2026-05-02T14:13:20Z</time></trkpt><trkpt lat="45.73061770071905" lon="7.253159888710323"><ele>1221.6666666666667</ele><time>2026-05-02T14:13:21Z</time></trkpt><trkpt lat="45.730673376297986" lon="7.252909786447662"><ele>1224.0</ele><time>2026-05-02T14:13:22Z</time></trkpt><trkpt lat="45.73072162740569" lon="7.252651987556659"><ele>1224.0</ele><time>2026-05-02T14:13:23Z</time></trkpt><trkpt lat="45.73076105997708" lon="7.252390973830301"><ele>1224.0</ele><time>2026-05-02T14:13:24Z</time></trkpt><trkpt lat="45.730794347150336" lon="7.252159366816367"><ele>1224.0</ele><time>2026-05-02T14:13:25Z</time></trkpt><trkpt lat="45.73078462626911" lon="7.251954905438678"><ele>1223.0</ele><time>2026-05-02T14:13:26Z</time></trkpt><trkpt lat="45.73080969349312" lon="7.251781274867118"><ele>1222.0</ele><time>2026-05-02T14:13:27Z</time></trkpt><trkpt lat="45.730866890694315" lon="7.251641749992337"><ele>1221.0</ele><time>2026-05-02T14:13:28Z</time></trkpt><trkpt lat="45.730946198393525" lon="7.251509583123341"><ele>1220.0</ele><time>2026-05-02T14:13:29Z</time></trkpt><trkpt lat="45.73103396982178" lon="7.251372078815253"><ele>1229.3333333333335</ele><time>2026-05-02T14:13:30Z</time></trkpt><trkpt lat="45.731132603466435" lon="7.251217914238663"><ele>1238.6666666666667</ele><time>2026-05-02T14:13:31Z</time></trkpt><trkpt lat="45.7312495580176" lon="7.2510531348635086"><ele>1248.0</ele><time>2026-05-02T14:13:32Z</time></trkpt><trkpt lat="45.73138460563808" lon="7.250891664492423"><ele>1248.0</ele><time>2026-05-02T14:13:33Z</time></trkpt><trkpt lat="45.7315126658501" lon="7.250725629287546"><ele>1248.0</ele><time>2026-05-02T14:13:34Z</time></trkpt><trkpt lat="45.731617334796546" lon="7.250580381048285"><ele>1248.0</ele><time>2026-05-02T14:13:35Z</time></trkpt><trkpt lat="45.73169451594049" lon="7.25041403234751"><ele>1245.5</ele><time>2026-05-02T14:13:36Z</time></trkpt><trkpt lat="45.7317264887712" lon="7.250234157458913"><ele>1243.0</ele><time>2026-05-02T14:13:37Z</time></trkpt><trkpt lat="45.73172037122604" lon="7.250070452257519"><ele>1240.5</ele><time>2026-05-02T14:13:38Z</time></trkpt><trkpt lat="45.73172341188806" lon="7.249904046554487"><ele>1238.0</ele><time>2026-05-02T14:13:39Z</time></trkpt><trkpt lat="45.73176607373434" lon="7.249747419686519"><ele>1236.75</ele><time>2026-05-02T14:13:40Z</time></trkpt><trkpt lat="45.73184126084187" lon="7.249589328800668"><ele>1235.5</ele><time>2026-05-02T14:13:41Z</time></trkpt><trkpt lat="45.73191912266556" lon="7.249404013937438"><ele>1234.25</ele><time>2026-05-02T14:13:42Z</time></trkpt><trkpt lat="45.73199077608894" lon="7.249204076966585"><ele>1233.0</ele><time>2026-05-02T14:13:43Z</time></trkpt><trkpt lat="45.732072103655725" lon="7.2490150251944945"><ele>1244.0</ele><time>2026-05-02T14:13:44Z</time></trkpt><trkpt lat="45.732180893496775" lon="7.24883759890719"><ele>1255.0</ele><time>2026-05-02T14:13:45Z</time></trkpt><trkpt lat="45.73232037596084" lon="7.248656778914072"><ele>1266.0</ele><time>2026-05-02T14:13:46Z</time></trkpt><trkpt lat="45.73247426256573" lon="7.248479474722007"><ele>1266.0</ele><time>2026-05-02T14:13:47Z</time></trkpt><trkpt lat="45.732616563587456" lon="7.24833455858162"><ele>1266.0</ele><time>2026-05-02T14:13:48Z</time></trkpt><trkpt lat="45.73272651876153" lon="7.248198484355982"><ele>1266.0</ele><time>2026-05-02T14:13:49Z</time></trkpt><trkpt lat="45.732810758444856" lon="7.248089836968419"><ele>1266.0</ele><time>2026-05-02T14:13:50Z</time></trkpt><trkpt lat="45.73280741390151" lon="7.247954488691046"><ele>1266.0</ele><time>2026-05-02T14:13:51Z</time></trkpt><trkpt lat="45.73276261118346" lon="7.247837844462937"><ele>1266.0</ele><time>2026-05-02T14:13:52Z</time></trkpt><trkpt lat="45.732669884839844" lon="7.247766538878401"><ele>1266.0</ele><time>2026-05-02T14:13:53Z</time></trkpt><trkpt lat="45.732568920830516" lon="7.24769524179134"><ele>1266.0</ele><time>2026-05-02T14:13:54Z</time></trkpt><trkpt lat="45.73249670242907" lon="7.247588939608233"><ele>1266.0</ele><time>2026-05-02T14:13:55Z</time></trkpt><trkpt lat="45.73246393812145" lon="7.247438086791788"><ele>1266.0</ele><time>2026-05-02T14:13:56Z</time></trkpt><trkpt lat="45.732473686838" lon="7.247280682561979"><ele>1266.0</ele><time>2026-05-02T14:13:57Z</time></trkpt><trkpt lat="45.732520477965124" lon="7.2470901430445025"><ele>1266.0</ele><time>2026-05-02T14:13:58Z</time></trkpt><trkpt lat="45.73261778356727" lon="7.2469198457618695"><ele>1266.0</ele><time>2026-05-02T14:13:59Z</time></trkpt><trkpt lat="45.73272226144405" lon="7.246727289366578"><ele>1270.6666666666667</ele><time>2026-05-02T14:14:00Z</time></trkpt><trkpt lat="45.732851415773844" lon="7.246591284005772"><ele>1275.3333333333335</ele><time>2026-05-02T14:14:01Z</time></trkpt><trkpt lat="45.73302861409131" lon="7.246424963815204"><ele>1280.0</ele><time>2026-05-02T14:14:02Z</time></trkpt><trkpt lat="45.73322179915119" lon="7.246268767971973"><ele>1280.0</ele><time>2026-05-02T14:14:03Z</time></trkpt><trkpt lat="45.733434790273954" lon="7.246097247155148"><ele>1280.0</ele><time>2026-05-02T14:14:04Z</time></trkpt><trkpt lat="45.73363793592828" lon="7.245855396145368"><ele>1289.0</ele><time>2026-05-02T14:14:05Z</time></trkpt><trkpt lat="45.733833829294554" lon="7.245576801104506"><ele>1298.0</ele><time>2026-05-02T14:14:06Z</time></trkpt><trkpt lat="45.734042553135836" lon="7.245292823541355"><ele>1298.0</ele><time>2026-05-02T14:14:07Z</time></trkpt><trkpt lat="45.734216482033055" lon="7.2450818940915696"><ele>1298.0</ele><time>2026-05-02T14:14:08Z</time></trkpt><trkpt lat="45.73439600624682" lon="7.24486981308291"><ele>1303.3333333333335</ele><time>2026-05-02T14:14:09Z</time></trkpt><trkpt lat="45.73456193131686" lon="7.244656441497035"><ele>1308.6666666666667</ele><time>2026-05-02T14:14:10Z</time></trkpt><trkpt lat="45.73470248115619" lon="7.244426022155827"><ele>1314.0</ele><time>2026-05-02T14:14:11Z</time></trkpt><trkpt lat="45.734822587582514" lon="7.244216365407859"><ele>1314.0</ele><time>2026-05-02T14:14:12Z</time></trkpt><trkpt lat="45.734931457580146" lon="7.2440741231808286"><ele>1314.0</ele><time>2026-05-02T14:14:13Z</time></trkpt><trkpt lat="45.735013784181454" lon="7.243956568333564"><ele>1314.0</ele><time>2026-05-02T14:14:14Z</time></trkpt><trkpt lat="45.73506153249566" lon="7.243828998529269"><ele>1314.0</ele><time>2026-05-02T14:14:15Z</time></trkpt><trkpt lat="45.73507095114256" lon="7.243693107282672"><ele>1315.75</ele><time>2026-05-02T14:14:16Z</time></trkpt><trkpt lat="45.735021452498756" lon="7.243574048804205"><ele>1317.5</ele><time>2026-05-02T14:14:17Z</time></trkpt><trkpt lat="45.734932342886" lon="7.243447832679519"><ele>1319.25</ele><time>2026-05-02T14:14:18Z</time></trkpt><trkpt lat="45.73480460088171" lon="7.243337436802678"><ele>1321.0</ele><time>2026-05-02T14:14:19Z</time></trkpt><trkpt lat="45.73465136217093" lon="7.243303075456232"><ele>1321.0</ele><time>2026-05-02T14:14:20Z</time></trkpt><trkpt lat="45.734487431460714" lon="7.2433010749428455"><ele>1321.0</ele><time>2026-05-02T14:14:21Z</time></trkpt><trkpt lat="45.73430990083682" lon="7.243304368108618"><ele>1321.0</ele><time>2026-05-02T14:14:22Z</time></trkpt><trkpt lat="45.73413385969049" lon="7.243275392879694"><ele>1319.5</ele><time>2026-05-02T14:14:23Z</time></trkpt><trkpt lat="45.73396389140413" lon="7.243222610021777"><ele>1318.0</ele><time>2026-05-02T14:14:24Z</time></trkpt><trkpt lat="45.733817530258804" lon="7.24317227351406"><ele>1316.5</ele><time>2026-05-02T14:14:25Z</time></trkpt><trkpt lat="45.733710285114164" lon="7.243133312763276"><ele>1315.0</ele><time>2026-05-02T14:14:26Z</time></trkpt><trkpt lat="45.733647396134" lon="7.24303994997329"><ele>1319.0</ele><time>2026-05-02T14:14:27Z</time></trkpt><trkpt lat="45.733628277632455" lon="7.242897382069069"><ele>1323.0</ele><time>2026-05-02T14:14:28Z</time></trkpt><trkpt lat="45.733653184492155" lon="7.242759829365692"><ele>1327.0</ele><time>2026-05-02T14:14:29Z</time></trkpt><trkpt lat="45.73371023983931" lon="7.242621289586015"><ele>1331.0</ele><time>2026-05-02T14:14:30Z</time></trkpt><trkpt lat="45.7337889699501" lon="7.24244507796858"><ele>1332.3333333333335</ele><time>2026-05-02T14:14:31Z</time></trkpt><trkpt lat="45.73385938367181" lon="7.2422447551474365"><ele>1333.6666666666667</ele><time>2026-05-02T14:14:32Z</time></trkpt><trkpt lat="45.73395178691555" lon="7.242039231514591"><ele>1335.0</ele><time>2026-05-02T14:14:33Z</time></trkpt><trkpt lat="45.73408122267405" lon="7.2418493675876805"><ele>1335.0</ele><time>2026-05-02T14:14:34Z</time></trkpt><trkpt lat="45.734238524654636" lon="7.241665685660545"><ele>1335.0</ele><time>2026-05-02T14:14:35Z</time></trkpt><trkpt lat="45.73438262460158" lon="7.241481229897126"><ele>1335.0</ele><time>2026-05-02T14:14:36Z</time></trkpt><trkpt lat="45.73450532072067" lon="7.241315428384999"><ele>1338.2</ele><time>2026-05-02T14:14:37Z</time></trkpt><trkpt lat="45.73459964436751" lon="7.2411759412416155"><ele>1341.4</ele><time>2026-05-02T14:14:38Z</time></trkpt><trkpt lat="45.734668632266796" lon="7.241063633645743"><ele>1344.6</ele><time>2026-05-02T14:14:39Z</time></trkpt><trkpt lat="45.7347023084919" lon="7.240949070492216"><ele>1347.8</ele><time>2026-05-02T14:14:40Z</time></trkpt><trkpt lat="45.73471498674183" lon="7.240838417641686"><ele>1351.0</ele><time>2026-05-02T14:14:41Z</time></trkpt><trkpt lat="45.73463420299175" lon="7.2407326395550475"><ele>1351.0</ele><time>2026-05-02T14:14:42Z</time></trkpt><trkpt lat="45.73451872602407" lon="7.240747982632353"><ele>1351.0</ele><time>2026-05-02T14:14:43Z</time></trkpt><trkpt lat="45.73443119877654" lon="7.240816878759385"><ele>1351.0</ele><time>2026-05-02T14:14:44Z</time></trkpt><trkpt lat="45.73432842893365" lon="7.24084622148853"><ele>1351.0</ele><time>2026-05-02T14:14:45Z</time></trkpt><trkpt lat="45.73422541277353" lon="7.240899100712943"><ele>1351.0</ele><time>2026-05-02T14:14:46Z</time></trkpt><trkpt lat="45.734125148770325" lon="7.240946657657059"><ele>1351.0</ele><time>2026-05-02T14:14:47Z</time></trkpt><trkpt lat="45.73402307938681" lon="7.240983932615568"><ele>1351.0</ele><time>2026-05-02T14:14:48Z</time></trkpt><trkpt lat="45.73393370778669" lon="7.2410123819236984"><ele>1351.0</ele><time>2026-05-02T14:14:49Z</time></trkpt><trkpt lat="45.73380765577378" lon="7.240978174920429"><ele>1351.0</ele><time>2026-05-02T14:14:50Z</time></trkpt><trkpt lat="45.73366136288587" lon="7.240887056385611"><ele>1353.3333333333333</ele><time>2026-05-02T14:14:51Z</time></trkpt><trkpt lat="45.733463470028525" lon="7.240843926451848"><ele>1355.6666666666667</ele><time>2026-05-02T14:14:52Z</time></trkpt><trkpt lat="45.73328194331097" lon="7.240873905875524"><ele>1358.0</ele><time>2026-05-02T14:14:53Z</time></trkpt><trkpt lat="45.73313521798917" lon="7.240838539839648"><ele>1358.0</ele><time>2026-05-02T14:14:54Z</time></trkpt><trkpt lat="45.73301670962575" lon="7.240818934077847"><ele>1358.0</ele><time>2026-05-02T14:14:55Z</time></trkpt><trkpt lat="45.73291529667705" lon="7.240931717497774"><ele>1358.0</ele><time>2026-05-02T14:14:56Z</time></trkpt><trkpt lat="45.732798775146655" lon="7.241085643539035"><ele>1358.0</ele><time>2026-05-02T14:14:57Z</time></trkpt><trkpt lat="45.732682453490874" lon="7.241291375549453"><ele>1356.0</ele><time>2026-05-02T14:14:58Z</time></trkpt><trkpt lat="45.732586653159835" lon="7.241512479273907"><ele>1354.0</ele><time>2026-05-02T14:14:59Z</time></trkpt><trkpt lat="45.73249574731628" lon="7.2416895163939445"><ele>1352.0</ele><time>2026-05-02T14:15:00Z</time></trkpt><trkpt lat="45.73237038972065" lon="7.241790203446643"><ele>1352.0</ele><time>2026-05-02T14:15:01Z</time></trkpt><trkpt lat="45.73224513911752" lon="7.241827261558314"><ele>1352.0</ele><time>2026-05-02T14:15:02Z</time></trkpt><trkpt lat="45.732117835366275" lon="7.241812592648153"><ele>1352.0</ele><time>2026-05-02T14:15:03Z</time></trkpt><trkpt lat="45.731986287461254" lon="7.241739784628551"><ele>1352.0</ele><time>2026-05-02T14:15:04Z</time></trkpt><trkpt lat="45.73178926517822" lon="7.241644284973423"><ele>1356.5</ele><time>2026-05-02T14:15:05Z</time></trkpt><trkpt lat="45.73154997042798" lon="7.241581544022545"><ele>1361.0</ele><time>2026-05-02T14:15:06Z</time></trkpt><trkpt lat="45.731328324068436" lon="7.241439637203775"><ele>1369.6666666666667</ele><time>2026-05-02T14:15:07Z</time></trkpt><trkpt lat="45.73116552493503" lon="7.241293958615733"><ele>1378.3333333333333</ele><time>2026-05-02T14:15:08Z</time></trkpt><trkpt lat="45.731041755287706" lon="7.241209438660313"><ele>1387.0</ele><time>2026-05-02T14:15:09Z</time></trkpt><trkpt lat="45.7308922576754" lon="7.241255146029122"><ele>1387.0</ele><time>2026-05-02T14:15:10Z</time></trkpt><trkpt lat="45.73075751343287" lon="7.241283701369362"><ele>1387.0</ele><time>2026-05-02T14:15:11Z</time></trkpt><trkpt lat="45.730632271733995" lon="7.241254714583891"><ele>1387.0</ele><time>2026-05-02T14:15:12Z</time></trkpt><trkpt lat="45.730519546252204" lon="7.241163521457487"><ele>1387.0</ele><time>2026-05-02T14:15:13Z</time></trkpt><trkpt lat="45.73034835648654" lon="7.241043031834971"><ele>1386.3333333333333</ele><time>2026-05-02T14:15:14Z</time></trkpt><trkpt lat="45.73014803891208" lon="7.240987655954545"><ele>1385.6666666666667</ele><time>2026-05-02T14:15:15Z</time></trkpt><trkpt lat="45.72999269289852" lon="7.240972462889015"><ele>1385.0</ele><time>2026-05-02T14:15:16Z</time></trkpt><trkpt lat="45.72978290690356" lon="7.24099253305648"><ele>1385.0</ele><time>2026-05-02T14:15:17Z</time></trkpt><trkpt lat="45.72954929527791" lon="7.241040564416866"><ele>1385.0</ele><time>2026-05-02T14:15:18Z</time></trkpt><trkpt lat="45.72934631956441" lon="7.240992693296146"><ele>1385.0</ele><time>2026-05-02T14:15:19Z</time></trkpt><trkpt lat="45.72916568335796" lon="7.241020241474242"><ele>1384.25</ele><time>2026-05-02T14:15:20Z</time></trkpt><trkpt lat="45.72900590544136" lon="7.241034097793499"><ele>1383.5</ele><time>2026-05-02T14:15:21Z</time></trkpt><trkpt lat="45.728869625596175" lon="7.241050901133687"><ele>1382.75</ele><time>2026-05-02T14:15:22Z</time></trkpt><trkpt lat="45.72877965666733" lon="7.241022184001263"><ele>1382.0</ele><time>2026-05-02T14:15:23Z</time></trkpt><trkpt lat="45.72871507575554" lon="7.240960144441354"><ele>1382.0</ele><time>2026-05-02T14:15:24Z</time></trkpt><trkpt lat="45.72863731002829" lon="7.240826461575313"><ele>1382.0</ele><time>2026-05-02T14:15:26Z</time></trkpt><trkpt lat="45.7285948388775" lon="7.240743879978835"><ele>1382.0</ele><time>2026-05-02T14:15:27Z</time></trkpt><trkpt lat="45.72856834352962" lon="7.240640768546761"><ele>1382.0</ele><time>2026-05-02T14:15:28Z</time></trkpt><trkpt lat="45.72854386373933" lon="7.240531222976851"><ele>1382.0</ele><time>2026-05-02T14:15:29Z</time></trkpt><trkpt lat="45.72852666942804" lon="7.240416766386616"><ele>1382.0</ele><time>2026-05-02T14:15:30Z</time></trkpt><trkpt lat="45.7285335817731" lon="7.2402929639237525"><ele>1387.25</ele><time>2026-05-02T14:15:31Z</time></trkpt><trkpt lat="45.72857253663975" lon="7.240162923223698"><ele>1392.5</ele><time>2026-05-02T14:15:32Z</time></trkpt><trkpt lat="45.72860091280151" lon="7.239993426027303"><ele>1397.75</ele><time>2026-05-02T14:15:33Z</time></trkpt><trkpt lat="45.72862595685614" lon="7.239804882243554"><ele>1403.0</ele><time>2026-05-02T14:15:34Z</time></trkpt><trkpt lat="45.72864176326356" lon="7.239605870193141"><ele>1410.0</ele><time>2026-05-02T14:15:35Z</time></trkpt><trkpt lat="45.72863021266604" lon="7.239375244679478"><ele>1417.0</ele><time>2026-05-02T14:15:36Z</time></trkpt><trkpt lat="45.728624089964605" lon="7.23911071801067"><ele>1424.0</ele><time>2026-05-02T14:15:37Z</time></trkpt><trkpt lat="45.7286364443391" lon="7.238831673615053"><ele>1430.6666666666667</ele><time>2026-05-02T14:15:38Z</time></trkpt><trkpt lat="45.72858884676258" lon="7.238521855094802"><ele>1437.3333333333333</ele><time>2026-05-02T14:15:39Z</time></trkpt><trkpt lat="45.728556032309285" lon="7.238261219874115"><ele>1444.0</ele><time>2026-05-02T14:15:40Z</time></trkpt><trkpt lat="45.72853434527121" lon="7.238015021567584"><ele>1447.6666666666665</ele><time>2026-05-02T14:15:41Z</time></trkpt><trkpt lat="45.72855662221254" lon="7.237773762733871"><ele>1451.3333333333333</ele><time>2026-05-02T14:15:42Z</time></trkpt><trkpt lat="45.72856845877937" lon="7.237540137876828"><ele>1455.0</ele><time>2026-05-02T14:15:43Z</time></trkpt><trkpt lat="45.728580311815385" lon="7.237292900122928"><ele>1457.6666666666667</ele><time>2026-05-02T14:15:44Z</time></trkpt><trkpt lat="45.72857997408928" lon="7.2370345159187295"><ele>1460.3333333333335</ele><time>2026-05-02T14:15:45Z</time></trkpt><trkpt lat="45.72859742820224" lon="7.236765770785396"><ele>1463.0</ele><time>2026-05-02T14:15:46Z</time></trkpt><trkpt lat="45.72860999130709" lon="7.236527517719276"><ele>1466.0</ele><time>2026-05-02T14:15:47Z</time></trkpt><trkpt lat="45.72857244408318" lon="7.236250247759828"><ele>1469.0</ele><time>2026-05-02T14:15:48Z</time></trkpt><trkpt lat="45.728485346811986" lon="7.23600063442431"><ele>1472.0</ele><time>2026-05-02T14:15:49Z</time></trkpt><trkpt lat="45.728401203010975" lon="7.235815225055356"><ele>1459.75</ele><time>2026-05-02T14:15:50Z</time></trkpt><trkpt lat="45.72833915113619" lon="7.23561642923495"><ele>1447.5</ele><time>2026-05-02T14:15:51Z</time></trkpt><trkpt lat="45.728294972954785" lon="7.235413510703217"><ele>1435.25</ele><time>2026-05-02T14:15:52Z</time></trkpt><trkpt lat="45.72829395712542" lon="7.235206655578457"><ele>1423.0</ele><time>2026-05-02T14:15:53Z</time></trkpt><trkpt lat="45.72830138269935" lon="7.234984534804598"><ele>1425.6666666666665</ele><time>2026-05-02T14:15:54Z</time></trkpt><trkpt lat="45.728293570500526" lon="7.234739002980223"><ele>1428.3333333333333</ele><time>2026-05-02T14:15:55Z</time></trkpt><trkpt lat="45.72825033601637" lon="7.2344435012556865"><ele>1431.0</ele><time>2026-05-02T14:15:56Z</time></trkpt><trkpt lat="45.72824052402795" lon="7.2341653009423945"><ele>1435.6666666666667</ele><time>2026-05-02T14:15:57Z</time></trkpt><trkpt lat="45.72822818883137" lon="7.233858031639996"><ele>1440.3333333333335</ele><time>2026-05-02T14:15:58Z</time></trkpt><trkpt lat="45.72818749783229" lon="7.233549446515998"><ele>1445.0</ele><time>2026-05-02T14:15:59Z</time></trkpt><trkpt lat="45.72809505101293" lon="7.233257684830131"><ele>1450.3333333333335</ele><time>2026-05-02T14:16:00Z</time></trkpt><trkpt lat="45.7279531169946" lon="7.232986754204756"><ele>1455.6666666666667</ele><time>2026-05-02T14:16:01Z</time></trkpt><trkpt lat="45.72789417920759" lon="7.232693685606358"><ele>1461.0</ele><time>2026-05-02T14:16:02Z</time></trkpt><trkpt lat="45.727848766480896" lon="7.23240687457084"><ele>1465.3333333333333</ele><time>2026-05-02T14:16:03Z</time></trkpt><trkpt lat="45.72780127186992" lon="7.232153527784129"><ele>1469.6666666666665</ele><time>2026-05-02T14:16:04Z</time></trkpt><trkpt lat="45.727718630105755" lon="7.2319440155115515"><ele>1474.0</ele><time>2026-05-02T14:16:05Z</time></trkpt><trkpt lat="45.727720320442366" lon="7.231728309199614"><ele>1474.0</ele><time>2026-05-02T14:16:06Z</time></trkpt><trkpt lat="45.72773000282575" lon="7.23148693824312"><ele>1474.0</ele><time>2026-05-02T14:16:07Z</time></trkpt><trkpt lat="45.727762362453824" lon="7.231261525726542"><ele>1474.0</ele><time>2026-05-02T14:16:08Z</time></trkpt><trkpt lat="45.72780939650719" lon="7.231055347025445"><ele>1472.75</ele><time>2026-05-02T14:16:09Z</time></trkpt><trkpt lat="45.72785851842936" lon="7.230855368706007"><ele>1471.5</ele><time>2026-05-02T14:16:10Z</time></trkpt><trkpt lat="45.72789688104954" lon="7.2306624108585735"><ele>1470.25</ele><time>2026-05-02T14:16:11Z</time></trkpt><trkpt lat="45.72795085402254" lon="7.230493841919124"><ele>1469.0</ele><time>2026-05-02T14:16:12Z</time></trkpt><trkpt lat="45.72797967639092" lon="7.230309988483326"><ele>1467.25</ele><time>2026-05-02T14:16:13Z</time></trkpt><trkpt lat="45.728020503869715" lon="7.230136581827039"><ele>1465.5</ele><time>2026-05-02T14:16:14Z</time></trkpt><trkpt lat="45.72805437256258" lon="7.229955419033729"><ele>1463.75</ele><time>2026-05-02T14:16:15Z</time></trkpt><trkpt lat="45.7280663521597" lon="7.229780844373754"><ele>1462.0</ele><time>2026-05-02T14:16:16Z</time></trkpt><trkpt lat="45.728032076474925" lon="7.229617340023496"><ele>1462.0</ele><time>2026-05-02T14:16:17Z</time></trkpt><trkpt lat="45.728002942218374" lon="7.229457040581125"><ele>1462.0</ele><time>2026-05-02T14:16:18Z</time></trkpt><trkpt lat="45.727971496530905" lon="7.229294363727327"><ele>1462.0</ele><time>2026-05-02T14:16:19Z</time></trkpt><trkpt lat="45.72794018821997" lon="7.229149612211837"><ele>1462.0</ele><time>2026-05-02T14:16:20Z</time></trkpt><trkpt lat="45.727936643185366" lon="7.228990019681666"><ele>1459.75</ele><time>2026-05-02T14:16:21Z</time></trkpt><trkpt lat="45.72793385885616" lon="7.228823769155196"><ele>1457.5</ele><time>2026-05-02T14:16:22Z</time></trkpt><trkpt lat="45.7279422116081" lon="7.228663990062708"><ele>1455.25</ele><time>2026-05-02T14:16:23Z</time></trkpt><trkpt lat="45.72796886611715" lon="7.228492917221522"><ele>1453.0</ele><time>2026-05-02T14:16:24Z</time></trkpt><trkpt lat="45.728014758824955" lon="7.228341650002637"><ele>1453.0</ele><time>2026-05-02T14:16:25Z</time></trkpt><trkpt lat="45.728075019396655" lon="7.228212171544753"><ele>1453.0</ele><time>2026-05-02T14:16:26Z</time></trkpt><trkpt lat="45.72813974528448" lon="7.228069073143286"><ele>1453.0</ele><time>2026-05-02T14:16:27Z</time></trkpt><trkpt lat="45.72818802127606" lon="7.227921786207644"><ele>1453.0</ele><time>2026-05-02T14:16:28Z</time></trkpt><trkpt lat="45.728205767383194" lon="7.2277639393845545"><ele>1453.5</ele><time>2026-05-02T14:16:29Z</time></trkpt><trkpt lat="45.728215909006664" lon="7.227596844521252"><ele>1454.0</ele><time>2026-05-02T14:16:30Z</time></trkpt><trkpt lat="45.72811890911109" lon="7.227462167363152"><ele>1454.5</ele><time>2026-05-02T14:16:31Z</time></trkpt><trkpt lat="45.728064857942165" lon="7.2273178955272845"><ele>1455.0</ele><time>2026-05-02T14:16:32Z</time></trkpt><trkpt lat="45.72803693007853" lon="7.227152852114697"><ele>1455.75</ele><time>2026-05-02T14:16:33Z</time></trkpt><trkpt lat="45.72803758772656" lon="7.226975256658305"><ele>1456.5</ele><time>2026-05-02T14:16:34Z</time></trkpt><trkpt lat="45.72809761358475" lon="7.226817167388736"><ele>1457.25</ele><time>2026-05-02T14:16:35Z</time></trkpt><trkpt lat="45.72814948672861" lon="7.226665175504035"><ele>1458.0</ele><time>2026-05-02T14:16:36Z</time></trkpt><trkpt lat="45.72820202928694" lon="7.226473896704999"><ele>1458.5</ele><time>2026-05-02T14:16:37Z</time></trkpt><trkpt lat="45.72825041805784" lon="7.226279445365608"><ele>1459.0</ele><time>2026-05-02T14:16:38Z</time></trkpt><trkpt lat="45.72829885582416" lon="7.226093012428895"><ele>1459.5</ele><time>2026-05-02T14:16:39Z</time></trkpt><trkpt lat="45.728346227423984" lon="7.22590393111457"><ele>1460.0</ele><time>2026-05-02T14:16:40Z</time></trkpt><trkpt lat="45.72839138805556" lon="7.2257094030293"><ele>1459.75</ele><time>2026-05-02T14:16:41Z</time></trkpt><trkpt lat="45.72843424561556" lon="7.2255218150078875"><ele>1459.5</ele><time>2026-05-02T14:16:42Z</time></trkpt><trkpt lat="45.728474463261485" lon="7.225342827105792"><ele>1459.25</ele><time>2026-05-02T14:16:43Z</time></trkpt><trkpt lat="45.728509689054995" lon="7.225156596349212"><ele>1459.0</ele><time>2026-05-02T14:16:44Z</time></trkpt><trkpt lat="45.72854115434232" lon="7.224981065042821"><ele>1465.5</ele><time>2026-05-02T14:16:45Z</time></trkpt><trkpt lat="45.7285910979897" lon="7.224795706720006"><ele>1472.0</ele><time>2026-05-02T14:16:46Z</time></trkpt><trkpt lat="45.72864095725177" lon="7.224613809260488"><ele>1478.5</ele><time>2026-05-02T14:16:47Z</time></trkpt><trkpt lat="45.72871505642756" lon="7.224434118443524"><ele>1485.0</ele><time>2026-05-02T14:16:48Z</time></trkpt><trkpt lat="45.72876573619563" lon="7.2242434575003855"><ele>1485.0</ele><time>2026-05-02T14:16:49Z</time></trkpt><trkpt lat="45.728778987839526" lon="7.224042228434521"><ele>1485.0</ele><time>2026-05-02T14:16:50Z</time></trkpt><trkpt lat="45.728830046007694" lon="7.223867474317642"><ele>1485.0</ele><time>2026-05-02T14:16:51Z</time></trkpt><trkpt lat="45.72889599451315" lon="7.2237184800937735"><ele>1485.0</ele><time>2026-05-02T14:16:52Z</time></trkpt><trkpt lat="45.72898526157405" lon="7.223583372685691"><ele>1484.25</ele><time>2026-05-02T14:16:53Z</time></trkpt><trkpt lat="45.72907227132276" lon="7.223444976662912"><ele>1483.5</ele><time>2026-05-02T14:16:54Z</time></trkpt><trkpt lat="45.72911997346126" lon="7.223262076255499"><ele>1482.75</ele><time>2026-05-02T14:16:55Z</time></trkpt><trkpt lat="45.729165182932306" lon="7.223069008332145"><ele>1482.0</ele><time>2026-05-02T14:16:56Z</time></trkpt><trkpt lat="45.729207058831086" lon="7.222868183247832"><ele>1480.5</ele><time>2026-05-02T14:16:57Z</time></trkpt><trkpt lat="45.72923326212861" lon="7.222666264846087"><ele>1479.0</ele><time>2026-05-02T14:16:58Z</time></trkpt><trkpt lat="45.72926679949727" lon="7.222458542973854"><ele>1477.5</ele><time>2026-05-02T14:16:59Z</time></trkpt><trkpt lat="45.72930075648233" lon="7.222255939379981"><ele>1476.0</ele><time>2026-05-02T14:17:00Z</time></trkpt><trkpt lat="45.729333159300815" lon="7.222054726985065"><ele>1483.0</ele><time>2026-05-02T14:17:01Z</time></trkpt><trkpt lat="45.729393839503004" lon="7.221862369227378"><ele>1490.0</ele><time>2026-05-02T14:17:02Z</time></trkpt><trkpt lat="45.729439496099765" lon="7.221665449080297"><ele>1497.0</ele><time>2026-05-02T14:17:03Z</time></trkpt><trkpt lat="45.72950104299286" lon="7.221464449665099"><ele>1504.0</ele><time>2026-05-02T14:17:04Z</time></trkpt><trkpt lat="45.72957193948469" lon="7.221256249387294"><ele>1504.0</ele><time>2026-05-02T14:17:05Z</time></trkpt><trkpt lat="45.72961391869772" lon="7.221033126739599"><ele>1504.0</ele><time>2026-05-02T14:17:06Z</time></trkpt><trkpt lat="45.72966925997378" lon="7.220816259916761"><ele>1504.0</ele><time>2026-05-02T14:17:07Z</time></trkpt><trkpt lat="45.72972675645613" lon="7.220598186380969"><ele>1501.0</ele><time>2026-05-02T14:17:08Z</time></trkpt><trkpt lat="45.72977647602921" lon="7.220389694666889"><ele>1498.0</ele><time>2026-05-02T14:17:09Z</time></trkpt><trkpt lat="45.72981515381414" lon="7.220182792657367"><ele>1495.0</ele><time>2026-05-02T14:17:10Z</time></trkpt><trkpt lat="45.72984665554131" lon="7.219975820999742"><ele>1492.75</ele><time>2026-05-02T14:17:11Z</time></trkpt><trkpt lat="45.72987435841228" lon="7.219773724683491"><ele>1490.5</ele><time>2026-05-02T14:17:12Z</time></trkpt><trkpt lat="45.72993231533669" lon="7.219605144288574"><ele>1488.25</ele><time>2026-05-02T14:17:13Z</time></trkpt><trkpt lat="45.73001938491024" lon="7.219459606444119"><ele>1486.0</ele><time>2026-05-02T14:17:14Z</time></trkpt><trkpt lat="45.73014009255187" lon="7.219353419219251"><ele>1494.0</ele><time>2026-05-02T14:17:15Z</time></trkpt><trkpt lat="45.73024696472733" lon="7.219216724903465"><ele>1502.0</ele><time>2026-05-02T14:17:16Z</time></trkpt><trkpt lat="45.73032808736939" lon="7.219038929726559"><ele>1510.0</ele><time>2026-05-02T14:17:17Z</time></trkpt><trkpt lat="45.73041589197771" lon="7.218862910822219"><ele>1518.0</ele><time>2026-05-02T14:17:18Z</time></trkpt><trkpt lat="45.73050571898906" lon="7.21869107527264"><ele>1518.0</ele><time>2026-05-02T14:17:19Z</time></trkpt><trkpt lat="45.73061295240581" lon="7.218568214542803"><ele>1518.0</ele><time>2026-05-02T14:17:20Z</time></trkpt><trkpt lat="45.73073497038968" lon="7.218418665588587"><ele>1518.0</ele><time>2026-05-02T14:17:21Z</time></trkpt><trkpt lat="45.73081015267477" lon="7.218235782550428"><ele>1518.0</ele><time>2026-05-02T14:17:22Z</time></trkpt><trkpt lat="45.7308961900325" lon="7.218058067162415"><ele>1512.3333333333333</ele><time>2026-05-02T14:17:23Z</time></trkpt><trkpt lat="45.730962321710045" lon="7.217846429115843"><ele>1506.6666666666665</ele><time>2026-05-02T14:17:24Z</time></trkpt><trkpt lat="45.731025498995635" lon="7.217645043806276"><ele>1501.0</ele><time>2026-05-02T14:17:25Z</time></trkpt><trkpt lat="45.73108770428192" lon="7.2174520707208405"><ele>1506.25</ele><time>2026-05-02T14:17:26Z</time></trkpt><trkpt lat="45.731165416274514" lon="7.21728472736091"><ele>1511.5</ele><time>2026-05-02T14:17:27Z</time></trkpt><trkpt lat="45.731236915878284" lon="7.2171185670831015"><ele>1516.75</ele><time>2026-05-02T14:17:28Z</time></trkpt><trkpt lat="45.731354379180175" lon="7.217012983505173"><ele>1522.0</ele><time>2026-05-02T14:17:29Z</time></trkpt><trkpt lat="45.73147251887228" lon="7.216869469682886"><ele>1522.0</ele><time>2026-05-02T14:17:30Z</time></trkpt><trkpt lat="45.73159824141935" lon="7.2167443917270875"><ele>1522.0</ele><time>2026-05-02T14:17:31Z</time></trkpt><trkpt lat="45.73172850294725" lon="7.216610523540273"><ele>1522.0</ele><time>2026-05-02T14:17:32Z</time></trkpt><trkpt lat="45.73186083881169" lon="7.216473473430038"><ele>1526.3333333333333</ele><time>2026-05-02T14:17:33Z</time></trkpt><trkpt lat="45.73199832930552" lon="7.216330921329872"><ele>1530.6666666666667</ele><time>2026-05-02T14:17:34Z</time></trkpt><trkpt lat="45.732129117177045" lon="7.216188170828466"><ele>1535.0</ele><time>2026-05-02T14:17:35Z</time></trkpt><trkpt lat="45.7322695562174" lon="7.216052326024724"><ele>1535.0</ele><time>2026-05-02T14:17:36Z</time></trkpt><trkpt lat="45.73240773361292" lon="7.215915447039441"><ele>1535.0</ele><time>2026-05-02T14:17:37Z</time></trkpt><trkpt lat="45.73252833694686" lon="7.215769580952848"><ele>1535.0</ele><time>2026-05-02T14:17:38Z</time></trkpt><trkpt lat="45.73264014232962" lon="7.215624930564499"><ele>1541.75</ele><time>2026-05-02T14:17:39Z</time></trkpt><trkpt lat="45.732740579147446" lon="7.215472566362591"><ele>1548.5</ele><time>2026-05-02T14:17:40Z</time></trkpt><trkpt lat="45.7328207669501" lon="7.215316761905645"><ele>1555.25</ele><time>2026-05-02T14:17:41Z</time></trkpt><trkpt lat="45.732889675803214" lon="7.215138363658366"><ele>1562.0</ele><time>2026-05-02T14:17:42Z</time></trkpt><trkpt lat="45.7329092787996" lon="7.2149231345573215"><ele>1560.5</ele><time>2026-05-02T14:17:43Z</time></trkpt><trkpt lat="45.732914059070914" lon="7.214716525212001"><ele>1559.0</ele><time>2026-05-02T14:17:44Z</time></trkpt><trkpt lat="45.73291582309647" lon="7.2145044301756"><ele>1557.5</ele><time>2026-05-02T14:17:45Z</time></trkpt><trkpt lat="45.73292596259731" lon="7.214290136147621"><ele>1556.0</ele><time>2026-05-02T14:17:46Z</time></trkpt><trkpt lat="45.732955069530135" lon="7.214101509814255"><ele>1551.25</ele><time>2026-05-02T14:17:47Z</time></trkpt><trkpt lat="45.73300897911636" lon="7.213954699972432"><ele>1546.5</ele><time>2026-05-02T14:17:48Z</time></trkpt><trkpt lat="45.73309069932368" lon="7.213848504632685"><ele>1541.75</ele><time>2026-05-02T14:17:49Z</time></trkpt><trkpt lat="45.73319921660655" lon="7.21376426804832"><ele>1537.0</ele><time>2026-05-02T14:17:50Z</time></trkpt><trkpt lat="45.7333130596245" lon="7.213673156432741"><ele>1537.0</ele><time>2026-05-02T14:17:51Z</time></trkpt><trkpt lat="45.73342616366577" lon="7.213528220181221"><ele>1537.0</ele><time>2026-05-02T14:17:52Z</time></trkpt><trkpt lat="45.7335207108495" lon="7.213388358521427"><ele>1537.0</ele><time>2026-05-02T14:17:53Z</time></trkpt><trkpt lat="45.73361874201588" lon="7.213271912993966"><ele>1537.0</ele><time>2026-05-02T14:17:54Z</time></trkpt><trkpt lat="45.73372529107042" lon="7.213224167952353"><ele>1543.25</ele><time>2026-05-02T14:17:55Z</time></trkpt><trkpt lat="45.73384057006649" lon="7.213246947171722"><ele>1549.5</ele><time>2026-05-02T14:17:56Z</time></trkpt><trkpt lat="45.7339298331549" lon="7.2133319898386565"><ele>1555.75</ele><time>2026-05-02T14:17:57Z</time></trkpt><trkpt lat="45.734028288995866" lon="7.213368507333703"><ele>1562.0</ele><time>2026-05-02T14:17:58Z</time></trkpt><trkpt lat="45.73415643449361" lon="7.213299605146853"><ele>1562.0</ele><time>2026-05-02T14:17:59Z</time></trkpt><trkpt lat="45.73425336569657" lon="7.213173777877066"><ele>1562.0</ele><time>2026-05-02T14:18:00Z</time></trkpt><trkpt lat="45.73435064022898" lon="7.213032871748427"><ele>1562.0</ele><time>2026-05-02T14:18:01Z</time></trkpt><trkpt lat="45.7344360909656" lon="7.212861404324553"><ele>1562.0</ele><time>2026-05-02T14:18:02Z</time></trkpt><trkpt lat="45.73451131194948" lon="7.212695492256328"><ele>1562.6</ele><time>2026-05-02T14:18:03Z</time></trkpt><trkpt lat="45.73456795310867" lon="7.212543926941968"><ele>1563.1999999999998</ele><time>2026-05-02T14:18:04Z</time></trkpt><trkpt lat="45.734650358006" lon="7.212453079311498"><ele>1563.8</ele><time>2026-05-02T14:18:05Z</time></trkpt><trkpt lat="45.73473462845257" lon="7.2124270011052785"><ele>1564.4</ele><time>2026-05-02T14:18:06Z</time></trkpt><trkpt lat="45.73483752654648" lon="7.212445322222153"><ele>1565.0</ele><time>2026-05-02T14:18:07Z</time></trkpt><trkpt lat="45.73494087298402" lon="7.212499802703121"><ele>1565.0</ele><time>2026-05-02T14:18:08Z</time></trkpt><trkpt lat="45.735058160026874" lon="7.212535168531825"><ele>1565.0</ele><time>2026-05-02T14:18:09Z</time></trkpt><trkpt lat="45.73517876057185" lon="7.212532093279336"><ele>1565.0</ele><time>2026-05-02T14:18:10Z</time></trkpt><trkpt lat="45.73528671777514" lon="7.212533706127681"><ele>1565.0</ele><time>2026-05-02T14:18:11Z</time></trkpt><trkpt lat="45.735381211661625" lon="7.2124808791394335"><ele>1572.5</ele><time>2026-05-02T14:18:12Z</time></trkpt><trkpt lat="45.735462249036374" lon="7.2123456095725205"><ele>1580.0</ele><time>2026-05-02T14:18:13Z</time></trkpt><trkpt lat="45.73547503140126" lon="7.212159935869782"><ele>1587.5</ele><time>2026-05-02T14:18:14Z</time></trkpt><trkpt lat="45.73542593498946" lon="7.211971776248029"><ele>1595.0</ele><time>2026-05-02T14:18:15Z</time></trkpt><trkpt lat="45.73538571608426" lon="7.211798092664638"><ele>1595.25</ele><time>2026-05-02T14:18:16Z</time></trkpt><trkpt lat="45.73534728660264" lon="7.2116082319074595"><ele>1595.5</ele><time>2026-05-02T14:18:17Z</time></trkpt><trkpt lat="45.73531913455212" lon="7.211418671986438"><ele>1595.75</ele><time>2026-05-02T14:18:18Z</time></trkpt><trkpt lat="45.73530181714045" lon="7.211253297390072"><ele>1596.0</ele><time>2026-05-02T14:18:19Z</time></trkpt><trkpt lat="45.73531687625448" lon="7.211087183119894"><ele>1596.0</ele><time>2026-05-02T14:18:20Z</time></trkpt><trkpt lat="45.735374155499166" lon="7.210919898574802"><ele>1596.0</ele><time>2026-05-02T14:18:21Z</time></trkpt><trkpt lat="45.73542212253281" lon="7.21074696799343"><ele>1596.0</ele><time>2026-05-02T14:18:22Z</time></trkpt><trkpt lat="45.73543020455728" lon="7.210527503508645"><ele>1596.0</ele><time>2026-05-02T14:18:23Z</time></trkpt><trkpt lat="45.735434161258674" lon="7.210321121933321"><ele>1596.0</ele><time>2026-05-02T14:18:24Z</time></trkpt><trkpt lat="45.73543251520268" lon="7.210109410508529"><ele>1596.0</ele><time>2026-05-02T14:18:25Z</time></trkpt><trkpt lat="45.735429368611214" lon="7.209891289213223"><ele>1596.0</ele><time>2026-05-02T14:18:26Z</time></trkpt><trkpt lat="45.73542569616077" lon="7.209682106752399"><ele>1596.0</ele><time>2026-05-02T14:18:27Z</time></trkpt><trkpt lat="45.73541430761118" lon="7.209479038428401"><ele>1596.25</ele><time>2026-05-02T14:18:28Z</time></trkpt><trkpt lat="45.73537675722691" lon="7.209299661299463"><ele>1596.5</ele><time>2026-05-02T14:18:29Z</time></trkpt><trkpt lat="45.73532552306809" lon="7.209114970380286"><ele>1596.75</ele><time>2026-05-02T14:18:30Z</time></trkpt><trkpt lat="45.73525801868656" lon="7.208934119879687"><ele>1597.0</ele><time>2026-05-02T14:18:31Z</time></trkpt><trkpt lat="45.735191366316585" lon="7.208760588729041"><ele>1591.0</ele><time>2026-05-02T14:18:32Z</time></trkpt><trkpt lat="45.73512849940993" lon="7.208599267994421"><ele>1585.0</ele><time>2026-05-02T14:18:33Z</time></trkpt><trkpt lat="45.73506860250836" lon="7.208449384593737"><ele>1579.0</ele><time>2026-05-02T14:18:34Z</time></trkpt><trkpt lat="45.73502175714812" lon="7.208296260436137"><ele>1573.0</ele><time>2026-05-02T14:18:35Z</time></trkpt><trkpt lat="45.73499928779555" lon="7.208134088928551"><ele>1573.0</ele><time>2026-05-02T14:18:36Z</time></trkpt><trkpt lat="45.73500313667024" lon="7.207968274626337"><ele>1573.0</ele><time>2026-05-02T14:18:37Z</time></trkpt><trkpt lat="45.7350310257088" lon="7.2078043365290405"><ele>1573.0</ele><time>2026-05-02T14:18:38Z</time></trkpt><trkpt lat="45.73506583299655" lon="7.207630740556765"><ele>1573.0</ele><time>2026-05-02T14:18:39Z</time></trkpt><trkpt lat="45.73510799087047" lon="7.20744444711235"><ele>1572.75</ele><time>2026-05-02T14:18:40Z</time></trkpt><trkpt lat="45.73514805057611" lon="7.207247109784049"><ele>1572.5</ele><time>2026-05-02T14:18:41Z</time></trkpt><trkpt lat="45.735182056075196" lon="7.207058071161339"><ele>1572.25</ele><time>2026-05-02T14:18:42Z</time></trkpt><trkpt lat="45.73521679537312" lon="7.206880247170278"><ele>1572.0</ele><time>2026-05-02T14:18:43Z</time></trkpt><trkpt lat="45.735270879475465" lon="7.206712435826429"><ele>1578.0</ele><time>2026-05-02T14:18:44Z</time></trkpt><trkpt lat="45.73534193510213" lon="7.206539587941916"><ele>1584.0</ele><time>2026-05-02T14:18:45Z</time></trkpt><trkpt lat="45.73542409842414" lon="7.206365139709136"><ele>1590.0</ele><time>2026-05-02T14:18:46Z</time></trkpt><trkpt lat="45.735503704256686" lon="7.206182798644411"><ele>1596.0</ele><time>2026-05-02T14:18:47Z</time></trkpt><trkpt lat="45.735575430502244" lon="7.205978445448535"><ele>1596.0</ele><time>2026-05-02T14:18:48Z</time></trkpt><trkpt lat="45.73562805895523" lon="7.205772954258285"><ele>1596.0</ele><time>2026-05-02T14:18:49Z</time></trkpt><trkpt lat="45.73566554444096" lon="7.205572676377071"><ele>1596.0</ele><time>2026-05-02T14:18:50Z</time></trkpt><trkpt lat="45.73569029587698" lon="7.2053814322747565"><ele>1596.0</ele><time>2026-05-02T14:18:51Z</time></trkpt><trkpt lat="45.73570358647425" lon="7.205204557360362"><ele>1595.6</ele><time>2026-05-02T14:18:52Z</time></trkpt><trkpt lat="45.735700669217074" lon="7.205036816560569"><ele>1595.1999999999998</ele><time>2026-05-02T14:18:53Z</time></trkpt><trkpt lat="45.73567713047671" lon="7.204887926562281"><ele>1594.8000000000002</ele><time>2026-05-02T14:18:54Z</time></trkpt><trkpt lat="45.73563117655845" lon="7.204756657188629"><ele>1594.4</ele><time>2026-05-02T14:18:55Z</time></trkpt><trkpt lat="45.735563236383065" lon="7.204665595640519"><ele>1594.0</ele><time>2026-05-02T14:18:56Z</time></trkpt><trkpt lat="45.73549798406061" lon="7.204620140462314"><ele>1594.0000000000002</ele><time>2026-05-02T14:18:57Z</time></trkpt><trkpt lat="45.73543059217652" lon="7.2045939219696455"><ele>1594.0</ele><time>2026-05-02T14:18:58Z</time></trkpt><trkpt lat="45.73535524666229" lon="7.204621827873033"><ele>1594.0</ele><time>2026-05-02T14:18:59Z</time></trkpt><trkpt lat="45.73529724283919" lon="7.204712381869374"><ele>1594.0</ele><time>2026-05-02T14:19:00Z</time></trkpt><trkpt lat="45.73525928967579" lon="7.204838266675117"><ele>1594.0000000000002</ele><time>2026-05-02T14:19:01Z</time></trkpt><trkpt lat="45.73519502913181" lon="7.204929928315274"><ele>1594.0</ele><time>2026-05-02T14:19:02Z</time></trkpt><trkpt lat="45.73512503227486" lon="7.205061276218306"><ele>1596.75</ele><time>2026-05-02T14:19:03Z</time></trkpt><trkpt lat="45.73504764101869" lon="7.205198224646062"><ele>1599.5</ele><time>2026-05-02T14:19:04Z</time></trkpt><trkpt lat="45.73496479314461" lon="7.20532676199538"><ele>1602.25</ele><time>2026-05-02T14:19:05Z</time></trkpt><trkpt lat="45.7348776694249" lon="7.205444516449365"><ele>1605.0</ele><time>2026-05-02T14:19:06Z</time></trkpt><trkpt lat="45.734754241768655" lon="7.205511540174305"><ele>1605.0</ele><time>2026-05-02T14:19:07Z</time></trkpt><trkpt lat="45.73462257305243" lon="7.20557140727874"><ele>1605.0</ele><time>2026-05-02T14:19:08Z</time></trkpt><trkpt lat="45.73447885953203" lon="7.205633465377096"><ele>1605.0</ele><time>2026-05-02T14:19:09Z</time></trkpt><trkpt lat="45.734333921615935" lon="7.205700873369393"><ele>1605.0</ele><time>2026-05-02T14:19:10Z</time></trkpt><trkpt lat="45.734178199753124" lon="7.205753876185865"><ele>1603.0</ele><time>2026-05-02T14:19:11Z</time></trkpt><trkpt lat="45.73402311215659" lon="7.20585039317772"><ele>1601.0</ele><time>2026-05-02T14:19:12Z</time></trkpt><trkpt lat="45.73387742278284" lon="7.2059876315735565"><ele>1599.0</ele><time>2026-05-02T14:19:13Z</time></trkpt><trkpt lat="45.733736476955734" lon="7.206140467305788"><ele>1599.0</ele><time>2026-05-02T14:19:14Z</time></trkpt><trkpt lat="45.73359959782511" lon="7.2062851009779605"><ele>1599.0</ele><time>2026-05-02T14:19:15Z</time></trkpt><trkpt lat="45.7334775636123" lon="7.206425623697222"><ele>1599.0</ele><time>2026-05-02T14:19:16Z</time></trkpt><trkpt lat="45.733379702579505" lon="7.2065798700267"><ele>1598.25</ele><time>2026-05-02T14:19:17Z</time></trkpt><trkpt lat="45.733294753523325" lon="7.20676331108342"><ele>1597.5</ele><time>2026-05-02T14:19:18Z</time></trkpt><trkpt lat="45.73317586701739" lon="7.206880255481775"><ele>1596.75</ele><time>2026-05-02T14:19:19Z</time></trkpt><trkpt lat="45.73306190396295" lon="7.20702202441957"><ele>1596.0</ele><time>2026-05-02T14:19:20Z</time></trkpt><trkpt lat="45.73300287677894" lon="7.207206257524217"><ele>1596.0</ele><time>2026-05-02T14:19:21Z</time></trkpt><trkpt lat="45.73292490760945" lon="7.207397767389391"><ele>1596.0</ele><time>2026-05-02T14:19:22Z</time></trkpt><trkpt lat="45.73284854014211" lon="7.2075684765259025"><ele>1596.0</ele><time>2026-05-02T14:19:23Z</time></trkpt><trkpt lat="45.73275131459958" lon="7.207686045158322"><ele>1596.0</ele><time>2026-05-02T14:19:24Z</time></trkpt><trkpt lat="45.73265755553322" lon="7.207826392148598"><ele>1596.0</ele><time>2026-05-02T14:19:25Z</time></trkpt><trkpt lat="45.73254536776971" lon="7.20790384173048"><ele>1596.0</ele><time>2026-05-02T14:19:26Z</time></trkpt><trkpt lat="45.732464637386606" lon="7.208003833104436"><ele>1596.0</ele><time>2026-05-02T14:19:27Z</time></trkpt><trkpt lat="45.73238469605584" lon="7.208107796151584"><ele>1596.0</ele><time>2026-05-02T14:19:28Z</time></trkpt><trkpt lat="45.73228880044776" lon="7.208176811730202"><ele>1596.0</ele><time>2026-05-02T14:19:29Z</time></trkpt><trkpt lat="45.73218480859892" lon="7.20819542211004"><ele>1596.0</ele><time>2026-05-02T14:19:30Z</time></trkpt><trkpt lat="45.7320638528545" lon="7.2081558591554575"><ele>1596.0</ele><time>2026-05-02T14:19:31Z</time></trkpt><trkpt lat="45.7319344600708" lon="7.20811266163607"><ele>1596.0</ele><time>2026-05-02T14:19:32Z</time></trkpt><trkpt lat="45.731793733059405" lon="7.208114506003187"><ele>1596.0</ele><time>2026-05-02T14:19:33Z</time></trkpt><trkpt lat="45.73164228046503" lon="7.208134281326664"><ele>1593.75</ele><time>2026-05-02T14:19:34Z</time></trkpt><trkpt lat="45.73149925112907" lon="7.208156329065427"><ele>1591.5</ele><time>2026-05-02T14:19:35Z</time></trkpt><trkpt lat="45.731376671866066" lon="7.2081269501909295"><ele>1589.25</ele><time>2026-05-02T14:19:36Z</time></trkpt><trkpt lat="45.73125146450323" lon="7.208130964032009"><ele>1587.0</ele><time>2026-05-02T14:19:37Z</time></trkpt><trkpt lat="45.7311369497666" lon="7.208158050561674"><ele>1581.5</ele><time>2026-05-02T14:19:38Z</time></trkpt><trkpt lat="45.73103523898553" lon="7.208168008662999"><ele>1576.0</ele><time>2026-05-02T14:19:39Z</time></trkpt><trkpt lat="45.73096358636898" lon="7.2081847300257955"><ele>1570.5</ele><time>2026-05-02T14:19:40Z</time></trkpt><trkpt lat="45.73090686418755" lon="7.208128708726058"><ele>1565.0</ele><time>2026-05-02T14:19:41Z</time></trkpt><trkpt lat="45.730924319022364" lon="7.207993569270191"><ele>1559.5</ele><time>2026-05-02T14:19:42Z</time></trkpt><trkpt lat="45.73094348658166" lon="7.207878229132333"><ele>1554.0</ele><time>2026-05-02T14:19:43Z</time></trkpt><trkpt lat="45.730970317303814" lon="7.207723389769462"><ele>1553.25</ele><time>2026-05-02T14:19:44Z</time></trkpt><trkpt lat="45.73098374257369" lon="7.207549945992397"><ele>1552.5</ele><time>2026-05-02T14:19:45Z</time></trkpt><trkpt lat="45.7310072656111" lon="7.20736124899439"><ele>1551.75</ele><time>2026-05-02T14:19:46Z</time></trkpt><trkpt lat="45.73104927277886" lon="7.2071694921685125"><ele>1551.0</ele><time>2026-05-02T14:19:47Z</time></trkpt><trkpt lat="45.7311155805603" lon="7.20698876233227"><ele>1553.5</ele><time>2026-05-02T14:19:48Z</time></trkpt><trkpt lat="45.73118788650302" lon="7.206798399233138"><ele>1556.0</ele><time>2026-05-02T14:19:49Z</time></trkpt><trkpt lat="45.731259344196985" lon="7.206624085360417"><ele>1558.5</ele><time>2026-05-02T14:19:50Z</time></trkpt><trkpt lat="45.731319134842316" lon="7.2064498910059385"><ele>1561.0</ele><time>2026-05-02T14:19:51Z</time></trkpt><trkpt lat="45.731367725994204" lon="7.206271223515977"><ele>1561.0</ele><time>2026-05-02T14:19:52Z</time></trkpt><trkpt lat="45.7314094582347" lon="7.206094092814605"><ele>1561.0</ele><time>2026-05-02T14:19:53Z</time></trkpt><trkpt lat="45.73145522159805" lon="7.2059233026886504"><ele>1561.0</ele><time>2026-05-02T14:19:54Z</time></trkpt><trkpt lat="45.73151916066981" lon="7.205770094751829"><ele>1561.0</ele><time>2026-05-02T14:19:55Z</time></trkpt><trkpt lat="45.7316009909478" lon="7.205617145932674"><ele>1556.25</ele><time>2026-05-02T14:19:56Z</time></trkpt><trkpt lat="45.73167205428935" lon="7.20546505687123"><ele>1551.5</ele><time>2026-05-02T14:19:57Z</time></trkpt><trkpt lat="45.73176296349311" lon="7.205317090880146"><ele>1546.75</ele><time>2026-05-02T14:19:58Z</time></trkpt><trkpt lat="45.73180648149558" lon="7.205131100884965"><ele>1542.0</ele><time>2026-05-02T14:19:59Z</time></trkpt><trkpt lat="45.73185655164668" lon="7.204944789210816"><ele>1548.0</ele><time>2026-05-02T14:20:00Z</time></trkpt><trkpt lat="45.73193064439838" lon="7.204758905765346"><ele>1554.0</ele><time>2026-05-02T14:20:01Z</time></trkpt><trkpt lat="45.73198280432426" lon="7.204564327117427"><ele>1560.0</ele><time>2026-05-02T14:20:02Z</time></trkpt><trkpt lat="45.73202761167454" lon="7.204388228172666"><ele>1566.0</ele><time>2026-05-02T14:20:03Z</time></trkpt><trkpt lat="45.73207354643299" lon="7.204213258597135"><ele>1566.0</ele><time>2026-05-02T14:20:04Z</time></trkpt><trkpt lat="45.73212616918602" lon="7.204045855033381"><ele>1566.0</ele><time>2026-05-02T14:20:05Z</time></trkpt><trkpt lat="45.73219114953264" lon="7.203900719344695"><ele>1566.0</ele><time>2026-05-02T14:20:06Z</time></trkpt><trkpt lat="45.732271595280814" lon="7.203764262779997"><ele>1566.0</ele><time>2026-05-02T14:20:07Z</time></trkpt><trkpt lat="45.73236445521997" lon="7.203650809360117"><ele>1559.75</ele><time>2026-05-02T14:20:08Z</time></trkpt><trkpt lat="45.73245291636011" lon="7.203522269958771"><ele>1553.5</ele><time>2026-05-02T14:20:09Z</time></trkpt><trkpt lat="45.7325254297655" lon="7.203381218354189"><ele>1547.25</ele><time>2026-05-02T14:20:10Z</time></trkpt><trkpt lat="45.732572157647944" lon="7.203214952021498"><ele>1541.0</ele><time>2026-05-02T14:20:11Z</time></trkpt><trkpt lat="45.732605273487735" lon="7.203011266918322"><ele>1539.0</ele><time>2026-05-02T14:20:12Z</time></trkpt><trkpt lat="45.73263299472933" lon="7.2028073971243165"><ele>1537.0</ele><time>2026-05-02T14:20:13Z</time></trkpt><trkpt lat="45.732650633328724" lon="7.202617785376298"><ele>1535.0</ele><time>2026-05-02T14:20:14Z</time></trkpt><trkpt lat="45.7326755768696" lon="7.202433568557777"><ele>1533.0</ele><time>2026-05-02T14:20:15Z</time></trkpt><trkpt lat="45.732697401595786" lon="7.202257288011569"><ele>1539.5</ele><time>2026-05-02T14:20:16Z</time></trkpt><trkpt lat="45.73273004635466" lon="7.202087354650284"><ele>1546.0</ele><time>2026-05-02T14:20:17Z</time></trkpt><trkpt lat="45.73277748708462" lon="7.20191685133392"><ele>1552.5</ele><time>2026-05-02T14:20:18Z</time></trkpt><trkpt lat="45.73283368161154" lon="7.2017575908568245"><ele>1559.0</ele><time>2026-05-02T14:20:19Z</time></trkpt><trkpt lat="45.73287753695652" lon="7.2016152883435804"><ele>1559.0</ele><time>2026-05-02T14:20:20Z</time></trkpt><trkpt lat="45.732921607204695" lon="7.201500570329165"><ele>1559.0</ele><time>2026-05-02T14:20:21Z</time></trkpt><trkpt lat="45.732920728342414" lon="7.2013493244889375"><ele>1559.0</ele><time>2026-05-02T14:20:22Z</time></trkpt><trkpt lat="45.73285927264378" lon="7.201237492356893"><ele>1559.0</ele><time>2026-05-02T14:20:23Z</time></trkpt><trkpt lat="45.73278415724656" lon="7.201194017758371"><ele>1559.0</ele><time>2026-05-02T14:20:24Z</time></trkpt><trkpt lat="45.7326974127978" lon="7.201182885233115"><ele>1558.75</ele><time>2026-05-02T14:20:25Z</time></trkpt><trkpt lat="45.73260068224946" lon="7.201198657251732"><ele>1558.5</ele><time>2026-05-02T14:20:26Z</time></trkpt><trkpt lat="45.73248413130175" lon="7.201233838837373"><ele>1558.25</ele><time>2026-05-02T14:20:27Z</time></trkpt><trkpt lat="45.732373746681" lon="7.201306837924467"><ele>1558.0</ele><time>2026-05-02T14:20:28Z</time></trkpt><trkpt lat="45.7322406682191" lon="7.201405033526599"><ele>1553.75</ele><time>2026-05-02T14:20:29Z</time></trkpt><trkpt lat="45.732115209721705" lon="7.201502899883682"><ele>1549.5</ele><time>2026-05-02T14:20:30Z</time></trkpt><trkpt lat="45.73198700734723" lon="7.201597424439091"><ele>1545.25</ele><time>2026-05-02T14:20:31Z</time></trkpt><trkpt lat="45.731861957997985" lon="7.201684860430491"><ele>1541.0</ele><time>2026-05-02T14:20:32Z</time></trkpt><trkpt lat="45.73173450552602" lon="7.201742184866087"><ele>1541.0</ele><time>2026-05-02T14:20:33Z</time></trkpt><trkpt lat="45.7316083417616" lon="7.2018171220468306"><ele>1541.0</ele><time>2026-05-02T14:20:34Z</time></trkpt><trkpt lat="45.73148387934364" lon="7.201852300273835"><ele>1541.0</ele><time>2026-05-02T14:20:35Z</time></trkpt><trkpt lat="45.73136419221453" lon="7.201906268588476"><ele>1541.0</ele><time>2026-05-02T14:20:36Z</time></trkpt><trkpt lat="45.731257193115326" lon="7.2019189081516855"><ele>1541.0</ele><time>2026-05-02T14:20:37Z</time></trkpt><trkpt lat="45.731152351792225" lon="7.201959418063945"><ele>1541.0</ele><time>2026-05-02T14:20:38Z</time></trkpt><trkpt lat="45.731050924394395" lon="7.201974087944998"><ele>1541.0</ele><time>2026-05-02T14:20:39Z</time></trkpt><trkpt lat="45.73094959981337" lon="7.2019689053435325"><ele>1541.0</ele><time>2026-05-02T14:20:40Z</time></trkpt><trkpt lat="45.73083326956543" lon="7.201909352619057"><ele>1541.0</ele><time>2026-05-02T14:20:41Z</time></trkpt><trkpt lat="45.730707513782434" lon="7.201802397313679"><ele>1539.5</ele><time>2026-05-02T14:20:42Z</time></trkpt><trkpt lat="45.73059130766822" lon="7.201700249256179"><ele>1538.0</ele><time>2026-05-02T14:20:43Z</time></trkpt><trkpt lat="45.730481084075755" lon="7.2016068295235645"><ele>1536.5</ele><time>2026-05-02T14:20:44Z</time></trkpt><trkpt lat="45.730376173472614" lon="7.20150392491199"><ele>1535.0</ele><time>2026-05-02T14:20:45Z</time></trkpt><trkpt lat="45.7302499274531" lon="7.2014415543594845"><ele>1534.75</ele><time>2026-05-02T14:20:46Z</time></trkpt><trkpt lat="45.7301155506365" lon="7.201391729868922"><ele>1534.5</ele><time>2026-05-02T14:20:47Z</time></trkpt><trkpt lat="45.72998501023709" lon="7.201372454028087"><ele>1534.25</ele><time>2026-05-02T14:20:48Z</time></trkpt><trkpt lat="45.72985175310844" lon="7.201388000406884"><ele>1534.0</ele><time>2026-05-02T14:20:49Z</time></trkpt><trkpt lat="45.72971776435739" lon="7.201408530653065"><ele>1534.0</ele><time>2026-05-02T14:20:50Z</time></trkpt><trkpt lat="45.729582906836484" lon="7.201433646947568"><ele>1534.0</ele><time>2026-05-02T14:20:51Z</time></trkpt><trkpt lat="45.72944419979731" lon="7.2014533496289745"><ele>1534.0</ele><time>2026-05-02T14:20:52Z</time></trkpt><trkpt lat="45.72930661987847" lon="7.201447521575488"><ele>1534.0</ele><time>2026-05-02T14:20:53Z</time></trkpt><trkpt lat="45.72917124773828" lon="7.201416423451296"><ele>1532.0</ele><time>2026-05-02T14:20:54Z</time></trkpt><trkpt lat="45.7290371241798" lon="7.201344630724088"><ele>1530.0</ele><time>2026-05-02T14:20:55Z</time></trkpt><trkpt lat="45.7289136786798" lon="7.20125045368322"><ele>1528.0</ele><time>2026-05-02T14:20:56Z</time></trkpt><trkpt lat="45.72877950100692" lon="7.201157995359446"><ele>1526.0</ele><time>2026-05-02T14:20:57Z</time></trkpt><trkpt lat="45.728646516685565" lon="7.201050688753744"><ele>1522.6666666666667</ele><time>2026-05-02T14:20:58Z</time></trkpt><trkpt lat="45.72852041283444" lon="7.200908549875285"><ele>1519.3333333333333</ele><time>2026-05-02T14:20:59Z</time></trkpt><trkpt lat="45.72837697656214" lon="7.200743749587354"><ele>1516.0</ele><time>2026-05-02T14:21:00Z</time></trkpt><trkpt lat="45.72822685215562" lon="7.200583405439031"><ele>1516.0</ele><time>2026-05-02T14:21:01Z</time></trkpt><trkpt lat="45.72809487897847" lon="7.200435850293695"><ele>1516.0</ele><time>2026-05-02T14:21:02Z</time></trkpt><trkpt lat="45.727978283038816" lon="7.2003053517533075"><ele>1516.0</ele><time>2026-05-02T14:21:03Z</time></trkpt><trkpt lat="45.72791141687235" lon="7.200194528408436"><ele>1516.0</ele><time>2026-05-02T14:21:04Z</time></trkpt><trkpt lat="45.72785422038934" lon="7.2001145604491406"><ele>1516.0</ele><time>2026-05-02T14:21:05Z</time></trkpt><trkpt lat="45.727696008068236" lon="7.200126135919708"><ele>1516.0</ele><time>2026-05-02T14:21:07Z</time></trkpt><trkpt lat="45.727687734077875" lon="7.200315030881255"><ele>1516.0</ele><time>2026-05-02T14:21:08Z</time></trkpt><trkpt lat="45.727744452121236" lon="7.200475879397362"><ele>1516.0</ele><time>2026-05-02T14:21:09Z</time></trkpt><trkpt lat="45.72782281855956" lon="7.200634008772499"><ele>1512.0</ele><time>2026-05-02T14:21:10Z</time></trkpt><trkpt lat="45.72790573016337" lon="7.200869754678467"><ele>1508.0</ele><time>2026-05-02T14:21:11Z</time></trkpt><trkpt lat="45.72801759101198" lon="7.201127406322977"><ele>1504.0</ele><time>2026-05-02T14:21:12Z</time></trkpt><trkpt lat="45.72807551537864" lon="7.20146199410384"><ele>1499.6666666666665</ele><time>2026-05-02T14:21:13Z</time></trkpt><trkpt lat="45.72813174506964" lon="7.201801309440067"><ele>1495.3333333333333</ele><time>2026-05-02T14:21:14Z</time></trkpt><trkpt lat="45.7281821348006" lon="7.20205092690883"><ele>1491.0</ele><time>2026-05-02T14:21:15Z</time></trkpt><trkpt lat="45.728210321563914" lon="7.2022895061925905"><ele>1487.0</ele><time>2026-05-02T14:21:16Z</time></trkpt><trkpt lat="45.728269603304014" lon="7.202485091431464"><ele>1483.0</ele><time>2026-05-02T14:21:17Z</time></trkpt><trkpt lat="45.72834215626763" lon="7.202696029328838"><ele>1479.0</ele><time>2026-05-02T14:21:18Z</time></trkpt><trkpt lat="45.72841830763728" lon="7.202879991644842"><ele>1479.0</ele><time>2026-05-02T14:21:19Z</time></trkpt><trkpt lat="45.72849762139818" lon="7.203025140133372"><ele>1479.0</ele><time>2026-05-02T14:21:20Z</time></trkpt><trkpt lat="45.72857819315031" lon="7.203126614189389"><ele>1479.0</ele><time>2026-05-02T14:21:21Z</time></trkpt><trkpt lat="45.72865670085752" lon="7.203194617113316"><ele>1479.0</ele><time>2026-05-02T14:21:22Z</time></trkpt><trkpt lat="45.72870564671017" lon="7.2032674255872156"><ele>1479.0</ele><time>2026-05-02T14:21:23Z</time></trkpt><trkpt lat="45.7286738693681" lon="7.203389475295542"><ele>1479.0</ele><time>2026-05-02T14:21:25Z</time></trkpt><trkpt lat="45.72855781193776" lon="7.20330547861935"><ele>1479.0</ele><time>2026-05-02T14:21:27Z</time></trkpt><trkpt lat="45.72848115558119" lon="7.203193296687079"><ele>1479.0</ele><time>2026-05-02T14:21:28Z</time></trkpt><trkpt lat="45.72838594381917" lon="7.203081544151479"><ele>1479.0</ele><time>2026-05-02T14:21:29Z</time></trkpt><trkpt lat="45.72826740048799" lon="7.202964812116759"><ele>1479.0</ele><time>2026-05-02T14:21:30Z</time></trkpt><trkpt lat="45.72813484222043" lon="7.202866666349872"><ele>1479.0</ele><time>2026-05-02T14:21:31Z</time></trkpt><trkpt lat="45.72801464633454" lon="7.202765219395856"><ele>1479.0</ele><time>2026-05-02T14:21:32Z</time></trkpt><trkpt lat="45.72789412249515" lon="7.202695849502645"><ele>1479.0</ele><time>2026-05-02T14:21:33Z</time></trkpt><trkpt lat="45.72777207438102" lon="7.202642105813305"><ele>1474.8000000000002</ele><time>2026-05-02T14:21:34Z</time></trkpt><trkpt lat="45.727654061426755" lon="7.202610680942734"><ele>1470.6000000000001</ele><time>2026-05-02T14:21:35Z</time></trkpt><trkpt lat="45.72753702045111" lon="7.202605825366922"><ele>1466.4</ele><time>2026-05-02T14:21:36Z</time></trkpt><trkpt lat="45.72743607355067" lon="7.20255020701808"><ele>1462.2</ele><time>2026-05-02T14:21:37Z</time></trkpt><trkpt lat="45.727356487300455" lon="7.202457298144947"><ele>1458.0</ele><time>2026-05-02T14:21:38Z</time></trkpt><trkpt lat="45.72728529463976" lon="7.202334534819761"><ele>1461.25</ele><time>2026-05-02T14:21:39Z</time></trkpt><trkpt lat="45.72721641161667" lon="7.2021950495934774"><ele>1464.5</ele><time>2026-05-02T14:21:40Z</time></trkpt><trkpt lat="45.727138809629416" lon="7.202054009534957"><ele>1467.75</ele><time>2026-05-02T14:21:41Z</time></trkpt><trkpt lat="45.727065191266355" lon="7.201900625233299"><ele>1471.0</ele><time>2026-05-02T14:21:42Z</time></trkpt><trkpt lat="45.726972225168545" lon="7.201779236585662"><ele>1471.0</ele><time>2026-05-02T14:21:43Z</time></trkpt><trkpt lat="45.72690366933359" lon="7.201648984841182"><ele>1471.0</ele><time>2026-05-02T14:21:44Z</time></trkpt><trkpt lat="45.72683112879623" lon="7.201514572095559"><ele>1471.0</ele><time>2026-05-02T14:21:45Z</time></trkpt><trkpt lat="45.72678157167292" lon="7.2013651809611225"><ele>1471.0</ele><time>2026-05-02T14:21:46Z</time></trkpt><trkpt lat="45.72675392514358" lon="7.201194959991204"><ele>1465.5</ele><time>2026-05-02T14:21:47Z</time></trkpt><trkpt lat="45.7267287240073" lon="7.201008818644195"><ele>1460.0</ele><time>2026-05-02T14:21:48Z</time></trkpt><trkpt lat="45.726688666988295" lon="7.2008113019606546"><ele>1454.5</ele><time>2026-05-02T14:21:49Z</time></trkpt><trkpt lat="45.726626313589435" lon="7.200598143424606"><ele>1449.0</ele><time>2026-05-02T14:21:50Z</time></trkpt><trkpt lat="45.72655907991861" lon="7.200378130133642"><ele>1449.0</ele><time>2026-05-02T14:21:51Z</time></trkpt><trkpt lat="45.7265092889485" lon="7.200163316674088"><ele>1449.0</ele><time>2026-05-02T14:21:52Z</time></trkpt><trkpt lat="45.72647360100075" lon="7.199953246906706"><ele>1449.0</ele><time>2026-05-02T14:21:53Z</time></trkpt><trkpt lat="45.72643569655713" lon="7.19975167667647"><ele>1451.25</ele><time>2026-05-02T14:21:54Z</time></trkpt><trkpt lat="45.72637808136428" lon="7.199553416410462"><ele>1453.5</ele><time>2026-05-02T14:21:55Z</time></trkpt><trkpt lat="45.7263037801073" lon="7.199362626722786"><ele>1455.75</ele><time>2026-05-02T14:21:56Z</time></trkpt><trkpt lat="45.72622310332816" lon="7.1991877230993815"><ele>1458.0</ele><time>2026-05-02T14:21:57Z</time></trkpt><trkpt lat="45.726142921645554" lon="7.199026613559087"><ele>1459.25</ele><time>2026-05-02T14:21:58Z</time></trkpt><trkpt lat="45.72606850544881" lon="7.198861281114667"><ele>1460.5</ele><time>2026-05-02T14:21:59Z</time></trkpt><trkpt lat="45.725997839699396" lon="7.198701533998283"><ele>1461.75</ele><time>2026-05-02T14:22:00Z</time></trkpt><trkpt lat="45.72594723073235" lon="7.1985473433907305"><ele>1463.0</ele><time>2026-05-02T14:22:01Z</time></trkpt><trkpt lat="45.72593665444789" lon="7.198394862169413"><ele>1463.6000000000001</ele><time>2026-05-02T14:22:02Z</time></trkpt><trkpt lat="45.72596887199803" lon="7.198226419595019"><ele>1464.2</ele><time>2026-05-02T14:22:03Z</time></trkpt><trkpt lat="45.726033193796056" lon="7.198091905569517"><ele>1464.8</ele><time>2026-05-02T14:22:04Z</time></trkpt><trkpt lat="45.7260906023584" lon="7.197993498844454"><ele>1465.4</ele><time>2026-05-02T14:22:05Z</time></trkpt><trkpt lat="45.72613616963796" lon="7.197905841882137"><ele>1466.0</ele><time>2026-05-02T14:22:06Z</time></trkpt><trkpt lat="45.726154651202314" lon="7.197818006903891"><ele>1466.0</ele><time>2026-05-02T14:22:07Z</time></trkpt><trkpt lat="45.72612890553769" lon="7.197643953424092"><ele>1466.0</ele><time>2026-05-02T14:22:09Z</time></trkpt><trkpt lat="45.7260224098904" lon="7.197547660115023"><ele>1466.0</ele><time>2026-05-02T14:22:11Z</time></trkpt><trkpt lat="45.72590498121632" lon="7.197525282434375"><ele>1466.0</ele><time>2026-05-02T14:22:13Z</time></trkpt><trkpt lat="45.72584586116707" lon="7.197564886283048"><ele>1466.0</ele><time>2026-05-02T14:22:14Z</time></trkpt><trkpt lat="45.72577804492611" lon="7.1975828148585315"><ele>1463.3333333333335</ele><time>2026-05-02T14:22:15Z</time></trkpt><trkpt lat="45.72571007197739" lon="7.197603673696451"><ele>1460.6666666666667</ele><time>2026-05-02T14:22:16Z</time></trkpt><trkpt lat="45.725643440778775" lon="7.197584397580953"><ele>1458.0</ele><time>2026-05-02T14:22:17Z</time></trkpt><trkpt lat="45.72559255375635" lon="7.197509899364789"><ele>1455.3333333333333</ele><time>2026-05-02T14:22:18Z</time></trkpt><trkpt lat="45.725556019107586" lon="7.197377317949606"><ele>1452.6666666666665</ele><time>2026-05-02T14:22:19Z</time></trkpt><trkpt lat="45.72552363235956" lon="7.19720050530273"><ele>1450.0</ele><time>2026-05-02T14:22:20Z</time></trkpt><trkpt lat="45.72548812244794" lon="7.197018328375191"><ele>1450.0</ele><time>2026-05-02T14:22:21Z</time></trkpt><trkpt lat="45.72543887193694" lon="7.19684380962203"><ele>1450.0</ele><time>2026-05-02T14:22:22Z</time></trkpt><trkpt lat="45.72538491482033" lon="7.196656796460049"><ele>1450.0</ele><time>2026-05-02T14:22:23Z</time></trkpt><trkpt lat="45.725330455275504" lon="7.1964452687755065"><ele>1450.0</ele><time>2026-05-02T14:22:24Z</time></trkpt><trkpt lat="45.72523355872158" lon="7.196263949726334"><ele>1450.0</ele><time>2026-05-02T14:22:25Z</time></trkpt><trkpt lat="45.72516284402465" lon="7.196054607439135"><ele>1450.0</ele><time>2026-05-02T14:22:26Z</time></trkpt><trkpt lat="45.72511137812539" lon="7.195858127913155"><ele>1450.0</ele><time>2026-05-02T14:22:27Z</time></trkpt><trkpt lat="45.725070444028184" lon="7.195690572107847"><ele>1450.0</ele><time>2026-05-02T14:22:28Z</time></trkpt><trkpt lat="45.725030911769785" lon="7.19555555089962"><ele>1450.0</ele><time>2026-05-02T14:22:29Z</time></trkpt><trkpt lat="45.72498503576378" lon="7.195449107717566"><ele>1450.0</ele><time>2026-05-02T14:22:30Z</time></trkpt><trkpt lat="45.72494395394893" lon="7.195362635587752"><ele>1450.0</ele><time>2026-05-02T14:22:31Z</time></trkpt><trkpt lat="45.72489698768794" lon="7.19528591408733"><ele>1450.0</ele><time>2026-05-02T14:22:32Z</time></trkpt><trkpt lat="45.72484115360904" lon="7.19521621628058"><ele>1450.0</ele><time>2026-05-02T14:22:33Z</time></trkpt><trkpt lat="45.724781536912346" lon="7.195152320103342"><ele>1450.0</ele><time>2026-05-02T14:22:34Z</time></trkpt><trkpt lat="45.72472396776578" lon="7.195092981157246"><ele>1450.0</ele><time>2026-05-02T14:22:35Z</time></trkpt><trkpt lat="45.72467345787585" lon="7.195027006858408"><ele>1450.0</ele><time>2026-05-02T14:22:36Z</time></trkpt><trkpt lat="45.72462003499675" lon="7.194959780903521"><ele>1450.0</ele><time>2026-05-02T14:22:37Z</time></trkpt><trkpt lat="45.72458066336602" lon="7.194857609514036"><ele>1450.0</ele><time>2026-05-02T14:22:38Z</time></trkpt><trkpt lat="45.72453570754758" lon="7.19475841172784"><ele>1450.0</ele><time>2026-05-02T14:22:39Z</time></trkpt><trkpt lat="45.72446911702374" lon="7.1946709808372065"><ele>1450.0</ele><time>2026-05-02T14:22:40Z</time></trkpt><trkpt lat="45.72441413674277" lon="7.1945682923758465"><ele>1448.8333333333333</ele><time>2026-05-02T14:22:41Z</time></trkpt><trkpt lat="45.72435017357704" lon="7.194470207734413"><ele>1447.6666666666665</ele><time>2026-05-02T14:22:42Z</time></trkpt><trkpt lat="45.72428163558285" lon="7.194380549508486"><ele>1446.5</ele><time>2026-05-02T14:22:43Z</time></trkpt><trkpt lat="45.72421513079623" lon="7.194294742103479"><ele>1445.3333333333333</ele><time>2026-05-02T14:22:44Z</time></trkpt><trkpt lat="45.72415298156083" lon="7.194213511724617"><ele>1444.1666666666667</ele><time>2026-05-02T14:22:45Z</time></trkpt><trkpt lat="45.724087766263715" lon="7.194161285802744"><ele>1443.0</ele><time>2026-05-02T14:22:46Z</time></trkpt><trkpt lat="45.72402130034859" lon="7.194133996466554"><ele>1443.0</ele><time>2026-05-02T14:22:47Z</time></trkpt><trkpt lat="45.72394883748825" lon="7.194192708990011"><ele>1443.0</ele><time>2026-05-02T14:22:48Z</time></trkpt><trkpt lat="45.72390225283922" lon="7.194310080505049"><ele>1443.0</ele><time>2026-05-02T14:22:49Z</time></trkpt><trkpt lat="45.7238256669787" lon="7.194387366087058"><ele>1443.0</ele><time>2026-05-02T14:22:50Z</time></trkpt><trkpt lat="45.72375360028787" lon="7.194478427593985"><ele>1443.0</ele><time>2026-05-02T14:22:51Z</time></trkpt><trkpt lat="45.72365283744206" lon="7.194512450677123"><ele>1440.4</ele><time>2026-05-02T14:22:52Z</time></trkpt><trkpt lat="45.72355428333199" lon="7.194500310646397"><ele>1437.8000000000002</ele><time>2026-05-02T14:22:53Z</time></trkpt><trkpt lat="45.72346505457517" lon="7.194450153497181"><ele>1435.2</ele><time>2026-05-02T14:22:54Z</time></trkpt><trkpt lat="45.723388456267564" lon="7.194356193404418"><ele>1432.6</ele><time>2026-05-02T14:22:55Z</time></trkpt><trkpt lat="45.72332407981221" lon="7.19422574792519"><ele>1430.0</ele><time>2026-05-02T14:22:56Z</time></trkpt><trkpt lat="45.72325228451066" lon="7.194057227303369"><ele>1430.6666666666667</ele><time>2026-05-02T14:22:57Z</time></trkpt><trkpt lat="45.723166921688104" lon="7.193864307835128"><ele>1431.3333333333333</ele><time>2026-05-02T14:22:58Z</time></trkpt><trkpt lat="45.72307303191185" lon="7.193649356861505"><ele>1432.0</ele><time>2026-05-02T14:22:59Z</time></trkpt><trkpt lat="45.72298152281192" lon="7.193436230823474"><ele>1432.0</ele><time>2026-05-02T14:23:00Z</time></trkpt><trkpt lat="45.722905965297066" lon="7.193214844541131"><ele>1432.0</ele><time>2026-05-02T14:23:01Z</time></trkpt><trkpt lat="45.72284708512522" lon="7.192986870911281"><ele>1432.0</ele><time>2026-05-02T14:23:02Z</time></trkpt><trkpt lat="45.72280170526474" lon="7.192743749768047"><ele>1432.6666666666665</ele><time>2026-05-02T14:23:03Z</time></trkpt><trkpt lat="45.7227652797643" lon="7.192497931418063"><ele>1433.3333333333333</ele><time>2026-05-02T14:23:04Z</time></trkpt><trkpt lat="45.722731141837066" lon="7.192254523149413"><ele>1434.0</ele><time>2026-05-02T14:23:05Z</time></trkpt><trkpt lat="45.72268191885176" lon="7.192032655404024"><ele>1427.6666666666667</ele><time>2026-05-02T14:23:06Z</time></trkpt><trkpt lat="45.72263235946255" lon="7.191820837924805"><ele>1421.3333333333335</ele><time>2026-05-02T14:23:07Z</time></trkpt><trkpt lat="45.72251240577061" lon="7.191671970982196"><ele>1415.0</ele><time>2026-05-02T14:23:08Z</time></trkpt><trkpt lat="45.7223487857843" lon="7.19164633992802"><ele>1415.0</ele><time>2026-05-02T14:23:09Z</time></trkpt><trkpt lat="45.72220165912011" lon="7.191619346475574"><ele>1415.0</ele><time>2026-05-02T14:23:10Z</time></trkpt><trkpt lat="45.722041512436356" lon="7.191600147804582"><ele>1415.0</ele><time>2026-05-02T14:23:11Z</time></trkpt><trkpt lat="45.72187370366491" lon="7.191576569173192"><ele>1413.3333333333335</ele><time>2026-05-02T14:23:12Z</time></trkpt><trkpt lat="45.72170287966878" lon="7.191549461451211"><ele>1411.6666666666667</ele><time>2026-05-02T14:23:13Z</time></trkpt><trkpt lat="45.72153291999507" lon="7.191523058178882"><ele>1410.0</ele><time>2026-05-02T14:23:14Z</time></trkpt><trkpt lat="45.721369795863566" lon="7.191497001937808"><ele>1410.0</ele><time>2026-05-02T14:23:15Z</time></trkpt><trkpt lat="45.721210307189395" lon="7.191470960563586"><ele>1410.0</ele><time>2026-05-02T14:23:16Z</time></trkpt><trkpt lat="45.72105783468893" lon="7.191448023133129"><ele>1410.0</ele><time>2026-05-02T14:23:17Z</time></trkpt><trkpt lat="45.72090666230185" lon="7.1914298308666345"><ele>1407.75</ele><time>2026-05-02T14:23:18Z</time></trkpt><trkpt lat="45.72076411763985" lon="7.191418916736012"><ele>1405.5</ele><time>2026-05-02T14:23:19Z</time></trkpt><trkpt lat="45.720614838228826" lon="7.191407004365386"><ele>1403.25</ele><time>2026-05-02T14:23:20Z</time></trkpt><trkpt lat="45.72047577253467" lon="7.191393496297304"><ele>1401.0</ele><time>2026-05-02T14:23:21Z</time></trkpt><trkpt lat="45.72035321678066" lon="7.191388089257002"><ele>1401.0</ele><time>2026-05-02T14:23:22Z</time></trkpt><trkpt lat="45.7202480007876" lon="7.19137515901431"><ele>1401.0</ele><time>2026-05-02T14:23:23Z</time></trkpt><trkpt lat="45.72014594067444" lon="7.1914657124727865"><ele>1401.0</ele><time>2026-05-02T14:23:24Z</time></trkpt><trkpt lat="45.720098862984955" lon="7.191623559769122"><ele>1401.0</ele><time>2026-05-02T14:23:25Z</time></trkpt><trkpt lat="45.72014094111263" lon="7.191814366445417"><ele>1399.0</ele><time>2026-05-02T14:23:26Z</time></trkpt><trkpt lat="45.72019945526785" lon="7.1919650169838105"><ele>1397.0</ele><time>2026-05-02T14:23:27Z</time></trkpt><trkpt lat="45.72026716383134" lon="7.192127019707917"><ele>1395.0</ele><time>2026-05-02T14:23:28Z</time></trkpt><trkpt lat="45.720343609658606" lon="7.1923235026332275"><ele>1393.0</ele><time>2026-05-02T14:23:29Z</time></trkpt><trkpt lat="45.72043206961877" lon="7.192541623668806"><ele>1390.0</ele><time>2026-05-02T14:23:30Z</time></trkpt><trkpt lat="45.72053444202634" lon="7.192765628871266"><ele>1387.0</ele><time>2026-05-02T14:23:31Z</time></trkpt><trkpt lat="45.72065808066373" lon="7.192948146730459"><ele>1384.0</ele><time>2026-05-02T14:23:32Z</time></trkpt><trkpt lat="45.72076769673424" lon="7.193133330086845"><ele>1381.3333333333333</ele><time>2026-05-02T14:23:33Z</time></trkpt><trkpt lat="45.72086830705449" lon="7.1933150903646395"><ele>1378.6666666666667</ele><time>2026-05-02T14:23:34Z</time></trkpt><trkpt lat="45.72093682685629" lon="7.193512772057337"><ele>1376.0</ele><time>2026-05-02T14:23:35Z</time></trkpt><trkpt lat="45.72096535808229" lon="7.193721588306237"><ele>1376.0</ele><time>2026-05-02T14:23:36Z</time></trkpt><trkpt lat="45.72093569929489" lon="7.19393149520492"><ele>1376.0</ele><time>2026-05-02T14:23:37Z</time></trkpt><trkpt lat="45.72087630479974" lon="7.194121802386441"><ele>1376.0</ele><time>2026-05-02T14:23:38Z</time></trkpt><trkpt lat="45.72081209194969" lon="7.194293994994245"><ele>1376.0</ele><time>2026-05-02T14:23:39Z</time></trkpt><trkpt lat="45.720747228911414" lon="7.194469957471577"><ele>1373.25</ele><time>2026-05-02T14:23:40Z</time></trkpt><trkpt lat="45.72068175470489" lon="7.19463901391587"><ele>1370.5</ele><time>2026-05-02T14:23:41Z</time></trkpt><trkpt lat="45.72063161929996" lon="7.194790294651685"><ele>1367.75</ele><time>2026-05-02T14:23:42Z</time></trkpt><trkpt lat="45.72054318580309" lon="7.194897703549229"><ele>1365.0</ele><time>2026-05-02T14:23:43Z</time></trkpt><trkpt lat="45.7204484860885" lon="7.194931896234293"><ele>1364.25</ele><time>2026-05-02T14:23:44Z</time></trkpt><trkpt lat="45.72035132719206" lon="7.194907846823417"><ele>1363.5</ele><time>2026-05-02T14:23:45Z</time></trkpt><trkpt lat="45.720260151980824" lon="7.194843964864718"><ele>1362.75</ele><time>2026-05-02T14:23:46Z</time></trkpt><trkpt lat="45.72016694661061" lon="7.194734829616327"><ele>1362.0</ele><time>2026-05-02T14:23:47Z</time></trkpt><trkpt lat="45.720058302135506" lon="7.194599409055092"><ele>1360.5</ele><time>2026-05-02T14:23:48Z</time></trkpt><trkpt lat="45.719946824473546" lon="7.194463109704253"><ele>1359.0</ele><time>2026-05-02T14:23:49Z</time></trkpt><trkpt lat="45.719844078672345" lon="7.194334865824478"><ele>1357.5</ele><time>2026-05-02T14:23:50Z</time></trkpt><trkpt lat="45.719761627013135" lon="7.194200058764517"><ele>1356.0</ele><time>2026-05-02T14:23:51Z</time></trkpt><trkpt lat="45.719711479092645" lon="7.194053800846053"><ele>1357.5</ele><time>2026-05-02T14:23:52Z</time></trkpt><trkpt lat="45.719697328645694" lon="7.193894502386905"><ele>1359.0</ele><time>2026-05-02T14:23:53Z</time></trkpt><trkpt lat="45.71971987992762" lon="7.193729559573486"><ele>1360.5</ele><time>2026-05-02T14:23:54Z</time></trkpt><trkpt lat="45.71974552420168" lon="7.193547894745135"><ele>1362.0</ele><time>2026-05-02T14:23:55Z</time></trkpt><trkpt lat="45.719751434043445" lon="7.19333635153219"><ele>1365.3333333333333</ele><time>2026-05-02T14:23:56Z</time></trkpt><trkpt lat="45.719726380625175" lon="7.193124329872311"><ele>1368.6666666666665</ele><time>2026-05-02T14:23:57Z</time></trkpt><trkpt lat="45.71966716587497" lon="7.19290948813411"><ele>1372.0</ele><time>2026-05-02T14:23:58Z</time></trkpt><trkpt lat="45.71958229343699" lon="7.192698549741163"><ele>1372.0</ele><time>2026-05-02T14:23:59Z</time></trkpt><trkpt lat="45.71945866134745" lon="7.19253436428392"><ele>1372.0</ele><time>2026-05-02T14:24:00Z</time></trkpt><trkpt lat="45.719323125998066" lon="7.192402101690519"><ele>1372.0</ele><time>2026-05-02T14:24:01Z</time></trkpt><trkpt lat="45.719179783714466" lon="7.192274247697233"><ele>1371.0</ele><time>2026-05-02T14:24:02Z</time></trkpt><trkpt lat="45.71903826428811" lon="7.192132573031935"><ele>1370.0</ele><time>2026-05-02T14:24:03Z</time></trkpt><trkpt lat="45.71889604535582" lon="7.191987333897709"><ele>1369.0</ele><time>2026-05-02T14:24:04Z</time></trkpt><trkpt lat="45.718755410662176" lon="7.191837199702306"><ele>1369.0</ele><time>2026-05-02T14:24:05Z</time></trkpt><trkpt lat="45.718609754249975" lon="7.19171362949778"><ele>1369.0</ele><time>2026-05-02T14:24:06Z</time></trkpt><trkpt lat="45.718460070134434" lon="7.191628916060755"><ele>1369.0</ele><time>2026-05-02T14:24:07Z</time></trkpt><trkpt lat="45.718308661428125" lon="7.191599343992302"><ele>1366.75</ele><time>2026-05-02T14:24:08Z</time></trkpt><trkpt lat="45.71817497012707" lon="7.1915521563859395"><ele>1364.5</ele><time>2026-05-02T14:24:09Z</time></trkpt><trkpt lat="45.718049307960534" lon="7.191505453434981"><ele>1362.25</ele><time>2026-05-02T14:24:10Z</time></trkpt><trkpt lat="45.71793672084789" lon="7.191435544143764"><ele>1360.0</ele><time>2026-05-02T14:24:11Z</time></trkpt><trkpt lat="45.71784398257157" lon="7.191321597426922"><ele>1360.0</ele><time>2026-05-02T14:24:12Z</time></trkpt><trkpt lat="45.71775126371672" lon="7.191172655204812"><ele>1360.0</ele><time>2026-05-02T14:24:13Z</time></trkpt><trkpt lat="45.71767640544761" lon="7.1910116060904095"><ele>1360.0</ele><time>2026-05-02T14:24:14Z</time></trkpt><trkpt lat="45.71761354162872" lon="7.190836449166713"><ele>1360.0</ele><time>2026-05-02T14:24:15Z</time></trkpt><trkpt lat="45.717572374219486" lon="7.190647320674717"><ele>1353.0</ele><time>2026-05-02T14:24:16Z</time></trkpt><trkpt lat="45.71753804437228" lon="7.190450147485906"><ele>1346.0</ele><time>2026-05-02T14:24:17Z</time></trkpt><trkpt lat="45.71751204061707" lon="7.190257235425296"><ele>1339.0</ele><time>2026-05-02T14:24:18Z</time></trkpt><trkpt lat="45.71749256295582" lon="7.190062312920628"><ele>1332.0</ele><time>2026-05-02T14:24:19Z</time></trkpt><trkpt lat="45.717479865237316" lon="7.189864218860567"><ele>1332.0</ele><time>2026-05-02T14:24:20Z</time></trkpt><trkpt lat="45.71747573298155" lon="7.189663742465952"><ele>1332.0</ele><time>2026-05-02T14:24:21Z</time></trkpt><trkpt lat="45.717474291466026" lon="7.189451938268911"><ele>1332.0</ele><time>2026-05-02T14:24:22Z</time></trkpt><trkpt lat="45.717446948707504" lon="7.1892202237535034"><ele>1332.6666666666667</ele><time>2026-05-02T14:24:23Z</time></trkpt><trkpt lat="45.71736990236446" lon="7.188966369821358"><ele>1333.3333333333335</ele><time>2026-05-02T14:24:24Z</time></trkpt><trkpt lat="45.71725783976698" lon="7.188736649049205"><ele>1334.0</ele><time>2026-05-02T14:24:25Z</time></trkpt><trkpt lat="45.71715509078405" lon="7.188514562271942"><ele>1334.0</ele><time>2026-05-02T14:24:26Z</time></trkpt><trkpt lat="45.71707466711125" lon="7.188293250689918"><ele>1334.0</ele><time>2026-05-02T14:24:27Z</time></trkpt><trkpt lat="45.717021854167996" lon="7.188081663999761"><ele>1334.0</ele><time>2026-05-02T14:24:28Z</time></trkpt><trkpt lat="45.71698676531834" lon="7.18785783066183"><ele>1335.6666666666667</ele><time>2026-05-02T14:24:29Z</time></trkpt><trkpt lat="45.71695918500766" lon="7.187634379718315"><ele>1337.3333333333333</ele><time>2026-05-02T14:24:30Z</time></trkpt><trkpt lat="45.71693197243924" lon="7.187401629670172"><ele>1339.0</ele><time>2026-05-02T14:24:31Z</time></trkpt><trkpt lat="45.7169037176126" lon="7.187167893826157"><ele>1329.6666666666665</ele><time>2026-05-02T14:24:32Z</time></trkpt><trkpt lat="45.71688755010578" lon="7.186926911670452"><ele>1320.3333333333333</ele><time>2026-05-02T14:24:33Z</time></trkpt><trkpt lat="45.71687287821928" lon="7.1866893220308805"><ele>1311.0</ele><time>2026-05-02T14:24:34Z</time></trkpt><trkpt lat="45.71687041525076" lon="7.186459081623738"><ele>1309.0</ele><time>2026-05-02T14:24:35Z</time></trkpt><trkpt lat="45.716889170379226" lon="7.186222975191524"><ele>1307.0</ele><time>2026-05-02T14:24:36Z</time></trkpt><trkpt lat="45.71692652764976" lon="7.185992328489428"><ele>1305.0</ele><time>2026-05-02T14:24:37Z</time></trkpt><trkpt lat="45.71695849295167" lon="7.185753066872087"><ele>1315.6666666666667</ele><time>2026-05-02T14:24:38Z</time></trkpt><trkpt lat="45.716962477925414" lon="7.185507494286053"><ele>1326.3333333333335</ele><time>2026-05-02T14:24:39Z</time></trkpt><trkpt lat="45.716945819487265" lon="7.185265324920328"><ele>1337.0</ele><time>2026-05-02T14:24:40Z</time></trkpt><trkpt lat="45.71691692978263" lon="7.1850165544716615"><ele>1325.0</ele><time>2026-05-02T14:24:41Z</time></trkpt><trkpt lat="45.716876834686765" lon="7.184765989546127"><ele>1313.0</ele><time>2026-05-02T14:24:42Z</time></trkpt><trkpt lat="45.71683204092282" lon="7.1845282762296385"><ele>1301.0</ele><time>2026-05-02T14:24:43Z</time></trkpt><trkpt lat="45.716793981600624" lon="7.1842977839816236"><ele>1301.0</ele><time>2026-05-02T14:24:44Z</time></trkpt><trkpt lat="45.716764781146026" lon="7.184067365848025"><ele>1301.0</ele><time>2026-05-02T14:24:45Z</time></trkpt><trkpt lat="45.716746897966054" lon="7.183840251916487"><ele>1301.0</ele><time>2026-05-02T14:24:46Z</time></trkpt><trkpt lat="45.71674034751108" lon="7.183607435244429"><ele>1299.0</ele><time>2026-05-02T14:24:47Z</time></trkpt><trkpt lat="45.716756811674394" lon="7.1833781594675985"><ele>1297.0</ele><time>2026-05-02T14:24:48Z</time></trkpt><trkpt lat="45.71678530570096" lon="7.1831412343903365"><ele>1295.0</ele><time>2026-05-02T14:24:49Z</time></trkpt><trkpt lat="45.7168217230965" lon="7.182901637354241"><ele>1291.3333333333335</ele><time>2026-05-02T14:24:50Z</time></trkpt><trkpt lat="45.71686734231754" lon="7.18265830309141"><ele>1287.6666666666667</ele><time>2026-05-02T14:24:51Z</time></trkpt><trkpt lat="45.716933894501466" lon="7.182414015064058"><ele>1284.0</ele><time>2026-05-02T14:24:52Z</time></trkpt><trkpt lat="45.71701617788292" lon="7.18217953070977"><ele>1291.6666666666667</ele><time>2026-05-02T14:24:53Z</time></trkpt><trkpt lat="45.717097760300554" lon="7.181949336753216"><ele>1299.3333333333335</ele><time>2026-05-02T14:24:54Z</time></trkpt><trkpt lat="45.71717042426064" lon="7.181729351043734"><ele>1307.0</ele><time>2026-05-02T14:24:55Z</time></trkpt><trkpt lat="45.71723373782835" lon="7.181533648934635"><ele>1307.75</ele><time>2026-05-02T14:24:56Z</time></trkpt><trkpt lat="45.717288962441614" lon="7.181362366469721"><ele>1308.5</ele><time>2026-05-02T14:24:57Z</time></trkpt><trkpt lat="45.71731566994054" lon="7.181210766800535"><ele>1309.25</ele><time>2026-05-02T14:24:58Z</time></trkpt><trkpt lat="45.717334672278085" lon="7.181080275541752"><ele>1310.0</ele><time>2026-05-02T14:24:59Z</time></trkpt><trkpt lat="45.71725033734771" lon="7.180930303764049"><ele>1310.0</ele><time>2026-05-02T14:25:00Z</time></trkpt><trkpt lat="45.717126279704324" lon="7.180831174754783"><ele>1310.0</ele><time>2026-05-02T14:25:01Z</time></trkpt><trkpt lat="45.71701043713021" lon="7.180714818638052"><ele>1310.0</ele><time>2026-05-02T14:25:02Z</time></trkpt><trkpt lat="45.71687740272918" lon="7.18058668821607"><ele>1310.0</ele><time>2026-05-02T14:25:03Z</time></trkpt><trkpt lat="45.71671893744564" lon="7.180478970364499"><ele>1306.0</ele><time>2026-05-02T14:25:04Z</time></trkpt><trkpt lat="45.716544635722414" lon="7.180397600811589"><ele>1302.0</ele><time>2026-05-02T14:25:05Z</time></trkpt><trkpt lat="45.71637108435021" lon="7.180344739822243"><ele>1298.0</ele><time>2026-05-02T14:25:06Z</time></trkpt><trkpt lat="45.716209366937285" lon="7.180274079276005"><ele>1289.25</ele><time>2026-05-02T14:25:07Z</time></trkpt><trkpt lat="45.7160532543238" lon="7.180237166762173"><ele>1280.5</ele><time>2026-05-02T14:25:08Z</time></trkpt><trkpt lat="45.71591902428859" lon="7.180227335204665"><ele>1271.75</ele><time>2026-05-02T14:25:09Z</time></trkpt><trkpt lat="45.71582493490786" lon="7.180187221408756"><ele>1263.0</ele><time>2026-05-02T14:25:10Z</time></trkpt><trkpt lat="45.71574054176459" lon="7.180162620033033"><ele>1263.0</ele><time>2026-05-02T14:25:11Z</time></trkpt><trkpt lat="45.71568582153898" lon="7.180063630036898"><ele>1263.0</ele><time>2026-05-02T14:25:12Z</time></trkpt><trkpt lat="45.71573034404117" lon="7.179899077319807"><ele>1263.0</ele><time>2026-05-02T14:25:13Z</time></trkpt><trkpt lat="45.71580981272545" lon="7.179767206012812"><ele>1263.0</ele><time>2026-05-02T14:25:14Z</time></trkpt><trkpt lat="45.7158817589227" lon="7.179594903956405"><ele>1265.6666666666667</ele><time>2026-05-02T14:25:15Z</time></trkpt><trkpt lat="45.71597366225966" lon="7.179388906015535"><ele>1268.3333333333335</ele><time>2026-05-02T14:25:16Z</time></trkpt><trkpt lat="45.71605399628322" lon="7.1791391290797"><ele>1271.0</ele><time>2026-05-02T14:25:17Z</time></trkpt><trkpt lat="45.716130878886226" lon="7.1788804118975245"><ele>1271.0</ele><time>2026-05-02T14:25:18Z</time></trkpt><trkpt lat="45.716178592768216" lon="7.1786271522198"><ele>1271.0</ele><time>2026-05-02T14:25:19Z</time></trkpt><trkpt lat="45.71621214913267" lon="7.178369306630092"><ele>1271.0</ele><time>2026-05-02T14:25:20Z</time></trkpt><trkpt lat="45.716238362299244" lon="7.178111224710662"><ele>1266.0</ele><time>2026-05-02T14:25:21Z</time></trkpt><trkpt lat="45.71627369543031" lon="7.1778585115985445"><ele>1261.0</ele><time>2026-05-02T14:25:22Z</time></trkpt><trkpt lat="45.71631914164291" lon="7.177636680189206"><ele>1256.0</ele><time>2026-05-02T14:25:23Z</time></trkpt><trkpt lat="45.7163625875133" lon="7.177434298638734"><ele>1251.5</ele><time>2026-05-02T14:25:24Z</time></trkpt><trkpt lat="45.716425836292274" lon="7.17725891145535"><ele>1247.0</ele><time>2026-05-02T14:25:25Z</time></trkpt><trkpt lat="45.716516768564766" lon="7.177120837986877"><ele>1242.5</ele><time>2026-05-02T14:25:26Z</time></trkpt><trkpt lat="45.716623497495945" lon="7.176996930019385"><ele>1238.0</ele><time>2026-05-02T14:25:27Z</time></trkpt><trkpt lat="45.716749682185096" lon="7.176880044760109"><ele>1238.0</ele><time>2026-05-02T14:25:28Z</time></trkpt><trkpt lat="45.716879609059156" lon="7.1767670724467045"><ele>1238.0</ele><time>2026-05-02T14:25:29Z</time></trkpt><trkpt lat="45.71702730189481" lon="7.176685686123046"><ele>1238.0</ele><time>2026-05-02T14:25:30Z</time></trkpt><trkpt lat="45.71718134072235" lon="7.176624243929435"><ele>1237.5</ele><time>2026-05-02T14:25:31Z</time></trkpt><trkpt lat="45.71732977543467" lon="7.176564238491996"><ele>1237.0</ele><time>2026-05-02T14:25:32Z</time></trkpt><trkpt lat="45.71746497361825" lon="7.176517170537402"><ele>1236.5</ele><time>2026-05-02T14:25:33Z</time></trkpt><trkpt lat="45.71759087914264" lon="7.176498391300719"><ele>1236.0</ele><time>2026-05-02T14:25:34Z</time></trkpt><trkpt lat="45.71769754578088" lon="7.1764853808241575"><ele>1236.0</ele><time>2026-05-02T14:25:35Z</time></trkpt><trkpt lat="45.71778884147331" lon="7.176474000964271"><ele>1236.0</ele><time>2026-05-02T14:25:36Z</time></trkpt><trkpt lat="45.71785194469246" lon="7.176442951994527"><ele>1236.0</ele><time>2026-05-02T14:25:37Z</time></trkpt><trkpt lat="45.71788445672032" lon="7.17625060896966"><ele>1236.0</ele><time>2026-05-02T14:25:39Z</time></trkpt><trkpt lat="45.71779439416723" lon="7.176112528296312"><ele>1236.0</ele><time>2026-05-02T14:25:40Z</time></trkpt><trkpt lat="45.71769148235664" lon="7.175989030022525"><ele>1236.0</ele><time>2026-05-02T14:25:41Z</time></trkpt><trkpt lat="45.71757820697485" lon="7.175859263662625"><ele>1236.0</ele><time>2026-05-02T14:25:42Z</time></trkpt><trkpt lat="45.717454024807765" lon="7.1757451917131965"><ele>1236.0</ele><time>2026-05-02T14:25:43Z</time></trkpt><trkpt lat="45.71736590400127" lon="7.175624231718955"><ele>1236.0</ele><time>2026-05-02T14:25:44Z</time></trkpt><trkpt lat="45.717269452793225" lon="7.1755097772866465"><ele>1237.0</ele><time>2026-05-02T14:25:45Z</time></trkpt><trkpt lat="45.71718594675497" lon="7.1753862096419425"><ele>1238.0</ele><time>2026-05-02T14:25:46Z</time></trkpt><trkpt lat="45.71713847259404" lon="7.175238934152736"><ele>1239.0</ele><time>2026-05-02T14:25:47Z</time></trkpt><trkpt lat="45.71712830855338" lon="7.175085584002667"><ele>1240.0</ele><time>2026-05-02T14:25:48Z</time></trkpt><trkpt lat="45.71715383501112" lon="7.17492246216581"><ele>1240.0</ele><time>2026-05-02T14:25:49Z</time></trkpt><trkpt lat="45.71719350639244" lon="7.174746070381661"><ele>1240.0</ele><time>2026-05-02T14:25:50Z</time></trkpt><trkpt lat="45.717258151741696" lon="7.174559561107035"><ele>1240.0</ele><time>2026-05-02T14:25:51Z</time></trkpt><trkpt lat="45.717348874917604" lon="7.174350232550961"><ele>1240.0</ele><time>2026-05-02T14:25:52Z</time></trkpt><trkpt lat="45.717444908899076" lon="7.1741308091082265"><ele>1234.3333333333333</ele><time>2026-05-02T14:25:53Z</time></trkpt><trkpt lat="45.71753755814917" lon="7.173923648940832"><ele>1228.6666666666667</ele><time>2026-05-02T14:25:54Z</time></trkpt><trkpt lat="45.71761901288488" lon="7.173716782675301"><ele>1223.0</ele><time>2026-05-02T14:25:55Z</time></trkpt><trkpt lat="45.71768342893146" lon="7.173506157919889"><ele>1223.0</ele><time>2026-05-02T14:25:56Z</time></trkpt><trkpt lat="45.717730498986946" lon="7.173315048124233"><ele>1223.0</ele><time>2026-05-02T14:25:57Z</time></trkpt><trkpt lat="45.71775098509703" lon="7.173134407337944"><ele>1223.0</ele><time>2026-05-02T14:25:58Z</time></trkpt><trkpt lat="45.717735699941365" lon="7.172946342796895"><ele>1223.0</ele><time>2026-05-02T14:25:59Z</time></trkpt><trkpt lat="45.71768327753078" lon="7.172761499137514"><ele>1223.25</ele><time>2026-05-02T14:26:00Z</time></trkpt><trkpt lat="45.71761830737798" lon="7.172585343902599"><ele>1223.5</ele><time>2026-05-02T14:26:01Z</time></trkpt><trkpt lat="45.71754162584487" lon="7.1724227720206315"><ele>1223.75</ele><time>2026-05-02T14:26:02Z</time></trkpt><trkpt lat="45.71746892490696" lon="7.1722594957414705"><ele>1224.0</ele><time>2026-05-02T14:26:03Z</time></trkpt><trkpt lat="45.717355901815274" lon="7.172159834922083"><ele>1228.2</ele><time>2026-05-02T14:26:04Z</time></trkpt><trkpt lat="45.71725104718361" lon="7.17206747469534"><ele>1232.4</ele><time>2026-05-02T14:26:05Z</time></trkpt><trkpt lat="45.71715438615305" lon="7.171987022298312"><ele>1236.6</ele><time>2026-05-02T14:26:06Z</time></trkpt><trkpt lat="45.71707400383263" lon="7.1719050816063685"><ele>1240.8</ele><time>2026-05-02T14:26:07Z</time></trkpt><trkpt lat="45.717029353515194" lon="7.171807923571476"><ele>1245.0</ele><time>2026-05-02T14:26:08Z</time></trkpt><trkpt lat="45.717019236426324" lon="7.171710494034501"><ele>1245.0</ele><time>2026-05-02T14:26:09Z</time></trkpt><trkpt lat="45.71700739088373" lon="7.171620548837872"><ele>1245.0</ele><time>2026-05-02T14:26:10Z</time></trkpt><trkpt lat="45.7170204642354" lon="7.171531959806634"><ele>1245.0</ele><time>2026-05-02T14:26:11Z</time></trkpt><trkpt lat="45.717003928052286" lon="7.171401082445095"><ele>1245.0</ele><time>2026-05-02T14:26:12Z</time></trkpt><trkpt lat="45.71702957887036" lon="7.171259557897901"><ele>1245.0</ele><time>2026-05-02T14:26:13Z</time></trkpt><trkpt lat="45.71706073044915" lon="7.171102305590882"><ele>1245.0</ele><time>2026-05-02T14:26:14Z</time></trkpt><trkpt lat="45.71708264289086" lon="7.170931107473669"><ele>1244.25</ele><time>2026-05-02T14:26:15Z</time></trkpt><trkpt lat="45.717107134157146" lon="7.170759632325001"><ele>1243.5</ele><time>2026-05-02T14:26:16Z</time></trkpt><trkpt lat="45.71711937048149" lon="7.170579558185012"><ele>1242.75</ele><time>2026-05-02T14:26:17Z</time></trkpt><trkpt lat="45.71710188814292" lon="7.170405694021865"><ele>1242.0</ele><time>2026-05-02T14:26:18Z</time></trkpt><trkpt lat="45.71705976181437" lon="7.170248363416375"><ele>1239.8</ele><time>2026-05-02T14:26:19Z</time></trkpt><trkpt lat="45.71700280873054" lon="7.170105227173231"><ele>1237.6</ele><time>2026-05-02T14:26:20Z</time></trkpt><trkpt lat="45.71694161158091" lon="7.169973034070723"><ele>1235.3999999999999</ele><time>2026-05-02T14:26:21Z</time></trkpt><trkpt lat="45.71687938711878" lon="7.169844380367646"><ele>1233.2</ele><time>2026-05-02T14:26:22Z</time></trkpt><trkpt lat="45.71681752935418" lon="7.169715968713794"><ele>1231.0</ele><time>2026-05-02T14:26:23Z</time></trkpt><trkpt lat="45.71675437722558" lon="7.169603193140553"><ele>1226.6</ele><time>2026-05-02T14:26:24Z</time></trkpt><trkpt lat="45.71669390071264" lon="7.169488192677211"><ele>1222.1999999999998</ele><time>2026-05-02T14:26:25Z</time></trkpt><trkpt lat="45.71663697900254" lon="7.169373884448249"><ele>1217.8000000000002</ele><time>2026-05-02T14:26:26Z</time></trkpt><trkpt lat="45.716595299014784" lon="7.169254353350429"><ele>1213.4</ele><time>2026-05-02T14:26:27Z</time></trkpt><trkpt lat="45.71657422778405" lon="7.169131447372811"><ele>1209.0</ele><time>2026-05-02T14:26:28Z</time></trkpt><trkpt lat="45.71655796943886" lon="7.169010546665665"><ele>1209.0</ele><time>2026-05-02T14:26:29Z</time></trkpt><trkpt lat="45.71655242909144" lon="7.168896782535905"><ele>1209.0</ele><time>2026-05-02T14:26:30Z</time></trkpt><trkpt lat="45.71654627599104" lon="7.168792157787254"><ele>1209.0</ele><time>2026-05-02T14:26:31Z</time></trkpt><trkpt lat="45.71653911842772" lon="7.168701136120477"><ele>1209.0</ele><time>2026-05-02T14:26:32Z</time></trkpt><trkpt lat="45.7165204640193" lon="7.168538368187117"><ele>1209.0</ele><time>2026-05-02T14:26:34Z</time></trkpt><trkpt lat="45.71650285692903" lon="7.168424487123151"><ele>1209.0</ele><time>2026-05-02T14:26:36Z</time></trkpt></trkseg></trk></gpx>